<?xml version="1.0"?>
<gpx
 version="1.1"
 creator="Satmap Active 20"
 xmlns:xsi="http://www.w3.org/2001/XMLSchema-instance"
 xmlns="http://www.topografix.com/GPX/1/1"
 xmlns:satmap="http://www.satmap.com/updates/xmlschemas/GpxExtensions/v2/GpxExtensions_v2.xsd"
 xsi:schemaLocation="http://www.topografix.com/GPX/1/1 http://www.topografix.com/GPX/1/1/gpx.xsd">
<metadata>
<time>2021-05-20T09:35:33Z</time>
<extensions>
<satmap:platform>43</satmap:platform>
<satmap:software version="3.13.037">SM15.exe</satmap:software>
<satmap:username>pieter metz</satmap:username>
<satmap:network_ids>
<satmap:network_id type="wifi">00-23-A7-CA-E3-5C</satmap:network_id>
<satmap:network_id type="bluetooth">80-BB-EB-78-4F-29</satmap:network_id>
</satmap:network_ids>
<satmap:snap_type>simple</satmap:snap_type>
</extensions>
</metadata>
<trk>
<name>2021-05-20_0935</name>
<desc>Track 1</desc>
<number>1</number>
<trkseg>
<trkpt lat="53.306757" lon="06.593085"><ele>20.2</ele><time>2021-05-20T09:35:33Z</time><name>PT1</name></trkpt>
<trkpt lat="53.306751" lon="06.593076"><ele>18.7</ele><time>2021-05-20T09:36:37Z</time><name>PT2</name></trkpt>
<trkpt lat="53.306746" lon="06.593066"><ele>18.8</ele><time>2021-05-20T09:36:39Z</time><name>PT3</name></trkpt>
<trkpt lat="53.306745" lon="06.593061"><ele>18.8</ele><time>2021-05-20T09:36:40Z</time><name>PT4</name></trkpt>
<trkpt lat="53.306743" lon="06.593054"><ele>18.9</ele><time>2021-05-20T09:36:40Z</time><name>PT5</name></trkpt>
<trkpt lat="53.306744" lon="06.593052"><ele>19</ele><time>2021-05-20T09:36:42Z</time><name>PT6</name></trkpt>
<trkpt lat="53.306742" lon="06.593054"><ele>18.9</ele><time>2021-05-20T09:36:43Z</time><name>PT7</name></trkpt>
<trkpt lat="53.306740" lon="06.593051"><ele>18.8</ele><time>2021-05-20T09:36:43Z</time><name>PT8</name></trkpt>
<trkpt lat="53.306738" lon="06.593049"><ele>18.7</ele><time>2021-05-20T09:36:45Z</time><name>PT9</name></trkpt>
<trkpt lat="53.306738" lon="06.593049"><ele>18.7</ele><time>2021-05-20T09:36:46Z</time><name>PT10</name></trkpt>
<trkpt lat="53.306736" lon="06.593048"><ele>18.7</ele><time>2021-05-20T09:36:46Z</time><name>PT11</name></trkpt>
<trkpt lat="53.306739" lon="06.593049"><ele>18.7</ele><time>2021-05-20T09:36:55Z</time><name>PT12</name></trkpt>
<trkpt lat="53.306733" lon="06.593050"><ele>18.7</ele><time>2021-05-20T09:36:57Z</time><name>PT13</name></trkpt>
<trkpt lat="53.306731" lon="06.593052"><ele>19</ele><time>2021-05-20T09:36:58Z</time><name>PT14</name></trkpt>
<trkpt lat="53.306730" lon="06.593068"><ele>18.8</ele><time>2021-05-20T09:37:04Z</time><name>PT15</name></trkpt>
<trkpt lat="53.306728" lon="06.593068"><ele>18.9</ele><time>2021-05-20T09:37:06Z</time><name>PT16</name></trkpt>
<trkpt lat="53.306728" lon="06.593063"><ele>18.7</ele><time>2021-05-20T09:37:07Z</time><name>PT17</name></trkpt>
<trkpt lat="53.306729" lon="06.593065"><ele>18.8</ele><time>2021-05-20T09:37:07Z</time><name>PT18</name></trkpt>
<trkpt lat="53.306729" lon="06.593068"><ele>18.7</ele><time>2021-05-20T09:37:09Z</time><name>PT19</name></trkpt>
<trkpt lat="53.306730" lon="06.593070"><ele>18.7</ele><time>2021-05-20T09:37:10Z</time><name>PT20</name></trkpt>
<trkpt lat="53.306730" lon="06.593070"><ele>18.7</ele><time>2021-05-20T09:37:10Z</time><name>PT21</name></trkpt>
<trkpt lat="53.306730" lon="06.593073"><ele>18.7</ele><time>2021-05-20T09:37:12Z</time><name>PT22</name></trkpt>
<trkpt lat="53.306728" lon="06.593065"><ele>19.1</ele><time>2021-05-20T09:37:27Z</time><name>PT23</name></trkpt>
<trkpt lat="53.306722" lon="06.593060"><ele>19.1</ele><time>2021-05-20T09:37:28Z</time><name>PT24</name></trkpt>
<trkpt lat="53.306716" lon="06.593055"><ele>19</ele><time>2021-05-20T09:37:28Z</time><name>PT25</name></trkpt>
<trkpt lat="53.306708" lon="06.593047"><ele>18.8</ele><time>2021-05-20T09:37:30Z</time><name>PT26</name></trkpt>
<trkpt lat="53.306698" lon="06.593038"><ele>18.7</ele><time>2021-05-20T09:37:31Z</time><name>PT27</name></trkpt>
<trkpt lat="53.306687" lon="06.593033"><ele>18.7</ele><time>2021-05-20T09:37:31Z</time><name>PT28</name></trkpt>
<trkpt lat="53.306673" lon="06.593028"><ele>18.7</ele><time>2021-05-20T09:37:33Z</time><name>PT29</name></trkpt>
<trkpt lat="53.306661" lon="06.593023"><ele>18.7</ele><time>2021-05-20T09:37:34Z</time><name>PT30</name></trkpt>
<trkpt lat="53.306652" lon="06.593018"><ele>18.6</ele><time>2021-05-20T09:37:34Z</time><name>PT31</name></trkpt>
<trkpt lat="53.306642" lon="06.593013"><ele>18.7</ele><time>2021-05-20T09:37:36Z</time><name>PT32</name></trkpt>
<trkpt lat="53.306632" lon="06.593009"><ele>18.7</ele><time>2021-05-20T09:37:37Z</time><name>PT33</name></trkpt>
<trkpt lat="53.306624" lon="06.593006"><ele>18.7</ele><time>2021-05-20T09:37:37Z</time><name>PT34</name></trkpt>
<trkpt lat="53.306615" lon="06.593001"><ele>18.8</ele><time>2021-05-20T09:37:39Z</time><name>PT35</name></trkpt>
<trkpt lat="53.306607" lon="06.592997"><ele>18.8</ele><time>2021-05-20T09:37:40Z</time><name>PT36</name></trkpt>
<trkpt lat="53.306599" lon="06.592994"><ele>18.7</ele><time>2021-05-20T09:37:40Z</time><name>PT37</name></trkpt>
<trkpt lat="53.306590" lon="06.592994"><ele>18.7</ele><time>2021-05-20T09:37:42Z</time><name>PT38</name></trkpt>
<trkpt lat="53.306581" lon="06.592998"><ele>18.8</ele><time>2021-05-20T09:37:43Z</time><name>PT39</name></trkpt>
<trkpt lat="53.306568" lon="06.593000"><ele>19</ele><time>2021-05-20T09:37:43Z</time><name>PT40</name></trkpt>
<trkpt lat="53.306558" lon="06.593003"><ele>18.9</ele><time>2021-05-20T09:37:45Z</time><name>PT41</name></trkpt>
<trkpt lat="53.306551" lon="06.593007"><ele>19.1</ele><time>2021-05-20T09:37:45Z</time><name>PT42</name></trkpt>
<trkpt lat="53.306545" lon="06.593009"><ele>19</ele><time>2021-05-20T09:37:47Z</time><name>PT43</name></trkpt>
<trkpt lat="53.306548" lon="06.593011"><ele>18.9</ele><time>2021-05-20T09:37:48Z</time><name>PT44</name></trkpt>
<trkpt lat="53.306540" lon="06.593013"><ele>19</ele><time>2021-05-20T09:37:48Z</time><name>PT45</name></trkpt>
<trkpt lat="53.306530" lon="06.593018"><ele>18.9</ele><time>2021-05-20T09:37:50Z</time><name>PT46</name></trkpt>
<trkpt lat="53.306524" lon="06.593020"><ele>18.7</ele><time>2021-05-20T09:37:50Z</time><name>PT47</name></trkpt>
<trkpt lat="53.306523" lon="06.593024"><ele>18.7</ele><time>2021-05-20T09:37:52Z</time><name>PT48</name></trkpt>
<trkpt lat="53.306522" lon="06.593024"><ele>18.6</ele><time>2021-05-20T09:37:53Z</time><name>PT49</name></trkpt>
<trkpt lat="53.306521" lon="06.593023"><ele>18.7</ele><time>2021-05-20T09:37:53Z</time><name>PT50</name></trkpt>
<trkpt lat="53.306520" lon="06.593023"><ele>18.8</ele><time>2021-05-20T09:37:55Z</time><name>PT51</name></trkpt>
<trkpt lat="53.306514" lon="06.593034"><ele>18.7</ele><time>2021-05-20T09:38:05Z</time><name>PT52</name></trkpt>
<trkpt lat="53.306512" lon="06.593037"><ele>18.7</ele><time>2021-05-20T09:38:07Z</time><name>PT53</name></trkpt>
<trkpt lat="53.306509" lon="06.593038"><ele>18.9</ele><time>2021-05-20T09:38:14Z</time><name>PT54</name></trkpt>
<trkpt lat="53.306510" lon="06.593036"><ele>18.8</ele><time>2021-05-20T09:38:15Z</time><name>PT55</name></trkpt>
<trkpt lat="53.306507" lon="06.593044"><ele>18.9</ele><time>2021-05-20T09:38:15Z</time><name>PT56</name></trkpt>
<trkpt lat="53.306499" lon="06.593053"><ele>18.7</ele><time>2021-05-20T09:38:17Z</time><name>PT57</name></trkpt>
<trkpt lat="53.306496" lon="06.593057"><ele>18.6</ele><time>2021-05-20T09:38:18Z</time><name>PT58</name></trkpt>
<trkpt lat="53.306496" lon="06.593059"><ele>18.7</ele><time>2021-05-20T09:38:18Z</time><name>PT59</name></trkpt>
<trkpt lat="53.306493" lon="06.593067"><ele>18.6</ele><time>2021-05-20T09:38:20Z</time><name>PT60</name></trkpt>
<trkpt lat="53.306492" lon="06.593070"><ele>18.6</ele><time>2021-05-20T09:38:21Z</time><name>PT61</name></trkpt>
<trkpt lat="53.306488" lon="06.593072"><ele>18.7</ele><time>2021-05-20T09:38:21Z</time><name>PT62</name></trkpt>
<trkpt lat="53.306483" lon="06.593080"><ele>18.6</ele><time>2021-05-20T09:38:23Z</time><name>PT63</name></trkpt>
<trkpt lat="53.306481" lon="06.593080"><ele>18.7</ele><time>2021-05-20T09:38:24Z</time><name>PT64</name></trkpt>
<trkpt lat="53.306471" lon="06.593083"><ele>18.7</ele><time>2021-05-20T09:38:24Z</time><name>PT65</name></trkpt>
<trkpt lat="53.306460" lon="06.593085"><ele>18.7</ele><time>2021-05-20T09:38:26Z</time><name>PT66</name></trkpt>
<trkpt lat="53.306452" lon="06.593083"><ele>18.8</ele><time>2021-05-20T09:38:27Z</time><name>PT67</name></trkpt>
<trkpt lat="53.306444" lon="06.593087"><ele>18.8</ele><time>2021-05-20T09:38:27Z</time><name>PT68</name></trkpt>
<trkpt lat="53.306437" lon="06.593091"><ele>18.7</ele><time>2021-05-20T09:38:29Z</time><name>PT69</name></trkpt>
<trkpt lat="53.306428" lon="06.593093"><ele>18.7</ele><time>2021-05-20T09:38:29Z</time><name>PT70</name></trkpt>
<trkpt lat="53.306421" lon="06.593093"><ele>18.7</ele><time>2021-05-20T09:38:31Z</time><name>PT71</name></trkpt>
<trkpt lat="53.306412" lon="06.593088"><ele>18.4</ele><time>2021-05-20T09:38:31Z</time><name>PT72</name></trkpt>
<trkpt lat="53.306404" lon="06.593086"><ele>18.6</ele><time>2021-05-20T09:38:33Z</time><name>PT73</name></trkpt>
<trkpt lat="53.306396" lon="06.593087"><ele>18.6</ele><time>2021-05-20T09:38:33Z</time><name>PT74</name></trkpt>
<trkpt lat="53.306388" lon="06.593086"><ele>18.6</ele><time>2021-05-20T09:38:35Z</time><name>PT75</name></trkpt>
<trkpt lat="53.306381" lon="06.593087"><ele>18.6</ele><time>2021-05-20T09:38:35Z</time><name>PT76</name></trkpt>
<trkpt lat="53.306378" lon="06.593082"><ele>18.7</ele><time>2021-05-20T09:38:37Z</time><name>PT77</name></trkpt>
<trkpt lat="53.306372" lon="06.593085"><ele>18.4</ele><time>2021-05-20T09:38:37Z</time><name>PT78</name></trkpt>
<trkpt lat="53.306362" lon="06.593084"><ele>18.4</ele><time>2021-05-20T09:38:39Z</time><name>PT79</name></trkpt>
<trkpt lat="53.306359" lon="06.593081"><ele>18.3</ele><time>2021-05-20T09:38:39Z</time><name>PT80</name></trkpt>
<trkpt lat="53.306357" lon="06.593073"><ele>18.2</ele><time>2021-05-20T09:38:41Z</time><name>PT81</name></trkpt>
<trkpt lat="53.306355" lon="06.593067"><ele>18.1</ele><time>2021-05-20T09:38:41Z</time><name>PT82</name></trkpt>
<trkpt lat="53.306350" lon="06.593057"><ele>18.1</ele><time>2021-05-20T09:38:43Z</time><name>PT83</name></trkpt>
<trkpt lat="53.306348" lon="06.593049"><ele>18</ele><time>2021-05-20T09:38:43Z</time><name>PT84</name></trkpt>
<trkpt lat="53.306339" lon="06.593039"><ele>18.2</ele><time>2021-05-20T09:38:45Z</time><name>PT85</name></trkpt>
<trkpt lat="53.306337" lon="06.593025"><ele>18.1</ele><time>2021-05-20T09:38:45Z</time><name>PT86</name></trkpt>
<trkpt lat="53.306336" lon="06.593011"><ele>18</ele><time>2021-05-20T09:38:47Z</time><name>PT87</name></trkpt>
<trkpt lat="53.306333" lon="06.592997"><ele>18.1</ele><time>2021-05-20T09:38:47Z</time><name>PT88</name></trkpt>
<trkpt lat="53.306329" lon="06.592981"><ele>18</ele><time>2021-05-20T09:38:49Z</time><name>PT89</name></trkpt>
<trkpt lat="53.306322" lon="06.592965"><ele>18.1</ele><time>2021-05-20T09:38:49Z</time><name>PT90</name></trkpt>
<trkpt lat="53.306312" lon="06.592958"><ele>18.1</ele><time>2021-05-20T09:38:51Z</time><name>PT91</name></trkpt>
<trkpt lat="53.306309" lon="06.592936"><ele>18.1</ele><time>2021-05-20T09:38:51Z</time><name>PT92</name></trkpt>
<trkpt lat="53.306308" lon="06.592912"><ele>18.2</ele><time>2021-05-20T09:38:53Z</time><name>PT93</name></trkpt>
<trkpt lat="53.306306" lon="06.592893"><ele>18.1</ele><time>2021-05-20T09:38:53Z</time><name>PT94</name></trkpt>
<trkpt lat="53.306304" lon="06.592873"><ele>18.2</ele><time>2021-05-20T09:38:55Z</time><name>PT95</name></trkpt>
<trkpt lat="53.306306" lon="06.592859"><ele>18.2</ele><time>2021-05-20T09:38:55Z</time><name>PT96</name></trkpt>
<trkpt lat="53.306302" lon="06.592849"><ele>18.3</ele><time>2021-05-20T09:38:57Z</time><name>PT97</name></trkpt>
<trkpt lat="53.306302" lon="06.592847"><ele>18.4</ele><time>2021-05-20T09:38:57Z</time><name>PT98</name></trkpt>
<trkpt lat="53.306301" lon="06.592843"><ele>18.5</ele><time>2021-05-20T09:38:59Z</time><name>PT99</name></trkpt>
<trkpt lat="53.306297" lon="06.592838"><ele>18.7</ele><time>2021-05-20T09:39:00Z</time><name>PT100</name></trkpt>
<trkpt lat="53.306296" lon="06.592836"><ele>18.7</ele><time>2021-05-20T09:39:00Z</time><name>PT101</name></trkpt>
<trkpt lat="53.306293" lon="06.592821"><ele>18.5</ele><time>2021-05-20T09:39:14Z</time><name>PT102</name></trkpt>
<trkpt lat="53.306288" lon="06.592789"><ele>18.6</ele><time>2021-05-20T09:39:14Z</time><name>PT103</name></trkpt>
<trkpt lat="53.306278" lon="06.592772"><ele>18.7</ele><time>2021-05-20T09:39:16Z</time><name>PT104</name></trkpt>
<trkpt lat="53.306267" lon="06.592728"><ele>18.7</ele><time>2021-05-20T09:39:16Z</time><name>PT105</name></trkpt>
<trkpt lat="53.306263" lon="06.592706"><ele>18.6</ele><time>2021-05-20T09:39:18Z</time><name>PT106</name></trkpt>
<trkpt lat="53.306260" lon="06.592682"><ele>18.6</ele><time>2021-05-20T09:39:18Z</time><name>PT107</name></trkpt>
<trkpt lat="53.306254" lon="06.592664"><ele>18.7</ele><time>2021-05-20T09:39:20Z</time><name>PT108</name></trkpt>
<trkpt lat="53.306250" lon="06.592645"><ele>18.7</ele><time>2021-05-20T09:39:21Z</time><name>PT109</name></trkpt>
<trkpt lat="53.306248" lon="06.592622"><ele>18.7</ele><time>2021-05-20T09:39:21Z</time><name>PT110</name></trkpt>
<trkpt lat="53.306243" lon="06.592601"><ele>18.5</ele><time>2021-05-20T09:39:23Z</time><name>PT111</name></trkpt>
<trkpt lat="53.306238" lon="06.592584"><ele>18.5</ele><time>2021-05-20T09:39:23Z</time><name>PT112</name></trkpt>
<trkpt lat="53.306233" lon="06.592566"><ele>18.2</ele><time>2021-05-20T09:39:25Z</time><name>PT113</name></trkpt>
<trkpt lat="53.306227" lon="06.592548"><ele>18.2</ele><time>2021-05-20T09:39:26Z</time><name>PT114</name></trkpt>
<trkpt lat="53.306222" lon="06.592531"><ele>18.2</ele><time>2021-05-20T09:39:26Z</time><name>PT115</name></trkpt>
<trkpt lat="53.306217" lon="06.592512"><ele>18.2</ele><time>2021-05-20T09:39:28Z</time><name>PT116</name></trkpt>
<trkpt lat="53.306214" lon="06.592494"><ele>18.2</ele><time>2021-05-20T09:39:28Z</time><name>PT117</name></trkpt>
<trkpt lat="53.306210" lon="06.592475"><ele>18.2</ele><time>2021-05-20T09:39:30Z</time><name>PT118</name></trkpt>
<trkpt lat="53.306206" lon="06.592455"><ele>18.2</ele><time>2021-05-20T09:39:31Z</time><name>PT119</name></trkpt>
<trkpt lat="53.306201" lon="06.592435"><ele>18.2</ele><time>2021-05-20T09:39:31Z</time><name>PT120</name></trkpt>
<trkpt lat="53.306199" lon="06.592411"><ele>18</ele><time>2021-05-20T09:39:33Z</time><name>PT121</name></trkpt>
<trkpt lat="53.306195" lon="06.592390"><ele>18.2</ele><time>2021-05-20T09:39:34Z</time><name>PT122</name></trkpt>
<trkpt lat="53.306192" lon="06.592370"><ele>18.2</ele><time>2021-05-20T09:39:34Z</time><name>PT123</name></trkpt>
<trkpt lat="53.306187" lon="06.592351"><ele>18.2</ele><time>2021-05-20T09:39:36Z</time><name>PT124</name></trkpt>
<trkpt lat="53.306183" lon="06.592332"><ele>18.3</ele><time>2021-05-20T09:39:37Z</time><name>PT125</name></trkpt>
<trkpt lat="53.306170" lon="06.592317"><ele>18.2</ele><time>2021-05-20T09:39:37Z</time><name>PT126</name></trkpt>
<trkpt lat="53.306168" lon="06.592298"><ele>18.2</ele><time>2021-05-20T09:39:39Z</time><name>PT127</name></trkpt>
<trkpt lat="53.306167" lon="06.592280"><ele>18.2</ele><time>2021-05-20T09:39:39Z</time><name>PT128</name></trkpt>
<trkpt lat="53.306161" lon="06.592263"><ele>18.2</ele><time>2021-05-20T09:39:41Z</time><name>PT129</name></trkpt>
<trkpt lat="53.306158" lon="06.592247"><ele>18.2</ele><time>2021-05-20T09:39:42Z</time><name>PT130</name></trkpt>
<trkpt lat="53.306153" lon="06.592229"><ele>18.2</ele><time>2021-05-20T09:39:42Z</time><name>PT131</name></trkpt>
<trkpt lat="53.306147" lon="06.592210"><ele>18.3</ele><time>2021-05-20T09:39:44Z</time><name>PT132</name></trkpt>
<trkpt lat="53.306143" lon="06.592191"><ele>18.4</ele><time>2021-05-20T09:39:45Z</time><name>PT133</name></trkpt>
<trkpt lat="53.306141" lon="06.592172"><ele>18.4</ele><time>2021-05-20T09:39:45Z</time><name>PT134</name></trkpt>
<trkpt lat="53.306137" lon="06.592153"><ele>18.3</ele><time>2021-05-20T09:39:47Z</time><name>PT135</name></trkpt>
<trkpt lat="53.306134" lon="06.592134"><ele>18.2</ele><time>2021-05-20T09:39:48Z</time><name>PT136</name></trkpt>
<trkpt lat="53.306130" lon="06.592114"><ele>18.2</ele><time>2021-05-20T09:39:48Z</time><name>PT137</name></trkpt>
<trkpt lat="53.306125" lon="06.592094"><ele>18.2</ele><time>2021-05-20T09:39:50Z</time><name>PT138</name></trkpt>
<trkpt lat="53.306121" lon="06.592076"><ele>18.3</ele><time>2021-05-20T09:39:51Z</time><name>PT139</name></trkpt>
<trkpt lat="53.306119" lon="06.592059"><ele>18.3</ele><time>2021-05-20T09:39:51Z</time><name>PT140</name></trkpt>
<trkpt lat="53.306117" lon="06.592040"><ele>18.3</ele><time>2021-05-20T09:39:53Z</time><name>PT141</name></trkpt>
<trkpt lat="53.306114" lon="06.592021"><ele>18.3</ele><time>2021-05-20T09:39:53Z</time><name>PT142</name></trkpt>
<trkpt lat="53.306111" lon="06.592002"><ele>18.3</ele><time>2021-05-20T09:39:55Z</time><name>PT143</name></trkpt>
<trkpt lat="53.306107" lon="06.591985"><ele>18.2</ele><time>2021-05-20T09:39:56Z</time><name>PT144</name></trkpt>
<trkpt lat="53.306105" lon="06.591967"><ele>18.3</ele><time>2021-05-20T09:39:56Z</time><name>PT145</name></trkpt>
<trkpt lat="53.306100" lon="06.591948"><ele>18.2</ele><time>2021-05-20T09:39:58Z</time><name>PT146</name></trkpt>
<trkpt lat="53.306095" lon="06.591929"><ele>18.2</ele><time>2021-05-20T09:39:58Z</time><name>PT147</name></trkpt>
<trkpt lat="53.306092" lon="06.591908"><ele>18.2</ele><time>2021-05-20T09:40:00Z</time><name>PT148</name></trkpt>
<trkpt lat="53.306089" lon="06.591889"><ele>18.2</ele><time>2021-05-20T09:40:01Z</time><name>PT149</name></trkpt>
<trkpt lat="53.306084" lon="06.591870"><ele>18</ele><time>2021-05-20T09:40:01Z</time><name>PT150</name></trkpt>
<trkpt lat="53.306081" lon="06.591852"><ele>18.2</ele><time>2021-05-20T09:40:03Z</time><name>PT151</name></trkpt>
<trkpt lat="53.306077" lon="06.591832"><ele>18.2</ele><time>2021-05-20T09:40:04Z</time><name>PT152</name></trkpt>
<trkpt lat="53.306072" lon="06.591813"><ele>18.2</ele><time>2021-05-20T09:40:04Z</time><name>PT153</name></trkpt>
<trkpt lat="53.306066" lon="06.591793"><ele>18.3</ele><time>2021-05-20T09:40:06Z</time><name>PT154</name></trkpt>
<trkpt lat="53.306062" lon="06.591774"><ele>18.6</ele><time>2021-05-20T09:40:07Z</time><name>PT155</name></trkpt>
<trkpt lat="53.306060" lon="06.591755"><ele>18.5</ele><time>2021-05-20T09:40:07Z</time><name>PT156</name></trkpt>
<trkpt lat="53.306056" lon="06.591735"><ele>18.6</ele><time>2021-05-20T09:40:09Z</time><name>PT157</name></trkpt>
<trkpt lat="53.306052" lon="06.591715"><ele>18.6</ele><time>2021-05-20T09:40:10Z</time><name>PT158</name></trkpt>
<trkpt lat="53.306046" lon="06.591695"><ele>18.5</ele><time>2021-05-20T09:40:10Z</time><name>PT159</name></trkpt>
<trkpt lat="53.306042" lon="06.591676"><ele>18.3</ele><time>2021-05-20T09:40:12Z</time><name>PT160</name></trkpt>
<trkpt lat="53.306037" lon="06.591658"><ele>18.2</ele><time>2021-05-20T09:40:12Z</time><name>PT161</name></trkpt>
<trkpt lat="53.306032" lon="06.591639"><ele>18.2</ele><time>2021-05-20T09:40:14Z</time><name>PT162</name></trkpt>
<trkpt lat="53.306028" lon="06.591621"><ele>18.1</ele><time>2021-05-20T09:40:14Z</time><name>PT163</name></trkpt>
<trkpt lat="53.306023" lon="06.591602"><ele>18</ele><time>2021-05-20T09:40:16Z</time><name>PT164</name></trkpt>
<trkpt lat="53.306019" lon="06.591584"><ele>18.2</ele><time>2021-05-20T09:40:17Z</time><name>PT165</name></trkpt>
<trkpt lat="53.306016" lon="06.591567"><ele>18.2</ele><time>2021-05-20T09:40:17Z</time><name>PT166</name></trkpt>
<trkpt lat="53.306014" lon="06.591548"><ele>18.2</ele><time>2021-05-20T09:40:19Z</time><name>PT167</name></trkpt>
<trkpt lat="53.306011" lon="06.591531"><ele>18.3</ele><time>2021-05-20T09:40:19Z</time><name>PT168</name></trkpt>
<trkpt lat="53.306008" lon="06.591514"><ele>18.7</ele><time>2021-05-20T09:40:21Z</time><name>PT169</name></trkpt>
<trkpt lat="53.306003" lon="06.591495"><ele>18.6</ele><time>2021-05-20T09:40:21Z</time><name>PT170</name></trkpt>
<trkpt lat="53.305999" lon="06.591475"><ele>18.6</ele><time>2021-05-20T09:40:23Z</time><name>PT171</name></trkpt>
<trkpt lat="53.305996" lon="06.591457"><ele>18.6</ele><time>2021-05-20T09:40:23Z</time><name>PT172</name></trkpt>
<trkpt lat="53.305992" lon="06.591441"><ele>18.7</ele><time>2021-05-20T09:40:25Z</time><name>PT173</name></trkpt>
<trkpt lat="53.305988" lon="06.591423"><ele>18.5</ele><time>2021-05-20T09:40:25Z</time><name>PT174</name></trkpt>
<trkpt lat="53.305985" lon="06.591404"><ele>18.4</ele><time>2021-05-20T09:40:27Z</time><name>PT175</name></trkpt>
<trkpt lat="53.305982" lon="06.591386"><ele>18.6</ele><time>2021-05-20T09:40:28Z</time><name>PT176</name></trkpt>
<trkpt lat="53.305976" lon="06.591366"><ele>18.4</ele><time>2021-05-20T09:40:28Z</time><name>PT177</name></trkpt>
<trkpt lat="53.305972" lon="06.591346"><ele>18.5</ele><time>2021-05-20T09:40:30Z</time><name>PT178</name></trkpt>
<trkpt lat="53.305971" lon="06.591325"><ele>18.6</ele><time>2021-05-20T09:40:30Z</time><name>PT179</name></trkpt>
<trkpt lat="53.305969" lon="06.591304"><ele>18.7</ele><time>2021-05-20T09:40:32Z</time><name>PT180</name></trkpt>
<trkpt lat="53.305966" lon="06.591283"><ele>18.5</ele><time>2021-05-20T09:40:32Z</time><name>PT181</name></trkpt>
<trkpt lat="53.305962" lon="06.591265"><ele>18.5</ele><time>2021-05-20T09:40:34Z</time><name>PT182</name></trkpt>
<trkpt lat="53.305959" lon="06.591247"><ele>18.5</ele><time>2021-05-20T09:40:35Z</time><name>PT183</name></trkpt>
<trkpt lat="53.305954" lon="06.591229"><ele>18.4</ele><time>2021-05-20T09:40:35Z</time><name>PT184</name></trkpt>
<trkpt lat="53.305950" lon="06.591212"><ele>18.4</ele><time>2021-05-20T09:40:37Z</time><name>PT185</name></trkpt>
<trkpt lat="53.305946" lon="06.591194"><ele>18.5</ele><time>2021-05-20T09:40:38Z</time><name>PT186</name></trkpt>
<trkpt lat="53.305941" lon="06.591176"><ele>18.6</ele><time>2021-05-20T09:40:38Z</time><name>PT187</name></trkpt>
<trkpt lat="53.305936" lon="06.591157"><ele>18.6</ele><time>2021-05-20T09:40:40Z</time><name>PT188</name></trkpt>
<trkpt lat="53.305934" lon="06.591143"><ele>18.7</ele><time>2021-05-20T09:40:41Z</time><name>PT189</name></trkpt>
<trkpt lat="53.305930" lon="06.591120"><ele>18.7</ele><time>2021-05-20T09:40:41Z</time><name>PT190</name></trkpt>
<trkpt lat="53.305921" lon="06.591100"><ele>18.6</ele><time>2021-05-20T09:40:43Z</time><name>PT191</name></trkpt>
<trkpt lat="53.305913" lon="06.591084"><ele>18.6</ele><time>2021-05-20T09:40:43Z</time><name>PT192</name></trkpt>
<trkpt lat="53.305910" lon="06.591068"><ele>18.5</ele><time>2021-05-20T09:40:45Z</time><name>PT193</name></trkpt>
<trkpt lat="53.305905" lon="06.591051"><ele>18.7</ele><time>2021-05-20T09:40:45Z</time><name>PT194</name></trkpt>
<trkpt lat="53.305906" lon="06.591035"><ele>18.7</ele><time>2021-05-20T09:40:47Z</time><name>PT195</name></trkpt>
<trkpt lat="53.305906" lon="06.591023"><ele>18.7</ele><time>2021-05-20T09:40:48Z</time><name>PT196</name></trkpt>
<trkpt lat="53.305907" lon="06.591017"><ele>18.7</ele><time>2021-05-20T09:40:48Z</time><name>PT197</name></trkpt>
<trkpt lat="53.305907" lon="06.591015"><ele>18.7</ele><time>2021-05-20T09:40:50Z</time><name>PT198</name></trkpt>
<trkpt lat="53.305907" lon="06.591012"><ele>18.7</ele><time>2021-05-20T09:40:51Z</time><name>PT199</name></trkpt>
<trkpt lat="53.305904" lon="06.591008"><ele>19.1</ele><time>2021-05-20T09:40:57Z</time><name>PT200</name></trkpt>
<trkpt lat="53.305900" lon="06.590997"><ele>19</ele><time>2021-05-20T09:40:58Z</time><name>PT201</name></trkpt>
<trkpt lat="53.305903" lon="06.590987"><ele>19.1</ele><time>2021-05-20T09:40:58Z</time><name>PT202</name></trkpt>
<trkpt lat="53.305902" lon="06.590982"><ele>19.1</ele><time>2021-05-20T09:41:00Z</time><name>PT203</name></trkpt>
<trkpt lat="53.305900" lon="06.590978"><ele>18.9</ele><time>2021-05-20T09:41:01Z</time><name>PT204</name></trkpt>
<trkpt lat="53.305897" lon="06.590966"><ele>18.9</ele><time>2021-05-20T09:41:01Z</time><name>PT205</name></trkpt>
<trkpt lat="53.305894" lon="06.590949"><ele>18.8</ele><time>2021-05-20T09:41:03Z</time><name>PT206</name></trkpt>
<trkpt lat="53.305894" lon="06.590934"><ele>18.8</ele><time>2021-05-20T09:41:03Z</time><name>PT207</name></trkpt>
<trkpt lat="53.305891" lon="06.590921"><ele>18.8</ele><time>2021-05-20T09:41:05Z</time><name>PT208</name></trkpt>
<trkpt lat="53.305887" lon="06.590909"><ele>18.8</ele><time>2021-05-20T09:41:05Z</time><name>PT209</name></trkpt>
<trkpt lat="53.305884" lon="06.590894"><ele>18.6</ele><time>2021-05-20T09:41:07Z</time><name>PT210</name></trkpt>
<trkpt lat="53.305883" lon="06.590878"><ele>18.7</ele><time>2021-05-20T09:41:07Z</time><name>PT211</name></trkpt>
<trkpt lat="53.305883" lon="06.590865"><ele>18.7</ele><time>2021-05-20T09:41:09Z</time><name>PT212</name></trkpt>
<trkpt lat="53.305883" lon="06.590851"><ele>18.7</ele><time>2021-05-20T09:41:09Z</time><name>PT213</name></trkpt>
<trkpt lat="53.305880" lon="06.590832"><ele>18.7</ele><time>2021-05-20T09:41:11Z</time><name>PT214</name></trkpt>
<trkpt lat="53.305880" lon="06.590813"><ele>18.7</ele><time>2021-05-20T09:41:11Z</time><name>PT215</name></trkpt>
<trkpt lat="53.305879" lon="06.590799"><ele>18.6</ele><time>2021-05-20T09:41:13Z</time><name>PT216</name></trkpt>
<trkpt lat="53.305875" lon="06.590786"><ele>18.7</ele><time>2021-05-20T09:41:13Z</time><name>PT217</name></trkpt>
<trkpt lat="53.305873" lon="06.590773"><ele>18.7</ele><time>2021-05-20T09:41:15Z</time><name>PT218</name></trkpt>
<trkpt lat="53.305873" lon="06.590759"><ele>18.5</ele><time>2021-05-20T09:41:15Z</time><name>PT219</name></trkpt>
<trkpt lat="53.305872" lon="06.590746"><ele>18.7</ele><time>2021-05-20T09:41:17Z</time><name>PT220</name></trkpt>
<trkpt lat="53.305872" lon="06.590736"><ele>18.6</ele><time>2021-05-20T09:41:17Z</time><name>PT221</name></trkpt>
<trkpt lat="53.305871" lon="06.590730"><ele>18.7</ele><time>2021-05-20T09:41:19Z</time><name>PT222</name></trkpt>
<trkpt lat="53.305871" lon="06.590732"><ele>18.7</ele><time>2021-05-20T09:41:19Z</time><name>PT223</name></trkpt>
<trkpt lat="53.305873" lon="06.590736"><ele>18.7</ele><time>2021-05-20T09:41:21Z</time><name>PT224</name></trkpt>
<trkpt lat="53.305877" lon="06.590735"><ele>18.7</ele><time>2021-05-20T09:41:21Z</time><name>PT225</name></trkpt>
<trkpt lat="53.305877" lon="06.590732"><ele>19</ele><time>2021-05-20T09:41:23Z</time><name>PT226</name></trkpt>
<trkpt lat="53.305876" lon="06.590727"><ele>18.9</ele><time>2021-05-20T09:41:23Z</time><name>PT227</name></trkpt>
<trkpt lat="53.305875" lon="06.590718"><ele>18.7</ele><time>2021-05-20T09:41:25Z</time><name>PT228</name></trkpt>
<trkpt lat="53.305875" lon="06.590704"><ele>18.9</ele><time>2021-05-20T09:41:25Z</time><name>PT229</name></trkpt>
<trkpt lat="53.305874" lon="06.590690"><ele>18.8</ele><time>2021-05-20T09:41:27Z</time><name>PT230</name></trkpt>
<trkpt lat="53.305872" lon="06.590675"><ele>18.7</ele><time>2021-05-20T09:41:28Z</time><name>PT231</name></trkpt>
<trkpt lat="53.305873" lon="06.590656"><ele>18.7</ele><time>2021-05-20T09:41:28Z</time><name>PT232</name></trkpt>
<trkpt lat="53.305872" lon="06.590636"><ele>18.7</ele><time>2021-05-20T09:41:30Z</time><name>PT233</name></trkpt>
<trkpt lat="53.305875" lon="06.590617"><ele>18.7</ele><time>2021-05-20T09:41:30Z</time><name>PT234</name></trkpt>
<trkpt lat="53.305876" lon="06.590599"><ele>18.7</ele><time>2021-05-20T09:41:32Z</time><name>PT235</name></trkpt>
<trkpt lat="53.305875" lon="06.590588"><ele>18.7</ele><time>2021-05-20T09:41:32Z</time><name>PT236</name></trkpt>
<trkpt lat="53.305875" lon="06.590586"><ele>18.8</ele><time>2021-05-20T09:41:34Z</time><name>PT237</name></trkpt>
<trkpt lat="53.305873" lon="06.590590"><ele>18.7</ele><time>2021-05-20T09:41:34Z</time><name>PT238</name></trkpt>
<trkpt lat="53.305873" lon="06.590591"><ele>18.8</ele><time>2021-05-20T09:41:36Z</time><name>PT239</name></trkpt>
<trkpt lat="53.305869" lon="06.590592"><ele>18.7</ele><time>2021-05-20T09:41:36Z</time><name>PT240</name></trkpt>
<trkpt lat="53.305869" lon="06.590592"><ele>18.7</ele><time>2021-05-20T09:41:38Z</time><name>PT241</name></trkpt>
<trkpt lat="53.305870" lon="06.590581"><ele>18.7</ele><time>2021-05-20T09:41:38Z</time><name>PT242</name></trkpt>
<trkpt lat="53.305871" lon="06.590565"><ele>18.5</ele><time>2021-05-20T09:41:40Z</time><name>PT243</name></trkpt>
<trkpt lat="53.305872" lon="06.590547"><ele>18.4</ele><time>2021-05-20T09:41:40Z</time><name>PT244</name></trkpt>
<trkpt lat="53.305875" lon="06.590527"><ele>18.5</ele><time>2021-05-20T09:41:42Z</time><name>PT245</name></trkpt>
<trkpt lat="53.305877" lon="06.590507"><ele>18.5</ele><time>2021-05-20T09:41:42Z</time><name>PT246</name></trkpt>
<trkpt lat="53.305880" lon="06.590487"><ele>18.7</ele><time>2021-05-20T09:41:44Z</time><name>PT247</name></trkpt>
<trkpt lat="53.305881" lon="06.590471"><ele>18.7</ele><time>2021-05-20T09:41:45Z</time><name>PT248</name></trkpt>
<trkpt lat="53.305882" lon="06.590457"><ele>18.8</ele><time>2021-05-20T09:41:45Z</time><name>PT249</name></trkpt>
<trkpt lat="53.305885" lon="06.590440"><ele>18.8</ele><time>2021-05-20T09:41:47Z</time><name>PT250</name></trkpt>
<trkpt lat="53.305887" lon="06.590422"><ele>18.8</ele><time>2021-05-20T09:41:47Z</time><name>PT251</name></trkpt>
<trkpt lat="53.305888" lon="06.590404"><ele>18.7</ele><time>2021-05-20T09:41:49Z</time><name>PT252</name></trkpt>
<trkpt lat="53.305891" lon="06.590391"><ele>18.7</ele><time>2021-05-20T09:41:50Z</time><name>PT253</name></trkpt>
<trkpt lat="53.305892" lon="06.590382"><ele>18.6</ele><time>2021-05-20T09:41:50Z</time><name>PT254</name></trkpt>
<trkpt lat="53.305892" lon="06.590378"><ele>18.6</ele><time>2021-05-20T09:41:52Z</time><name>PT255</name></trkpt>
<trkpt lat="53.305890" lon="06.590371"><ele>18.5</ele><time>2021-05-20T09:41:52Z</time><name>PT256</name></trkpt>
<trkpt lat="53.305888" lon="06.590358"><ele>18.6</ele><time>2021-05-20T09:41:54Z</time><name>PT257</name></trkpt>
<trkpt lat="53.305883" lon="06.590339"><ele>18.6</ele><time>2021-05-20T09:41:54Z</time><name>PT258</name></trkpt>
<trkpt lat="53.305879" lon="06.590320"><ele>18.7</ele><time>2021-05-20T09:41:56Z</time><name>PT259</name></trkpt>
<trkpt lat="53.305874" lon="06.590299"><ele>18.7</ele><time>2021-05-20T09:41:56Z</time><name>PT260</name></trkpt>
<trkpt lat="53.305869" lon="06.590279"><ele>18.8</ele><time>2021-05-20T09:41:58Z</time><name>PT261</name></trkpt>
<trkpt lat="53.305865" lon="06.590259"><ele>18.8</ele><time>2021-05-20T09:41:58Z</time><name>PT262</name></trkpt>
<trkpt lat="53.305861" lon="06.590240"><ele>18.7</ele><time>2021-05-20T09:42:00Z</time><name>PT263</name></trkpt>
<trkpt lat="53.305857" lon="06.590220"><ele>18.7</ele><time>2021-05-20T09:42:00Z</time><name>PT264</name></trkpt>
<trkpt lat="53.305854" lon="06.590202"><ele>18.5</ele><time>2021-05-20T09:42:02Z</time><name>PT265</name></trkpt>
<trkpt lat="53.305849" lon="06.590185"><ele>18.5</ele><time>2021-05-20T09:42:02Z</time><name>PT266</name></trkpt>
<trkpt lat="53.305846" lon="06.590168"><ele>18.4</ele><time>2021-05-20T09:42:04Z</time><name>PT267</name></trkpt>
<trkpt lat="53.305840" lon="06.590152"><ele>18.5</ele><time>2021-05-20T09:42:04Z</time><name>PT268</name></trkpt>
<trkpt lat="53.305836" lon="06.590134"><ele>18.7</ele><time>2021-05-20T09:42:05Z</time><name>PT269</name></trkpt>
<trkpt lat="53.305830" lon="06.590117"><ele>18.5</ele><time>2021-05-20T09:42:07Z</time><name>PT270</name></trkpt>
<trkpt lat="53.305826" lon="06.590098"><ele>18.5</ele><time>2021-05-20T09:42:07Z</time><name>PT271</name></trkpt>
<trkpt lat="53.305821" lon="06.590078"><ele>18.5</ele><time>2021-05-20T09:42:09Z</time><name>PT272</name></trkpt>
<trkpt lat="53.305816" lon="06.590058"><ele>18.3</ele><time>2021-05-20T09:42:09Z</time><name>PT273</name></trkpt>
<trkpt lat="53.305817" lon="06.590035"><ele>18.2</ele><time>2021-05-20T09:42:11Z</time><name>PT274</name></trkpt>
<trkpt lat="53.305813" lon="06.590021"><ele>18.2</ele><time>2021-05-20T09:42:11Z</time><name>PT275</name></trkpt>
<trkpt lat="53.305809" lon="06.590004"><ele>18.2</ele><time>2021-05-20T09:42:13Z</time><name>PT276</name></trkpt>
<trkpt lat="53.305805" lon="06.589986"><ele>18.1</ele><time>2021-05-20T09:42:13Z</time><name>PT277</name></trkpt>
<trkpt lat="53.305800" lon="06.589964"><ele>18.4</ele><time>2021-05-20T09:42:15Z</time><name>PT278</name></trkpt>
<trkpt lat="53.305796" lon="06.589945"><ele>18.6</ele><time>2021-05-20T09:42:15Z</time><name>PT279</name></trkpt>
<trkpt lat="53.305793" lon="06.589926"><ele>18.7</ele><time>2021-05-20T09:42:17Z</time><name>PT280</name></trkpt>
<trkpt lat="53.305790" lon="06.589908"><ele>18.8</ele><time>2021-05-20T09:42:17Z</time><name>PT281</name></trkpt>
<trkpt lat="53.305789" lon="06.589889"><ele>18.9</ele><time>2021-05-20T09:42:19Z</time><name>PT282</name></trkpt>
<trkpt lat="53.305786" lon="06.589870"><ele>18.7</ele><time>2021-05-20T09:42:19Z</time><name>PT283</name></trkpt>
<trkpt lat="53.305783" lon="06.589852"><ele>18.7</ele><time>2021-05-20T09:42:21Z</time><name>PT284</name></trkpt>
<trkpt lat="53.305778" lon="06.589834"><ele>18.6</ele><time>2021-05-20T09:42:21Z</time><name>PT285</name></trkpt>
<trkpt lat="53.305773" lon="06.589819"><ele>18.3</ele><time>2021-05-20T09:42:23Z</time><name>PT286</name></trkpt>
<trkpt lat="53.305774" lon="06.589803"><ele>18.3</ele><time>2021-05-20T09:42:23Z</time><name>PT287</name></trkpt>
<trkpt lat="53.305771" lon="06.589785"><ele>18.5</ele><time>2021-05-20T09:42:25Z</time><name>PT288</name></trkpt>
<trkpt lat="53.305768" lon="06.589767"><ele>18.4</ele><time>2021-05-20T09:42:25Z</time><name>PT289</name></trkpt>
<trkpt lat="53.305766" lon="06.589749"><ele>18.4</ele><time>2021-05-20T09:42:27Z</time><name>PT290</name></trkpt>
<trkpt lat="53.305762" lon="06.589732"><ele>18.5</ele><time>2021-05-20T09:42:27Z</time><name>PT291</name></trkpt>
<trkpt lat="53.305760" lon="06.589713"><ele>18.5</ele><time>2021-05-20T09:42:29Z</time><name>PT292</name></trkpt>
<trkpt lat="53.305757" lon="06.589693"><ele>18.5</ele><time>2021-05-20T09:42:29Z</time><name>PT293</name></trkpt>
<trkpt lat="53.305752" lon="06.589672"><ele>18.4</ele><time>2021-05-20T09:42:31Z</time><name>PT294</name></trkpt>
<trkpt lat="53.305749" lon="06.589650"><ele>18.3</ele><time>2021-05-20T09:42:31Z</time><name>PT295</name></trkpt>
<trkpt lat="53.305745" lon="06.589629"><ele>18.3</ele><time>2021-05-20T09:42:33Z</time><name>PT296</name></trkpt>
<trkpt lat="53.305742" lon="06.589608"><ele>18.4</ele><time>2021-05-20T09:42:33Z</time><name>PT297</name></trkpt>
<trkpt lat="53.305741" lon="06.589588"><ele>18.4</ele><time>2021-05-20T09:42:35Z</time><name>PT298</name></trkpt>
<trkpt lat="53.305739" lon="06.589569"><ele>18.5</ele><time>2021-05-20T09:42:35Z</time><name>PT299</name></trkpt>
<trkpt lat="53.305736" lon="06.589550"><ele>18.6</ele><time>2021-05-20T09:42:37Z</time><name>PT300</name></trkpt>
<trkpt lat="53.305734" lon="06.589533"><ele>18.5</ele><time>2021-05-20T09:42:37Z</time><name>PT301</name></trkpt>
<trkpt lat="53.305729" lon="06.589515"><ele>18.5</ele><time>2021-05-20T09:42:39Z</time><name>PT302</name></trkpt>
<trkpt lat="53.305725" lon="06.589495"><ele>18.5</ele><time>2021-05-20T09:42:39Z</time><name>PT303</name></trkpt>
<trkpt lat="53.305719" lon="06.589474"><ele>18.5</ele><time>2021-05-20T09:42:41Z</time><name>PT304</name></trkpt>
<trkpt lat="53.305714" lon="06.589454"><ele>18.6</ele><time>2021-05-20T09:42:41Z</time><name>PT305</name></trkpt>
<trkpt lat="53.305708" lon="06.589434"><ele>18.5</ele><time>2021-05-20T09:42:43Z</time><name>PT306</name></trkpt>
<trkpt lat="53.305703" lon="06.589417"><ele>18.5</ele><time>2021-05-20T09:42:43Z</time><name>PT307</name></trkpt>
<trkpt lat="53.305699" lon="06.589399"><ele>18.4</ele><time>2021-05-20T09:42:45Z</time><name>PT308</name></trkpt>
<trkpt lat="53.305695" lon="06.589378"><ele>18.3</ele><time>2021-05-20T09:42:45Z</time><name>PT309</name></trkpt>
<trkpt lat="53.305692" lon="06.589359"><ele>18.3</ele><time>2021-05-20T09:42:47Z</time><name>PT310</name></trkpt>
<trkpt lat="53.305689" lon="06.589341"><ele>18.3</ele><time>2021-05-20T09:42:47Z</time><name>PT311</name></trkpt>
<trkpt lat="53.305686" lon="06.589322"><ele>18.3</ele><time>2021-05-20T09:42:49Z</time><name>PT312</name></trkpt>
<trkpt lat="53.305685" lon="06.589303"><ele>18.2</ele><time>2021-05-20T09:42:49Z</time><name>PT313</name></trkpt>
<trkpt lat="53.305682" lon="06.589285"><ele>18.3</ele><time>2021-05-20T09:42:51Z</time><name>PT314</name></trkpt>
<trkpt lat="53.305679" lon="06.589268"><ele>18.3</ele><time>2021-05-20T09:42:51Z</time><name>PT315</name></trkpt>
<trkpt lat="53.305675" lon="06.589250"><ele>18.2</ele><time>2021-05-20T09:42:53Z</time><name>PT316</name></trkpt>
<trkpt lat="53.305671" lon="06.589232"><ele>18.2</ele><time>2021-05-20T09:42:53Z</time><name>PT317</name></trkpt>
<trkpt lat="53.305666" lon="06.589214"><ele>18.3</ele><time>2021-05-20T09:42:55Z</time><name>PT318</name></trkpt>
<trkpt lat="53.305661" lon="06.589195"><ele>18.2</ele><time>2021-05-20T09:42:55Z</time><name>PT319</name></trkpt>
<trkpt lat="53.305657" lon="06.589175"><ele>18.1</ele><time>2021-05-20T09:42:57Z</time><name>PT320</name></trkpt>
<trkpt lat="53.305653" lon="06.589156"><ele>18.1</ele><time>2021-05-20T09:42:57Z</time><name>PT321</name></trkpt>
<trkpt lat="53.305648" lon="06.589136"><ele>17.8</ele><time>2021-05-20T09:42:59Z</time><name>PT322</name></trkpt>
<trkpt lat="53.305645" lon="06.589115"><ele>17.9</ele><time>2021-05-20T09:42:59Z</time><name>PT323</name></trkpt>
<trkpt lat="53.305641" lon="06.589095"><ele>17.9</ele><time>2021-05-20T09:43:01Z</time><name>PT324</name></trkpt>
<trkpt lat="53.305637" lon="06.589078"><ele>18</ele><time>2021-05-20T09:43:01Z</time><name>PT325</name></trkpt>
<trkpt lat="53.305633" lon="06.589060"><ele>18.1</ele><time>2021-05-20T09:43:03Z</time><name>PT326</name></trkpt>
<trkpt lat="53.305629" lon="06.589041"><ele>18.2</ele><time>2021-05-20T09:43:03Z</time><name>PT327</name></trkpt>
<trkpt lat="53.305626" lon="06.589022"><ele>18.2</ele><time>2021-05-20T09:43:05Z</time><name>PT328</name></trkpt>
<trkpt lat="53.305624" lon="06.589002"><ele>18</ele><time>2021-05-20T09:43:05Z</time><name>PT329</name></trkpt>
<trkpt lat="53.305620" lon="06.588982"><ele>18.2</ele><time>2021-05-20T09:43:07Z</time><name>PT330</name></trkpt>
<trkpt lat="53.305616" lon="06.588962"><ele>18</ele><time>2021-05-20T09:43:07Z</time><name>PT331</name></trkpt>
<trkpt lat="53.305611" lon="06.588941"><ele>18</ele><time>2021-05-20T09:43:09Z</time><name>PT332</name></trkpt>
<trkpt lat="53.305607" lon="06.588920"><ele>18.1</ele><time>2021-05-20T09:43:09Z</time><name>PT333</name></trkpt>
<trkpt lat="53.305602" lon="06.588899"><ele>18.2</ele><time>2021-05-20T09:43:11Z</time><name>PT334</name></trkpt>
<trkpt lat="53.305596" lon="06.588880"><ele>18.2</ele><time>2021-05-20T09:43:11Z</time><name>PT335</name></trkpt>
<trkpt lat="53.305591" lon="06.588861"><ele>18.2</ele><time>2021-05-20T09:43:13Z</time><name>PT336</name></trkpt>
<trkpt lat="53.305586" lon="06.588843"><ele>18.3</ele><time>2021-05-20T09:43:13Z</time><name>PT337</name></trkpt>
<trkpt lat="53.305583" lon="06.588823"><ele>18.5</ele><time>2021-05-20T09:43:15Z</time><name>PT338</name></trkpt>
<trkpt lat="53.305579" lon="06.588805"><ele>18.4</ele><time>2021-05-20T09:43:15Z</time><name>PT339</name></trkpt>
<trkpt lat="53.305576" lon="06.588787"><ele>18.5</ele><time>2021-05-20T09:43:17Z</time><name>PT340</name></trkpt>
<trkpt lat="53.305572" lon="06.588769"><ele>18.5</ele><time>2021-05-20T09:43:17Z</time><name>PT341</name></trkpt>
<trkpt lat="53.305567" lon="06.588752"><ele>18.1</ele><time>2021-05-20T09:43:19Z</time><name>PT342</name></trkpt>
<trkpt lat="53.305564" lon="06.588734"><ele>18.1</ele><time>2021-05-20T09:43:19Z</time><name>PT343</name></trkpt>
<trkpt lat="53.305561" lon="06.588715"><ele>17.8</ele><time>2021-05-20T09:43:21Z</time><name>PT344</name></trkpt>
<trkpt lat="53.305558" lon="06.588697"><ele>17.7</ele><time>2021-05-20T09:43:21Z</time><name>PT345</name></trkpt>
<trkpt lat="53.305555" lon="06.588677"><ele>17.7</ele><time>2021-05-20T09:43:23Z</time><name>PT346</name></trkpt>
<trkpt lat="53.305551" lon="06.588657"><ele>17.9</ele><time>2021-05-20T09:43:23Z</time><name>PT347</name></trkpt>
<trkpt lat="53.305545" lon="06.588637"><ele>17.9</ele><time>2021-05-20T09:43:25Z</time><name>PT348</name></trkpt>
<trkpt lat="53.305540" lon="06.588618"><ele>17.9</ele><time>2021-05-20T09:43:25Z</time><name>PT349</name></trkpt>
<trkpt lat="53.305535" lon="06.588599"><ele>17.8</ele><time>2021-05-20T09:43:27Z</time><name>PT350</name></trkpt>
<trkpt lat="53.305530" lon="06.588580"><ele>17.7</ele><time>2021-05-20T09:43:27Z</time><name>PT351</name></trkpt>
<trkpt lat="53.305526" lon="06.588561"><ele>17.7</ele><time>2021-05-20T09:43:29Z</time><name>PT352</name></trkpt>
<trkpt lat="53.305521" lon="06.588541"><ele>17.7</ele><time>2021-05-20T09:43:29Z</time><name>PT353</name></trkpt>
<trkpt lat="53.305517" lon="06.588521"><ele>17.7</ele><time>2021-05-20T09:43:31Z</time><name>PT354</name></trkpt>
<trkpt lat="53.305512" lon="06.588503"><ele>17.8</ele><time>2021-05-20T09:43:31Z</time><name>PT355</name></trkpt>
<trkpt lat="53.305508" lon="06.588483"><ele>17.8</ele><time>2021-05-20T09:43:33Z</time><name>PT356</name></trkpt>
<trkpt lat="53.305503" lon="06.588465"><ele>17.8</ele><time>2021-05-20T09:43:34Z</time><name>PT357</name></trkpt>
<trkpt lat="53.305498" lon="06.588447"><ele>17.7</ele><time>2021-05-20T09:43:34Z</time><name>PT358</name></trkpt>
<trkpt lat="53.305495" lon="06.588427"><ele>17.7</ele><time>2021-05-20T09:43:36Z</time><name>PT359</name></trkpt>
<trkpt lat="53.305493" lon="06.588407"><ele>17.7</ele><time>2021-05-20T09:43:36Z</time><name>PT360</name></trkpt>
<trkpt lat="53.305490" lon="06.588387"><ele>17.9</ele><time>2021-05-20T09:43:38Z</time><name>PT361</name></trkpt>
<trkpt lat="53.305487" lon="06.588367"><ele>18</ele><time>2021-05-20T09:43:38Z</time><name>PT362</name></trkpt>
<trkpt lat="53.305484" lon="06.588349"><ele>18.1</ele><time>2021-05-20T09:43:40Z</time><name>PT363</name></trkpt>
<trkpt lat="53.305481" lon="06.588332"><ele>18.2</ele><time>2021-05-20T09:43:40Z</time><name>PT364</name></trkpt>
<trkpt lat="53.305478" lon="06.588314"><ele>18</ele><time>2021-05-20T09:43:42Z</time><name>PT365</name></trkpt>
<trkpt lat="53.305474" lon="06.588295"><ele>18</ele><time>2021-05-20T09:43:42Z</time><name>PT366</name></trkpt>
<trkpt lat="53.305470" lon="06.588275"><ele>18</ele><time>2021-05-20T09:43:44Z</time><name>PT367</name></trkpt>
<trkpt lat="53.305467" lon="06.588255"><ele>18.1</ele><time>2021-05-20T09:43:44Z</time><name>PT368</name></trkpt>
<trkpt lat="53.305464" lon="06.588236"><ele>18.3</ele><time>2021-05-20T09:43:46Z</time><name>PT369</name></trkpt>
<trkpt lat="53.305459" lon="06.588216"><ele>18.2</ele><time>2021-05-20T09:43:46Z</time><name>PT370</name></trkpt>
<trkpt lat="53.305456" lon="06.588195"><ele>18.2</ele><time>2021-05-20T09:43:48Z</time><name>PT371</name></trkpt>
<trkpt lat="53.305453" lon="06.588175"><ele>18.2</ele><time>2021-05-20T09:43:48Z</time><name>PT372</name></trkpt>
<trkpt lat="53.305450" lon="06.588154"><ele>17.9</ele><time>2021-05-20T09:43:50Z</time><name>PT373</name></trkpt>
<trkpt lat="53.305447" lon="06.588134"><ele>17.7</ele><time>2021-05-20T09:43:50Z</time><name>PT374</name></trkpt>
<trkpt lat="53.305445" lon="06.588111"><ele>17.9</ele><time>2021-05-20T09:43:52Z</time><name>PT375</name></trkpt>
<trkpt lat="53.305443" lon="06.588090"><ele>17.8</ele><time>2021-05-20T09:43:52Z</time><name>PT376</name></trkpt>
<trkpt lat="53.305438" lon="06.588070"><ele>17.9</ele><time>2021-05-20T09:43:54Z</time><name>PT377</name></trkpt>
<trkpt lat="53.305436" lon="06.588050"><ele>17.9</ele><time>2021-05-20T09:43:54Z</time><name>PT378</name></trkpt>
<trkpt lat="53.305432" lon="06.588031"><ele>18.1</ele><time>2021-05-20T09:43:56Z</time><name>PT379</name></trkpt>
<trkpt lat="53.305430" lon="06.588012"><ele>18.2</ele><time>2021-05-20T09:43:56Z</time><name>PT380</name></trkpt>
<trkpt lat="53.305428" lon="06.587994"><ele>18.2</ele><time>2021-05-20T09:43:58Z</time><name>PT381</name></trkpt>
<trkpt lat="53.305424" lon="06.587976"><ele>18.2</ele><time>2021-05-20T09:43:58Z</time><name>PT382</name></trkpt>
<trkpt lat="53.305423" lon="06.587958"><ele>18.1</ele><time>2021-05-20T09:44:00Z</time><name>PT383</name></trkpt>
<trkpt lat="53.305421" lon="06.587940"><ele>18.1</ele><time>2021-05-20T09:44:00Z</time><name>PT384</name></trkpt>
<trkpt lat="53.305418" lon="06.587920"><ele>18</ele><time>2021-05-20T09:44:02Z</time><name>PT385</name></trkpt>
<trkpt lat="53.305416" lon="06.587901"><ele>18</ele><time>2021-05-20T09:44:02Z</time><name>PT386</name></trkpt>
<trkpt lat="53.305413" lon="06.587881"><ele>18.1</ele><time>2021-05-20T09:44:04Z</time><name>PT387</name></trkpt>
<trkpt lat="53.305410" lon="06.587861"><ele>18.1</ele><time>2021-05-20T09:44:04Z</time><name>PT388</name></trkpt>
<trkpt lat="53.305407" lon="06.587841"><ele>18</ele><time>2021-05-20T09:44:06Z</time><name>PT389</name></trkpt>
<trkpt lat="53.305404" lon="06.587819"><ele>17.9</ele><time>2021-05-20T09:44:06Z</time><name>PT390</name></trkpt>
<trkpt lat="53.305400" lon="06.587798"><ele>18.1</ele><time>2021-05-20T09:44:08Z</time><name>PT391</name></trkpt>
<trkpt lat="53.305396" lon="06.587778"><ele>18.2</ele><time>2021-05-20T09:44:08Z</time><name>PT392</name></trkpt>
<trkpt lat="53.305392" lon="06.587759"><ele>18</ele><time>2021-05-20T09:44:10Z</time><name>PT393</name></trkpt>
<trkpt lat="53.305391" lon="06.587737"><ele>18.1</ele><time>2021-05-20T09:44:10Z</time><name>PT394</name></trkpt>
<trkpt lat="53.305390" lon="06.587717"><ele>18.1</ele><time>2021-05-20T09:44:12Z</time><name>PT395</name></trkpt>
<trkpt lat="53.305388" lon="06.587699"><ele>18.2</ele><time>2021-05-20T09:44:12Z</time><name>PT396</name></trkpt>
<trkpt lat="53.305388" lon="06.587681"><ele>18.2</ele><time>2021-05-20T09:44:14Z</time><name>PT397</name></trkpt>
<trkpt lat="53.305387" lon="06.587663"><ele>18.4</ele><time>2021-05-20T09:44:14Z</time><name>PT398</name></trkpt>
<trkpt lat="53.305384" lon="06.587645"><ele>18.4</ele><time>2021-05-20T09:44:16Z</time><name>PT399</name></trkpt>
<trkpt lat="53.305381" lon="06.587625"><ele>18.2</ele><time>2021-05-20T09:44:16Z</time><name>PT400</name></trkpt>
<trkpt lat="53.305378" lon="06.587605"><ele>18.1</ele><time>2021-05-20T09:44:18Z</time><name>PT401</name></trkpt>
<trkpt lat="53.305375" lon="06.587585"><ele>18.2</ele><time>2021-05-20T09:44:18Z</time><name>PT402</name></trkpt>
<trkpt lat="53.305373" lon="06.587564"><ele>18.1</ele><time>2021-05-20T09:44:20Z</time><name>PT403</name></trkpt>
<trkpt lat="53.305369" lon="06.587543"><ele>18.1</ele><time>2021-05-20T09:44:20Z</time><name>PT404</name></trkpt>
<trkpt lat="53.305366" lon="06.587524"><ele>18.1</ele><time>2021-05-20T09:44:22Z</time><name>PT405</name></trkpt>
<trkpt lat="53.305365" lon="06.587505"><ele>18</ele><time>2021-05-20T09:44:22Z</time><name>PT406</name></trkpt>
<trkpt lat="53.305363" lon="06.587486"><ele>18.1</ele><time>2021-05-20T09:44:24Z</time><name>PT407</name></trkpt>
<trkpt lat="53.305361" lon="06.587467"><ele>18.2</ele><time>2021-05-20T09:44:24Z</time><name>PT408</name></trkpt>
<trkpt lat="53.305360" lon="06.587450"><ele>18.2</ele><time>2021-05-20T09:44:26Z</time><name>PT409</name></trkpt>
<trkpt lat="53.305360" lon="06.587434"><ele>18.2</ele><time>2021-05-20T09:44:26Z</time><name>PT410</name></trkpt>
<trkpt lat="53.305359" lon="06.587417"><ele>18</ele><time>2021-05-20T09:44:28Z</time><name>PT411</name></trkpt>
<trkpt lat="53.305357" lon="06.587401"><ele>18</ele><time>2021-05-20T09:44:28Z</time><name>PT412</name></trkpt>
<trkpt lat="53.305355" lon="06.587384"><ele>18.1</ele><time>2021-05-20T09:44:30Z</time><name>PT413</name></trkpt>
<trkpt lat="53.305354" lon="06.587371"><ele>18</ele><time>2021-05-20T09:44:30Z</time><name>PT414</name></trkpt>
<trkpt lat="53.305353" lon="06.587364"><ele>18.2</ele><time>2021-05-20T09:44:32Z</time><name>PT415</name></trkpt>
<trkpt lat="53.305353" lon="06.587361"><ele>18.2</ele><time>2021-05-20T09:44:32Z</time><name>PT416</name></trkpt>
<trkpt lat="53.305353" lon="06.587358"><ele>18.1</ele><time>2021-05-20T09:44:34Z</time><name>PT417</name></trkpt>
<trkpt lat="53.305354" lon="06.587358"><ele>17.9</ele><time>2021-05-20T09:44:46Z</time><name>PT418</name></trkpt>
<trkpt lat="53.305354" lon="06.587351"><ele>17.9</ele><time>2021-05-20T09:44:48Z</time><name>PT419</name></trkpt>
<trkpt lat="53.305353" lon="06.587341"><ele>18.1</ele><time>2021-05-20T09:44:48Z</time><name>PT420</name></trkpt>
<trkpt lat="53.305351" lon="06.587329"><ele>18.2</ele><time>2021-05-20T09:44:50Z</time><name>PT421</name></trkpt>
<trkpt lat="53.305348" lon="06.587314"><ele>18.2</ele><time>2021-05-20T09:44:50Z</time><name>PT422</name></trkpt>
<trkpt lat="53.305346" lon="06.587303"><ele>18.2</ele><time>2021-05-20T09:44:52Z</time><name>PT423</name></trkpt>
<trkpt lat="53.305345" lon="06.587296"><ele>18.2</ele><time>2021-05-20T09:44:52Z</time><name>PT424</name></trkpt>
<trkpt lat="53.305346" lon="06.587290"><ele>18</ele><time>2021-05-20T09:44:54Z</time><name>PT425</name></trkpt>
<trkpt lat="53.305346" lon="06.587289"><ele>18.1</ele><time>2021-05-20T09:44:54Z</time><name>PT426</name></trkpt>
<trkpt lat="53.305345" lon="06.587288"><ele>18</ele><time>2021-05-20T09:44:56Z</time><name>PT427</name></trkpt>
<trkpt lat="53.305346" lon="06.587278"><ele>18.1</ele><time>2021-05-20T09:44:58Z</time><name>PT428</name></trkpt>
<trkpt lat="53.305344" lon="06.587260"><ele>18.1</ele><time>2021-05-20T09:45:00Z</time><name>PT429</name></trkpt>
<trkpt lat="53.305341" lon="06.587243"><ele>18</ele><time>2021-05-20T09:45:00Z</time><name>PT430</name></trkpt>
<trkpt lat="53.305339" lon="06.587229"><ele>18</ele><time>2021-05-20T09:45:02Z</time><name>PT431</name></trkpt>
<trkpt lat="53.305337" lon="06.587213"><ele>18</ele><time>2021-05-20T09:45:02Z</time><name>PT432</name></trkpt>
<trkpt lat="53.305334" lon="06.587201"><ele>18.2</ele><time>2021-05-20T09:45:04Z</time><name>PT433</name></trkpt>
<trkpt lat="53.305333" lon="06.587188"><ele>18.2</ele><time>2021-05-20T09:45:04Z</time><name>PT434</name></trkpt>
<trkpt lat="53.305331" lon="06.587175"><ele>18.3</ele><time>2021-05-20T09:45:06Z</time><name>PT435</name></trkpt>
<trkpt lat="53.305330" lon="06.587164"><ele>18.3</ele><time>2021-05-20T09:45:06Z</time><name>PT436</name></trkpt>
<trkpt lat="53.305327" lon="06.587152"><ele>18.1</ele><time>2021-05-20T09:45:08Z</time><name>PT437</name></trkpt>
<trkpt lat="53.305324" lon="06.587136"><ele>18</ele><time>2021-05-20T09:45:08Z</time><name>PT438</name></trkpt>
<trkpt lat="53.305320" lon="06.587128"><ele>17.8</ele><time>2021-05-20T09:45:10Z</time><name>PT439</name></trkpt>
<trkpt lat="53.305320" lon="06.587124"><ele>17.9</ele><time>2021-05-20T09:45:10Z</time><name>PT440</name></trkpt>
<trkpt lat="53.305321" lon="06.587119"><ele>18</ele><time>2021-05-20T09:45:12Z</time><name>PT441</name></trkpt>
<trkpt lat="53.305320" lon="06.587111"><ele>18</ele><time>2021-05-20T09:45:12Z</time><name>PT442</name></trkpt>
<trkpt lat="53.305318" lon="06.587103"><ele>18.1</ele><time>2021-05-20T09:45:14Z</time><name>PT443</name></trkpt>
<trkpt lat="53.305316" lon="06.587101"><ele>18.2</ele><time>2021-05-20T09:45:14Z</time><name>PT444</name></trkpt>
<trkpt lat="53.305317" lon="06.587103"><ele>18.1</ele><time>2021-05-20T09:45:16Z</time><name>PT445</name></trkpt>
<trkpt lat="53.305317" lon="06.587103"><ele>18.1</ele><time>2021-05-20T09:45:16Z</time><name>PT446</name></trkpt>
<trkpt lat="53.305315" lon="06.587102"><ele>18.2</ele><time>2021-05-20T09:45:18Z</time><name>PT447</name></trkpt>
<trkpt lat="53.305315" lon="06.587102"><ele>18.2</ele><time>2021-05-20T09:45:18Z</time><name>PT448</name></trkpt>
<trkpt lat="53.305315" lon="06.587102"><ele>18</ele><time>2021-05-20T09:45:20Z</time><name>PT449</name></trkpt>
<trkpt lat="53.305315" lon="06.587102"><ele>18</ele><time>2021-05-20T09:45:20Z</time><name>PT450</name></trkpt>
<trkpt lat="53.305315" lon="06.587102"><ele>17.9</ele><time>2021-05-20T09:45:22Z</time><name>PT451</name></trkpt>
<trkpt lat="53.305314" lon="06.587097"><ele>18.3</ele><time>2021-05-20T09:45:28Z</time><name>PT452</name></trkpt>
<trkpt lat="53.305309" lon="06.587081"><ele>18.5</ele><time>2021-05-20T09:45:30Z</time><name>PT453</name></trkpt>
<trkpt lat="53.305306" lon="06.587064"><ele>18.6</ele><time>2021-05-20T09:45:30Z</time><name>PT454</name></trkpt>
<trkpt lat="53.305301" lon="06.587046"><ele>18.4</ele><time>2021-05-20T09:45:32Z</time><name>PT455</name></trkpt>
<trkpt lat="53.305295" lon="06.587029"><ele>18.3</ele><time>2021-05-20T09:45:32Z</time><name>PT456</name></trkpt>
<trkpt lat="53.305289" lon="06.587015"><ele>18.4</ele><time>2021-05-20T09:45:34Z</time><name>PT457</name></trkpt>
<trkpt lat="53.305281" lon="06.587000"><ele>18.4</ele><time>2021-05-20T09:45:34Z</time><name>PT458</name></trkpt>
<trkpt lat="53.305272" lon="06.586986"><ele>18.4</ele><time>2021-05-20T09:45:36Z</time><name>PT459</name></trkpt>
<trkpt lat="53.305264" lon="06.586972"><ele>18.5</ele><time>2021-05-20T09:45:36Z</time><name>PT460</name></trkpt>
<trkpt lat="53.305252" lon="06.586961"><ele>18.5</ele><time>2021-05-20T09:45:38Z</time><name>PT461</name></trkpt>
<trkpt lat="53.305241" lon="06.586952"><ele>18.4</ele><time>2021-05-20T09:45:38Z</time><name>PT462</name></trkpt>
<trkpt lat="53.305229" lon="06.586944"><ele>18.2</ele><time>2021-05-20T09:45:40Z</time><name>PT463</name></trkpt>
<trkpt lat="53.305217" lon="06.586938"><ele>18.2</ele><time>2021-05-20T09:45:40Z</time><name>PT464</name></trkpt>
<trkpt lat="53.305207" lon="06.586933"><ele>18.2</ele><time>2021-05-20T09:45:42Z</time><name>PT465</name></trkpt>
<trkpt lat="53.305196" lon="06.586927"><ele>17.9</ele><time>2021-05-20T09:45:42Z</time><name>PT466</name></trkpt>
<trkpt lat="53.305184" lon="06.586924"><ele>18</ele><time>2021-05-20T09:45:44Z</time><name>PT467</name></trkpt>
<trkpt lat="53.305173" lon="06.586920"><ele>18</ele><time>2021-05-20T09:45:44Z</time><name>PT468</name></trkpt>
<trkpt lat="53.305163" lon="06.586916"><ele>17.8</ele><time>2021-05-20T09:45:46Z</time><name>PT469</name></trkpt>
<trkpt lat="53.305151" lon="06.586914"><ele>17.8</ele><time>2021-05-20T09:45:46Z</time><name>PT470</name></trkpt>
<trkpt lat="53.305140" lon="06.586914"><ele>18.1</ele><time>2021-05-20T09:45:48Z</time><name>PT471</name></trkpt>
<trkpt lat="53.305129" lon="06.586912"><ele>17.9</ele><time>2021-05-20T09:45:48Z</time><name>PT472</name></trkpt>
<trkpt lat="53.305117" lon="06.586912"><ele>17.9</ele><time>2021-05-20T09:45:50Z</time><name>PT473</name></trkpt>
<trkpt lat="53.305105" lon="06.586912"><ele>17.9</ele><time>2021-05-20T09:45:50Z</time><name>PT474</name></trkpt>
<trkpt lat="53.305093" lon="06.586913"><ele>17.8</ele><time>2021-05-20T09:45:52Z</time><name>PT475</name></trkpt>
<trkpt lat="53.305081" lon="06.586915"><ele>17.7</ele><time>2021-05-20T09:45:52Z</time><name>PT476</name></trkpt>
<trkpt lat="53.305069" lon="06.586915"><ele>17.8</ele><time>2021-05-20T09:45:54Z</time><name>PT477</name></trkpt>
<trkpt lat="53.305057" lon="06.586915"><ele>17.8</ele><time>2021-05-20T09:45:54Z</time><name>PT478</name></trkpt>
<trkpt lat="53.305044" lon="06.586915"><ele>17.8</ele><time>2021-05-20T09:45:56Z</time><name>PT479</name></trkpt>
<trkpt lat="53.305031" lon="06.586916"><ele>17.9</ele><time>2021-05-20T09:45:56Z</time><name>PT480</name></trkpt>
<trkpt lat="53.305017" lon="06.586916"><ele>18.1</ele><time>2021-05-20T09:45:58Z</time><name>PT481</name></trkpt>
<trkpt lat="53.305004" lon="06.586916"><ele>18.1</ele><time>2021-05-20T09:45:58Z</time><name>PT482</name></trkpt>
<trkpt lat="53.304992" lon="06.586916"><ele>18.2</ele><time>2021-05-20T09:46:00Z</time><name>PT483</name></trkpt>
<trkpt lat="53.304979" lon="06.586916"><ele>18.2</ele><time>2021-05-20T09:46:00Z</time><name>PT484</name></trkpt>
<trkpt lat="53.304966" lon="06.586917"><ele>18.2</ele><time>2021-05-20T09:46:02Z</time><name>PT485</name></trkpt>
<trkpt lat="53.304954" lon="06.586918"><ele>18.2</ele><time>2021-05-20T09:46:02Z</time><name>PT486</name></trkpt>
<trkpt lat="53.304941" lon="06.586919"><ele>18.2</ele><time>2021-05-20T09:46:04Z</time><name>PT487</name></trkpt>
<trkpt lat="53.304927" lon="06.586921"><ele>18.2</ele><time>2021-05-20T09:46:04Z</time><name>PT488</name></trkpt>
<trkpt lat="53.304913" lon="06.586922"><ele>18.1</ele><time>2021-05-20T09:46:06Z</time><name>PT489</name></trkpt>
<trkpt lat="53.304900" lon="06.586921"><ele>18.1</ele><time>2021-05-20T09:46:06Z</time><name>PT490</name></trkpt>
<trkpt lat="53.304887" lon="06.586921"><ele>18</ele><time>2021-05-20T09:46:08Z</time><name>PT491</name></trkpt>
<trkpt lat="53.304875" lon="06.586921"><ele>18</ele><time>2021-05-20T09:46:08Z</time><name>PT492</name></trkpt>
<trkpt lat="53.304863" lon="06.586921"><ele>17.8</ele><time>2021-05-20T09:46:10Z</time><name>PT493</name></trkpt>
<trkpt lat="53.304852" lon="06.586919"><ele>18.1</ele><time>2021-05-20T09:46:10Z</time><name>PT494</name></trkpt>
<trkpt lat="53.304840" lon="06.586919"><ele>18.2</ele><time>2021-05-20T09:46:12Z</time><name>PT495</name></trkpt>
<trkpt lat="53.304830" lon="06.586918"><ele>18.3</ele><time>2021-05-20T09:46:12Z</time><name>PT496</name></trkpt>
<trkpt lat="53.304819" lon="06.586916"><ele>18.4</ele><time>2021-05-20T09:46:14Z</time><name>PT497</name></trkpt>
<trkpt lat="53.304806" lon="06.586916"><ele>18.6</ele><time>2021-05-20T09:46:14Z</time><name>PT498</name></trkpt>
<trkpt lat="53.304794" lon="06.586915"><ele>18.3</ele><time>2021-05-20T09:46:16Z</time><name>PT499</name></trkpt>
<trkpt lat="53.304783" lon="06.586915"><ele>18.4</ele><time>2021-05-20T09:46:16Z</time><name>PT500</name></trkpt>
<trkpt lat="53.304773" lon="06.586916"><ele>18.3</ele><time>2021-05-20T09:46:18Z</time><name>PT501</name></trkpt>
<trkpt lat="53.304761" lon="06.586917"><ele>18.2</ele><time>2021-05-20T09:46:18Z</time><name>PT502</name></trkpt>
<trkpt lat="53.304748" lon="06.586917"><ele>18.3</ele><time>2021-05-20T09:46:20Z</time><name>PT503</name></trkpt>
<trkpt lat="53.304736" lon="06.586916"><ele>18.3</ele><time>2021-05-20T09:46:20Z</time><name>PT504</name></trkpt>
<trkpt lat="53.304724" lon="06.586917"><ele>18.2</ele><time>2021-05-20T09:46:22Z</time><name>PT505</name></trkpt>
<trkpt lat="53.304711" lon="06.586918"><ele>18.1</ele><time>2021-05-20T09:46:22Z</time><name>PT506</name></trkpt>
<trkpt lat="53.304698" lon="06.586918"><ele>18.1</ele><time>2021-05-20T09:46:24Z</time><name>PT507</name></trkpt>
<trkpt lat="53.304684" lon="06.586918"><ele>18</ele><time>2021-05-20T09:46:24Z</time><name>PT508</name></trkpt>
<trkpt lat="53.304671" lon="06.586919"><ele>18.1</ele><time>2021-05-20T09:46:26Z</time><name>PT509</name></trkpt>
<trkpt lat="53.304658" lon="06.586920"><ele>18.2</ele><time>2021-05-20T09:46:26Z</time><name>PT510</name></trkpt>
<trkpt lat="53.304645" lon="06.586921"><ele>18.2</ele><time>2021-05-20T09:46:28Z</time><name>PT511</name></trkpt>
<trkpt lat="53.304632" lon="06.586921"><ele>18.3</ele><time>2021-05-20T09:46:28Z</time><name>PT512</name></trkpt>
<trkpt lat="53.304619" lon="06.586922"><ele>18.5</ele><time>2021-05-20T09:46:30Z</time><name>PT513</name></trkpt>
<trkpt lat="53.304606" lon="06.586922"><ele>18.4</ele><time>2021-05-20T09:46:30Z</time><name>PT514</name></trkpt>
<trkpt lat="53.304592" lon="06.586923"><ele>18.3</ele><time>2021-05-20T09:46:32Z</time><name>PT515</name></trkpt>
<trkpt lat="53.304579" lon="06.586923"><ele>18.5</ele><time>2021-05-20T09:46:32Z</time><name>PT516</name></trkpt>
<trkpt lat="53.304567" lon="06.586921"><ele>18.2</ele><time>2021-05-20T09:46:34Z</time><name>PT517</name></trkpt>
<trkpt lat="53.304554" lon="06.586919"><ele>18.2</ele><time>2021-05-20T09:46:34Z</time><name>PT518</name></trkpt>
<trkpt lat="53.304542" lon="06.586917"><ele>18.3</ele><time>2021-05-20T09:46:36Z</time><name>PT519</name></trkpt>
<trkpt lat="53.304529" lon="06.586915"><ele>18.3</ele><time>2021-05-20T09:46:36Z</time><name>PT520</name></trkpt>
<trkpt lat="53.304517" lon="06.586915"><ele>18.3</ele><time>2021-05-20T09:46:38Z</time><name>PT521</name></trkpt>
<trkpt lat="53.304505" lon="06.586915"><ele>18.3</ele><time>2021-05-20T09:46:38Z</time><name>PT522</name></trkpt>
<trkpt lat="53.304494" lon="06.586914"><ele>18.5</ele><time>2021-05-20T09:46:40Z</time><name>PT523</name></trkpt>
<trkpt lat="53.304483" lon="06.586915"><ele>18.6</ele><time>2021-05-20T09:46:40Z</time><name>PT524</name></trkpt>
<trkpt lat="53.304471" lon="06.586916"><ele>18.5</ele><time>2021-05-20T09:46:42Z</time><name>PT525</name></trkpt>
<trkpt lat="53.304459" lon="06.586915"><ele>18.4</ele><time>2021-05-20T09:46:42Z</time><name>PT526</name></trkpt>
<trkpt lat="53.304445" lon="06.586914"><ele>18.3</ele><time>2021-05-20T09:46:44Z</time><name>PT527</name></trkpt>
<trkpt lat="53.304433" lon="06.586913"><ele>18.2</ele><time>2021-05-20T09:46:44Z</time><name>PT528</name></trkpt>
<trkpt lat="53.304421" lon="06.586914"><ele>18.2</ele><time>2021-05-20T09:46:46Z</time><name>PT529</name></trkpt>
<trkpt lat="53.304409" lon="06.586915"><ele>18.3</ele><time>2021-05-20T09:46:46Z</time><name>PT530</name></trkpt>
<trkpt lat="53.304397" lon="06.586916"><ele>18.4</ele><time>2021-05-20T09:46:48Z</time><name>PT531</name></trkpt>
<trkpt lat="53.304383" lon="06.586916"><ele>18.7</ele><time>2021-05-20T09:46:48Z</time><name>PT532</name></trkpt>
<trkpt lat="53.304369" lon="06.586916"><ele>18.4</ele><time>2021-05-20T09:46:50Z</time><name>PT533</name></trkpt>
<trkpt lat="53.304356" lon="06.586916"><ele>18.3</ele><time>2021-05-20T09:46:50Z</time><name>PT534</name></trkpt>
<trkpt lat="53.304343" lon="06.586916"><ele>18.2</ele><time>2021-05-20T09:46:52Z</time><name>PT535</name></trkpt>
<trkpt lat="53.304330" lon="06.586917"><ele>18.2</ele><time>2021-05-20T09:46:52Z</time><name>PT536</name></trkpt>
<trkpt lat="53.304317" lon="06.586917"><ele>18.2</ele><time>2021-05-20T09:46:54Z</time><name>PT537</name></trkpt>
<trkpt lat="53.304304" lon="06.586916"><ele>18.3</ele><time>2021-05-20T09:46:54Z</time><name>PT538</name></trkpt>
<trkpt lat="53.304293" lon="06.586914"><ele>18.2</ele><time>2021-05-20T09:46:56Z</time><name>PT539</name></trkpt>
<trkpt lat="53.304281" lon="06.586914"><ele>18.3</ele><time>2021-05-20T09:46:56Z</time><name>PT540</name></trkpt>
<trkpt lat="53.304272" lon="06.586917"><ele>18.2</ele><time>2021-05-20T09:46:58Z</time><name>PT541</name></trkpt>
<trkpt lat="53.304261" lon="06.586917"><ele>18.2</ele><time>2021-05-20T09:46:58Z</time><name>PT542</name></trkpt>
<trkpt lat="53.304250" lon="06.586918"><ele>18.2</ele><time>2021-05-20T09:47:00Z</time><name>PT543</name></trkpt>
<trkpt lat="53.304239" lon="06.586919"><ele>18.2</ele><time>2021-05-20T09:47:00Z</time><name>PT544</name></trkpt>
<trkpt lat="53.304228" lon="06.586919"><ele>18.4</ele><time>2021-05-20T09:47:02Z</time><name>PT545</name></trkpt>
<trkpt lat="53.304217" lon="06.586920"><ele>18.4</ele><time>2021-05-20T09:47:02Z</time><name>PT546</name></trkpt>
<trkpt lat="53.304205" lon="06.586921"><ele>18.4</ele><time>2021-05-20T09:47:04Z</time><name>PT547</name></trkpt>
<trkpt lat="53.304194" lon="06.586922"><ele>18.4</ele><time>2021-05-20T09:47:04Z</time><name>PT548</name></trkpt>
<trkpt lat="53.304182" lon="06.586923"><ele>18.2</ele><time>2021-05-20T09:47:06Z</time><name>PT549</name></trkpt>
<trkpt lat="53.304169" lon="06.586924"><ele>18.2</ele><time>2021-05-20T09:47:06Z</time><name>PT550</name></trkpt>
<trkpt lat="53.304157" lon="06.586925"><ele>18.2</ele><time>2021-05-20T09:47:08Z</time><name>PT551</name></trkpt>
<trkpt lat="53.304145" lon="06.586925"><ele>18.1</ele><time>2021-05-20T09:47:08Z</time><name>PT552</name></trkpt>
<trkpt lat="53.304133" lon="06.586924"><ele>18.2</ele><time>2021-05-20T09:47:10Z</time><name>PT553</name></trkpt>
<trkpt lat="53.304122" lon="06.586922"><ele>18.2</ele><time>2021-05-20T09:47:10Z</time><name>PT554</name></trkpt>
<trkpt lat="53.304112" lon="06.586919"><ele>18.5</ele><time>2021-05-20T09:47:12Z</time><name>PT555</name></trkpt>
<trkpt lat="53.304102" lon="06.586919"><ele>18.5</ele><time>2021-05-20T09:47:12Z</time><name>PT556</name></trkpt>
<trkpt lat="53.304093" lon="06.586919"><ele>18.7</ele><time>2021-05-20T09:47:14Z</time><name>PT557</name></trkpt>
<trkpt lat="53.304082" lon="06.586921"><ele>18.6</ele><time>2021-05-20T09:47:14Z</time><name>PT558</name></trkpt>
<trkpt lat="53.304071" lon="06.586921"><ele>18.3</ele><time>2021-05-20T09:47:16Z</time><name>PT559</name></trkpt>
<trkpt lat="53.304058" lon="06.586922"><ele>18.2</ele><time>2021-05-20T09:47:16Z</time><name>PT560</name></trkpt>
<trkpt lat="53.304046" lon="06.586923"><ele>18</ele><time>2021-05-20T09:47:18Z</time><name>PT561</name></trkpt>
<trkpt lat="53.304035" lon="06.586922"><ele>17.7</ele><time>2021-05-20T09:47:18Z</time><name>PT562</name></trkpt>
<trkpt lat="53.304023" lon="06.586920"><ele>17.7</ele><time>2021-05-20T09:47:20Z</time><name>PT563</name></trkpt>
<trkpt lat="53.304012" lon="06.586918"><ele>17.9</ele><time>2021-05-20T09:47:20Z</time><name>PT564</name></trkpt>
<trkpt lat="53.304001" lon="06.586914"><ele>17.9</ele><time>2021-05-20T09:47:22Z</time><name>PT565</name></trkpt>
<trkpt lat="53.303990" lon="06.586913"><ele>18</ele><time>2021-05-20T09:47:22Z</time><name>PT566</name></trkpt>
<trkpt lat="53.303979" lon="06.586913"><ele>17.8</ele><time>2021-05-20T09:47:24Z</time><name>PT567</name></trkpt>
<trkpt lat="53.303966" lon="06.586913"><ele>17.7</ele><time>2021-05-20T09:47:24Z</time><name>PT568</name></trkpt>
<trkpt lat="53.303955" lon="06.586914"><ele>17.7</ele><time>2021-05-20T09:47:26Z</time><name>PT569</name></trkpt>
<trkpt lat="53.303944" lon="06.586916"><ele>17.9</ele><time>2021-05-20T09:47:26Z</time><name>PT570</name></trkpt>
<trkpt lat="53.303934" lon="06.586917"><ele>17.7</ele><time>2021-05-20T09:47:28Z</time><name>PT571</name></trkpt>
<trkpt lat="53.303924" lon="06.586918"><ele>17.8</ele><time>2021-05-20T09:47:28Z</time><name>PT572</name></trkpt>
<trkpt lat="53.303911" lon="06.586920"><ele>17.8</ele><time>2021-05-20T09:47:30Z</time><name>PT573</name></trkpt>
<trkpt lat="53.303899" lon="06.586919"><ele>17.9</ele><time>2021-05-20T09:47:30Z</time><name>PT574</name></trkpt>
<trkpt lat="53.303885" lon="06.586917"><ele>17.8</ele><time>2021-05-20T09:47:32Z</time><name>PT575</name></trkpt>
<trkpt lat="53.303872" lon="06.586920"><ele>17.9</ele><time>2021-05-20T09:47:32Z</time><name>PT576</name></trkpt>
<trkpt lat="53.303859" lon="06.586922"><ele>18</ele><time>2021-05-20T09:47:34Z</time><name>PT577</name></trkpt>
<trkpt lat="53.303847" lon="06.586921"><ele>18</ele><time>2021-05-20T09:47:34Z</time><name>PT578</name></trkpt>
<trkpt lat="53.303835" lon="06.586922"><ele>18</ele><time>2021-05-20T09:47:35Z</time><name>PT579</name></trkpt>
<trkpt lat="53.303822" lon="06.586923"><ele>18.1</ele><time>2021-05-20T09:47:37Z</time><name>PT580</name></trkpt>
<trkpt lat="53.303810" lon="06.586921"><ele>18.2</ele><time>2021-05-20T09:47:37Z</time><name>PT581</name></trkpt>
<trkpt lat="53.303797" lon="06.586918"><ele>17.9</ele><time>2021-05-20T09:47:39Z</time><name>PT582</name></trkpt>
<trkpt lat="53.303783" lon="06.586917"><ele>17.8</ele><time>2021-05-20T09:47:39Z</time><name>PT583</name></trkpt>
<trkpt lat="53.303770" lon="06.586915"><ele>17.8</ele><time>2021-05-20T09:47:41Z</time><name>PT584</name></trkpt>
<trkpt lat="53.303757" lon="06.586913"><ele>17.8</ele><time>2021-05-20T09:47:41Z</time><name>PT585</name></trkpt>
<trkpt lat="53.303745" lon="06.586912"><ele>17.7</ele><time>2021-05-20T09:47:43Z</time><name>PT586</name></trkpt>
<trkpt lat="53.303733" lon="06.586912"><ele>17.8</ele><time>2021-05-20T09:47:43Z</time><name>PT587</name></trkpt>
<trkpt lat="53.303719" lon="06.586913"><ele>18</ele><time>2021-05-20T09:47:45Z</time><name>PT588</name></trkpt>
<trkpt lat="53.303706" lon="06.586912"><ele>17.8</ele><time>2021-05-20T09:47:45Z</time><name>PT589</name></trkpt>
<trkpt lat="53.303693" lon="06.586913"><ele>17.7</ele><time>2021-05-20T09:47:47Z</time><name>PT590</name></trkpt>
<trkpt lat="53.303681" lon="06.586914"><ele>17.7</ele><time>2021-05-20T09:47:47Z</time><name>PT591</name></trkpt>
<trkpt lat="53.303669" lon="06.586916"><ele>17.7</ele><time>2021-05-20T09:47:49Z</time><name>PT592</name></trkpt>
<trkpt lat="53.303658" lon="06.586918"><ele>17.8</ele><time>2021-05-20T09:47:49Z</time><name>PT593</name></trkpt>
<trkpt lat="53.303645" lon="06.586920"><ele>18</ele><time>2021-05-20T09:47:51Z</time><name>PT594</name></trkpt>
<trkpt lat="53.303632" lon="06.586920"><ele>17.9</ele><time>2021-05-20T09:47:51Z</time><name>PT595</name></trkpt>
<trkpt lat="53.303619" lon="06.586919"><ele>18</ele><time>2021-05-20T09:47:53Z</time><name>PT596</name></trkpt>
<trkpt lat="53.303605" lon="06.586918"><ele>17.9</ele><time>2021-05-20T09:47:53Z</time><name>PT597</name></trkpt>
<trkpt lat="53.303592" lon="06.586917"><ele>17.8</ele><time>2021-05-20T09:47:55Z</time><name>PT598</name></trkpt>
<trkpt lat="53.303580" lon="06.586917"><ele>17.8</ele><time>2021-05-20T09:47:55Z</time><name>PT599</name></trkpt>
<trkpt lat="53.303565" lon="06.586920"><ele>17.8</ele><time>2021-05-20T09:47:57Z</time><name>PT600</name></trkpt>
<trkpt lat="53.303551" lon="06.586923"><ele>17.7</ele><time>2021-05-20T09:47:57Z</time><name>PT601</name></trkpt>
<trkpt lat="53.303539" lon="06.586924"><ele>17.8</ele><time>2021-05-20T09:47:59Z</time><name>PT602</name></trkpt>
<trkpt lat="53.303527" lon="06.586924"><ele>17.9</ele><time>2021-05-20T09:47:59Z</time><name>PT603</name></trkpt>
<trkpt lat="53.303515" lon="06.586924"><ele>17.9</ele><time>2021-05-20T09:48:01Z</time><name>PT604</name></trkpt>
<trkpt lat="53.303501" lon="06.586926"><ele>18.2</ele><time>2021-05-20T09:48:01Z</time><name>PT605</name></trkpt>
<trkpt lat="53.303488" lon="06.586925"><ele>18.1</ele><time>2021-05-20T09:48:03Z</time><name>PT606</name></trkpt>
<trkpt lat="53.303474" lon="06.586925"><ele>18.1</ele><time>2021-05-20T09:48:03Z</time><name>PT607</name></trkpt>
<trkpt lat="53.303460" lon="06.586923"><ele>18.2</ele><time>2021-05-20T09:48:05Z</time><name>PT608</name></trkpt>
<trkpt lat="53.303447" lon="06.586922"><ele>18.2</ele><time>2021-05-20T09:48:05Z</time><name>PT609</name></trkpt>
<trkpt lat="53.303436" lon="06.586921"><ele>18.1</ele><time>2021-05-20T09:48:07Z</time><name>PT610</name></trkpt>
<trkpt lat="53.303424" lon="06.586919"><ele>18.1</ele><time>2021-05-20T09:48:07Z</time><name>PT611</name></trkpt>
<trkpt lat="53.303411" lon="06.586916"><ele>18.1</ele><time>2021-05-20T09:48:09Z</time><name>PT612</name></trkpt>
<trkpt lat="53.303400" lon="06.586914"><ele>18</ele><time>2021-05-20T09:48:09Z</time><name>PT613</name></trkpt>
<trkpt lat="53.303388" lon="06.586912"><ele>18.2</ele><time>2021-05-20T09:48:11Z</time><name>PT614</name></trkpt>
<trkpt lat="53.303376" lon="06.586910"><ele>18.2</ele><time>2021-05-20T09:48:11Z</time><name>PT615</name></trkpt>
<trkpt lat="53.303365" lon="06.586911"><ele>18.2</ele><time>2021-05-20T09:48:13Z</time><name>PT616</name></trkpt>
<trkpt lat="53.303354" lon="06.586911"><ele>18.3</ele><time>2021-05-20T09:48:13Z</time><name>PT617</name></trkpt>
<trkpt lat="53.303343" lon="06.586910"><ele>18.2</ele><time>2021-05-20T09:48:15Z</time><name>PT618</name></trkpt>
<trkpt lat="53.303331" lon="06.586911"><ele>18.2</ele><time>2021-05-20T09:48:15Z</time><name>PT619</name></trkpt>
<trkpt lat="53.303319" lon="06.586912"><ele>18.4</ele><time>2021-05-20T09:48:17Z</time><name>PT620</name></trkpt>
<trkpt lat="53.303309" lon="06.586911"><ele>18.2</ele><time>2021-05-20T09:48:17Z</time><name>PT621</name></trkpt>
<trkpt lat="53.303297" lon="06.586909"><ele>18.2</ele><time>2021-05-20T09:48:19Z</time><name>PT622</name></trkpt>
<trkpt lat="53.303284" lon="06.586908"><ele>18</ele><time>2021-05-20T09:48:19Z</time><name>PT623</name></trkpt>
<trkpt lat="53.303271" lon="06.586909"><ele>18.2</ele><time>2021-05-20T09:48:21Z</time><name>PT624</name></trkpt>
<trkpt lat="53.303259" lon="06.586910"><ele>18</ele><time>2021-05-20T09:48:21Z</time><name>PT625</name></trkpt>
<trkpt lat="53.303246" lon="06.586911"><ele>18</ele><time>2021-05-20T09:48:23Z</time><name>PT626</name></trkpt>
<trkpt lat="53.303233" lon="06.586913"><ele>18.1</ele><time>2021-05-20T09:48:23Z</time><name>PT627</name></trkpt>
<trkpt lat="53.303221" lon="06.586915"><ele>18.2</ele><time>2021-05-20T09:48:25Z</time><name>PT628</name></trkpt>
<trkpt lat="53.303208" lon="06.586915"><ele>18.2</ele><time>2021-05-20T09:48:25Z</time><name>PT629</name></trkpt>
<trkpt lat="53.303195" lon="06.586915"><ele>18.2</ele><time>2021-05-20T09:48:27Z</time><name>PT630</name></trkpt>
<trkpt lat="53.303182" lon="06.586915"><ele>18.2</ele><time>2021-05-20T09:48:27Z</time><name>PT631</name></trkpt>
<trkpt lat="53.303169" lon="06.586914"><ele>18.2</ele><time>2021-05-20T09:48:29Z</time><name>PT632</name></trkpt>
<trkpt lat="53.303157" lon="06.586914"><ele>18</ele><time>2021-05-20T09:48:29Z</time><name>PT633</name></trkpt>
<trkpt lat="53.303144" lon="06.586915"><ele>18.1</ele><time>2021-05-20T09:48:31Z</time><name>PT634</name></trkpt>
<trkpt lat="53.303131" lon="06.586915"><ele>18.1</ele><time>2021-05-20T09:48:31Z</time><name>PT635</name></trkpt>
<trkpt lat="53.303118" lon="06.586914"><ele>18.2</ele><time>2021-05-20T09:48:33Z</time><name>PT636</name></trkpt>
<trkpt lat="53.303107" lon="06.586911"><ele>18.1</ele><time>2021-05-20T09:48:33Z</time><name>PT637</name></trkpt>
<trkpt lat="53.303094" lon="06.586909"><ele>18.1</ele><time>2021-05-20T09:48:35Z</time><name>PT638</name></trkpt>
<trkpt lat="53.303083" lon="06.586908"><ele>18.1</ele><time>2021-05-20T09:48:35Z</time><name>PT639</name></trkpt>
<trkpt lat="53.303072" lon="06.586907"><ele>17.8</ele><time>2021-05-20T09:48:37Z</time><name>PT640</name></trkpt>
<trkpt lat="53.303060" lon="06.586907"><ele>17.7</ele><time>2021-05-20T09:48:37Z</time><name>PT641</name></trkpt>
<trkpt lat="53.303049" lon="06.586907"><ele>17.8</ele><time>2021-05-20T09:48:39Z</time><name>PT642</name></trkpt>
<trkpt lat="53.303039" lon="06.586907"><ele>17.8</ele><time>2021-05-20T09:48:39Z</time><name>PT643</name></trkpt>
<trkpt lat="53.303028" lon="06.586908"><ele>17.8</ele><time>2021-05-20T09:48:41Z</time><name>PT644</name></trkpt>
<trkpt lat="53.303017" lon="06.586907"><ele>17.7</ele><time>2021-05-20T09:48:41Z</time><name>PT645</name></trkpt>
<trkpt lat="53.303006" lon="06.586907"><ele>17.8</ele><time>2021-05-20T09:48:43Z</time><name>PT646</name></trkpt>
<trkpt lat="53.302993" lon="06.586908"><ele>17.9</ele><time>2021-05-20T09:48:43Z</time><name>PT647</name></trkpt>
<trkpt lat="53.302981" lon="06.586908"><ele>17.9</ele><time>2021-05-20T09:48:45Z</time><name>PT648</name></trkpt>
<trkpt lat="53.302969" lon="06.586909"><ele>17.8</ele><time>2021-05-20T09:48:45Z</time><name>PT649</name></trkpt>
<trkpt lat="53.302956" lon="06.586908"><ele>17.8</ele><time>2021-05-20T09:48:47Z</time><name>PT650</name></trkpt>
<trkpt lat="53.302943" lon="06.586908"><ele>17.8</ele><time>2021-05-20T09:48:47Z</time><name>PT651</name></trkpt>
<trkpt lat="53.302930" lon="06.586909"><ele>17.7</ele><time>2021-05-20T09:48:49Z</time><name>PT652</name></trkpt>
<trkpt lat="53.302917" lon="06.586908"><ele>17.9</ele><time>2021-05-20T09:48:49Z</time><name>PT653</name></trkpt>
<trkpt lat="53.302902" lon="06.586908"><ele>18</ele><time>2021-05-20T09:48:51Z</time><name>PT654</name></trkpt>
<trkpt lat="53.302889" lon="06.586908"><ele>17.9</ele><time>2021-05-20T09:48:51Z</time><name>PT655</name></trkpt>
<trkpt lat="53.302876" lon="06.586910"><ele>18</ele><time>2021-05-20T09:48:53Z</time><name>PT656</name></trkpt>
<trkpt lat="53.302862" lon="06.586910"><ele>17.9</ele><time>2021-05-20T09:48:53Z</time><name>PT657</name></trkpt>
<trkpt lat="53.302848" lon="06.586907"><ele>17.9</ele><time>2021-05-20T09:48:55Z</time><name>PT658</name></trkpt>
<trkpt lat="53.302836" lon="06.586906"><ele>18</ele><time>2021-05-20T09:48:55Z</time><name>PT659</name></trkpt>
<trkpt lat="53.302825" lon="06.586904"><ele>17.9</ele><time>2021-05-20T09:48:57Z</time><name>PT660</name></trkpt>
<trkpt lat="53.302814" lon="06.586903"><ele>17.9</ele><time>2021-05-20T09:48:57Z</time><name>PT661</name></trkpt>
<trkpt lat="53.302803" lon="06.586902"><ele>18.1</ele><time>2021-05-20T09:48:59Z</time><name>PT662</name></trkpt>
<trkpt lat="53.302793" lon="06.586899"><ele>18.1</ele><time>2021-05-20T09:48:59Z</time><name>PT663</name></trkpt>
<trkpt lat="53.302783" lon="06.586897"><ele>18</ele><time>2021-05-20T09:49:01Z</time><name>PT664</name></trkpt>
<trkpt lat="53.302772" lon="06.586895"><ele>18.2</ele><time>2021-05-20T09:49:01Z</time><name>PT665</name></trkpt>
<trkpt lat="53.302762" lon="06.586895"><ele>18.1</ele><time>2021-05-20T09:49:03Z</time><name>PT666</name></trkpt>
<trkpt lat="53.302751" lon="06.586896"><ele>18</ele><time>2021-05-20T09:49:03Z</time><name>PT667</name></trkpt>
<trkpt lat="53.302738" lon="06.586897"><ele>18.2</ele><time>2021-05-20T09:49:05Z</time><name>PT668</name></trkpt>
<trkpt lat="53.302727" lon="06.586897"><ele>18.2</ele><time>2021-05-20T09:49:05Z</time><name>PT669</name></trkpt>
<trkpt lat="53.302715" lon="06.586897"><ele>18.1</ele><time>2021-05-20T09:49:07Z</time><name>PT670</name></trkpt>
<trkpt lat="53.302703" lon="06.586897"><ele>18.1</ele><time>2021-05-20T09:49:07Z</time><name>PT671</name></trkpt>
<trkpt lat="53.302691" lon="06.586896"><ele>18</ele><time>2021-05-20T09:49:09Z</time><name>PT672</name></trkpt>
<trkpt lat="53.302677" lon="06.586896"><ele>18</ele><time>2021-05-20T09:49:09Z</time><name>PT673</name></trkpt>
<trkpt lat="53.302664" lon="06.586893"><ele>17.9</ele><time>2021-05-20T09:49:11Z</time><name>PT674</name></trkpt>
<trkpt lat="53.302653" lon="06.586890"><ele>17.8</ele><time>2021-05-20T09:49:11Z</time><name>PT675</name></trkpt>
<trkpt lat="53.302642" lon="06.586886"><ele>18</ele><time>2021-05-20T09:49:13Z</time><name>PT676</name></trkpt>
<trkpt lat="53.302631" lon="06.586882"><ele>18.1</ele><time>2021-05-20T09:49:13Z</time><name>PT677</name></trkpt>
<trkpt lat="53.302619" lon="06.586877"><ele>18.2</ele><time>2021-05-20T09:49:15Z</time><name>PT678</name></trkpt>
<trkpt lat="53.302609" lon="06.586868"><ele>18.2</ele><time>2021-05-20T09:49:15Z</time><name>PT679</name></trkpt>
<trkpt lat="53.302598" lon="06.586858"><ele>18.5</ele><time>2021-05-20T09:49:17Z</time><name>PT680</name></trkpt>
<trkpt lat="53.302589" lon="06.586847"><ele>18.5</ele><time>2021-05-20T09:49:17Z</time><name>PT681</name></trkpt>
<trkpt lat="53.302581" lon="06.586833"><ele>18.4</ele><time>2021-05-20T09:49:19Z</time><name>PT682</name></trkpt>
<trkpt lat="53.302575" lon="06.586820"><ele>18.3</ele><time>2021-05-20T09:49:19Z</time><name>PT683</name></trkpt>
<trkpt lat="53.302569" lon="06.586806"><ele>18.2</ele><time>2021-05-20T09:49:21Z</time><name>PT684</name></trkpt>
<trkpt lat="53.302562" lon="06.586791"><ele>18.2</ele><time>2021-05-20T09:49:21Z</time><name>PT685</name></trkpt>
<trkpt lat="53.302554" lon="06.586776"><ele>18.2</ele><time>2021-05-20T09:49:23Z</time><name>PT686</name></trkpt>
<trkpt lat="53.302548" lon="06.586760"><ele>18.1</ele><time>2021-05-20T09:49:23Z</time><name>PT687</name></trkpt>
<trkpt lat="53.302543" lon="06.586744"><ele>18.2</ele><time>2021-05-20T09:49:25Z</time><name>PT688</name></trkpt>
<trkpt lat="53.302539" lon="06.586727"><ele>18.2</ele><time>2021-05-20T09:49:25Z</time><name>PT689</name></trkpt>
<trkpt lat="53.302534" lon="06.586710"><ele>18.2</ele><time>2021-05-20T09:49:27Z</time><name>PT690</name></trkpt>
<trkpt lat="53.302533" lon="06.586697"><ele>18.1</ele><time>2021-05-20T09:49:27Z</time><name>PT691</name></trkpt>
<trkpt lat="53.302531" lon="06.586693"><ele>18.2</ele><time>2021-05-20T09:49:29Z</time><name>PT692</name></trkpt>
<trkpt lat="53.302530" lon="06.586694"><ele>18.2</ele><time>2021-05-20T09:49:29Z</time><name>PT693</name></trkpt>
<trkpt lat="53.302529" lon="06.586694"><ele>18.3</ele><time>2021-05-20T09:49:31Z</time><name>PT694</name></trkpt>
<trkpt lat="53.302527" lon="06.586689"><ele>18.3</ele><time>2021-05-20T09:49:39Z</time><name>PT695</name></trkpt>
<trkpt lat="53.302523" lon="06.586674"><ele>18.4</ele><time>2021-05-20T09:49:39Z</time><name>PT696</name></trkpt>
<trkpt lat="53.302517" lon="06.586658"><ele>18.3</ele><time>2021-05-20T09:49:41Z</time><name>PT697</name></trkpt>
<trkpt lat="53.302515" lon="06.586646"><ele>18.2</ele><time>2021-05-20T09:49:41Z</time><name>PT698</name></trkpt>
<trkpt lat="53.302517" lon="06.586637"><ele>18.3</ele><time>2021-05-20T09:49:43Z</time><name>PT699</name></trkpt>
<trkpt lat="53.302518" lon="06.586633"><ele>18.5</ele><time>2021-05-20T09:49:43Z</time><name>PT700</name></trkpt>
<trkpt lat="53.302517" lon="06.586632"><ele>18.4</ele><time>2021-05-20T09:49:45Z</time><name>PT701</name></trkpt>
<trkpt lat="53.302517" lon="06.586632"><ele>18.5</ele><time>2021-05-20T09:49:45Z</time><name>PT702</name></trkpt>
<trkpt lat="53.302515" lon="06.586619"><ele>18.2</ele><time>2021-05-20T09:50:27Z</time><name>PT703</name></trkpt>
<trkpt lat="53.302511" lon="06.586599"><ele>18.2</ele><time>2021-05-20T09:50:29Z</time><name>PT704</name></trkpt>
<trkpt lat="53.302508" lon="06.586581"><ele>18.3</ele><time>2021-05-20T09:50:29Z</time><name>PT705</name></trkpt>
<trkpt lat="53.302501" lon="06.586561"><ele>18.4</ele><time>2021-05-20T09:50:31Z</time><name>PT706</name></trkpt>
<trkpt lat="53.302495" lon="06.586541"><ele>18.5</ele><time>2021-05-20T09:50:31Z</time><name>PT707</name></trkpt>
<trkpt lat="53.302490" lon="06.586524"><ele>18.5</ele><time>2021-05-20T09:50:33Z</time><name>PT708</name></trkpt>
<trkpt lat="53.302488" lon="06.586510"><ele>18.5</ele><time>2021-05-20T09:50:33Z</time><name>PT709</name></trkpt>
<trkpt lat="53.302487" lon="06.586495"><ele>18.3</ele><time>2021-05-20T09:50:35Z</time><name>PT710</name></trkpt>
<trkpt lat="53.302484" lon="06.586483"><ele>18.3</ele><time>2021-05-20T09:50:35Z</time><name>PT711</name></trkpt>
<trkpt lat="53.302485" lon="06.586476"><ele>18.2</ele><time>2021-05-20T09:50:37Z</time><name>PT712</name></trkpt>
<trkpt lat="53.302481" lon="06.586471"><ele>18.2</ele><time>2021-05-20T09:50:37Z</time><name>PT713</name></trkpt>
<trkpt lat="53.302480" lon="06.586467"><ele>18.2</ele><time>2021-05-20T09:50:39Z</time><name>PT714</name></trkpt>
<trkpt lat="53.302481" lon="06.586466"><ele>18.3</ele><time>2021-05-20T09:50:39Z</time><name>PT715</name></trkpt>
<trkpt lat="53.302480" lon="06.586467"><ele>18.4</ele><time>2021-05-20T09:50:41Z</time><name>PT716</name></trkpt>
<trkpt lat="53.302480" lon="06.586458"><ele>18.7</ele><time>2021-05-20T09:50:45Z</time><name>PT717</name></trkpt>
<trkpt lat="53.302476" lon="06.586440"><ele>18.7</ele><time>2021-05-20T09:50:45Z</time><name>PT718</name></trkpt>
<trkpt lat="53.302470" lon="06.586430"><ele>18.7</ele><time>2021-05-20T09:50:47Z</time><name>PT719</name></trkpt>
<trkpt lat="53.302463" lon="06.586420"><ele>18.7</ele><time>2021-05-20T09:50:47Z</time><name>PT720</name></trkpt>
<trkpt lat="53.302455" lon="06.586415"><ele>18.7</ele><time>2021-05-20T09:50:49Z</time><name>PT721</name></trkpt>
<trkpt lat="53.302446" lon="06.586414"><ele>18.8</ele><time>2021-05-20T09:50:49Z</time><name>PT722</name></trkpt>
<trkpt lat="53.302437" lon="06.586417"><ele>18.7</ele><time>2021-05-20T09:50:51Z</time><name>PT723</name></trkpt>
<trkpt lat="53.302428" lon="06.586418"><ele>18.7</ele><time>2021-05-20T09:50:51Z</time><name>PT724</name></trkpt>
<trkpt lat="53.302420" lon="06.586417"><ele>18.5</ele><time>2021-05-20T09:50:52Z</time><name>PT725</name></trkpt>
<trkpt lat="53.302414" lon="06.586418"><ele>18.4</ele><time>2021-05-20T09:50:54Z</time><name>PT726</name></trkpt>
<trkpt lat="53.302407" lon="06.586419"><ele>18.3</ele><time>2021-05-20T09:50:54Z</time><name>PT727</name></trkpt>
<trkpt lat="53.302399" lon="06.586419"><ele>18.5</ele><time>2021-05-20T09:50:56Z</time><name>PT728</name></trkpt>
<trkpt lat="53.302393" lon="06.586420"><ele>18.7</ele><time>2021-05-20T09:50:56Z</time><name>PT729</name></trkpt>
<trkpt lat="53.302387" lon="06.586419"><ele>18.7</ele><time>2021-05-20T09:50:58Z</time><name>PT730</name></trkpt>
<trkpt lat="53.302382" lon="06.586417"><ele>18.7</ele><time>2021-05-20T09:50:58Z</time><name>PT731</name></trkpt>
<trkpt lat="53.302379" lon="06.586417"><ele>18.5</ele><time>2021-05-20T09:51:00Z</time><name>PT732</name></trkpt>
<trkpt lat="53.302375" lon="06.586419"><ele>18.4</ele><time>2021-05-20T09:51:00Z</time><name>PT733</name></trkpt>
<trkpt lat="53.302372" lon="06.586420"><ele>18.4</ele><time>2021-05-20T09:51:02Z</time><name>PT734</name></trkpt>
<trkpt lat="53.302370" lon="06.586418"><ele>18.5</ele><time>2021-05-20T09:51:12Z</time><name>PT735</name></trkpt>
<trkpt lat="53.302364" lon="06.586409"><ele>18.4</ele><time>2021-05-20T09:51:14Z</time><name>PT736</name></trkpt>
<trkpt lat="53.302356" lon="06.586397"><ele>18.4</ele><time>2021-05-20T09:51:14Z</time><name>PT737</name></trkpt>
<trkpt lat="53.302347" lon="06.586387"><ele>18.2</ele><time>2021-05-20T09:51:16Z</time><name>PT738</name></trkpt>
<trkpt lat="53.302338" lon="06.586387"><ele>18.2</ele><time>2021-05-20T09:51:16Z</time><name>PT739</name></trkpt>
<trkpt lat="53.302330" lon="06.586381"><ele>18.4</ele><time>2021-05-20T09:51:18Z</time><name>PT740</name></trkpt>
<trkpt lat="53.302320" lon="06.586377"><ele>18.4</ele><time>2021-05-20T09:51:18Z</time><name>PT741</name></trkpt>
<trkpt lat="53.302314" lon="06.586377"><ele>18.5</ele><time>2021-05-20T09:51:20Z</time><name>PT742</name></trkpt>
<trkpt lat="53.302307" lon="06.586379"><ele>18.4</ele><time>2021-05-20T09:51:20Z</time><name>PT743</name></trkpt>
<trkpt lat="53.302300" lon="06.586377"><ele>18.2</ele><time>2021-05-20T09:51:22Z</time><name>PT744</name></trkpt>
<trkpt lat="53.302294" lon="06.586380"><ele>18.1</ele><time>2021-05-20T09:51:22Z</time><name>PT745</name></trkpt>
<trkpt lat="53.302285" lon="06.586380"><ele>18.2</ele><time>2021-05-20T09:51:24Z</time><name>PT746</name></trkpt>
<trkpt lat="53.302276" lon="06.586376"><ele>18.2</ele><time>2021-05-20T09:51:24Z</time><name>PT747</name></trkpt>
<trkpt lat="53.302266" lon="06.586378"><ele>18.5</ele><time>2021-05-20T09:51:26Z</time><name>PT748</name></trkpt>
<trkpt lat="53.302254" lon="06.586376"><ele>18.4</ele><time>2021-05-20T09:51:26Z</time><name>PT749</name></trkpt>
<trkpt lat="53.302242" lon="06.586374"><ele>18.5</ele><time>2021-05-20T09:51:28Z</time><name>PT750</name></trkpt>
<trkpt lat="53.302231" lon="06.586371"><ele>18.5</ele><time>2021-05-20T09:51:28Z</time><name>PT751</name></trkpt>
<trkpt lat="53.302221" lon="06.586368"><ele>18.4</ele><time>2021-05-20T09:51:30Z</time><name>PT752</name></trkpt>
<trkpt lat="53.302209" lon="06.586367"><ele>18.4</ele><time>2021-05-20T09:51:30Z</time><name>PT753</name></trkpt>
<trkpt lat="53.302201" lon="06.586363"><ele>18.5</ele><time>2021-05-20T09:51:32Z</time><name>PT754</name></trkpt>
<trkpt lat="53.302188" lon="06.586362"><ele>18.5</ele><time>2021-05-20T09:51:32Z</time><name>PT755</name></trkpt>
<trkpt lat="53.302176" lon="06.586363"><ele>18.6</ele><time>2021-05-20T09:51:34Z</time><name>PT756</name></trkpt>
<trkpt lat="53.302164" lon="06.586362"><ele>18.6</ele><time>2021-05-20T09:51:34Z</time><name>PT757</name></trkpt>
<trkpt lat="53.302147" lon="06.586363"><ele>18.7</ele><time>2021-05-20T09:51:36Z</time><name>PT758</name></trkpt>
<trkpt lat="53.302134" lon="06.586360"><ele>18.5</ele><time>2021-05-20T09:51:36Z</time><name>PT759</name></trkpt>
<trkpt lat="53.302119" lon="06.586356"><ele>18.5</ele><time>2021-05-20T09:51:38Z</time><name>PT760</name></trkpt>
<trkpt lat="53.302109" lon="06.586352"><ele>18.5</ele><time>2021-05-20T09:51:38Z</time><name>PT761</name></trkpt>
<trkpt lat="53.302098" lon="06.586350"><ele>18.6</ele><time>2021-05-20T09:51:40Z</time><name>PT762</name></trkpt>
<trkpt lat="53.302087" lon="06.586348"><ele>18.5</ele><time>2021-05-20T09:51:40Z</time><name>PT763</name></trkpt>
<trkpt lat="53.302075" lon="06.586345"><ele>18.4</ele><time>2021-05-20T09:51:42Z</time><name>PT764</name></trkpt>
<trkpt lat="53.302065" lon="06.586344"><ele>18.3</ele><time>2021-05-20T09:51:42Z</time><name>PT765</name></trkpt>
<trkpt lat="53.302053" lon="06.586347"><ele>18.2</ele><time>2021-05-20T09:51:44Z</time><name>PT766</name></trkpt>
<trkpt lat="53.302041" lon="06.586347"><ele>18.2</ele><time>2021-05-20T09:51:44Z</time><name>PT767</name></trkpt>
<trkpt lat="53.302031" lon="06.586346"><ele>18.3</ele><time>2021-05-20T09:51:46Z</time><name>PT768</name></trkpt>
<trkpt lat="53.302019" lon="06.586345"><ele>18.4</ele><time>2021-05-20T09:51:46Z</time><name>PT769</name></trkpt>
<trkpt lat="53.302005" lon="06.586346"><ele>18.5</ele><time>2021-05-20T09:51:48Z</time><name>PT770</name></trkpt>
<trkpt lat="53.301988" lon="06.586347"><ele>18.5</ele><time>2021-05-20T09:51:48Z</time><name>PT771</name></trkpt>
<trkpt lat="53.301977" lon="06.586347"><ele>18.4</ele><time>2021-05-20T09:51:50Z</time><name>PT772</name></trkpt>
<trkpt lat="53.301963" lon="06.586346"><ele>18.4</ele><time>2021-05-20T09:51:50Z</time><name>PT773</name></trkpt>
<trkpt lat="53.301948" lon="06.586344"><ele>18.4</ele><time>2021-05-20T09:51:52Z</time><name>PT774</name></trkpt>
<trkpt lat="53.301934" lon="06.586346"><ele>18.7</ele><time>2021-05-20T09:51:52Z</time><name>PT775</name></trkpt>
<trkpt lat="53.301921" lon="06.586349"><ele>18.6</ele><time>2021-05-20T09:51:54Z</time><name>PT776</name></trkpt>
<trkpt lat="53.301910" lon="06.586350"><ele>18.4</ele><time>2021-05-20T09:51:54Z</time><name>PT777</name></trkpt>
<trkpt lat="53.301898" lon="06.586348"><ele>18.4</ele><time>2021-05-20T09:51:56Z</time><name>PT778</name></trkpt>
<trkpt lat="53.301885" lon="06.586347"><ele>18.3</ele><time>2021-05-20T09:51:56Z</time><name>PT779</name></trkpt>
<trkpt lat="53.301874" lon="06.586348"><ele>18.2</ele><time>2021-05-20T09:51:58Z</time><name>PT780</name></trkpt>
<trkpt lat="53.301861" lon="06.586348"><ele>18.2</ele><time>2021-05-20T09:51:58Z</time><name>PT781</name></trkpt>
<trkpt lat="53.301849" lon="06.586347"><ele>18.3</ele><time>2021-05-20T09:52:00Z</time><name>PT782</name></trkpt>
<trkpt lat="53.301835" lon="06.586347"><ele>18.3</ele><time>2021-05-20T09:52:00Z</time><name>PT783</name></trkpt>
<trkpt lat="53.301821" lon="06.586345"><ele>18.4</ele><time>2021-05-20T09:52:02Z</time><name>PT784</name></trkpt>
<trkpt lat="53.301807" lon="06.586343"><ele>18.2</ele><time>2021-05-20T09:52:02Z</time><name>PT785</name></trkpt>
<trkpt lat="53.301795" lon="06.586343"><ele>17.9</ele><time>2021-05-20T09:52:04Z</time><name>PT786</name></trkpt>
<trkpt lat="53.301782" lon="06.586343"><ele>18</ele><time>2021-05-20T09:52:04Z</time><name>PT787</name></trkpt>
<trkpt lat="53.301770" lon="06.586342"><ele>17.9</ele><time>2021-05-20T09:52:06Z</time><name>PT788</name></trkpt>
<trkpt lat="53.301761" lon="06.586341"><ele>17.7</ele><time>2021-05-20T09:52:06Z</time><name>PT789</name></trkpt>
<trkpt lat="53.301750" lon="06.586340"><ele>17.7</ele><time>2021-05-20T09:52:08Z</time><name>PT790</name></trkpt>
<trkpt lat="53.301737" lon="06.586339"><ele>17.7</ele><time>2021-05-20T09:52:08Z</time><name>PT791</name></trkpt>
<trkpt lat="53.301725" lon="06.586335"><ele>17.7</ele><time>2021-05-20T09:52:10Z</time><name>PT792</name></trkpt>
<trkpt lat="53.301711" lon="06.586332"><ele>17.7</ele><time>2021-05-20T09:52:10Z</time><name>PT793</name></trkpt>
<trkpt lat="53.301699" lon="06.586330"><ele>17.8</ele><time>2021-05-20T09:52:12Z</time><name>PT794</name></trkpt>
<trkpt lat="53.301687" lon="06.586332"><ele>17.9</ele><time>2021-05-20T09:52:12Z</time><name>PT795</name></trkpt>
<trkpt lat="53.301676" lon="06.586334"><ele>17.9</ele><time>2021-05-20T09:52:14Z</time><name>PT796</name></trkpt>
<trkpt lat="53.301665" lon="06.586337"><ele>17.8</ele><time>2021-05-20T09:52:14Z</time><name>PT797</name></trkpt>
<trkpt lat="53.301653" lon="06.586336"><ele>17.9</ele><time>2021-05-20T09:52:16Z</time><name>PT798</name></trkpt>
<trkpt lat="53.301643" lon="06.586334"><ele>18</ele><time>2021-05-20T09:52:16Z</time><name>PT799</name></trkpt>
<trkpt lat="53.301632" lon="06.586333"><ele>18</ele><time>2021-05-20T09:52:18Z</time><name>PT800</name></trkpt>
<trkpt lat="53.301620" lon="06.586331"><ele>18</ele><time>2021-05-20T09:52:18Z</time><name>PT801</name></trkpt>
<trkpt lat="53.301609" lon="06.586326"><ele>18</ele><time>2021-05-20T09:52:20Z</time><name>PT802</name></trkpt>
<trkpt lat="53.301593" lon="06.586324"><ele>18.1</ele><time>2021-05-20T09:52:20Z</time><name>PT803</name></trkpt>
<trkpt lat="53.301584" lon="06.586320"><ele>18.1</ele><time>2021-05-20T09:52:22Z</time><name>PT804</name></trkpt>
<trkpt lat="53.301576" lon="06.586312"><ele>18.2</ele><time>2021-05-20T09:52:22Z</time><name>PT805</name></trkpt>
<trkpt lat="53.301569" lon="06.586302"><ele>18.2</ele><time>2021-05-20T09:52:24Z</time><name>PT806</name></trkpt>
<trkpt lat="53.301562" lon="06.586292"><ele>18.2</ele><time>2021-05-20T09:52:24Z</time><name>PT807</name></trkpt>
<trkpt lat="53.301555" lon="06.586285"><ele>18.2</ele><time>2021-05-20T09:52:26Z</time><name>PT808</name></trkpt>
<trkpt lat="53.301546" lon="06.586281"><ele>18.2</ele><time>2021-05-20T09:52:26Z</time><name>PT809</name></trkpt>
<trkpt lat="53.301536" lon="06.586280"><ele>18</ele><time>2021-05-20T09:52:28Z</time><name>PT810</name></trkpt>
<trkpt lat="53.301527" lon="06.586281"><ele>18</ele><time>2021-05-20T09:52:28Z</time><name>PT811</name></trkpt>
<trkpt lat="53.301514" lon="06.586282"><ele>18.2</ele><time>2021-05-20T09:52:30Z</time><name>PT812</name></trkpt>
<trkpt lat="53.301500" lon="06.586281"><ele>18</ele><time>2021-05-20T09:52:30Z</time><name>PT813</name></trkpt>
<trkpt lat="53.301486" lon="06.586279"><ele>18</ele><time>2021-05-20T09:52:32Z</time><name>PT814</name></trkpt>
<trkpt lat="53.301474" lon="06.586278"><ele>18.1</ele><time>2021-05-20T09:52:32Z</time><name>PT815</name></trkpt>
<trkpt lat="53.301461" lon="06.586277"><ele>18.1</ele><time>2021-05-20T09:52:34Z</time><name>PT816</name></trkpt>
<trkpt lat="53.301451" lon="06.586275"><ele>18.2</ele><time>2021-05-20T09:52:34Z</time><name>PT817</name></trkpt>
<trkpt lat="53.301442" lon="06.586271"><ele>18.1</ele><time>2021-05-20T09:52:36Z</time><name>PT818</name></trkpt>
<trkpt lat="53.301432" lon="06.586270"><ele>18.1</ele><time>2021-05-20T09:52:36Z</time><name>PT819</name></trkpt>
<trkpt lat="53.301420" lon="06.586272"><ele>17.8</ele><time>2021-05-20T09:52:38Z</time><name>PT820</name></trkpt>
<trkpt lat="53.301409" lon="06.586277"><ele>17.8</ele><time>2021-05-20T09:52:38Z</time><name>PT821</name></trkpt>
<trkpt lat="53.301398" lon="06.586281"><ele>17.8</ele><time>2021-05-20T09:52:40Z</time><name>PT822</name></trkpt>
<trkpt lat="53.301391" lon="06.586282"><ele>17.9</ele><time>2021-05-20T09:52:40Z</time><name>PT823</name></trkpt>
<trkpt lat="53.301384" lon="06.586281"><ele>17.9</ele><time>2021-05-20T09:52:42Z</time><name>PT824</name></trkpt>
<trkpt lat="53.301381" lon="06.586279"><ele>18</ele><time>2021-05-20T09:52:42Z</time><name>PT825</name></trkpt>
<trkpt lat="53.301378" lon="06.586278"><ele>18</ele><time>2021-05-20T09:52:44Z</time><name>PT826</name></trkpt>
<trkpt lat="53.301377" lon="06.586279"><ele>18.1</ele><time>2021-05-20T09:52:44Z</time><name>PT827</name></trkpt>
<trkpt lat="53.301376" lon="06.586279"><ele>18</ele><time>2021-05-20T09:52:46Z</time><name>PT828</name></trkpt>
<trkpt lat="53.301376" lon="06.586279"><ele>18.2</ele><time>2021-05-20T09:52:47Z</time><name>PT829</name></trkpt>
<trkpt lat="53.301378" lon="06.586278"><ele>18.1</ele><time>2021-05-20T09:52:47Z</time><name>PT830</name></trkpt>
<trkpt lat="53.301379" lon="06.586276"><ele>18</ele><time>2021-05-20T09:52:49Z</time><name>PT831</name></trkpt>
<trkpt lat="53.301378" lon="06.586276"><ele>17.9</ele><time>2021-05-20T09:52:49Z</time><name>PT832</name></trkpt>
<trkpt lat="53.301377" lon="06.586277"><ele>18</ele><time>2021-05-20T09:52:51Z</time><name>PT833</name></trkpt>
<trkpt lat="53.301374" lon="06.586266"><ele>18</ele><time>2021-05-20T09:53:15Z</time><name>PT834</name></trkpt>
<trkpt lat="53.301373" lon="06.586248"><ele>18.1</ele><time>2021-05-20T09:53:15Z</time><name>PT835</name></trkpt>
<trkpt lat="53.301371" lon="06.586226"><ele>17.9</ele><time>2021-05-20T09:53:17Z</time><name>PT836</name></trkpt>
<trkpt lat="53.301368" lon="06.586205"><ele>18</ele><time>2021-05-20T09:53:17Z</time><name>PT837</name></trkpt>
<trkpt lat="53.301366" lon="06.586184"><ele>18</ele><time>2021-05-20T09:53:19Z</time><name>PT838</name></trkpt>
<trkpt lat="53.301364" lon="06.586161"><ele>17.9</ele><time>2021-05-20T09:53:19Z</time><name>PT839</name></trkpt>
<trkpt lat="53.301364" lon="06.586141"><ele>18.1</ele><time>2021-05-20T09:53:21Z</time><name>PT840</name></trkpt>
<trkpt lat="53.301363" lon="06.586121"><ele>18.1</ele><time>2021-05-20T09:53:21Z</time><name>PT841</name></trkpt>
<trkpt lat="53.301362" lon="06.586101"><ele>17.9</ele><time>2021-05-20T09:53:23Z</time><name>PT842</name></trkpt>
<trkpt lat="53.301359" lon="06.586081"><ele>17.9</ele><time>2021-05-20T09:53:23Z</time><name>PT843</name></trkpt>
<trkpt lat="53.301357" lon="06.586062"><ele>17.9</ele><time>2021-05-20T09:53:25Z</time><name>PT844</name></trkpt>
<trkpt lat="53.301357" lon="06.586043"><ele>17.9</ele><time>2021-05-20T09:53:25Z</time><name>PT845</name></trkpt>
<trkpt lat="53.301356" lon="06.586023"><ele>18.1</ele><time>2021-05-20T09:53:27Z</time><name>PT846</name></trkpt>
<trkpt lat="53.301353" lon="06.586003"><ele>18.1</ele><time>2021-05-20T09:53:27Z</time><name>PT847</name></trkpt>
<trkpt lat="53.301352" lon="06.585984"><ele>18.2</ele><time>2021-05-20T09:53:29Z</time><name>PT848</name></trkpt>
<trkpt lat="53.301349" lon="06.585965"><ele>18.3</ele><time>2021-05-20T09:53:29Z</time><name>PT849</name></trkpt>
<trkpt lat="53.301347" lon="06.585946"><ele>18.3</ele><time>2021-05-20T09:53:31Z</time><name>PT850</name></trkpt>
<trkpt lat="53.301344" lon="06.585925"><ele>18.4</ele><time>2021-05-20T09:53:31Z</time><name>PT851</name></trkpt>
<trkpt lat="53.301341" lon="06.585904"><ele>18.5</ele><time>2021-05-20T09:53:33Z</time><name>PT852</name></trkpt>
<trkpt lat="53.301339" lon="06.585884"><ele>18.5</ele><time>2021-05-20T09:53:33Z</time><name>PT853</name></trkpt>
<trkpt lat="53.301338" lon="06.585864"><ele>18.5</ele><time>2021-05-20T09:53:35Z</time><name>PT854</name></trkpt>
<trkpt lat="53.301337" lon="06.585843"><ele>18.3</ele><time>2021-05-20T09:53:35Z</time><name>PT855</name></trkpt>
<trkpt lat="53.301335" lon="06.585822"><ele>18.3</ele><time>2021-05-20T09:53:37Z</time><name>PT856</name></trkpt>
<trkpt lat="53.301333" lon="06.585800"><ele>18.3</ele><time>2021-05-20T09:53:37Z</time><name>PT857</name></trkpt>
<trkpt lat="53.301330" lon="06.585777"><ele>18.4</ele><time>2021-05-20T09:53:39Z</time><name>PT858</name></trkpt>
<trkpt lat="53.301327" lon="06.585754"><ele>18.4</ele><time>2021-05-20T09:53:39Z</time><name>PT859</name></trkpt>
<trkpt lat="53.301325" lon="06.585734"><ele>18.4</ele><time>2021-05-20T09:53:41Z</time><name>PT860</name></trkpt>
<trkpt lat="53.301324" lon="06.585716"><ele>18.4</ele><time>2021-05-20T09:53:41Z</time><name>PT861</name></trkpt>
<trkpt lat="53.301321" lon="06.585698"><ele>18.3</ele><time>2021-05-20T09:53:43Z</time><name>PT862</name></trkpt>
<trkpt lat="53.301317" lon="06.585682"><ele>18.2</ele><time>2021-05-20T09:53:43Z</time><name>PT863</name></trkpt>
<trkpt lat="53.301311" lon="06.585665"><ele>18.3</ele><time>2021-05-20T09:53:45Z</time><name>PT864</name></trkpt>
<trkpt lat="53.301307" lon="06.585648"><ele>18.5</ele><time>2021-05-20T09:53:45Z</time><name>PT865</name></trkpt>
<trkpt lat="53.301304" lon="06.585632"><ele>18.3</ele><time>2021-05-20T09:53:47Z</time><name>PT866</name></trkpt>
<trkpt lat="53.301300" lon="06.585614"><ele>18.5</ele><time>2021-05-20T09:53:47Z</time><name>PT867</name></trkpt>
<trkpt lat="53.301296" lon="06.585594"><ele>18.5</ele><time>2021-05-20T09:53:49Z</time><name>PT868</name></trkpt>
<trkpt lat="53.301293" lon="06.585573"><ele>18.4</ele><time>2021-05-20T09:53:49Z</time><name>PT869</name></trkpt>
<trkpt lat="53.301289" lon="06.585555"><ele>18.4</ele><time>2021-05-20T09:53:51Z</time><name>PT870</name></trkpt>
<trkpt lat="53.301284" lon="06.585537"><ele>18.5</ele><time>2021-05-20T09:53:51Z</time><name>PT871</name></trkpt>
<trkpt lat="53.301278" lon="06.585522"><ele>18.2</ele><time>2021-05-20T09:53:53Z</time><name>PT872</name></trkpt>
<trkpt lat="53.301271" lon="06.585510"><ele>18.2</ele><time>2021-05-20T09:53:53Z</time><name>PT873</name></trkpt>
<trkpt lat="53.301262" lon="06.585500"><ele>18.1</ele><time>2021-05-20T09:53:55Z</time><name>PT874</name></trkpt>
<trkpt lat="53.301254" lon="06.585489"><ele>18.1</ele><time>2021-05-20T09:53:55Z</time><name>PT875</name></trkpt>
<trkpt lat="53.301247" lon="06.585478"><ele>18.2</ele><time>2021-05-20T09:53:57Z</time><name>PT876</name></trkpt>
<trkpt lat="53.301242" lon="06.585462"><ele>18.4</ele><time>2021-05-20T09:53:57Z</time><name>PT877</name></trkpt>
<trkpt lat="53.301238" lon="06.585444"><ele>18.3</ele><time>2021-05-20T09:53:59Z</time><name>PT878</name></trkpt>
<trkpt lat="53.301233" lon="06.585425"><ele>18.3</ele><time>2021-05-20T09:53:59Z</time><name>PT879</name></trkpt>
<trkpt lat="53.301229" lon="06.585407"><ele>18.3</ele><time>2021-05-20T09:54:01Z</time><name>PT880</name></trkpt>
<trkpt lat="53.301226" lon="06.585387"><ele>18.2</ele><time>2021-05-20T09:54:01Z</time><name>PT881</name></trkpt>
<trkpt lat="53.301224" lon="06.585367"><ele>18.2</ele><time>2021-05-20T09:54:03Z</time><name>PT882</name></trkpt>
<trkpt lat="53.301221" lon="06.585350"><ele>18.3</ele><time>2021-05-20T09:54:03Z</time><name>PT883</name></trkpt>
<trkpt lat="53.301218" lon="06.585335"><ele>18.3</ele><time>2021-05-20T09:54:05Z</time><name>PT884</name></trkpt>
<trkpt lat="53.301214" lon="06.585319"><ele>18.3</ele><time>2021-05-20T09:54:05Z</time><name>PT885</name></trkpt>
<trkpt lat="53.301211" lon="06.585302"><ele>18.3</ele><time>2021-05-20T09:54:07Z</time><name>PT886</name></trkpt>
<trkpt lat="53.301209" lon="06.585283"><ele>18.3</ele><time>2021-05-20T09:54:07Z</time><name>PT887</name></trkpt>
<trkpt lat="53.301209" lon="06.585263"><ele>18.2</ele><time>2021-05-20T09:54:09Z</time><name>PT888</name></trkpt>
<trkpt lat="53.301208" lon="06.585243"><ele>18.2</ele><time>2021-05-20T09:54:09Z</time><name>PT889</name></trkpt>
<trkpt lat="53.301204" lon="06.585221"><ele>18.2</ele><time>2021-05-20T09:54:11Z</time><name>PT890</name></trkpt>
<trkpt lat="53.301201" lon="06.585201"><ele>18.2</ele><time>2021-05-20T09:54:11Z</time><name>PT891</name></trkpt>
<trkpt lat="53.301198" lon="06.585181"><ele>18.1</ele><time>2021-05-20T09:54:13Z</time><name>PT892</name></trkpt>
<trkpt lat="53.301198" lon="06.585160"><ele>18.2</ele><time>2021-05-20T09:54:13Z</time><name>PT893</name></trkpt>
<trkpt lat="53.301197" lon="06.585139"><ele>18.2</ele><time>2021-05-20T09:54:15Z</time><name>PT894</name></trkpt>
<trkpt lat="53.301196" lon="06.585119"><ele>18.2</ele><time>2021-05-20T09:54:15Z</time><name>PT895</name></trkpt>
<trkpt lat="53.301195" lon="06.585096"><ele>18</ele><time>2021-05-20T09:54:17Z</time><name>PT896</name></trkpt>
<trkpt lat="53.301194" lon="06.585072"><ele>18</ele><time>2021-05-20T09:54:17Z</time><name>PT897</name></trkpt>
<trkpt lat="53.301191" lon="06.585051"><ele>17.9</ele><time>2021-05-20T09:54:19Z</time><name>PT898</name></trkpt>
<trkpt lat="53.301190" lon="06.585029"><ele>17.8</ele><time>2021-05-20T09:54:19Z</time><name>PT899</name></trkpt>
<trkpt lat="53.301190" lon="06.585009"><ele>18</ele><time>2021-05-20T09:54:21Z</time><name>PT900</name></trkpt>
<trkpt lat="53.301189" lon="06.584989"><ele>18.1</ele><time>2021-05-20T09:54:21Z</time><name>PT901</name></trkpt>
<trkpt lat="53.301189" lon="06.584970"><ele>18.2</ele><time>2021-05-20T09:54:23Z</time><name>PT902</name></trkpt>
<trkpt lat="53.301188" lon="06.584951"><ele>18.3</ele><time>2021-05-20T09:54:23Z</time><name>PT903</name></trkpt>
<trkpt lat="53.301187" lon="06.584932"><ele>18.2</ele><time>2021-05-20T09:54:25Z</time><name>PT904</name></trkpt>
<trkpt lat="53.301186" lon="06.584913"><ele>18.1</ele><time>2021-05-20T09:54:25Z</time><name>PT905</name></trkpt>
<trkpt lat="53.301185" lon="06.584895"><ele>18</ele><time>2021-05-20T09:54:27Z</time><name>PT906</name></trkpt>
<trkpt lat="53.301184" lon="06.584877"><ele>17.9</ele><time>2021-05-20T09:54:27Z</time><name>PT907</name></trkpt>
<trkpt lat="53.301183" lon="06.584858"><ele>18</ele><time>2021-05-20T09:54:29Z</time><name>PT908</name></trkpt>
<trkpt lat="53.301181" lon="06.584838"><ele>18.1</ele><time>2021-05-20T09:54:29Z</time><name>PT909</name></trkpt>
<trkpt lat="53.301181" lon="06.584818"><ele>18.2</ele><time>2021-05-20T09:54:31Z</time><name>PT910</name></trkpt>
<trkpt lat="53.301180" lon="06.584798"><ele>18.2</ele><time>2021-05-20T09:54:31Z</time><name>PT911</name></trkpt>
<trkpt lat="53.301178" lon="06.584776"><ele>18</ele><time>2021-05-20T09:54:33Z</time><name>PT912</name></trkpt>
<trkpt lat="53.301176" lon="06.584756"><ele>18</ele><time>2021-05-20T09:54:33Z</time><name>PT913</name></trkpt>
<trkpt lat="53.301174" lon="06.584737"><ele>17.8</ele><time>2021-05-20T09:54:35Z</time><name>PT914</name></trkpt>
<trkpt lat="53.301173" lon="06.584716"><ele>17.8</ele><time>2021-05-20T09:54:35Z</time><name>PT915</name></trkpt>
<trkpt lat="53.301171" lon="06.584696"><ele>17.9</ele><time>2021-05-20T09:54:37Z</time><name>PT916</name></trkpt>
<trkpt lat="53.301169" lon="06.584673"><ele>18</ele><time>2021-05-20T09:54:37Z</time><name>PT917</name></trkpt>
<trkpt lat="53.301166" lon="06.584652"><ele>18.2</ele><time>2021-05-20T09:54:39Z</time><name>PT918</name></trkpt>
<trkpt lat="53.301164" lon="06.584630"><ele>18.4</ele><time>2021-05-20T09:54:39Z</time><name>PT919</name></trkpt>
<trkpt lat="53.301161" lon="06.584609"><ele>18.3</ele><time>2021-05-20T09:54:41Z</time><name>PT920</name></trkpt>
<trkpt lat="53.301162" lon="06.584587"><ele>18.4</ele><time>2021-05-20T09:54:41Z</time><name>PT921</name></trkpt>
<trkpt lat="53.301161" lon="06.584567"><ele>18.3</ele><time>2021-05-20T09:54:43Z</time><name>PT922</name></trkpt>
<trkpt lat="53.301160" lon="06.584549"><ele>18.2</ele><time>2021-05-20T09:54:43Z</time><name>PT923</name></trkpt>
<trkpt lat="53.301160" lon="06.584531"><ele>18.4</ele><time>2021-05-20T09:54:45Z</time><name>PT924</name></trkpt>
<trkpt lat="53.301160" lon="06.584512"><ele>18.4</ele><time>2021-05-20T09:54:45Z</time><name>PT925</name></trkpt>
<trkpt lat="53.301162" lon="06.584492"><ele>18.5</ele><time>2021-05-20T09:54:47Z</time><name>PT926</name></trkpt>
<trkpt lat="53.301163" lon="06.584473"><ele>18.6</ele><time>2021-05-20T09:54:47Z</time><name>PT927</name></trkpt>
<trkpt lat="53.301163" lon="06.584455"><ele>18.5</ele><time>2021-05-20T09:54:48Z</time><name>PT928</name></trkpt>
<trkpt lat="53.301161" lon="06.584439"><ele>18.4</ele><time>2021-05-20T09:54:50Z</time><name>PT929</name></trkpt>
<trkpt lat="53.301159" lon="06.584423"><ele>18.3</ele><time>2021-05-20T09:54:50Z</time><name>PT930</name></trkpt>
<trkpt lat="53.301158" lon="06.584407"><ele>18.2</ele><time>2021-05-20T09:54:52Z</time><name>PT931</name></trkpt>
<trkpt lat="53.301157" lon="06.584389"><ele>18.1</ele><time>2021-05-20T09:54:52Z</time><name>PT932</name></trkpt>
<trkpt lat="53.301154" lon="06.584369"><ele>17.9</ele><time>2021-05-20T09:54:54Z</time><name>PT933</name></trkpt>
<trkpt lat="53.301155" lon="06.584350"><ele>17.9</ele><time>2021-05-20T09:54:54Z</time><name>PT934</name></trkpt>
<trkpt lat="53.301156" lon="06.584333"><ele>17.7</ele><time>2021-05-20T09:54:56Z</time><name>PT935</name></trkpt>
<trkpt lat="53.301157" lon="06.584315"><ele>17.7</ele><time>2021-05-20T09:54:56Z</time><name>PT936</name></trkpt>
<trkpt lat="53.301159" lon="06.584297"><ele>17.8</ele><time>2021-05-20T09:54:58Z</time><name>PT937</name></trkpt>
<trkpt lat="53.301159" lon="06.584281"><ele>17.7</ele><time>2021-05-20T09:54:58Z</time><name>PT938</name></trkpt>
<trkpt lat="53.301159" lon="06.584263"><ele>18</ele><time>2021-05-20T09:55:00Z</time><name>PT939</name></trkpt>
<trkpt lat="53.301157" lon="06.584242"><ele>17.9</ele><time>2021-05-20T09:55:00Z</time><name>PT940</name></trkpt>
<trkpt lat="53.301157" lon="06.584222"><ele>17.8</ele><time>2021-05-20T09:55:02Z</time><name>PT941</name></trkpt>
<trkpt lat="53.301156" lon="06.584202"><ele>17.9</ele><time>2021-05-20T09:55:02Z</time><name>PT942</name></trkpt>
<trkpt lat="53.301155" lon="06.584180"><ele>17.8</ele><time>2021-05-20T09:55:04Z</time><name>PT943</name></trkpt>
<trkpt lat="53.301154" lon="06.584159"><ele>17.7</ele><time>2021-05-20T09:55:04Z</time><name>PT944</name></trkpt>
<trkpt lat="53.301152" lon="06.584137"><ele>17.9</ele><time>2021-05-20T09:55:06Z</time><name>PT945</name></trkpt>
<trkpt lat="53.301151" lon="06.584116"><ele>17.9</ele><time>2021-05-20T09:55:06Z</time><name>PT946</name></trkpt>
<trkpt lat="53.301149" lon="06.584096"><ele>17.7</ele><time>2021-05-20T09:55:08Z</time><name>PT947</name></trkpt>
<trkpt lat="53.301148" lon="06.584076"><ele>17.8</ele><time>2021-05-20T09:55:08Z</time><name>PT948</name></trkpt>
<trkpt lat="53.301148" lon="06.584056"><ele>17.7</ele><time>2021-05-20T09:55:10Z</time><name>PT949</name></trkpt>
<trkpt lat="53.301147" lon="06.584037"><ele>17.7</ele><time>2021-05-20T09:55:10Z</time><name>PT950</name></trkpt>
<trkpt lat="53.301147" lon="06.584020"><ele>17.8</ele><time>2021-05-20T09:55:12Z</time><name>PT951</name></trkpt>
<trkpt lat="53.301145" lon="06.584000"><ele>17.9</ele><time>2021-05-20T09:55:12Z</time><name>PT952</name></trkpt>
<trkpt lat="53.301143" lon="06.583979"><ele>18.1</ele><time>2021-05-20T09:55:14Z</time><name>PT953</name></trkpt>
<trkpt lat="53.301143" lon="06.583968"><ele>18.3</ele><time>2021-05-20T09:55:14Z</time><name>PT954</name></trkpt>
<trkpt lat="53.301143" lon="06.583964"><ele>18.4</ele><time>2021-05-20T09:55:16Z</time><name>PT955</name></trkpt>
<trkpt lat="53.301142" lon="06.583961"><ele>18.6</ele><time>2021-05-20T09:55:16Z</time><name>PT956</name></trkpt>
<trkpt lat="53.301141" lon="06.583956"><ele>18.6</ele><time>2021-05-20T09:55:18Z</time><name>PT957</name></trkpt>
<trkpt lat="53.301138" lon="06.583945"><ele>18.5</ele><time>2021-05-20T09:55:18Z</time><name>PT958</name></trkpt>
<trkpt lat="53.301137" lon="06.583931"><ele>18.4</ele><time>2021-05-20T09:55:20Z</time><name>PT959</name></trkpt>
<trkpt lat="53.301135" lon="06.583918"><ele>18.3</ele><time>2021-05-20T09:55:20Z</time><name>PT960</name></trkpt>
<trkpt lat="53.301132" lon="06.583903"><ele>18.2</ele><time>2021-05-20T09:55:21Z</time><name>PT961</name></trkpt>
<trkpt lat="53.301130" lon="06.583885"><ele>18.1</ele><time>2021-05-20T09:55:23Z</time><name>PT962</name></trkpt>
<trkpt lat="53.301127" lon="06.583868"><ele>18.1</ele><time>2021-05-20T09:55:23Z</time><name>PT963</name></trkpt>
<trkpt lat="53.301125" lon="06.583849"><ele>18</ele><time>2021-05-20T09:55:25Z</time><name>PT964</name></trkpt>
<trkpt lat="53.301122" lon="06.583829"><ele>18</ele><time>2021-05-20T09:55:25Z</time><name>PT965</name></trkpt>
<trkpt lat="53.301119" lon="06.583807"><ele>18.1</ele><time>2021-05-20T09:55:27Z</time><name>PT966</name></trkpt>
<trkpt lat="53.301119" lon="06.583788"><ele>18</ele><time>2021-05-20T09:55:27Z</time><name>PT967</name></trkpt>
<trkpt lat="53.301119" lon="06.583769"><ele>18</ele><time>2021-05-20T09:55:29Z</time><name>PT968</name></trkpt>
<trkpt lat="53.301117" lon="06.583750"><ele>18</ele><time>2021-05-20T09:55:29Z</time><name>PT969</name></trkpt>
<trkpt lat="53.301117" lon="06.583731"><ele>18.2</ele><time>2021-05-20T09:55:30Z</time><name>PT970</name></trkpt>
<trkpt lat="53.301115" lon="06.583712"><ele>18.2</ele><time>2021-05-20T09:55:32Z</time><name>PT971</name></trkpt>
<trkpt lat="53.301114" lon="06.583694"><ele>18.2</ele><time>2021-05-20T09:55:32Z</time><name>PT972</name></trkpt>
<trkpt lat="53.301111" lon="06.583674"><ele>18.2</ele><time>2021-05-20T09:55:34Z</time><name>PT973</name></trkpt>
<trkpt lat="53.301109" lon="06.583654"><ele>18.2</ele><time>2021-05-20T09:55:34Z</time><name>PT974</name></trkpt>
<trkpt lat="53.301106" lon="06.583635"><ele>18.3</ele><time>2021-05-20T09:55:36Z</time><name>PT975</name></trkpt>
<trkpt lat="53.301104" lon="06.583616"><ele>18.3</ele><time>2021-05-20T09:55:36Z</time><name>PT976</name></trkpt>
<trkpt lat="53.301103" lon="06.583594"><ele>18.3</ele><time>2021-05-20T09:55:38Z</time><name>PT977</name></trkpt>
<trkpt lat="53.301100" lon="06.583573"><ele>18.3</ele><time>2021-05-20T09:55:38Z</time><name>PT978</name></trkpt>
<trkpt lat="53.301097" lon="06.583551"><ele>18.2</ele><time>2021-05-20T09:55:39Z</time><name>PT979</name></trkpt>
<trkpt lat="53.301094" lon="06.583530"><ele>18.4</ele><time>2021-05-20T09:55:41Z</time><name>PT980</name></trkpt>
<trkpt lat="53.301093" lon="06.583509"><ele>18.5</ele><time>2021-05-20T09:55:41Z</time><name>PT981</name></trkpt>
<trkpt lat="53.301092" lon="06.583488"><ele>18.4</ele><time>2021-05-20T09:55:43Z</time><name>PT982</name></trkpt>
<trkpt lat="53.301089" lon="06.583469"><ele>18.4</ele><time>2021-05-20T09:55:43Z</time><name>PT983</name></trkpt>
<trkpt lat="53.301088" lon="06.583447"><ele>18.4</ele><time>2021-05-20T09:55:45Z</time><name>PT984</name></trkpt>
<trkpt lat="53.301086" lon="06.583427"><ele>18.2</ele><time>2021-05-20T09:55:45Z</time><name>PT985</name></trkpt>
<trkpt lat="53.301085" lon="06.583408"><ele>18.3</ele><time>2021-05-20T09:55:47Z</time><name>PT986</name></trkpt>
<trkpt lat="53.301083" lon="06.583389"><ele>18.3</ele><time>2021-05-20T09:55:47Z</time><name>PT987</name></trkpt>
<trkpt lat="53.301082" lon="06.583370"><ele>18.2</ele><time>2021-05-20T09:55:48Z</time><name>PT988</name></trkpt>
<trkpt lat="53.301081" lon="06.583351"><ele>18.2</ele><time>2021-05-20T09:55:50Z</time><name>PT989</name></trkpt>
<trkpt lat="53.301079" lon="06.583331"><ele>18.1</ele><time>2021-05-20T09:55:50Z</time><name>PT990</name></trkpt>
<trkpt lat="53.301078" lon="06.583312"><ele>17.9</ele><time>2021-05-20T09:55:51Z</time><name>PT991</name></trkpt>
<trkpt lat="53.301075" lon="06.583292"><ele>17.9</ele><time>2021-05-20T09:55:53Z</time><name>PT992</name></trkpt>
<trkpt lat="53.301073" lon="06.583272"><ele>17.9</ele><time>2021-05-20T09:55:53Z</time><name>PT993</name></trkpt>
<trkpt lat="53.301071" lon="06.583251"><ele>18.1</ele><time>2021-05-20T09:55:55Z</time><name>PT994</name></trkpt>
<trkpt lat="53.301068" lon="06.583231"><ele>18.1</ele><time>2021-05-20T09:55:55Z</time><name>PT995</name></trkpt>
<trkpt lat="53.301065" lon="06.583212"><ele>18</ele><time>2021-05-20T09:55:57Z</time><name>PT996</name></trkpt>
<trkpt lat="53.301064" lon="06.583191"><ele>18.2</ele><time>2021-05-20T09:55:57Z</time><name>PT997</name></trkpt>
<trkpt lat="53.301061" lon="06.583169"><ele>18.3</ele><time>2021-05-20T09:55:59Z</time><name>PT998</name></trkpt>
<trkpt lat="53.301058" lon="06.583149"><ele>18.2</ele><time>2021-05-20T09:55:59Z</time><name>PT999</name></trkpt>
<trkpt lat="53.301058" lon="06.583128"><ele>18.3</ele><time>2021-05-20T09:56:01Z</time><name>PT1000</name></trkpt>
<trkpt lat="53.301057" lon="06.583107"><ele>18.3</ele><time>2021-05-20T09:56:01Z</time><name>PT1001</name></trkpt>
<trkpt lat="53.301056" lon="06.583090"><ele>18.1</ele><time>2021-05-20T09:56:03Z</time><name>PT1002</name></trkpt>
<trkpt lat="53.301054" lon="06.583072"><ele>18</ele><time>2021-05-20T09:56:03Z</time><name>PT1003</name></trkpt>
<trkpt lat="53.301053" lon="06.583051"><ele>17.9</ele><time>2021-05-20T09:56:05Z</time><name>PT1004</name></trkpt>
<trkpt lat="53.301051" lon="06.583031"><ele>18</ele><time>2021-05-20T09:56:05Z</time><name>PT1005</name></trkpt>
<trkpt lat="53.301049" lon="06.583010"><ele>18.1</ele><time>2021-05-20T09:56:07Z</time><name>PT1006</name></trkpt>
<trkpt lat="53.301046" lon="06.582990"><ele>18.2</ele><time>2021-05-20T09:56:07Z</time><name>PT1007</name></trkpt>
<trkpt lat="53.301045" lon="06.582971"><ele>18.2</ele><time>2021-05-20T09:56:09Z</time><name>PT1008</name></trkpt>
<trkpt lat="53.301042" lon="06.582951"><ele>18.2</ele><time>2021-05-20T09:56:09Z</time><name>PT1009</name></trkpt>
<trkpt lat="53.301039" lon="06.582932"><ele>18</ele><time>2021-05-20T09:56:11Z</time><name>PT1010</name></trkpt>
<trkpt lat="53.301038" lon="06.582915"><ele>18.1</ele><time>2021-05-20T09:56:11Z</time><name>PT1011</name></trkpt>
<trkpt lat="53.301037" lon="06.582898"><ele>17.9</ele><time>2021-05-20T09:56:13Z</time><name>PT1012</name></trkpt>
<trkpt lat="53.301037" lon="06.582880"><ele>17.9</ele><time>2021-05-20T09:56:13Z</time><name>PT1013</name></trkpt>
<trkpt lat="53.301037" lon="06.582860"><ele>17.9</ele><time>2021-05-20T09:56:15Z</time><name>PT1014</name></trkpt>
<trkpt lat="53.301036" lon="06.582840"><ele>17.9</ele><time>2021-05-20T09:56:15Z</time><name>PT1015</name></trkpt>
<trkpt lat="53.301035" lon="06.582821"><ele>18</ele><time>2021-05-20T09:56:17Z</time><name>PT1016</name></trkpt>
<trkpt lat="53.301034" lon="06.582802"><ele>17.8</ele><time>2021-05-20T09:56:17Z</time><name>PT1017</name></trkpt>
<trkpt lat="53.301032" lon="06.582783"><ele>17.8</ele><time>2021-05-20T09:56:19Z</time><name>PT1018</name></trkpt>
<trkpt lat="53.301031" lon="06.582764"><ele>17.9</ele><time>2021-05-20T09:56:19Z</time><name>PT1019</name></trkpt>
<trkpt lat="53.301030" lon="06.582745"><ele>17.8</ele><time>2021-05-20T09:56:21Z</time><name>PT1020</name></trkpt>
<trkpt lat="53.301028" lon="06.582726"><ele>17.8</ele><time>2021-05-20T09:56:21Z</time><name>PT1021</name></trkpt>
<trkpt lat="53.301024" lon="06.582706"><ele>17.8</ele><time>2021-05-20T09:56:22Z</time><name>PT1022</name></trkpt>
<trkpt lat="53.301017" lon="06.582684"><ele>17.8</ele><time>2021-05-20T09:56:24Z</time><name>PT1023</name></trkpt>
<trkpt lat="53.301013" lon="06.582661"><ele>17.7</ele><time>2021-05-20T09:56:24Z</time><name>PT1024</name></trkpt>
<trkpt lat="53.301008" lon="06.582640"><ele>17.9</ele><time>2021-05-20T09:56:26Z</time><name>PT1025</name></trkpt>
<trkpt lat="53.301004" lon="06.582618"><ele>17.9</ele><time>2021-05-20T09:56:26Z</time><name>PT1026</name></trkpt>
<trkpt lat="53.301002" lon="06.582598"><ele>17.9</ele><time>2021-05-20T09:56:28Z</time><name>PT1027</name></trkpt>
<trkpt lat="53.301000" lon="06.582578"><ele>17.9</ele><time>2021-05-20T09:56:28Z</time><name>PT1028</name></trkpt>
<trkpt lat="53.300998" lon="06.582558"><ele>17.7</ele><time>2021-05-20T09:56:30Z</time><name>PT1029</name></trkpt>
<trkpt lat="53.300997" lon="06.582539"><ele>17.7</ele><time>2021-05-20T09:56:30Z</time><name>PT1030</name></trkpt>
<trkpt lat="53.300993" lon="06.582517"><ele>17.7</ele><time>2021-05-20T09:56:32Z</time><name>PT1031</name></trkpt>
<trkpt lat="53.300991" lon="06.582496"><ele>17.8</ele><time>2021-05-20T09:56:32Z</time><name>PT1032</name></trkpt>
<trkpt lat="53.300990" lon="06.582476"><ele>17.7</ele><time>2021-05-20T09:56:34Z</time><name>PT1033</name></trkpt>
<trkpt lat="53.300988" lon="06.582455"><ele>17.9</ele><time>2021-05-20T09:56:34Z</time><name>PT1034</name></trkpt>
<trkpt lat="53.300987" lon="06.582437"><ele>17.9</ele><time>2021-05-20T09:56:36Z</time><name>PT1035</name></trkpt>
<trkpt lat="53.300987" lon="06.582422"><ele>18</ele><time>2021-05-20T09:56:36Z</time><name>PT1036</name></trkpt>
<trkpt lat="53.300983" lon="06.582408"><ele>17.8</ele><time>2021-05-20T09:56:38Z</time><name>PT1037</name></trkpt>
<trkpt lat="53.300981" lon="06.582393"><ele>17.8</ele><time>2021-05-20T09:56:38Z</time><name>PT1038</name></trkpt>
<trkpt lat="53.300978" lon="06.582376"><ele>17.7</ele><time>2021-05-20T09:56:40Z</time><name>PT1039</name></trkpt>
<trkpt lat="53.300978" lon="06.582358"><ele>17.7</ele><time>2021-05-20T09:56:40Z</time><name>PT1040</name></trkpt>
<trkpt lat="53.300977" lon="06.582343"><ele>17.8</ele><time>2021-05-20T09:56:42Z</time><name>PT1041</name></trkpt>
<trkpt lat="53.300977" lon="06.582329"><ele>17.8</ele><time>2021-05-20T09:56:42Z</time><name>PT1042</name></trkpt>
<trkpt lat="53.300975" lon="06.582313"><ele>17.9</ele><time>2021-05-20T09:56:44Z</time><name>PT1043</name></trkpt>
<trkpt lat="53.300972" lon="06.582299"><ele>18</ele><time>2021-05-20T09:56:44Z</time><name>PT1044</name></trkpt>
<trkpt lat="53.300970" lon="06.582277"><ele>18.1</ele><time>2021-05-20T09:56:46Z</time><name>PT1045</name></trkpt>
<trkpt lat="53.300967" lon="06.582250"><ele>18.2</ele><time>2021-05-20T09:56:47Z</time><name>PT1046</name></trkpt>
<trkpt lat="53.300961" lon="06.582222"><ele>18.1</ele><time>2021-05-20T09:56:47Z</time><name>PT1047</name></trkpt>
<trkpt lat="53.300955" lon="06.582193"><ele>18.3</ele><time>2021-05-20T09:56:49Z</time><name>PT1048</name></trkpt>
<trkpt lat="53.300950" lon="06.582162"><ele>18.2</ele><time>2021-05-20T09:56:49Z</time><name>PT1049</name></trkpt>
<trkpt lat="53.300947" lon="06.582136"><ele>18.1</ele><time>2021-05-20T09:56:51Z</time><name>PT1050</name></trkpt>
<trkpt lat="53.300943" lon="06.582114"><ele>18.2</ele><time>2021-05-20T09:56:51Z</time><name>PT1051</name></trkpt>
<trkpt lat="53.300941" lon="06.582100"><ele>18</ele><time>2021-05-20T09:56:53Z</time><name>PT1052</name></trkpt>
<trkpt lat="53.300942" lon="06.582095"><ele>17.8</ele><time>2021-05-20T09:56:53Z</time><name>PT1053</name></trkpt>
<trkpt lat="53.300942" lon="06.582095"><ele>17.7</ele><time>2021-05-20T09:56:55Z</time><name>PT1054</name></trkpt>
<trkpt lat="53.300941" lon="06.582094"><ele>17.7</ele><time>2021-05-20T09:56:55Z</time><name>PT1055</name></trkpt>
<trkpt lat="53.300941" lon="06.582097"><ele>18.1</ele><time>2021-05-20T09:57:01Z</time><name>PT1056</name></trkpt>
<trkpt lat="53.300943" lon="06.582097"><ele>18.1</ele><time>2021-05-20T09:57:01Z</time><name>PT1057</name></trkpt>
<trkpt lat="53.300944" lon="06.582102"><ele>18.1</ele><time>2021-05-20T09:57:03Z</time><name>PT1058</name></trkpt>
<trkpt lat="53.300940" lon="06.582091"><ele>18.2</ele><time>2021-05-20T09:57:35Z</time><name>PT1059</name></trkpt>
<trkpt lat="53.300940" lon="06.582087"><ele>18.2</ele><time>2021-05-20T09:57:37Z</time><name>PT1060</name></trkpt>
<trkpt lat="53.300939" lon="06.582067"><ele>18.2</ele><time>2021-05-20T09:57:37Z</time><name>PT1061</name></trkpt>
<trkpt lat="53.300940" lon="06.582047"><ele>17.8</ele><time>2021-05-20T09:57:39Z</time><name>PT1062</name></trkpt>
<trkpt lat="53.300937" lon="06.582023"><ele>17.7</ele><time>2021-05-20T09:57:39Z</time><name>PT1063</name></trkpt>
<trkpt lat="53.300933" lon="06.582006"><ele>17.7</ele><time>2021-05-20T09:57:41Z</time><name>PT1064</name></trkpt>
<trkpt lat="53.300930" lon="06.581995"><ele>17.7</ele><time>2021-05-20T09:57:41Z</time><name>PT1065</name></trkpt>
<trkpt lat="53.300928" lon="06.581987"><ele>17.7</ele><time>2021-05-20T09:57:43Z</time><name>PT1066</name></trkpt>
<trkpt lat="53.300927" lon="06.581971"><ele>17.8</ele><time>2021-05-20T09:57:43Z</time><name>PT1067</name></trkpt>
<trkpt lat="53.300929" lon="06.581950"><ele>18.2</ele><time>2021-05-20T09:57:45Z</time><name>PT1068</name></trkpt>
<trkpt lat="53.300927" lon="06.581931"><ele>18.2</ele><time>2021-05-20T09:57:45Z</time><name>PT1069</name></trkpt>
<trkpt lat="53.300924" lon="06.581916"><ele>18.2</ele><time>2021-05-20T09:57:47Z</time><name>PT1070</name></trkpt>
<trkpt lat="53.300921" lon="06.581901"><ele>18.3</ele><time>2021-05-20T09:57:47Z</time><name>PT1071</name></trkpt>
<trkpt lat="53.300918" lon="06.581888"><ele>18.2</ele><time>2021-05-20T09:57:48Z</time><name>PT1072</name></trkpt>
<trkpt lat="53.300913" lon="06.581874"><ele>18.1</ele><time>2021-05-20T09:57:50Z</time><name>PT1073</name></trkpt>
<trkpt lat="53.300911" lon="06.581855"><ele>18</ele><time>2021-05-20T09:57:50Z</time><name>PT1074</name></trkpt>
<trkpt lat="53.300909" lon="06.581833"><ele>18</ele><time>2021-05-20T09:57:52Z</time><name>PT1075</name></trkpt>
<trkpt lat="53.300906" lon="06.581807"><ele>17.8</ele><time>2021-05-20T09:57:52Z</time><name>PT1076</name></trkpt>
<trkpt lat="53.300905" lon="06.581784"><ele>18.1</ele><time>2021-05-20T09:57:53Z</time><name>PT1077</name></trkpt>
<trkpt lat="53.300902" lon="06.581764"><ele>18</ele><time>2021-05-20T09:57:55Z</time><name>PT1078</name></trkpt>
<trkpt lat="53.300899" lon="06.581751"><ele>18</ele><time>2021-05-20T09:57:55Z</time><name>PT1079</name></trkpt>
<trkpt lat="53.300896" lon="06.581741"><ele>18</ele><time>2021-05-20T09:57:56Z</time><name>PT1080</name></trkpt>
<trkpt lat="53.300893" lon="06.581733"><ele>17.8</ele><time>2021-05-20T09:57:58Z</time><name>PT1081</name></trkpt>
<trkpt lat="53.300891" lon="06.581724"><ele>17.8</ele><time>2021-05-20T09:57:58Z</time><name>PT1082</name></trkpt>
<trkpt lat="53.300892" lon="06.581711"><ele>17.7</ele><time>2021-05-20T09:58:00Z</time><name>PT1083</name></trkpt>
<trkpt lat="53.300892" lon="06.581692"><ele>17.7</ele><time>2021-05-20T09:58:00Z</time><name>PT1084</name></trkpt>
<trkpt lat="53.300891" lon="06.581669"><ele>17.8</ele><time>2021-05-20T09:58:02Z</time><name>PT1085</name></trkpt>
<trkpt lat="53.300887" lon="06.581637"><ele>18</ele><time>2021-05-20T09:58:02Z</time><name>PT1086</name></trkpt>
<trkpt lat="53.300883" lon="06.581605"><ele>17.9</ele><time>2021-05-20T09:58:03Z</time><name>PT1087</name></trkpt>
<trkpt lat="53.300879" lon="06.581580"><ele>18</ele><time>2021-05-20T09:58:05Z</time><name>PT1088</name></trkpt>
<trkpt lat="53.300881" lon="06.581556"><ele>18</ele><time>2021-05-20T09:58:05Z</time><name>PT1089</name></trkpt>
<trkpt lat="53.300882" lon="06.581535"><ele>18.1</ele><time>2021-05-20T09:58:07Z</time><name>PT1090</name></trkpt>
<trkpt lat="53.300880" lon="06.581519"><ele>18.2</ele><time>2021-05-20T09:58:07Z</time><name>PT1091</name></trkpt>
<trkpt lat="53.300879" lon="06.581506"><ele>18.3</ele><time>2021-05-20T09:58:09Z</time><name>PT1092</name></trkpt>
<trkpt lat="53.300879" lon="06.581496"><ele>18.3</ele><time>2021-05-20T09:58:09Z</time><name>PT1093</name></trkpt>
<trkpt lat="53.300879" lon="06.581484"><ele>18.3</ele><time>2021-05-20T09:58:11Z</time><name>PT1094</name></trkpt>
<trkpt lat="53.300879" lon="06.581465"><ele>18.3</ele><time>2021-05-20T09:58:11Z</time><name>PT1095</name></trkpt>
<trkpt lat="53.300877" lon="06.581440"><ele>18.3</ele><time>2021-05-20T09:58:13Z</time><name>PT1096</name></trkpt>
<trkpt lat="53.300877" lon="06.581412"><ele>18.4</ele><time>2021-05-20T09:58:13Z</time><name>PT1097</name></trkpt>
<trkpt lat="53.300876" lon="06.581380"><ele>18.2</ele><time>2021-05-20T09:58:15Z</time><name>PT1098</name></trkpt>
<trkpt lat="53.300876" lon="06.581350"><ele>18.4</ele><time>2021-05-20T09:58:15Z</time><name>PT1099</name></trkpt>
<trkpt lat="53.300876" lon="06.581323"><ele>18.3</ele><time>2021-05-20T09:58:17Z</time><name>PT1100</name></trkpt>
<trkpt lat="53.300877" lon="06.581301"><ele>18.2</ele><time>2021-05-20T09:58:17Z</time><name>PT1101</name></trkpt>
<trkpt lat="53.300873" lon="06.581284"><ele>18.1</ele><time>2021-05-20T09:58:19Z</time><name>PT1102</name></trkpt>
<trkpt lat="53.300873" lon="06.581266"><ele>18</ele><time>2021-05-20T09:58:19Z</time><name>PT1103</name></trkpt>
<trkpt lat="53.300871" lon="06.581250"><ele>18.1</ele><time>2021-05-20T09:58:21Z</time><name>PT1104</name></trkpt>
<trkpt lat="53.300871" lon="06.581236"><ele>18.1</ele><time>2021-05-20T09:58:21Z</time><name>PT1105</name></trkpt>
<trkpt lat="53.300870" lon="06.581225"><ele>18.1</ele><time>2021-05-20T09:58:23Z</time><name>PT1106</name></trkpt>
<trkpt lat="53.300871" lon="06.581215"><ele>18.1</ele><time>2021-05-20T09:58:23Z</time><name>PT1107</name></trkpt>
<trkpt lat="53.300872" lon="06.581203"><ele>18</ele><time>2021-05-20T09:58:25Z</time><name>PT1108</name></trkpt>
<trkpt lat="53.300872" lon="06.581189"><ele>18</ele><time>2021-05-20T09:58:25Z</time><name>PT1109</name></trkpt>
<trkpt lat="53.300871" lon="06.581171"><ele>17.7</ele><time>2021-05-20T09:58:26Z</time><name>PT1110</name></trkpt>
<trkpt lat="53.300871" lon="06.581148"><ele>17.9</ele><time>2021-05-20T09:58:28Z</time><name>PT1111</name></trkpt>
<trkpt lat="53.300871" lon="06.581120"><ele>17.7</ele><time>2021-05-20T09:58:28Z</time><name>PT1112</name></trkpt>
<trkpt lat="53.300869" lon="06.581093"><ele>17.8</ele><time>2021-05-20T09:58:30Z</time><name>PT1113</name></trkpt>
<trkpt lat="53.300869" lon="06.581064"><ele>17.9</ele><time>2021-05-20T09:58:30Z</time><name>PT1114</name></trkpt>
<trkpt lat="53.300870" lon="06.581038"><ele>18.1</ele><time>2021-05-20T09:58:31Z</time><name>PT1115</name></trkpt>
<trkpt lat="53.300871" lon="06.581014"><ele>18.2</ele><time>2021-05-20T09:58:33Z</time><name>PT1116</name></trkpt>
<trkpt lat="53.300871" lon="06.580992"><ele>18.2</ele><time>2021-05-20T09:58:33Z</time><name>PT1117</name></trkpt>
<trkpt lat="53.300870" lon="06.580972"><ele>18.1</ele><time>2021-05-20T09:58:35Z</time><name>PT1118</name></trkpt>
<trkpt lat="53.300867" lon="06.580956"><ele>18.2</ele><time>2021-05-20T09:58:35Z</time><name>PT1119</name></trkpt>
<trkpt lat="53.300865" lon="06.580944"><ele>18.2</ele><time>2021-05-20T09:58:37Z</time><name>PT1120</name></trkpt>
<trkpt lat="53.300864" lon="06.580932"><ele>18.2</ele><time>2021-05-20T09:58:37Z</time><name>PT1121</name></trkpt>
<trkpt lat="53.300863" lon="06.580916"><ele>18.4</ele><time>2021-05-20T09:58:39Z</time><name>PT1122</name></trkpt>
<trkpt lat="53.300862" lon="06.580899"><ele>18.4</ele><time>2021-05-20T09:58:39Z</time><name>PT1123</name></trkpt>
<trkpt lat="53.300859" lon="06.580878"><ele>18.5</ele><time>2021-05-20T09:58:41Z</time><name>PT1124</name></trkpt>
<trkpt lat="53.300858" lon="06.580854"><ele>18.6</ele><time>2021-05-20T09:58:41Z</time><name>PT1125</name></trkpt>
<trkpt lat="53.300858" lon="06.580829"><ele>18.5</ele><time>2021-05-20T09:58:43Z</time><name>PT1126</name></trkpt>
<trkpt lat="53.300857" lon="06.580807"><ele>18.4</ele><time>2021-05-20T09:58:43Z</time><name>PT1127</name></trkpt>
<trkpt lat="53.300859" lon="06.580785"><ele>18.4</ele><time>2021-05-20T09:58:45Z</time><name>PT1128</name></trkpt>
<trkpt lat="53.300856" lon="06.580763"><ele>18.3</ele><time>2021-05-20T09:58:45Z</time><name>PT1129</name></trkpt>
<trkpt lat="53.300853" lon="06.580746"><ele>18.3</ele><time>2021-05-20T09:58:47Z</time><name>PT1130</name></trkpt>
<trkpt lat="53.300850" lon="06.580730"><ele>18.3</ele><time>2021-05-20T09:58:47Z</time><name>PT1131</name></trkpt>
<trkpt lat="53.300847" lon="06.580718"><ele>18.2</ele><time>2021-05-20T09:58:49Z</time><name>PT1132</name></trkpt>
<trkpt lat="53.300845" lon="06.580706"><ele>18</ele><time>2021-05-20T09:58:49Z</time><name>PT1133</name></trkpt>
<trkpt lat="53.300844" lon="06.580692"><ele>18</ele><time>2021-05-20T09:58:51Z</time><name>PT1134</name></trkpt>
<trkpt lat="53.300843" lon="06.580679"><ele>18</ele><time>2021-05-20T09:58:51Z</time><name>PT1135</name></trkpt>
<trkpt lat="53.300842" lon="06.580665"><ele>18.2</ele><time>2021-05-20T09:58:53Z</time><name>PT1136</name></trkpt>
<trkpt lat="53.300842" lon="06.580647"><ele>18.3</ele><time>2021-05-20T09:58:53Z</time><name>PT1137</name></trkpt>
<trkpt lat="53.300840" lon="06.580623"><ele>18.6</ele><time>2021-05-20T09:58:55Z</time><name>PT1138</name></trkpt>
<trkpt lat="53.300838" lon="06.580595"><ele>18.7</ele><time>2021-05-20T09:58:55Z</time><name>PT1139</name></trkpt>
<trkpt lat="53.300837" lon="06.580566"><ele>18.8</ele><time>2021-05-20T09:58:57Z</time><name>PT1140</name></trkpt>
<trkpt lat="53.300838" lon="06.580540"><ele>18.8</ele><time>2021-05-20T09:58:57Z</time><name>PT1141</name></trkpt>
<trkpt lat="53.300837" lon="06.580514"><ele>18.9</ele><time>2021-05-20T09:58:59Z</time><name>PT1142</name></trkpt>
<trkpt lat="53.300837" lon="06.580494"><ele>19.1</ele><time>2021-05-20T09:58:59Z</time><name>PT1143</name></trkpt>
<trkpt lat="53.300837" lon="06.580478"><ele>18.9</ele><time>2021-05-20T09:59:00Z</time><name>PT1144</name></trkpt>
<trkpt lat="53.300836" lon="06.580465"><ele>18.8</ele><time>2021-05-20T09:59:02Z</time><name>PT1145</name></trkpt>
<trkpt lat="53.300836" lon="06.580453"><ele>18.7</ele><time>2021-05-20T09:59:02Z</time><name>PT1146</name></trkpt>
<trkpt lat="53.300837" lon="06.580438"><ele>18.4</ele><time>2021-05-20T09:59:04Z</time><name>PT1147</name></trkpt>
<trkpt lat="53.300837" lon="06.580419"><ele>18.4</ele><time>2021-05-20T09:59:04Z</time><name>PT1148</name></trkpt>
<trkpt lat="53.300837" lon="06.580401"><ele>18.5</ele><time>2021-05-20T09:59:06Z</time><name>PT1149</name></trkpt>
<trkpt lat="53.300837" lon="06.580378"><ele>18.5</ele><time>2021-05-20T09:59:06Z</time><name>PT1150</name></trkpt>
<trkpt lat="53.300837" lon="06.580350"><ele>18.6</ele><time>2021-05-20T09:59:08Z</time><name>PT1151</name></trkpt>
<trkpt lat="53.300836" lon="06.580319"><ele>18.6</ele><time>2021-05-20T09:59:08Z</time><name>PT1152</name></trkpt>
<trkpt lat="53.300834" lon="06.580288"><ele>18.5</ele><time>2021-05-20T09:59:10Z</time><name>PT1153</name></trkpt>
<trkpt lat="53.300832" lon="06.580257"><ele>18.4</ele><time>2021-05-20T09:59:10Z</time><name>PT1154</name></trkpt>
<trkpt lat="53.300831" lon="06.580229"><ele>18.4</ele><time>2021-05-20T09:59:12Z</time><name>PT1155</name></trkpt>
<trkpt lat="53.300830" lon="06.580201"><ele>18.3</ele><time>2021-05-20T09:59:12Z</time><name>PT1156</name></trkpt>
<trkpt lat="53.300829" lon="06.580176"><ele>18.5</ele><time>2021-05-20T09:59:14Z</time><name>PT1157</name></trkpt>
<trkpt lat="53.300830" lon="06.580154"><ele>18.5</ele><time>2021-05-20T09:59:14Z</time><name>PT1158</name></trkpt>
<trkpt lat="53.300830" lon="06.580136"><ele>18.5</ele><time>2021-05-20T09:59:15Z</time><name>PT1159</name></trkpt>
<trkpt lat="53.300829" lon="06.580120"><ele>18.6</ele><time>2021-05-20T09:59:17Z</time><name>PT1160</name></trkpt>
<trkpt lat="53.300827" lon="06.580105"><ele>18.6</ele><time>2021-05-20T09:59:17Z</time><name>PT1161</name></trkpt>
<trkpt lat="53.300826" lon="06.580092"><ele>18.5</ele><time>2021-05-20T09:59:19Z</time><name>PT1162</name></trkpt>
<trkpt lat="53.300826" lon="06.580080"><ele>18.4</ele><time>2021-05-20T09:59:19Z</time><name>PT1163</name></trkpt>
<trkpt lat="53.300822" lon="06.580067"><ele>18.4</ele><time>2021-05-20T09:59:21Z</time><name>PT1164</name></trkpt>
<trkpt lat="53.300821" lon="06.580050"><ele>18.5</ele><time>2021-05-20T09:59:21Z</time><name>PT1165</name></trkpt>
<trkpt lat="53.300821" lon="06.580027"><ele>18.5</ele><time>2021-05-20T09:59:23Z</time><name>PT1166</name></trkpt>
<trkpt lat="53.300817" lon="06.580001"><ele>18.6</ele><time>2021-05-20T09:59:23Z</time><name>PT1167</name></trkpt>
<trkpt lat="53.300815" lon="06.579976"><ele>18.7</ele><time>2021-05-20T09:59:25Z</time><name>PT1168</name></trkpt>
<trkpt lat="53.300813" lon="06.579951"><ele>18.7</ele><time>2021-05-20T09:59:25Z</time><name>PT1169</name></trkpt>
<trkpt lat="53.300808" lon="06.579928"><ele>18.6</ele><time>2021-05-20T09:59:27Z</time><name>PT1170</name></trkpt>
<trkpt lat="53.300806" lon="06.579907"><ele>18.6</ele><time>2021-05-20T09:59:27Z</time><name>PT1171</name></trkpt>
<trkpt lat="53.300804" lon="06.579889"><ele>18.7</ele><time>2021-05-20T09:59:29Z</time><name>PT1172</name></trkpt>
<trkpt lat="53.300801" lon="06.579872"><ele>18.7</ele><time>2021-05-20T09:59:29Z</time><name>PT1173</name></trkpt>
<trkpt lat="53.300798" lon="06.579859"><ele>18.7</ele><time>2021-05-20T09:59:31Z</time><name>PT1174</name></trkpt>
<trkpt lat="53.300796" lon="06.579839"><ele>18.8</ele><time>2021-05-20T09:59:31Z</time><name>PT1175</name></trkpt>
<trkpt lat="53.300794" lon="06.579821"><ele>18.7</ele><time>2021-05-20T09:59:33Z</time><name>PT1176</name></trkpt>
<trkpt lat="53.300793" lon="06.579805"><ele>18.6</ele><time>2021-05-20T09:59:33Z</time><name>PT1177</name></trkpt>
<trkpt lat="53.300792" lon="06.579789"><ele>18.6</ele><time>2021-05-20T09:59:35Z</time><name>PT1178</name></trkpt>
<trkpt lat="53.300792" lon="06.579770"><ele>18.6</ele><time>2021-05-20T09:59:36Z</time><name>PT1179</name></trkpt>
<trkpt lat="53.300790" lon="06.579751"><ele>18.5</ele><time>2021-05-20T09:59:36Z</time><name>PT1180</name></trkpt>
<trkpt lat="53.300788" lon="06.579733"><ele>18.5</ele><time>2021-05-20T09:59:38Z</time><name>PT1181</name></trkpt>
<trkpt lat="53.300788" lon="06.579718"><ele>18.5</ele><time>2021-05-20T09:59:38Z</time><name>PT1182</name></trkpt>
<trkpt lat="53.300788" lon="06.579702"><ele>18.5</ele><time>2021-05-20T09:59:40Z</time><name>PT1183</name></trkpt>
<trkpt lat="53.300788" lon="06.579686"><ele>18.3</ele><time>2021-05-20T09:59:41Z</time><name>PT1184</name></trkpt>
<trkpt lat="53.300788" lon="06.579668"><ele>18.2</ele><time>2021-05-20T09:59:41Z</time><name>PT1185</name></trkpt>
<trkpt lat="53.300789" lon="06.579650"><ele>18</ele><time>2021-05-20T09:59:43Z</time><name>PT1186</name></trkpt>
<trkpt lat="53.300790" lon="06.579630"><ele>18.1</ele><time>2021-05-20T09:59:43Z</time><name>PT1187</name></trkpt>
<trkpt lat="53.300790" lon="06.579609"><ele>18.1</ele><time>2021-05-20T09:59:45Z</time><name>PT1188</name></trkpt>
<trkpt lat="53.300789" lon="06.579591"><ele>18.2</ele><time>2021-05-20T09:59:45Z</time><name>PT1189</name></trkpt>
<trkpt lat="53.300787" lon="06.579572"><ele>18.3</ele><time>2021-05-20T09:59:47Z</time><name>PT1190</name></trkpt>
<trkpt lat="53.300786" lon="06.579551"><ele>18.2</ele><time>2021-05-20T09:59:47Z</time><name>PT1191</name></trkpt>
<trkpt lat="53.300784" lon="06.579532"><ele>18.2</ele><time>2021-05-20T09:59:49Z</time><name>PT1192</name></trkpt>
<trkpt lat="53.300783" lon="06.579512"><ele>18.2</ele><time>2021-05-20T09:59:49Z</time><name>PT1193</name></trkpt>
<trkpt lat="53.300782" lon="06.579492"><ele>18.4</ele><time>2021-05-20T09:59:51Z</time><name>PT1194</name></trkpt>
<trkpt lat="53.300781" lon="06.579472"><ele>18.6</ele><time>2021-05-20T09:59:51Z</time><name>PT1195</name></trkpt>
<trkpt lat="53.300780" lon="06.579452"><ele>18.7</ele><time>2021-05-20T09:59:53Z</time><name>PT1196</name></trkpt>
<trkpt lat="53.300779" lon="06.579432"><ele>18.7</ele><time>2021-05-20T09:59:53Z</time><name>PT1197</name></trkpt>
<trkpt lat="53.300778" lon="06.579413"><ele>18.7</ele><time>2021-05-20T09:59:55Z</time><name>PT1198</name></trkpt>
<trkpt lat="53.300776" lon="06.579393"><ele>18.7</ele><time>2021-05-20T09:59:55Z</time><name>PT1199</name></trkpt>
<trkpt lat="53.300774" lon="06.579376"><ele>18.6</ele><time>2021-05-20T09:59:57Z</time><name>PT1200</name></trkpt>
<trkpt lat="53.300773" lon="06.579361"><ele>18.7</ele><time>2021-05-20T09:59:57Z</time><name>PT1201</name></trkpt>
<trkpt lat="53.300772" lon="06.579343"><ele>18.4</ele><time>2021-05-20T09:59:59Z</time><name>PT1202</name></trkpt>
<trkpt lat="53.300771" lon="06.579324"><ele>18.3</ele><time>2021-05-20T09:59:59Z</time><name>PT1203</name></trkpt>
<trkpt lat="53.300769" lon="06.579305"><ele>18.2</ele><time>2021-05-20T10:00:01Z</time><name>PT1204</name></trkpt>
<trkpt lat="53.300769" lon="06.579286"><ele>18.2</ele><time>2021-05-20T10:00:01Z</time><name>PT1205</name></trkpt>
<trkpt lat="53.300768" lon="06.579269"><ele>18.2</ele><time>2021-05-20T10:00:03Z</time><name>PT1206</name></trkpt>
<trkpt lat="53.300766" lon="06.579251"><ele>18.2</ele><time>2021-05-20T10:00:03Z</time><name>PT1207</name></trkpt>
<trkpt lat="53.300764" lon="06.579234"><ele>18.2</ele><time>2021-05-20T10:00:05Z</time><name>PT1208</name></trkpt>
<trkpt lat="53.300762" lon="06.579217"><ele>18.3</ele><time>2021-05-20T10:00:05Z</time><name>PT1209</name></trkpt>
<trkpt lat="53.300762" lon="06.579200"><ele>18.3</ele><time>2021-05-20T10:00:07Z</time><name>PT1210</name></trkpt>
<trkpt lat="53.300761" lon="06.579183"><ele>18.2</ele><time>2021-05-20T10:00:07Z</time><name>PT1211</name></trkpt>
<trkpt lat="53.300761" lon="06.579167"><ele>18.3</ele><time>2021-05-20T10:00:09Z</time><name>PT1212</name></trkpt>
<trkpt lat="53.300761" lon="06.579150"><ele>18.2</ele><time>2021-05-20T10:00:09Z</time><name>PT1213</name></trkpt>
<trkpt lat="53.300761" lon="06.579134"><ele>18</ele><time>2021-05-20T10:00:11Z</time><name>PT1214</name></trkpt>
<trkpt lat="53.300760" lon="06.579116"><ele>18.1</ele><time>2021-05-20T10:00:11Z</time><name>PT1215</name></trkpt>
<trkpt lat="53.300759" lon="06.579099"><ele>18.2</ele><time>2021-05-20T10:00:13Z</time><name>PT1216</name></trkpt>
<trkpt lat="53.300759" lon="06.579081"><ele>18.2</ele><time>2021-05-20T10:00:13Z</time><name>PT1217</name></trkpt>
<trkpt lat="53.300758" lon="06.579063"><ele>18.2</ele><time>2021-05-20T10:00:15Z</time><name>PT1218</name></trkpt>
<trkpt lat="53.300756" lon="06.579045"><ele>18.2</ele><time>2021-05-20T10:00:15Z</time><name>PT1219</name></trkpt>
<trkpt lat="53.300753" lon="06.579028"><ele>18.3</ele><time>2021-05-20T10:00:17Z</time><name>PT1220</name></trkpt>
<trkpt lat="53.300752" lon="06.579012"><ele>18.2</ele><time>2021-05-20T10:00:17Z</time><name>PT1221</name></trkpt>
<trkpt lat="53.300750" lon="06.578995"><ele>18.2</ele><time>2021-05-20T10:00:19Z</time><name>PT1222</name></trkpt>
<trkpt lat="53.300748" lon="06.578978"><ele>18.3</ele><time>2021-05-20T10:00:19Z</time><name>PT1223</name></trkpt>
<trkpt lat="53.300745" lon="06.578960"><ele>18.1</ele><time>2021-05-20T10:00:21Z</time><name>PT1224</name></trkpt>
<trkpt lat="53.300742" lon="06.578942"><ele>18.2</ele><time>2021-05-20T10:00:21Z</time><name>PT1225</name></trkpt>
<trkpt lat="53.300739" lon="06.578923"><ele>18.2</ele><time>2021-05-20T10:00:23Z</time><name>PT1226</name></trkpt>
<trkpt lat="53.300738" lon="06.578904"><ele>18.2</ele><time>2021-05-20T10:00:23Z</time><name>PT1227</name></trkpt>
<trkpt lat="53.300735" lon="06.578885"><ele>18.3</ele><time>2021-05-20T10:00:25Z</time><name>PT1228</name></trkpt>
<trkpt lat="53.300736" lon="06.578865"><ele>18.4</ele><time>2021-05-20T10:00:25Z</time><name>PT1229</name></trkpt>
<trkpt lat="53.300736" lon="06.578848"><ele>18.7</ele><time>2021-05-20T10:00:27Z</time><name>PT1230</name></trkpt>
<trkpt lat="53.300734" lon="06.578830"><ele>18.5</ele><time>2021-05-20T10:00:27Z</time><name>PT1231</name></trkpt>
<trkpt lat="53.300732" lon="06.578813"><ele>18.5</ele><time>2021-05-20T10:00:29Z</time><name>PT1232</name></trkpt>
<trkpt lat="53.300731" lon="06.578795"><ele>18.5</ele><time>2021-05-20T10:00:29Z</time><name>PT1233</name></trkpt>
<trkpt lat="53.300729" lon="06.578777"><ele>18.4</ele><time>2021-05-20T10:00:31Z</time><name>PT1234</name></trkpt>
<trkpt lat="53.300728" lon="06.578758"><ele>18.3</ele><time>2021-05-20T10:00:31Z</time><name>PT1235</name></trkpt>
<trkpt lat="53.300728" lon="06.578738"><ele>18.3</ele><time>2021-05-20T10:00:33Z</time><name>PT1236</name></trkpt>
<trkpt lat="53.300728" lon="06.578719"><ele>18.3</ele><time>2021-05-20T10:00:33Z</time><name>PT1237</name></trkpt>
<trkpt lat="53.300728" lon="06.578698"><ele>18.3</ele><time>2021-05-20T10:00:35Z</time><name>PT1238</name></trkpt>
<trkpt lat="53.300728" lon="06.578685"><ele>18.2</ele><time>2021-05-20T10:00:35Z</time><name>PT1239</name></trkpt>
<trkpt lat="53.300729" lon="06.578682"><ele>18.2</ele><time>2021-05-20T10:00:37Z</time><name>PT1240</name></trkpt>
<trkpt lat="53.300730" lon="06.578683"><ele>18.2</ele><time>2021-05-20T10:00:37Z</time><name>PT1241</name></trkpt>
<trkpt lat="53.300728" lon="06.578673"><ele>18.2</ele><time>2021-05-20T10:00:39Z</time><name>PT1242</name></trkpt>
<trkpt lat="53.300726" lon="06.578656"><ele>18.2</ele><time>2021-05-20T10:00:39Z</time><name>PT1243</name></trkpt>
<trkpt lat="53.300723" lon="06.578638"><ele>18.3</ele><time>2021-05-20T10:00:41Z</time><name>PT1244</name></trkpt>
<trkpt lat="53.300722" lon="06.578620"><ele>18.3</ele><time>2021-05-20T10:00:41Z</time><name>PT1245</name></trkpt>
<trkpt lat="53.300720" lon="06.578604"><ele>18.3</ele><time>2021-05-20T10:00:43Z</time><name>PT1246</name></trkpt>
<trkpt lat="53.300720" lon="06.578589"><ele>18.3</ele><time>2021-05-20T10:00:43Z</time><name>PT1247</name></trkpt>
<trkpt lat="53.300721" lon="06.578572"><ele>18.5</ele><time>2021-05-20T10:00:45Z</time><name>PT1248</name></trkpt>
<trkpt lat="53.300720" lon="06.578552"><ele>18.4</ele><time>2021-05-20T10:00:45Z</time><name>PT1249</name></trkpt>
<trkpt lat="53.300719" lon="06.578530"><ele>18.4</ele><time>2021-05-20T10:00:47Z</time><name>PT1250</name></trkpt>
<trkpt lat="53.300718" lon="06.578508"><ele>18.4</ele><time>2021-05-20T10:00:47Z</time><name>PT1251</name></trkpt>
<trkpt lat="53.300716" lon="06.578484"><ele>18.4</ele><time>2021-05-20T10:00:49Z</time><name>PT1252</name></trkpt>
<trkpt lat="53.300715" lon="06.578462"><ele>18.3</ele><time>2021-05-20T10:00:49Z</time><name>PT1253</name></trkpt>
<trkpt lat="53.300713" lon="06.578441"><ele>18.4</ele><time>2021-05-20T10:00:51Z</time><name>PT1254</name></trkpt>
<trkpt lat="53.300710" lon="06.578421"><ele>18.4</ele><time>2021-05-20T10:00:51Z</time><name>PT1255</name></trkpt>
<trkpt lat="53.300707" lon="06.578401"><ele>18.5</ele><time>2021-05-20T10:00:53Z</time><name>PT1256</name></trkpt>
<trkpt lat="53.300705" lon="06.578382"><ele>18.5</ele><time>2021-05-20T10:00:53Z</time><name>PT1257</name></trkpt>
<trkpt lat="53.300703" lon="06.578362"><ele>18.7</ele><time>2021-05-20T10:00:55Z</time><name>PT1258</name></trkpt>
<trkpt lat="53.300701" lon="06.578343"><ele>18.7</ele><time>2021-05-20T10:00:55Z</time><name>PT1259</name></trkpt>
<trkpt lat="53.300699" lon="06.578324"><ele>18.5</ele><time>2021-05-20T10:00:57Z</time><name>PT1260</name></trkpt>
<trkpt lat="53.300697" lon="06.578303"><ele>18.5</ele><time>2021-05-20T10:00:57Z</time><name>PT1261</name></trkpt>
<trkpt lat="53.300696" lon="06.578283"><ele>18.4</ele><time>2021-05-20T10:00:59Z</time><name>PT1262</name></trkpt>
<trkpt lat="53.300695" lon="06.578262"><ele>18.4</ele><time>2021-05-20T10:00:59Z</time><name>PT1263</name></trkpt>
<trkpt lat="53.300695" lon="06.578241"><ele>18.6</ele><time>2021-05-20T10:01:01Z</time><name>PT1264</name></trkpt>
<trkpt lat="53.300693" lon="06.578219"><ele>18.5</ele><time>2021-05-20T10:01:01Z</time><name>PT1265</name></trkpt>
<trkpt lat="53.300691" lon="06.578197"><ele>18.7</ele><time>2021-05-20T10:01:03Z</time><name>PT1266</name></trkpt>
<trkpt lat="53.300688" lon="06.578173"><ele>18.7</ele><time>2021-05-20T10:01:03Z</time><name>PT1267</name></trkpt>
<trkpt lat="53.300686" lon="06.578151"><ele>18.6</ele><time>2021-05-20T10:01:05Z</time><name>PT1268</name></trkpt>
<trkpt lat="53.300684" lon="06.578130"><ele>18.7</ele><time>2021-05-20T10:01:05Z</time><name>PT1269</name></trkpt>
<trkpt lat="53.300682" lon="06.578109"><ele>18.7</ele><time>2021-05-20T10:01:07Z</time><name>PT1270</name></trkpt>
<trkpt lat="53.300682" lon="06.578086"><ele>18.7</ele><time>2021-05-20T10:01:07Z</time><name>PT1271</name></trkpt>
<trkpt lat="53.300682" lon="06.578065"><ele>18.7</ele><time>2021-05-20T10:01:09Z</time><name>PT1272</name></trkpt>
<trkpt lat="53.300681" lon="06.578043"><ele>18.7</ele><time>2021-05-20T10:01:09Z</time><name>PT1273</name></trkpt>
<trkpt lat="53.300680" lon="06.578023"><ele>18.7</ele><time>2021-05-20T10:01:11Z</time><name>PT1274</name></trkpt>
<trkpt lat="53.300680" lon="06.578001"><ele>18.8</ele><time>2021-05-20T10:01:11Z</time><name>PT1275</name></trkpt>
<trkpt lat="53.300680" lon="06.577989"><ele>18.8</ele><time>2021-05-20T10:01:13Z</time><name>PT1276</name></trkpt>
<trkpt lat="53.300679" lon="06.577986"><ele>18.8</ele><time>2021-05-20T10:01:13Z</time><name>PT1277</name></trkpt>
<trkpt lat="53.300679" lon="06.577985"><ele>18.8</ele><time>2021-05-20T10:01:15Z</time><name>PT1278</name></trkpt>
<trkpt lat="53.300676" lon="06.577979"><ele>18.7</ele><time>2021-05-20T10:01:15Z</time><name>PT1279</name></trkpt>
<trkpt lat="53.300674" lon="06.577967"><ele>18.7</ele><time>2021-05-20T10:01:17Z</time><name>PT1280</name></trkpt>
<trkpt lat="53.300672" lon="06.577949"><ele>18.6</ele><time>2021-05-20T10:01:17Z</time><name>PT1281</name></trkpt>
<trkpt lat="53.300671" lon="06.577931"><ele>18.5</ele><time>2021-05-20T10:01:19Z</time><name>PT1282</name></trkpt>
<trkpt lat="53.300670" lon="06.577911"><ele>18.4</ele><time>2021-05-20T10:01:19Z</time><name>PT1283</name></trkpt>
<trkpt lat="53.300670" lon="06.577889"><ele>18.5</ele><time>2021-05-20T10:01:21Z</time><name>PT1284</name></trkpt>
<trkpt lat="53.300670" lon="06.577868"><ele>18.5</ele><time>2021-05-20T10:01:21Z</time><name>PT1285</name></trkpt>
<trkpt lat="53.300668" lon="06.577847"><ele>18.6</ele><time>2021-05-20T10:01:23Z</time><name>PT1286</name></trkpt>
<trkpt lat="53.300667" lon="06.577825"><ele>18.6</ele><time>2021-05-20T10:01:23Z</time><name>PT1287</name></trkpt>
<trkpt lat="53.300665" lon="06.577804"><ele>18.7</ele><time>2021-05-20T10:01:25Z</time><name>PT1288</name></trkpt>
<trkpt lat="53.300663" lon="06.577781"><ele>18.7</ele><time>2021-05-20T10:01:25Z</time><name>PT1289</name></trkpt>
<trkpt lat="53.300661" lon="06.577760"><ele>19</ele><time>2021-05-20T10:01:27Z</time><name>PT1290</name></trkpt>
<trkpt lat="53.300657" lon="06.577739"><ele>19</ele><time>2021-05-20T10:01:27Z</time><name>PT1291</name></trkpt>
<trkpt lat="53.300656" lon="06.577718"><ele>18.9</ele><time>2021-05-20T10:01:29Z</time><name>PT1292</name></trkpt>
<trkpt lat="53.300653" lon="06.577700"><ele>18.7</ele><time>2021-05-20T10:01:29Z</time><name>PT1293</name></trkpt>
<trkpt lat="53.300653" lon="06.577681"><ele>18.8</ele><time>2021-05-20T10:01:31Z</time><name>PT1294</name></trkpt>
<trkpt lat="53.300653" lon="06.577662"><ele>18.9</ele><time>2021-05-20T10:01:31Z</time><name>PT1295</name></trkpt>
<trkpt lat="53.300653" lon="06.577643"><ele>18.8</ele><time>2021-05-20T10:01:33Z</time><name>PT1296</name></trkpt>
<trkpt lat="53.300651" lon="06.577626"><ele>18.7</ele><time>2021-05-20T10:01:33Z</time><name>PT1297</name></trkpt>
<trkpt lat="53.300649" lon="06.577605"><ele>18.7</ele><time>2021-05-20T10:01:35Z</time><name>PT1298</name></trkpt>
<trkpt lat="53.300648" lon="06.577584"><ele>18.6</ele><time>2021-05-20T10:01:35Z</time><name>PT1299</name></trkpt>
<trkpt lat="53.300648" lon="06.577562"><ele>18.6</ele><time>2021-05-20T10:01:37Z</time><name>PT1300</name></trkpt>
<trkpt lat="53.300647" lon="06.577541"><ele>18.7</ele><time>2021-05-20T10:01:37Z</time><name>PT1301</name></trkpt>
<trkpt lat="53.300645" lon="06.577521"><ele>18.7</ele><time>2021-05-20T10:01:39Z</time><name>PT1302</name></trkpt>
<trkpt lat="53.300643" lon="06.577499"><ele>18.7</ele><time>2021-05-20T10:01:39Z</time><name>PT1303</name></trkpt>
<trkpt lat="53.300642" lon="06.577477"><ele>18.7</ele><time>2021-05-20T10:01:41Z</time><name>PT1304</name></trkpt>
<trkpt lat="53.300641" lon="06.577456"><ele>18.7</ele><time>2021-05-20T10:01:41Z</time><name>PT1305</name></trkpt>
<trkpt lat="53.300640" lon="06.577436"><ele>18.9</ele><time>2021-05-20T10:01:43Z</time><name>PT1306</name></trkpt>
<trkpt lat="53.300638" lon="06.577414"><ele>18.8</ele><time>2021-05-20T10:01:43Z</time><name>PT1307</name></trkpt>
<trkpt lat="53.300637" lon="06.577392"><ele>19</ele><time>2021-05-20T10:01:45Z</time><name>PT1308</name></trkpt>
<trkpt lat="53.300636" lon="06.577370"><ele>19</ele><time>2021-05-20T10:01:45Z</time><name>PT1309</name></trkpt>
<trkpt lat="53.300635" lon="06.577349"><ele>19.1</ele><time>2021-05-20T10:01:47Z</time><name>PT1310</name></trkpt>
<trkpt lat="53.300636" lon="06.577327"><ele>18.9</ele><time>2021-05-20T10:01:47Z</time><name>PT1311</name></trkpt>
<trkpt lat="53.300635" lon="06.577306"><ele>18.8</ele><time>2021-05-20T10:01:49Z</time><name>PT1312</name></trkpt>
<trkpt lat="53.300633" lon="06.577285"><ele>18.8</ele><time>2021-05-20T10:01:49Z</time><name>PT1313</name></trkpt>
<trkpt lat="53.300631" lon="06.577263"><ele>18.9</ele><time>2021-05-20T10:01:51Z</time><name>PT1314</name></trkpt>
<trkpt lat="53.300629" lon="06.577243"><ele>18.8</ele><time>2021-05-20T10:01:51Z</time><name>PT1315</name></trkpt>
<trkpt lat="53.300626" lon="06.577222"><ele>19</ele><time>2021-05-20T10:01:53Z</time><name>PT1316</name></trkpt>
<trkpt lat="53.300623" lon="06.577203"><ele>18.9</ele><time>2021-05-20T10:01:53Z</time><name>PT1317</name></trkpt>
<trkpt lat="53.300621" lon="06.577185"><ele>18.9</ele><time>2021-05-20T10:01:55Z</time><name>PT1318</name></trkpt>
<trkpt lat="53.300619" lon="06.577167"><ele>19</ele><time>2021-05-20T10:01:55Z</time><name>PT1319</name></trkpt>
<trkpt lat="53.300617" lon="06.577150"><ele>19.1</ele><time>2021-05-20T10:01:57Z</time><name>PT1320</name></trkpt>
<trkpt lat="53.300616" lon="06.577132"><ele>19.1</ele><time>2021-05-20T10:01:57Z</time><name>PT1321</name></trkpt>
<trkpt lat="53.300614" lon="06.577113"><ele>19.1</ele><time>2021-05-20T10:01:59Z</time><name>PT1322</name></trkpt>
<trkpt lat="53.300611" lon="06.577095"><ele>19.1</ele><time>2021-05-20T10:01:59Z</time><name>PT1323</name></trkpt>
<trkpt lat="53.300610" lon="06.577076"><ele>18.9</ele><time>2021-05-20T10:02:01Z</time><name>PT1324</name></trkpt>
<trkpt lat="53.300609" lon="06.577056"><ele>18.8</ele><time>2021-05-20T10:02:01Z</time><name>PT1325</name></trkpt>
<trkpt lat="53.300609" lon="06.577035"><ele>18.7</ele><time>2021-05-20T10:02:03Z</time><name>PT1326</name></trkpt>
<trkpt lat="53.300607" lon="06.577015"><ele>18.8</ele><time>2021-05-20T10:02:03Z</time><name>PT1327</name></trkpt>
<trkpt lat="53.300606" lon="06.576991"><ele>18.7</ele><time>2021-05-20T10:02:05Z</time><name>PT1328</name></trkpt>
<trkpt lat="53.300605" lon="06.576971"><ele>18.9</ele><time>2021-05-20T10:02:05Z</time><name>PT1329</name></trkpt>
<trkpt lat="53.300605" lon="06.576950"><ele>19.1</ele><time>2021-05-20T10:02:07Z</time><name>PT1330</name></trkpt>
<trkpt lat="53.300603" lon="06.576930"><ele>19.1</ele><time>2021-05-20T10:02:07Z</time><name>PT1331</name></trkpt>
<trkpt lat="53.300603" lon="06.576909"><ele>19.2</ele><time>2021-05-20T10:02:09Z</time><name>PT1332</name></trkpt>
<trkpt lat="53.300602" lon="06.576888"><ele>19.3</ele><time>2021-05-20T10:02:09Z</time><name>PT1333</name></trkpt>
<trkpt lat="53.300600" lon="06.576866"><ele>19.2</ele><time>2021-05-20T10:02:11Z</time><name>PT1334</name></trkpt>
<trkpt lat="53.300599" lon="06.576845"><ele>19.2</ele><time>2021-05-20T10:02:11Z</time><name>PT1335</name></trkpt>
<trkpt lat="53.300599" lon="06.576823"><ele>19</ele><time>2021-05-20T10:02:13Z</time><name>PT1336</name></trkpt>
<trkpt lat="53.300598" lon="06.576802"><ele>19</ele><time>2021-05-20T10:02:13Z</time><name>PT1337</name></trkpt>
<trkpt lat="53.300596" lon="06.576781"><ele>19</ele><time>2021-05-20T10:02:15Z</time><name>PT1338</name></trkpt>
<trkpt lat="53.300593" lon="06.576760"><ele>19</ele><time>2021-05-20T10:02:15Z</time><name>PT1339</name></trkpt>
<trkpt lat="53.300590" lon="06.576740"><ele>19.1</ele><time>2021-05-20T10:02:17Z</time><name>PT1340</name></trkpt>
<trkpt lat="53.300587" lon="06.576720"><ele>19.2</ele><time>2021-05-20T10:02:17Z</time><name>PT1341</name></trkpt>
<trkpt lat="53.300585" lon="06.576701"><ele>19.1</ele><time>2021-05-20T10:02:19Z</time><name>PT1342</name></trkpt>
<trkpt lat="53.300583" lon="06.576683"><ele>19.1</ele><time>2021-05-20T10:02:19Z</time><name>PT1343</name></trkpt>
<trkpt lat="53.300579" lon="06.576664"><ele>19</ele><time>2021-05-20T10:02:21Z</time><name>PT1344</name></trkpt>
<trkpt lat="53.300576" lon="06.576645"><ele>19</ele><time>2021-05-20T10:02:21Z</time><name>PT1345</name></trkpt>
<trkpt lat="53.300574" lon="06.576628"><ele>18.9</ele><time>2021-05-20T10:02:23Z</time><name>PT1346</name></trkpt>
<trkpt lat="53.300572" lon="06.576610"><ele>19.1</ele><time>2021-05-20T10:02:23Z</time><name>PT1347</name></trkpt>
<trkpt lat="53.300572" lon="06.576589"><ele>19.1</ele><time>2021-05-20T10:02:25Z</time><name>PT1348</name></trkpt>
<trkpt lat="53.300572" lon="06.576568"><ele>19.1</ele><time>2021-05-20T10:02:25Z</time><name>PT1349</name></trkpt>
<trkpt lat="53.300571" lon="06.576546"><ele>19.1</ele><time>2021-05-20T10:02:27Z</time><name>PT1350</name></trkpt>
<trkpt lat="53.300571" lon="06.576525"><ele>19</ele><time>2021-05-20T10:02:27Z</time><name>PT1351</name></trkpt>
<trkpt lat="53.300574" lon="06.576505"><ele>18.8</ele><time>2021-05-20T10:02:29Z</time><name>PT1352</name></trkpt>
<trkpt lat="53.300575" lon="06.576487"><ele>19.1</ele><time>2021-05-20T10:02:29Z</time><name>PT1353</name></trkpt>
<trkpt lat="53.300573" lon="06.576469"><ele>18.8</ele><time>2021-05-20T10:02:31Z</time><name>PT1354</name></trkpt>
<trkpt lat="53.300574" lon="06.576450"><ele>19.1</ele><time>2021-05-20T10:02:31Z</time><name>PT1355</name></trkpt>
<trkpt lat="53.300574" lon="06.576431"><ele>19.1</ele><time>2021-05-20T10:02:33Z</time><name>PT1356</name></trkpt>
<trkpt lat="53.300573" lon="06.576411"><ele>19.1</ele><time>2021-05-20T10:02:33Z</time><name>PT1357</name></trkpt>
<trkpt lat="53.300571" lon="06.576392"><ele>19.1</ele><time>2021-05-20T10:02:35Z</time><name>PT1358</name></trkpt>
<trkpt lat="53.300569" lon="06.576375"><ele>19.3</ele><time>2021-05-20T10:02:35Z</time><name>PT1359</name></trkpt>
<trkpt lat="53.300567" lon="06.576357"><ele>19.2</ele><time>2021-05-20T10:02:37Z</time><name>PT1360</name></trkpt>
<trkpt lat="53.300564" lon="06.576340"><ele>19.2</ele><time>2021-05-20T10:02:37Z</time><name>PT1361</name></trkpt>
<trkpt lat="53.300563" lon="06.576321"><ele>19.2</ele><time>2021-05-20T10:02:39Z</time><name>PT1362</name></trkpt>
<trkpt lat="53.300563" lon="06.576301"><ele>19.1</ele><time>2021-05-20T10:02:39Z</time><name>PT1363</name></trkpt>
<trkpt lat="53.300564" lon="06.576283"><ele>19</ele><time>2021-05-20T10:02:41Z</time><name>PT1364</name></trkpt>
<trkpt lat="53.300565" lon="06.576264"><ele>18.8</ele><time>2021-05-20T10:02:41Z</time><name>PT1365</name></trkpt>
<trkpt lat="53.300564" lon="06.576245"><ele>18.8</ele><time>2021-05-20T10:02:43Z</time><name>PT1366</name></trkpt>
<trkpt lat="53.300563" lon="06.576228"><ele>18.8</ele><time>2021-05-20T10:02:43Z</time><name>PT1367</name></trkpt>
<trkpt lat="53.300563" lon="06.576211"><ele>18.8</ele><time>2021-05-20T10:02:45Z</time><name>PT1368</name></trkpt>
<trkpt lat="53.300559" lon="06.576196"><ele>19</ele><time>2021-05-20T10:02:45Z</time><name>PT1369</name></trkpt>
<trkpt lat="53.300559" lon="06.576175"><ele>19.1</ele><time>2021-05-20T10:02:47Z</time><name>PT1370</name></trkpt>
<trkpt lat="53.300559" lon="06.576155"><ele>19.2</ele><time>2021-05-20T10:02:47Z</time><name>PT1371</name></trkpt>
<trkpt lat="53.300558" lon="06.576137"><ele>19.2</ele><time>2021-05-20T10:02:49Z</time><name>PT1372</name></trkpt>
<trkpt lat="53.300559" lon="06.576120"><ele>19.2</ele><time>2021-05-20T10:02:49Z</time><name>PT1373</name></trkpt>
<trkpt lat="53.300558" lon="06.576102"><ele>19</ele><time>2021-05-20T10:02:51Z</time><name>PT1374</name></trkpt>
<trkpt lat="53.300557" lon="06.576084"><ele>19.1</ele><time>2021-05-20T10:02:51Z</time><name>PT1375</name></trkpt>
<trkpt lat="53.300555" lon="06.576064"><ele>18.8</ele><time>2021-05-20T10:02:53Z</time><name>PT1376</name></trkpt>
<trkpt lat="53.300553" lon="06.576043"><ele>18.8</ele><time>2021-05-20T10:02:53Z</time><name>PT1377</name></trkpt>
<trkpt lat="53.300551" lon="06.576024"><ele>18.9</ele><time>2021-05-20T10:02:55Z</time><name>PT1378</name></trkpt>
<trkpt lat="53.300550" lon="06.576006"><ele>18.7</ele><time>2021-05-20T10:02:55Z</time><name>PT1379</name></trkpt>
<trkpt lat="53.300549" lon="06.575988"><ele>18.9</ele><time>2021-05-20T10:02:57Z</time><name>PT1380</name></trkpt>
<trkpt lat="53.300547" lon="06.575969"><ele>18.9</ele><time>2021-05-20T10:02:57Z</time><name>PT1381</name></trkpt>
<trkpt lat="53.300546" lon="06.575950"><ele>19.1</ele><time>2021-05-20T10:02:59Z</time><name>PT1382</name></trkpt>
<trkpt lat="53.300546" lon="06.575930"><ele>19.1</ele><time>2021-05-20T10:02:59Z</time><name>PT1383</name></trkpt>
<trkpt lat="53.300547" lon="06.575906"><ele>19.1</ele><time>2021-05-20T10:03:01Z</time><name>PT1384</name></trkpt>
<trkpt lat="53.300548" lon="06.575884"><ele>19.2</ele><time>2021-05-20T10:03:01Z</time><name>PT1385</name></trkpt>
<trkpt lat="53.300547" lon="06.575864"><ele>19.1</ele><time>2021-05-20T10:03:03Z</time><name>PT1386</name></trkpt>
<trkpt lat="53.300546" lon="06.575843"><ele>19</ele><time>2021-05-20T10:03:03Z</time><name>PT1387</name></trkpt>
<trkpt lat="53.300546" lon="06.575822"><ele>18.8</ele><time>2021-05-20T10:03:05Z</time><name>PT1388</name></trkpt>
<trkpt lat="53.300546" lon="06.575802"><ele>18.8</ele><time>2021-05-20T10:03:05Z</time><name>PT1389</name></trkpt>
<trkpt lat="53.300545" lon="06.575782"><ele>18.8</ele><time>2021-05-20T10:03:07Z</time><name>PT1390</name></trkpt>
<trkpt lat="53.300544" lon="06.575763"><ele>18.9</ele><time>2021-05-20T10:03:07Z</time><name>PT1391</name></trkpt>
<trkpt lat="53.300542" lon="06.575745"><ele>18.9</ele><time>2021-05-20T10:03:09Z</time><name>PT1392</name></trkpt>
<trkpt lat="53.300539" lon="06.575727"><ele>19.1</ele><time>2021-05-20T10:03:09Z</time><name>PT1393</name></trkpt>
<trkpt lat="53.300535" lon="06.575710"><ele>19.1</ele><time>2021-05-20T10:03:11Z</time><name>PT1394</name></trkpt>
<trkpt lat="53.300532" lon="06.575692"><ele>19.1</ele><time>2021-05-20T10:03:11Z</time><name>PT1395</name></trkpt>
<trkpt lat="53.300531" lon="06.575673"><ele>19.1</ele><time>2021-05-20T10:03:13Z</time><name>PT1396</name></trkpt>
<trkpt lat="53.300529" lon="06.575654"><ele>19.1</ele><time>2021-05-20T10:03:13Z</time><name>PT1397</name></trkpt>
<trkpt lat="53.300528" lon="06.575635"><ele>19.1</ele><time>2021-05-20T10:03:15Z</time><name>PT1398</name></trkpt>
<trkpt lat="53.300528" lon="06.575615"><ele>19.2</ele><time>2021-05-20T10:03:15Z</time><name>PT1399</name></trkpt>
<trkpt lat="53.300528" lon="06.575594"><ele>19</ele><time>2021-05-20T10:03:17Z</time><name>PT1400</name></trkpt>
<trkpt lat="53.300528" lon="06.575573"><ele>18.9</ele><time>2021-05-20T10:03:17Z</time><name>PT1401</name></trkpt>
<trkpt lat="53.300528" lon="06.575552"><ele>18.9</ele><time>2021-05-20T10:03:19Z</time><name>PT1402</name></trkpt>
<trkpt lat="53.300528" lon="06.575530"><ele>18.9</ele><time>2021-05-20T10:03:19Z</time><name>PT1403</name></trkpt>
<trkpt lat="53.300529" lon="06.575508"><ele>18.8</ele><time>2021-05-20T10:03:21Z</time><name>PT1404</name></trkpt>
<trkpt lat="53.300529" lon="06.575487"><ele>18.9</ele><time>2021-05-20T10:03:21Z</time><name>PT1405</name></trkpt>
<trkpt lat="53.300527" lon="06.575466"><ele>18.8</ele><time>2021-05-20T10:03:23Z</time><name>PT1406</name></trkpt>
<trkpt lat="53.300525" lon="06.575446"><ele>18.7</ele><time>2021-05-20T10:03:23Z</time><name>PT1407</name></trkpt>
<trkpt lat="53.300524" lon="06.575424"><ele>18.7</ele><time>2021-05-20T10:03:25Z</time><name>PT1408</name></trkpt>
<trkpt lat="53.300523" lon="06.575405"><ele>18.6</ele><time>2021-05-20T10:03:25Z</time><name>PT1409</name></trkpt>
<trkpt lat="53.300520" lon="06.575387"><ele>18.7</ele><time>2021-05-20T10:03:27Z</time><name>PT1410</name></trkpt>
<trkpt lat="53.300517" lon="06.575369"><ele>18.7</ele><time>2021-05-20T10:03:27Z</time><name>PT1411</name></trkpt>
<trkpt lat="53.300515" lon="06.575351"><ele>18.7</ele><time>2021-05-20T10:03:29Z</time><name>PT1412</name></trkpt>
<trkpt lat="53.300513" lon="06.575330"><ele>18.8</ele><time>2021-05-20T10:03:29Z</time><name>PT1413</name></trkpt>
<trkpt lat="53.300512" lon="06.575311"><ele>18.9</ele><time>2021-05-20T10:03:31Z</time><name>PT1414</name></trkpt>
<trkpt lat="53.300510" lon="06.575293"><ele>18.8</ele><time>2021-05-20T10:03:31Z</time><name>PT1415</name></trkpt>
<trkpt lat="53.300509" lon="06.575274"><ele>19.1</ele><time>2021-05-20T10:03:33Z</time><name>PT1416</name></trkpt>
<trkpt lat="53.300508" lon="06.575253"><ele>19.1</ele><time>2021-05-20T10:03:33Z</time><name>PT1417</name></trkpt>
<trkpt lat="53.300508" lon="06.575232"><ele>19.2</ele><time>2021-05-20T10:03:35Z</time><name>PT1418</name></trkpt>
<trkpt lat="53.300508" lon="06.575210"><ele>19.3</ele><time>2021-05-20T10:03:35Z</time><name>PT1419</name></trkpt>
<trkpt lat="53.300508" lon="06.575189"><ele>19.2</ele><time>2021-05-20T10:03:37Z</time><name>PT1420</name></trkpt>
<trkpt lat="53.300507" lon="06.575168"><ele>19.1</ele><time>2021-05-20T10:03:37Z</time><name>PT1421</name></trkpt>
<trkpt lat="53.300506" lon="06.575146"><ele>19.1</ele><time>2021-05-20T10:03:39Z</time><name>PT1422</name></trkpt>
<trkpt lat="53.300505" lon="06.575124"><ele>19.1</ele><time>2021-05-20T10:03:39Z</time><name>PT1423</name></trkpt>
<trkpt lat="53.300503" lon="06.575102"><ele>19.2</ele><time>2021-05-20T10:03:41Z</time><name>PT1424</name></trkpt>
<trkpt lat="53.300500" lon="06.575082"><ele>19.2</ele><time>2021-05-20T10:03:41Z</time><name>PT1425</name></trkpt>
<trkpt lat="53.300498" lon="06.575064"><ele>19.2</ele><time>2021-05-20T10:03:43Z</time><name>PT1426</name></trkpt>
<trkpt lat="53.300498" lon="06.575045"><ele>19.3</ele><time>2021-05-20T10:03:43Z</time><name>PT1427</name></trkpt>
<trkpt lat="53.300498" lon="06.575031"><ele>19.3</ele><time>2021-05-20T10:03:45Z</time><name>PT1428</name></trkpt>
<trkpt lat="53.300499" lon="06.575015"><ele>19.1</ele><time>2021-05-20T10:03:45Z</time><name>PT1429</name></trkpt>
<trkpt lat="53.300502" lon="06.574996"><ele>19.2</ele><time>2021-05-20T10:03:47Z</time><name>PT1430</name></trkpt>
<trkpt lat="53.300507" lon="06.574977"><ele>19.4</ele><time>2021-05-20T10:03:47Z</time><name>PT1431</name></trkpt>
<trkpt lat="53.300515" lon="06.574961"><ele>19.2</ele><time>2021-05-20T10:03:49Z</time><name>PT1432</name></trkpt>
<trkpt lat="53.300521" lon="06.574947"><ele>19.3</ele><time>2021-05-20T10:03:49Z</time><name>PT1433</name></trkpt>
<trkpt lat="53.300527" lon="06.574932"><ele>19.3</ele><time>2021-05-20T10:03:51Z</time><name>PT1434</name></trkpt>
<trkpt lat="53.300534" lon="06.574917"><ele>19.3</ele><time>2021-05-20T10:03:51Z</time><name>PT1435</name></trkpt>
<trkpt lat="53.300540" lon="06.574902"><ele>19.2</ele><time>2021-05-20T10:03:53Z</time><name>PT1436</name></trkpt>
<trkpt lat="53.300549" lon="06.574887"><ele>19.3</ele><time>2021-05-20T10:03:53Z</time><name>PT1437</name></trkpt>
<trkpt lat="53.300560" lon="06.574874"><ele>19.3</ele><time>2021-05-20T10:03:55Z</time><name>PT1438</name></trkpt>
<trkpt lat="53.300572" lon="06.574865"><ele>19.4</ele><time>2021-05-20T10:03:55Z</time><name>PT1439</name></trkpt>
<trkpt lat="53.300583" lon="06.574858"><ele>19.4</ele><time>2021-05-20T10:03:57Z</time><name>PT1440</name></trkpt>
<trkpt lat="53.300594" lon="06.574849"><ele>19.4</ele><time>2021-05-20T10:03:57Z</time><name>PT1441</name></trkpt>
<trkpt lat="53.300605" lon="06.574840"><ele>19.4</ele><time>2021-05-20T10:03:59Z</time><name>PT1442</name></trkpt>
<trkpt lat="53.300617" lon="06.574831"><ele>19.5</ele><time>2021-05-20T10:03:59Z</time><name>PT1443</name></trkpt>
<trkpt lat="53.300629" lon="06.574824"><ele>19.2</ele><time>2021-05-20T10:04:01Z</time><name>PT1444</name></trkpt>
<trkpt lat="53.300640" lon="06.574819"><ele>19.2</ele><time>2021-05-20T10:04:01Z</time><name>PT1445</name></trkpt>
<trkpt lat="53.300651" lon="06.574816"><ele>19.1</ele><time>2021-05-20T10:04:03Z</time><name>PT1446</name></trkpt>
<trkpt lat="53.300663" lon="06.574814"><ele>19.2</ele><time>2021-05-20T10:04:03Z</time><name>PT1447</name></trkpt>
<trkpt lat="53.300675" lon="06.574815"><ele>19.1</ele><time>2021-05-20T10:04:05Z</time><name>PT1448</name></trkpt>
<trkpt lat="53.300687" lon="06.574817"><ele>19.2</ele><time>2021-05-20T10:04:05Z</time><name>PT1449</name></trkpt>
<trkpt lat="53.300699" lon="06.574820"><ele>19.2</ele><time>2021-05-20T10:04:07Z</time><name>PT1450</name></trkpt>
<trkpt lat="53.300709" lon="06.574824"><ele>19.2</ele><time>2021-05-20T10:04:07Z</time><name>PT1451</name></trkpt>
<trkpt lat="53.300719" lon="06.574828"><ele>19.2</ele><time>2021-05-20T10:04:09Z</time><name>PT1452</name></trkpt>
<trkpt lat="53.300729" lon="06.574830"><ele>19.4</ele><time>2021-05-20T10:04:09Z</time><name>PT1453</name></trkpt>
<trkpt lat="53.300738" lon="06.574832"><ele>19.3</ele><time>2021-05-20T10:04:11Z</time><name>PT1454</name></trkpt>
<trkpt lat="53.300749" lon="06.574835"><ele>19.5</ele><time>2021-05-20T10:04:11Z</time><name>PT1455</name></trkpt>
<trkpt lat="53.300759" lon="06.574837"><ele>19.5</ele><time>2021-05-20T10:04:13Z</time><name>PT1456</name></trkpt>
<trkpt lat="53.300769" lon="06.574838"><ele>19.6</ele><time>2021-05-20T10:04:13Z</time><name>PT1457</name></trkpt>
<trkpt lat="53.300778" lon="06.574838"><ele>19.6</ele><time>2021-05-20T10:04:15Z</time><name>PT1458</name></trkpt>
<trkpt lat="53.300788" lon="06.574840"><ele>19.7</ele><time>2021-05-20T10:04:15Z</time><name>PT1459</name></trkpt>
<trkpt lat="53.300798" lon="06.574843"><ele>19.7</ele><time>2021-05-20T10:04:17Z</time><name>PT1460</name></trkpt>
<trkpt lat="53.300807" lon="06.574843"><ele>19.7</ele><time>2021-05-20T10:04:17Z</time><name>PT1461</name></trkpt>
<trkpt lat="53.300817" lon="06.574845"><ele>19.6</ele><time>2021-05-20T10:04:19Z</time><name>PT1462</name></trkpt>
<trkpt lat="53.300826" lon="06.574847"><ele>19.3</ele><time>2021-05-20T10:04:20Z</time><name>PT1463</name></trkpt>
<trkpt lat="53.300838" lon="06.574847"><ele>19.2</ele><time>2021-05-20T10:04:20Z</time><name>PT1464</name></trkpt>
<trkpt lat="53.300849" lon="06.574848"><ele>19.1</ele><time>2021-05-20T10:04:22Z</time><name>PT1465</name></trkpt>
<trkpt lat="53.300860" lon="06.574848"><ele>19</ele><time>2021-05-20T10:04:22Z</time><name>PT1466</name></trkpt>
<trkpt lat="53.300872" lon="06.574847"><ele>18.9</ele><time>2021-05-20T10:04:24Z</time><name>PT1467</name></trkpt>
<trkpt lat="53.300882" lon="06.574848"><ele>19</ele><time>2021-05-20T10:04:24Z</time><name>PT1468</name></trkpt>
<trkpt lat="53.300893" lon="06.574852"><ele>19.1</ele><time>2021-05-20T10:04:26Z</time><name>PT1469</name></trkpt>
<trkpt lat="53.300905" lon="06.574853"><ele>19.1</ele><time>2021-05-20T10:04:26Z</time><name>PT1470</name></trkpt>
<trkpt lat="53.300914" lon="06.574852"><ele>19.3</ele><time>2021-05-20T10:04:28Z</time><name>PT1471</name></trkpt>
<trkpt lat="53.300922" lon="06.574853"><ele>19.4</ele><time>2021-05-20T10:04:28Z</time><name>PT1472</name></trkpt>
<trkpt lat="53.300929" lon="06.574855"><ele>19.3</ele><time>2021-05-20T10:04:30Z</time><name>PT1473</name></trkpt>
<trkpt lat="53.300937" lon="06.574859"><ele>19.3</ele><time>2021-05-20T10:04:30Z</time><name>PT1474</name></trkpt>
<trkpt lat="53.300947" lon="06.574862"><ele>19.2</ele><time>2021-05-20T10:04:32Z</time><name>PT1475</name></trkpt>
<trkpt lat="53.300958" lon="06.574866"><ele>19.2</ele><time>2021-05-20T10:04:32Z</time><name>PT1476</name></trkpt>
<trkpt lat="53.300969" lon="06.574869"><ele>19.3</ele><time>2021-05-20T10:04:34Z</time><name>PT1477</name></trkpt>
<trkpt lat="53.300979" lon="06.574868"><ele>19.2</ele><time>2021-05-20T10:04:34Z</time><name>PT1478</name></trkpt>
<trkpt lat="53.300987" lon="06.574869"><ele>19.5</ele><time>2021-05-20T10:04:36Z</time><name>PT1479</name></trkpt>
<trkpt lat="53.301000" lon="06.574869"><ele>19.5</ele><time>2021-05-20T10:04:36Z</time><name>PT1480</name></trkpt>
<trkpt lat="53.301012" lon="06.574868"><ele>19.5</ele><time>2021-05-20T10:04:38Z</time><name>PT1481</name></trkpt>
<trkpt lat="53.301025" lon="06.574869"><ele>19.5</ele><time>2021-05-20T10:04:38Z</time><name>PT1482</name></trkpt>
<trkpt lat="53.301036" lon="06.574867"><ele>19.4</ele><time>2021-05-20T10:04:40Z</time><name>PT1483</name></trkpt>
<trkpt lat="53.301046" lon="06.574864"><ele>19.5</ele><time>2021-05-20T10:04:40Z</time><name>PT1484</name></trkpt>
<trkpt lat="53.301057" lon="06.574863"><ele>19.4</ele><time>2021-05-20T10:04:42Z</time><name>PT1485</name></trkpt>
<trkpt lat="53.301065" lon="06.574862"><ele>19.4</ele><time>2021-05-20T10:04:42Z</time><name>PT1486</name></trkpt>
<trkpt lat="53.301075" lon="06.574860"><ele>19.5</ele><time>2021-05-20T10:04:44Z</time><name>PT1487</name></trkpt>
<trkpt lat="53.301090" lon="06.574859"><ele>19.6</ele><time>2021-05-20T10:04:44Z</time><name>PT1488</name></trkpt>
<trkpt lat="53.301104" lon="06.574857"><ele>19.6</ele><time>2021-05-20T10:04:46Z</time><name>PT1489</name></trkpt>
<trkpt lat="53.301118" lon="06.574857"><ele>19.7</ele><time>2021-05-20T10:04:46Z</time><name>PT1490</name></trkpt>
<trkpt lat="53.301132" lon="06.574858"><ele>19.5</ele><time>2021-05-20T10:04:48Z</time><name>PT1491</name></trkpt>
<trkpt lat="53.301149" lon="06.574858"><ele>19.3</ele><time>2021-05-20T10:04:48Z</time><name>PT1492</name></trkpt>
<trkpt lat="53.301161" lon="06.574856"><ele>19.4</ele><time>2021-05-20T10:04:50Z</time><name>PT1493</name></trkpt>
<trkpt lat="53.301175" lon="06.574854"><ele>19.4</ele><time>2021-05-20T10:04:50Z</time><name>PT1494</name></trkpt>
<trkpt lat="53.301188" lon="06.574853"><ele>19.3</ele><time>2021-05-20T10:04:52Z</time><name>PT1495</name></trkpt>
<trkpt lat="53.301201" lon="06.574850"><ele>19.4</ele><time>2021-05-20T10:04:52Z</time><name>PT1496</name></trkpt>
<trkpt lat="53.301214" lon="06.574849"><ele>19.2</ele><time>2021-05-20T10:04:54Z</time><name>PT1497</name></trkpt>
<trkpt lat="53.301230" lon="06.574848"><ele>19.3</ele><time>2021-05-20T10:04:54Z</time><name>PT1498</name></trkpt>
<trkpt lat="53.301246" lon="06.574848"><ele>19.5</ele><time>2021-05-20T10:04:56Z</time><name>PT1499</name></trkpt>
<trkpt lat="53.301260" lon="06.574849"><ele>19.5</ele><time>2021-05-20T10:04:56Z</time><name>PT1500</name></trkpt>
<trkpt lat="53.301274" lon="06.574849"><ele>19.5</ele><time>2021-05-20T10:04:58Z</time><name>PT1501</name></trkpt>
<trkpt lat="53.301287" lon="06.574848"><ele>19.6</ele><time>2021-05-20T10:04:58Z</time><name>PT1502</name></trkpt>
<trkpt lat="53.301301" lon="06.574846"><ele>19.6</ele><time>2021-05-20T10:05:00Z</time><name>PT1503</name></trkpt>
<trkpt lat="53.301315" lon="06.574845"><ele>19.6</ele><time>2021-05-20T10:05:00Z</time><name>PT1504</name></trkpt>
<trkpt lat="53.301328" lon="06.574843"><ele>19.6</ele><time>2021-05-20T10:05:02Z</time><name>PT1505</name></trkpt>
<trkpt lat="53.301342" lon="06.574841"><ele>19.6</ele><time>2021-05-20T10:05:02Z</time><name>PT1506</name></trkpt>
<trkpt lat="53.301354" lon="06.574839"><ele>19.4</ele><time>2021-05-20T10:05:04Z</time><name>PT1507</name></trkpt>
<trkpt lat="53.301364" lon="06.574836"><ele>19.4</ele><time>2021-05-20T10:05:04Z</time><name>PT1508</name></trkpt>
<trkpt lat="53.301374" lon="06.574836"><ele>19.5</ele><time>2021-05-20T10:05:06Z</time><name>PT1509</name></trkpt>
<trkpt lat="53.301388" lon="06.574835"><ele>19.3</ele><time>2021-05-20T10:05:06Z</time><name>PT1510</name></trkpt>
<trkpt lat="53.301400" lon="06.574834"><ele>19.2</ele><time>2021-05-20T10:05:08Z</time><name>PT1511</name></trkpt>
<trkpt lat="53.301411" lon="06.574833"><ele>19.4</ele><time>2021-05-20T10:05:08Z</time><name>PT1512</name></trkpt>
<trkpt lat="53.301421" lon="06.574829"><ele>19.5</ele><time>2021-05-20T10:05:10Z</time><name>PT1513</name></trkpt>
<trkpt lat="53.301430" lon="06.574829"><ele>19.4</ele><time>2021-05-20T10:05:10Z</time><name>PT1514</name></trkpt>
<trkpt lat="53.301440" lon="06.574829"><ele>19.6</ele><time>2021-05-20T10:05:12Z</time><name>PT1515</name></trkpt>
<trkpt lat="53.301451" lon="06.574830"><ele>19.6</ele><time>2021-05-20T10:05:12Z</time><name>PT1516</name></trkpt>
<trkpt lat="53.301460" lon="06.574832"><ele>19.3</ele><time>2021-05-20T10:05:14Z</time><name>PT1517</name></trkpt>
<trkpt lat="53.301472" lon="06.574832"><ele>19.2</ele><time>2021-05-20T10:05:14Z</time><name>PT1518</name></trkpt>
<trkpt lat="53.301485" lon="06.574833"><ele>19.2</ele><time>2021-05-20T10:05:16Z</time><name>PT1519</name></trkpt>
<trkpt lat="53.301497" lon="06.574833"><ele>19.1</ele><time>2021-05-20T10:05:16Z</time><name>PT1520</name></trkpt>
<trkpt lat="53.301508" lon="06.574832"><ele>19.2</ele><time>2021-05-20T10:05:18Z</time><name>PT1521</name></trkpt>
<trkpt lat="53.301519" lon="06.574830"><ele>19.3</ele><time>2021-05-20T10:05:18Z</time><name>PT1522</name></trkpt>
<trkpt lat="53.301528" lon="06.574827"><ele>19.3</ele><time>2021-05-20T10:05:20Z</time><name>PT1523</name></trkpt>
<trkpt lat="53.301538" lon="06.574826"><ele>19.6</ele><time>2021-05-20T10:05:20Z</time><name>PT1524</name></trkpt>
<trkpt lat="53.301548" lon="06.574826"><ele>19.9</ele><time>2021-05-20T10:05:22Z</time><name>PT1525</name></trkpt>
<trkpt lat="53.301559" lon="06.574827"><ele>19.9</ele><time>2021-05-20T10:05:22Z</time><name>PT1526</name></trkpt>
<trkpt lat="53.301571" lon="06.574828"><ele>19.8</ele><time>2021-05-20T10:05:24Z</time><name>PT1527</name></trkpt>
<trkpt lat="53.301583" lon="06.574829"><ele>19.6</ele><time>2021-05-20T10:05:24Z</time><name>PT1528</name></trkpt>
<trkpt lat="53.301595" lon="06.574829"><ele>19.4</ele><time>2021-05-20T10:05:26Z</time><name>PT1529</name></trkpt>
<trkpt lat="53.301607" lon="06.574830"><ele>19.3</ele><time>2021-05-20T10:05:26Z</time><name>PT1530</name></trkpt>
<trkpt lat="53.301620" lon="06.574831"><ele>19.3</ele><time>2021-05-20T10:05:28Z</time><name>PT1531</name></trkpt>
<trkpt lat="53.301632" lon="06.574831"><ele>19.3</ele><time>2021-05-20T10:05:28Z</time><name>PT1532</name></trkpt>
<trkpt lat="53.301646" lon="06.574829"><ele>19.6</ele><time>2021-05-20T10:05:30Z</time><name>PT1533</name></trkpt>
<trkpt lat="53.301657" lon="06.574829"><ele>19.5</ele><time>2021-05-20T10:05:30Z</time><name>PT1534</name></trkpt>
<trkpt lat="53.301669" lon="06.574828"><ele>19.6</ele><time>2021-05-20T10:05:32Z</time><name>PT1535</name></trkpt>
<trkpt lat="53.301678" lon="06.574829"><ele>19.6</ele><time>2021-05-20T10:05:32Z</time><name>PT1536</name></trkpt>
<trkpt lat="53.301689" lon="06.574830"><ele>19.6</ele><time>2021-05-20T10:05:34Z</time><name>PT1537</name></trkpt>
<trkpt lat="53.301702" lon="06.574830"><ele>19.4</ele><time>2021-05-20T10:05:34Z</time><name>PT1538</name></trkpt>
<trkpt lat="53.301716" lon="06.574832"><ele>19.3</ele><time>2021-05-20T10:05:36Z</time><name>PT1539</name></trkpt>
<trkpt lat="53.301728" lon="06.574834"><ele>19.3</ele><time>2021-05-20T10:05:36Z</time><name>PT1540</name></trkpt>
<trkpt lat="53.301737" lon="06.574840"><ele>19.3</ele><time>2021-05-20T10:05:38Z</time><name>PT1541</name></trkpt>
<trkpt lat="53.301747" lon="06.574841"><ele>19.3</ele><time>2021-05-20T10:05:38Z</time><name>PT1542</name></trkpt>
<trkpt lat="53.301756" lon="06.574840"><ele>19.5</ele><time>2021-05-20T10:05:40Z</time><name>PT1543</name></trkpt>
<trkpt lat="53.301770" lon="06.574839"><ele>19.6</ele><time>2021-05-20T10:05:40Z</time><name>PT1544</name></trkpt>
<trkpt lat="53.301783" lon="06.574840"><ele>19.4</ele><time>2021-05-20T10:05:42Z</time><name>PT1545</name></trkpt>
<trkpt lat="53.301793" lon="06.574840"><ele>19.3</ele><time>2021-05-20T10:05:42Z</time><name>PT1546</name></trkpt>
<trkpt lat="53.301807" lon="06.574838"><ele>19.2</ele><time>2021-05-20T10:05:44Z</time><name>PT1547</name></trkpt>
<trkpt lat="53.301823" lon="06.574835"><ele>19.1</ele><time>2021-05-20T10:05:44Z</time><name>PT1548</name></trkpt>
<trkpt lat="53.301840" lon="06.574832"><ele>19</ele><time>2021-05-20T10:05:46Z</time><name>PT1549</name></trkpt>
<trkpt lat="53.301853" lon="06.574830"><ele>18.9</ele><time>2021-05-20T10:05:47Z</time><name>PT1550</name></trkpt>
<trkpt lat="53.301864" lon="06.574831"><ele>18.8</ele><time>2021-05-20T10:05:47Z</time><name>PT1551</name></trkpt>
<trkpt lat="53.301872" lon="06.574831"><ele>18.8</ele><time>2021-05-20T10:05:49Z</time><name>PT1552</name></trkpt>
<trkpt lat="53.301883" lon="06.574828"><ele>18.7</ele><time>2021-05-20T10:05:49Z</time><name>PT1553</name></trkpt>
<trkpt lat="53.301893" lon="06.574828"><ele>18.8</ele><time>2021-05-20T10:05:51Z</time><name>PT1554</name></trkpt>
<trkpt lat="53.301901" lon="06.574828"><ele>18.8</ele><time>2021-05-20T10:05:51Z</time><name>PT1555</name></trkpt>
<trkpt lat="53.301910" lon="06.574829"><ele>19.1</ele><time>2021-05-20T10:05:53Z</time><name>PT1556</name></trkpt>
<trkpt lat="53.301921" lon="06.574827"><ele>19.1</ele><time>2021-05-20T10:05:53Z</time><name>PT1557</name></trkpt>
<trkpt lat="53.301929" lon="06.574823"><ele>18.9</ele><time>2021-05-20T10:05:55Z</time><name>PT1558</name></trkpt>
<trkpt lat="53.301934" lon="06.574821"><ele>18.8</ele><time>2021-05-20T10:05:55Z</time><name>PT1559</name></trkpt>
<trkpt lat="53.301939" lon="06.574819"><ele>18.6</ele><time>2021-05-20T10:05:57Z</time><name>PT1560</name></trkpt>
<trkpt lat="53.301941" lon="06.574818"><ele>18.5</ele><time>2021-05-20T10:05:57Z</time><name>PT1561</name></trkpt>
<trkpt lat="53.301944" lon="06.574819"><ele>18.7</ele><time>2021-05-20T10:05:59Z</time><name>PT1562</name></trkpt>
<trkpt lat="53.301952" lon="06.574818"><ele>18.7</ele><time>2021-05-20T10:05:59Z</time><name>PT1563</name></trkpt>
<trkpt lat="53.301962" lon="06.574817"><ele>18.8</ele><time>2021-05-20T10:06:01Z</time><name>PT1564</name></trkpt>
<trkpt lat="53.301973" lon="06.574816"><ele>19</ele><time>2021-05-20T10:06:01Z</time><name>PT1565</name></trkpt>
<trkpt lat="53.301982" lon="06.574817"><ele>19.1</ele><time>2021-05-20T10:06:03Z</time><name>PT1566</name></trkpt>
<trkpt lat="53.301993" lon="06.574818"><ele>19</ele><time>2021-05-20T10:06:03Z</time><name>PT1567</name></trkpt>
<trkpt lat="53.302004" lon="06.574817"><ele>19.3</ele><time>2021-05-20T10:06:05Z</time><name>PT1568</name></trkpt>
<trkpt lat="53.302015" lon="06.574813"><ele>19.2</ele><time>2021-05-20T10:06:05Z</time><name>PT1569</name></trkpt>
<trkpt lat="53.302023" lon="06.574814"><ele>19.2</ele><time>2021-05-20T10:06:07Z</time><name>PT1570</name></trkpt>
<trkpt lat="53.302034" lon="06.574816"><ele>19.3</ele><time>2021-05-20T10:06:07Z</time><name>PT1571</name></trkpt>
<trkpt lat="53.302044" lon="06.574815"><ele>19.3</ele><time>2021-05-20T10:06:09Z</time><name>PT1572</name></trkpt>
<trkpt lat="53.302053" lon="06.574814"><ele>19.2</ele><time>2021-05-20T10:06:09Z</time><name>PT1573</name></trkpt>
<trkpt lat="53.302059" lon="06.574817"><ele>19.4</ele><time>2021-05-20T10:06:11Z</time><name>PT1574</name></trkpt>
<trkpt lat="53.302067" lon="06.574818"><ele>19.1</ele><time>2021-05-20T10:06:11Z</time><name>PT1575</name></trkpt>
<trkpt lat="53.302075" lon="06.574818"><ele>19.1</ele><time>2021-05-20T10:06:13Z</time><name>PT1576</name></trkpt>
<trkpt lat="53.302079" lon="06.574815"><ele>19.1</ele><time>2021-05-20T10:06:13Z</time><name>PT1577</name></trkpt>
<trkpt lat="53.302080" lon="06.574814"><ele>18.9</ele><time>2021-05-20T10:06:15Z</time><name>PT1578</name></trkpt>
<trkpt lat="53.302081" lon="06.574814"><ele>18.9</ele><time>2021-05-20T10:06:15Z</time><name>PT1579</name></trkpt>
<trkpt lat="53.302087" lon="06.574814"><ele>18.9</ele><time>2021-05-20T10:06:17Z</time><name>PT1580</name></trkpt>
<trkpt lat="53.302101" lon="06.574813"><ele>18.8</ele><time>2021-05-20T10:06:17Z</time><name>PT1581</name></trkpt>
<trkpt lat="53.302117" lon="06.574813"><ele>18.7</ele><time>2021-05-20T10:06:18Z</time><name>PT1582</name></trkpt>
<trkpt lat="53.302134" lon="06.574812"><ele>18.9</ele><time>2021-05-20T10:06:20Z</time><name>PT1583</name></trkpt>
<trkpt lat="53.302150" lon="06.574809"><ele>19</ele><time>2021-05-20T10:06:20Z</time><name>PT1584</name></trkpt>
<trkpt lat="53.302166" lon="06.574807"><ele>19.1</ele><time>2021-05-20T10:06:22Z</time><name>PT1585</name></trkpt>
<trkpt lat="53.302182" lon="06.574806"><ele>19.1</ele><time>2021-05-20T10:06:22Z</time><name>PT1586</name></trkpt>
<trkpt lat="53.302189" lon="06.574804"><ele>19.1</ele><time>2021-05-20T10:06:24Z</time><name>PT1587</name></trkpt>
<trkpt lat="53.302195" lon="06.574802"><ele>19.1</ele><time>2021-05-20T10:06:24Z</time><name>PT1588</name></trkpt>
<trkpt lat="53.302201" lon="06.574802"><ele>19</ele><time>2021-05-20T10:06:26Z</time><name>PT1589</name></trkpt>
<trkpt lat="53.302205" lon="06.574801"><ele>18.9</ele><time>2021-05-20T10:06:26Z</time><name>PT1590</name></trkpt>
<trkpt lat="53.302210" lon="06.574800"><ele>18.9</ele><time>2021-05-20T10:06:28Z</time><name>PT1591</name></trkpt>
<trkpt lat="53.302216" lon="06.574796"><ele>19</ele><time>2021-05-20T10:06:28Z</time><name>PT1592</name></trkpt>
<trkpt lat="53.302222" lon="06.574792"><ele>19.1</ele><time>2021-05-20T10:06:30Z</time><name>PT1593</name></trkpt>
<trkpt lat="53.302232" lon="06.574790"><ele>18.9</ele><time>2021-05-20T10:06:30Z</time><name>PT1594</name></trkpt>
<trkpt lat="53.302248" lon="06.574792"><ele>19</ele><time>2021-05-20T10:06:32Z</time><name>PT1595</name></trkpt>
<trkpt lat="53.302260" lon="06.574788"><ele>18.8</ele><time>2021-05-20T10:06:32Z</time><name>PT1596</name></trkpt>
<trkpt lat="53.302274" lon="06.574784"><ele>18.7</ele><time>2021-05-20T10:06:34Z</time><name>PT1597</name></trkpt>
<trkpt lat="53.302287" lon="06.574785"><ele>18.6</ele><time>2021-05-20T10:06:34Z</time><name>PT1598</name></trkpt>
<trkpt lat="53.302302" lon="06.574790"><ele>18.8</ele><time>2021-05-20T10:06:36Z</time><name>PT1599</name></trkpt>
<trkpt lat="53.302314" lon="06.574790"><ele>18.7</ele><time>2021-05-20T10:06:36Z</time><name>PT1600</name></trkpt>
<trkpt lat="53.302327" lon="06.574790"><ele>18.8</ele><time>2021-05-20T10:06:38Z</time><name>PT1601</name></trkpt>
<trkpt lat="53.302336" lon="06.574793"><ele>18.9</ele><time>2021-05-20T10:06:38Z</time><name>PT1602</name></trkpt>
<trkpt lat="53.302343" lon="06.574795"><ele>18.9</ele><time>2021-05-20T10:06:40Z</time><name>PT1603</name></trkpt>
<trkpt lat="53.302349" lon="06.574794"><ele>18.9</ele><time>2021-05-20T10:06:40Z</time><name>PT1604</name></trkpt>
<trkpt lat="53.302355" lon="06.574793"><ele>18.9</ele><time>2021-05-20T10:06:42Z</time><name>PT1605</name></trkpt>
<trkpt lat="53.302362" lon="06.574794"><ele>19</ele><time>2021-05-20T10:06:42Z</time><name>PT1606</name></trkpt>
<trkpt lat="53.302369" lon="06.574792"><ele>18.7</ele><time>2021-05-20T10:06:44Z</time><name>PT1607</name></trkpt>
<trkpt lat="53.302376" lon="06.574794"><ele>18.7</ele><time>2021-05-20T10:06:44Z</time><name>PT1608</name></trkpt>
<trkpt lat="53.302389" lon="06.574795"><ele>19</ele><time>2021-05-20T10:06:46Z</time><name>PT1609</name></trkpt>
<trkpt lat="53.302402" lon="06.574791"><ele>18.8</ele><time>2021-05-20T10:06:46Z</time><name>PT1610</name></trkpt>
<trkpt lat="53.302417" lon="06.574789"><ele>18.9</ele><time>2021-05-20T10:06:48Z</time><name>PT1611</name></trkpt>
<trkpt lat="53.302435" lon="06.574788"><ele>18.9</ele><time>2021-05-20T10:06:48Z</time><name>PT1612</name></trkpt>
<trkpt lat="53.302447" lon="06.574788"><ele>19.1</ele><time>2021-05-20T10:06:50Z</time><name>PT1613</name></trkpt>
<trkpt lat="53.302471" lon="06.574790"><ele>19</ele><time>2021-05-20T10:06:50Z</time><name>PT1614</name></trkpt>
<trkpt lat="53.302490" lon="06.574788"><ele>19.1</ele><time>2021-05-20T10:06:52Z</time><name>PT1615</name></trkpt>
<trkpt lat="53.302505" lon="06.574787"><ele>19</ele><time>2021-05-20T10:06:52Z</time><name>PT1616</name></trkpt>
<trkpt lat="53.302522" lon="06.574782"><ele>18.9</ele><time>2021-05-20T10:06:54Z</time><name>PT1617</name></trkpt>
<trkpt lat="53.302536" lon="06.574782"><ele>19</ele><time>2021-05-20T10:06:54Z</time><name>PT1618</name></trkpt>
<trkpt lat="53.302547" lon="06.574780"><ele>18.8</ele><time>2021-05-20T10:06:56Z</time><name>PT1619</name></trkpt>
<trkpt lat="53.302560" lon="06.574779"><ele>18.8</ele><time>2021-05-20T10:06:56Z</time><name>PT1620</name></trkpt>
<trkpt lat="53.302569" lon="06.574778"><ele>19</ele><time>2021-05-20T10:06:58Z</time><name>PT1621</name></trkpt>
<trkpt lat="53.302579" lon="06.574776"><ele>18.9</ele><time>2021-05-20T10:06:58Z</time><name>PT1622</name></trkpt>
<trkpt lat="53.302589" lon="06.574775"><ele>19</ele><time>2021-05-20T10:07:00Z</time><name>PT1623</name></trkpt>
<trkpt lat="53.302602" lon="06.574773"><ele>19.1</ele><time>2021-05-20T10:07:00Z</time><name>PT1624</name></trkpt>
<trkpt lat="53.302613" lon="06.574772"><ele>19.1</ele><time>2021-05-20T10:07:02Z</time><name>PT1625</name></trkpt>
<trkpt lat="53.302625" lon="06.574771"><ele>19.1</ele><time>2021-05-20T10:07:02Z</time><name>PT1626</name></trkpt>
<trkpt lat="53.302639" lon="06.574768"><ele>19.2</ele><time>2021-05-20T10:07:04Z</time><name>PT1627</name></trkpt>
<trkpt lat="53.302654" lon="06.574766"><ele>19.3</ele><time>2021-05-20T10:07:04Z</time><name>PT1628</name></trkpt>
<trkpt lat="53.302670" lon="06.574766"><ele>19.2</ele><time>2021-05-20T10:07:06Z</time><name>PT1629</name></trkpt>
<trkpt lat="53.302687" lon="06.574766"><ele>19.3</ele><time>2021-05-20T10:07:06Z</time><name>PT1630</name></trkpt>
<trkpt lat="53.302699" lon="06.574765"><ele>19.4</ele><time>2021-05-20T10:07:08Z</time><name>PT1631</name></trkpt>
<trkpt lat="53.302711" lon="06.574765"><ele>19.2</ele><time>2021-05-20T10:07:08Z</time><name>PT1632</name></trkpt>
<trkpt lat="53.302721" lon="06.574765"><ele>19.4</ele><time>2021-05-20T10:07:10Z</time><name>PT1633</name></trkpt>
<trkpt lat="53.302729" lon="06.574766"><ele>19.6</ele><time>2021-05-20T10:07:10Z</time><name>PT1634</name></trkpt>
<trkpt lat="53.302734" lon="06.574767"><ele>19.6</ele><time>2021-05-20T10:07:12Z</time><name>PT1635</name></trkpt>
<trkpt lat="53.302743" lon="06.574767"><ele>19.6</ele><time>2021-05-20T10:07:12Z</time><name>PT1636</name></trkpt>
<trkpt lat="53.302753" lon="06.574765"><ele>19.7</ele><time>2021-05-20T10:07:14Z</time><name>PT1637</name></trkpt>
<trkpt lat="53.302763" lon="06.574760"><ele>19.6</ele><time>2021-05-20T10:07:14Z</time><name>PT1638</name></trkpt>
<trkpt lat="53.302777" lon="06.574755"><ele>19.3</ele><time>2021-05-20T10:07:15Z</time><name>PT1639</name></trkpt>
<trkpt lat="53.302793" lon="06.574751"><ele>19.3</ele><time>2021-05-20T10:07:17Z</time><name>PT1640</name></trkpt>
<trkpt lat="53.302811" lon="06.574748"><ele>19.2</ele><time>2021-05-20T10:07:17Z</time><name>PT1641</name></trkpt>
<trkpt lat="53.302826" lon="06.574746"><ele>19.1</ele><time>2021-05-20T10:07:19Z</time><name>PT1642</name></trkpt>
<trkpt lat="53.302837" lon="06.574746"><ele>19.1</ele><time>2021-05-20T10:07:19Z</time><name>PT1643</name></trkpt>
<trkpt lat="53.302844" lon="06.574744"><ele>19.3</ele><time>2021-05-20T10:07:21Z</time><name>PT1644</name></trkpt>
<trkpt lat="53.302855" lon="06.574743"><ele>19.2</ele><time>2021-05-20T10:07:21Z</time><name>PT1645</name></trkpt>
<trkpt lat="53.302865" lon="06.574741"><ele>19.4</ele><time>2021-05-20T10:07:23Z</time><name>PT1646</name></trkpt>
<trkpt lat="53.302873" lon="06.574740"><ele>19.5</ele><time>2021-05-20T10:07:23Z</time><name>PT1647</name></trkpt>
<trkpt lat="53.302879" lon="06.574741"><ele>19.3</ele><time>2021-05-20T10:07:25Z</time><name>PT1648</name></trkpt>
<trkpt lat="53.302885" lon="06.574742"><ele>19.4</ele><time>2021-05-20T10:07:25Z</time><name>PT1649</name></trkpt>
<trkpt lat="53.302893" lon="06.574738"><ele>19.4</ele><time>2021-05-20T10:07:27Z</time><name>PT1650</name></trkpt>
<trkpt lat="53.302900" lon="06.574735"><ele>19.4</ele><time>2021-05-20T10:07:27Z</time><name>PT1651</name></trkpt>
<trkpt lat="53.302908" lon="06.574733"><ele>19.4</ele><time>2021-05-20T10:07:29Z</time><name>PT1652</name></trkpt>
<trkpt lat="53.302919" lon="06.574733"><ele>19.2</ele><time>2021-05-20T10:07:29Z</time><name>PT1653</name></trkpt>
<trkpt lat="53.302935" lon="06.574730"><ele>19.4</ele><time>2021-05-20T10:07:31Z</time><name>PT1654</name></trkpt>
<trkpt lat="53.302949" lon="06.574727"><ele>19.3</ele><time>2021-05-20T10:07:31Z</time><name>PT1655</name></trkpt>
<trkpt lat="53.302963" lon="06.574722"><ele>19.1</ele><time>2021-05-20T10:07:33Z</time><name>PT1656</name></trkpt>
<trkpt lat="53.302980" lon="06.574720"><ele>19.2</ele><time>2021-05-20T10:07:33Z</time><name>PT1657</name></trkpt>
<trkpt lat="53.302998" lon="06.574715"><ele>19.3</ele><time>2021-05-20T10:07:35Z</time><name>PT1658</name></trkpt>
<trkpt lat="53.303019" lon="06.574713"><ele>19.4</ele><time>2021-05-20T10:07:35Z</time><name>PT1659</name></trkpt>
<trkpt lat="53.303039" lon="06.574712"><ele>19.4</ele><time>2021-05-20T10:07:37Z</time><name>PT1660</name></trkpt>
<trkpt lat="53.303058" lon="06.574713"><ele>19.6</ele><time>2021-05-20T10:07:37Z</time><name>PT1661</name></trkpt>
<trkpt lat="53.303074" lon="06.574714"><ele>19.6</ele><time>2021-05-20T10:07:39Z</time><name>PT1662</name></trkpt>
<trkpt lat="53.303087" lon="06.574714"><ele>19.6</ele><time>2021-05-20T10:07:40Z</time><name>PT1663</name></trkpt>
<trkpt lat="53.303099" lon="06.574713"><ele>19.6</ele><time>2021-05-20T10:07:40Z</time><name>PT1664</name></trkpt>
<trkpt lat="53.303107" lon="06.574711"><ele>19.6</ele><time>2021-05-20T10:07:42Z</time><name>PT1665</name></trkpt>
<trkpt lat="53.303122" lon="06.574710"><ele>19.5</ele><time>2021-05-20T10:07:42Z</time><name>PT1666</name></trkpt>
<trkpt lat="53.303129" lon="06.574706"><ele>19.2</ele><time>2021-05-20T10:07:44Z</time><name>PT1667</name></trkpt>
<trkpt lat="53.303135" lon="06.574704"><ele>19.1</ele><time>2021-05-20T10:07:44Z</time><name>PT1668</name></trkpt>
<trkpt lat="53.303142" lon="06.574698"><ele>19.2</ele><time>2021-05-20T10:07:46Z</time><name>PT1669</name></trkpt>
<trkpt lat="53.303150" lon="06.574691"><ele>19.2</ele><time>2021-05-20T10:07:46Z</time><name>PT1670</name></trkpt>
<trkpt lat="53.303159" lon="06.574686"><ele>19.6</ele><time>2021-05-20T10:07:48Z</time><name>PT1671</name></trkpt>
<trkpt lat="53.303170" lon="06.574684"><ele>19.9</ele><time>2021-05-20T10:07:48Z</time><name>PT1672</name></trkpt>
<trkpt lat="53.303183" lon="06.574682"><ele>19.9</ele><time>2021-05-20T10:07:50Z</time><name>PT1673</name></trkpt>
<trkpt lat="53.303197" lon="06.574678"><ele>20</ele><time>2021-05-20T10:07:50Z</time><name>PT1674</name></trkpt>
<trkpt lat="53.303213" lon="06.574672"><ele>19.9</ele><time>2021-05-20T10:07:52Z</time><name>PT1675</name></trkpt>
<trkpt lat="53.303228" lon="06.574669"><ele>19.8</ele><time>2021-05-20T10:07:52Z</time><name>PT1676</name></trkpt>
<trkpt lat="53.303240" lon="06.574666"><ele>19.7</ele><time>2021-05-20T10:07:54Z</time><name>PT1677</name></trkpt>
<trkpt lat="53.303252" lon="06.574664"><ele>19.7</ele><time>2021-05-20T10:07:54Z</time><name>PT1678</name></trkpt>
<trkpt lat="53.303263" lon="06.574662"><ele>19.6</ele><time>2021-05-20T10:07:56Z</time><name>PT1679</name></trkpt>
<trkpt lat="53.303271" lon="06.574660"><ele>19.6</ele><time>2021-05-20T10:07:56Z</time><name>PT1680</name></trkpt>
<trkpt lat="53.303282" lon="06.574658"><ele>20</ele><time>2021-05-20T10:07:58Z</time><name>PT1681</name></trkpt>
<trkpt lat="53.303293" lon="06.574654"><ele>20.1</ele><time>2021-05-20T10:07:58Z</time><name>PT1682</name></trkpt>
<trkpt lat="53.303301" lon="06.574652"><ele>19.8</ele><time>2021-05-20T10:08:00Z</time><name>PT1683</name></trkpt>
<trkpt lat="53.303309" lon="06.574650"><ele>19.8</ele><time>2021-05-20T10:08:00Z</time><name>PT1684</name></trkpt>
<trkpt lat="53.303318" lon="06.574648"><ele>19.7</ele><time>2021-05-20T10:08:02Z</time><name>PT1685</name></trkpt>
<trkpt lat="53.303331" lon="06.574646"><ele>19.7</ele><time>2021-05-20T10:08:02Z</time><name>PT1686</name></trkpt>
<trkpt lat="53.303346" lon="06.574645"><ele>19.8</ele><time>2021-05-20T10:08:04Z</time><name>PT1687</name></trkpt>
<trkpt lat="53.303361" lon="06.574642"><ele>19.9</ele><time>2021-05-20T10:08:04Z</time><name>PT1688</name></trkpt>
<trkpt lat="53.303378" lon="06.574642"><ele>19.7</ele><time>2021-05-20T10:08:06Z</time><name>PT1689</name></trkpt>
<trkpt lat="53.303397" lon="06.574644"><ele>19.6</ele><time>2021-05-20T10:08:06Z</time><name>PT1690</name></trkpt>
<trkpt lat="53.303409" lon="06.574645"><ele>19.6</ele><time>2021-05-20T10:08:08Z</time><name>PT1691</name></trkpt>
<trkpt lat="53.303424" lon="06.574647"><ele>19.6</ele><time>2021-05-20T10:08:08Z</time><name>PT1692</name></trkpt>
<trkpt lat="53.303437" lon="06.574648"><ele>19.7</ele><time>2021-05-20T10:08:10Z</time><name>PT1693</name></trkpt>
<trkpt lat="53.303450" lon="06.574648"><ele>20</ele><time>2021-05-20T10:08:10Z</time><name>PT1694</name></trkpt>
<trkpt lat="53.303462" lon="06.574648"><ele>20.3</ele><time>2021-05-20T10:08:12Z</time><name>PT1695</name></trkpt>
<trkpt lat="53.303474" lon="06.574648"><ele>20.4</ele><time>2021-05-20T10:08:12Z</time><name>PT1696</name></trkpt>
<trkpt lat="53.303485" lon="06.574647"><ele>20.4</ele><time>2021-05-20T10:08:14Z</time><name>PT1697</name></trkpt>
<trkpt lat="53.303495" lon="06.574647"><ele>20.3</ele><time>2021-05-20T10:08:14Z</time><name>PT1698</name></trkpt>
<trkpt lat="53.303504" lon="06.574647"><ele>20.1</ele><time>2021-05-20T10:08:16Z</time><name>PT1699</name></trkpt>
<trkpt lat="53.303516" lon="06.574647"><ele>20.1</ele><time>2021-05-20T10:08:16Z</time><name>PT1700</name></trkpt>
<trkpt lat="53.303529" lon="06.574646"><ele>20.1</ele><time>2021-05-20T10:08:18Z</time><name>PT1701</name></trkpt>
<trkpt lat="53.303541" lon="06.574645"><ele>20.1</ele><time>2021-05-20T10:08:18Z</time><name>PT1702</name></trkpt>
<trkpt lat="53.303553" lon="06.574645"><ele>20.1</ele><time>2021-05-20T10:08:20Z</time><name>PT1703</name></trkpt>
<trkpt lat="53.303565" lon="06.574645"><ele>19.9</ele><time>2021-05-20T10:08:20Z</time><name>PT1704</name></trkpt>
<trkpt lat="53.303578" lon="06.574646"><ele>19.9</ele><time>2021-05-20T10:08:22Z</time><name>PT1705</name></trkpt>
<trkpt lat="53.303591" lon="06.574649"><ele>19.9</ele><time>2021-05-20T10:08:22Z</time><name>PT1706</name></trkpt>
<trkpt lat="53.303605" lon="06.574650"><ele>19.7</ele><time>2021-05-20T10:08:24Z</time><name>PT1707</name></trkpt>
<trkpt lat="53.303619" lon="06.574649"><ele>19.7</ele><time>2021-05-20T10:08:24Z</time><name>PT1708</name></trkpt>
<trkpt lat="53.303632" lon="06.574649"><ele>19.7</ele><time>2021-05-20T10:08:26Z</time><name>PT1709</name></trkpt>
<trkpt lat="53.303645" lon="06.574650"><ele>19.7</ele><time>2021-05-20T10:08:26Z</time><name>PT1710</name></trkpt>
<trkpt lat="53.303658" lon="06.574654"><ele>19.7</ele><time>2021-05-20T10:08:28Z</time><name>PT1711</name></trkpt>
<trkpt lat="53.303670" lon="06.574656"><ele>19.7</ele><time>2021-05-20T10:08:28Z</time><name>PT1712</name></trkpt>
<trkpt lat="53.303681" lon="06.574659"><ele>19.9</ele><time>2021-05-20T10:08:30Z</time><name>PT1713</name></trkpt>
<trkpt lat="53.303691" lon="06.574660"><ele>19.9</ele><time>2021-05-20T10:08:30Z</time><name>PT1714</name></trkpt>
<trkpt lat="53.303702" lon="06.574660"><ele>19.8</ele><time>2021-05-20T10:08:32Z</time><name>PT1715</name></trkpt>
<trkpt lat="53.303714" lon="06.574660"><ele>19.7</ele><time>2021-05-20T10:08:32Z</time><name>PT1716</name></trkpt>
<trkpt lat="53.303726" lon="06.574659"><ele>19.7</ele><time>2021-05-20T10:08:34Z</time><name>PT1717</name></trkpt>
<trkpt lat="53.303737" lon="06.574658"><ele>19.7</ele><time>2021-05-20T10:08:34Z</time><name>PT1718</name></trkpt>
<trkpt lat="53.303748" lon="06.574658"><ele>19.9</ele><time>2021-05-20T10:08:36Z</time><name>PT1719</name></trkpt>
<trkpt lat="53.303760" lon="06.574657"><ele>19.9</ele><time>2021-05-20T10:08:36Z</time><name>PT1720</name></trkpt>
<trkpt lat="53.303772" lon="06.574657"><ele>19.8</ele><time>2021-05-20T10:08:38Z</time><name>PT1721</name></trkpt>
<trkpt lat="53.303784" lon="06.574657"><ele>19.9</ele><time>2021-05-20T10:08:38Z</time><name>PT1722</name></trkpt>
<trkpt lat="53.303795" lon="06.574656"><ele>19.9</ele><time>2021-05-20T10:08:40Z</time><name>PT1723</name></trkpt>
<trkpt lat="53.303804" lon="06.574654"><ele>20</ele><time>2021-05-20T10:08:40Z</time><name>PT1724</name></trkpt>
<trkpt lat="53.303813" lon="06.574653"><ele>20</ele><time>2021-05-20T10:08:42Z</time><name>PT1725</name></trkpt>
<trkpt lat="53.303824" lon="06.574653"><ele>20</ele><time>2021-05-20T10:08:42Z</time><name>PT1726</name></trkpt>
<trkpt lat="53.303835" lon="06.574656"><ele>20</ele><time>2021-05-20T10:08:44Z</time><name>PT1727</name></trkpt>
<trkpt lat="53.303846" lon="06.574657"><ele>19.9</ele><time>2021-05-20T10:08:44Z</time><name>PT1728</name></trkpt>
<trkpt lat="53.303859" lon="06.574656"><ele>19.8</ele><time>2021-05-20T10:08:46Z</time><name>PT1729</name></trkpt>
<trkpt lat="53.303871" lon="06.574655"><ele>19.7</ele><time>2021-05-20T10:08:46Z</time><name>PT1730</name></trkpt>
<trkpt lat="53.303883" lon="06.574655"><ele>19.8</ele><time>2021-05-20T10:08:48Z</time><name>PT1731</name></trkpt>
<trkpt lat="53.303896" lon="06.574653"><ele>19.6</ele><time>2021-05-20T10:08:48Z</time><name>PT1732</name></trkpt>
<trkpt lat="53.303907" lon="06.574652"><ele>19.9</ele><time>2021-05-20T10:08:50Z</time><name>PT1733</name></trkpt>
<trkpt lat="53.303920" lon="06.574650"><ele>20.1</ele><time>2021-05-20T10:08:50Z</time><name>PT1734</name></trkpt>
<trkpt lat="53.303933" lon="06.574647"><ele>20.1</ele><time>2021-05-20T10:08:52Z</time><name>PT1735</name></trkpt>
<trkpt lat="53.303945" lon="06.574648"><ele>20.1</ele><time>2021-05-20T10:08:52Z</time><name>PT1736</name></trkpt>
<trkpt lat="53.303955" lon="06.574650"><ele>19.9</ele><time>2021-05-20T10:08:54Z</time><name>PT1737</name></trkpt>
<trkpt lat="53.303965" lon="06.574651"><ele>19.7</ele><time>2021-05-20T10:08:54Z</time><name>PT1738</name></trkpt>
<trkpt lat="53.303973" lon="06.574650"><ele>19.6</ele><time>2021-05-20T10:08:56Z</time><name>PT1739</name></trkpt>
<trkpt lat="53.303981" lon="06.574650"><ele>19.6</ele><time>2021-05-20T10:08:56Z</time><name>PT1740</name></trkpt>
<trkpt lat="53.303990" lon="06.574649"><ele>19.6</ele><time>2021-05-20T10:08:58Z</time><name>PT1741</name></trkpt>
<trkpt lat="53.304000" lon="06.574648"><ele>19.7</ele><time>2021-05-20T10:08:58Z</time><name>PT1742</name></trkpt>
<trkpt lat="53.304008" lon="06.574648"><ele>19.8</ele><time>2021-05-20T10:09:00Z</time><name>PT1743</name></trkpt>
<trkpt lat="53.304019" lon="06.574646"><ele>19.7</ele><time>2021-05-20T10:09:00Z</time><name>PT1744</name></trkpt>
<trkpt lat="53.304029" lon="06.574646"><ele>19.6</ele><time>2021-05-20T10:09:02Z</time><name>PT1745</name></trkpt>
<trkpt lat="53.304039" lon="06.574647"><ele>19.6</ele><time>2021-05-20T10:09:02Z</time><name>PT1746</name></trkpt>
<trkpt lat="53.304050" lon="06.574646"><ele>19.6</ele><time>2021-05-20T10:09:04Z</time><name>PT1747</name></trkpt>
<trkpt lat="53.304062" lon="06.574646"><ele>19.5</ele><time>2021-05-20T10:09:04Z</time><name>PT1748</name></trkpt>
<trkpt lat="53.304074" lon="06.574645"><ele>19.8</ele><time>2021-05-20T10:09:06Z</time><name>PT1749</name></trkpt>
<trkpt lat="53.304086" lon="06.574646"><ele>19.9</ele><time>2021-05-20T10:09:06Z</time><name>PT1750</name></trkpt>
<trkpt lat="53.304100" lon="06.574645"><ele>20</ele><time>2021-05-20T10:09:08Z</time><name>PT1751</name></trkpt>
<trkpt lat="53.304113" lon="06.574646"><ele>20.1</ele><time>2021-05-20T10:09:08Z</time><name>PT1752</name></trkpt>
<trkpt lat="53.304126" lon="06.574647"><ele>20.1</ele><time>2021-05-20T10:09:10Z</time><name>PT1753</name></trkpt>
<trkpt lat="53.304136" lon="06.574648"><ele>20</ele><time>2021-05-20T10:09:10Z</time><name>PT1754</name></trkpt>
<trkpt lat="53.304148" lon="06.574648"><ele>20.1</ele><time>2021-05-20T10:09:12Z</time><name>PT1755</name></trkpt>
<trkpt lat="53.304159" lon="06.574647"><ele>20.1</ele><time>2021-05-20T10:09:12Z</time><name>PT1756</name></trkpt>
<trkpt lat="53.304170" lon="06.574647"><ele>20.1</ele><time>2021-05-20T10:09:14Z</time><name>PT1757</name></trkpt>
<trkpt lat="53.304181" lon="06.574647"><ele>20.2</ele><time>2021-05-20T10:09:14Z</time><name>PT1758</name></trkpt>
<trkpt lat="53.304194" lon="06.574647"><ele>20.2</ele><time>2021-05-20T10:09:16Z</time><name>PT1759</name></trkpt>
<trkpt lat="53.304205" lon="06.574646"><ele>20.1</ele><time>2021-05-20T10:09:16Z</time><name>PT1760</name></trkpt>
<trkpt lat="53.304218" lon="06.574647"><ele>20</ele><time>2021-05-20T10:09:18Z</time><name>PT1761</name></trkpt>
<trkpt lat="53.304230" lon="06.574648"><ele>20</ele><time>2021-05-20T10:09:18Z</time><name>PT1762</name></trkpt>
<trkpt lat="53.304243" lon="06.574646"><ele>19.9</ele><time>2021-05-20T10:09:20Z</time><name>PT1763</name></trkpt>
<trkpt lat="53.304253" lon="06.574647"><ele>20.1</ele><time>2021-05-20T10:09:20Z</time><name>PT1764</name></trkpt>
<trkpt lat="53.304265" lon="06.574648"><ele>19.9</ele><time>2021-05-20T10:09:22Z</time><name>PT1765</name></trkpt>
<trkpt lat="53.304276" lon="06.574649"><ele>19.8</ele><time>2021-05-20T10:09:22Z</time><name>PT1766</name></trkpt>
<trkpt lat="53.304288" lon="06.574650"><ele>19.8</ele><time>2021-05-20T10:09:24Z</time><name>PT1767</name></trkpt>
<trkpt lat="53.304300" lon="06.574650"><ele>19.8</ele><time>2021-05-20T10:09:24Z</time><name>PT1768</name></trkpt>
<trkpt lat="53.304312" lon="06.574648"><ele>19.9</ele><time>2021-05-20T10:09:26Z</time><name>PT1769</name></trkpt>
<trkpt lat="53.304322" lon="06.574646"><ele>20</ele><time>2021-05-20T10:09:26Z</time><name>PT1770</name></trkpt>
<trkpt lat="53.304334" lon="06.574645"><ele>19.8</ele><time>2021-05-20T10:09:28Z</time><name>PT1771</name></trkpt>
<trkpt lat="53.304345" lon="06.574645"><ele>19.8</ele><time>2021-05-20T10:09:28Z</time><name>PT1772</name></trkpt>
<trkpt lat="53.304356" lon="06.574644"><ele>20</ele><time>2021-05-20T10:09:30Z</time><name>PT1773</name></trkpt>
<trkpt lat="53.304368" lon="06.574643"><ele>19.9</ele><time>2021-05-20T10:09:30Z</time><name>PT1774</name></trkpt>
<trkpt lat="53.304382" lon="06.574641"><ele>20.1</ele><time>2021-05-20T10:09:32Z</time><name>PT1775</name></trkpt>
<trkpt lat="53.304394" lon="06.574641"><ele>20.1</ele><time>2021-05-20T10:09:32Z</time><name>PT1776</name></trkpt>
<trkpt lat="53.304404" lon="06.574641"><ele>20.1</ele><time>2021-05-20T10:09:34Z</time><name>PT1777</name></trkpt>
<trkpt lat="53.304415" lon="06.574642"><ele>20</ele><time>2021-05-20T10:09:34Z</time><name>PT1778</name></trkpt>
<trkpt lat="53.304426" lon="06.574642"><ele>19.8</ele><time>2021-05-20T10:09:36Z</time><name>PT1779</name></trkpt>
<trkpt lat="53.304437" lon="06.574641"><ele>20.1</ele><time>2021-05-20T10:09:36Z</time><name>PT1780</name></trkpt>
<trkpt lat="53.304447" lon="06.574640"><ele>20.1</ele><time>2021-05-20T10:09:38Z</time><name>PT1781</name></trkpt>
<trkpt lat="53.304457" lon="06.574638"><ele>20.3</ele><time>2021-05-20T10:09:38Z</time><name>PT1782</name></trkpt>
<trkpt lat="53.304469" lon="06.574637"><ele>20.2</ele><time>2021-05-20T10:09:40Z</time><name>PT1783</name></trkpt>
<trkpt lat="53.304482" lon="06.574635"><ele>20.1</ele><time>2021-05-20T10:09:40Z</time><name>PT1784</name></trkpt>
<trkpt lat="53.304494" lon="06.574634"><ele>19.9</ele><time>2021-05-20T10:09:42Z</time><name>PT1785</name></trkpt>
<trkpt lat="53.304504" lon="06.574635"><ele>19.8</ele><time>2021-05-20T10:09:42Z</time><name>PT1786</name></trkpt>
<trkpt lat="53.304516" lon="06.574636"><ele>19.7</ele><time>2021-05-20T10:09:44Z</time><name>PT1787</name></trkpt>
<trkpt lat="53.304528" lon="06.574635"><ele>19.9</ele><time>2021-05-20T10:09:44Z</time><name>PT1788</name></trkpt>
<trkpt lat="53.304539" lon="06.574632"><ele>20.1</ele><time>2021-05-20T10:09:46Z</time><name>PT1789</name></trkpt>
<trkpt lat="53.304550" lon="06.574632"><ele>20.1</ele><time>2021-05-20T10:09:46Z</time><name>PT1790</name></trkpt>
<trkpt lat="53.304561" lon="06.574633"><ele>20.1</ele><time>2021-05-20T10:09:47Z</time><name>PT1791</name></trkpt>
<trkpt lat="53.304573" lon="06.574631"><ele>20.1</ele><time>2021-05-20T10:09:49Z</time><name>PT1792</name></trkpt>
<trkpt lat="53.304585" lon="06.574630"><ele>20.1</ele><time>2021-05-20T10:09:49Z</time><name>PT1793</name></trkpt>
<trkpt lat="53.304596" lon="06.574627"><ele>20.1</ele><time>2021-05-20T10:09:51Z</time><name>PT1794</name></trkpt>
<trkpt lat="53.304607" lon="06.574624"><ele>20.1</ele><time>2021-05-20T10:09:51Z</time><name>PT1795</name></trkpt>
<trkpt lat="53.304619" lon="06.574620"><ele>20.1</ele><time>2021-05-20T10:09:53Z</time><name>PT1796</name></trkpt>
<trkpt lat="53.304630" lon="06.574618"><ele>20.1</ele><time>2021-05-20T10:09:53Z</time><name>PT1797</name></trkpt>
<trkpt lat="53.304643" lon="06.574615"><ele>20.1</ele><time>2021-05-20T10:09:55Z</time><name>PT1798</name></trkpt>
<trkpt lat="53.304654" lon="06.574615"><ele>20.1</ele><time>2021-05-20T10:09:55Z</time><name>PT1799</name></trkpt>
<trkpt lat="53.304667" lon="06.574613"><ele>20.1</ele><time>2021-05-20T10:09:57Z</time><name>PT1800</name></trkpt>
<trkpt lat="53.304677" lon="06.574610"><ele>20</ele><time>2021-05-20T10:09:57Z</time><name>PT1801</name></trkpt>
<trkpt lat="53.304690" lon="06.574608"><ele>20.1</ele><time>2021-05-20T10:09:59Z</time><name>PT1802</name></trkpt>
<trkpt lat="53.304703" lon="06.574608"><ele>20.1</ele><time>2021-05-20T10:09:59Z</time><name>PT1803</name></trkpt>
<trkpt lat="53.304714" lon="06.574608"><ele>20</ele><time>2021-05-20T10:10:01Z</time><name>PT1804</name></trkpt>
<trkpt lat="53.304727" lon="06.574607"><ele>20.1</ele><time>2021-05-20T10:10:01Z</time><name>PT1805</name></trkpt>
<trkpt lat="53.304738" lon="06.574607"><ele>20.1</ele><time>2021-05-20T10:10:03Z</time><name>PT1806</name></trkpt>
<trkpt lat="53.304749" lon="06.574608"><ele>19.9</ele><time>2021-05-20T10:10:03Z</time><name>PT1807</name></trkpt>
<trkpt lat="53.304761" lon="06.574606"><ele>19.9</ele><time>2021-05-20T10:10:05Z</time><name>PT1808</name></trkpt>
<trkpt lat="53.304771" lon="06.574606"><ele>20</ele><time>2021-05-20T10:10:05Z</time><name>PT1809</name></trkpt>
<trkpt lat="53.304782" lon="06.574606"><ele>20</ele><time>2021-05-20T10:10:07Z</time><name>PT1810</name></trkpt>
<trkpt lat="53.304796" lon="06.574605"><ele>20</ele><time>2021-05-20T10:10:07Z</time><name>PT1811</name></trkpt>
<trkpt lat="53.304808" lon="06.574602"><ele>20.1</ele><time>2021-05-20T10:10:09Z</time><name>PT1812</name></trkpt>
<trkpt lat="53.304819" lon="06.574600"><ele>20</ele><time>2021-05-20T10:10:09Z</time><name>PT1813</name></trkpt>
<trkpt lat="53.304828" lon="06.574598"><ele>20.1</ele><time>2021-05-20T10:10:11Z</time><name>PT1814</name></trkpt>
<trkpt lat="53.304840" lon="06.574595"><ele>20.1</ele><time>2021-05-20T10:10:11Z</time><name>PT1815</name></trkpt>
<trkpt lat="53.304853" lon="06.574593"><ele>20.1</ele><time>2021-05-20T10:10:13Z</time><name>PT1816</name></trkpt>
<trkpt lat="53.304864" lon="06.574591"><ele>20.1</ele><time>2021-05-20T10:10:13Z</time><name>PT1817</name></trkpt>
<trkpt lat="53.304877" lon="06.574590"><ele>20</ele><time>2021-05-20T10:10:15Z</time><name>PT1818</name></trkpt>
<trkpt lat="53.304889" lon="06.574587"><ele>19.9</ele><time>2021-05-20T10:10:15Z</time><name>PT1819</name></trkpt>
<trkpt lat="53.304900" lon="06.574587"><ele>19.9</ele><time>2021-05-20T10:10:17Z</time><name>PT1820</name></trkpt>
<trkpt lat="53.304911" lon="06.574587"><ele>20</ele><time>2021-05-20T10:10:17Z</time><name>PT1821</name></trkpt>
<trkpt lat="53.304921" lon="06.574589"><ele>20</ele><time>2021-05-20T10:10:19Z</time><name>PT1822</name></trkpt>
<trkpt lat="53.304934" lon="06.574592"><ele>20.1</ele><time>2021-05-20T10:10:19Z</time><name>PT1823</name></trkpt>
<trkpt lat="53.304945" lon="06.574594"><ele>20.1</ele><time>2021-05-20T10:10:21Z</time><name>PT1824</name></trkpt>
<trkpt lat="53.304955" lon="06.574593"><ele>20.2</ele><time>2021-05-20T10:10:21Z</time><name>PT1825</name></trkpt>
<trkpt lat="53.304965" lon="06.574592"><ele>20.3</ele><time>2021-05-20T10:10:23Z</time><name>PT1826</name></trkpt>
<trkpt lat="53.304974" lon="06.574592"><ele>20.3</ele><time>2021-05-20T10:10:23Z</time><name>PT1827</name></trkpt>
<trkpt lat="53.304982" lon="06.574592"><ele>20.3</ele><time>2021-05-20T10:10:25Z</time><name>PT1828</name></trkpt>
<trkpt lat="53.304990" lon="06.574592"><ele>20.3</ele><time>2021-05-20T10:10:25Z</time><name>PT1829</name></trkpt>
<trkpt lat="53.305001" lon="06.574595"><ele>20.2</ele><time>2021-05-20T10:10:27Z</time><name>PT1830</name></trkpt>
<trkpt lat="53.305014" lon="06.574597"><ele>20.2</ele><time>2021-05-20T10:10:27Z</time><name>PT1831</name></trkpt>
<trkpt lat="53.305027" lon="06.574598"><ele>20.4</ele><time>2021-05-20T10:10:29Z</time><name>PT1832</name></trkpt>
<trkpt lat="53.305040" lon="06.574600"><ele>20.3</ele><time>2021-05-20T10:10:29Z</time><name>PT1833</name></trkpt>
<trkpt lat="53.305053" lon="06.574598"><ele>20.1</ele><time>2021-05-20T10:10:31Z</time><name>PT1834</name></trkpt>
<trkpt lat="53.305065" lon="06.574595"><ele>20.1</ele><time>2021-05-20T10:10:31Z</time><name>PT1835</name></trkpt>
<trkpt lat="53.305077" lon="06.574595"><ele>20</ele><time>2021-05-20T10:10:33Z</time><name>PT1836</name></trkpt>
<trkpt lat="53.305084" lon="06.574593"><ele>19.9</ele><time>2021-05-20T10:10:33Z</time><name>PT1837</name></trkpt>
<trkpt lat="53.305092" lon="06.574591"><ele>20</ele><time>2021-05-20T10:10:35Z</time><name>PT1838</name></trkpt>
<trkpt lat="53.305101" lon="06.574590"><ele>20.1</ele><time>2021-05-20T10:10:35Z</time><name>PT1839</name></trkpt>
<trkpt lat="53.305111" lon="06.574588"><ele>20.1</ele><time>2021-05-20T10:10:37Z</time><name>PT1840</name></trkpt>
<trkpt lat="53.305119" lon="06.574589"><ele>20.1</ele><time>2021-05-20T10:10:37Z</time><name>PT1841</name></trkpt>
<trkpt lat="53.305126" lon="06.574590"><ele>19.9</ele><time>2021-05-20T10:10:39Z</time><name>PT1842</name></trkpt>
<trkpt lat="53.305131" lon="06.574588"><ele>20</ele><time>2021-05-20T10:10:39Z</time><name>PT1843</name></trkpt>
<trkpt lat="53.305135" lon="06.574584"><ele>20</ele><time>2021-05-20T10:10:41Z</time><name>PT1844</name></trkpt>
<trkpt lat="53.305136" lon="06.574583"><ele>19.9</ele><time>2021-05-20T10:10:41Z</time><name>PT1845</name></trkpt>
<trkpt lat="53.305134" lon="06.574583"><ele>19.9</ele><time>2021-05-20T10:10:43Z</time><name>PT1846</name></trkpt>
<trkpt lat="53.305134" lon="06.574583"><ele>20</ele><time>2021-05-20T10:10:43Z</time><name>PT1847</name></trkpt>
<trkpt lat="53.305135" lon="06.574587"><ele>20</ele><time>2021-05-20T10:11:08Z</time><name>PT1848</name></trkpt>
<trkpt lat="53.305136" lon="06.574588"><ele>20</ele><time>2021-05-20T10:11:08Z</time><name>PT1849</name></trkpt>
<trkpt lat="53.305136" lon="06.574588"><ele>19.7</ele><time>2021-05-20T10:11:10Z</time><name>PT1850</name></trkpt>
<trkpt lat="53.305135" lon="06.574588"><ele>19.8</ele><time>2021-05-20T10:11:10Z</time><name>PT1851</name></trkpt>
<trkpt lat="53.305135" lon="06.574586"><ele>19.9</ele><time>2021-05-20T10:12:03Z</time><name>PT1852</name></trkpt>
<trkpt lat="53.305135" lon="06.574581"><ele>19.8</ele><time>2021-05-20T10:12:05Z</time><name>PT1853</name></trkpt>
<trkpt lat="53.305138" lon="06.574572"><ele>19.5</ele><time>2021-05-20T10:13:05Z</time><name>PT1854</name></trkpt>
<trkpt lat="53.305138" lon="06.574570"><ele>19.6</ele><time>2021-05-20T10:13:05Z</time><name>PT1855</name></trkpt>
<trkpt lat="53.305139" lon="06.574568"><ele>19.7</ele><time>2021-05-20T10:13:07Z</time><name>PT1856</name></trkpt>
<trkpt lat="53.305142" lon="06.574564"><ele>19.9</ele><time>2021-05-20T10:13:07Z</time><name>PT1857</name></trkpt>
<trkpt lat="53.305143" lon="06.574563"><ele>19.4</ele><time>2021-05-20T10:14:29Z</time><name>PT1858</name></trkpt>
<trkpt lat="53.305144" lon="06.574563"><ele>19.5</ele><time>2021-05-20T10:14:29Z</time><name>PT1859</name></trkpt>
<trkpt lat="53.305141" lon="06.574567"><ele>19.6</ele><time>2021-05-20T10:14:30Z</time><name>PT1860</name></trkpt>
<trkpt lat="53.305143" lon="06.574563"><ele>19.3</ele><time>2021-05-20T10:14:35Z</time><name>PT1861</name></trkpt>
<trkpt lat="53.305143" lon="06.574565"><ele>19.4</ele><time>2021-05-20T10:14:37Z</time><name>PT1862</name></trkpt>
<trkpt lat="53.305143" lon="06.574567"><ele>19.4</ele><time>2021-05-20T10:14:37Z</time><name>PT1863</name></trkpt>
<trkpt lat="53.305144" lon="06.574567"><ele>19.4</ele><time>2021-05-20T10:14:39Z</time><name>PT1864</name></trkpt>
<trkpt lat="53.305144" lon="06.574566"><ele>19.4</ele><time>2021-05-20T10:14:39Z</time><name>PT1865</name></trkpt>
<trkpt lat="53.305145" lon="06.574565"><ele>19.3</ele><time>2021-05-20T10:14:41Z</time><name>PT1866</name></trkpt>
<trkpt lat="53.305147" lon="06.574567"><ele>19.3</ele><time>2021-05-20T10:15:25Z</time><name>PT1867</name></trkpt>
<trkpt lat="53.305147" lon="06.574571"><ele>19.3</ele><time>2021-05-20T10:15:25Z</time><name>PT1868</name></trkpt>
<trkpt lat="53.305147" lon="06.574573"><ele>19.4</ele><time>2021-05-20T10:15:27Z</time><name>PT1869</name></trkpt>
<trkpt lat="53.305153" lon="06.574568"><ele>19.8</ele><time>2021-05-20T10:16:09Z</time><name>PT1870</name></trkpt>
<trkpt lat="53.305162" lon="06.574570"><ele>19.8</ele><time>2021-05-20T10:16:10Z</time><name>PT1871</name></trkpt>
<trkpt lat="53.305172" lon="06.574571"><ele>19.7</ele><time>2021-05-20T10:16:12Z</time><name>PT1872</name></trkpt>
<trkpt lat="53.305182" lon="06.574570"><ele>19.8</ele><time>2021-05-20T10:16:12Z</time><name>PT1873</name></trkpt>
<trkpt lat="53.305190" lon="06.574570"><ele>19.6</ele><time>2021-05-20T10:16:14Z</time><name>PT1874</name></trkpt>
<trkpt lat="53.305193" lon="06.574573"><ele>19.7</ele><time>2021-05-20T10:16:14Z</time><name>PT1875</name></trkpt>
<trkpt lat="53.305192" lon="06.574576"><ele>19.9</ele><time>2021-05-20T10:16:16Z</time><name>PT1876</name></trkpt>
<trkpt lat="53.305200" lon="06.574578"><ele>20</ele><time>2021-05-20T10:16:16Z</time><name>PT1877</name></trkpt>
<trkpt lat="53.305210" lon="06.574583"><ele>20.1</ele><time>2021-05-20T10:16:18Z</time><name>PT1878</name></trkpt>
<trkpt lat="53.305220" lon="06.574586"><ele>20.1</ele><time>2021-05-20T10:16:18Z</time><name>PT1879</name></trkpt>
<trkpt lat="53.305233" lon="06.574596"><ele>20.3</ele><time>2021-05-20T10:16:20Z</time><name>PT1880</name></trkpt>
<trkpt lat="53.305244" lon="06.574599"><ele>20.1</ele><time>2021-05-20T10:16:21Z</time><name>PT1881</name></trkpt>
<trkpt lat="53.305252" lon="06.574601"><ele>20.1</ele><time>2021-05-20T10:16:21Z</time><name>PT1882</name></trkpt>
<trkpt lat="53.305262" lon="06.574603"><ele>19.8</ele><time>2021-05-20T10:16:22Z</time><name>PT1883</name></trkpt>
<trkpt lat="53.305270" lon="06.574607"><ele>20</ele><time>2021-05-20T10:16:24Z</time><name>PT1884</name></trkpt>
<trkpt lat="53.305279" lon="06.574605"><ele>20</ele><time>2021-05-20T10:16:24Z</time><name>PT1885</name></trkpt>
<trkpt lat="53.305289" lon="06.574607"><ele>20.1</ele><time>2021-05-20T10:16:26Z</time><name>PT1886</name></trkpt>
<trkpt lat="53.305298" lon="06.574609"><ele>20.3</ele><time>2021-05-20T10:16:26Z</time><name>PT1887</name></trkpt>
<trkpt lat="53.305308" lon="06.574612"><ele>20.2</ele><time>2021-05-20T10:16:28Z</time><name>PT1888</name></trkpt>
<trkpt lat="53.305318" lon="06.574612"><ele>20.3</ele><time>2021-05-20T10:16:28Z</time><name>PT1889</name></trkpt>
<trkpt lat="53.305330" lon="06.574610"><ele>20.1</ele><time>2021-05-20T10:16:30Z</time><name>PT1890</name></trkpt>
<trkpt lat="53.305340" lon="06.574608"><ele>20.1</ele><time>2021-05-20T10:16:30Z</time><name>PT1891</name></trkpt>
<trkpt lat="53.305350" lon="06.574608"><ele>20</ele><time>2021-05-20T10:16:31Z</time><name>PT1892</name></trkpt>
<trkpt lat="53.305360" lon="06.574607"><ele>20.1</ele><time>2021-05-20T10:16:33Z</time><name>PT1893</name></trkpt>
<trkpt lat="53.305368" lon="06.574609"><ele>20</ele><time>2021-05-20T10:16:33Z</time><name>PT1894</name></trkpt>
<trkpt lat="53.305376" lon="06.574615"><ele>19.8</ele><time>2021-05-20T10:16:35Z</time><name>PT1895</name></trkpt>
<trkpt lat="53.305387" lon="06.574614"><ele>19.8</ele><time>2021-05-20T10:16:35Z</time><name>PT1896</name></trkpt>
<trkpt lat="53.305396" lon="06.574614"><ele>19.8</ele><time>2021-05-20T10:16:36Z</time><name>PT1897</name></trkpt>
<trkpt lat="53.305402" lon="06.574610"><ele>19.8</ele><time>2021-05-20T10:16:38Z</time><name>PT1898</name></trkpt>
<trkpt lat="53.305409" lon="06.574606"><ele>19.9</ele><time>2021-05-20T10:16:38Z</time><name>PT1899</name></trkpt>
<trkpt lat="53.305420" lon="06.574605"><ele>20</ele><time>2021-05-20T10:16:39Z</time><name>PT1900</name></trkpt>
<trkpt lat="53.305431" lon="06.574602"><ele>20</ele><time>2021-05-20T10:16:41Z</time><name>PT1901</name></trkpt>
<trkpt lat="53.305439" lon="06.574601"><ele>20.1</ele><time>2021-05-20T10:16:41Z</time><name>PT1902</name></trkpt>
<trkpt lat="53.305447" lon="06.574600"><ele>20.1</ele><time>2021-05-20T10:16:42Z</time><name>PT1903</name></trkpt>
<trkpt lat="53.305457" lon="06.574597"><ele>20.1</ele><time>2021-05-20T10:16:44Z</time><name>PT1904</name></trkpt>
<trkpt lat="53.305468" lon="06.574601"><ele>20.1</ele><time>2021-05-20T10:16:44Z</time><name>PT1905</name></trkpt>
<trkpt lat="53.305480" lon="06.574604"><ele>19.9</ele><time>2021-05-20T10:16:45Z</time><name>PT1906</name></trkpt>
<trkpt lat="53.305493" lon="06.574607"><ele>19.8</ele><time>2021-05-20T10:16:47Z</time><name>PT1907</name></trkpt>
<trkpt lat="53.305506" lon="06.574606"><ele>20</ele><time>2021-05-20T10:16:47Z</time><name>PT1908</name></trkpt>
<trkpt lat="53.305518" lon="06.574608"><ele>20.1</ele><time>2021-05-20T10:16:49Z</time><name>PT1909</name></trkpt>
<trkpt lat="53.305531" lon="06.574610"><ele>20.2</ele><time>2021-05-20T10:16:49Z</time><name>PT1910</name></trkpt>
<trkpt lat="53.305543" lon="06.574611"><ele>20.3</ele><time>2021-05-20T10:16:51Z</time><name>PT1911</name></trkpt>
<trkpt lat="53.305554" lon="06.574611"><ele>20.2</ele><time>2021-05-20T10:16:51Z</time><name>PT1912</name></trkpt>
<trkpt lat="53.305566" lon="06.574611"><ele>20.1</ele><time>2021-05-20T10:16:52Z</time><name>PT1913</name></trkpt>
<trkpt lat="53.305580" lon="06.574610"><ele>20</ele><time>2021-05-20T10:16:54Z</time><name>PT1914</name></trkpt>
<trkpt lat="53.305593" lon="06.574612"><ele>19.9</ele><time>2021-05-20T10:16:54Z</time><name>PT1915</name></trkpt>
<trkpt lat="53.305605" lon="06.574614"><ele>19.7</ele><time>2021-05-20T10:16:56Z</time><name>PT1916</name></trkpt>
<trkpt lat="53.305616" lon="06.574615"><ele>19.8</ele><time>2021-05-20T10:16:56Z</time><name>PT1917</name></trkpt>
<trkpt lat="53.305626" lon="06.574617"><ele>20.1</ele><time>2021-05-20T10:16:58Z</time><name>PT1918</name></trkpt>
<trkpt lat="53.305635" lon="06.574619"><ele>20.1</ele><time>2021-05-20T10:16:58Z</time><name>PT1919</name></trkpt>
<trkpt lat="53.305642" lon="06.574619"><ele>20.1</ele><time>2021-05-20T10:17:00Z</time><name>PT1920</name></trkpt>
<trkpt lat="53.305651" lon="06.574620"><ele>20.1</ele><time>2021-05-20T10:17:00Z</time><name>PT1921</name></trkpt>
<trkpt lat="53.305661" lon="06.574621"><ele>20.1</ele><time>2021-05-20T10:17:02Z</time><name>PT1922</name></trkpt>
<trkpt lat="53.305673" lon="06.574623"><ele>20</ele><time>2021-05-20T10:17:02Z</time><name>PT1923</name></trkpt>
<trkpt lat="53.305683" lon="06.574624"><ele>20.1</ele><time>2021-05-20T10:17:03Z</time><name>PT1924</name></trkpt>
<trkpt lat="53.305695" lon="06.574625"><ele>20.1</ele><time>2021-05-20T10:17:05Z</time><name>PT1925</name></trkpt>
<trkpt lat="53.305707" lon="06.574624"><ele>20.3</ele><time>2021-05-20T10:17:05Z</time><name>PT1926</name></trkpt>
<trkpt lat="53.305720" lon="06.574626"><ele>20.3</ele><time>2021-05-20T10:17:06Z</time><name>PT1927</name></trkpt>
<trkpt lat="53.305732" lon="06.574628"><ele>20.3</ele><time>2021-05-20T10:17:08Z</time><name>PT1928</name></trkpt>
<trkpt lat="53.305744" lon="06.574630"><ele>20.4</ele><time>2021-05-20T10:17:08Z</time><name>PT1929</name></trkpt>
<trkpt lat="53.305754" lon="06.574631"><ele>20.2</ele><time>2021-05-20T10:17:09Z</time><name>PT1930</name></trkpt>
<trkpt lat="53.305765" lon="06.574630"><ele>20.3</ele><time>2021-05-20T10:17:11Z</time><name>PT1931</name></trkpt>
<trkpt lat="53.305776" lon="06.574630"><ele>20.2</ele><time>2021-05-20T10:17:11Z</time><name>PT1932</name></trkpt>
<trkpt lat="53.305788" lon="06.574631"><ele>20.2</ele><time>2021-05-20T10:17:12Z</time><name>PT1933</name></trkpt>
<trkpt lat="53.305799" lon="06.574630"><ele>20.3</ele><time>2021-05-20T10:17:14Z</time><name>PT1934</name></trkpt>
<trkpt lat="53.305811" lon="06.574632"><ele>20.4</ele><time>2021-05-20T10:17:14Z</time><name>PT1935</name></trkpt>
<trkpt lat="53.305826" lon="06.574633"><ele>20.4</ele><time>2021-05-20T10:17:16Z</time><name>PT1936</name></trkpt>
<trkpt lat="53.305839" lon="06.574632"><ele>20.4</ele><time>2021-05-20T10:17:16Z</time><name>PT1937</name></trkpt>
<trkpt lat="53.305848" lon="06.574633"><ele>20.3</ele><time>2021-05-20T10:17:18Z</time><name>PT1938</name></trkpt>
<trkpt lat="53.305860" lon="06.574633"><ele>20.3</ele><time>2021-05-20T10:17:18Z</time><name>PT1939</name></trkpt>
<trkpt lat="53.305871" lon="06.574633"><ele>20.3</ele><time>2021-05-20T10:17:20Z</time><name>PT1940</name></trkpt>
<trkpt lat="53.305883" lon="06.574636"><ele>20.3</ele><time>2021-05-20T10:17:20Z</time><name>PT1941</name></trkpt>
<trkpt lat="53.305893" lon="06.574637"><ele>20.3</ele><time>2021-05-20T10:17:22Z</time><name>PT1942</name></trkpt>
<trkpt lat="53.305902" lon="06.574639"><ele>20.3</ele><time>2021-05-20T10:17:22Z</time><name>PT1943</name></trkpt>
<trkpt lat="53.305912" lon="06.574641"><ele>20.3</ele><time>2021-05-20T10:17:23Z</time><name>PT1944</name></trkpt>
<trkpt lat="53.305925" lon="06.574644"><ele>20.2</ele><time>2021-05-20T10:17:25Z</time><name>PT1945</name></trkpt>
<trkpt lat="53.305938" lon="06.574644"><ele>20.3</ele><time>2021-05-20T10:17:25Z</time><name>PT1946</name></trkpt>
<trkpt lat="53.305948" lon="06.574644"><ele>20.3</ele><time>2021-05-20T10:17:27Z</time><name>PT1947</name></trkpt>
<trkpt lat="53.305960" lon="06.574646"><ele>20.3</ele><time>2021-05-20T10:17:27Z</time><name>PT1948</name></trkpt>
<trkpt lat="53.305972" lon="06.574648"><ele>20.4</ele><time>2021-05-20T10:17:29Z</time><name>PT1949</name></trkpt>
<trkpt lat="53.305984" lon="06.574649"><ele>20.3</ele><time>2021-05-20T10:17:29Z</time><name>PT1950</name></trkpt>
<trkpt lat="53.305997" lon="06.574653"><ele>20.3</ele><time>2021-05-20T10:17:31Z</time><name>PT1951</name></trkpt>
<trkpt lat="53.306007" lon="06.574655"><ele>20.4</ele><time>2021-05-20T10:17:31Z</time><name>PT1952</name></trkpt>
<trkpt lat="53.306021" lon="06.574657"><ele>20.2</ele><time>2021-05-20T10:17:32Z</time><name>PT1953</name></trkpt>
<trkpt lat="53.306033" lon="06.574657"><ele>20.2</ele><time>2021-05-20T10:17:34Z</time><name>PT1954</name></trkpt>
<trkpt lat="53.306045" lon="06.574659"><ele>20.1</ele><time>2021-05-20T10:17:34Z</time><name>PT1955</name></trkpt>
<trkpt lat="53.306057" lon="06.574659"><ele>20.1</ele><time>2021-05-20T10:17:36Z</time><name>PT1956</name></trkpt>
<trkpt lat="53.306071" lon="06.574659"><ele>20.2</ele><time>2021-05-20T10:17:36Z</time><name>PT1957</name></trkpt>
<trkpt lat="53.306084" lon="06.574660"><ele>20.2</ele><time>2021-05-20T10:17:38Z</time><name>PT1958</name></trkpt>
<trkpt lat="53.306096" lon="06.574661"><ele>20.2</ele><time>2021-05-20T10:17:38Z</time><name>PT1959</name></trkpt>
<trkpt lat="53.306107" lon="06.574663"><ele>20.1</ele><time>2021-05-20T10:17:40Z</time><name>PT1960</name></trkpt>
<trkpt lat="53.306120" lon="06.574665"><ele>19.8</ele><time>2021-05-20T10:17:40Z</time><name>PT1961</name></trkpt>
<trkpt lat="53.306129" lon="06.574668"><ele>19.7</ele><time>2021-05-20T10:17:42Z</time><name>PT1962</name></trkpt>
<trkpt lat="53.306141" lon="06.574668"><ele>19.6</ele><time>2021-05-20T10:17:42Z</time><name>PT1963</name></trkpt>
<trkpt lat="53.306154" lon="06.574668"><ele>19.6</ele><time>2021-05-20T10:17:44Z</time><name>PT1964</name></trkpt>
<trkpt lat="53.306165" lon="06.574670"><ele>19.9</ele><time>2021-05-20T10:17:44Z</time><name>PT1965</name></trkpt>
<trkpt lat="53.306177" lon="06.574672"><ele>20.1</ele><time>2021-05-20T10:17:45Z</time><name>PT1966</name></trkpt>
<trkpt lat="53.306188" lon="06.574672"><ele>20.2</ele><time>2021-05-20T10:17:47Z</time><name>PT1967</name></trkpt>
<trkpt lat="53.306201" lon="06.574671"><ele>20.2</ele><time>2021-05-20T10:17:47Z</time><name>PT1968</name></trkpt>
<trkpt lat="53.306215" lon="06.574672"><ele>20.1</ele><time>2021-05-20T10:17:49Z</time><name>PT1969</name></trkpt>
<trkpt lat="53.306225" lon="06.574671"><ele>20.1</ele><time>2021-05-20T10:17:49Z</time><name>PT1970</name></trkpt>
<trkpt lat="53.306238" lon="06.574671"><ele>19.9</ele><time>2021-05-20T10:17:51Z</time><name>PT1971</name></trkpt>
<trkpt lat="53.306251" lon="06.574673"><ele>19.9</ele><time>2021-05-20T10:17:51Z</time><name>PT1972</name></trkpt>
<trkpt lat="53.306266" lon="06.574674"><ele>20</ele><time>2021-05-20T10:17:53Z</time><name>PT1973</name></trkpt>
<trkpt lat="53.306280" lon="06.574675"><ele>20.1</ele><time>2021-05-20T10:17:53Z</time><name>PT1974</name></trkpt>
<trkpt lat="53.306293" lon="06.574679"><ele>20.1</ele><time>2021-05-20T10:17:54Z</time><name>PT1975</name></trkpt>
<trkpt lat="53.306303" lon="06.574682"><ele>20.3</ele><time>2021-05-20T10:17:56Z</time><name>PT1976</name></trkpt>
<trkpt lat="53.306314" lon="06.574685"><ele>20.3</ele><time>2021-05-20T10:17:56Z</time><name>PT1977</name></trkpt>
<trkpt lat="53.306325" lon="06.574687"><ele>20.1</ele><time>2021-05-20T10:17:58Z</time><name>PT1978</name></trkpt>
<trkpt lat="53.306337" lon="06.574687"><ele>20.2</ele><time>2021-05-20T10:17:58Z</time><name>PT1979</name></trkpt>
<trkpt lat="53.306350" lon="06.574684"><ele>20.2</ele><time>2021-05-20T10:18:00Z</time><name>PT1980</name></trkpt>
<trkpt lat="53.306363" lon="06.574682"><ele>20.3</ele><time>2021-05-20T10:18:00Z</time><name>PT1981</name></trkpt>
<trkpt lat="53.306376" lon="06.574682"><ele>20.5</ele><time>2021-05-20T10:18:02Z</time><name>PT1982</name></trkpt>
<trkpt lat="53.306388" lon="06.574683"><ele>20.5</ele><time>2021-05-20T10:18:02Z</time><name>PT1983</name></trkpt>
<trkpt lat="53.306400" lon="06.574682"><ele>20.5</ele><time>2021-05-20T10:18:04Z</time><name>PT1984</name></trkpt>
<trkpt lat="53.306413" lon="06.574682"><ele>20.5</ele><time>2021-05-20T10:18:04Z</time><name>PT1985</name></trkpt>
<trkpt lat="53.306423" lon="06.574683"><ele>20.4</ele><time>2021-05-20T10:18:05Z</time><name>PT1986</name></trkpt>
<trkpt lat="53.306432" lon="06.574686"><ele>20.4</ele><time>2021-05-20T10:18:07Z</time><name>PT1987</name></trkpt>
<trkpt lat="53.306443" lon="06.574689"><ele>20.1</ele><time>2021-05-20T10:18:07Z</time><name>PT1988</name></trkpt>
<trkpt lat="53.306454" lon="06.574692"><ele>20.2</ele><time>2021-05-20T10:18:08Z</time><name>PT1989</name></trkpt>
<trkpt lat="53.306464" lon="06.574692"><ele>20.3</ele><time>2021-05-20T10:18:10Z</time><name>PT1990</name></trkpt>
<trkpt lat="53.306475" lon="06.574690"><ele>20.3</ele><time>2021-05-20T10:18:10Z</time><name>PT1991</name></trkpt>
<trkpt lat="53.306485" lon="06.574690"><ele>20.4</ele><time>2021-05-20T10:18:12Z</time><name>PT1992</name></trkpt>
<trkpt lat="53.306498" lon="06.574689"><ele>20.3</ele><time>2021-05-20T10:18:12Z</time><name>PT1993</name></trkpt>
<trkpt lat="53.306510" lon="06.574688"><ele>20.2</ele><time>2021-05-20T10:18:13Z</time><name>PT1994</name></trkpt>
<trkpt lat="53.306522" lon="06.574689"><ele>20.2</ele><time>2021-05-20T10:18:15Z</time><name>PT1995</name></trkpt>
<trkpt lat="53.306533" lon="06.574690"><ele>20.3</ele><time>2021-05-20T10:18:15Z</time><name>PT1996</name></trkpt>
<trkpt lat="53.306542" lon="06.574692"><ele>20.2</ele><time>2021-05-20T10:18:17Z</time><name>PT1997</name></trkpt>
<trkpt lat="53.306554" lon="06.574692"><ele>20.4</ele><time>2021-05-20T10:18:17Z</time><name>PT1998</name></trkpt>
<trkpt lat="53.306567" lon="06.574692"><ele>20.4</ele><time>2021-05-20T10:18:19Z</time><name>PT1999</name></trkpt>
<trkpt lat="53.306578" lon="06.574693"><ele>20.3</ele><time>2021-05-20T10:18:19Z</time><name>PT2000</name></trkpt>
<trkpt lat="53.306590" lon="06.574695"><ele>20.5</ele><time>2021-05-20T10:18:20Z</time><name>PT2001</name></trkpt>
<trkpt lat="53.306602" lon="06.574695"><ele>20.4</ele><time>2021-05-20T10:18:22Z</time><name>PT2002</name></trkpt>
<trkpt lat="53.306616" lon="06.574698"><ele>20.3</ele><time>2021-05-20T10:18:22Z</time><name>PT2003</name></trkpt>
<trkpt lat="53.306628" lon="06.574699"><ele>20.4</ele><time>2021-05-20T10:18:23Z</time><name>PT2004</name></trkpt>
<trkpt lat="53.306642" lon="06.574699"><ele>20.4</ele><time>2021-05-20T10:18:25Z</time><name>PT2005</name></trkpt>
<trkpt lat="53.306654" lon="06.574695"><ele>20.4</ele><time>2021-05-20T10:18:25Z</time><name>PT2006</name></trkpt>
<trkpt lat="53.306665" lon="06.574696"><ele>20.5</ele><time>2021-05-20T10:18:26Z</time><name>PT2007</name></trkpt>
<trkpt lat="53.306677" lon="06.574697"><ele>20.3</ele><time>2021-05-20T10:18:28Z</time><name>PT2008</name></trkpt>
<trkpt lat="53.306690" lon="06.574697"><ele>20.2</ele><time>2021-05-20T10:18:28Z</time><name>PT2009</name></trkpt>
<trkpt lat="53.306702" lon="06.574696"><ele>20</ele><time>2021-05-20T10:18:30Z</time><name>PT2010</name></trkpt>
<trkpt lat="53.306712" lon="06.574694"><ele>19.9</ele><time>2021-05-20T10:18:30Z</time><name>PT2011</name></trkpt>
<trkpt lat="53.306724" lon="06.574692"><ele>19.9</ele><time>2021-05-20T10:18:31Z</time><name>PT2012</name></trkpt>
<trkpt lat="53.306733" lon="06.574692"><ele>19.9</ele><time>2021-05-20T10:18:33Z</time><name>PT2013</name></trkpt>
<trkpt lat="53.306745" lon="06.574691"><ele>19.9</ele><time>2021-05-20T10:18:33Z</time><name>PT2014</name></trkpt>
<trkpt lat="53.306757" lon="06.574692"><ele>19.9</ele><time>2021-05-20T10:18:35Z</time><name>PT2015</name></trkpt>
<trkpt lat="53.306768" lon="06.574692"><ele>19.8</ele><time>2021-05-20T10:18:35Z</time><name>PT2016</name></trkpt>
<trkpt lat="53.306780" lon="06.574692"><ele>19.8</ele><time>2021-05-20T10:18:37Z</time><name>PT2017</name></trkpt>
<trkpt lat="53.306791" lon="06.574692"><ele>19.7</ele><time>2021-05-20T10:18:37Z</time><name>PT2018</name></trkpt>
<trkpt lat="53.306803" lon="06.574692"><ele>19.6</ele><time>2021-05-20T10:18:38Z</time><name>PT2019</name></trkpt>
<trkpt lat="53.306814" lon="06.574691"><ele>19.8</ele><time>2021-05-20T10:18:40Z</time><name>PT2020</name></trkpt>
<trkpt lat="53.306827" lon="06.574689"><ele>19.8</ele><time>2021-05-20T10:18:40Z</time><name>PT2021</name></trkpt>
<trkpt lat="53.306838" lon="06.574689"><ele>19.9</ele><time>2021-05-20T10:18:42Z</time><name>PT2022</name></trkpt>
<trkpt lat="53.306848" lon="06.574688"><ele>19.9</ele><time>2021-05-20T10:18:42Z</time><name>PT2023</name></trkpt>
<trkpt lat="53.306858" lon="06.574686"><ele>20.1</ele><time>2021-05-20T10:18:44Z</time><name>PT2024</name></trkpt>
<trkpt lat="53.306867" lon="06.574685"><ele>20</ele><time>2021-05-20T10:18:44Z</time><name>PT2025</name></trkpt>
<trkpt lat="53.306878" lon="06.574687"><ele>19.9</ele><time>2021-05-20T10:18:45Z</time><name>PT2026</name></trkpt>
<trkpt lat="53.306890" lon="06.574688"><ele>19.9</ele><time>2021-05-20T10:18:47Z</time><name>PT2027</name></trkpt>
<trkpt lat="53.306911" lon="06.574688"><ele>19.9</ele><time>2021-05-20T10:18:49Z</time><name>PT2028</name></trkpt>
<trkpt lat="53.306924" lon="06.574690"><ele>19.9</ele><time>2021-05-20T10:18:49Z</time><name>PT2029</name></trkpt>
<trkpt lat="53.306936" lon="06.574691"><ele>19.7</ele><time>2021-05-20T10:18:51Z</time><name>PT2030</name></trkpt>
<trkpt lat="53.306948" lon="06.574691"><ele>19.7</ele><time>2021-05-20T10:18:51Z</time><name>PT2031</name></trkpt>
<trkpt lat="53.306961" lon="06.574692"><ele>19.7</ele><time>2021-05-20T10:18:53Z</time><name>PT2032</name></trkpt>
<trkpt lat="53.306975" lon="06.574692"><ele>19.7</ele><time>2021-05-20T10:18:53Z</time><name>PT2033</name></trkpt>
<trkpt lat="53.306988" lon="06.574691"><ele>19.6</ele><time>2021-05-20T10:18:55Z</time><name>PT2034</name></trkpt>
<trkpt lat="53.307001" lon="06.574691"><ele>19.8</ele><time>2021-05-20T10:18:55Z</time><name>PT2035</name></trkpt>
<trkpt lat="53.307027" lon="06.574690"><ele>19.6</ele><time>2021-05-20T10:18:58Z</time><name>PT2036</name></trkpt>
<trkpt lat="53.307041" lon="06.574689"><ele>19.8</ele><time>2021-05-20T10:18:58Z</time><name>PT2037</name></trkpt>
<trkpt lat="53.307054" lon="06.574690"><ele>20</ele><time>2021-05-20T10:19:00Z</time><name>PT2038</name></trkpt>
<trkpt lat="53.307066" lon="06.574692"><ele>19.9</ele><time>2021-05-20T10:19:00Z</time><name>PT2039</name></trkpt>
<trkpt lat="53.307077" lon="06.574700"><ele>20.1</ele><time>2021-05-20T10:19:02Z</time><name>PT2040</name></trkpt>
<trkpt lat="53.307088" lon="06.574702"><ele>20.1</ele><time>2021-05-20T10:19:02Z</time><name>PT2041</name></trkpt>
<trkpt lat="53.307102" lon="06.574703"><ele>19.9</ele><time>2021-05-20T10:19:03Z</time><name>PT2042</name></trkpt>
<trkpt lat="53.307117" lon="06.574704"><ele>20</ele><time>2021-05-20T10:19:05Z</time><name>PT2043</name></trkpt>
<trkpt lat="53.307130" lon="06.574705"><ele>20.1</ele><time>2021-05-20T10:19:05Z</time><name>PT2044</name></trkpt>
<trkpt lat="53.307141" lon="06.574703"><ele>20.1</ele><time>2021-05-20T10:19:06Z</time><name>PT2045</name></trkpt>
<trkpt lat="53.307151" lon="06.574703"><ele>20.3</ele><time>2021-05-20T10:19:08Z</time><name>PT2046</name></trkpt>
<trkpt lat="53.307163" lon="06.574705"><ele>20.3</ele><time>2021-05-20T10:19:08Z</time><name>PT2047</name></trkpt>
<trkpt lat="53.307173" lon="06.574709"><ele>20.2</ele><time>2021-05-20T10:19:10Z</time><name>PT2048</name></trkpt>
<trkpt lat="53.307183" lon="06.574711"><ele>20.3</ele><time>2021-05-20T10:19:10Z</time><name>PT2049</name></trkpt>
<trkpt lat="53.307194" lon="06.574713"><ele>20.1</ele><time>2021-05-20T10:19:11Z</time><name>PT2050</name></trkpt>
<trkpt lat="53.307205" lon="06.574713"><ele>20.1</ele><time>2021-05-20T10:19:13Z</time><name>PT2051</name></trkpt>
<trkpt lat="53.307217" lon="06.574720"><ele>20.1</ele><time>2021-05-20T10:19:13Z</time><name>PT2052</name></trkpt>
<trkpt lat="53.307228" lon="06.574724"><ele>20.1</ele><time>2021-05-20T10:19:15Z</time><name>PT2053</name></trkpt>
<trkpt lat="53.307241" lon="06.574725"><ele>20.1</ele><time>2021-05-20T10:19:15Z</time><name>PT2054</name></trkpt>
<trkpt lat="53.307254" lon="06.574726"><ele>20.1</ele><time>2021-05-20T10:19:17Z</time><name>PT2055</name></trkpt>
<trkpt lat="53.307265" lon="06.574727"><ele>20.1</ele><time>2021-05-20T10:19:17Z</time><name>PT2056</name></trkpt>
<trkpt lat="53.307276" lon="06.574728"><ele>20.1</ele><time>2021-05-20T10:19:18Z</time><name>PT2057</name></trkpt>
<trkpt lat="53.307288" lon="06.574728"><ele>20.1</ele><time>2021-05-20T10:19:20Z</time><name>PT2058</name></trkpt>
<trkpt lat="53.307298" lon="06.574732"><ele>20.1</ele><time>2021-05-20T10:19:20Z</time><name>PT2059</name></trkpt>
<trkpt lat="53.307309" lon="06.574734"><ele>20.2</ele><time>2021-05-20T10:19:22Z</time><name>PT2060</name></trkpt>
<trkpt lat="53.307319" lon="06.574736"><ele>20.1</ele><time>2021-05-20T10:19:22Z</time><name>PT2061</name></trkpt>
<trkpt lat="53.307333" lon="06.574743"><ele>19.7</ele><time>2021-05-20T10:19:24Z</time><name>PT2062</name></trkpt>
<trkpt lat="53.307345" lon="06.574746"><ele>19.7</ele><time>2021-05-20T10:19:24Z</time><name>PT2063</name></trkpt>
<trkpt lat="53.307355" lon="06.574748"><ele>19.7</ele><time>2021-05-20T10:19:26Z</time><name>PT2064</name></trkpt>
<trkpt lat="53.307366" lon="06.574750"><ele>19.6</ele><time>2021-05-20T10:19:26Z</time><name>PT2065</name></trkpt>
<trkpt lat="53.307380" lon="06.574756"><ele>19.8</ele><time>2021-05-20T10:19:27Z</time><name>PT2066</name></trkpt>
<trkpt lat="53.307391" lon="06.574763"><ele>20</ele><time>2021-05-20T10:19:29Z</time><name>PT2067</name></trkpt>
<trkpt lat="53.307404" lon="06.574768"><ele>19.9</ele><time>2021-05-20T10:19:29Z</time><name>PT2068</name></trkpt>
<trkpt lat="53.307416" lon="06.574772"><ele>20.1</ele><time>2021-05-20T10:19:31Z</time><name>PT2069</name></trkpt>
<trkpt lat="53.307429" lon="06.574774"><ele>19.9</ele><time>2021-05-20T10:19:31Z</time><name>PT2070</name></trkpt>
<trkpt lat="53.307442" lon="06.574775"><ele>20.1</ele><time>2021-05-20T10:19:33Z</time><name>PT2071</name></trkpt>
<trkpt lat="53.307455" lon="06.574777"><ele>20.1</ele><time>2021-05-20T10:19:33Z</time><name>PT2072</name></trkpt>
<trkpt lat="53.307465" lon="06.574781"><ele>20.1</ele><time>2021-05-20T10:19:35Z</time><name>PT2073</name></trkpt>
<trkpt lat="53.307477" lon="06.574782"><ele>20</ele><time>2021-05-20T10:19:35Z</time><name>PT2074</name></trkpt>
<trkpt lat="53.307489" lon="06.574784"><ele>19.9</ele><time>2021-05-20T10:19:36Z</time><name>PT2075</name></trkpt>
<trkpt lat="53.307499" lon="06.574786"><ele>19.8</ele><time>2021-05-20T10:19:38Z</time><name>PT2076</name></trkpt>
<trkpt lat="53.307512" lon="06.574787"><ele>19.8</ele><time>2021-05-20T10:19:38Z</time><name>PT2077</name></trkpt>
<trkpt lat="53.307524" lon="06.574788"><ele>20.1</ele><time>2021-05-20T10:19:40Z</time><name>PT2078</name></trkpt>
<trkpt lat="53.307538" lon="06.574789"><ele>20.1</ele><time>2021-05-20T10:19:40Z</time><name>PT2079</name></trkpt>
<trkpt lat="53.307550" lon="06.574792"><ele>20.1</ele><time>2021-05-20T10:19:42Z</time><name>PT2080</name></trkpt>
<trkpt lat="53.307562" lon="06.574795"><ele>20.1</ele><time>2021-05-20T10:19:42Z</time><name>PT2081</name></trkpt>
<trkpt lat="53.307573" lon="06.574799"><ele>20.1</ele><time>2021-05-20T10:19:43Z</time><name>PT2082</name></trkpt>
<trkpt lat="53.307586" lon="06.574803"><ele>20</ele><time>2021-05-20T10:19:45Z</time><name>PT2083</name></trkpt>
<trkpt lat="53.307597" lon="06.574807"><ele>20.1</ele><time>2021-05-20T10:19:45Z</time><name>PT2084</name></trkpt>
<trkpt lat="53.307608" lon="06.574809"><ele>20.1</ele><time>2021-05-20T10:19:47Z</time><name>PT2085</name></trkpt>
<trkpt lat="53.307620" lon="06.574812"><ele>19.9</ele><time>2021-05-20T10:19:47Z</time><name>PT2086</name></trkpt>
<trkpt lat="53.307631" lon="06.574817"><ele>20.1</ele><time>2021-05-20T10:19:49Z</time><name>PT2087</name></trkpt>
<trkpt lat="53.307643" lon="06.574822"><ele>20.1</ele><time>2021-05-20T10:19:49Z</time><name>PT2088</name></trkpt>
<trkpt lat="53.307655" lon="06.574827"><ele>19.9</ele><time>2021-05-20T10:19:51Z</time><name>PT2089</name></trkpt>
<trkpt lat="53.307667" lon="06.574832"><ele>20.1</ele><time>2021-05-20T10:19:51Z</time><name>PT2090</name></trkpt>
<trkpt lat="53.307681" lon="06.574836"><ele>20.1</ele><time>2021-05-20T10:19:52Z</time><name>PT2091</name></trkpt>
<trkpt lat="53.307694" lon="06.574840"><ele>20.2</ele><time>2021-05-20T10:19:54Z</time><name>PT2092</name></trkpt>
<trkpt lat="53.307706" lon="06.574843"><ele>20.3</ele><time>2021-05-20T10:19:54Z</time><name>PT2093</name></trkpt>
<trkpt lat="53.307717" lon="06.574846"><ele>20.4</ele><time>2021-05-20T10:19:55Z</time><name>PT2094</name></trkpt>
<trkpt lat="53.307729" lon="06.574847"><ele>20.2</ele><time>2021-05-20T10:19:57Z</time><name>PT2095</name></trkpt>
<trkpt lat="53.307741" lon="06.574850"><ele>20.1</ele><time>2021-05-20T10:19:57Z</time><name>PT2096</name></trkpt>
<trkpt lat="53.307751" lon="06.574853"><ele>20</ele><time>2021-05-20T10:19:58Z</time><name>PT2097</name></trkpt>
<trkpt lat="53.307762" lon="06.574857"><ele>19.9</ele><time>2021-05-20T10:20:00Z</time><name>PT2098</name></trkpt>
<trkpt lat="53.307776" lon="06.574860"><ele>20</ele><time>2021-05-20T10:20:00Z</time><name>PT2099</name></trkpt>
<trkpt lat="53.307790" lon="06.574863"><ele>20</ele><time>2021-05-20T10:20:02Z</time><name>PT2100</name></trkpt>
<trkpt lat="53.307805" lon="06.574866"><ele>19.9</ele><time>2021-05-20T10:20:02Z</time><name>PT2101</name></trkpt>
<trkpt lat="53.307818" lon="06.574870"><ele>19.7</ele><time>2021-05-20T10:20:04Z</time><name>PT2102</name></trkpt>
<trkpt lat="53.307830" lon="06.574874"><ele>19.7</ele><time>2021-05-20T10:20:04Z</time><name>PT2103</name></trkpt>
<trkpt lat="53.307845" lon="06.574881"><ele>19.8</ele><time>2021-05-20T10:20:06Z</time><name>PT2104</name></trkpt>
<trkpt lat="53.307857" lon="06.574886"><ele>19.8</ele><time>2021-05-20T10:20:06Z</time><name>PT2105</name></trkpt>
<trkpt lat="53.307869" lon="06.574889"><ele>19.9</ele><time>2021-05-20T10:20:08Z</time><name>PT2106</name></trkpt>
<trkpt lat="53.307881" lon="06.574893"><ele>20</ele><time>2021-05-20T10:20:08Z</time><name>PT2107</name></trkpt>
<trkpt lat="53.307892" lon="06.574900"><ele>20</ele><time>2021-05-20T10:20:09Z</time><name>PT2108</name></trkpt>
<trkpt lat="53.307903" lon="06.574903"><ele>19.9</ele><time>2021-05-20T10:20:11Z</time><name>PT2109</name></trkpt>
<trkpt lat="53.307914" lon="06.574908"><ele>20.1</ele><time>2021-05-20T10:20:11Z</time><name>PT2110</name></trkpt>
<trkpt lat="53.307924" lon="06.574913"><ele>20</ele><time>2021-05-20T10:20:12Z</time><name>PT2111</name></trkpt>
<trkpt lat="53.307934" lon="06.574917"><ele>19.8</ele><time>2021-05-20T10:20:14Z</time><name>PT2112</name></trkpt>
<trkpt lat="53.307945" lon="06.574921"><ele>19.9</ele><time>2021-05-20T10:20:14Z</time><name>PT2113</name></trkpt>
<trkpt lat="53.307956" lon="06.574927"><ele>19.7</ele><time>2021-05-20T10:20:15Z</time><name>PT2114</name></trkpt>
<trkpt lat="53.307969" lon="06.574930"><ele>19.8</ele><time>2021-05-20T10:20:17Z</time><name>PT2115</name></trkpt>
<trkpt lat="53.307980" lon="06.574933"><ele>19.8</ele><time>2021-05-20T10:20:17Z</time><name>PT2116</name></trkpt>
<trkpt lat="53.307992" lon="06.574934"><ele>19.6</ele><time>2021-05-20T10:20:19Z</time><name>PT2117</name></trkpt>
<trkpt lat="53.308004" lon="06.574939"><ele>19.7</ele><time>2021-05-20T10:20:19Z</time><name>PT2118</name></trkpt>
<trkpt lat="53.308016" lon="06.574941"><ele>19.6</ele><time>2021-05-20T10:20:21Z</time><name>PT2119</name></trkpt>
<trkpt lat="53.308028" lon="06.574944"><ele>19.5</ele><time>2021-05-20T10:20:21Z</time><name>PT2120</name></trkpt>
<trkpt lat="53.308041" lon="06.574946"><ele>19.6</ele><time>2021-05-20T10:20:23Z</time><name>PT2121</name></trkpt>
<trkpt lat="53.308054" lon="06.574950"><ele>19.9</ele><time>2021-05-20T10:20:23Z</time><name>PT2122</name></trkpt>
<trkpt lat="53.308067" lon="06.574955"><ele>20</ele><time>2021-05-20T10:20:25Z</time><name>PT2123</name></trkpt>
<trkpt lat="53.308081" lon="06.574958"><ele>20.1</ele><time>2021-05-20T10:20:25Z</time><name>PT2124</name></trkpt>
<trkpt lat="53.308094" lon="06.574961"><ele>20.2</ele><time>2021-05-20T10:20:26Z</time><name>PT2125</name></trkpt>
<trkpt lat="53.308107" lon="06.574966"><ele>20.2</ele><time>2021-05-20T10:20:28Z</time><name>PT2126</name></trkpt>
<trkpt lat="53.308120" lon="06.574971"><ele>20.2</ele><time>2021-05-20T10:20:28Z</time><name>PT2127</name></trkpt>
<trkpt lat="53.308133" lon="06.574976"><ele>20.1</ele><time>2021-05-20T10:20:29Z</time><name>PT2128</name></trkpt>
<trkpt lat="53.308144" lon="06.574982"><ele>19.9</ele><time>2021-05-20T10:20:31Z</time><name>PT2129</name></trkpt>
<trkpt lat="53.308156" lon="06.574987"><ele>19.8</ele><time>2021-05-20T10:20:31Z</time><name>PT2130</name></trkpt>
<trkpt lat="53.308166" lon="06.574991"><ele>19.7</ele><time>2021-05-20T10:20:33Z</time><name>PT2131</name></trkpt>
<trkpt lat="53.308177" lon="06.574995"><ele>19.7</ele><time>2021-05-20T10:20:33Z</time><name>PT2132</name></trkpt>
<trkpt lat="53.308188" lon="06.574998"><ele>20</ele><time>2021-05-20T10:20:34Z</time><name>PT2133</name></trkpt>
<trkpt lat="53.308200" lon="06.575003"><ele>20.1</ele><time>2021-05-20T10:20:36Z</time><name>PT2134</name></trkpt>
<trkpt lat="53.308213" lon="06.575006"><ele>20.1</ele><time>2021-05-20T10:20:36Z</time><name>PT2135</name></trkpt>
<trkpt lat="53.308223" lon="06.575006"><ele>20.1</ele><time>2021-05-20T10:20:37Z</time><name>PT2136</name></trkpt>
<trkpt lat="53.308231" lon="06.575005"><ele>19.9</ele><time>2021-05-20T10:20:39Z</time><name>PT2137</name></trkpt>
<trkpt lat="53.308240" lon="06.575005"><ele>20</ele><time>2021-05-20T10:20:39Z</time><name>PT2138</name></trkpt>
<trkpt lat="53.308253" lon="06.575017"><ele>20.1</ele><time>2021-05-20T10:20:41Z</time><name>PT2139</name></trkpt>
<trkpt lat="53.308266" lon="06.575019"><ele>20</ele><time>2021-05-20T10:20:41Z</time><name>PT2140</name></trkpt>
<trkpt lat="53.308277" lon="06.575022"><ele>20.1</ele><time>2021-05-20T10:20:43Z</time><name>PT2141</name></trkpt>
<trkpt lat="53.308286" lon="06.575027"><ele>20</ele><time>2021-05-20T10:20:43Z</time><name>PT2142</name></trkpt>
<trkpt lat="53.308298" lon="06.575033"><ele>20</ele><time>2021-05-20T10:20:44Z</time><name>PT2143</name></trkpt>
<trkpt lat="53.308307" lon="06.575035"><ele>19.7</ele><time>2021-05-20T10:20:46Z</time><name>PT2144</name></trkpt>
<trkpt lat="53.308319" lon="06.575037"><ele>19.9</ele><time>2021-05-20T10:20:46Z</time><name>PT2145</name></trkpt>
<trkpt lat="53.308332" lon="06.575040"><ele>19.7</ele><time>2021-05-20T10:20:48Z</time><name>PT2146</name></trkpt>
<trkpt lat="53.308342" lon="06.575045"><ele>19.8</ele><time>2021-05-20T10:20:48Z</time><name>PT2147</name></trkpt>
<trkpt lat="53.308351" lon="06.575050"><ele>19.6</ele><time>2021-05-20T10:20:50Z</time><name>PT2148</name></trkpt>
<trkpt lat="53.308360" lon="06.575053"><ele>19.6</ele><time>2021-05-20T10:20:50Z</time><name>PT2149</name></trkpt>
<trkpt lat="53.308366" lon="06.575057"><ele>19.7</ele><time>2021-05-20T10:20:51Z</time><name>PT2150</name></trkpt>
<trkpt lat="53.308370" lon="06.575059"><ele>19.7</ele><time>2021-05-20T10:20:53Z</time><name>PT2151</name></trkpt>
<trkpt lat="53.308372" lon="06.575061"><ele>19.7</ele><time>2021-05-20T10:20:53Z</time><name>PT2152</name></trkpt>
<trkpt lat="53.308374" lon="06.575062"><ele>19.9</ele><time>2021-05-20T10:20:54Z</time><name>PT2153</name></trkpt>
<trkpt lat="53.308377" lon="06.575067"><ele>20</ele><time>2021-05-20T10:21:05Z</time><name>PT2154</name></trkpt>
<trkpt lat="53.308386" lon="06.575074"><ele>20.1</ele><time>2021-05-20T10:21:05Z</time><name>PT2155</name></trkpt>
<trkpt lat="53.308394" lon="06.575077"><ele>20.1</ele><time>2021-05-20T10:21:06Z</time><name>PT2156</name></trkpt>
<trkpt lat="53.308401" lon="06.575077"><ele>20.1</ele><time>2021-05-20T10:21:08Z</time><name>PT2157</name></trkpt>
<trkpt lat="53.308410" lon="06.575078"><ele>20.2</ele><time>2021-05-20T10:21:08Z</time><name>PT2158</name></trkpt>
<trkpt lat="53.308418" lon="06.575086"><ele>20.1</ele><time>2021-05-20T10:21:10Z</time><name>PT2159</name></trkpt>
<trkpt lat="53.308425" lon="06.575087"><ele>20.3</ele><time>2021-05-20T10:21:10Z</time><name>PT2160</name></trkpt>
<trkpt lat="53.308428" lon="06.575087"><ele>20.3</ele><time>2021-05-20T10:21:11Z</time><name>PT2161</name></trkpt>
<trkpt lat="53.308429" lon="06.575087"><ele>20.3</ele><time>2021-05-20T10:21:13Z</time><name>PT2162</name></trkpt>
<trkpt lat="53.308431" lon="06.575088"><ele>20.4</ele><time>2021-05-20T10:21:13Z</time><name>PT2163</name></trkpt>
<trkpt lat="53.308433" lon="06.575084"><ele>20</ele><time>2021-05-20T10:21:18Z</time><name>PT2164</name></trkpt>
<trkpt lat="53.308434" lon="06.575085"><ele>20</ele><time>2021-05-20T10:21:19Z</time><name>PT2165</name></trkpt>
<trkpt lat="53.308434" lon="06.575089"><ele>20.1</ele><time>2021-05-20T10:21:21Z</time><name>PT2166</name></trkpt>
<trkpt lat="53.308434" lon="06.575089"><ele>20</ele><time>2021-05-20T10:21:21Z</time><name>PT2167</name></trkpt>
<trkpt lat="53.308434" lon="06.575095"><ele>20.1</ele><time>2021-05-20T10:21:29Z</time><name>PT2168</name></trkpt>
<trkpt lat="53.308434" lon="06.575102"><ele>20</ele><time>2021-05-20T10:21:31Z</time><name>PT2169</name></trkpt>
<trkpt lat="53.308435" lon="06.575105"><ele>20</ele><time>2021-05-20T10:21:31Z</time><name>PT2170</name></trkpt>
<trkpt lat="53.308442" lon="06.575101"><ele>20.1</ele><time>2021-05-20T10:21:32Z</time><name>PT2171</name></trkpt>
<trkpt lat="53.308446" lon="06.575098"><ele>20.1</ele><time>2021-05-20T10:21:34Z</time><name>PT2172</name></trkpt>
<trkpt lat="53.308452" lon="06.575097"><ele>20.1</ele><time>2021-05-20T10:21:34Z</time><name>PT2173</name></trkpt>
<trkpt lat="53.308459" lon="06.575096"><ele>20.2</ele><time>2021-05-20T10:21:36Z</time><name>PT2174</name></trkpt>
<trkpt lat="53.308463" lon="06.575101"><ele>20.1</ele><time>2021-05-20T10:21:36Z</time><name>PT2175</name></trkpt>
<trkpt lat="53.308468" lon="06.575104"><ele>20.1</ele><time>2021-05-20T10:21:37Z</time><name>PT2176</name></trkpt>
<trkpt lat="53.308470" lon="06.575104"><ele>20.1</ele><time>2021-05-20T10:21:39Z</time><name>PT2177</name></trkpt>
<trkpt lat="53.308469" lon="06.575102"><ele>20.2</ele><time>2021-05-20T10:21:39Z</time><name>PT2178</name></trkpt>
<trkpt lat="53.308469" lon="06.575101"><ele>20.3</ele><time>2021-05-20T10:21:41Z</time><name>PT2179</name></trkpt>
<trkpt lat="53.308473" lon="06.575090"><ele>20.2</ele><time>2021-05-20T10:22:12Z</time><name>PT2180</name></trkpt>
<trkpt lat="53.308475" lon="06.575086"><ele>20.2</ele><time>2021-05-20T10:22:14Z</time><name>PT2181</name></trkpt>
<trkpt lat="53.308476" lon="06.575081"><ele>20.1</ele><time>2021-05-20T10:22:14Z</time><name>PT2182</name></trkpt>
<trkpt lat="53.308474" lon="06.575075"><ele>19.9</ele><time>2021-05-20T10:22:16Z</time><name>PT2183</name></trkpt>
<trkpt lat="53.308471" lon="06.575077"><ele>19.9</ele><time>2021-05-20T10:22:26Z</time><name>PT2184</name></trkpt>
<trkpt lat="53.308467" lon="06.575082"><ele>20</ele><time>2021-05-20T10:22:27Z</time><name>PT2185</name></trkpt>
<trkpt lat="53.308465" lon="06.575090"><ele>20.1</ele><time>2021-05-20T10:22:29Z</time><name>PT2186</name></trkpt>
<trkpt lat="53.308467" lon="06.575089"><ele>20</ele><time>2021-05-20T10:22:29Z</time><name>PT2187</name></trkpt>
<trkpt lat="53.308467" lon="06.575087"><ele>20</ele><time>2021-05-20T10:22:31Z</time><name>PT2188</name></trkpt>
<trkpt lat="53.308468" lon="06.575084"><ele>19.9</ele><time>2021-05-20T10:22:31Z</time><name>PT2189</name></trkpt>
<trkpt lat="53.308467" lon="06.575086"><ele>20.1</ele><time>2021-05-20T10:22:32Z</time><name>PT2190</name></trkpt>
<trkpt lat="53.308467" lon="06.575091"><ele>20</ele><time>2021-05-20T10:22:34Z</time><name>PT2191</name></trkpt>
<trkpt lat="53.308478" lon="06.575106"><ele>19.6</ele><time>2021-05-20T10:23:29Z</time><name>PT2192</name></trkpt>
<trkpt lat="53.308491" lon="06.575116"><ele>19.7</ele><time>2021-05-20T10:23:31Z</time><name>PT2193</name></trkpt>
<trkpt lat="53.308502" lon="06.575123"><ele>19.8</ele><time>2021-05-20T10:23:31Z</time><name>PT2194</name></trkpt>
<trkpt lat="53.308515" lon="06.575123"><ele>20</ele><time>2021-05-20T10:23:32Z</time><name>PT2195</name></trkpt>
<trkpt lat="53.308527" lon="06.575124"><ele>20.1</ele><time>2021-05-20T10:23:34Z</time><name>PT2196</name></trkpt>
<trkpt lat="53.308540" lon="06.575128"><ele>20.1</ele><time>2021-05-20T10:23:34Z</time><name>PT2197</name></trkpt>
<trkpt lat="53.308551" lon="06.575127"><ele>19.8</ele><time>2021-05-20T10:23:35Z</time><name>PT2198</name></trkpt>
<trkpt lat="53.308563" lon="06.575128"><ele>19.8</ele><time>2021-05-20T10:23:37Z</time><name>PT2199</name></trkpt>
<trkpt lat="53.308577" lon="06.575126"><ele>19.8</ele><time>2021-05-20T10:23:37Z</time><name>PT2200</name></trkpt>
<trkpt lat="53.308588" lon="06.575126"><ele>19.8</ele><time>2021-05-20T10:23:38Z</time><name>PT2201</name></trkpt>
<trkpt lat="53.308598" lon="06.575126"><ele>20</ele><time>2021-05-20T10:23:40Z</time><name>PT2202</name></trkpt>
<trkpt lat="53.308606" lon="06.575124"><ele>20.1</ele><time>2021-05-20T10:23:40Z</time><name>PT2203</name></trkpt>
<trkpt lat="53.308614" lon="06.575126"><ele>20.1</ele><time>2021-05-20T10:23:41Z</time><name>PT2204</name></trkpt>
<trkpt lat="53.308623" lon="06.575127"><ele>20.1</ele><time>2021-05-20T10:23:43Z</time><name>PT2205</name></trkpt>
<trkpt lat="53.308634" lon="06.575126"><ele>19.9</ele><time>2021-05-20T10:23:43Z</time><name>PT2206</name></trkpt>
<trkpt lat="53.308645" lon="06.575130"><ele>19.9</ele><time>2021-05-20T10:23:45Z</time><name>PT2207</name></trkpt>
<trkpt lat="53.308658" lon="06.575132"><ele>19.9</ele><time>2021-05-20T10:23:45Z</time><name>PT2208</name></trkpt>
<trkpt lat="53.308666" lon="06.575136"><ele>19.9</ele><time>2021-05-20T10:23:46Z</time><name>PT2209</name></trkpt>
<trkpt lat="53.308676" lon="06.575138"><ele>20</ele><time>2021-05-20T10:23:48Z</time><name>PT2210</name></trkpt>
<trkpt lat="53.308690" lon="06.575138"><ele>19.9</ele><time>2021-05-20T10:23:48Z</time><name>PT2211</name></trkpt>
<trkpt lat="53.308704" lon="06.575138"><ele>19.9</ele><time>2021-05-20T10:23:50Z</time><name>PT2212</name></trkpt>
<trkpt lat="53.308714" lon="06.575140"><ele>19.7</ele><time>2021-05-20T10:23:50Z</time><name>PT2213</name></trkpt>
<trkpt lat="53.308727" lon="06.575140"><ele>19.8</ele><time>2021-05-20T10:23:51Z</time><name>PT2214</name></trkpt>
<trkpt lat="53.308740" lon="06.575140"><ele>19.8</ele><time>2021-05-20T10:23:53Z</time><name>PT2215</name></trkpt>
<trkpt lat="53.308752" lon="06.575141"><ele>20</ele><time>2021-05-20T10:23:53Z</time><name>PT2216</name></trkpt>
<trkpt lat="53.308764" lon="06.575142"><ele>20.1</ele><time>2021-05-20T10:23:55Z</time><name>PT2217</name></trkpt>
<trkpt lat="53.308775" lon="06.575143"><ele>20</ele><time>2021-05-20T10:23:55Z</time><name>PT2218</name></trkpt>
<trkpt lat="53.308785" lon="06.575146"><ele>19.9</ele><time>2021-05-20T10:23:57Z</time><name>PT2219</name></trkpt>
<trkpt lat="53.308795" lon="06.575148"><ele>19.6</ele><time>2021-05-20T10:23:57Z</time><name>PT2220</name></trkpt>
<trkpt lat="53.308807" lon="06.575150"><ele>19.7</ele><time>2021-05-20T10:23:58Z</time><name>PT2221</name></trkpt>
<trkpt lat="53.308818" lon="06.575152"><ele>19.9</ele><time>2021-05-20T10:24:00Z</time><name>PT2222</name></trkpt>
<trkpt lat="53.308829" lon="06.575154"><ele>19.7</ele><time>2021-05-20T10:24:00Z</time><name>PT2223</name></trkpt>
<trkpt lat="53.308840" lon="06.575156"><ele>20.1</ele><time>2021-05-20T10:24:02Z</time><name>PT2224</name></trkpt>
<trkpt lat="53.308849" lon="06.575158"><ele>20</ele><time>2021-05-20T10:24:02Z</time><name>PT2225</name></trkpt>
<trkpt lat="53.308860" lon="06.575161"><ele>19.9</ele><time>2021-05-20T10:24:03Z</time><name>PT2226</name></trkpt>
<trkpt lat="53.308870" lon="06.575167"><ele>19.9</ele><time>2021-05-20T10:24:05Z</time><name>PT2227</name></trkpt>
<trkpt lat="53.308882" lon="06.575171"><ele>19.6</ele><time>2021-05-20T10:24:05Z</time><name>PT2228</name></trkpt>
<trkpt lat="53.308893" lon="06.575172"><ele>19.6</ele><time>2021-05-20T10:24:06Z</time><name>PT2229</name></trkpt>
<trkpt lat="53.308903" lon="06.575174"><ele>19.6</ele><time>2021-05-20T10:24:08Z</time><name>PT2230</name></trkpt>
<trkpt lat="53.308911" lon="06.575175"><ele>19.7</ele><time>2021-05-20T10:24:08Z</time><name>PT2231</name></trkpt>
<trkpt lat="53.308921" lon="06.575178"><ele>20</ele><time>2021-05-20T10:24:10Z</time><name>PT2232</name></trkpt>
<trkpt lat="53.308933" lon="06.575180"><ele>20.1</ele><time>2021-05-20T10:24:10Z</time><name>PT2233</name></trkpt>
<trkpt lat="53.308944" lon="06.575180"><ele>20.1</ele><time>2021-05-20T10:24:12Z</time><name>PT2234</name></trkpt>
<trkpt lat="53.308955" lon="06.575182"><ele>20.1</ele><time>2021-05-20T10:24:12Z</time><name>PT2235</name></trkpt>
<trkpt lat="53.308965" lon="06.575183"><ele>20</ele><time>2021-05-20T10:24:14Z</time><name>PT2236</name></trkpt>
<trkpt lat="53.308974" lon="06.575185"><ele>19.9</ele><time>2021-05-20T10:24:14Z</time><name>PT2237</name></trkpt>
<trkpt lat="53.308984" lon="06.575186"><ele>19.8</ele><time>2021-05-20T10:24:15Z</time><name>PT2238</name></trkpt>
<trkpt lat="53.308993" lon="06.575188"><ele>19.7</ele><time>2021-05-20T10:24:17Z</time><name>PT2239</name></trkpt>
<trkpt lat="53.308999" lon="06.575193"><ele>19.7</ele><time>2021-05-20T10:24:17Z</time><name>PT2240</name></trkpt>
<trkpt lat="53.309009" lon="06.575196"><ele>19.6</ele><time>2021-05-20T10:24:19Z</time><name>PT2241</name></trkpt>
<trkpt lat="53.309021" lon="06.575198"><ele>19.6</ele><time>2021-05-20T10:24:19Z</time><name>PT2242</name></trkpt>
<trkpt lat="53.309033" lon="06.575198"><ele>19.7</ele><time>2021-05-20T10:24:21Z</time><name>PT2243</name></trkpt>
<trkpt lat="53.309044" lon="06.575200"><ele>19.8</ele><time>2021-05-20T10:24:21Z</time><name>PT2244</name></trkpt>
<trkpt lat="53.309056" lon="06.575204"><ele>20</ele><time>2021-05-20T10:24:23Z</time><name>PT2245</name></trkpt>
<trkpt lat="53.309068" lon="06.575205"><ele>19.9</ele><time>2021-05-20T10:24:23Z</time><name>PT2246</name></trkpt>
<trkpt lat="53.309081" lon="06.575207"><ele>20.1</ele><time>2021-05-20T10:24:25Z</time><name>PT2247</name></trkpt>
<trkpt lat="53.309096" lon="06.575208"><ele>20.1</ele><time>2021-05-20T10:24:25Z</time><name>PT2248</name></trkpt>
<trkpt lat="53.309110" lon="06.575209"><ele>20.1</ele><time>2021-05-20T10:24:27Z</time><name>PT2249</name></trkpt>
<trkpt lat="53.309129" lon="06.575216"><ele>20.1</ele><time>2021-05-20T10:24:27Z</time><name>PT2250</name></trkpt>
<trkpt lat="53.309142" lon="06.575218"><ele>19.9</ele><time>2021-05-20T10:24:29Z</time><name>PT2251</name></trkpt>
<trkpt lat="53.309154" lon="06.575220"><ele>19.8</ele><time>2021-05-20T10:24:29Z</time><name>PT2252</name></trkpt>
<trkpt lat="53.309167" lon="06.575222"><ele>19.9</ele><time>2021-05-20T10:24:30Z</time><name>PT2253</name></trkpt>
<trkpt lat="53.309178" lon="06.575224"><ele>20.1</ele><time>2021-05-20T10:24:32Z</time><name>PT2254</name></trkpt>
<trkpt lat="53.309189" lon="06.575226"><ele>20.1</ele><time>2021-05-20T10:24:32Z</time><name>PT2255</name></trkpt>
<trkpt lat="53.309203" lon="06.575228"><ele>20.1</ele><time>2021-05-20T10:24:33Z</time><name>PT2256</name></trkpt>
<trkpt lat="53.309214" lon="06.575231"><ele>20.1</ele><time>2021-05-20T10:24:35Z</time><name>PT2257</name></trkpt>
<trkpt lat="53.309225" lon="06.575233"><ele>19.8</ele><time>2021-05-20T10:24:35Z</time><name>PT2258</name></trkpt>
<trkpt lat="53.309234" lon="06.575234"><ele>19.8</ele><time>2021-05-20T10:24:37Z</time><name>PT2259</name></trkpt>
<trkpt lat="53.309245" lon="06.575236"><ele>19.8</ele><time>2021-05-20T10:24:37Z</time><name>PT2260</name></trkpt>
<trkpt lat="53.309256" lon="06.575240"><ele>19.8</ele><time>2021-05-20T10:24:39Z</time><name>PT2261</name></trkpt>
<trkpt lat="53.309268" lon="06.575245"><ele>19.9</ele><time>2021-05-20T10:24:39Z</time><name>PT2262</name></trkpt>
<trkpt lat="53.309278" lon="06.575248"><ele>20.1</ele><time>2021-05-20T10:24:40Z</time><name>PT2263</name></trkpt>
<trkpt lat="53.309287" lon="06.575250"><ele>20.2</ele><time>2021-05-20T10:24:42Z</time><name>PT2264</name></trkpt>
<trkpt lat="53.309293" lon="06.575254"><ele>20.3</ele><time>2021-05-20T10:24:42Z</time><name>PT2265</name></trkpt>
<trkpt lat="53.309308" lon="06.575259"><ele>20.4</ele><time>2021-05-20T10:24:44Z</time><name>PT2266</name></trkpt>
<trkpt lat="53.309322" lon="06.575260"><ele>20.2</ele><time>2021-05-20T10:24:44Z</time><name>PT2267</name></trkpt>
<trkpt lat="53.309334" lon="06.575260"><ele>20.2</ele><time>2021-05-20T10:24:45Z</time><name>PT2268</name></trkpt>
<trkpt lat="53.309345" lon="06.575263"><ele>20.2</ele><time>2021-05-20T10:24:47Z</time><name>PT2269</name></trkpt>
<trkpt lat="53.309358" lon="06.575265"><ele>20.2</ele><time>2021-05-20T10:24:47Z</time><name>PT2270</name></trkpt>
<trkpt lat="53.309370" lon="06.575271"><ele>20.2</ele><time>2021-05-20T10:24:48Z</time><name>PT2271</name></trkpt>
<trkpt lat="53.309381" lon="06.575274"><ele>20.1</ele><time>2021-05-20T10:24:50Z</time><name>PT2272</name></trkpt>
<trkpt lat="53.309393" lon="06.575278"><ele>20.1</ele><time>2021-05-20T10:24:50Z</time><name>PT2273</name></trkpt>
<trkpt lat="53.309404" lon="06.575282"><ele>20.1</ele><time>2021-05-20T10:24:52Z</time><name>PT2274</name></trkpt>
<trkpt lat="53.309417" lon="06.575287"><ele>20</ele><time>2021-05-20T10:24:52Z</time><name>PT2275</name></trkpt>
<trkpt lat="53.309430" lon="06.575291"><ele>20.1</ele><time>2021-05-20T10:24:53Z</time><name>PT2276</name></trkpt>
<trkpt lat="53.309441" lon="06.575290"><ele>19.8</ele><time>2021-05-20T10:24:55Z</time><name>PT2277</name></trkpt>
<trkpt lat="53.309456" lon="06.575291"><ele>19.9</ele><time>2021-05-20T10:24:55Z</time><name>PT2278</name></trkpt>
<trkpt lat="53.309471" lon="06.575292"><ele>19.9</ele><time>2021-05-20T10:24:57Z</time><name>PT2279</name></trkpt>
<trkpt lat="53.309480" lon="06.575292"><ele>19.8</ele><time>2021-05-20T10:24:57Z</time><name>PT2280</name></trkpt>
<trkpt lat="53.309492" lon="06.575293"><ele>19.9</ele><time>2021-05-20T10:24:58Z</time><name>PT2281</name></trkpt>
<trkpt lat="53.309501" lon="06.575298"><ele>20</ele><time>2021-05-20T10:25:00Z</time><name>PT2282</name></trkpt>
<trkpt lat="53.309510" lon="06.575301"><ele>20</ele><time>2021-05-20T10:25:00Z</time><name>PT2283</name></trkpt>
<trkpt lat="53.309518" lon="06.575306"><ele>19.8</ele><time>2021-05-20T10:25:01Z</time><name>PT2284</name></trkpt>
<trkpt lat="53.309528" lon="06.575308"><ele>19.7</ele><time>2021-05-20T10:25:03Z</time><name>PT2285</name></trkpt>
<trkpt lat="53.309538" lon="06.575308"><ele>19.8</ele><time>2021-05-20T10:25:03Z</time><name>PT2286</name></trkpt>
<trkpt lat="53.309550" lon="06.575311"><ele>19.7</ele><time>2021-05-20T10:25:04Z</time><name>PT2287</name></trkpt>
<trkpt lat="53.309562" lon="06.575317"><ele>19.9</ele><time>2021-05-20T10:25:06Z</time><name>PT2288</name></trkpt>
<trkpt lat="53.309573" lon="06.575320"><ele>20</ele><time>2021-05-20T10:25:06Z</time><name>PT2289</name></trkpt>
<trkpt lat="53.309586" lon="06.575324"><ele>20.1</ele><time>2021-05-20T10:25:07Z</time><name>PT2290</name></trkpt>
<trkpt lat="53.309600" lon="06.575327"><ele>20.2</ele><time>2021-05-20T10:25:09Z</time><name>PT2291</name></trkpt>
<trkpt lat="53.309609" lon="06.575332"><ele>20.3</ele><time>2021-05-20T10:25:09Z</time><name>PT2292</name></trkpt>
<trkpt lat="53.309618" lon="06.575337"><ele>20.3</ele><time>2021-05-20T10:25:11Z</time><name>PT2293</name></trkpt>
<trkpt lat="53.309628" lon="06.575340"><ele>20.3</ele><time>2021-05-20T10:25:11Z</time><name>PT2294</name></trkpt>
<trkpt lat="53.309639" lon="06.575346"><ele>20.4</ele><time>2021-05-20T10:25:12Z</time><name>PT2295</name></trkpt>
<trkpt lat="53.309652" lon="06.575348"><ele>20.2</ele><time>2021-05-20T10:25:14Z</time><name>PT2296</name></trkpt>
<trkpt lat="53.309665" lon="06.575351"><ele>20.2</ele><time>2021-05-20T10:25:14Z</time><name>PT2297</name></trkpt>
<trkpt lat="53.309677" lon="06.575352"><ele>20.1</ele><time>2021-05-20T10:25:16Z</time><name>PT2298</name></trkpt>
<trkpt lat="53.309687" lon="06.575354"><ele>20.1</ele><time>2021-05-20T10:25:16Z</time><name>PT2299</name></trkpt>
<trkpt lat="53.309698" lon="06.575355"><ele>20</ele><time>2021-05-20T10:25:17Z</time><name>PT2300</name></trkpt>
<trkpt lat="53.309709" lon="06.575357"><ele>19.9</ele><time>2021-05-20T10:25:19Z</time><name>PT2301</name></trkpt>
<trkpt lat="53.309717" lon="06.575358"><ele>19.8</ele><time>2021-05-20T10:25:19Z</time><name>PT2302</name></trkpt>
<trkpt lat="53.309728" lon="06.575364"><ele>20</ele><time>2021-05-20T10:25:21Z</time><name>PT2303</name></trkpt>
<trkpt lat="53.309739" lon="06.575369"><ele>20.1</ele><time>2021-05-20T10:25:21Z</time><name>PT2304</name></trkpt>
<trkpt lat="53.309749" lon="06.575378"><ele>20.1</ele><time>2021-05-20T10:25:23Z</time><name>PT2305</name></trkpt>
<trkpt lat="53.309759" lon="06.575381"><ele>20</ele><time>2021-05-20T10:25:23Z</time><name>PT2306</name></trkpt>
<trkpt lat="53.309770" lon="06.575381"><ele>20</ele><time>2021-05-20T10:25:24Z</time><name>PT2307</name></trkpt>
<trkpt lat="53.309784" lon="06.575382"><ele>20</ele><time>2021-05-20T10:25:26Z</time><name>PT2308</name></trkpt>
<trkpt lat="53.309795" lon="06.575380"><ele>20</ele><time>2021-05-20T10:25:26Z</time><name>PT2309</name></trkpt>
<trkpt lat="53.309808" lon="06.575380"><ele>19.9</ele><time>2021-05-20T10:25:27Z</time><name>PT2310</name></trkpt>
<trkpt lat="53.309823" lon="06.575385"><ele>19.9</ele><time>2021-05-20T10:25:29Z</time><name>PT2311</name></trkpt>
<trkpt lat="53.309833" lon="06.575388"><ele>20</ele><time>2021-05-20T10:25:29Z</time><name>PT2312</name></trkpt>
<trkpt lat="53.309850" lon="06.575394"><ele>19.9</ele><time>2021-05-20T10:25:30Z</time><name>PT2313</name></trkpt>
<trkpt lat="53.309860" lon="06.575399"><ele>20</ele><time>2021-05-20T10:25:32Z</time><name>PT2314</name></trkpt>
<trkpt lat="53.309870" lon="06.575402"><ele>20</ele><time>2021-05-20T10:25:32Z</time><name>PT2315</name></trkpt>
<trkpt lat="53.309882" lon="06.575407"><ele>19.9</ele><time>2021-05-20T10:25:33Z</time><name>PT2316</name></trkpt>
<trkpt lat="53.309891" lon="06.575416"><ele>20</ele><time>2021-05-20T10:25:35Z</time><name>PT2317</name></trkpt>
<trkpt lat="53.309901" lon="06.575422"><ele>20</ele><time>2021-05-20T10:25:35Z</time><name>PT2318</name></trkpt>
<trkpt lat="53.309910" lon="06.575428"><ele>19.9</ele><time>2021-05-20T10:25:37Z</time><name>PT2319</name></trkpt>
<trkpt lat="53.309922" lon="06.575433"><ele>20</ele><time>2021-05-20T10:25:37Z</time><name>PT2320</name></trkpt>
<trkpt lat="53.309934" lon="06.575439"><ele>20</ele><time>2021-05-20T10:25:38Z</time><name>PT2321</name></trkpt>
<trkpt lat="53.309945" lon="06.575443"><ele>19.9</ele><time>2021-05-20T10:25:40Z</time><name>PT2322</name></trkpt>
<trkpt lat="53.309961" lon="06.575446"><ele>19.7</ele><time>2021-05-20T10:25:40Z</time><name>PT2323</name></trkpt>
<trkpt lat="53.309975" lon="06.575448"><ele>19.7</ele><time>2021-05-20T10:25:41Z</time><name>PT2324</name></trkpt>
<trkpt lat="53.309989" lon="06.575449"><ele>19.6</ele><time>2021-05-20T10:25:43Z</time><name>PT2325</name></trkpt>
<trkpt lat="53.310005" lon="06.575452"><ele>19.7</ele><time>2021-05-20T10:25:43Z</time><name>PT2326</name></trkpt>
<trkpt lat="53.310019" lon="06.575455"><ele>19.8</ele><time>2021-05-20T10:25:44Z</time><name>PT2327</name></trkpt>
<trkpt lat="53.310036" lon="06.575458"><ele>19.9</ele><time>2021-05-20T10:25:46Z</time><name>PT2328</name></trkpt>
<trkpt lat="53.310049" lon="06.575460"><ele>19.9</ele><time>2021-05-20T10:25:46Z</time><name>PT2329</name></trkpt>
<trkpt lat="53.310060" lon="06.575462"><ele>19.9</ele><time>2021-05-20T10:25:47Z</time><name>PT2330</name></trkpt>
<trkpt lat="53.310073" lon="06.575465"><ele>19.8</ele><time>2021-05-20T10:25:49Z</time><name>PT2331</name></trkpt>
<trkpt lat="53.310084" lon="06.575467"><ele>19.8</ele><time>2021-05-20T10:25:49Z</time><name>PT2332</name></trkpt>
<trkpt lat="53.310096" lon="06.575469"><ele>19.7</ele><time>2021-05-20T10:25:51Z</time><name>PT2333</name></trkpt>
<trkpt lat="53.310108" lon="06.575468"><ele>19.7</ele><time>2021-05-20T10:25:51Z</time><name>PT2334</name></trkpt>
<trkpt lat="53.310120" lon="06.575470"><ele>19.9</ele><time>2021-05-20T10:25:53Z</time><name>PT2335</name></trkpt>
<trkpt lat="53.310135" lon="06.575473"><ele>19.9</ele><time>2021-05-20T10:25:53Z</time><name>PT2336</name></trkpt>
<trkpt lat="53.310148" lon="06.575477"><ele>20</ele><time>2021-05-20T10:25:54Z</time><name>PT2337</name></trkpt>
<trkpt lat="53.310162" lon="06.575480"><ele>20</ele><time>2021-05-20T10:25:56Z</time><name>PT2338</name></trkpt>
<trkpt lat="53.310175" lon="06.575482"><ele>19.9</ele><time>2021-05-20T10:25:56Z</time><name>PT2339</name></trkpt>
<trkpt lat="53.310187" lon="06.575484"><ele>20.1</ele><time>2021-05-20T10:25:58Z</time><name>PT2340</name></trkpt>
<trkpt lat="53.310201" lon="06.575487"><ele>20.1</ele><time>2021-05-20T10:25:58Z</time><name>PT2341</name></trkpt>
<trkpt lat="53.310213" lon="06.575488"><ele>20.2</ele><time>2021-05-20T10:26:00Z</time><name>PT2342</name></trkpt>
<trkpt lat="53.310225" lon="06.575488"><ele>20.3</ele><time>2021-05-20T10:26:00Z</time><name>PT2343</name></trkpt>
<trkpt lat="53.310238" lon="06.575489"><ele>20.1</ele><time>2021-05-20T10:26:01Z</time><name>PT2344</name></trkpt>
<trkpt lat="53.310251" lon="06.575491"><ele>20.1</ele><time>2021-05-20T10:26:03Z</time><name>PT2345</name></trkpt>
<trkpt lat="53.310262" lon="06.575494"><ele>20</ele><time>2021-05-20T10:26:03Z</time><name>PT2346</name></trkpt>
<trkpt lat="53.310274" lon="06.575501"><ele>19.8</ele><time>2021-05-20T10:26:04Z</time><name>PT2347</name></trkpt>
<trkpt lat="53.310286" lon="06.575507"><ele>20.1</ele><time>2021-05-20T10:26:06Z</time><name>PT2348</name></trkpt>
<trkpt lat="53.310298" lon="06.575513"><ele>20.1</ele><time>2021-05-20T10:26:06Z</time><name>PT2349</name></trkpt>
<trkpt lat="53.310310" lon="06.575520"><ele>20.1</ele><time>2021-05-20T10:26:08Z</time><name>PT2350</name></trkpt>
<trkpt lat="53.310321" lon="06.575524"><ele>20.1</ele><time>2021-05-20T10:26:08Z</time><name>PT2351</name></trkpt>
<trkpt lat="53.310332" lon="06.575528"><ele>20.1</ele><time>2021-05-20T10:26:10Z</time><name>PT2352</name></trkpt>
<trkpt lat="53.310343" lon="06.575532"><ele>19.9</ele><time>2021-05-20T10:26:10Z</time><name>PT2353</name></trkpt>
<trkpt lat="53.310357" lon="06.575536"><ele>19.9</ele><time>2021-05-20T10:26:12Z</time><name>PT2354</name></trkpt>
<trkpt lat="53.310368" lon="06.575540"><ele>20</ele><time>2021-05-20T10:26:12Z</time><name>PT2355</name></trkpt>
<trkpt lat="53.310380" lon="06.575543"><ele>19.8</ele><time>2021-05-20T10:26:14Z</time><name>PT2356</name></trkpt>
<trkpt lat="53.310392" lon="06.575548"><ele>19.8</ele><time>2021-05-20T10:26:14Z</time><name>PT2357</name></trkpt>
<trkpt lat="53.310403" lon="06.575553"><ele>19.8</ele><time>2021-05-20T10:26:15Z</time><name>PT2358</name></trkpt>
<trkpt lat="53.310414" lon="06.575561"><ele>19.7</ele><time>2021-05-20T10:26:17Z</time><name>PT2359</name></trkpt>
<trkpt lat="53.310426" lon="06.575568"><ele>19.7</ele><time>2021-05-20T10:26:17Z</time><name>PT2360</name></trkpt>
<trkpt lat="53.310438" lon="06.575575"><ele>19.9</ele><time>2021-05-20T10:26:19Z</time><name>PT2361</name></trkpt>
<trkpt lat="53.310449" lon="06.575584"><ele>20</ele><time>2021-05-20T10:26:19Z</time><name>PT2362</name></trkpt>
<trkpt lat="53.310461" lon="06.575594"><ele>20.1</ele><time>2021-05-20T10:26:21Z</time><name>PT2363</name></trkpt>
<trkpt lat="53.310471" lon="06.575602"><ele>20.1</ele><time>2021-05-20T10:26:21Z</time><name>PT2364</name></trkpt>
<trkpt lat="53.310480" lon="06.575609"><ele>20.1</ele><time>2021-05-20T10:26:22Z</time><name>PT2365</name></trkpt>
<trkpt lat="53.310490" lon="06.575614"><ele>20.1</ele><time>2021-05-20T10:26:24Z</time><name>PT2366</name></trkpt>
<trkpt lat="53.310500" lon="06.575623"><ele>20.1</ele><time>2021-05-20T10:26:24Z</time><name>PT2367</name></trkpt>
<trkpt lat="53.310510" lon="06.575633"><ele>20.3</ele><time>2021-05-20T10:26:26Z</time><name>PT2368</name></trkpt>
<trkpt lat="53.310520" lon="06.575643"><ele>20.2</ele><time>2021-05-20T10:26:26Z</time><name>PT2369</name></trkpt>
<trkpt lat="53.310531" lon="06.575654"><ele>20.3</ele><time>2021-05-20T10:26:28Z</time><name>PT2370</name></trkpt>
<trkpt lat="53.310540" lon="06.575665"><ele>20.3</ele><time>2021-05-20T10:26:28Z</time><name>PT2371</name></trkpt>
<trkpt lat="53.310548" lon="06.575679"><ele>20.1</ele><time>2021-05-20T10:26:30Z</time><name>PT2372</name></trkpt>
<trkpt lat="53.310554" lon="06.575692"><ele>20.1</ele><time>2021-05-20T10:26:30Z</time><name>PT2373</name></trkpt>
<trkpt lat="53.310560" lon="06.575706"><ele>20</ele><time>2021-05-20T10:26:32Z</time><name>PT2374</name></trkpt>
<trkpt lat="53.310567" lon="06.575721"><ele>20.1</ele><time>2021-05-20T10:26:32Z</time><name>PT2375</name></trkpt>
<trkpt lat="53.310575" lon="06.575734"><ele>20.1</ele><time>2021-05-20T10:26:33Z</time><name>PT2376</name></trkpt>
<trkpt lat="53.310586" lon="06.575749"><ele>20.1</ele><time>2021-05-20T10:26:35Z</time><name>PT2377</name></trkpt>
<trkpt lat="53.310593" lon="06.575764"><ele>20.2</ele><time>2021-05-20T10:26:35Z</time><name>PT2378</name></trkpt>
<trkpt lat="53.310602" lon="06.575778"><ele>20.2</ele><time>2021-05-20T10:26:36Z</time><name>PT2379</name></trkpt>
<trkpt lat="53.310611" lon="06.575793"><ele>20.1</ele><time>2021-05-20T10:26:38Z</time><name>PT2380</name></trkpt>
<trkpt lat="53.310619" lon="06.575803"><ele>20</ele><time>2021-05-20T10:26:38Z</time><name>PT2381</name></trkpt>
<trkpt lat="53.310625" lon="06.575817"><ele>20</ele><time>2021-05-20T10:26:40Z</time><name>PT2382</name></trkpt>
<trkpt lat="53.310631" lon="06.575830"><ele>20</ele><time>2021-05-20T10:26:40Z</time><name>PT2383</name></trkpt>
<trkpt lat="53.310636" lon="06.575843"><ele>19.9</ele><time>2021-05-20T10:26:42Z</time><name>PT2384</name></trkpt>
<trkpt lat="53.310641" lon="06.575859"><ele>19.9</ele><time>2021-05-20T10:26:42Z</time><name>PT2385</name></trkpt>
<trkpt lat="53.310645" lon="06.575876"><ele>20</ele><time>2021-05-20T10:26:44Z</time><name>PT2386</name></trkpt>
<trkpt lat="53.310650" lon="06.575891"><ele>20.1</ele><time>2021-05-20T10:26:44Z</time><name>PT2387</name></trkpt>
<trkpt lat="53.310656" lon="06.575905"><ele>20</ele><time>2021-05-20T10:26:46Z</time><name>PT2388</name></trkpt>
<trkpt lat="53.310663" lon="06.575920"><ele>20</ele><time>2021-05-20T10:26:46Z</time><name>PT2389</name></trkpt>
<trkpt lat="53.310668" lon="06.575931"><ele>20</ele><time>2021-05-20T10:26:47Z</time><name>PT2390</name></trkpt>
<trkpt lat="53.310674" lon="06.575950"><ele>20</ele><time>2021-05-20T10:26:49Z</time><name>PT2391</name></trkpt>
<trkpt lat="53.310677" lon="06.575970"><ele>20.1</ele><time>2021-05-20T10:26:49Z</time><name>PT2392</name></trkpt>
<trkpt lat="53.310680" lon="06.575994"><ele>20.1</ele><time>2021-05-20T10:26:51Z</time><name>PT2393</name></trkpt>
<trkpt lat="53.310683" lon="06.576013"><ele>20.3</ele><time>2021-05-20T10:26:51Z</time><name>PT2394</name></trkpt>
<trkpt lat="53.310686" lon="06.576031"><ele>20.2</ele><time>2021-05-20T10:26:53Z</time><name>PT2395</name></trkpt>
<trkpt lat="53.310686" lon="06.576048"><ele>20.3</ele><time>2021-05-20T10:26:53Z</time><name>PT2396</name></trkpt>
<trkpt lat="53.310687" lon="06.576064"><ele>20.3</ele><time>2021-05-20T10:26:55Z</time><name>PT2397</name></trkpt>
<trkpt lat="53.310687" lon="06.576083"><ele>20.1</ele><time>2021-05-20T10:26:55Z</time><name>PT2398</name></trkpt>
<trkpt lat="53.310689" lon="06.576100"><ele>20</ele><time>2021-05-20T10:26:57Z</time><name>PT2399</name></trkpt>
<trkpt lat="53.310694" lon="06.576122"><ele>19.8</ele><time>2021-05-20T10:26:57Z</time><name>PT2400</name></trkpt>
<trkpt lat="53.310697" lon="06.576145"><ele>19.6</ele><time>2021-05-20T10:26:58Z</time><name>PT2401</name></trkpt>
<trkpt lat="53.310700" lon="06.576161"><ele>19.7</ele><time>2021-05-20T10:27:00Z</time><name>PT2402</name></trkpt>
<trkpt lat="53.310702" lon="06.576180"><ele>19.6</ele><time>2021-05-20T10:27:00Z</time><name>PT2403</name></trkpt>
<trkpt lat="53.310706" lon="06.576197"><ele>19.7</ele><time>2021-05-20T10:27:02Z</time><name>PT2404</name></trkpt>
<trkpt lat="53.310706" lon="06.576216"><ele>19.9</ele><time>2021-05-20T10:27:02Z</time><name>PT2405</name></trkpt>
<trkpt lat="53.310707" lon="06.576244"><ele>19.8</ele><time>2021-05-20T10:27:04Z</time><name>PT2406</name></trkpt>
<trkpt lat="53.310709" lon="06.576265"><ele>19.8</ele><time>2021-05-20T10:27:04Z</time><name>PT2407</name></trkpt>
<trkpt lat="53.310711" lon="06.576283"><ele>19.8</ele><time>2021-05-20T10:27:06Z</time><name>PT2408</name></trkpt>
<trkpt lat="53.310714" lon="06.576301"><ele>19.7</ele><time>2021-05-20T10:27:06Z</time><name>PT2409</name></trkpt>
<trkpt lat="53.310718" lon="06.576318"><ele>19.9</ele><time>2021-05-20T10:27:07Z</time><name>PT2410</name></trkpt>
<trkpt lat="53.310723" lon="06.576335"><ele>20</ele><time>2021-05-20T10:27:09Z</time><name>PT2411</name></trkpt>
<trkpt lat="53.310726" lon="06.576354"><ele>20.1</ele><time>2021-05-20T10:27:09Z</time><name>PT2412</name></trkpt>
<trkpt lat="53.310730" lon="06.576371"><ele>20.1</ele><time>2021-05-20T10:27:10Z</time><name>PT2413</name></trkpt>
<trkpt lat="53.310736" lon="06.576394"><ele>20.2</ele><time>2021-05-20T10:27:12Z</time><name>PT2414</name></trkpt>
<trkpt lat="53.310742" lon="06.576410"><ele>20.1</ele><time>2021-05-20T10:27:12Z</time><name>PT2415</name></trkpt>
<trkpt lat="53.310745" lon="06.576422"><ele>20.1</ele><time>2021-05-20T10:27:14Z</time><name>PT2416</name></trkpt>
<trkpt lat="53.310744" lon="06.576435"><ele>20.1</ele><time>2021-05-20T10:27:14Z</time><name>PT2417</name></trkpt>
<trkpt lat="53.310746" lon="06.576451"><ele>20.2</ele><time>2021-05-20T10:27:16Z</time><name>PT2418</name></trkpt>
<trkpt lat="53.310748" lon="06.576466"><ele>20.1</ele><time>2021-05-20T10:27:16Z</time><name>PT2419</name></trkpt>
<trkpt lat="53.310748" lon="06.576483"><ele>20.1</ele><time>2021-05-20T10:27:17Z</time><name>PT2420</name></trkpt>
<trkpt lat="53.310751" lon="06.576501"><ele>20.1</ele><time>2021-05-20T10:27:19Z</time><name>PT2421</name></trkpt>
<trkpt lat="53.310752" lon="06.576515"><ele>20.1</ele><time>2021-05-20T10:27:19Z</time><name>PT2422</name></trkpt>
<trkpt lat="53.310754" lon="06.576536"><ele>20.1</ele><time>2021-05-20T10:27:21Z</time><name>PT2423</name></trkpt>
<trkpt lat="53.310756" lon="06.576555"><ele>20.1</ele><time>2021-05-20T10:27:21Z</time><name>PT2424</name></trkpt>
<trkpt lat="53.310756" lon="06.576572"><ele>20.2</ele><time>2021-05-20T10:27:23Z</time><name>PT2425</name></trkpt>
<trkpt lat="53.310761" lon="06.576588"><ele>20.3</ele><time>2021-05-20T10:27:23Z</time><name>PT2426</name></trkpt>
<trkpt lat="53.310763" lon="06.576604"><ele>20.1</ele><time>2021-05-20T10:27:24Z</time><name>PT2427</name></trkpt>
<trkpt lat="53.310763" lon="06.576612"><ele>20.1</ele><time>2021-05-20T10:27:26Z</time><name>PT2428</name></trkpt>
<trkpt lat="53.310764" lon="06.576627"><ele>19.9</ele><time>2021-05-20T10:27:26Z</time><name>PT2429</name></trkpt>
<trkpt lat="53.310768" lon="06.576640"><ele>19.8</ele><time>2021-05-20T10:27:27Z</time><name>PT2430</name></trkpt>
<trkpt lat="53.310771" lon="06.576659"><ele>19.8</ele><time>2021-05-20T10:27:29Z</time><name>PT2431</name></trkpt>
<trkpt lat="53.310775" lon="06.576676"><ele>19.9</ele><time>2021-05-20T10:27:29Z</time><name>PT2432</name></trkpt>
<trkpt lat="53.310780" lon="06.576701"><ele>19.9</ele><time>2021-05-20T10:27:31Z</time><name>PT2433</name></trkpt>
<trkpt lat="53.310782" lon="06.576716"><ele>20</ele><time>2021-05-20T10:27:31Z</time><name>PT2434</name></trkpt>
<trkpt lat="53.310785" lon="06.576732"><ele>20.1</ele><time>2021-05-20T10:27:32Z</time><name>PT2435</name></trkpt>
<trkpt lat="53.310788" lon="06.576754"><ele>20.1</ele><time>2021-05-20T10:27:34Z</time><name>PT2436</name></trkpt>
<trkpt lat="53.310792" lon="06.576794"><ele>20</ele><time>2021-05-20T10:27:34Z</time><name>PT2437</name></trkpt>
<trkpt lat="53.310794" lon="06.576815"><ele>20.1</ele><time>2021-05-20T10:27:35Z</time><name>PT2438</name></trkpt>
<trkpt lat="53.310794" lon="06.576831"><ele>20.1</ele><time>2021-05-20T10:27:37Z</time><name>PT2439</name></trkpt>
<trkpt lat="53.310794" lon="06.576849"><ele>20</ele><time>2021-05-20T10:27:37Z</time><name>PT2440</name></trkpt>
<trkpt lat="53.310795" lon="06.576871"><ele>19.9</ele><time>2021-05-20T10:27:39Z</time><name>PT2441</name></trkpt>
<trkpt lat="53.310794" lon="06.576896"><ele>19.9</ele><time>2021-05-20T10:27:39Z</time><name>PT2442</name></trkpt>
<trkpt lat="53.310794" lon="06.576926"><ele>20</ele><time>2021-05-20T10:27:41Z</time><name>PT2443</name></trkpt>
<trkpt lat="53.310797" lon="06.576964"><ele>20.1</ele><time>2021-05-20T10:27:41Z</time><name>PT2444</name></trkpt>
<trkpt lat="53.310798" lon="06.576986"><ele>20.3</ele><time>2021-05-20T10:27:42Z</time><name>PT2445</name></trkpt>
<trkpt lat="53.310802" lon="06.577005"><ele>20.3</ele><time>2021-05-20T10:27:44Z</time><name>PT2446</name></trkpt>
<trkpt lat="53.310808" lon="06.577023"><ele>20.4</ele><time>2021-05-20T10:27:44Z</time><name>PT2447</name></trkpt>
<trkpt lat="53.310808" lon="06.577042"><ele>20.2</ele><time>2021-05-20T10:27:45Z</time><name>PT2448</name></trkpt>
<trkpt lat="53.310812" lon="06.577061"><ele>20</ele><time>2021-05-20T10:27:47Z</time><name>PT2449</name></trkpt>
<trkpt lat="53.310815" lon="06.577080"><ele>20.1</ele><time>2021-05-20T10:27:47Z</time><name>PT2450</name></trkpt>
<trkpt lat="53.310816" lon="06.577109"><ele>19.9</ele><time>2021-05-20T10:27:48Z</time><name>PT2451</name></trkpt>
<trkpt lat="53.310817" lon="06.577125"><ele>19.9</ele><time>2021-05-20T10:27:50Z</time><name>PT2452</name></trkpt>
<trkpt lat="53.310818" lon="06.577143"><ele>20</ele><time>2021-05-20T10:27:50Z</time><name>PT2453</name></trkpt>
<trkpt lat="53.310817" lon="06.577159"><ele>20.1</ele><time>2021-05-20T10:27:52Z</time><name>PT2454</name></trkpt>
<trkpt lat="53.310818" lon="06.577179"><ele>20.2</ele><time>2021-05-20T10:27:52Z</time><name>PT2455</name></trkpt>
<trkpt lat="53.310819" lon="06.577203"><ele>20.1</ele><time>2021-05-20T10:27:53Z</time><name>PT2456</name></trkpt>
<trkpt lat="53.310820" lon="06.577229"><ele>20.1</ele><time>2021-05-20T10:27:55Z</time><name>PT2457</name></trkpt>
<trkpt lat="53.310822" lon="06.577248"><ele>20.1</ele><time>2021-05-20T10:27:55Z</time><name>PT2458</name></trkpt>
<trkpt lat="53.310825" lon="06.577269"><ele>20.1</ele><time>2021-05-20T10:27:57Z</time><name>PT2459</name></trkpt>
<trkpt lat="53.310829" lon="06.577289"><ele>20.2</ele><time>2021-05-20T10:27:57Z</time><name>PT2460</name></trkpt>
<trkpt lat="53.310831" lon="06.577307"><ele>20.2</ele><time>2021-05-20T10:27:59Z</time><name>PT2461</name></trkpt>
<trkpt lat="53.310832" lon="06.577324"><ele>20.3</ele><time>2021-05-20T10:27:59Z</time><name>PT2462</name></trkpt>
<trkpt lat="53.310835" lon="06.577348"><ele>20.1</ele><time>2021-05-20T10:28:01Z</time><name>PT2463</name></trkpt>
<trkpt lat="53.310837" lon="06.577370"><ele>20.1</ele><time>2021-05-20T10:28:01Z</time><name>PT2464</name></trkpt>
<trkpt lat="53.310838" lon="06.577388"><ele>19.9</ele><time>2021-05-20T10:28:02Z</time><name>PT2465</name></trkpt>
<trkpt lat="53.310839" lon="06.577406"><ele>19.8</ele><time>2021-05-20T10:28:04Z</time><name>PT2466</name></trkpt>
<trkpt lat="53.310841" lon="06.577423"><ele>19.9</ele><time>2021-05-20T10:28:04Z</time><name>PT2467</name></trkpt>
<trkpt lat="53.310844" lon="06.577447"><ele>19.8</ele><time>2021-05-20T10:28:06Z</time><name>PT2468</name></trkpt>
<trkpt lat="53.310847" lon="06.577467"><ele>20</ele><time>2021-05-20T10:28:06Z</time><name>PT2469</name></trkpt>
<trkpt lat="53.310849" lon="06.577489"><ele>20.1</ele><time>2021-05-20T10:28:08Z</time><name>PT2470</name></trkpt>
<trkpt lat="53.310848" lon="06.577514"><ele>20.1</ele><time>2021-05-20T10:28:08Z</time><name>PT2471</name></trkpt>
<trkpt lat="53.310848" lon="06.577532"><ele>20.2</ele><time>2021-05-20T10:28:10Z</time><name>PT2472</name></trkpt>
<trkpt lat="53.310850" lon="06.577551"><ele>20.1</ele><time>2021-05-20T10:28:10Z</time><name>PT2473</name></trkpt>
<trkpt lat="53.310852" lon="06.577570"><ele>20.1</ele><time>2021-05-20T10:28:12Z</time><name>PT2474</name></trkpt>
<trkpt lat="53.310858" lon="06.577589"><ele>20.2</ele><time>2021-05-20T10:28:12Z</time><name>PT2475</name></trkpt>
<trkpt lat="53.310868" lon="06.577605"><ele>20.1</ele><time>2021-05-20T10:28:14Z</time><name>PT2476</name></trkpt>
<trkpt lat="53.310877" lon="06.577619"><ele>20.1</ele><time>2021-05-20T10:28:14Z</time><name>PT2477</name></trkpt>
<trkpt lat="53.310887" lon="06.577629"><ele>20.1</ele><time>2021-05-20T10:28:15Z</time><name>PT2478</name></trkpt>
<trkpt lat="53.310896" lon="06.577633"><ele>20</ele><time>2021-05-20T10:28:17Z</time><name>PT2479</name></trkpt>
<trkpt lat="53.310908" lon="06.577636"><ele>20.1</ele><time>2021-05-20T10:28:17Z</time><name>PT2480</name></trkpt>
<trkpt lat="53.310920" lon="06.577638"><ele>20.1</ele><time>2021-05-20T10:28:19Z</time><name>PT2481</name></trkpt>
<trkpt lat="53.310931" lon="06.577639"><ele>20.2</ele><time>2021-05-20T10:28:19Z</time><name>PT2482</name></trkpt>
<trkpt lat="53.310942" lon="06.577638"><ele>20.2</ele><time>2021-05-20T10:28:21Z</time><name>PT2483</name></trkpt>
<trkpt lat="53.310953" lon="06.577635"><ele>20.1</ele><time>2021-05-20T10:28:21Z</time><name>PT2484</name></trkpt>
<trkpt lat="53.310965" lon="06.577629"><ele>20.1</ele><time>2021-05-20T10:28:23Z</time><name>PT2485</name></trkpt>
<trkpt lat="53.310976" lon="06.577620"><ele>20.1</ele><time>2021-05-20T10:28:23Z</time><name>PT2486</name></trkpt>
<trkpt lat="53.310986" lon="06.577608"><ele>19.9</ele><time>2021-05-20T10:28:25Z</time><name>PT2487</name></trkpt>
<trkpt lat="53.310997" lon="06.577597"><ele>20.1</ele><time>2021-05-20T10:28:25Z</time><name>PT2488</name></trkpt>
<trkpt lat="53.311007" lon="06.577584"><ele>20.1</ele><time>2021-05-20T10:28:27Z</time><name>PT2489</name></trkpt>
<trkpt lat="53.311016" lon="06.577573"><ele>20</ele><time>2021-05-20T10:28:27Z</time><name>PT2490</name></trkpt>
<trkpt lat="53.311025" lon="06.577562"><ele>20.1</ele><time>2021-05-20T10:28:29Z</time><name>PT2491</name></trkpt>
<trkpt lat="53.311033" lon="06.577550"><ele>20.1</ele><time>2021-05-20T10:28:29Z</time><name>PT2492</name></trkpt>
<trkpt lat="53.311045" lon="06.577537"><ele>20</ele><time>2021-05-20T10:28:31Z</time><name>PT2493</name></trkpt>
<trkpt lat="53.311055" lon="06.577525"><ele>20.1</ele><time>2021-05-20T10:28:31Z</time><name>PT2494</name></trkpt>
<trkpt lat="53.311064" lon="06.577510"><ele>20</ele><time>2021-05-20T10:28:32Z</time><name>PT2495</name></trkpt>
<trkpt lat="53.311070" lon="06.577494"><ele>20</ele><time>2021-05-20T10:28:34Z</time><name>PT2496</name></trkpt>
<trkpt lat="53.311075" lon="06.577481"><ele>19.9</ele><time>2021-05-20T10:28:34Z</time><name>PT2497</name></trkpt>
<trkpt lat="53.311081" lon="06.577467"><ele>20.1</ele><time>2021-05-20T10:28:35Z</time><name>PT2498</name></trkpt>
<trkpt lat="53.311088" lon="06.577453"><ele>20.1</ele><time>2021-05-20T10:28:37Z</time><name>PT2499</name></trkpt>
<trkpt lat="53.311095" lon="06.577438"><ele>20</ele><time>2021-05-20T10:28:37Z</time><name>PT2500</name></trkpt>
<trkpt lat="53.311101" lon="06.577423"><ele>19.8</ele><time>2021-05-20T10:28:39Z</time><name>PT2501</name></trkpt>
<trkpt lat="53.311110" lon="06.577410"><ele>19.8</ele><time>2021-05-20T10:28:39Z</time><name>PT2502</name></trkpt>
<trkpt lat="53.311116" lon="06.577396"><ele>19.6</ele><time>2021-05-20T10:28:40Z</time><name>PT2503</name></trkpt>
<trkpt lat="53.311123" lon="06.577383"><ele>19.6</ele><time>2021-05-20T10:28:42Z</time><name>PT2504</name></trkpt>
<trkpt lat="53.311133" lon="06.577369"><ele>19.6</ele><time>2021-05-20T10:28:42Z</time><name>PT2505</name></trkpt>
<trkpt lat="53.311142" lon="06.577356"><ele>19.6</ele><time>2021-05-20T10:28:44Z</time><name>PT2506</name></trkpt>
<trkpt lat="53.311151" lon="06.577344"><ele>19.6</ele><time>2021-05-20T10:28:44Z</time><name>PT2507</name></trkpt>
<trkpt lat="53.311160" lon="06.577332"><ele>19.4</ele><time>2021-05-20T10:28:45Z</time><name>PT2508</name></trkpt>
<trkpt lat="53.311169" lon="06.577318"><ele>19.3</ele><time>2021-05-20T10:28:47Z</time><name>PT2509</name></trkpt>
<trkpt lat="53.311178" lon="06.577305"><ele>19.3</ele><time>2021-05-20T10:28:47Z</time><name>PT2510</name></trkpt>
<trkpt lat="53.311185" lon="06.577290"><ele>19.2</ele><time>2021-05-20T10:28:48Z</time><name>PT2511</name></trkpt>
<trkpt lat="53.311196" lon="06.577276"><ele>19.4</ele><time>2021-05-20T10:28:50Z</time><name>PT2512</name></trkpt>
<trkpt lat="53.311205" lon="06.577262"><ele>19.3</ele><time>2021-05-20T10:28:50Z</time><name>PT2513</name></trkpt>
<trkpt lat="53.311214" lon="06.577246"><ele>19.6</ele><time>2021-05-20T10:28:51Z</time><name>PT2514</name></trkpt>
<trkpt lat="53.311223" lon="06.577231"><ele>19.7</ele><time>2021-05-20T10:28:53Z</time><name>PT2515</name></trkpt>
<trkpt lat="53.311231" lon="06.577216"><ele>19.8</ele><time>2021-05-20T10:28:53Z</time><name>PT2516</name></trkpt>
<trkpt lat="53.311238" lon="06.577202"><ele>20.1</ele><time>2021-05-20T10:28:55Z</time><name>PT2517</name></trkpt>
<trkpt lat="53.311247" lon="06.577189"><ele>20.1</ele><time>2021-05-20T10:28:55Z</time><name>PT2518</name></trkpt>
<trkpt lat="53.311256" lon="06.577178"><ele>20.1</ele><time>2021-05-20T10:28:57Z</time><name>PT2519</name></trkpt>
<trkpt lat="53.311265" lon="06.577168"><ele>20.1</ele><time>2021-05-20T10:28:57Z</time><name>PT2520</name></trkpt>
<trkpt lat="53.311274" lon="06.577158"><ele>20.1</ele><time>2021-05-20T10:28:59Z</time><name>PT2521</name></trkpt>
<trkpt lat="53.311283" lon="06.577147"><ele>19.9</ele><time>2021-05-20T10:28:59Z</time><name>PT2522</name></trkpt>
<trkpt lat="53.311289" lon="06.577136"><ele>19.8</ele><time>2021-05-20T10:29:00Z</time><name>PT2523</name></trkpt>
<trkpt lat="53.311297" lon="06.577125"><ele>19.9</ele><time>2021-05-20T10:29:02Z</time><name>PT2524</name></trkpt>
<trkpt lat="53.311304" lon="06.577115"><ele>19.9</ele><time>2021-05-20T10:29:02Z</time><name>PT2525</name></trkpt>
<trkpt lat="53.311312" lon="06.577105"><ele>19.8</ele><time>2021-05-20T10:29:04Z</time><name>PT2526</name></trkpt>
<trkpt lat="53.311320" lon="06.577095"><ele>19.6</ele><time>2021-05-20T10:29:04Z</time><name>PT2527</name></trkpt>
<trkpt lat="53.311331" lon="06.577086"><ele>19.4</ele><time>2021-05-20T10:29:06Z</time><name>PT2528</name></trkpt>
<trkpt lat="53.311342" lon="06.577079"><ele>19.4</ele><time>2021-05-20T10:29:06Z</time><name>PT2529</name></trkpt>
<trkpt lat="53.311355" lon="06.577074"><ele>19.4</ele><time>2021-05-20T10:29:08Z</time><name>PT2530</name></trkpt>
<trkpt lat="53.311367" lon="06.577071"><ele>19.5</ele><time>2021-05-20T10:29:08Z</time><name>PT2531</name></trkpt>
<trkpt lat="53.311378" lon="06.577068"><ele>19.6</ele><time>2021-05-20T10:29:09Z</time><name>PT2532</name></trkpt>
<trkpt lat="53.311388" lon="06.577066"><ele>19.6</ele><time>2021-05-20T10:29:11Z</time><name>PT2533</name></trkpt>
<trkpt lat="53.311400" lon="06.577064"><ele>19.7</ele><time>2021-05-20T10:29:11Z</time><name>PT2534</name></trkpt>
<trkpt lat="53.311412" lon="06.577060"><ele>19.6</ele><time>2021-05-20T10:29:13Z</time><name>PT2535</name></trkpt>
<trkpt lat="53.311424" lon="06.577055"><ele>19.6</ele><time>2021-05-20T10:29:13Z</time><name>PT2536</name></trkpt>
<trkpt lat="53.311435" lon="06.577050"><ele>19.6</ele><time>2021-05-20T10:29:14Z</time><name>PT2537</name></trkpt>
<trkpt lat="53.311447" lon="06.577047"><ele>19.6</ele><time>2021-05-20T10:29:16Z</time><name>PT2538</name></trkpt>
<trkpt lat="53.311458" lon="06.577042"><ele>19.5</ele><time>2021-05-20T10:29:16Z</time><name>PT2539</name></trkpt>
<trkpt lat="53.311468" lon="06.577041"><ele>19.6</ele><time>2021-05-20T10:29:17Z</time><name>PT2540</name></trkpt>
<trkpt lat="53.311479" lon="06.577039"><ele>19.6</ele><time>2021-05-20T10:29:19Z</time><name>PT2541</name></trkpt>
<trkpt lat="53.311490" lon="06.577039"><ele>19.6</ele><time>2021-05-20T10:29:19Z</time><name>PT2542</name></trkpt>
<trkpt lat="53.311501" lon="06.577037"><ele>19.8</ele><time>2021-05-20T10:29:21Z</time><name>PT2543</name></trkpt>
<trkpt lat="53.311514" lon="06.577033"><ele>19.8</ele><time>2021-05-20T10:29:21Z</time><name>PT2544</name></trkpt>
<trkpt lat="53.311526" lon="06.577031"><ele>20</ele><time>2021-05-20T10:29:22Z</time><name>PT2545</name></trkpt>
<trkpt lat="53.311538" lon="06.577028"><ele>20.1</ele><time>2021-05-20T10:29:24Z</time><name>PT2546</name></trkpt>
<trkpt lat="53.311550" lon="06.577024"><ele>20.2</ele><time>2021-05-20T10:29:24Z</time><name>PT2547</name></trkpt>
<trkpt lat="53.311562" lon="06.577021"><ele>20.3</ele><time>2021-05-20T10:29:26Z</time><name>PT2548</name></trkpt>
<trkpt lat="53.311574" lon="06.577017"><ele>20.2</ele><time>2021-05-20T10:29:26Z</time><name>PT2549</name></trkpt>
<trkpt lat="53.311585" lon="06.577014"><ele>20.3</ele><time>2021-05-20T10:29:27Z</time><name>PT2550</name></trkpt>
<trkpt lat="53.311598" lon="06.577009"><ele>20.1</ele><time>2021-05-20T10:29:29Z</time><name>PT2551</name></trkpt>
<trkpt lat="53.311610" lon="06.577006"><ele>20.1</ele><time>2021-05-20T10:29:29Z</time><name>PT2552</name></trkpt>
<trkpt lat="53.311621" lon="06.577003"><ele>19.9</ele><time>2021-05-20T10:29:30Z</time><name>PT2553</name></trkpt>
<trkpt lat="53.311631" lon="06.577002"><ele>19.7</ele><time>2021-05-20T10:29:32Z</time><name>PT2554</name></trkpt>
<trkpt lat="53.311643" lon="06.577000"><ele>19.6</ele><time>2021-05-20T10:29:32Z</time><name>PT2555</name></trkpt>
<trkpt lat="53.311655" lon="06.576999"><ele>19.5</ele><time>2021-05-20T10:29:33Z</time><name>PT2556</name></trkpt>
<trkpt lat="53.311665" lon="06.576997"><ele>19.6</ele><time>2021-05-20T10:29:35Z</time><name>PT2557</name></trkpt>
<trkpt lat="53.311678" lon="06.576996"><ele>19.7</ele><time>2021-05-20T10:29:35Z</time><name>PT2558</name></trkpt>
<trkpt lat="53.311689" lon="06.576995"><ele>19.9</ele><time>2021-05-20T10:29:37Z</time><name>PT2559</name></trkpt>
<trkpt lat="53.311701" lon="06.576994"><ele>19.9</ele><time>2021-05-20T10:29:37Z</time><name>PT2560</name></trkpt>
<trkpt lat="53.311713" lon="06.576991"><ele>20</ele><time>2021-05-20T10:29:38Z</time><name>PT2561</name></trkpt>
<trkpt lat="53.311725" lon="06.576988"><ele>19.8</ele><time>2021-05-20T10:29:40Z</time><name>PT2562</name></trkpt>
<trkpt lat="53.311737" lon="06.576984"><ele>19.9</ele><time>2021-05-20T10:29:40Z</time><name>PT2563</name></trkpt>
<trkpt lat="53.311749" lon="06.576981"><ele>19.9</ele><time>2021-05-20T10:29:42Z</time><name>PT2564</name></trkpt>
<trkpt lat="53.311761" lon="06.576978"><ele>19.8</ele><time>2021-05-20T10:29:42Z</time><name>PT2565</name></trkpt>
<trkpt lat="53.311773" lon="06.576975"><ele>20</ele><time>2021-05-20T10:29:43Z</time><name>PT2566</name></trkpt>
<trkpt lat="53.311784" lon="06.576970"><ele>19.9</ele><time>2021-05-20T10:29:45Z</time><name>PT2567</name></trkpt>
<trkpt lat="53.311797" lon="06.576968"><ele>19.8</ele><time>2021-05-20T10:29:45Z</time><name>PT2568</name></trkpt>
<trkpt lat="53.311809" lon="06.576965"><ele>19.7</ele><time>2021-05-20T10:29:46Z</time><name>PT2569</name></trkpt>
<trkpt lat="53.311820" lon="06.576961"><ele>19.5</ele><time>2021-05-20T10:29:48Z</time><name>PT2570</name></trkpt>
<trkpt lat="53.311830" lon="06.576959"><ele>19.5</ele><time>2021-05-20T10:29:48Z</time><name>PT2571</name></trkpt>
<trkpt lat="53.311842" lon="06.576957"><ele>19.5</ele><time>2021-05-20T10:29:49Z</time><name>PT2572</name></trkpt>
<trkpt lat="53.311854" lon="06.576956"><ele>19.5</ele><time>2021-05-20T10:29:51Z</time><name>PT2573</name></trkpt>
<trkpt lat="53.311866" lon="06.576954"><ele>19.6</ele><time>2021-05-20T10:29:51Z</time><name>PT2574</name></trkpt>
<trkpt lat="53.311876" lon="06.576951"><ele>19.6</ele><time>2021-05-20T10:29:52Z</time><name>PT2575</name></trkpt>
<trkpt lat="53.311886" lon="06.576946"><ele>19.7</ele><time>2021-05-20T10:29:54Z</time><name>PT2576</name></trkpt>
<trkpt lat="53.311896" lon="06.576940"><ele>19.8</ele><time>2021-05-20T10:29:54Z</time><name>PT2577</name></trkpt>
<trkpt lat="53.311909" lon="06.576933"><ele>20</ele><time>2021-05-20T10:29:55Z</time><name>PT2578</name></trkpt>
<trkpt lat="53.311919" lon="06.576924"><ele>20.1</ele><time>2021-05-20T10:29:57Z</time><name>PT2579</name></trkpt>
<trkpt lat="53.311927" lon="06.576916"><ele>20</ele><time>2021-05-20T10:29:57Z</time><name>PT2580</name></trkpt>
<trkpt lat="53.311936" lon="06.576909"><ele>20</ele><time>2021-05-20T10:29:59Z</time><name>PT2581</name></trkpt>
<trkpt lat="53.311946" lon="06.576902"><ele>19.9</ele><time>2021-05-20T10:29:59Z</time><name>PT2582</name></trkpt>
<trkpt lat="53.311958" lon="06.576896"><ele>19.6</ele><time>2021-05-20T10:30:00Z</time><name>PT2583</name></trkpt>
<trkpt lat="53.311969" lon="06.576890"><ele>19.6</ele><time>2021-05-20T10:30:02Z</time><name>PT2584</name></trkpt>
<trkpt lat="53.311979" lon="06.576885"><ele>19.6</ele><time>2021-05-20T10:30:02Z</time><name>PT2585</name></trkpt>
<trkpt lat="53.311988" lon="06.576879"><ele>19.6</ele><time>2021-05-20T10:30:03Z</time><name>PT2586</name></trkpt>
<trkpt lat="53.311997" lon="06.576872"><ele>19.6</ele><time>2021-05-20T10:30:05Z</time><name>PT2587</name></trkpt>
<trkpt lat="53.312006" lon="06.576862"><ele>19.5</ele><time>2021-05-20T10:30:05Z</time><name>PT2588</name></trkpt>
<trkpt lat="53.312016" lon="06.576855"><ele>19.4</ele><time>2021-05-20T10:30:06Z</time><name>PT2589</name></trkpt>
<trkpt lat="53.312027" lon="06.576845"><ele>19.5</ele><time>2021-05-20T10:30:08Z</time><name>PT2590</name></trkpt>
<trkpt lat="53.312038" lon="06.576834"><ele>19.4</ele><time>2021-05-20T10:30:08Z</time><name>PT2591</name></trkpt>
<trkpt lat="53.312050" lon="06.576822"><ele>19.4</ele><time>2021-05-20T10:30:09Z</time><name>PT2592</name></trkpt>
<trkpt lat="53.312062" lon="06.576810"><ele>19.2</ele><time>2021-05-20T10:30:11Z</time><name>PT2593</name></trkpt>
<trkpt lat="53.312076" lon="06.576798"><ele>19.2</ele><time>2021-05-20T10:30:11Z</time><name>PT2594</name></trkpt>
<trkpt lat="53.312087" lon="06.576786"><ele>19.1</ele><time>2021-05-20T10:30:13Z</time><name>PT2595</name></trkpt>
<trkpt lat="53.312096" lon="06.576775"><ele>19.2</ele><time>2021-05-20T10:30:13Z</time><name>PT2596</name></trkpt>
<trkpt lat="53.312105" lon="06.576766"><ele>19.2</ele><time>2021-05-20T10:30:14Z</time><name>PT2597</name></trkpt>
<trkpt lat="53.312113" lon="06.576757"><ele>19.2</ele><time>2021-05-20T10:30:16Z</time><name>PT2598</name></trkpt>
<trkpt lat="53.312123" lon="06.576746"><ele>19.3</ele><time>2021-05-20T10:30:16Z</time><name>PT2599</name></trkpt>
<trkpt lat="53.312134" lon="06.576738"><ele>19.3</ele><time>2021-05-20T10:30:18Z</time><name>PT2600</name></trkpt>
<trkpt lat="53.312142" lon="06.576728"><ele>19.3</ele><time>2021-05-20T10:30:18Z</time><name>PT2601</name></trkpt>
<trkpt lat="53.312152" lon="06.576719"><ele>19.4</ele><time>2021-05-20T10:30:19Z</time><name>PT2602</name></trkpt>
<trkpt lat="53.312163" lon="06.576709"><ele>19.4</ele><time>2021-05-20T10:30:21Z</time><name>PT2603</name></trkpt>
<trkpt lat="53.312173" lon="06.576699"><ele>19.6</ele><time>2021-05-20T10:30:21Z</time><name>PT2604</name></trkpt>
<trkpt lat="53.312180" lon="06.576689"><ele>19.6</ele><time>2021-05-20T10:30:22Z</time><name>PT2605</name></trkpt>
<trkpt lat="53.312189" lon="06.576677"><ele>19.5</ele><time>2021-05-20T10:30:24Z</time><name>PT2606</name></trkpt>
<trkpt lat="53.312201" lon="06.576668"><ele>19.5</ele><time>2021-05-20T10:30:24Z</time><name>PT2607</name></trkpt>
<trkpt lat="53.312211" lon="06.576661"><ele>19.4</ele><time>2021-05-20T10:30:25Z</time><name>PT2608</name></trkpt>
<trkpt lat="53.312219" lon="06.576656"><ele>19.4</ele><time>2021-05-20T10:30:27Z</time><name>PT2609</name></trkpt>
<trkpt lat="53.312228" lon="06.576648"><ele>19.2</ele><time>2021-05-20T10:30:27Z</time><name>PT2610</name></trkpt>
<trkpt lat="53.312237" lon="06.576638"><ele>19.4</ele><time>2021-05-20T10:30:28Z</time><name>PT2611</name></trkpt>
<trkpt lat="53.312244" lon="06.576630"><ele>19.6</ele><time>2021-05-20T10:30:30Z</time><name>PT2612</name></trkpt>
<trkpt lat="53.312254" lon="06.576625"><ele>19.5</ele><time>2021-05-20T10:30:30Z</time><name>PT2613</name></trkpt>
<trkpt lat="53.312262" lon="06.576620"><ele>19.6</ele><time>2021-05-20T10:30:31Z</time><name>PT2614</name></trkpt>
<trkpt lat="53.312272" lon="06.576616"><ele>19.5</ele><time>2021-05-20T10:30:33Z</time><name>PT2615</name></trkpt>
<trkpt lat="53.312281" lon="06.576612"><ele>19.6</ele><time>2021-05-20T10:30:33Z</time><name>PT2616</name></trkpt>
<trkpt lat="53.312291" lon="06.576605"><ele>19.6</ele><time>2021-05-20T10:30:34Z</time><name>PT2617</name></trkpt>
<trkpt lat="53.312300" lon="06.576599"><ele>19.6</ele><time>2021-05-20T10:30:36Z</time><name>PT2618</name></trkpt>
<trkpt lat="53.312311" lon="06.576591"><ele>19.6</ele><time>2021-05-20T10:30:36Z</time><name>PT2619</name></trkpt>
<trkpt lat="53.312322" lon="06.576582"><ele>19.6</ele><time>2021-05-20T10:30:37Z</time><name>PT2620</name></trkpt>
<trkpt lat="53.312331" lon="06.576577"><ele>19.6</ele><time>2021-05-20T10:30:39Z</time><name>PT2621</name></trkpt>
<trkpt lat="53.312340" lon="06.576574"><ele>19.5</ele><time>2021-05-20T10:30:39Z</time><name>PT2622</name></trkpt>
<trkpt lat="53.312351" lon="06.576570"><ele>19.7</ele><time>2021-05-20T10:30:40Z</time><name>PT2623</name></trkpt>
<trkpt lat="53.312363" lon="06.576566"><ele>19.6</ele><time>2021-05-20T10:30:42Z</time><name>PT2624</name></trkpt>
<trkpt lat="53.312376" lon="06.576561"><ele>19.7</ele><time>2021-05-20T10:30:42Z</time><name>PT2625</name></trkpt>
<trkpt lat="53.312389" lon="06.576556"><ele>19.6</ele><time>2021-05-20T10:30:43Z</time><name>PT2626</name></trkpt>
<trkpt lat="53.312401" lon="06.576551"><ele>19.4</ele><time>2021-05-20T10:30:45Z</time><name>PT2627</name></trkpt>
<trkpt lat="53.312414" lon="06.576543"><ele>19.6</ele><time>2021-05-20T10:30:45Z</time><name>PT2628</name></trkpt>
<trkpt lat="53.312427" lon="06.576536"><ele>19.4</ele><time>2021-05-20T10:30:46Z</time><name>PT2629</name></trkpt>
<trkpt lat="53.312439" lon="06.576530"><ele>19.6</ele><time>2021-05-20T10:30:48Z</time><name>PT2630</name></trkpt>
<trkpt lat="53.312452" lon="06.576525"><ele>19.6</ele><time>2021-05-20T10:30:48Z</time><name>PT2631</name></trkpt>
<trkpt lat="53.312464" lon="06.576518"><ele>19.4</ele><time>2021-05-20T10:30:50Z</time><name>PT2632</name></trkpt>
<trkpt lat="53.312474" lon="06.576511"><ele>19.6</ele><time>2021-05-20T10:30:50Z</time><name>PT2633</name></trkpt>
<trkpt lat="53.312485" lon="06.576505"><ele>19.5</ele><time>2021-05-20T10:30:52Z</time><name>PT2634</name></trkpt>
<trkpt lat="53.312495" lon="06.576500"><ele>19.6</ele><time>2021-05-20T10:30:52Z</time><name>PT2635</name></trkpt>
<trkpt lat="53.312506" lon="06.576495"><ele>19.7</ele><time>2021-05-20T10:30:54Z</time><name>PT2636</name></trkpt>
<trkpt lat="53.312518" lon="06.576492"><ele>19.6</ele><time>2021-05-20T10:30:54Z</time><name>PT2637</name></trkpt>
<trkpt lat="53.312531" lon="06.576488"><ele>19.6</ele><time>2021-05-20T10:30:56Z</time><name>PT2638</name></trkpt>
<trkpt lat="53.312543" lon="06.576483"><ele>19.5</ele><time>2021-05-20T10:30:56Z</time><name>PT2639</name></trkpt>
<trkpt lat="53.312556" lon="06.576478"><ele>19.6</ele><time>2021-05-20T10:30:57Z</time><name>PT2640</name></trkpt>
<trkpt lat="53.312569" lon="06.576473"><ele>19.6</ele><time>2021-05-20T10:30:59Z</time><name>PT2641</name></trkpt>
<trkpt lat="53.312582" lon="06.576470"><ele>19.4</ele><time>2021-05-20T10:30:59Z</time><name>PT2642</name></trkpt>
<trkpt lat="53.312594" lon="06.576464"><ele>19.5</ele><time>2021-05-20T10:31:01Z</time><name>PT2643</name></trkpt>
<trkpt lat="53.312605" lon="06.576457"><ele>19.4</ele><time>2021-05-20T10:31:01Z</time><name>PT2644</name></trkpt>
<trkpt lat="53.312621" lon="06.576451"><ele>19.2</ele><time>2021-05-20T10:31:02Z</time><name>PT2645</name></trkpt>
<trkpt lat="53.312633" lon="06.576446"><ele>19.3</ele><time>2021-05-20T10:31:04Z</time><name>PT2646</name></trkpt>
<trkpt lat="53.312645" lon="06.576441"><ele>19.4</ele><time>2021-05-20T10:31:04Z</time><name>PT2647</name></trkpt>
<trkpt lat="53.312657" lon="06.576436"><ele>19.4</ele><time>2021-05-20T10:31:05Z</time><name>PT2648</name></trkpt>
<trkpt lat="53.312669" lon="06.576434"><ele>19.6</ele><time>2021-05-20T10:31:07Z</time><name>PT2649</name></trkpt>
<trkpt lat="53.312680" lon="06.576433"><ele>19.5</ele><time>2021-05-20T10:31:07Z</time><name>PT2650</name></trkpt>
<trkpt lat="53.312691" lon="06.576433"><ele>19.5</ele><time>2021-05-20T10:31:08Z</time><name>PT2651</name></trkpt>
<trkpt lat="53.312704" lon="06.576432"><ele>19.5</ele><time>2021-05-20T10:31:10Z</time><name>PT2652</name></trkpt>
<trkpt lat="53.312715" lon="06.576431"><ele>19.4</ele><time>2021-05-20T10:31:10Z</time><name>PT2653</name></trkpt>
<trkpt lat="53.312728" lon="06.576430"><ele>19.3</ele><time>2021-05-20T10:31:11Z</time><name>PT2654</name></trkpt>
<trkpt lat="53.312739" lon="06.576427"><ele>19.3</ele><time>2021-05-20T10:31:13Z</time><name>PT2655</name></trkpt>
<trkpt lat="53.312752" lon="06.576424"><ele>19.3</ele><time>2021-05-20T10:31:13Z</time><name>PT2656</name></trkpt>
<trkpt lat="53.312765" lon="06.576420"><ele>19.2</ele><time>2021-05-20T10:31:14Z</time><name>PT2657</name></trkpt>
<trkpt lat="53.312777" lon="06.576416"><ele>19.1</ele><time>2021-05-20T10:31:16Z</time><name>PT2658</name></trkpt>
<trkpt lat="53.312790" lon="06.576412"><ele>19.1</ele><time>2021-05-20T10:31:16Z</time><name>PT2659</name></trkpt>
<trkpt lat="53.312802" lon="06.576409"><ele>19</ele><time>2021-05-20T10:31:17Z</time><name>PT2660</name></trkpt>
<trkpt lat="53.312815" lon="06.576406"><ele>19.1</ele><time>2021-05-20T10:31:19Z</time><name>PT2661</name></trkpt>
<trkpt lat="53.312827" lon="06.576402"><ele>19.1</ele><time>2021-05-20T10:31:19Z</time><name>PT2662</name></trkpt>
<trkpt lat="53.312837" lon="06.576400"><ele>19.3</ele><time>2021-05-20T10:31:20Z</time><name>PT2663</name></trkpt>
<trkpt lat="53.312846" lon="06.576396"><ele>19.4</ele><time>2021-05-20T10:31:22Z</time><name>PT2664</name></trkpt>
<trkpt lat="53.312857" lon="06.576394"><ele>19.4</ele><time>2021-05-20T10:31:22Z</time><name>PT2665</name></trkpt>
<trkpt lat="53.312868" lon="06.576396"><ele>19.3</ele><time>2021-05-20T10:31:24Z</time><name>PT2666</name></trkpt>
<trkpt lat="53.312880" lon="06.576397"><ele>19.2</ele><time>2021-05-20T10:31:24Z</time><name>PT2667</name></trkpt>
<trkpt lat="53.312892" lon="06.576396"><ele>19.3</ele><time>2021-05-20T10:31:25Z</time><name>PT2668</name></trkpt>
<trkpt lat="53.312904" lon="06.576396"><ele>19.5</ele><time>2021-05-20T10:31:27Z</time><name>PT2669</name></trkpt>
<trkpt lat="53.312915" lon="06.576398"><ele>19.6</ele><time>2021-05-20T10:31:27Z</time><name>PT2670</name></trkpt>
<trkpt lat="53.312927" lon="06.576399"><ele>19.7</ele><time>2021-05-20T10:31:29Z</time><name>PT2671</name></trkpt>
<trkpt lat="53.312940" lon="06.576398"><ele>19.6</ele><time>2021-05-20T10:31:29Z</time><name>PT2672</name></trkpt>
<trkpt lat="53.312954" lon="06.576395"><ele>19.6</ele><time>2021-05-20T10:31:30Z</time><name>PT2673</name></trkpt>
<trkpt lat="53.312970" lon="06.576393"><ele>19.2</ele><time>2021-05-20T10:31:32Z</time><name>PT2674</name></trkpt>
<trkpt lat="53.312987" lon="06.576390"><ele>19.3</ele><time>2021-05-20T10:31:32Z</time><name>PT2675</name></trkpt>
<trkpt lat="53.313000" lon="06.576386"><ele>19.4</ele><time>2021-05-20T10:31:33Z</time><name>PT2676</name></trkpt>
<trkpt lat="53.313011" lon="06.576384"><ele>19.4</ele><time>2021-05-20T10:31:35Z</time><name>PT2677</name></trkpt>
<trkpt lat="53.313021" lon="06.576383"><ele>19.5</ele><time>2021-05-20T10:31:35Z</time><name>PT2678</name></trkpt>
<trkpt lat="53.313033" lon="06.576381"><ele>19.5</ele><time>2021-05-20T10:31:36Z</time><name>PT2679</name></trkpt>
<trkpt lat="53.313046" lon="06.576379"><ele>19.6</ele><time>2021-05-20T10:31:38Z</time><name>PT2680</name></trkpt>
<trkpt lat="53.313058" lon="06.576376"><ele>19.5</ele><time>2021-05-20T10:31:38Z</time><name>PT2681</name></trkpt>
<trkpt lat="53.313072" lon="06.576374"><ele>19.6</ele><time>2021-05-20T10:31:40Z</time><name>PT2682</name></trkpt>
<trkpt lat="53.313084" lon="06.576370"><ele>19.6</ele><time>2021-05-20T10:31:40Z</time><name>PT2683</name></trkpt>
<trkpt lat="53.313093" lon="06.576364"><ele>19.5</ele><time>2021-05-20T10:31:41Z</time><name>PT2684</name></trkpt>
<trkpt lat="53.313105" lon="06.576355"><ele>19.6</ele><time>2021-05-20T10:31:43Z</time><name>PT2685</name></trkpt>
<trkpt lat="53.313115" lon="06.576347"><ele>19.6</ele><time>2021-05-20T10:31:43Z</time><name>PT2686</name></trkpt>
<trkpt lat="53.313127" lon="06.576339"><ele>19.6</ele><time>2021-05-20T10:31:44Z</time><name>PT2687</name></trkpt>
<trkpt lat="53.313137" lon="06.576331"><ele>19.6</ele><time>2021-05-20T10:31:46Z</time><name>PT2688</name></trkpt>
<trkpt lat="53.313146" lon="06.576326"><ele>19.6</ele><time>2021-05-20T10:31:46Z</time><name>PT2689</name></trkpt>
<trkpt lat="53.313158" lon="06.576323"><ele>19.4</ele><time>2021-05-20T10:31:48Z</time><name>PT2690</name></trkpt>
<trkpt lat="53.313169" lon="06.576322"><ele>19.3</ele><time>2021-05-20T10:31:48Z</time><name>PT2691</name></trkpt>
<trkpt lat="53.313181" lon="06.576319"><ele>19.2</ele><time>2021-05-20T10:31:49Z</time><name>PT2692</name></trkpt>
<trkpt lat="53.313192" lon="06.576313"><ele>19.4</ele><time>2021-05-20T10:31:51Z</time><name>PT2693</name></trkpt>
<trkpt lat="53.313204" lon="06.576305"><ele>19.4</ele><time>2021-05-20T10:31:51Z</time><name>PT2694</name></trkpt>
<trkpt lat="53.313214" lon="06.576296"><ele>19.7</ele><time>2021-05-20T10:31:53Z</time><name>PT2695</name></trkpt>
<trkpt lat="53.313222" lon="06.576288"><ele>19.7</ele><time>2021-05-20T10:31:53Z</time><name>PT2696</name></trkpt>
<trkpt lat="53.313228" lon="06.576282"><ele>19.7</ele><time>2021-05-20T10:31:55Z</time><name>PT2697</name></trkpt>
<trkpt lat="53.313234" lon="06.576276"><ele>19.7</ele><time>2021-05-20T10:31:55Z</time><name>PT2698</name></trkpt>
<trkpt lat="53.313242" lon="06.576270"><ele>19.8</ele><time>2021-05-20T10:31:57Z</time><name>PT2699</name></trkpt>
<trkpt lat="53.313248" lon="06.576265"><ele>19.6</ele><time>2021-05-20T10:31:57Z</time><name>PT2700</name></trkpt>
<trkpt lat="53.313256" lon="06.576255"><ele>19.6</ele><time>2021-05-20T10:31:59Z</time><name>PT2701</name></trkpt>
<trkpt lat="53.313266" lon="06.576246"><ele>19.6</ele><time>2021-05-20T10:31:59Z</time><name>PT2702</name></trkpt>
<trkpt lat="53.313278" lon="06.576236"><ele>19.6</ele><time>2021-05-20T10:32:01Z</time><name>PT2703</name></trkpt>
<trkpt lat="53.313289" lon="06.576229"><ele>19.6</ele><time>2021-05-20T10:32:01Z</time><name>PT2704</name></trkpt>
<trkpt lat="53.313299" lon="06.576221"><ele>19.7</ele><time>2021-05-20T10:32:03Z</time><name>PT2705</name></trkpt>
<trkpt lat="53.313309" lon="06.576213"><ele>19.7</ele><time>2021-05-20T10:32:03Z</time><name>PT2706</name></trkpt>
<trkpt lat="53.313320" lon="06.576208"><ele>19.6</ele><time>2021-05-20T10:32:04Z</time><name>PT2707</name></trkpt>
<trkpt lat="53.313329" lon="06.576203"><ele>19.7</ele><time>2021-05-20T10:32:06Z</time><name>PT2708</name></trkpt>
<trkpt lat="53.313338" lon="06.576198"><ele>19.7</ele><time>2021-05-20T10:32:06Z</time><name>PT2709</name></trkpt>
<trkpt lat="53.313345" lon="06.576195"><ele>19.7</ele><time>2021-05-20T10:32:08Z</time><name>PT2710</name></trkpt>
<trkpt lat="53.313353" lon="06.576190"><ele>19.7</ele><time>2021-05-20T10:32:08Z</time><name>PT2711</name></trkpt>
<trkpt lat="53.313362" lon="06.576184"><ele>19.6</ele><time>2021-05-20T10:32:10Z</time><name>PT2712</name></trkpt>
<trkpt lat="53.313373" lon="06.576177"><ele>19.6</ele><time>2021-05-20T10:32:10Z</time><name>PT2713</name></trkpt>
<trkpt lat="53.313385" lon="06.576170"><ele>19.6</ele><time>2021-05-20T10:32:12Z</time><name>PT2714</name></trkpt>
<trkpt lat="53.313396" lon="06.576166"><ele>19.7</ele><time>2021-05-20T10:32:12Z</time><name>PT2715</name></trkpt>
<trkpt lat="53.313408" lon="06.576162"><ele>19.7</ele><time>2021-05-20T10:32:14Z</time><name>PT2716</name></trkpt>
<trkpt lat="53.313419" lon="06.576159"><ele>19.8</ele><time>2021-05-20T10:32:14Z</time><name>PT2717</name></trkpt>
<trkpt lat="53.313430" lon="06.576156"><ele>19.8</ele><time>2021-05-20T10:32:16Z</time><name>PT2718</name></trkpt>
<trkpt lat="53.313442" lon="06.576154"><ele>19.6</ele><time>2021-05-20T10:32:16Z</time><name>PT2719</name></trkpt>
<trkpt lat="53.313455" lon="06.576152"><ele>19.6</ele><time>2021-05-20T10:32:17Z</time><name>PT2720</name></trkpt>
<trkpt lat="53.313465" lon="06.576150"><ele>19.4</ele><time>2021-05-20T10:32:19Z</time><name>PT2721</name></trkpt>
<trkpt lat="53.313476" lon="06.576147"><ele>19.5</ele><time>2021-05-20T10:32:19Z</time><name>PT2722</name></trkpt>
<trkpt lat="53.313486" lon="06.576142"><ele>19.3</ele><time>2021-05-20T10:32:20Z</time><name>PT2723</name></trkpt>
<trkpt lat="53.313498" lon="06.576136"><ele>19.3</ele><time>2021-05-20T10:32:22Z</time><name>PT2724</name></trkpt>
<trkpt lat="53.313510" lon="06.576130"><ele>19.3</ele><time>2021-05-20T10:32:22Z</time><name>PT2725</name></trkpt>
<trkpt lat="53.313522" lon="06.576124"><ele>19.5</ele><time>2021-05-20T10:32:24Z</time><name>PT2726</name></trkpt>
<trkpt lat="53.313533" lon="06.576119"><ele>19.6</ele><time>2021-05-20T10:32:24Z</time><name>PT2727</name></trkpt>
<trkpt lat="53.313543" lon="06.576114"><ele>19.8</ele><time>2021-05-20T10:32:25Z</time><name>PT2728</name></trkpt>
<trkpt lat="53.313556" lon="06.576111"><ele>20.1</ele><time>2021-05-20T10:32:27Z</time><name>PT2729</name></trkpt>
<trkpt lat="53.313566" lon="06.576109"><ele>20</ele><time>2021-05-20T10:32:27Z</time><name>PT2730</name></trkpt>
<trkpt lat="53.313576" lon="06.576107"><ele>20</ele><time>2021-05-20T10:32:29Z</time><name>PT2731</name></trkpt>
<trkpt lat="53.313587" lon="06.576103"><ele>19.9</ele><time>2021-05-20T10:32:29Z</time><name>PT2732</name></trkpt>
<trkpt lat="53.313599" lon="06.576098"><ele>19.6</ele><time>2021-05-20T10:32:31Z</time><name>PT2733</name></trkpt>
<trkpt lat="53.313611" lon="06.576092"><ele>19.7</ele><time>2021-05-20T10:32:31Z</time><name>PT2734</name></trkpt>
<trkpt lat="53.313619" lon="06.576088"><ele>19.8</ele><time>2021-05-20T10:32:32Z</time><name>PT2735</name></trkpt>
<trkpt lat="53.313629" lon="06.576087"><ele>19.8</ele><time>2021-05-20T10:32:34Z</time><name>PT2736</name></trkpt>
<trkpt lat="53.313636" lon="06.576086"><ele>19.7</ele><time>2021-05-20T10:32:34Z</time><name>PT2737</name></trkpt>
<trkpt lat="53.313643" lon="06.576083"><ele>19.6</ele><time>2021-05-20T10:32:35Z</time><name>PT2738</name></trkpt>
<trkpt lat="53.313648" lon="06.576080"><ele>19.5</ele><time>2021-05-20T10:32:37Z</time><name>PT2739</name></trkpt>
<trkpt lat="53.313649" lon="06.576080"><ele>19.6</ele><time>2021-05-20T10:32:37Z</time><name>PT2740</name></trkpt>
<trkpt lat="53.313649" lon="06.576081"><ele>19.6</ele><time>2021-05-20T10:32:38Z</time><name>PT2741</name></trkpt>
<trkpt lat="53.313649" lon="06.576080"><ele>19.6</ele><time>2021-05-20T10:32:40Z</time><name>PT2742</name></trkpt>
<trkpt lat="53.313651" lon="06.576078"><ele>19.6</ele><time>2021-05-20T10:32:40Z</time><name>PT2743</name></trkpt>
<trkpt lat="53.313654" lon="06.576078"><ele>19.4</ele><time>2021-05-20T10:32:42Z</time><name>PT2744</name></trkpt>
<trkpt lat="53.313655" lon="06.576076"><ele>19.3</ele><time>2021-05-20T10:32:42Z</time><name>PT2745</name></trkpt>
<trkpt lat="53.313658" lon="06.576078"><ele>19.5</ele><time>2021-05-20T10:32:43Z</time><name>PT2746</name></trkpt>
<trkpt lat="53.313663" lon="06.576077"><ele>19.6</ele><time>2021-05-20T10:32:45Z</time><name>PT2747</name></trkpt>
<trkpt lat="53.313670" lon="06.576076"><ele>19.6</ele><time>2021-05-20T10:32:45Z</time><name>PT2748</name></trkpt>
<trkpt lat="53.313679" lon="06.576075"><ele>19.6</ele><time>2021-05-20T10:32:47Z</time><name>PT2749</name></trkpt>
<trkpt lat="53.313691" lon="06.576073"><ele>19.7</ele><time>2021-05-20T10:32:47Z</time><name>PT2750</name></trkpt>
<trkpt lat="53.313701" lon="06.576070"><ele>19.7</ele><time>2021-05-20T10:32:49Z</time><name>PT2751</name></trkpt>
<trkpt lat="53.313709" lon="06.576066"><ele>19.6</ele><time>2021-05-20T10:32:49Z</time><name>PT2752</name></trkpt>
<trkpt lat="53.313722" lon="06.576060"><ele>19.6</ele><time>2021-05-20T10:32:50Z</time><name>PT2753</name></trkpt>
<trkpt lat="53.313730" lon="06.576059"><ele>19.7</ele><time>2021-05-20T10:32:52Z</time><name>PT2754</name></trkpt>
<trkpt lat="53.313737" lon="06.576059"><ele>19.7</ele><time>2021-05-20T10:32:52Z</time><name>PT2755</name></trkpt>
<trkpt lat="53.313745" lon="06.576055"><ele>19.7</ele><time>2021-05-20T10:32:54Z</time><name>PT2756</name></trkpt>
<trkpt lat="53.313751" lon="06.576054"><ele>19.6</ele><time>2021-05-20T10:32:54Z</time><name>PT2757</name></trkpt>
<trkpt lat="53.313757" lon="06.576051"><ele>19.5</ele><time>2021-05-20T10:32:56Z</time><name>PT2758</name></trkpt>
<trkpt lat="53.313762" lon="06.576049"><ele>19.5</ele><time>2021-05-20T10:32:56Z</time><name>PT2759</name></trkpt>
<trkpt lat="53.313764" lon="06.576050"><ele>19.6</ele><time>2021-05-20T10:32:58Z</time><name>PT2760</name></trkpt>
<trkpt lat="53.313764" lon="06.576049"><ele>19.6</ele><time>2021-05-20T10:32:58Z</time><name>PT2761</name></trkpt>
<trkpt lat="53.313764" lon="06.576049"><ele>19.6</ele><time>2021-05-20T10:32:59Z</time><name>PT2762</name></trkpt>
<trkpt lat="53.313765" lon="06.576049"><ele>19.7</ele><time>2021-05-20T10:33:01Z</time><name>PT2763</name></trkpt>
<trkpt lat="53.313765" lon="06.576049"><ele>19.6</ele><time>2021-05-20T10:33:01Z</time><name>PT2764</name></trkpt>
<trkpt lat="53.313764" lon="06.576050"><ele>19.5</ele><time>2021-05-20T10:33:02Z</time><name>PT2765</name></trkpt>
<trkpt lat="53.313766" lon="06.576042"><ele>19.7</ele><time>2021-05-20T10:33:23Z</time><name>PT2766</name></trkpt>
<trkpt lat="53.313766" lon="06.576043"><ele>19.4</ele><time>2021-05-20T10:33:25Z</time><name>PT2767</name></trkpt>
<trkpt lat="53.313767" lon="06.576045"><ele>19.3</ele><time>2021-05-20T10:33:25Z</time><name>PT2768</name></trkpt>
<trkpt lat="53.313768" lon="06.576045"><ele>19.2</ele><time>2021-05-20T10:33:26Z</time><name>PT2769</name></trkpt>
<trkpt lat="53.313772" lon="06.576035"><ele>19.1</ele><time>2021-05-20T10:33:38Z</time><name>PT2770</name></trkpt>
<trkpt lat="53.313775" lon="06.576027"><ele>19.1</ele><time>2021-05-20T10:33:39Z</time><name>PT2771</name></trkpt>
<trkpt lat="53.313777" lon="06.576021"><ele>19.3</ele><time>2021-05-20T10:33:41Z</time><name>PT2772</name></trkpt>
<trkpt lat="53.313777" lon="06.576011"><ele>19.2</ele><time>2021-05-20T10:33:41Z</time><name>PT2773</name></trkpt>
<trkpt lat="53.313775" lon="06.575995"><ele>19.3</ele><time>2021-05-20T10:33:43Z</time><name>PT2774</name></trkpt>
<trkpt lat="53.313773" lon="06.575977"><ele>19.1</ele><time>2021-05-20T10:33:43Z</time><name>PT2775</name></trkpt>
<trkpt lat="53.313772" lon="06.575959"><ele>19.2</ele><time>2021-05-20T10:33:44Z</time><name>PT2776</name></trkpt>
<trkpt lat="53.313773" lon="06.575940"><ele>19.2</ele><time>2021-05-20T10:33:46Z</time><name>PT2777</name></trkpt>
<trkpt lat="53.313771" lon="06.575924"><ele>19.2</ele><time>2021-05-20T10:33:46Z</time><name>PT2778</name></trkpt>
<trkpt lat="53.313768" lon="06.575903"><ele>19.4</ele><time>2021-05-20T10:33:48Z</time><name>PT2779</name></trkpt>
<trkpt lat="53.313766" lon="06.575884"><ele>19.5</ele><time>2021-05-20T10:33:48Z</time><name>PT2780</name></trkpt>
<trkpt lat="53.313765" lon="06.575864"><ele>19.6</ele><time>2021-05-20T10:33:49Z</time><name>PT2781</name></trkpt>
<trkpt lat="53.313763" lon="06.575844"><ele>19.6</ele><time>2021-05-20T10:33:51Z</time><name>PT2782</name></trkpt>
<trkpt lat="53.313761" lon="06.575825"><ele>19.6</ele><time>2021-05-20T10:33:51Z</time><name>PT2783</name></trkpt>
<trkpt lat="53.313759" lon="06.575805"><ele>19.6</ele><time>2021-05-20T10:33:52Z</time><name>PT2784</name></trkpt>
<trkpt lat="53.313756" lon="06.575787"><ele>19.5</ele><time>2021-05-20T10:33:54Z</time><name>PT2785</name></trkpt>
<trkpt lat="53.313754" lon="06.575768"><ele>19.6</ele><time>2021-05-20T10:33:54Z</time><name>PT2786</name></trkpt>
<trkpt lat="53.313751" lon="06.575746"><ele>19.6</ele><time>2021-05-20T10:33:55Z</time><name>PT2787</name></trkpt>
<trkpt lat="53.313749" lon="06.575726"><ele>19.7</ele><time>2021-05-20T10:33:57Z</time><name>PT2788</name></trkpt>
<trkpt lat="53.313748" lon="06.575706"><ele>19.6</ele><time>2021-05-20T10:33:57Z</time><name>PT2789</name></trkpt>
<trkpt lat="53.313746" lon="06.575689"><ele>19.6</ele><time>2021-05-20T10:33:58Z</time><name>PT2790</name></trkpt>
<trkpt lat="53.313747" lon="06.575670"><ele>19.4</ele><time>2021-05-20T10:34:00Z</time><name>PT2791</name></trkpt>
<trkpt lat="53.313745" lon="06.575650"><ele>19.5</ele><time>2021-05-20T10:34:00Z</time><name>PT2792</name></trkpt>
<trkpt lat="53.313743" lon="06.575630"><ele>19.5</ele><time>2021-05-20T10:34:01Z</time><name>PT2793</name></trkpt>
<trkpt lat="53.313741" lon="06.575609"><ele>19.6</ele><time>2021-05-20T10:34:03Z</time><name>PT2794</name></trkpt>
<trkpt lat="53.313739" lon="06.575589"><ele>19.7</ele><time>2021-05-20T10:34:03Z</time><name>PT2795</name></trkpt>
<trkpt lat="53.313737" lon="06.575571"><ele>19.6</ele><time>2021-05-20T10:34:04Z</time><name>PT2796</name></trkpt>
<trkpt lat="53.313734" lon="06.575553"><ele>19.5</ele><time>2021-05-20T10:34:06Z</time><name>PT2797</name></trkpt>
<trkpt lat="53.313731" lon="06.575534"><ele>19.1</ele><time>2021-05-20T10:34:06Z</time><name>PT2798</name></trkpt>
<trkpt lat="53.313726" lon="06.575517"><ele>19.2</ele><time>2021-05-20T10:34:07Z</time><name>PT2799</name></trkpt>
<trkpt lat="53.313723" lon="06.575499"><ele>19.3</ele><time>2021-05-20T10:34:09Z</time><name>PT2800</name></trkpt>
<trkpt lat="53.313721" lon="06.575479"><ele>19.4</ele><time>2021-05-20T10:34:09Z</time><name>PT2801</name></trkpt>
<trkpt lat="53.313721" lon="06.575460"><ele>19.6</ele><time>2021-05-20T10:34:10Z</time><name>PT2802</name></trkpt>
<trkpt lat="53.313718" lon="06.575438"><ele>19.3</ele><time>2021-05-20T10:34:12Z</time><name>PT2803</name></trkpt>
<trkpt lat="53.313715" lon="06.575418"><ele>19.2</ele><time>2021-05-20T10:34:12Z</time><name>PT2804</name></trkpt>
<trkpt lat="53.313714" lon="06.575401"><ele>19.1</ele><time>2021-05-20T10:34:13Z</time><name>PT2805</name></trkpt>
<trkpt lat="53.313711" lon="06.575384"><ele>19</ele><time>2021-05-20T10:34:15Z</time><name>PT2806</name></trkpt>
<trkpt lat="53.313707" lon="06.575363"><ele>19.1</ele><time>2021-05-20T10:34:15Z</time><name>PT2807</name></trkpt>
<trkpt lat="53.313704" lon="06.575342"><ele>19.3</ele><time>2021-05-20T10:34:17Z</time><name>PT2808</name></trkpt>
<trkpt lat="53.313701" lon="06.575323"><ele>19.5</ele><time>2021-05-20T10:34:17Z</time><name>PT2809</name></trkpt>
<trkpt lat="53.313697" lon="06.575307"><ele>19.8</ele><time>2021-05-20T10:34:18Z</time><name>PT2810</name></trkpt>
<trkpt lat="53.313694" lon="06.575291"><ele>19.8</ele><time>2021-05-20T10:34:20Z</time><name>PT2811</name></trkpt>
<trkpt lat="53.313693" lon="06.575272"><ele>19.8</ele><time>2021-05-20T10:34:20Z</time><name>PT2812</name></trkpt>
<trkpt lat="53.313691" lon="06.575254"><ele>19.6</ele><time>2021-05-20T10:34:21Z</time><name>PT2813</name></trkpt>
<trkpt lat="53.313688" lon="06.575235"><ele>19.4</ele><time>2021-05-20T10:34:23Z</time><name>PT2814</name></trkpt>
<trkpt lat="53.313685" lon="06.575214"><ele>19.3</ele><time>2021-05-20T10:34:23Z</time><name>PT2815</name></trkpt>
<trkpt lat="53.313682" lon="06.575191"><ele>19.5</ele><time>2021-05-20T10:34:25Z</time><name>PT2816</name></trkpt>
<trkpt lat="53.313680" lon="06.575173"><ele>19.6</ele><time>2021-05-20T10:34:25Z</time><name>PT2817</name></trkpt>
<trkpt lat="53.313679" lon="06.575155"><ele>19.6</ele><time>2021-05-20T10:34:27Z</time><name>PT2818</name></trkpt>
<trkpt lat="53.313678" lon="06.575134"><ele>19.6</ele><time>2021-05-20T10:34:27Z</time><name>PT2819</name></trkpt>
<trkpt lat="53.313675" lon="06.575116"><ele>19.6</ele><time>2021-05-20T10:34:28Z</time><name>PT2820</name></trkpt>
<trkpt lat="53.313670" lon="06.575096"><ele>19.6</ele><time>2021-05-20T10:34:30Z</time><name>PT2821</name></trkpt>
<trkpt lat="53.313666" lon="06.575073"><ele>19.6</ele><time>2021-05-20T10:34:30Z</time><name>PT2822</name></trkpt>
<trkpt lat="53.313664" lon="06.575054"><ele>19.6</ele><time>2021-05-20T10:34:32Z</time><name>PT2823</name></trkpt>
<trkpt lat="53.313662" lon="06.575035"><ele>19.6</ele><time>2021-05-20T10:34:32Z</time><name>PT2824</name></trkpt>
<trkpt lat="53.313661" lon="06.575017"><ele>19.6</ele><time>2021-05-20T10:34:34Z</time><name>PT2825</name></trkpt>
<trkpt lat="53.313661" lon="06.574998"><ele>19.6</ele><time>2021-05-20T10:34:34Z</time><name>PT2826</name></trkpt>
<trkpt lat="53.313659" lon="06.574976"><ele>19.5</ele><time>2021-05-20T10:34:35Z</time><name>PT2827</name></trkpt>
<trkpt lat="53.313658" lon="06.574953"><ele>19.3</ele><time>2021-05-20T10:34:37Z</time><name>PT2828</name></trkpt>
<trkpt lat="53.313657" lon="06.574932"><ele>19.3</ele><time>2021-05-20T10:34:37Z</time><name>PT2829</name></trkpt>
<trkpt lat="53.313654" lon="06.574913"><ele>19.1</ele><time>2021-05-20T10:34:39Z</time><name>PT2830</name></trkpt>
<trkpt lat="53.313652" lon="06.574894"><ele>19.1</ele><time>2021-05-20T10:34:39Z</time><name>PT2831</name></trkpt>
<trkpt lat="53.313649" lon="06.574876"><ele>19.1</ele><time>2021-05-20T10:34:40Z</time><name>PT2832</name></trkpt>
<trkpt lat="53.313646" lon="06.574859"><ele>19</ele><time>2021-05-20T10:34:42Z</time><name>PT2833</name></trkpt>
<trkpt lat="53.313643" lon="06.574840"><ele>18.9</ele><time>2021-05-20T10:34:42Z</time><name>PT2834</name></trkpt>
<trkpt lat="53.313640" lon="06.574823"><ele>18.8</ele><time>2021-05-20T10:34:43Z</time><name>PT2835</name></trkpt>
<trkpt lat="53.313638" lon="06.574807"><ele>18.9</ele><time>2021-05-20T10:34:45Z</time><name>PT2836</name></trkpt>
<trkpt lat="53.313637" lon="06.574790"><ele>18.9</ele><time>2021-05-20T10:34:45Z</time><name>PT2837</name></trkpt>
<trkpt lat="53.313636" lon="06.574774"><ele>18.9</ele><time>2021-05-20T10:34:47Z</time><name>PT2838</name></trkpt>
<trkpt lat="53.313635" lon="06.574756"><ele>19.1</ele><time>2021-05-20T10:34:47Z</time><name>PT2839</name></trkpt>
<trkpt lat="53.313635" lon="06.574738"><ele>18.8</ele><time>2021-05-20T10:34:49Z</time><name>PT2840</name></trkpt>
<trkpt lat="53.313632" lon="06.574720"><ele>18.7</ele><time>2021-05-20T10:34:49Z</time><name>PT2841</name></trkpt>
<trkpt lat="53.313629" lon="06.574703"><ele>18.7</ele><time>2021-05-20T10:34:51Z</time><name>PT2842</name></trkpt>
<trkpt lat="53.313627" lon="06.574685"><ele>18.7</ele><time>2021-05-20T10:34:51Z</time><name>PT2843</name></trkpt>
<trkpt lat="53.313622" lon="06.574666"><ele>18.7</ele><time>2021-05-20T10:34:52Z</time><name>PT2844</name></trkpt>
<trkpt lat="53.313619" lon="06.574648"><ele>19</ele><time>2021-05-20T10:34:54Z</time><name>PT2845</name></trkpt>
<trkpt lat="53.313617" lon="06.574630"><ele>19</ele><time>2021-05-20T10:34:54Z</time><name>PT2846</name></trkpt>
<trkpt lat="53.313614" lon="06.574613"><ele>19.1</ele><time>2021-05-20T10:34:56Z</time><name>PT2847</name></trkpt>
<trkpt lat="53.313612" lon="06.574595"><ele>18.9</ele><time>2021-05-20T10:34:56Z</time><name>PT2848</name></trkpt>
<trkpt lat="53.313611" lon="06.574576"><ele>19.1</ele><time>2021-05-20T10:34:58Z</time><name>PT2849</name></trkpt>
<trkpt lat="53.313608" lon="06.574556"><ele>19.3</ele><time>2021-05-20T10:34:58Z</time><name>PT2850</name></trkpt>
<trkpt lat="53.313607" lon="06.574536"><ele>19.1</ele><time>2021-05-20T10:34:59Z</time><name>PT2851</name></trkpt>
<trkpt lat="53.313606" lon="06.574516"><ele>19.3</ele><time>2021-05-20T10:35:01Z</time><name>PT2852</name></trkpt>
<trkpt lat="53.313604" lon="06.574496"><ele>19.1</ele><time>2021-05-20T10:35:01Z</time><name>PT2853</name></trkpt>
<trkpt lat="53.313601" lon="06.574473"><ele>18.9</ele><time>2021-05-20T10:35:02Z</time><name>PT2854</name></trkpt>
<trkpt lat="53.313599" lon="06.574451"><ele>19.1</ele><time>2021-05-20T10:35:04Z</time><name>PT2855</name></trkpt>
<trkpt lat="53.313597" lon="06.574430"><ele>19</ele><time>2021-05-20T10:35:04Z</time><name>PT2856</name></trkpt>
<trkpt lat="53.313594" lon="06.574410"><ele>18.9</ele><time>2021-05-20T10:35:06Z</time><name>PT2857</name></trkpt>
<trkpt lat="53.313592" lon="06.574389"><ele>18.9</ele><time>2021-05-20T10:35:06Z</time><name>PT2858</name></trkpt>
<trkpt lat="53.313591" lon="06.574368"><ele>18.9</ele><time>2021-05-20T10:35:07Z</time><name>PT2859</name></trkpt>
<trkpt lat="53.313589" lon="06.574348"><ele>19.1</ele><time>2021-05-20T10:35:09Z</time><name>PT2860</name></trkpt>
<trkpt lat="53.313586" lon="06.574328"><ele>19.1</ele><time>2021-05-20T10:35:09Z</time><name>PT2861</name></trkpt>
<trkpt lat="53.313583" lon="06.574308"><ele>19.1</ele><time>2021-05-20T10:35:11Z</time><name>PT2862</name></trkpt>
<trkpt lat="53.313581" lon="06.574286"><ele>19.1</ele><time>2021-05-20T10:35:11Z</time><name>PT2863</name></trkpt>
<trkpt lat="53.313578" lon="06.574268"><ele>19.1</ele><time>2021-05-20T10:35:12Z</time><name>PT2864</name></trkpt>
<trkpt lat="53.313575" lon="06.574249"><ele>19.1</ele><time>2021-05-20T10:35:14Z</time><name>PT2865</name></trkpt>
<trkpt lat="53.313573" lon="06.574230"><ele>19.2</ele><time>2021-05-20T10:35:14Z</time><name>PT2866</name></trkpt>
<trkpt lat="53.313571" lon="06.574211"><ele>19.2</ele><time>2021-05-20T10:35:16Z</time><name>PT2867</name></trkpt>
<trkpt lat="53.313569" lon="06.574192"><ele>19.3</ele><time>2021-05-20T10:35:16Z</time><name>PT2868</name></trkpt>
<trkpt lat="53.313567" lon="06.574173"><ele>19.3</ele><time>2021-05-20T10:35:17Z</time><name>PT2869</name></trkpt>
<trkpt lat="53.313565" lon="06.574154"><ele>19.3</ele><time>2021-05-20T10:35:19Z</time><name>PT2870</name></trkpt>
<trkpt lat="53.313564" lon="06.574134"><ele>19.3</ele><time>2021-05-20T10:35:19Z</time><name>PT2871</name></trkpt>
<trkpt lat="53.313563" lon="06.574118"><ele>19.1</ele><time>2021-05-20T10:35:21Z</time><name>PT2872</name></trkpt>
<trkpt lat="53.313561" lon="06.574099"><ele>19</ele><time>2021-05-20T10:35:21Z</time><name>PT2873</name></trkpt>
<trkpt lat="53.313558" lon="06.574081"><ele>18.6</ele><time>2021-05-20T10:35:22Z</time><name>PT2874</name></trkpt>
<trkpt lat="53.313555" lon="06.574062"><ele>18.4</ele><time>2021-05-20T10:35:24Z</time><name>PT2875</name></trkpt>
<trkpt lat="53.313553" lon="06.574044"><ele>18.4</ele><time>2021-05-20T10:35:24Z</time><name>PT2876</name></trkpt>
<trkpt lat="53.313551" lon="06.574025"><ele>18.4</ele><time>2021-05-20T10:35:26Z</time><name>PT2877</name></trkpt>
<trkpt lat="53.313550" lon="06.574006"><ele>18.5</ele><time>2021-05-20T10:35:26Z</time><name>PT2878</name></trkpt>
<trkpt lat="53.313549" lon="06.573985"><ele>18.7</ele><time>2021-05-20T10:35:27Z</time><name>PT2879</name></trkpt>
<trkpt lat="53.313547" lon="06.573964"><ele>18.8</ele><time>2021-05-20T10:35:29Z</time><name>PT2880</name></trkpt>
<trkpt lat="53.313542" lon="06.573939"><ele>18.9</ele><time>2021-05-20T10:35:29Z</time><name>PT2881</name></trkpt>
<trkpt lat="53.313540" lon="06.573918"><ele>19.2</ele><time>2021-05-20T10:35:30Z</time><name>PT2882</name></trkpt>
<trkpt lat="53.313538" lon="06.573898"><ele>19.4</ele><time>2021-05-20T10:35:32Z</time><name>PT2883</name></trkpt>
<trkpt lat="53.313534" lon="06.573877"><ele>19.4</ele><time>2021-05-20T10:35:32Z</time><name>PT2884</name></trkpt>
<trkpt lat="53.313530" lon="06.573859"><ele>19.4</ele><time>2021-05-20T10:35:33Z</time><name>PT2885</name></trkpt>
<trkpt lat="53.313528" lon="06.573840"><ele>19.2</ele><time>2021-05-20T10:35:35Z</time><name>PT2886</name></trkpt>
<trkpt lat="53.313526" lon="06.573822"><ele>19.2</ele><time>2021-05-20T10:35:35Z</time><name>PT2887</name></trkpt>
<trkpt lat="53.313522" lon="06.573806"><ele>19.1</ele><time>2021-05-20T10:35:36Z</time><name>PT2888</name></trkpt>
<trkpt lat="53.313521" lon="06.573788"><ele>19.1</ele><time>2021-05-20T10:35:38Z</time><name>PT2889</name></trkpt>
<trkpt lat="53.313520" lon="06.573769"><ele>19.1</ele><time>2021-05-20T10:35:38Z</time><name>PT2890</name></trkpt>
<trkpt lat="53.313519" lon="06.573749"><ele>19</ele><time>2021-05-20T10:35:39Z</time><name>PT2891</name></trkpt>
<trkpt lat="53.313517" lon="06.573729"><ele>19.1</ele><time>2021-05-20T10:35:41Z</time><name>PT2892</name></trkpt>
<trkpt lat="53.313515" lon="06.573709"><ele>19.2</ele><time>2021-05-20T10:35:41Z</time><name>PT2893</name></trkpt>
<trkpt lat="53.313511" lon="06.573690"><ele>19.3</ele><time>2021-05-20T10:35:42Z</time><name>PT2894</name></trkpt>
<trkpt lat="53.313507" lon="06.573673"><ele>19.6</ele><time>2021-05-20T10:35:44Z</time><name>PT2895</name></trkpt>
<trkpt lat="53.313504" lon="06.573655"><ele>19.6</ele><time>2021-05-20T10:35:44Z</time><name>PT2896</name></trkpt>
<trkpt lat="53.313501" lon="06.573638"><ele>19.4</ele><time>2021-05-20T10:35:45Z</time><name>PT2897</name></trkpt>
<trkpt lat="53.313499" lon="06.573620"><ele>19.2</ele><time>2021-05-20T10:35:47Z</time><name>PT2898</name></trkpt>
<trkpt lat="53.313497" lon="06.573600"><ele>19.1</ele><time>2021-05-20T10:35:47Z</time><name>PT2899</name></trkpt>
<trkpt lat="53.313495" lon="06.573581"><ele>19.1</ele><time>2021-05-20T10:35:48Z</time><name>PT2900</name></trkpt>
<trkpt lat="53.313493" lon="06.573562"><ele>19.2</ele><time>2021-05-20T10:35:50Z</time><name>PT2901</name></trkpt>
<trkpt lat="53.313491" lon="06.573543"><ele>19.1</ele><time>2021-05-20T10:35:50Z</time><name>PT2902</name></trkpt>
<trkpt lat="53.313489" lon="06.573525"><ele>19.1</ele><time>2021-05-20T10:35:52Z</time><name>PT2903</name></trkpt>
<trkpt lat="53.313486" lon="06.573506"><ele>19.1</ele><time>2021-05-20T10:35:52Z</time><name>PT2904</name></trkpt>
<trkpt lat="53.313481" lon="06.573485"><ele>19.1</ele><time>2021-05-20T10:35:53Z</time><name>PT2905</name></trkpt>
<trkpt lat="53.313478" lon="06.573466"><ele>19.1</ele><time>2021-05-20T10:35:55Z</time><name>PT2906</name></trkpt>
<trkpt lat="53.313475" lon="06.573448"><ele>19.3</ele><time>2021-05-20T10:35:55Z</time><name>PT2907</name></trkpt>
<trkpt lat="53.313473" lon="06.573430"><ele>19.2</ele><time>2021-05-20T10:35:57Z</time><name>PT2908</name></trkpt>
<trkpt lat="53.313470" lon="06.573412"><ele>19.1</ele><time>2021-05-20T10:35:57Z</time><name>PT2909</name></trkpt>
<trkpt lat="53.313468" lon="06.573393"><ele>19.1</ele><time>2021-05-20T10:35:58Z</time><name>PT2910</name></trkpt>
<trkpt lat="53.313466" lon="06.573373"><ele>19.1</ele><time>2021-05-20T10:36:00Z</time><name>PT2911</name></trkpt>
<trkpt lat="53.313463" lon="06.573353"><ele>19.1</ele><time>2021-05-20T10:36:00Z</time><name>PT2912</name></trkpt>
<trkpt lat="53.313461" lon="06.573333"><ele>19.2</ele><time>2021-05-20T10:36:01Z</time><name>PT2913</name></trkpt>
<trkpt lat="53.313458" lon="06.573313"><ele>19.1</ele><time>2021-05-20T10:36:03Z</time><name>PT2914</name></trkpt>
<trkpt lat="53.313455" lon="06.573291"><ele>19.1</ele><time>2021-05-20T10:36:03Z</time><name>PT2915</name></trkpt>
<trkpt lat="53.313452" lon="06.573272"><ele>19.3</ele><time>2021-05-20T10:36:04Z</time><name>PT2916</name></trkpt>
<trkpt lat="53.313448" lon="06.573253"><ele>19.3</ele><time>2021-05-20T10:36:06Z</time><name>PT2917</name></trkpt>
<trkpt lat="53.313445" lon="06.573236"><ele>19.4</ele><time>2021-05-20T10:36:06Z</time><name>PT2918</name></trkpt>
<trkpt lat="53.313444" lon="06.573218"><ele>19.6</ele><time>2021-05-20T10:36:08Z</time><name>PT2919</name></trkpt>
<trkpt lat="53.313441" lon="06.573198"><ele>19.5</ele><time>2021-05-20T10:36:08Z</time><name>PT2920</name></trkpt>
<trkpt lat="53.313438" lon="06.573176"><ele>19.6</ele><time>2021-05-20T10:36:09Z</time><name>PT2921</name></trkpt>
<trkpt lat="53.313435" lon="06.573153"><ele>19.6</ele><time>2021-05-20T10:36:11Z</time><name>PT2922</name></trkpt>
<trkpt lat="53.313432" lon="06.573129"><ele>19.6</ele><time>2021-05-20T10:36:11Z</time><name>PT2923</name></trkpt>
<trkpt lat="53.313429" lon="06.573107"><ele>19.8</ele><time>2021-05-20T10:36:13Z</time><name>PT2924</name></trkpt>
<trkpt lat="53.313426" lon="06.573086"><ele>19.8</ele><time>2021-05-20T10:36:13Z</time><name>PT2925</name></trkpt>
<trkpt lat="53.313423" lon="06.573064"><ele>19.8</ele><time>2021-05-20T10:36:14Z</time><name>PT2926</name></trkpt>
<trkpt lat="53.313419" lon="06.573045"><ele>19.6</ele><time>2021-05-20T10:36:16Z</time><name>PT2927</name></trkpt>
<trkpt lat="53.313413" lon="06.573023"><ele>19.4</ele><time>2021-05-20T10:36:16Z</time><name>PT2928</name></trkpt>
<trkpt lat="53.313410" lon="06.573003"><ele>19.3</ele><time>2021-05-20T10:36:18Z</time><name>PT2929</name></trkpt>
<trkpt lat="53.313409" lon="06.572986"><ele>19.3</ele><time>2021-05-20T10:36:18Z</time><name>PT2930</name></trkpt>
<trkpt lat="53.313407" lon="06.572969"><ele>19.4</ele><time>2021-05-20T10:36:20Z</time><name>PT2931</name></trkpt>
<trkpt lat="53.313406" lon="06.572952"><ele>19.6</ele><time>2021-05-20T10:36:20Z</time><name>PT2932</name></trkpt>
<trkpt lat="53.313404" lon="06.572934"><ele>19.6</ele><time>2021-05-20T10:36:21Z</time><name>PT2933</name></trkpt>
<trkpt lat="53.313403" lon="06.572914"><ele>19.7</ele><time>2021-05-20T10:36:23Z</time><name>PT2934</name></trkpt>
<trkpt lat="53.313400" lon="06.572893"><ele>19.5</ele><time>2021-05-20T10:36:23Z</time><name>PT2935</name></trkpt>
<trkpt lat="53.313399" lon="06.572873"><ele>19.5</ele><time>2021-05-20T10:36:25Z</time><name>PT2936</name></trkpt>
<trkpt lat="53.313397" lon="06.572852"><ele>19.6</ele><time>2021-05-20T10:36:25Z</time><name>PT2937</name></trkpt>
<trkpt lat="53.313395" lon="06.572832"><ele>19.6</ele><time>2021-05-20T10:36:27Z</time><name>PT2938</name></trkpt>
<trkpt lat="53.313392" lon="06.572812"><ele>19.6</ele><time>2021-05-20T10:36:27Z</time><name>PT2939</name></trkpt>
<trkpt lat="53.313390" lon="06.572794"><ele>19.6</ele><time>2021-05-20T10:36:29Z</time><name>PT2940</name></trkpt>
<trkpt lat="53.313389" lon="06.572774"><ele>19.6</ele><time>2021-05-20T10:36:29Z</time><name>PT2941</name></trkpt>
<trkpt lat="53.313385" lon="06.572752"><ele>19.5</ele><time>2021-05-20T10:36:31Z</time><name>PT2942</name></trkpt>
<trkpt lat="53.313381" lon="06.572733"><ele>19.6</ele><time>2021-05-20T10:36:31Z</time><name>PT2943</name></trkpt>
<trkpt lat="53.313378" lon="06.572715"><ele>19.7</ele><time>2021-05-20T10:36:32Z</time><name>PT2944</name></trkpt>
<trkpt lat="53.313376" lon="06.572696"><ele>19.6</ele><time>2021-05-20T10:36:34Z</time><name>PT2945</name></trkpt>
<trkpt lat="53.313374" lon="06.572678"><ele>19.8</ele><time>2021-05-20T10:36:34Z</time><name>PT2946</name></trkpt>
<trkpt lat="53.313372" lon="06.572659"><ele>19.6</ele><time>2021-05-20T10:36:36Z</time><name>PT2947</name></trkpt>
<trkpt lat="53.313371" lon="06.572640"><ele>19.6</ele><time>2021-05-20T10:36:36Z</time><name>PT2948</name></trkpt>
<trkpt lat="53.313369" lon="06.572620"><ele>19.6</ele><time>2021-05-20T10:36:37Z</time><name>PT2949</name></trkpt>
<trkpt lat="53.313368" lon="06.572602"><ele>19.5</ele><time>2021-05-20T10:36:39Z</time><name>PT2950</name></trkpt>
<trkpt lat="53.313367" lon="06.572584"><ele>19.5</ele><time>2021-05-20T10:36:39Z</time><name>PT2951</name></trkpt>
<trkpt lat="53.313365" lon="06.572566"><ele>19.4</ele><time>2021-05-20T10:36:40Z</time><name>PT2952</name></trkpt>
<trkpt lat="53.313362" lon="06.572547"><ele>19.6</ele><time>2021-05-20T10:36:42Z</time><name>PT2953</name></trkpt>
<trkpt lat="53.313357" lon="06.572525"><ele>19.6</ele><time>2021-05-20T10:36:42Z</time><name>PT2954</name></trkpt>
<trkpt lat="53.313354" lon="06.572504"><ele>19.5</ele><time>2021-05-20T10:36:43Z</time><name>PT2955</name></trkpt>
<trkpt lat="53.313352" lon="06.572486"><ele>19.6</ele><time>2021-05-20T10:36:45Z</time><name>PT2956</name></trkpt>
<trkpt lat="53.313350" lon="06.572468"><ele>19.6</ele><time>2021-05-20T10:36:45Z</time><name>PT2957</name></trkpt>
<trkpt lat="53.313350" lon="06.572449"><ele>19.3</ele><time>2021-05-20T10:36:47Z</time><name>PT2958</name></trkpt>
<trkpt lat="53.313348" lon="06.572431"><ele>19.3</ele><time>2021-05-20T10:36:47Z</time><name>PT2959</name></trkpt>
<trkpt lat="53.313347" lon="06.572411"><ele>19.3</ele><time>2021-05-20T10:36:49Z</time><name>PT2960</name></trkpt>
<trkpt lat="53.313345" lon="06.572391"><ele>19.3</ele><time>2021-05-20T10:36:49Z</time><name>PT2961</name></trkpt>
<trkpt lat="53.313342" lon="06.572371"><ele>19.3</ele><time>2021-05-20T10:36:50Z</time><name>PT2962</name></trkpt>
<trkpt lat="53.313341" lon="06.572350"><ele>19.5</ele><time>2021-05-20T10:36:52Z</time><name>PT2963</name></trkpt>
<trkpt lat="53.313340" lon="06.572332"><ele>19.4</ele><time>2021-05-20T10:36:52Z</time><name>PT2964</name></trkpt>
<trkpt lat="53.313337" lon="06.572311"><ele>19.2</ele><time>2021-05-20T10:36:53Z</time><name>PT2965</name></trkpt>
<trkpt lat="53.313334" lon="06.572294"><ele>19</ele><time>2021-05-20T10:36:55Z</time><name>PT2966</name></trkpt>
<trkpt lat="53.313331" lon="06.572274"><ele>19</ele><time>2021-05-20T10:36:55Z</time><name>PT2967</name></trkpt>
<trkpt lat="53.313329" lon="06.572257"><ele>18.7</ele><time>2021-05-20T10:36:57Z</time><name>PT2968</name></trkpt>
<trkpt lat="53.313326" lon="06.572239"><ele>18.7</ele><time>2021-05-20T10:36:57Z</time><name>PT2969</name></trkpt>
<trkpt lat="53.313324" lon="06.572222"><ele>18.9</ele><time>2021-05-20T10:36:58Z</time><name>PT2970</name></trkpt>
<trkpt lat="53.313322" lon="06.572200"><ele>19.1</ele><time>2021-05-20T10:37:00Z</time><name>PT2971</name></trkpt>
<trkpt lat="53.313320" lon="06.572180"><ele>19.3</ele><time>2021-05-20T10:37:00Z</time><name>PT2972</name></trkpt>
<trkpt lat="53.313318" lon="06.572159"><ele>19.1</ele><time>2021-05-20T10:37:02Z</time><name>PT2973</name></trkpt>
<trkpt lat="53.313317" lon="06.572138"><ele>18.9</ele><time>2021-05-20T10:37:02Z</time><name>PT2974</name></trkpt>
<trkpt lat="53.313315" lon="06.572118"><ele>18.9</ele><time>2021-05-20T10:37:03Z</time><name>PT2975</name></trkpt>
<trkpt lat="53.313312" lon="06.572099"><ele>18.7</ele><time>2021-05-20T10:37:05Z</time><name>PT2976</name></trkpt>
<trkpt lat="53.313308" lon="06.572078"><ele>18.9</ele><time>2021-05-20T10:37:05Z</time><name>PT2977</name></trkpt>
<trkpt lat="53.313305" lon="06.572057"><ele>19.1</ele><time>2021-05-20T10:37:06Z</time><name>PT2978</name></trkpt>
<trkpt lat="53.313302" lon="06.572038"><ele>19.2</ele><time>2021-05-20T10:37:08Z</time><name>PT2979</name></trkpt>
<trkpt lat="53.313300" lon="06.572018"><ele>19.1</ele><time>2021-05-20T10:37:08Z</time><name>PT2980</name></trkpt>
<trkpt lat="53.313297" lon="06.572001"><ele>19.2</ele><time>2021-05-20T10:37:09Z</time><name>PT2981</name></trkpt>
<trkpt lat="53.313295" lon="06.571985"><ele>19.3</ele><time>2021-05-20T10:37:11Z</time><name>PT2982</name></trkpt>
<trkpt lat="53.313294" lon="06.571967"><ele>19.3</ele><time>2021-05-20T10:37:11Z</time><name>PT2983</name></trkpt>
<trkpt lat="53.313293" lon="06.571948"><ele>19.5</ele><time>2021-05-20T10:37:12Z</time><name>PT2984</name></trkpt>
<trkpt lat="53.313291" lon="06.571928"><ele>19.5</ele><time>2021-05-20T10:37:14Z</time><name>PT2985</name></trkpt>
<trkpt lat="53.313290" lon="06.571909"><ele>19.4</ele><time>2021-05-20T10:37:14Z</time><name>PT2986</name></trkpt>
<trkpt lat="53.313288" lon="06.571891"><ele>19.6</ele><time>2021-05-20T10:37:16Z</time><name>PT2987</name></trkpt>
<trkpt lat="53.313285" lon="06.571871"><ele>19.6</ele><time>2021-05-20T10:37:16Z</time><name>PT2988</name></trkpt>
<trkpt lat="53.313281" lon="06.571852"><ele>19.6</ele><time>2021-05-20T10:37:17Z</time><name>PT2989</name></trkpt>
<trkpt lat="53.313277" lon="06.571834"><ele>19.5</ele><time>2021-05-20T10:37:19Z</time><name>PT2990</name></trkpt>
<trkpt lat="53.313275" lon="06.571817"><ele>19.3</ele><time>2021-05-20T10:37:19Z</time><name>PT2991</name></trkpt>
<trkpt lat="53.313272" lon="06.571800"><ele>19.1</ele><time>2021-05-20T10:37:21Z</time><name>PT2992</name></trkpt>
<trkpt lat="53.313270" lon="06.571783"><ele>19.1</ele><time>2021-05-20T10:37:21Z</time><name>PT2993</name></trkpt>
<trkpt lat="53.313269" lon="06.571763"><ele>19.1</ele><time>2021-05-20T10:37:22Z</time><name>PT2994</name></trkpt>
<trkpt lat="53.313268" lon="06.571743"><ele>19</ele><time>2021-05-20T10:37:24Z</time><name>PT2995</name></trkpt>
<trkpt lat="53.313267" lon="06.571721"><ele>19.1</ele><time>2021-05-20T10:37:24Z</time><name>PT2996</name></trkpt>
<trkpt lat="53.313265" lon="06.571700"><ele>18.9</ele><time>2021-05-20T10:37:25Z</time><name>PT2997</name></trkpt>
<trkpt lat="53.313264" lon="06.571680"><ele>18.7</ele><time>2021-05-20T10:37:27Z</time><name>PT2998</name></trkpt>
<trkpt lat="53.313262" lon="06.571662"><ele>18.8</ele><time>2021-05-20T10:37:27Z</time><name>PT2999</name></trkpt>
<trkpt lat="53.313261" lon="06.571642"><ele>18.8</ele><time>2021-05-20T10:37:28Z</time><name>PT3000</name></trkpt>
<trkpt lat="53.313258" lon="06.571623"><ele>18.9</ele><time>2021-05-20T10:37:30Z</time><name>PT3001</name></trkpt>
<trkpt lat="53.313254" lon="06.571603"><ele>19.2</ele><time>2021-05-20T10:37:30Z</time><name>PT3002</name></trkpt>
<trkpt lat="53.313251" lon="06.571584"><ele>19.3</ele><time>2021-05-20T10:37:31Z</time><name>PT3003</name></trkpt>
<trkpt lat="53.313247" lon="06.571565"><ele>19.4</ele><time>2021-05-20T10:37:33Z</time><name>PT3004</name></trkpt>
<trkpt lat="53.313245" lon="06.571545"><ele>19.4</ele><time>2021-05-20T10:37:33Z</time><name>PT3005</name></trkpt>
<trkpt lat="53.313241" lon="06.571527"><ele>19.5</ele><time>2021-05-20T10:37:34Z</time><name>PT3006</name></trkpt>
<trkpt lat="53.313239" lon="06.571509"><ele>19.5</ele><time>2021-05-20T10:37:36Z</time><name>PT3007</name></trkpt>
<trkpt lat="53.313237" lon="06.571491"><ele>19.5</ele><time>2021-05-20T10:37:36Z</time><name>PT3008</name></trkpt>
<trkpt lat="53.313236" lon="06.571473"><ele>19.5</ele><time>2021-05-20T10:37:37Z</time><name>PT3009</name></trkpt>
<trkpt lat="53.313235" lon="06.571455"><ele>19.2</ele><time>2021-05-20T10:37:39Z</time><name>PT3010</name></trkpt>
<trkpt lat="53.313233" lon="06.571435"><ele>19.4</ele><time>2021-05-20T10:37:39Z</time><name>PT3011</name></trkpt>
<trkpt lat="53.313232" lon="06.571413"><ele>19.6</ele><time>2021-05-20T10:37:41Z</time><name>PT3012</name></trkpt>
<trkpt lat="53.313230" lon="06.571392"><ele>19.8</ele><time>2021-05-20T10:37:41Z</time><name>PT3013</name></trkpt>
<trkpt lat="53.313227" lon="06.571372"><ele>19.9</ele><time>2021-05-20T10:37:42Z</time><name>PT3014</name></trkpt>
<trkpt lat="53.313225" lon="06.571354"><ele>19.9</ele><time>2021-05-20T10:37:44Z</time><name>PT3015</name></trkpt>
<trkpt lat="53.313221" lon="06.571334"><ele>20</ele><time>2021-05-20T10:37:44Z</time><name>PT3016</name></trkpt>
<trkpt lat="53.313217" lon="06.571314"><ele>19.6</ele><time>2021-05-20T10:37:45Z</time><name>PT3017</name></trkpt>
<trkpt lat="53.313214" lon="06.571295"><ele>19.6</ele><time>2021-05-20T10:37:47Z</time><name>PT3018</name></trkpt>
<trkpt lat="53.313210" lon="06.571275"><ele>19.6</ele><time>2021-05-20T10:37:47Z</time><name>PT3019</name></trkpt>
<trkpt lat="53.313206" lon="06.571255"><ele>19.6</ele><time>2021-05-20T10:37:48Z</time><name>PT3020</name></trkpt>
<trkpt lat="53.313203" lon="06.571235"><ele>19.6</ele><time>2021-05-20T10:37:50Z</time><name>PT3021</name></trkpt>
<trkpt lat="53.313202" lon="06.571218"><ele>19.7</ele><time>2021-05-20T10:37:50Z</time><name>PT3022</name></trkpt>
<trkpt lat="53.313200" lon="06.571198"><ele>19.6</ele><time>2021-05-20T10:37:51Z</time><name>PT3023</name></trkpt>
<trkpt lat="53.313198" lon="06.571181"><ele>19.6</ele><time>2021-05-20T10:37:53Z</time><name>PT3024</name></trkpt>
<trkpt lat="53.313197" lon="06.571162"><ele>19.7</ele><time>2021-05-20T10:37:53Z</time><name>PT3025</name></trkpt>
<trkpt lat="53.313195" lon="06.571141"><ele>19.7</ele><time>2021-05-20T10:37:54Z</time><name>PT3026</name></trkpt>
<trkpt lat="53.313192" lon="06.571121"><ele>19.6</ele><time>2021-05-20T10:37:56Z</time><name>PT3027</name></trkpt>
<trkpt lat="53.313187" lon="06.571102"><ele>19.6</ele><time>2021-05-20T10:37:56Z</time><name>PT3028</name></trkpt>
<trkpt lat="53.313183" lon="06.571083"><ele>19.5</ele><time>2021-05-20T10:37:57Z</time><name>PT3029</name></trkpt>
<trkpt lat="53.313180" lon="06.571066"><ele>19.4</ele><time>2021-05-20T10:37:59Z</time><name>PT3030</name></trkpt>
<trkpt lat="53.313178" lon="06.571048"><ele>19.5</ele><time>2021-05-20T10:37:59Z</time><name>PT3031</name></trkpt>
<trkpt lat="53.313175" lon="06.571030"><ele>19.5</ele><time>2021-05-20T10:38:01Z</time><name>PT3032</name></trkpt>
<trkpt lat="53.313173" lon="06.571011"><ele>19.4</ele><time>2021-05-20T10:38:01Z</time><name>PT3033</name></trkpt>
<trkpt lat="53.313170" lon="06.570992"><ele>19.6</ele><time>2021-05-20T10:38:02Z</time><name>PT3034</name></trkpt>
<trkpt lat="53.313167" lon="06.570971"><ele>19.4</ele><time>2021-05-20T10:38:04Z</time><name>PT3035</name></trkpt>
<trkpt lat="53.313165" lon="06.570951"><ele>19.5</ele><time>2021-05-20T10:38:04Z</time><name>PT3036</name></trkpt>
<trkpt lat="53.313163" lon="06.570932"><ele>19.7</ele><time>2021-05-20T10:38:05Z</time><name>PT3037</name></trkpt>
<trkpt lat="53.313160" lon="06.570911"><ele>19.9</ele><time>2021-05-20T10:38:07Z</time><name>PT3038</name></trkpt>
<trkpt lat="53.313158" lon="06.570891"><ele>19.9</ele><time>2021-05-20T10:38:07Z</time><name>PT3039</name></trkpt>
<trkpt lat="53.313155" lon="06.570869"><ele>19.8</ele><time>2021-05-20T10:38:08Z</time><name>PT3040</name></trkpt>
<trkpt lat="53.313154" lon="06.570849"><ele>19.7</ele><time>2021-05-20T10:38:10Z</time><name>PT3041</name></trkpt>
<trkpt lat="53.313150" lon="06.570831"><ele>19.6</ele><time>2021-05-20T10:38:10Z</time><name>PT3042</name></trkpt>
<trkpt lat="53.313147" lon="06.570813"><ele>19.5</ele><time>2021-05-20T10:38:11Z</time><name>PT3043</name></trkpt>
<trkpt lat="53.313144" lon="06.570795"><ele>19.5</ele><time>2021-05-20T10:38:13Z</time><name>PT3044</name></trkpt>
<trkpt lat="53.313140" lon="06.570776"><ele>19.4</ele><time>2021-05-20T10:38:13Z</time><name>PT3045</name></trkpt>
<trkpt lat="53.313137" lon="06.570759"><ele>19.5</ele><time>2021-05-20T10:38:14Z</time><name>PT3046</name></trkpt>
<trkpt lat="53.313135" lon="06.570741"><ele>19.8</ele><time>2021-05-20T10:38:16Z</time><name>PT3047</name></trkpt>
<trkpt lat="53.313135" lon="06.570723"><ele>19.8</ele><time>2021-05-20T10:38:16Z</time><name>PT3048</name></trkpt>
<trkpt lat="53.313135" lon="06.570703"><ele>19.9</ele><time>2021-05-20T10:38:18Z</time><name>PT3049</name></trkpt>
<trkpt lat="53.313133" lon="06.570683"><ele>20</ele><time>2021-05-20T10:38:18Z</time><name>PT3050</name></trkpt>
<trkpt lat="53.313131" lon="06.570663"><ele>19.9</ele><time>2021-05-20T10:38:19Z</time><name>PT3051</name></trkpt>
<trkpt lat="53.313129" lon="06.570642"><ele>19.8</ele><time>2021-05-20T10:38:21Z</time><name>PT3052</name></trkpt>
<trkpt lat="53.313128" lon="06.570621"><ele>19.9</ele><time>2021-05-20T10:38:21Z</time><name>PT3053</name></trkpt>
<trkpt lat="53.313126" lon="06.570601"><ele>19.6</ele><time>2021-05-20T10:38:22Z</time><name>PT3054</name></trkpt>
<trkpt lat="53.313125" lon="06.570580"><ele>19.5</ele><time>2021-05-20T10:38:24Z</time><name>PT3055</name></trkpt>
<trkpt lat="53.313123" lon="06.570561"><ele>19.6</ele><time>2021-05-20T10:38:24Z</time><name>PT3056</name></trkpt>
<trkpt lat="53.313119" lon="06.570541"><ele>19.7</ele><time>2021-05-20T10:38:25Z</time><name>PT3057</name></trkpt>
<trkpt lat="53.313115" lon="06.570523"><ele>19.9</ele><time>2021-05-20T10:38:27Z</time><name>PT3058</name></trkpt>
<trkpt lat="53.313113" lon="06.570506"><ele>19.9</ele><time>2021-05-20T10:38:27Z</time><name>PT3059</name></trkpt>
<trkpt lat="53.313111" lon="06.570488"><ele>19.8</ele><time>2021-05-20T10:38:28Z</time><name>PT3060</name></trkpt>
<trkpt lat="53.313109" lon="06.570470"><ele>19.6</ele><time>2021-05-20T10:38:30Z</time><name>PT3061</name></trkpt>
<trkpt lat="53.313106" lon="06.570450"><ele>19.6</ele><time>2021-05-20T10:38:30Z</time><name>PT3062</name></trkpt>
<trkpt lat="53.313104" lon="06.570429"><ele>19.7</ele><time>2021-05-20T10:38:31Z</time><name>PT3063</name></trkpt>
<trkpt lat="53.313103" lon="06.570409"><ele>19.8</ele><time>2021-05-20T10:38:33Z</time><name>PT3064</name></trkpt>
<trkpt lat="53.313100" lon="06.570389"><ele>19.8</ele><time>2021-05-20T10:38:33Z</time><name>PT3065</name></trkpt>
<trkpt lat="53.313097" lon="06.570370"><ele>19.8</ele><time>2021-05-20T10:38:34Z</time><name>PT3066</name></trkpt>
<trkpt lat="53.313094" lon="06.570351"><ele>20.1</ele><time>2021-05-20T10:38:36Z</time><name>PT3067</name></trkpt>
<trkpt lat="53.313091" lon="06.570332"><ele>19.9</ele><time>2021-05-20T10:38:36Z</time><name>PT3068</name></trkpt>
<trkpt lat="53.313089" lon="06.570313"><ele>19.6</ele><time>2021-05-20T10:38:38Z</time><name>PT3069</name></trkpt>
<trkpt lat="53.313087" lon="06.570294"><ele>19.6</ele><time>2021-05-20T10:38:38Z</time><name>PT3070</name></trkpt>
<trkpt lat="53.313083" lon="06.570275"><ele>19.4</ele><time>2021-05-20T10:38:39Z</time><name>PT3071</name></trkpt>
<trkpt lat="53.313080" lon="06.570256"><ele>19.5</ele><time>2021-05-20T10:38:41Z</time><name>PT3072</name></trkpt>
<trkpt lat="53.313078" lon="06.570238"><ele>19.6</ele><time>2021-05-20T10:38:41Z</time><name>PT3073</name></trkpt>
<trkpt lat="53.313077" lon="06.570222"><ele>19.8</ele><time>2021-05-20T10:38:42Z</time><name>PT3074</name></trkpt>
<trkpt lat="53.313075" lon="06.570205"><ele>19.8</ele><time>2021-05-20T10:38:44Z</time><name>PT3075</name></trkpt>
<trkpt lat="53.313073" lon="06.570188"><ele>19.6</ele><time>2021-05-20T10:38:44Z</time><name>PT3076</name></trkpt>
<trkpt lat="53.313072" lon="06.570170"><ele>19.4</ele><time>2021-05-20T10:38:45Z</time><name>PT3077</name></trkpt>
<trkpt lat="53.313071" lon="06.570152"><ele>19.4</ele><time>2021-05-20T10:38:47Z</time><name>PT3078</name></trkpt>
<trkpt lat="53.313068" lon="06.570133"><ele>19.5</ele><time>2021-05-20T10:38:47Z</time><name>PT3079</name></trkpt>
<trkpt lat="53.313065" lon="06.570114"><ele>19.5</ele><time>2021-05-20T10:38:49Z</time><name>PT3080</name></trkpt>
<trkpt lat="53.313063" lon="06.570093"><ele>19.5</ele><time>2021-05-20T10:38:49Z</time><name>PT3081</name></trkpt>
<trkpt lat="53.313060" lon="06.570074"><ele>19.2</ele><time>2021-05-20T10:38:50Z</time><name>PT3082</name></trkpt>
<trkpt lat="53.313059" lon="06.570056"><ele>19.2</ele><time>2021-05-20T10:38:52Z</time><name>PT3083</name></trkpt>
<trkpt lat="53.313057" lon="06.570038"><ele>19.3</ele><time>2021-05-20T10:38:52Z</time><name>PT3084</name></trkpt>
<trkpt lat="53.313057" lon="06.570020"><ele>19.3</ele><time>2021-05-20T10:38:54Z</time><name>PT3085</name></trkpt>
<trkpt lat="53.313055" lon="06.570000"><ele>19.4</ele><time>2021-05-20T10:38:54Z</time><name>PT3086</name></trkpt>
<trkpt lat="53.313052" lon="06.569979"><ele>19.5</ele><time>2021-05-20T10:38:56Z</time><name>PT3087</name></trkpt>
<trkpt lat="53.313049" lon="06.569958"><ele>19.3</ele><time>2021-05-20T10:38:56Z</time><name>PT3088</name></trkpt>
<trkpt lat="53.313047" lon="06.569938"><ele>19.2</ele><time>2021-05-20T10:38:57Z</time><name>PT3089</name></trkpt>
<trkpt lat="53.313044" lon="06.569920"><ele>19.1</ele><time>2021-05-20T10:38:59Z</time><name>PT3090</name></trkpt>
<trkpt lat="53.313040" lon="06.569902"><ele>19</ele><time>2021-05-20T10:38:59Z</time><name>PT3091</name></trkpt>
<trkpt lat="53.313038" lon="06.569883"><ele>18.9</ele><time>2021-05-20T10:39:00Z</time><name>PT3092</name></trkpt>
<trkpt lat="53.313037" lon="06.569865"><ele>18.9</ele><time>2021-05-20T10:39:02Z</time><name>PT3093</name></trkpt>
<trkpt lat="53.313034" lon="06.569847"><ele>18.9</ele><time>2021-05-20T10:39:02Z</time><name>PT3094</name></trkpt>
<trkpt lat="53.313033" lon="06.569829"><ele>19.1</ele><time>2021-05-20T10:39:03Z</time><name>PT3095</name></trkpt>
<trkpt lat="53.313031" lon="06.569812"><ele>19.1</ele><time>2021-05-20T10:39:05Z</time><name>PT3096</name></trkpt>
<trkpt lat="53.313030" lon="06.569792"><ele>18.9</ele><time>2021-05-20T10:39:05Z</time><name>PT3097</name></trkpt>
<trkpt lat="53.313029" lon="06.569771"><ele>19</ele><time>2021-05-20T10:39:06Z</time><name>PT3098</name></trkpt>
<trkpt lat="53.313027" lon="06.569752"><ele>18.8</ele><time>2021-05-20T10:39:08Z</time><name>PT3099</name></trkpt>
<trkpt lat="53.313024" lon="06.569732"><ele>18.8</ele><time>2021-05-20T10:39:08Z</time><name>PT3100</name></trkpt>
<trkpt lat="53.313022" lon="06.569714"><ele>19.1</ele><time>2021-05-20T10:39:09Z</time><name>PT3101</name></trkpt>
<trkpt lat="53.313019" lon="06.569696"><ele>19.4</ele><time>2021-05-20T10:39:11Z</time><name>PT3102</name></trkpt>
<trkpt lat="53.313016" lon="06.569676"><ele>19.6</ele><time>2021-05-20T10:39:11Z</time><name>PT3103</name></trkpt>
<trkpt lat="53.313014" lon="06.569657"><ele>19.7</ele><time>2021-05-20T10:39:12Z</time><name>PT3104</name></trkpt>
<trkpt lat="53.313012" lon="06.569639"><ele>19.7</ele><time>2021-05-20T10:39:14Z</time><name>PT3105</name></trkpt>
<trkpt lat="53.313010" lon="06.569621"><ele>19.5</ele><time>2021-05-20T10:39:14Z</time><name>PT3106</name></trkpt>
<trkpt lat="53.313010" lon="06.569602"><ele>19.2</ele><time>2021-05-20T10:39:15Z</time><name>PT3107</name></trkpt>
<trkpt lat="53.313009" lon="06.569582"><ele>19.1</ele><time>2021-05-20T10:39:17Z</time><name>PT3108</name></trkpt>
<trkpt lat="53.313007" lon="06.569561"><ele>18.9</ele><time>2021-05-20T10:39:17Z</time><name>PT3109</name></trkpt>
<trkpt lat="53.313004" lon="06.569540"><ele>19.1</ele><time>2021-05-20T10:39:18Z</time><name>PT3110</name></trkpt>
<trkpt lat="53.313002" lon="06.569522"><ele>19.1</ele><time>2021-05-20T10:39:20Z</time><name>PT3111</name></trkpt>
<trkpt lat="53.312999" lon="06.569502"><ele>19.1</ele><time>2021-05-20T10:39:20Z</time><name>PT3112</name></trkpt>
<trkpt lat="53.312996" lon="06.569482"><ele>19.2</ele><time>2021-05-20T10:39:21Z</time><name>PT3113</name></trkpt>
<trkpt lat="53.312992" lon="06.569462"><ele>19.5</ele><time>2021-05-20T10:39:23Z</time><name>PT3114</name></trkpt>
<trkpt lat="53.312989" lon="06.569442"><ele>19.3</ele><time>2021-05-20T10:39:23Z</time><name>PT3115</name></trkpt>
<trkpt lat="53.312987" lon="06.569423"><ele>19.5</ele><time>2021-05-20T10:39:24Z</time><name>PT3116</name></trkpt>
<trkpt lat="53.312985" lon="06.569403"><ele>19.3</ele><time>2021-05-20T10:39:26Z</time><name>PT3117</name></trkpt>
<trkpt lat="53.312983" lon="06.569383"><ele>19.3</ele><time>2021-05-20T10:39:26Z</time><name>PT3118</name></trkpt>
<trkpt lat="53.312981" lon="06.569363"><ele>19.3</ele><time>2021-05-20T10:39:28Z</time><name>PT3119</name></trkpt>
<trkpt lat="53.312979" lon="06.569343"><ele>19.4</ele><time>2021-05-20T10:39:28Z</time><name>PT3120</name></trkpt>
<trkpt lat="53.312977" lon="06.569325"><ele>19.5</ele><time>2021-05-20T10:39:30Z</time><name>PT3121</name></trkpt>
<trkpt lat="53.312973" lon="06.569304"><ele>19.6</ele><time>2021-05-20T10:39:30Z</time><name>PT3122</name></trkpt>
<trkpt lat="53.312970" lon="06.569282"><ele>19.8</ele><time>2021-05-20T10:39:32Z</time><name>PT3123</name></trkpt>
<trkpt lat="53.312967" lon="06.569262"><ele>20</ele><time>2021-05-20T10:39:32Z</time><name>PT3124</name></trkpt>
<trkpt lat="53.312966" lon="06.569242"><ele>19.8</ele><time>2021-05-20T10:39:33Z</time><name>PT3125</name></trkpt>
<trkpt lat="53.312962" lon="06.569223"><ele>20.1</ele><time>2021-05-20T10:39:35Z</time><name>PT3126</name></trkpt>
<trkpt lat="53.312960" lon="06.569206"><ele>20.1</ele><time>2021-05-20T10:39:35Z</time><name>PT3127</name></trkpt>
<trkpt lat="53.312958" lon="06.569188"><ele>20.1</ele><time>2021-05-20T10:39:36Z</time><name>PT3128</name></trkpt>
<trkpt lat="53.312957" lon="06.569170"><ele>20.1</ele><time>2021-05-20T10:39:38Z</time><name>PT3129</name></trkpt>
<trkpt lat="53.312956" lon="06.569152"><ele>19.9</ele><time>2021-05-20T10:39:38Z</time><name>PT3130</name></trkpt>
<trkpt lat="53.312955" lon="06.569133"><ele>19.9</ele><time>2021-05-20T10:39:39Z</time><name>PT3131</name></trkpt>
<trkpt lat="53.312953" lon="06.569113"><ele>19.9</ele><time>2021-05-20T10:39:41Z</time><name>PT3132</name></trkpt>
<trkpt lat="53.312952" lon="06.569093"><ele>20</ele><time>2021-05-20T10:39:41Z</time><name>PT3133</name></trkpt>
<trkpt lat="53.312949" lon="06.569075"><ele>20.1</ele><time>2021-05-20T10:39:43Z</time><name>PT3134</name></trkpt>
<trkpt lat="53.312946" lon="06.569055"><ele>19.9</ele><time>2021-05-20T10:39:43Z</time><name>PT3135</name></trkpt>
<trkpt lat="53.312942" lon="06.569036"><ele>19.7</ele><time>2021-05-20T10:39:44Z</time><name>PT3136</name></trkpt>
<trkpt lat="53.312940" lon="06.569019"><ele>19.6</ele><time>2021-05-20T10:39:46Z</time><name>PT3137</name></trkpt>
<trkpt lat="53.312938" lon="06.569001"><ele>19.6</ele><time>2021-05-20T10:39:46Z</time><name>PT3138</name></trkpt>
<trkpt lat="53.312937" lon="06.568982"><ele>19.6</ele><time>2021-05-20T10:39:47Z</time><name>PT3139</name></trkpt>
<trkpt lat="53.312937" lon="06.568965"><ele>19.6</ele><time>2021-05-20T10:39:49Z</time><name>PT3140</name></trkpt>
<trkpt lat="53.312937" lon="06.568950"><ele>19.6</ele><time>2021-05-20T10:39:49Z</time><name>PT3141</name></trkpt>
<trkpt lat="53.312935" lon="06.568932"><ele>19.4</ele><time>2021-05-20T10:39:51Z</time><name>PT3142</name></trkpt>
<trkpt lat="53.312932" lon="06.568912"><ele>19.5</ele><time>2021-05-20T10:39:51Z</time><name>PT3143</name></trkpt>
<trkpt lat="53.312930" lon="06.568893"><ele>19.5</ele><time>2021-05-20T10:39:52Z</time><name>PT3144</name></trkpt>
<trkpt lat="53.312926" lon="06.568874"><ele>19.6</ele><time>2021-05-20T10:39:54Z</time><name>PT3145</name></trkpt>
<trkpt lat="53.312923" lon="06.568853"><ele>19.6</ele><time>2021-05-20T10:39:54Z</time><name>PT3146</name></trkpt>
<trkpt lat="53.312919" lon="06.568834"><ele>20</ele><time>2021-05-20T10:39:55Z</time><name>PT3147</name></trkpt>
<trkpt lat="53.312915" lon="06.568815"><ele>20.1</ele><time>2021-05-20T10:39:57Z</time><name>PT3148</name></trkpt>
<trkpt lat="53.312912" lon="06.568798"><ele>20.1</ele><time>2021-05-20T10:39:57Z</time><name>PT3149</name></trkpt>
<trkpt lat="53.312910" lon="06.568782"><ele>20.1</ele><time>2021-05-20T10:39:58Z</time><name>PT3150</name></trkpt>
<trkpt lat="53.312909" lon="06.568764"><ele>19.9</ele><time>2021-05-20T10:40:00Z</time><name>PT3151</name></trkpt>
<trkpt lat="53.312908" lon="06.568747"><ele>19.8</ele><time>2021-05-20T10:40:00Z</time><name>PT3152</name></trkpt>
<trkpt lat="53.312908" lon="06.568731"><ele>19.9</ele><time>2021-05-20T10:40:02Z</time><name>PT3153</name></trkpt>
<trkpt lat="53.312907" lon="06.568712"><ele>19.9</ele><time>2021-05-20T10:40:02Z</time><name>PT3154</name></trkpt>
<trkpt lat="53.312907" lon="06.568694"><ele>20.1</ele><time>2021-05-20T10:40:03Z</time><name>PT3155</name></trkpt>
<trkpt lat="53.312905" lon="06.568677"><ele>20.1</ele><time>2021-05-20T10:40:05Z</time><name>PT3156</name></trkpt>
<trkpt lat="53.312902" lon="06.568658"><ele>20.1</ele><time>2021-05-20T10:40:05Z</time><name>PT3157</name></trkpt>
<trkpt lat="53.312900" lon="06.568642"><ele>20.2</ele><time>2021-05-20T10:40:07Z</time><name>PT3158</name></trkpt>
<trkpt lat="53.312897" lon="06.568624"><ele>20.1</ele><time>2021-05-20T10:40:07Z</time><name>PT3159</name></trkpt>
<trkpt lat="53.312895" lon="06.568608"><ele>20</ele><time>2021-05-20T10:40:08Z</time><name>PT3160</name></trkpt>
<trkpt lat="53.312892" lon="06.568591"><ele>20</ele><time>2021-05-20T10:40:10Z</time><name>PT3161</name></trkpt>
<trkpt lat="53.312890" lon="06.568575"><ele>20.1</ele><time>2021-05-20T10:40:10Z</time><name>PT3162</name></trkpt>
<trkpt lat="53.312888" lon="06.568557"><ele>20.1</ele><time>2021-05-20T10:40:12Z</time><name>PT3163</name></trkpt>
<trkpt lat="53.312887" lon="06.568539"><ele>20.2</ele><time>2021-05-20T10:40:12Z</time><name>PT3164</name></trkpt>
<trkpt lat="53.312886" lon="06.568521"><ele>20.1</ele><time>2021-05-20T10:40:13Z</time><name>PT3165</name></trkpt>
<trkpt lat="53.312884" lon="06.568503"><ele>20.1</ele><time>2021-05-20T10:40:15Z</time><name>PT3166</name></trkpt>
<trkpt lat="53.312882" lon="06.568485"><ele>20.1</ele><time>2021-05-20T10:40:15Z</time><name>PT3167</name></trkpt>
<trkpt lat="53.312879" lon="06.568467"><ele>19.8</ele><time>2021-05-20T10:40:16Z</time><name>PT3168</name></trkpt>
<trkpt lat="53.312874" lon="06.568444"><ele>19.9</ele><time>2021-05-20T10:40:18Z</time><name>PT3169</name></trkpt>
<trkpt lat="53.312869" lon="06.568421"><ele>19.9</ele><time>2021-05-20T10:40:18Z</time><name>PT3170</name></trkpt>
<trkpt lat="53.312865" lon="06.568399"><ele>20</ele><time>2021-05-20T10:40:19Z</time><name>PT3171</name></trkpt>
<trkpt lat="53.312863" lon="06.568377"><ele>20.1</ele><time>2021-05-20T10:40:21Z</time><name>PT3172</name></trkpt>
<trkpt lat="53.312860" lon="06.568358"><ele>20</ele><time>2021-05-20T10:40:21Z</time><name>PT3173</name></trkpt>
<trkpt lat="53.312858" lon="06.568338"><ele>19.8</ele><time>2021-05-20T10:40:23Z</time><name>PT3174</name></trkpt>
<trkpt lat="53.312857" lon="06.568318"><ele>19.7</ele><time>2021-05-20T10:40:23Z</time><name>PT3175</name></trkpt>
<trkpt lat="53.312857" lon="06.568297"><ele>19.7</ele><time>2021-05-20T10:40:24Z</time><name>PT3176</name></trkpt>
<trkpt lat="53.312854" lon="06.568275"><ele>19.6</ele><time>2021-05-20T10:40:26Z</time><name>PT3177</name></trkpt>
<trkpt lat="53.312851" lon="06.568253"><ele>19.6</ele><time>2021-05-20T10:40:26Z</time><name>PT3178</name></trkpt>
<trkpt lat="53.312849" lon="06.568231"><ele>19.6</ele><time>2021-05-20T10:40:28Z</time><name>PT3179</name></trkpt>
<trkpt lat="53.312846" lon="06.568210"><ele>19.6</ele><time>2021-05-20T10:40:28Z</time><name>PT3180</name></trkpt>
<trkpt lat="53.312845" lon="06.568191"><ele>19.7</ele><time>2021-05-20T10:40:30Z</time><name>PT3181</name></trkpt>
<trkpt lat="53.312842" lon="06.568171"><ele>19.7</ele><time>2021-05-20T10:40:30Z</time><name>PT3182</name></trkpt>
<trkpt lat="53.312839" lon="06.568150"><ele>19.5</ele><time>2021-05-20T10:40:31Z</time><name>PT3183</name></trkpt>
<trkpt lat="53.312836" lon="06.568130"><ele>19.6</ele><time>2021-05-20T10:40:33Z</time><name>PT3184</name></trkpt>
<trkpt lat="53.312834" lon="06.568109"><ele>19.4</ele><time>2021-05-20T10:40:33Z</time><name>PT3185</name></trkpt>
<trkpt lat="53.312831" lon="06.568090"><ele>19.5</ele><time>2021-05-20T10:40:35Z</time><name>PT3186</name></trkpt>
<trkpt lat="53.312830" lon="06.568071"><ele>19.4</ele><time>2021-05-20T10:40:35Z</time><name>PT3187</name></trkpt>
<trkpt lat="53.312829" lon="06.568050"><ele>19.5</ele><time>2021-05-20T10:40:37Z</time><name>PT3188</name></trkpt>
<trkpt lat="53.312828" lon="06.568030"><ele>19.5</ele><time>2021-05-20T10:40:37Z</time><name>PT3189</name></trkpt>
<trkpt lat="53.312827" lon="06.568012"><ele>19.4</ele><time>2021-05-20T10:40:39Z</time><name>PT3190</name></trkpt>
<trkpt lat="53.312825" lon="06.567993"><ele>19.6</ele><time>2021-05-20T10:40:39Z</time><name>PT3191</name></trkpt>
<trkpt lat="53.312824" lon="06.567972"><ele>19.6</ele><time>2021-05-20T10:40:40Z</time><name>PT3192</name></trkpt>
<trkpt lat="53.312821" lon="06.567950"><ele>19.6</ele><time>2021-05-20T10:40:42Z</time><name>PT3193</name></trkpt>
<trkpt lat="53.312817" lon="06.567928"><ele>19.6</ele><time>2021-05-20T10:40:42Z</time><name>PT3194</name></trkpt>
<trkpt lat="53.312814" lon="06.567908"><ele>19.6</ele><time>2021-05-20T10:40:43Z</time><name>PT3195</name></trkpt>
<trkpt lat="53.312812" lon="06.567889"><ele>19.6</ele><time>2021-05-20T10:40:45Z</time><name>PT3196</name></trkpt>
<trkpt lat="53.312810" lon="06.567869"><ele>19.6</ele><time>2021-05-20T10:40:45Z</time><name>PT3197</name></trkpt>
<trkpt lat="53.312808" lon="06.567850"><ele>19.7</ele><time>2021-05-20T10:40:46Z</time><name>PT3198</name></trkpt>
<trkpt lat="53.312806" lon="06.567831"><ele>20</ele><time>2021-05-20T10:40:48Z</time><name>PT3199</name></trkpt>
<trkpt lat="53.312801" lon="06.567809"><ele>20.1</ele><time>2021-05-20T10:40:48Z</time><name>PT3200</name></trkpt>
<trkpt lat="53.312798" lon="06.567790"><ele>20.1</ele><time>2021-05-20T10:40:49Z</time><name>PT3201</name></trkpt>
<trkpt lat="53.312795" lon="06.567770"><ele>20.1</ele><time>2021-05-20T10:40:51Z</time><name>PT3202</name></trkpt>
<trkpt lat="53.312794" lon="06.567751"><ele>19.9</ele><time>2021-05-20T10:40:51Z</time><name>PT3203</name></trkpt>
<trkpt lat="53.312792" lon="06.567733"><ele>19.8</ele><time>2021-05-20T10:40:53Z</time><name>PT3204</name></trkpt>
<trkpt lat="53.312789" lon="06.567716"><ele>19.9</ele><time>2021-05-20T10:40:53Z</time><name>PT3205</name></trkpt>
<trkpt lat="53.312782" lon="06.567696"><ele>20</ele><time>2021-05-20T10:40:55Z</time><name>PT3206</name></trkpt>
<trkpt lat="53.312778" lon="06.567677"><ele>19.9</ele><time>2021-05-20T10:40:55Z</time><name>PT3207</name></trkpt>
<trkpt lat="53.312775" lon="06.567657"><ele>20</ele><time>2021-05-20T10:40:57Z</time><name>PT3208</name></trkpt>
<trkpt lat="53.312772" lon="06.567636"><ele>20</ele><time>2021-05-20T10:40:57Z</time><name>PT3209</name></trkpt>
<trkpt lat="53.312770" lon="06.567616"><ele>20.2</ele><time>2021-05-20T10:40:58Z</time><name>PT3210</name></trkpt>
<trkpt lat="53.312768" lon="06.567597"><ele>20.1</ele><time>2021-05-20T10:41:00Z</time><name>PT3211</name></trkpt>
<trkpt lat="53.312764" lon="06.567575"><ele>20.3</ele><time>2021-05-20T10:41:00Z</time><name>PT3212</name></trkpt>
<trkpt lat="53.312760" lon="06.567553"><ele>20</ele><time>2021-05-20T10:41:02Z</time><name>PT3213</name></trkpt>
<trkpt lat="53.312756" lon="06.567532"><ele>19.9</ele><time>2021-05-20T10:41:02Z</time><name>PT3214</name></trkpt>
<trkpt lat="53.312753" lon="06.567513"><ele>20.1</ele><time>2021-05-20T10:41:03Z</time><name>PT3215</name></trkpt>
<trkpt lat="53.312749" lon="06.567493"><ele>20.1</ele><time>2021-05-20T10:41:05Z</time><name>PT3216</name></trkpt>
<trkpt lat="53.312748" lon="06.567475"><ele>20.1</ele><time>2021-05-20T10:41:05Z</time><name>PT3217</name></trkpt>
<trkpt lat="53.312746" lon="06.567458"><ele>20.3</ele><time>2021-05-20T10:41:07Z</time><name>PT3218</name></trkpt>
<trkpt lat="53.312744" lon="06.567439"><ele>20.1</ele><time>2021-05-20T10:41:07Z</time><name>PT3219</name></trkpt>
<trkpt lat="53.312743" lon="06.567419"><ele>20.2</ele><time>2021-05-20T10:41:09Z</time><name>PT3220</name></trkpt>
<trkpt lat="53.312740" lon="06.567399"><ele>20.3</ele><time>2021-05-20T10:41:09Z</time><name>PT3221</name></trkpt>
<trkpt lat="53.312739" lon="06.567380"><ele>20.5</ele><time>2021-05-20T10:41:11Z</time><name>PT3222</name></trkpt>
<trkpt lat="53.312736" lon="06.567359"><ele>20.5</ele><time>2021-05-20T10:41:11Z</time><name>PT3223</name></trkpt>
<trkpt lat="53.312732" lon="06.567338"><ele>20.5</ele><time>2021-05-20T10:41:12Z</time><name>PT3224</name></trkpt>
<trkpt lat="53.312729" lon="06.567317"><ele>20.4</ele><time>2021-05-20T10:41:14Z</time><name>PT3225</name></trkpt>
<trkpt lat="53.312726" lon="06.567297"><ele>20.2</ele><time>2021-05-20T10:41:14Z</time><name>PT3226</name></trkpt>
<trkpt lat="53.312723" lon="06.567279"><ele>20.3</ele><time>2021-05-20T10:41:15Z</time><name>PT3227</name></trkpt>
<trkpt lat="53.312720" lon="06.567260"><ele>20.4</ele><time>2021-05-20T10:41:17Z</time><name>PT3228</name></trkpt>
<trkpt lat="53.312718" lon="06.567243"><ele>20.3</ele><time>2021-05-20T10:41:17Z</time><name>PT3229</name></trkpt>
<trkpt lat="53.312717" lon="06.567225"><ele>20.3</ele><time>2021-05-20T10:41:18Z</time><name>PT3230</name></trkpt>
<trkpt lat="53.312715" lon="06.567207"><ele>20.4</ele><time>2021-05-20T10:41:20Z</time><name>PT3231</name></trkpt>
<trkpt lat="53.312714" lon="06.567188"><ele>20.5</ele><time>2021-05-20T10:41:20Z</time><name>PT3232</name></trkpt>
<trkpt lat="53.312712" lon="06.567169"><ele>20.5</ele><time>2021-05-20T10:41:21Z</time><name>PT3233</name></trkpt>
<trkpt lat="53.312709" lon="06.567148"><ele>20.7</ele><time>2021-05-20T10:41:23Z</time><name>PT3234</name></trkpt>
<trkpt lat="53.312707" lon="06.567126"><ele>20.6</ele><time>2021-05-20T10:41:23Z</time><name>PT3235</name></trkpt>
<trkpt lat="53.312705" lon="06.567105"><ele>20.5</ele><time>2021-05-20T10:41:24Z</time><name>PT3236</name></trkpt>
<trkpt lat="53.312703" lon="06.567085"><ele>20.3</ele><time>2021-05-20T10:41:26Z</time><name>PT3237</name></trkpt>
<trkpt lat="53.312702" lon="06.567066"><ele>20.2</ele><time>2021-05-20T10:41:26Z</time><name>PT3238</name></trkpt>
<trkpt lat="53.312700" lon="06.567049"><ele>20.1</ele><time>2021-05-20T10:41:27Z</time><name>PT3239</name></trkpt>
<trkpt lat="53.312699" lon="06.567030"><ele>20.1</ele><time>2021-05-20T10:41:29Z</time><name>PT3240</name></trkpt>
<trkpt lat="53.312697" lon="06.567010"><ele>20.2</ele><time>2021-05-20T10:41:29Z</time><name>PT3241</name></trkpt>
<trkpt lat="53.312694" lon="06.566992"><ele>20.2</ele><time>2021-05-20T10:41:30Z</time><name>PT3242</name></trkpt>
<trkpt lat="53.312690" lon="06.566972"><ele>20.3</ele><time>2021-05-20T10:41:32Z</time><name>PT3243</name></trkpt>
<trkpt lat="53.312687" lon="06.566953"><ele>20.3</ele><time>2021-05-20T10:41:32Z</time><name>PT3244</name></trkpt>
<trkpt lat="53.312686" lon="06.566936"><ele>20.2</ele><time>2021-05-20T10:41:33Z</time><name>PT3245</name></trkpt>
<trkpt lat="53.312684" lon="06.566918"><ele>20.1</ele><time>2021-05-20T10:41:35Z</time><name>PT3246</name></trkpt>
<trkpt lat="53.312682" lon="06.566899"><ele>20</ele><time>2021-05-20T10:41:35Z</time><name>PT3247</name></trkpt>
<trkpt lat="53.312681" lon="06.566880"><ele>19.7</ele><time>2021-05-20T10:41:36Z</time><name>PT3248</name></trkpt>
<trkpt lat="53.312681" lon="06.566861"><ele>19.7</ele><time>2021-05-20T10:41:38Z</time><name>PT3249</name></trkpt>
<trkpt lat="53.312679" lon="06.566843"><ele>19.6</ele><time>2021-05-20T10:41:38Z</time><name>PT3250</name></trkpt>
<trkpt lat="53.312678" lon="06.566824"><ele>19.6</ele><time>2021-05-20T10:41:40Z</time><name>PT3251</name></trkpt>
<trkpt lat="53.312676" lon="06.566806"><ele>19.5</ele><time>2021-05-20T10:41:40Z</time><name>PT3252</name></trkpt>
<trkpt lat="53.312674" lon="06.566787"><ele>19.7</ele><time>2021-05-20T10:41:41Z</time><name>PT3253</name></trkpt>
<trkpt lat="53.312672" lon="06.566769"><ele>19.7</ele><time>2021-05-20T10:41:43Z</time><name>PT3254</name></trkpt>
<trkpt lat="53.312670" lon="06.566751"><ele>19.8</ele><time>2021-05-20T10:41:43Z</time><name>PT3255</name></trkpt>
<trkpt lat="53.312669" lon="06.566733"><ele>19.7</ele><time>2021-05-20T10:41:44Z</time><name>PT3256</name></trkpt>
<trkpt lat="53.312668" lon="06.566715"><ele>19.6</ele><time>2021-05-20T10:41:46Z</time><name>PT3257</name></trkpt>
<trkpt lat="53.312666" lon="06.566695"><ele>19.4</ele><time>2021-05-20T10:41:46Z</time><name>PT3258</name></trkpt>
<trkpt lat="53.312664" lon="06.566675"><ele>19.4</ele><time>2021-05-20T10:41:47Z</time><name>PT3259</name></trkpt>
<trkpt lat="53.312661" lon="06.566655"><ele>19.3</ele><time>2021-05-20T10:41:49Z</time><name>PT3260</name></trkpt>
<trkpt lat="53.312659" lon="06.566637"><ele>19.4</ele><time>2021-05-20T10:41:49Z</time><name>PT3261</name></trkpt>
<trkpt lat="53.312659" lon="06.566620"><ele>19.5</ele><time>2021-05-20T10:41:50Z</time><name>PT3262</name></trkpt>
<trkpt lat="53.312658" lon="06.566603"><ele>19.6</ele><time>2021-05-20T10:41:52Z</time><name>PT3263</name></trkpt>
<trkpt lat="53.312655" lon="06.566583"><ele>19.6</ele><time>2021-05-20T10:41:52Z</time><name>PT3264</name></trkpt>
<trkpt lat="53.312651" lon="06.566563"><ele>19.5</ele><time>2021-05-20T10:41:54Z</time><name>PT3265</name></trkpt>
<trkpt lat="53.312646" lon="06.566543"><ele>19.6</ele><time>2021-05-20T10:41:54Z</time><name>PT3266</name></trkpt>
<trkpt lat="53.312642" lon="06.566523"><ele>19.3</ele><time>2021-05-20T10:41:55Z</time><name>PT3267</name></trkpt>
<trkpt lat="53.312639" lon="06.566504"><ele>19.3</ele><time>2021-05-20T10:41:57Z</time><name>PT3268</name></trkpt>
<trkpt lat="53.312637" lon="06.566486"><ele>19.4</ele><time>2021-05-20T10:41:57Z</time><name>PT3269</name></trkpt>
<trkpt lat="53.312636" lon="06.566466"><ele>19.5</ele><time>2021-05-20T10:41:59Z</time><name>PT3270</name></trkpt>
<trkpt lat="53.312635" lon="06.566445"><ele>19.6</ele><time>2021-05-20T10:41:59Z</time><name>PT3271</name></trkpt>
<trkpt lat="53.312631" lon="06.566422"><ele>19.7</ele><time>2021-05-20T10:42:00Z</time><name>PT3272</name></trkpt>
<trkpt lat="53.312627" lon="06.566402"><ele>19.6</ele><time>2021-05-20T10:42:02Z</time><name>PT3273</name></trkpt>
<trkpt lat="53.312624" lon="06.566381"><ele>19.6</ele><time>2021-05-20T10:42:02Z</time><name>PT3274</name></trkpt>
<trkpt lat="53.312622" lon="06.566361"><ele>19.6</ele><time>2021-05-20T10:42:03Z</time><name>PT3275</name></trkpt>
<trkpt lat="53.312620" lon="06.566341"><ele>19.6</ele><time>2021-05-20T10:42:05Z</time><name>PT3276</name></trkpt>
<trkpt lat="53.312616" lon="06.566320"><ele>19.6</ele><time>2021-05-20T10:42:05Z</time><name>PT3277</name></trkpt>
<trkpt lat="53.312613" lon="06.566300"><ele>19.6</ele><time>2021-05-20T10:42:07Z</time><name>PT3278</name></trkpt>
<trkpt lat="53.312612" lon="06.566281"><ele>19.6</ele><time>2021-05-20T10:42:07Z</time><name>PT3279</name></trkpt>
<trkpt lat="53.312610" lon="06.566261"><ele>19.3</ele><time>2021-05-20T10:42:08Z</time><name>PT3280</name></trkpt>
<trkpt lat="53.312608" lon="06.566243"><ele>19.1</ele><time>2021-05-20T10:42:10Z</time><name>PT3281</name></trkpt>
<trkpt lat="53.312607" lon="06.566227"><ele>19.2</ele><time>2021-05-20T10:42:10Z</time><name>PT3282</name></trkpt>
<trkpt lat="53.312606" lon="06.566209"><ele>19.3</ele><time>2021-05-20T10:42:11Z</time><name>PT3283</name></trkpt>
<trkpt lat="53.312605" lon="06.566190"><ele>19.6</ele><time>2021-05-20T10:42:13Z</time><name>PT3284</name></trkpt>
<trkpt lat="53.312604" lon="06.566172"><ele>19.6</ele><time>2021-05-20T10:42:13Z</time><name>PT3285</name></trkpt>
<trkpt lat="53.312604" lon="06.566153"><ele>19.7</ele><time>2021-05-20T10:42:14Z</time><name>PT3286</name></trkpt>
<trkpt lat="53.312602" lon="06.566131"><ele>19.8</ele><time>2021-05-20T10:42:16Z</time><name>PT3287</name></trkpt>
<trkpt lat="53.312600" lon="06.566107"><ele>19.7</ele><time>2021-05-20T10:42:16Z</time><name>PT3288</name></trkpt>
<trkpt lat="53.312599" lon="06.566087"><ele>19.6</ele><time>2021-05-20T10:42:17Z</time><name>PT3289</name></trkpt>
<trkpt lat="53.312598" lon="06.566068"><ele>19.5</ele><time>2021-05-20T10:42:19Z</time><name>PT3290</name></trkpt>
<trkpt lat="53.312596" lon="06.566048"><ele>19.4</ele><time>2021-05-20T10:42:19Z</time><name>PT3291</name></trkpt>
<trkpt lat="53.312595" lon="06.566029"><ele>19.5</ele><time>2021-05-20T10:42:21Z</time><name>PT3292</name></trkpt>
<trkpt lat="53.312594" lon="06.566008"><ele>19.6</ele><time>2021-05-20T10:42:21Z</time><name>PT3293</name></trkpt>
<trkpt lat="53.312591" lon="06.565988"><ele>19.7</ele><time>2021-05-20T10:42:23Z</time><name>PT3294</name></trkpt>
<trkpt lat="53.312591" lon="06.565977"><ele>19.9</ele><time>2021-05-20T10:42:23Z</time><name>PT3295</name></trkpt>
<trkpt lat="53.312593" lon="06.565982"><ele>20.5</ele><time>2021-05-20T10:42:25Z</time><name>PT3296</name></trkpt>
<trkpt lat="53.312593" lon="06.565977"><ele>20.5</ele><time>2021-05-20T10:42:25Z</time><name>PT3297</name></trkpt>
<trkpt lat="53.312593" lon="06.565976"><ele>20.7</ele><time>2021-05-20T10:42:26Z</time><name>PT3298</name></trkpt>
<trkpt lat="53.312592" lon="06.565974"><ele>20.8</ele><time>2021-05-20T10:42:28Z</time><name>PT3299</name></trkpt>
<trkpt lat="53.312592" lon="06.565965"><ele>20.5</ele><time>2021-05-20T10:42:28Z</time><name>PT3300</name></trkpt>
<trkpt lat="53.312592" lon="06.565950"><ele>20.4</ele><time>2021-05-20T10:42:29Z</time><name>PT3301</name></trkpt>
<trkpt lat="53.312589" lon="06.565930"><ele>20.4</ele><time>2021-05-20T10:42:31Z</time><name>PT3302</name></trkpt>
<trkpt lat="53.312586" lon="06.565908"><ele>20.3</ele><time>2021-05-20T10:42:31Z</time><name>PT3303</name></trkpt>
<trkpt lat="53.312584" lon="06.565887"><ele>20.3</ele><time>2021-05-20T10:42:32Z</time><name>PT3304</name></trkpt>
<trkpt lat="53.312582" lon="06.565869"><ele>20.3</ele><time>2021-05-20T10:42:34Z</time><name>PT3305</name></trkpt>
<trkpt lat="53.312578" lon="06.565850"><ele>20.2</ele><time>2021-05-20T10:42:34Z</time><name>PT3306</name></trkpt>
<trkpt lat="53.312575" lon="06.565831"><ele>20.2</ele><time>2021-05-20T10:42:35Z</time><name>PT3307</name></trkpt>
<trkpt lat="53.312572" lon="06.565810"><ele>20.1</ele><time>2021-05-20T10:42:37Z</time><name>PT3308</name></trkpt>
<trkpt lat="53.312571" lon="06.565794"><ele>20.3</ele><time>2021-05-20T10:42:37Z</time><name>PT3309</name></trkpt>
<trkpt lat="53.312574" lon="06.565794"><ele>20.4</ele><time>2021-05-20T10:42:39Z</time><name>PT3310</name></trkpt>
<trkpt lat="53.312576" lon="06.565795"><ele>20.5</ele><time>2021-05-20T10:42:39Z</time><name>PT3311</name></trkpt>
<trkpt lat="53.312577" lon="06.565796"><ele>20.8</ele><time>2021-05-20T10:42:41Z</time><name>PT3312</name></trkpt>
<trkpt lat="53.312576" lon="06.565795"><ele>20.8</ele><time>2021-05-20T10:42:41Z</time><name>PT3313</name></trkpt>
<trkpt lat="53.312579" lon="06.565796"><ele>20.9</ele><time>2021-05-20T10:42:43Z</time><name>PT3314</name></trkpt>
<trkpt lat="53.312581" lon="06.565798"><ele>21</ele><time>2021-05-20T10:42:43Z</time><name>PT3315</name></trkpt>
<trkpt lat="53.312582" lon="06.565799"><ele>21.2</ele><time>2021-05-20T10:42:44Z</time><name>PT3316</name></trkpt>
<trkpt lat="53.312578" lon="06.565791"><ele>20.8</ele><time>2021-05-20T10:42:46Z</time><name>PT3317</name></trkpt>
<trkpt lat="53.312577" lon="06.565776"><ele>20.6</ele><time>2021-05-20T10:42:46Z</time><name>PT3318</name></trkpt>
<trkpt lat="53.312575" lon="06.565757"><ele>20.5</ele><time>2021-05-20T10:42:48Z</time><name>PT3319</name></trkpt>
<trkpt lat="53.312573" lon="06.565740"><ele>20.1</ele><time>2021-05-20T10:42:48Z</time><name>PT3320</name></trkpt>
<trkpt lat="53.312571" lon="06.565722"><ele>20.1</ele><time>2021-05-20T10:42:49Z</time><name>PT3321</name></trkpt>
<trkpt lat="53.312570" lon="06.565702"><ele>20.1</ele><time>2021-05-20T10:42:51Z</time><name>PT3322</name></trkpt>
<trkpt lat="53.312570" lon="06.565683"><ele>20</ele><time>2021-05-20T10:42:51Z</time><name>PT3323</name></trkpt>
<trkpt lat="53.312569" lon="06.565662"><ele>20</ele><time>2021-05-20T10:42:52Z</time><name>PT3324</name></trkpt>
<trkpt lat="53.312567" lon="06.565641"><ele>20.1</ele><time>2021-05-20T10:42:54Z</time><name>PT3325</name></trkpt>
<trkpt lat="53.312564" lon="06.565622"><ele>20.1</ele><time>2021-05-20T10:42:54Z</time><name>PT3326</name></trkpt>
<trkpt lat="53.312561" lon="06.565602"><ele>20.2</ele><time>2021-05-20T10:42:56Z</time><name>PT3327</name></trkpt>
<trkpt lat="53.312557" lon="06.565582"><ele>20.3</ele><time>2021-05-20T10:42:56Z</time><name>PT3328</name></trkpt>
<trkpt lat="53.312554" lon="06.565562"><ele>20.1</ele><time>2021-05-20T10:42:57Z</time><name>PT3329</name></trkpt>
<trkpt lat="53.312551" lon="06.565543"><ele>19.9</ele><time>2021-05-20T10:42:59Z</time><name>PT3330</name></trkpt>
<trkpt lat="53.312549" lon="06.565524"><ele>19.7</ele><time>2021-05-20T10:42:59Z</time><name>PT3331</name></trkpt>
<trkpt lat="53.312547" lon="06.565505"><ele>19.7</ele><time>2021-05-20T10:43:01Z</time><name>PT3332</name></trkpt>
<trkpt lat="53.312545" lon="06.565486"><ele>19.9</ele><time>2021-05-20T10:43:01Z</time><name>PT3333</name></trkpt>
<trkpt lat="53.312543" lon="06.565466"><ele>20</ele><time>2021-05-20T10:43:03Z</time><name>PT3334</name></trkpt>
<trkpt lat="53.312541" lon="06.565447"><ele>20.1</ele><time>2021-05-20T10:43:03Z</time><name>PT3335</name></trkpt>
<trkpt lat="53.312538" lon="06.565426"><ele>20.1</ele><time>2021-05-20T10:43:05Z</time><name>PT3336</name></trkpt>
<trkpt lat="53.312535" lon="06.565406"><ele>20</ele><time>2021-05-20T10:43:05Z</time><name>PT3337</name></trkpt>
<trkpt lat="53.312532" lon="06.565387"><ele>20.1</ele><time>2021-05-20T10:43:07Z</time><name>PT3338</name></trkpt>
<trkpt lat="53.312528" lon="06.565368"><ele>20.2</ele><time>2021-05-20T10:43:07Z</time><name>PT3339</name></trkpt>
<trkpt lat="53.312526" lon="06.565350"><ele>20.4</ele><time>2021-05-20T10:43:09Z</time><name>PT3340</name></trkpt>
<trkpt lat="53.312523" lon="06.565332"><ele>20.4</ele><time>2021-05-20T10:43:09Z</time><name>PT3341</name></trkpt>
<trkpt lat="53.312521" lon="06.565313"><ele>20.4</ele><time>2021-05-20T10:43:10Z</time><name>PT3342</name></trkpt>
<trkpt lat="53.312518" lon="06.565294"><ele>20.2</ele><time>2021-05-20T10:43:12Z</time><name>PT3343</name></trkpt>
<trkpt lat="53.312515" lon="06.565273"><ele>20.1</ele><time>2021-05-20T10:43:12Z</time><name>PT3344</name></trkpt>
<trkpt lat="53.312514" lon="06.565251"><ele>20.1</ele><time>2021-05-20T10:43:14Z</time><name>PT3345</name></trkpt>
<trkpt lat="53.312510" lon="06.565230"><ele>20.1</ele><time>2021-05-20T10:43:14Z</time><name>PT3346</name></trkpt>
<trkpt lat="53.312506" lon="06.565211"><ele>20.1</ele><time>2021-05-20T10:43:16Z</time><name>PT3347</name></trkpt>
<trkpt lat="53.312503" lon="06.565192"><ele>20.1</ele><time>2021-05-20T10:43:16Z</time><name>PT3348</name></trkpt>
<trkpt lat="53.312500" lon="06.565173"><ele>20.1</ele><time>2021-05-20T10:43:17Z</time><name>PT3349</name></trkpt>
<trkpt lat="53.312498" lon="06.565153"><ele>20.1</ele><time>2021-05-20T10:43:19Z</time><name>PT3350</name></trkpt>
<trkpt lat="53.312497" lon="06.565134"><ele>20.1</ele><time>2021-05-20T10:43:19Z</time><name>PT3351</name></trkpt>
<trkpt lat="53.312496" lon="06.565114"><ele>20.2</ele><time>2021-05-20T10:43:20Z</time><name>PT3352</name></trkpt>
<trkpt lat="53.312495" lon="06.565096"><ele>20.1</ele><time>2021-05-20T10:43:22Z</time><name>PT3353</name></trkpt>
<trkpt lat="53.312493" lon="06.565078"><ele>20.1</ele><time>2021-05-20T10:43:22Z</time><name>PT3354</name></trkpt>
<trkpt lat="53.312491" lon="06.565059"><ele>20.1</ele><time>2021-05-20T10:43:23Z</time><name>PT3355</name></trkpt>
<trkpt lat="53.312487" lon="06.565039"><ele>20.1</ele><time>2021-05-20T10:43:25Z</time><name>PT3356</name></trkpt>
<trkpt lat="53.312484" lon="06.565021"><ele>20.2</ele><time>2021-05-20T10:43:25Z</time><name>PT3357</name></trkpt>
<trkpt lat="53.312481" lon="06.565004"><ele>20.2</ele><time>2021-05-20T10:43:26Z</time><name>PT3358</name></trkpt>
<trkpt lat="53.312479" lon="06.564986"><ele>20.2</ele><time>2021-05-20T10:43:28Z</time><name>PT3359</name></trkpt>
<trkpt lat="53.312477" lon="06.564966"><ele>20.1</ele><time>2021-05-20T10:43:28Z</time><name>PT3360</name></trkpt>
<trkpt lat="53.312475" lon="06.564945"><ele>20.2</ele><time>2021-05-20T10:43:29Z</time><name>PT3361</name></trkpt>
<trkpt lat="53.312474" lon="06.564926"><ele>20.3</ele><time>2021-05-20T10:43:31Z</time><name>PT3362</name></trkpt>
<trkpt lat="53.312471" lon="06.564905"><ele>20.3</ele><time>2021-05-20T10:43:31Z</time><name>PT3363</name></trkpt>
<trkpt lat="53.312468" lon="06.564885"><ele>20.4</ele><time>2021-05-20T10:43:33Z</time><name>PT3364</name></trkpt>
<trkpt lat="53.312464" lon="06.564867"><ele>20.2</ele><time>2021-05-20T10:43:33Z</time><name>PT3365</name></trkpt>
<trkpt lat="53.312460" lon="06.564847"><ele>20.2</ele><time>2021-05-20T10:43:35Z</time><name>PT3366</name></trkpt>
<trkpt lat="53.312457" lon="06.564830"><ele>20.3</ele><time>2021-05-20T10:43:35Z</time><name>PT3367</name></trkpt>
<trkpt lat="53.312455" lon="06.564812"><ele>20.2</ele><time>2021-05-20T10:43:36Z</time><name>PT3368</name></trkpt>
<trkpt lat="53.312452" lon="06.564793"><ele>20.2</ele><time>2021-05-20T10:43:38Z</time><name>PT3369</name></trkpt>
<trkpt lat="53.312450" lon="06.564778"><ele>20.2</ele><time>2021-05-20T10:43:38Z</time><name>PT3370</name></trkpt>
<trkpt lat="53.312446" lon="06.564765"><ele>20.2</ele><time>2021-05-20T10:43:40Z</time><name>PT3371</name></trkpt>
<trkpt lat="53.312443" lon="06.564751"><ele>20.4</ele><time>2021-05-20T10:43:40Z</time><name>PT3372</name></trkpt>
<trkpt lat="53.312442" lon="06.564736"><ele>20.4</ele><time>2021-05-20T10:43:41Z</time><name>PT3373</name></trkpt>
<trkpt lat="53.312441" lon="06.564719"><ele>20.6</ele><time>2021-05-20T10:43:43Z</time><name>PT3374</name></trkpt>
<trkpt lat="53.312439" lon="06.564699"><ele>20.6</ele><time>2021-05-20T10:43:43Z</time><name>PT3375</name></trkpt>
<trkpt lat="53.312437" lon="06.564680"><ele>20.5</ele><time>2021-05-20T10:43:45Z</time><name>PT3376</name></trkpt>
<trkpt lat="53.312435" lon="06.564661"><ele>20.5</ele><time>2021-05-20T10:43:45Z</time><name>PT3377</name></trkpt>
<trkpt lat="53.312431" lon="06.564641"><ele>20.3</ele><time>2021-05-20T10:43:46Z</time><name>PT3378</name></trkpt>
<trkpt lat="53.312428" lon="06.564622"><ele>20.2</ele><time>2021-05-20T10:43:48Z</time><name>PT3379</name></trkpt>
<trkpt lat="53.312424" lon="06.564604"><ele>20.2</ele><time>2021-05-20T10:43:48Z</time><name>PT3380</name></trkpt>
<trkpt lat="53.312421" lon="06.564587"><ele>20.1</ele><time>2021-05-20T10:43:49Z</time><name>PT3381</name></trkpt>
<trkpt lat="53.312420" lon="06.564569"><ele>19.8</ele><time>2021-05-20T10:43:51Z</time><name>PT3382</name></trkpt>
<trkpt lat="53.312419" lon="06.564552"><ele>19.8</ele><time>2021-05-20T10:43:51Z</time><name>PT3383</name></trkpt>
<trkpt lat="53.312418" lon="06.564530"><ele>19.8</ele><time>2021-05-20T10:43:53Z</time><name>PT3384</name></trkpt>
<trkpt lat="53.312415" lon="06.564508"><ele>19.7</ele><time>2021-05-20T10:43:53Z</time><name>PT3385</name></trkpt>
<trkpt lat="53.312412" lon="06.564490"><ele>20</ele><time>2021-05-20T10:43:55Z</time><name>PT3386</name></trkpt>
<trkpt lat="53.312411" lon="06.564470"><ele>20.1</ele><time>2021-05-20T10:43:55Z</time><name>PT3387</name></trkpt>
<trkpt lat="53.312410" lon="06.564451"><ele>20.1</ele><time>2021-05-20T10:43:56Z</time><name>PT3388</name></trkpt>
<trkpt lat="53.312407" lon="06.564433"><ele>20.2</ele><time>2021-05-20T10:43:58Z</time><name>PT3389</name></trkpt>
<trkpt lat="53.312405" lon="06.564416"><ele>20.2</ele><time>2021-05-20T10:43:58Z</time><name>PT3390</name></trkpt>
<trkpt lat="53.312404" lon="06.564402"><ele>20.1</ele><time>2021-05-20T10:44:00Z</time><name>PT3391</name></trkpt>
<trkpt lat="53.312403" lon="06.564386"><ele>20.1</ele><time>2021-05-20T10:44:00Z</time><name>PT3392</name></trkpt>
<trkpt lat="53.312401" lon="06.564368"><ele>20.1</ele><time>2021-05-20T10:44:01Z</time><name>PT3393</name></trkpt>
<trkpt lat="53.312399" lon="06.564351"><ele>20.3</ele><time>2021-05-20T10:44:03Z</time><name>PT3394</name></trkpt>
<trkpt lat="53.312396" lon="06.564333"><ele>20.4</ele><time>2021-05-20T10:44:03Z</time><name>PT3395</name></trkpt>
<trkpt lat="53.312392" lon="06.564315"><ele>20.4</ele><time>2021-05-20T10:44:04Z</time><name>PT3396</name></trkpt>
<trkpt lat="53.312390" lon="06.564297"><ele>20.5</ele><time>2021-05-20T10:44:06Z</time><name>PT3397</name></trkpt>
<trkpt lat="53.312387" lon="06.564280"><ele>20.5</ele><time>2021-05-20T10:44:06Z</time><name>PT3398</name></trkpt>
<trkpt lat="53.312385" lon="06.564263"><ele>20.5</ele><time>2021-05-20T10:44:08Z</time><name>PT3399</name></trkpt>
<trkpt lat="53.312384" lon="06.564245"><ele>20.5</ele><time>2021-05-20T10:44:08Z</time><name>PT3400</name></trkpt>
<trkpt lat="53.312383" lon="06.564230"><ele>20.8</ele><time>2021-05-20T10:44:10Z</time><name>PT3401</name></trkpt>
<trkpt lat="53.312381" lon="06.564215"><ele>21</ele><time>2021-05-20T10:44:10Z</time><name>PT3402</name></trkpt>
<trkpt lat="53.312377" lon="06.564197"><ele>20.9</ele><time>2021-05-20T10:44:12Z</time><name>PT3403</name></trkpt>
<trkpt lat="53.312372" lon="06.564177"><ele>20.9</ele><time>2021-05-20T10:44:12Z</time><name>PT3404</name></trkpt>
<trkpt lat="53.312369" lon="06.564158"><ele>20.5</ele><time>2021-05-20T10:44:14Z</time><name>PT3405</name></trkpt>
<trkpt lat="53.312368" lon="06.564143"><ele>20.3</ele><time>2021-05-20T10:44:14Z</time><name>PT3406</name></trkpt>
<trkpt lat="53.312367" lon="06.564127"><ele>20.3</ele><time>2021-05-20T10:44:15Z</time><name>PT3407</name></trkpt>
<trkpt lat="53.312367" lon="06.564108"><ele>20.2</ele><time>2021-05-20T10:44:17Z</time><name>PT3408</name></trkpt>
<trkpt lat="53.312364" lon="06.564088"><ele>20.3</ele><time>2021-05-20T10:44:17Z</time><name>PT3409</name></trkpt>
<trkpt lat="53.312363" lon="06.564069"><ele>20.5</ele><time>2021-05-20T10:44:18Z</time><name>PT3410</name></trkpt>
<trkpt lat="53.312362" lon="06.564059"><ele>20.6</ele><time>2021-05-20T10:44:20Z</time><name>PT3411</name></trkpt>
<trkpt lat="53.312362" lon="06.564058"><ele>20.7</ele><time>2021-05-20T10:44:20Z</time><name>PT3412</name></trkpt>
<trkpt lat="53.312362" lon="06.564058"><ele>20.7</ele><time>2021-05-20T10:44:21Z</time><name>PT3413</name></trkpt>
<trkpt lat="53.312363" lon="06.564059"><ele>20.9</ele><time>2021-05-20T10:44:23Z</time><name>PT3414</name></trkpt>
<trkpt lat="53.312363" lon="06.564054"><ele>20.7</ele><time>2021-05-20T10:44:36Z</time><name>PT3415</name></trkpt>
<trkpt lat="53.312361" lon="06.564037"><ele>20.5</ele><time>2021-05-20T10:44:36Z</time><name>PT3416</name></trkpt>
<trkpt lat="53.312361" lon="06.564023"><ele>20.1</ele><time>2021-05-20T10:44:38Z</time><name>PT3417</name></trkpt>
<trkpt lat="53.312360" lon="06.564009"><ele>20</ele><time>2021-05-20T10:44:38Z</time><name>PT3418</name></trkpt>
<trkpt lat="53.312357" lon="06.563994"><ele>20.1</ele><time>2021-05-20T10:44:39Z</time><name>PT3419</name></trkpt>
<trkpt lat="53.312355" lon="06.563978"><ele>20.4</ele><time>2021-05-20T10:44:41Z</time><name>PT3420</name></trkpt>
<trkpt lat="53.312353" lon="06.563965"><ele>20.6</ele><time>2021-05-20T10:44:41Z</time><name>PT3421</name></trkpt>
<trkpt lat="53.312353" lon="06.563948"><ele>20.9</ele><time>2021-05-20T10:44:43Z</time><name>PT3422</name></trkpt>
<trkpt lat="53.312352" lon="06.563931"><ele>21</ele><time>2021-05-20T10:44:43Z</time><name>PT3423</name></trkpt>
<trkpt lat="53.312350" lon="06.563915"><ele>20.8</ele><time>2021-05-20T10:44:44Z</time><name>PT3424</name></trkpt>
<trkpt lat="53.312348" lon="06.563905"><ele>20.6</ele><time>2021-05-20T10:44:46Z</time><name>PT3425</name></trkpt>
<trkpt lat="53.312347" lon="06.563896"><ele>20.5</ele><time>2021-05-20T10:44:46Z</time><name>PT3426</name></trkpt>
<trkpt lat="53.312347" lon="06.563883"><ele>20.5</ele><time>2021-05-20T10:44:47Z</time><name>PT3427</name></trkpt>
<trkpt lat="53.312346" lon="06.563865"><ele>20.3</ele><time>2021-05-20T10:44:49Z</time><name>PT3428</name></trkpt>
<trkpt lat="53.312343" lon="06.563845"><ele>20.4</ele><time>2021-05-20T10:44:49Z</time><name>PT3429</name></trkpt>
<trkpt lat="53.312341" lon="06.563835"><ele>20.4</ele><time>2021-05-20T10:44:50Z</time><name>PT3430</name></trkpt>
<trkpt lat="53.312342" lon="06.563836"><ele>20.5</ele><time>2021-05-20T10:44:52Z</time><name>PT3431</name></trkpt>
<trkpt lat="53.312342" lon="06.563836"><ele>20.5</ele><time>2021-05-20T10:44:52Z</time><name>PT3432</name></trkpt>
<trkpt lat="53.312342" lon="06.563839"><ele>20.5</ele><time>2021-05-20T10:44:53Z</time><name>PT3433</name></trkpt>
<trkpt lat="53.312340" lon="06.563826"><ele>20.5</ele><time>2021-05-20T10:45:04Z</time><name>PT3434</name></trkpt>
<trkpt lat="53.312337" lon="06.563804"><ele>20.1</ele><time>2021-05-20T10:45:06Z</time><name>PT3435</name></trkpt>
<trkpt lat="53.312333" lon="06.563781"><ele>19.8</ele><time>2021-05-20T10:45:06Z</time><name>PT3436</name></trkpt>
<trkpt lat="53.312332" lon="06.563758"><ele>19.7</ele><time>2021-05-20T10:45:07Z</time><name>PT3437</name></trkpt>
<trkpt lat="53.312329" lon="06.563739"><ele>19.7</ele><time>2021-05-20T10:45:09Z</time><name>PT3438</name></trkpt>
<trkpt lat="53.312326" lon="06.563719"><ele>19.9</ele><time>2021-05-20T10:45:09Z</time><name>PT3439</name></trkpt>
<trkpt lat="53.312324" lon="06.563697"><ele>20.2</ele><time>2021-05-20T10:45:10Z</time><name>PT3440</name></trkpt>
<trkpt lat="53.312322" lon="06.563677"><ele>20.2</ele><time>2021-05-20T10:45:12Z</time><name>PT3441</name></trkpt>
<trkpt lat="53.312319" lon="06.563656"><ele>20.4</ele><time>2021-05-20T10:45:12Z</time><name>PT3442</name></trkpt>
<trkpt lat="53.312316" lon="06.563634"><ele>20.5</ele><time>2021-05-20T10:45:13Z</time><name>PT3443</name></trkpt>
<trkpt lat="53.312313" lon="06.563613"><ele>20.4</ele><time>2021-05-20T10:45:15Z</time><name>PT3444</name></trkpt>
<trkpt lat="53.312310" lon="06.563592"><ele>20.4</ele><time>2021-05-20T10:45:15Z</time><name>PT3445</name></trkpt>
<trkpt lat="53.312308" lon="06.563573"><ele>20.3</ele><time>2021-05-20T10:45:16Z</time><name>PT3446</name></trkpt>
<trkpt lat="53.312304" lon="06.563553"><ele>20.2</ele><time>2021-05-20T10:45:18Z</time><name>PT3447</name></trkpt>
<trkpt lat="53.312300" lon="06.563533"><ele>20.2</ele><time>2021-05-20T10:45:18Z</time><name>PT3448</name></trkpt>
<trkpt lat="53.312296" lon="06.563512"><ele>20.1</ele><time>2021-05-20T10:45:20Z</time><name>PT3449</name></trkpt>
<trkpt lat="53.312292" lon="06.563492"><ele>20.1</ele><time>2021-05-20T10:45:20Z</time><name>PT3450</name></trkpt>
<trkpt lat="53.312290" lon="06.563473"><ele>20.1</ele><time>2021-05-20T10:45:21Z</time><name>PT3451</name></trkpt>
<trkpt lat="53.312287" lon="06.563454"><ele>20.3</ele><time>2021-05-20T10:45:23Z</time><name>PT3452</name></trkpt>
<trkpt lat="53.312287" lon="06.563436"><ele>20.4</ele><time>2021-05-20T10:45:23Z</time><name>PT3453</name></trkpt>
<trkpt lat="53.312287" lon="06.563418"><ele>20.6</ele><time>2021-05-20T10:45:24Z</time><name>PT3454</name></trkpt>
<trkpt lat="53.312285" lon="06.563399"><ele>20.6</ele><time>2021-05-20T10:45:26Z</time><name>PT3455</name></trkpt>
<trkpt lat="53.312283" lon="06.563380"><ele>20.7</ele><time>2021-05-20T10:45:26Z</time><name>PT3456</name></trkpt>
<trkpt lat="53.312282" lon="06.563360"><ele>20.9</ele><time>2021-05-20T10:45:27Z</time><name>PT3457</name></trkpt>
<trkpt lat="53.312280" lon="06.563338"><ele>20.9</ele><time>2021-05-20T10:45:29Z</time><name>PT3458</name></trkpt>
<trkpt lat="53.312276" lon="06.563314"><ele>21</ele><time>2021-05-20T10:45:29Z</time><name>PT3459</name></trkpt>
<trkpt lat="53.312274" lon="06.563294"><ele>20.9</ele><time>2021-05-20T10:45:30Z</time><name>PT3460</name></trkpt>
<trkpt lat="53.312269" lon="06.563271"><ele>20.6</ele><time>2021-05-20T10:45:32Z</time><name>PT3461</name></trkpt>
<trkpt lat="53.312266" lon="06.563249"><ele>20.5</ele><time>2021-05-20T10:45:32Z</time><name>PT3462</name></trkpt>
<trkpt lat="53.312263" lon="06.563227"><ele>20.5</ele><time>2021-05-20T10:45:33Z</time><name>PT3463</name></trkpt>
<trkpt lat="53.312263" lon="06.563205"><ele>20.6</ele><time>2021-05-20T10:45:35Z</time><name>PT3464</name></trkpt>
<trkpt lat="53.312260" lon="06.563186"><ele>20.6</ele><time>2021-05-20T10:45:35Z</time><name>PT3465</name></trkpt>
<trkpt lat="53.312256" lon="06.563168"><ele>20.5</ele><time>2021-05-20T10:45:36Z</time><name>PT3466</name></trkpt>
<trkpt lat="53.312266" lon="06.563168"><ele>20.6</ele><time>2021-05-20T10:45:38Z</time><name>PT3467</name></trkpt>
<trkpt lat="53.312266" lon="06.563168"><ele>20.8</ele><time>2021-05-20T10:45:38Z</time><name>PT3468</name></trkpt>
<trkpt lat="53.312266" lon="06.563166"><ele>21</ele><time>2021-05-20T10:45:39Z</time><name>PT3469</name></trkpt>
<trkpt lat="53.312266" lon="06.563161"><ele>21.2</ele><time>2021-05-20T10:45:41Z</time><name>PT3470</name></trkpt>
<trkpt lat="53.312263" lon="06.563155"><ele>20.9</ele><time>2021-05-20T10:45:42Z</time><name>PT3471</name></trkpt>
<trkpt lat="53.312259" lon="06.563139"><ele>20.5</ele><time>2021-05-20T10:45:44Z</time><name>PT3472</name></trkpt>
<trkpt lat="53.312254" lon="06.563119"><ele>20.3</ele><time>2021-05-20T10:45:44Z</time><name>PT3473</name></trkpt>
<trkpt lat="53.312250" lon="06.563099"><ele>20</ele><time>2021-05-20T10:45:46Z</time><name>PT3474</name></trkpt>
<trkpt lat="53.312247" lon="06.563077"><ele>19.9</ele><time>2021-05-20T10:45:46Z</time><name>PT3475</name></trkpt>
<trkpt lat="53.312244" lon="06.563056"><ele>20</ele><time>2021-05-20T10:45:47Z</time><name>PT3476</name></trkpt>
<trkpt lat="53.312240" lon="06.563034"><ele>20.1</ele><time>2021-05-20T10:45:49Z</time><name>PT3477</name></trkpt>
<trkpt lat="53.312238" lon="06.563014"><ele>20.1</ele><time>2021-05-20T10:45:49Z</time><name>PT3478</name></trkpt>
<trkpt lat="53.312235" lon="06.562996"><ele>20.1</ele><time>2021-05-20T10:45:51Z</time><name>PT3479</name></trkpt>
<trkpt lat="53.312233" lon="06.562978"><ele>20.1</ele><time>2021-05-20T10:45:51Z</time><name>PT3480</name></trkpt>
<trkpt lat="53.312233" lon="06.562959"><ele>20.1</ele><time>2021-05-20T10:45:52Z</time><name>PT3481</name></trkpt>
<trkpt lat="53.312231" lon="06.562941"><ele>20</ele><time>2021-05-20T10:45:54Z</time><name>PT3482</name></trkpt>
<trkpt lat="53.312228" lon="06.562921"><ele>19.8</ele><time>2021-05-20T10:45:54Z</time><name>PT3483</name></trkpt>
<trkpt lat="53.312224" lon="06.562901"><ele>19.7</ele><time>2021-05-20T10:45:55Z</time><name>PT3484</name></trkpt>
<trkpt lat="53.312219" lon="06.562881"><ele>19.5</ele><time>2021-05-20T10:45:57Z</time><name>PT3485</name></trkpt>
<trkpt lat="53.312215" lon="06.562861"><ele>19.6</ele><time>2021-05-20T10:45:57Z</time><name>PT3486</name></trkpt>
<trkpt lat="53.312211" lon="06.562839"><ele>19.6</ele><time>2021-05-20T10:45:59Z</time><name>PT3487</name></trkpt>
<trkpt lat="53.312209" lon="06.562818"><ele>19.6</ele><time>2021-05-20T10:45:59Z</time><name>PT3488</name></trkpt>
<trkpt lat="53.312204" lon="06.562796"><ele>19.8</ele><time>2021-05-20T10:46:01Z</time><name>PT3489</name></trkpt>
<trkpt lat="53.312199" lon="06.562773"><ele>20</ele><time>2021-05-20T10:46:01Z</time><name>PT3490</name></trkpt>
<trkpt lat="53.312195" lon="06.562753"><ele>20.1</ele><time>2021-05-20T10:46:02Z</time><name>PT3491</name></trkpt>
<trkpt lat="53.312193" lon="06.562732"><ele>20</ele><time>2021-05-20T10:46:04Z</time><name>PT3492</name></trkpt>
<trkpt lat="53.312192" lon="06.562714"><ele>20.1</ele><time>2021-05-20T10:46:04Z</time><name>PT3493</name></trkpt>
<trkpt lat="53.312190" lon="06.562696"><ele>20</ele><time>2021-05-20T10:46:05Z</time><name>PT3494</name></trkpt>
<trkpt lat="53.312189" lon="06.562678"><ele>19.9</ele><time>2021-05-20T10:46:07Z</time><name>PT3495</name></trkpt>
<trkpt lat="53.312188" lon="06.562658"><ele>19.9</ele><time>2021-05-20T10:46:07Z</time><name>PT3496</name></trkpt>
<trkpt lat="53.312186" lon="06.562636"><ele>19.9</ele><time>2021-05-20T10:46:08Z</time><name>PT3497</name></trkpt>
<trkpt lat="53.312184" lon="06.562617"><ele>19.9</ele><time>2021-05-20T10:46:10Z</time><name>PT3498</name></trkpt>
<trkpt lat="53.312183" lon="06.562597"><ele>20.1</ele><time>2021-05-20T10:46:10Z</time><name>PT3499</name></trkpt>
<trkpt lat="53.312181" lon="06.562577"><ele>20.2</ele><time>2021-05-20T10:46:11Z</time><name>PT3500</name></trkpt>
<trkpt lat="53.312177" lon="06.562555"><ele>20.2</ele><time>2021-05-20T10:46:13Z</time><name>PT3501</name></trkpt>
<trkpt lat="53.312173" lon="06.562534"><ele>20.2</ele><time>2021-05-20T10:46:13Z</time><name>PT3502</name></trkpt>
<trkpt lat="53.312170" lon="06.562513"><ele>20.1</ele><time>2021-05-20T10:46:14Z</time><name>PT3503</name></trkpt>
<trkpt lat="53.312167" lon="06.562493"><ele>20</ele><time>2021-05-20T10:46:16Z</time><name>PT3504</name></trkpt>
<trkpt lat="53.312164" lon="06.562474"><ele>20.1</ele><time>2021-05-20T10:46:16Z</time><name>PT3505</name></trkpt>
<trkpt lat="53.312162" lon="06.562456"><ele>20.1</ele><time>2021-05-20T10:46:17Z</time><name>PT3506</name></trkpt>
<trkpt lat="53.312160" lon="06.562438"><ele>20.1</ele><time>2021-05-20T10:46:19Z</time><name>PT3507</name></trkpt>
<trkpt lat="53.312159" lon="06.562419"><ele>20.1</ele><time>2021-05-20T10:46:19Z</time><name>PT3508</name></trkpt>
<trkpt lat="53.312158" lon="06.562400"><ele>19.9</ele><time>2021-05-20T10:46:20Z</time><name>PT3509</name></trkpt>
<trkpt lat="53.312157" lon="06.562381"><ele>19.9</ele><time>2021-05-20T10:46:22Z</time><name>PT3510</name></trkpt>
<trkpt lat="53.312153" lon="06.562359"><ele>20</ele><time>2021-05-20T10:46:22Z</time><name>PT3511</name></trkpt>
<trkpt lat="53.312149" lon="06.562336"><ele>19.9</ele><time>2021-05-20T10:46:24Z</time><name>PT3512</name></trkpt>
<trkpt lat="53.312148" lon="06.562316"><ele>19.8</ele><time>2021-05-20T10:46:24Z</time><name>PT3513</name></trkpt>
<trkpt lat="53.312145" lon="06.562296"><ele>19.9</ele><time>2021-05-20T10:46:26Z</time><name>PT3514</name></trkpt>
<trkpt lat="53.312142" lon="06.562276"><ele>19.9</ele><time>2021-05-20T10:46:26Z</time><name>PT3515</name></trkpt>
<trkpt lat="53.312140" lon="06.562260"><ele>19.8</ele><time>2021-05-20T10:46:27Z</time><name>PT3516</name></trkpt>
<trkpt lat="53.312138" lon="06.562243"><ele>20.1</ele><time>2021-05-20T10:46:29Z</time><name>PT3517</name></trkpt>
<trkpt lat="53.312135" lon="06.562226"><ele>19.8</ele><time>2021-05-20T10:46:29Z</time><name>PT3518</name></trkpt>
<trkpt lat="53.312132" lon="06.562212"><ele>19.8</ele><time>2021-05-20T10:46:31Z</time><name>PT3519</name></trkpt>
<trkpt lat="53.312132" lon="06.562201"><ele>20</ele><time>2021-05-20T10:46:31Z</time><name>PT3520</name></trkpt>
<trkpt lat="53.312132" lon="06.562195"><ele>20.1</ele><time>2021-05-20T10:46:33Z</time><name>PT3521</name></trkpt>
<trkpt lat="53.312132" lon="06.562192"><ele>20.4</ele><time>2021-05-20T10:46:33Z</time><name>PT3522</name></trkpt>
<trkpt lat="53.312131" lon="06.562192"><ele>20.6</ele><time>2021-05-20T10:46:34Z</time><name>PT3523</name></trkpt>
<trkpt lat="53.312131" lon="06.562179"><ele>20.7</ele><time>2021-05-20T10:46:36Z</time><name>PT3524</name></trkpt>
<trkpt lat="53.312131" lon="06.562161"><ele>20.7</ele><time>2021-05-20T10:46:36Z</time><name>PT3525</name></trkpt>
<trkpt lat="53.312129" lon="06.562141"><ele>20.7</ele><time>2021-05-20T10:46:37Z</time><name>PT3526</name></trkpt>
<trkpt lat="53.312127" lon="06.562121"><ele>20.5</ele><time>2021-05-20T10:46:39Z</time><name>PT3527</name></trkpt>
<trkpt lat="53.312122" lon="06.562101"><ele>20.5</ele><time>2021-05-20T10:46:39Z</time><name>PT3528</name></trkpt>
<trkpt lat="53.312119" lon="06.562081"><ele>20.4</ele><time>2021-05-20T10:46:41Z</time><name>PT3529</name></trkpt>
<trkpt lat="53.312115" lon="06.562061"><ele>20.4</ele><time>2021-05-20T10:46:41Z</time><name>PT3530</name></trkpt>
<trkpt lat="53.312112" lon="06.562042"><ele>20.5</ele><time>2021-05-20T10:46:42Z</time><name>PT3531</name></trkpt>
<trkpt lat="53.312110" lon="06.562024"><ele>20.5</ele><time>2021-05-20T10:46:44Z</time><name>PT3532</name></trkpt>
<trkpt lat="53.312107" lon="06.562004"><ele>20.7</ele><time>2021-05-20T10:46:44Z</time><name>PT3533</name></trkpt>
<trkpt lat="53.312105" lon="06.561986"><ele>20.7</ele><time>2021-05-20T10:46:46Z</time><name>PT3534</name></trkpt>
<trkpt lat="53.312103" lon="06.561970"><ele>20.8</ele><time>2021-05-20T10:46:46Z</time><name>PT3535</name></trkpt>
<trkpt lat="53.312102" lon="06.561955"><ele>20.7</ele><time>2021-05-20T10:46:47Z</time><name>PT3536</name></trkpt>
<trkpt lat="53.312100" lon="06.561939"><ele>20.6</ele><time>2021-05-20T10:46:49Z</time><name>PT3537</name></trkpt>
<trkpt lat="53.312096" lon="06.561921"><ele>20.8</ele><time>2021-05-20T10:46:49Z</time><name>PT3538</name></trkpt>
<trkpt lat="53.312093" lon="06.561903"><ele>20.5</ele><time>2021-05-20T10:46:50Z</time><name>PT3539</name></trkpt>
<trkpt lat="53.312091" lon="06.561886"><ele>20.6</ele><time>2021-05-20T10:46:52Z</time><name>PT3540</name></trkpt>
<trkpt lat="53.312090" lon="06.561869"><ele>20.5</ele><time>2021-05-20T10:46:52Z</time><name>PT3541</name></trkpt>
<trkpt lat="53.312089" lon="06.561852"><ele>20.6</ele><time>2021-05-20T10:46:54Z</time><name>PT3542</name></trkpt>
<trkpt lat="53.312088" lon="06.561836"><ele>20.6</ele><time>2021-05-20T10:46:54Z</time><name>PT3543</name></trkpt>
<trkpt lat="53.312086" lon="06.561825"><ele>20.7</ele><time>2021-05-20T10:46:56Z</time><name>PT3544</name></trkpt>
<trkpt lat="53.312083" lon="06.561811"><ele>20.7</ele><time>2021-05-20T10:46:56Z</time><name>PT3545</name></trkpt>
<trkpt lat="53.312082" lon="06.561792"><ele>20.6</ele><time>2021-05-20T10:46:57Z</time><name>PT3546</name></trkpt>
<trkpt lat="53.312079" lon="06.561776"><ele>20.5</ele><time>2021-05-20T10:46:59Z</time><name>PT3547</name></trkpt>
<trkpt lat="53.312077" lon="06.561760"><ele>20.6</ele><time>2021-05-20T10:46:59Z</time><name>PT3548</name></trkpt>
<trkpt lat="53.312077" lon="06.561744"><ele>20.5</ele><time>2021-05-20T10:47:00Z</time><name>PT3549</name></trkpt>
<trkpt lat="53.312077" lon="06.561722"><ele>20.6</ele><time>2021-05-20T10:47:02Z</time><name>PT3550</name></trkpt>
<trkpt lat="53.312077" lon="06.561703"><ele>20.7</ele><time>2021-05-20T10:47:02Z</time><name>PT3551</name></trkpt>
<trkpt lat="53.312075" lon="06.561685"><ele>20.6</ele><time>2021-05-20T10:47:03Z</time><name>PT3552</name></trkpt>
<trkpt lat="53.312073" lon="06.561667"><ele>20.5</ele><time>2021-05-20T10:47:05Z</time><name>PT3553</name></trkpt>
<trkpt lat="53.312069" lon="06.561648"><ele>20.4</ele><time>2021-05-20T10:47:05Z</time><name>PT3554</name></trkpt>
<trkpt lat="53.312065" lon="06.561629"><ele>20.3</ele><time>2021-05-20T10:47:06Z</time><name>PT3555</name></trkpt>
<trkpt lat="53.312062" lon="06.561610"><ele>20.5</ele><time>2021-05-20T10:47:08Z</time><name>PT3556</name></trkpt>
<trkpt lat="53.312060" lon="06.561592"><ele>20.6</ele><time>2021-05-20T10:47:08Z</time><name>PT3557</name></trkpt>
<trkpt lat="53.312058" lon="06.561575"><ele>20.9</ele><time>2021-05-20T10:47:09Z</time><name>PT3558</name></trkpt>
<trkpt lat="53.312057" lon="06.561558"><ele>21</ele><time>2021-05-20T10:47:11Z</time><name>PT3559</name></trkpt>
<trkpt lat="53.312056" lon="06.561539"><ele>21</ele><time>2021-05-20T10:47:11Z</time><name>PT3560</name></trkpt>
<trkpt lat="53.312053" lon="06.561516"><ele>20.7</ele><time>2021-05-20T10:47:13Z</time><name>PT3561</name></trkpt>
<trkpt lat="53.312050" lon="06.561497"><ele>20.6</ele><time>2021-05-20T10:47:13Z</time><name>PT3562</name></trkpt>
<trkpt lat="53.312047" lon="06.561478"><ele>20.3</ele><time>2021-05-20T10:47:14Z</time><name>PT3563</name></trkpt>
<trkpt lat="53.312044" lon="06.561461"><ele>20.3</ele><time>2021-05-20T10:47:16Z</time><name>PT3564</name></trkpt>
<trkpt lat="53.312041" lon="06.561443"><ele>20.3</ele><time>2021-05-20T10:47:16Z</time><name>PT3565</name></trkpt>
<trkpt lat="53.312038" lon="06.561426"><ele>20.5</ele><time>2021-05-20T10:47:17Z</time><name>PT3566</name></trkpt>
<trkpt lat="53.312037" lon="06.561410"><ele>20.6</ele><time>2021-05-20T10:47:19Z</time><name>PT3567</name></trkpt>
<trkpt lat="53.312036" lon="06.561392"><ele>20.5</ele><time>2021-05-20T10:47:19Z</time><name>PT3568</name></trkpt>
<trkpt lat="53.312035" lon="06.561372"><ele>20.4</ele><time>2021-05-20T10:47:20Z</time><name>PT3569</name></trkpt>
<trkpt lat="53.312032" lon="06.561350"><ele>20.3</ele><time>2021-05-20T10:47:22Z</time><name>PT3570</name></trkpt>
<trkpt lat="53.312029" lon="06.561330"><ele>20.1</ele><time>2021-05-20T10:47:22Z</time><name>PT3571</name></trkpt>
<trkpt lat="53.312025" lon="06.561312"><ele>20.2</ele><time>2021-05-20T10:47:23Z</time><name>PT3572</name></trkpt>
<trkpt lat="53.312023" lon="06.561293"><ele>20.1</ele><time>2021-05-20T10:47:25Z</time><name>PT3573</name></trkpt>
<trkpt lat="53.312020" lon="06.561275"><ele>20.2</ele><time>2021-05-20T10:47:25Z</time><name>PT3574</name></trkpt>
<trkpt lat="53.312016" lon="06.561256"><ele>20.2</ele><time>2021-05-20T10:47:27Z</time><name>PT3575</name></trkpt>
<trkpt lat="53.312014" lon="06.561241"><ele>20.2</ele><time>2021-05-20T10:47:27Z</time><name>PT3576</name></trkpt>
<trkpt lat="53.312013" lon="06.561240"><ele>20.5</ele><time>2021-05-20T10:47:28Z</time><name>PT3577</name></trkpt>
<trkpt lat="53.312012" lon="06.561236"><ele>20.7</ele><time>2021-05-20T10:47:30Z</time><name>PT3578</name></trkpt>
<trkpt lat="53.312012" lon="06.561226"><ele>20.7</ele><time>2021-05-20T10:47:30Z</time><name>PT3579</name></trkpt>
<trkpt lat="53.312010" lon="06.561213"><ele>20.8</ele><time>2021-05-20T10:47:31Z</time><name>PT3580</name></trkpt>
<trkpt lat="53.312008" lon="06.561194"><ele>20.5</ele><time>2021-05-20T10:47:33Z</time><name>PT3581</name></trkpt>
<trkpt lat="53.312004" lon="06.561175"><ele>20.5</ele><time>2021-05-20T10:47:33Z</time><name>PT3582</name></trkpt>
<trkpt lat="53.312001" lon="06.561158"><ele>20.6</ele><time>2021-05-20T10:47:34Z</time><name>PT3583</name></trkpt>
<trkpt lat="53.311997" lon="06.561138"><ele>20.6</ele><time>2021-05-20T10:47:36Z</time><name>PT3584</name></trkpt>
<trkpt lat="53.311995" lon="06.561120"><ele>20.7</ele><time>2021-05-20T10:47:36Z</time><name>PT3585</name></trkpt>
<trkpt lat="53.311993" lon="06.561105"><ele>20.5</ele><time>2021-05-20T10:47:37Z</time><name>PT3586</name></trkpt>
<trkpt lat="53.311992" lon="06.561087"><ele>20.5</ele><time>2021-05-20T10:47:39Z</time><name>PT3587</name></trkpt>
<trkpt lat="53.311990" lon="06.561067"><ele>20.5</ele><time>2021-05-20T10:47:39Z</time><name>PT3588</name></trkpt>
<trkpt lat="53.311988" lon="06.561047"><ele>20.3</ele><time>2021-05-20T10:47:41Z</time><name>PT3589</name></trkpt>
<trkpt lat="53.311987" lon="06.561028"><ele>20.4</ele><time>2021-05-20T10:47:41Z</time><name>PT3590</name></trkpt>
<trkpt lat="53.311985" lon="06.561008"><ele>20.1</ele><time>2021-05-20T10:47:43Z</time><name>PT3591</name></trkpt>
<trkpt lat="53.311983" lon="06.560989"><ele>20.1</ele><time>2021-05-20T10:47:43Z</time><name>PT3592</name></trkpt>
<trkpt lat="53.311982" lon="06.560975"><ele>20.1</ele><time>2021-05-20T10:47:44Z</time><name>PT3593</name></trkpt>
<trkpt lat="53.311977" lon="06.560957"><ele>19.9</ele><time>2021-05-20T10:47:46Z</time><name>PT3594</name></trkpt>
<trkpt lat="53.311973" lon="06.560939"><ele>19.9</ele><time>2021-05-20T10:47:46Z</time><name>PT3595</name></trkpt>
<trkpt lat="53.311971" lon="06.560921"><ele>20.2</ele><time>2021-05-20T10:47:47Z</time><name>PT3596</name></trkpt>
<trkpt lat="53.311971" lon="06.560904"><ele>20.2</ele><time>2021-05-20T10:47:49Z</time><name>PT3597</name></trkpt>
<trkpt lat="53.311972" lon="06.560886"><ele>20.3</ele><time>2021-05-20T10:47:49Z</time><name>PT3598</name></trkpt>
<trkpt lat="53.311972" lon="06.560866"><ele>20.4</ele><time>2021-05-20T10:47:50Z</time><name>PT3599</name></trkpt>
<trkpt lat="53.311969" lon="06.560844"><ele>20.4</ele><time>2021-05-20T10:47:52Z</time><name>PT3600</name></trkpt>
<trkpt lat="53.311968" lon="06.560824"><ele>20.5</ele><time>2021-05-20T10:47:52Z</time><name>PT3601</name></trkpt>
<trkpt lat="53.311967" lon="06.560805"><ele>20.4</ele><time>2021-05-20T10:47:53Z</time><name>PT3602</name></trkpt>
<trkpt lat="53.311964" lon="06.560785"><ele>20.3</ele><time>2021-05-20T10:47:55Z</time><name>PT3603</name></trkpt>
<trkpt lat="53.311962" lon="06.560765"><ele>20.1</ele><time>2021-05-20T10:47:55Z</time><name>PT3604</name></trkpt>
<trkpt lat="53.311958" lon="06.560745"><ele>19.8</ele><time>2021-05-20T10:47:56Z</time><name>PT3605</name></trkpt>
<trkpt lat="53.311955" lon="06.560726"><ele>19.8</ele><time>2021-05-20T10:47:58Z</time><name>PT3606</name></trkpt>
<trkpt lat="53.311952" lon="06.560707"><ele>19.9</ele><time>2021-05-20T10:47:58Z</time><name>PT3607</name></trkpt>
<trkpt lat="53.311950" lon="06.560691"><ele>20</ele><time>2021-05-20T10:47:59Z</time><name>PT3608</name></trkpt>
<trkpt lat="53.311948" lon="06.560677"><ele>20.1</ele><time>2021-05-20T10:48:01Z</time><name>PT3609</name></trkpt>
<trkpt lat="53.311946" lon="06.560660"><ele>20.2</ele><time>2021-05-20T10:48:01Z</time><name>PT3610</name></trkpt>
<trkpt lat="53.311944" lon="06.560642"><ele>20.2</ele><time>2021-05-20T10:48:03Z</time><name>PT3611</name></trkpt>
<trkpt lat="53.311943" lon="06.560625"><ele>20.3</ele><time>2021-05-20T10:48:03Z</time><name>PT3612</name></trkpt>
<trkpt lat="53.311940" lon="06.560609"><ele>20.5</ele><time>2021-05-20T10:48:04Z</time><name>PT3613</name></trkpt>
<trkpt lat="53.311936" lon="06.560594"><ele>20.5</ele><time>2021-05-20T10:48:06Z</time><name>PT3614</name></trkpt>
<trkpt lat="53.311933" lon="06.560578"><ele>20.5</ele><time>2021-05-20T10:48:06Z</time><name>PT3615</name></trkpt>
<trkpt lat="53.311931" lon="06.560561"><ele>20.5</ele><time>2021-05-20T10:48:07Z</time><name>PT3616</name></trkpt>
<trkpt lat="53.311929" lon="06.560544"><ele>20.5</ele><time>2021-05-20T10:48:09Z</time><name>PT3617</name></trkpt>
<trkpt lat="53.311928" lon="06.560525"><ele>20.7</ele><time>2021-05-20T10:48:09Z</time><name>PT3618</name></trkpt>
<trkpt lat="53.311925" lon="06.560507"><ele>21</ele><time>2021-05-20T10:48:11Z</time><name>PT3619</name></trkpt>
<trkpt lat="53.311923" lon="06.560489"><ele>21</ele><time>2021-05-20T10:48:11Z</time><name>PT3620</name></trkpt>
<trkpt lat="53.311920" lon="06.560470"><ele>21</ele><time>2021-05-20T10:48:13Z</time><name>PT3621</name></trkpt>
<trkpt lat="53.311916" lon="06.560454"><ele>20.8</ele><time>2021-05-20T10:48:13Z</time><name>PT3622</name></trkpt>
<trkpt lat="53.311915" lon="06.560438"><ele>20.6</ele><time>2021-05-20T10:48:14Z</time><name>PT3623</name></trkpt>
<trkpt lat="53.311915" lon="06.560426"><ele>20.7</ele><time>2021-05-20T10:48:16Z</time><name>PT3624</name></trkpt>
<trkpt lat="53.311914" lon="06.560415"><ele>20.7</ele><time>2021-05-20T10:48:16Z</time><name>PT3625</name></trkpt>
<trkpt lat="53.311915" lon="06.560406"><ele>21.1</ele><time>2021-05-20T10:48:17Z</time><name>PT3626</name></trkpt>
<trkpt lat="53.311917" lon="06.560397"><ele>21.5</ele><time>2021-05-20T10:48:19Z</time><name>PT3627</name></trkpt>
<trkpt lat="53.311918" lon="06.560390"><ele>21.5</ele><time>2021-05-20T10:48:19Z</time><name>PT3628</name></trkpt>
<trkpt lat="53.311922" lon="06.560389"><ele>21.6</ele><time>2021-05-20T10:48:20Z</time><name>PT3629</name></trkpt>
<trkpt lat="53.311924" lon="06.560391"><ele>21.7</ele><time>2021-05-20T10:48:22Z</time><name>PT3630</name></trkpt>
<trkpt lat="53.311925" lon="06.560393"><ele>21.6</ele><time>2021-05-20T10:48:22Z</time><name>PT3631</name></trkpt>
<trkpt lat="53.311926" lon="06.560396"><ele>21.7</ele><time>2021-05-20T10:48:23Z</time><name>PT3632</name></trkpt>
<trkpt lat="53.311928" lon="06.560391"><ele>21.8</ele><time>2021-05-20T10:48:25Z</time><name>PT3633</name></trkpt>
<trkpt lat="53.311931" lon="06.560393"><ele>21.8</ele><time>2021-05-20T10:48:31Z</time><name>PT3634</name></trkpt>
<trkpt lat="53.311943" lon="06.560385"><ele>21.8</ele><time>2021-05-20T10:48:33Z</time><name>PT3635</name></trkpt>
<trkpt lat="53.311952" lon="06.560380"><ele>21.7</ele><time>2021-05-20T10:48:33Z</time><name>PT3636</name></trkpt>
<trkpt lat="53.311965" lon="06.560379"><ele>21.7</ele><time>2021-05-20T10:48:34Z</time><name>PT3637</name></trkpt>
<trkpt lat="53.311974" lon="06.560379"><ele>21.8</ele><time>2021-05-20T10:48:36Z</time><name>PT3638</name></trkpt>
<trkpt lat="53.311984" lon="06.560376"><ele>21.9</ele><time>2021-05-20T10:48:36Z</time><name>PT3639</name></trkpt>
<trkpt lat="53.311994" lon="06.560377"><ele>22</ele><time>2021-05-20T10:48:37Z</time><name>PT3640</name></trkpt>
<trkpt lat="53.312007" lon="06.560375"><ele>22.1</ele><time>2021-05-20T10:48:39Z</time><name>PT3641</name></trkpt>
<trkpt lat="53.312019" lon="06.560375"><ele>22.1</ele><time>2021-05-20T10:48:39Z</time><name>PT3642</name></trkpt>
<trkpt lat="53.312032" lon="06.560377"><ele>22</ele><time>2021-05-20T10:48:41Z</time><name>PT3643</name></trkpt>
<trkpt lat="53.312043" lon="06.560378"><ele>22.1</ele><time>2021-05-20T10:48:41Z</time><name>PT3644</name></trkpt>
<trkpt lat="53.312053" lon="06.560378"><ele>22.3</ele><time>2021-05-20T10:48:42Z</time><name>PT3645</name></trkpt>
<trkpt lat="53.312062" lon="06.560380"><ele>22.1</ele><time>2021-05-20T10:48:44Z</time><name>PT3646</name></trkpt>
<trkpt lat="53.312073" lon="06.560381"><ele>22.2</ele><time>2021-05-20T10:48:44Z</time><name>PT3647</name></trkpt>
<trkpt lat="53.312083" lon="06.560383"><ele>22</ele><time>2021-05-20T10:48:46Z</time><name>PT3648</name></trkpt>
<trkpt lat="53.312094" lon="06.560384"><ele>22</ele><time>2021-05-20T10:48:46Z</time><name>PT3649</name></trkpt>
<trkpt lat="53.312105" lon="06.560383"><ele>22.1</ele><time>2021-05-20T10:48:48Z</time><name>PT3650</name></trkpt>
<trkpt lat="53.312116" lon="06.560382"><ele>22.3</ele><time>2021-05-20T10:48:48Z</time><name>PT3651</name></trkpt>
<trkpt lat="53.312127" lon="06.560383"><ele>22.3</ele><time>2021-05-20T10:48:49Z</time><name>PT3652</name></trkpt>
<trkpt lat="53.312138" lon="06.560385"><ele>22.2</ele><time>2021-05-20T10:48:51Z</time><name>PT3653</name></trkpt>
<trkpt lat="53.312149" lon="06.560388"><ele>22.2</ele><time>2021-05-20T10:48:51Z</time><name>PT3654</name></trkpt>
<trkpt lat="53.312161" lon="06.560390"><ele>21.9</ele><time>2021-05-20T10:48:53Z</time><name>PT3655</name></trkpt>
<trkpt lat="53.312174" lon="06.560392"><ele>21.9</ele><time>2021-05-20T10:48:53Z</time><name>PT3656</name></trkpt>
<trkpt lat="53.312185" lon="06.560393"><ele>22.2</ele><time>2021-05-20T10:48:54Z</time><name>PT3657</name></trkpt>
<trkpt lat="53.312196" lon="06.560394"><ele>22.1</ele><time>2021-05-20T10:48:56Z</time><name>PT3658</name></trkpt>
<trkpt lat="53.312207" lon="06.560396"><ele>22.1</ele><time>2021-05-20T10:48:56Z</time><name>PT3659</name></trkpt>
<trkpt lat="53.312219" lon="06.560396"><ele>22</ele><time>2021-05-20T10:48:57Z</time><name>PT3660</name></trkpt>
<trkpt lat="53.312231" lon="06.560398"><ele>21.8</ele><time>2021-05-20T10:48:59Z</time><name>PT3661</name></trkpt>
<trkpt lat="53.312242" lon="06.560399"><ele>21.9</ele><time>2021-05-20T10:48:59Z</time><name>PT3662</name></trkpt>
<trkpt lat="53.312253" lon="06.560402"><ele>21.9</ele><time>2021-05-20T10:49:01Z</time><name>PT3663</name></trkpt>
<trkpt lat="53.312265" lon="06.560405"><ele>21.9</ele><time>2021-05-20T10:49:01Z</time><name>PT3664</name></trkpt>
<trkpt lat="53.312277" lon="06.560408"><ele>22.2</ele><time>2021-05-20T10:49:02Z</time><name>PT3665</name></trkpt>
<trkpt lat="53.312289" lon="06.560413"><ele>22.2</ele><time>2021-05-20T10:49:04Z</time><name>PT3666</name></trkpt>
<trkpt lat="53.312301" lon="06.560416"><ele>22.2</ele><time>2021-05-20T10:49:04Z</time><name>PT3667</name></trkpt>
<trkpt lat="53.312313" lon="06.560422"><ele>22</ele><time>2021-05-20T10:49:05Z</time><name>PT3668</name></trkpt>
<trkpt lat="53.312325" lon="06.560424"><ele>22</ele><time>2021-05-20T10:49:07Z</time><name>PT3669</name></trkpt>
<trkpt lat="53.312337" lon="06.560425"><ele>21.9</ele><time>2021-05-20T10:49:07Z</time><name>PT3670</name></trkpt>
<trkpt lat="53.312350" lon="06.560426"><ele>22</ele><time>2021-05-20T10:49:08Z</time><name>PT3671</name></trkpt>
<trkpt lat="53.312363" lon="06.560426"><ele>21.9</ele><time>2021-05-20T10:49:10Z</time><name>PT3672</name></trkpt>
<trkpt lat="53.312375" lon="06.560426"><ele>21.9</ele><time>2021-05-20T10:49:10Z</time><name>PT3673</name></trkpt>
<trkpt lat="53.312385" lon="06.560426"><ele>21.9</ele><time>2021-05-20T10:49:11Z</time><name>PT3674</name></trkpt>
<trkpt lat="53.312394" lon="06.560427"><ele>22.1</ele><time>2021-05-20T10:49:13Z</time><name>PT3675</name></trkpt>
<trkpt lat="53.312398" lon="06.560427"><ele>22.1</ele><time>2021-05-20T10:49:13Z</time><name>PT3676</name></trkpt>
<trkpt lat="53.312398" lon="06.560427"><ele>22.2</ele><time>2021-05-20T10:49:15Z</time><name>PT3677</name></trkpt>
<trkpt lat="53.312400" lon="06.560426"><ele>22.3</ele><time>2021-05-20T10:49:15Z</time><name>PT3678</name></trkpt>
<trkpt lat="53.312402" lon="06.560425"><ele>22.2</ele><time>2021-05-20T10:49:16Z</time><name>PT3679</name></trkpt>
<trkpt lat="53.312405" lon="06.560424"><ele>22</ele><time>2021-05-20T10:49:19Z</time><name>PT3680</name></trkpt>
<trkpt lat="53.312417" lon="06.560427"><ele>22</ele><time>2021-05-20T10:49:21Z</time><name>PT3681</name></trkpt>
<trkpt lat="53.312427" lon="06.560427"><ele>21.9</ele><time>2021-05-20T10:49:21Z</time><name>PT3682</name></trkpt>
<trkpt lat="53.312437" lon="06.560425"><ele>21.9</ele><time>2021-05-20T10:49:22Z</time><name>PT3683</name></trkpt>
<trkpt lat="53.312448" lon="06.560427"><ele>21.9</ele><time>2021-05-20T10:49:24Z</time><name>PT3684</name></trkpt>
<trkpt lat="53.312460" lon="06.560428"><ele>21.8</ele><time>2021-05-20T10:49:24Z</time><name>PT3685</name></trkpt>
<trkpt lat="53.312473" lon="06.560428"><ele>21.9</ele><time>2021-05-20T10:49:25Z</time><name>PT3686</name></trkpt>
<trkpt lat="53.312486" lon="06.560428"><ele>21.9</ele><time>2021-05-20T10:49:27Z</time><name>PT3687</name></trkpt>
<trkpt lat="53.312497" lon="06.560427"><ele>21.9</ele><time>2021-05-20T10:49:27Z</time><name>PT3688</name></trkpt>
<trkpt lat="53.312509" lon="06.560424"><ele>21.9</ele><time>2021-05-20T10:49:28Z</time><name>PT3689</name></trkpt>
<trkpt lat="53.312519" lon="06.560424"><ele>21.8</ele><time>2021-05-20T10:49:30Z</time><name>PT3690</name></trkpt>
<trkpt lat="53.312530" lon="06.560422"><ele>21.9</ele><time>2021-05-20T10:49:30Z</time><name>PT3691</name></trkpt>
<trkpt lat="53.312540" lon="06.560423"><ele>21.9</ele><time>2021-05-20T10:49:31Z</time><name>PT3692</name></trkpt>
<trkpt lat="53.312551" lon="06.560422"><ele>22.1</ele><time>2021-05-20T10:49:33Z</time><name>PT3693</name></trkpt>
<trkpt lat="53.312562" lon="06.560423"><ele>21.9</ele><time>2021-05-20T10:49:33Z</time><name>PT3694</name></trkpt>
<trkpt lat="53.312573" lon="06.560423"><ele>22</ele><time>2021-05-20T10:49:34Z</time><name>PT3695</name></trkpt>
<trkpt lat="53.312584" lon="06.560422"><ele>21.9</ele><time>2021-05-20T10:49:36Z</time><name>PT3696</name></trkpt>
<trkpt lat="53.312596" lon="06.560420"><ele>21.9</ele><time>2021-05-20T10:49:36Z</time><name>PT3697</name></trkpt>
<trkpt lat="53.312608" lon="06.560417"><ele>21.8</ele><time>2021-05-20T10:49:37Z</time><name>PT3698</name></trkpt>
<trkpt lat="53.312620" lon="06.560416"><ele>21.9</ele><time>2021-05-20T10:49:39Z</time><name>PT3699</name></trkpt>
<trkpt lat="53.312631" lon="06.560416"><ele>21.8</ele><time>2021-05-20T10:49:39Z</time><name>PT3700</name></trkpt>
<trkpt lat="53.312642" lon="06.560416"><ele>21.9</ele><time>2021-05-20T10:49:40Z</time><name>PT3701</name></trkpt>
<trkpt lat="53.312654" lon="06.560415"><ele>22.1</ele><time>2021-05-20T10:49:42Z</time><name>PT3702</name></trkpt>
<trkpt lat="53.312666" lon="06.560417"><ele>22.1</ele><time>2021-05-20T10:49:42Z</time><name>PT3703</name></trkpt>
<trkpt lat="53.312678" lon="06.560420"><ele>22.1</ele><time>2021-05-20T10:49:43Z</time><name>PT3704</name></trkpt>
<trkpt lat="53.312692" lon="06.560422"><ele>22</ele><time>2021-05-20T10:49:45Z</time><name>PT3705</name></trkpt>
<trkpt lat="53.312704" lon="06.560423"><ele>22</ele><time>2021-05-20T10:49:45Z</time><name>PT3706</name></trkpt>
<trkpt lat="53.312713" lon="06.560422"><ele>22</ele><time>2021-05-20T10:49:46Z</time><name>PT3707</name></trkpt>
<trkpt lat="53.312723" lon="06.560421"><ele>21.9</ele><time>2021-05-20T10:49:48Z</time><name>PT3708</name></trkpt>
<trkpt lat="53.312734" lon="06.560419"><ele>21.9</ele><time>2021-05-20T10:49:48Z</time><name>PT3709</name></trkpt>
<trkpt lat="53.312745" lon="06.560418"><ele>22</ele><time>2021-05-20T10:49:49Z</time><name>PT3710</name></trkpt>
<trkpt lat="53.312755" lon="06.560418"><ele>22</ele><time>2021-05-20T10:49:51Z</time><name>PT3711</name></trkpt>
<trkpt lat="53.312759" lon="06.560417"><ele>22</ele><time>2021-05-20T10:49:51Z</time><name>PT3712</name></trkpt>
<trkpt lat="53.312765" lon="06.560416"><ele>21.8</ele><time>2021-05-20T10:49:52Z</time><name>PT3713</name></trkpt>
<trkpt lat="53.312775" lon="06.560417"><ele>21.5</ele><time>2021-05-20T10:49:54Z</time><name>PT3714</name></trkpt>
<trkpt lat="53.312787" lon="06.560420"><ele>21.8</ele><time>2021-05-20T10:49:54Z</time><name>PT3715</name></trkpt>
<trkpt lat="53.312799" lon="06.560420"><ele>21.8</ele><time>2021-05-20T10:49:55Z</time><name>PT3716</name></trkpt>
<trkpt lat="53.312812" lon="06.560421"><ele>21.9</ele><time>2021-05-20T10:49:57Z</time><name>PT3717</name></trkpt>
<trkpt lat="53.312825" lon="06.560421"><ele>22.3</ele><time>2021-05-20T10:49:57Z</time><name>PT3718</name></trkpt>
<trkpt lat="53.312838" lon="06.560419"><ele>22.3</ele><time>2021-05-20T10:49:58Z</time><name>PT3719</name></trkpt>
<trkpt lat="53.312850" lon="06.560418"><ele>22.3</ele><time>2021-05-20T10:50:00Z</time><name>PT3720</name></trkpt>
<trkpt lat="53.312860" lon="06.560419"><ele>22.3</ele><time>2021-05-20T10:50:00Z</time><name>PT3721</name></trkpt>
<trkpt lat="53.312869" lon="06.560422"><ele>22.1</ele><time>2021-05-20T10:50:01Z</time><name>PT3722</name></trkpt>
<trkpt lat="53.312880" lon="06.560424"><ele>22.1</ele><time>2021-05-20T10:50:03Z</time><name>PT3723</name></trkpt>
<trkpt lat="53.312892" lon="06.560425"><ele>22</ele><time>2021-05-20T10:50:03Z</time><name>PT3724</name></trkpt>
<trkpt lat="53.312904" lon="06.560427"><ele>21.9</ele><time>2021-05-20T10:50:04Z</time><name>PT3725</name></trkpt>
<trkpt lat="53.312910" lon="06.560430"><ele>21.9</ele><time>2021-05-20T10:50:06Z</time><name>PT3726</name></trkpt>
<trkpt lat="53.312917" lon="06.560428"><ele>22</ele><time>2021-05-20T10:50:06Z</time><name>PT3727</name></trkpt>
<trkpt lat="53.312926" lon="06.560428"><ele>21.9</ele><time>2021-05-20T10:50:07Z</time><name>PT3728</name></trkpt>
<trkpt lat="53.312937" lon="06.560431"><ele>21.8</ele><time>2021-05-20T10:50:09Z</time><name>PT3729</name></trkpt>
<trkpt lat="53.312949" lon="06.560435"><ele>21.8</ele><time>2021-05-20T10:50:09Z</time><name>PT3730</name></trkpt>
<trkpt lat="53.312959" lon="06.560438"><ele>21.7</ele><time>2021-05-20T10:50:10Z</time><name>PT3731</name></trkpt>
<trkpt lat="53.312964" lon="06.560439"><ele>21.8</ele><time>2021-05-20T10:50:12Z</time><name>PT3732</name></trkpt>
<trkpt lat="53.312963" lon="06.560436"><ele>21.9</ele><time>2021-05-20T10:50:12Z</time><name>PT3733</name></trkpt>
<trkpt lat="53.312963" lon="06.560434"><ele>22.1</ele><time>2021-05-20T10:50:13Z</time><name>PT3734</name></trkpt>
<trkpt lat="53.312968" lon="06.560439"><ele>22.2</ele><time>2021-05-20T10:50:15Z</time><name>PT3735</name></trkpt>
<trkpt lat="53.312977" lon="06.560442"><ele>22.3</ele><time>2021-05-20T10:50:15Z</time><name>PT3736</name></trkpt>
<trkpt lat="53.312988" lon="06.560443"><ele>22.2</ele><time>2021-05-20T10:50:17Z</time><name>PT3737</name></trkpt>
<trkpt lat="53.312999" lon="06.560445"><ele>22</ele><time>2021-05-20T10:50:17Z</time><name>PT3738</name></trkpt>
<trkpt lat="53.313012" lon="06.560445"><ele>22.1</ele><time>2021-05-20T10:50:18Z</time><name>PT3739</name></trkpt>
<trkpt lat="53.313025" lon="06.560447"><ele>22</ele><time>2021-05-20T10:50:20Z</time><name>PT3740</name></trkpt>
<trkpt lat="53.313037" lon="06.560448"><ele>22</ele><time>2021-05-20T10:50:20Z</time><name>PT3741</name></trkpt>
<trkpt lat="53.313047" lon="06.560449"><ele>22.3</ele><time>2021-05-20T10:50:21Z</time><name>PT3742</name></trkpt>
<trkpt lat="53.313058" lon="06.560453"><ele>22.2</ele><time>2021-05-20T10:50:23Z</time><name>PT3743</name></trkpt>
<trkpt lat="53.313070" lon="06.560457"><ele>22.1</ele><time>2021-05-20T10:50:23Z</time><name>PT3744</name></trkpt>
<trkpt lat="53.313081" lon="06.560460"><ele>22</ele><time>2021-05-20T10:50:25Z</time><name>PT3745</name></trkpt>
<trkpt lat="53.313093" lon="06.560461"><ele>22.1</ele><time>2021-05-20T10:50:25Z</time><name>PT3746</name></trkpt>
<trkpt lat="53.313105" lon="06.560462"><ele>22</ele><time>2021-05-20T10:50:26Z</time><name>PT3747</name></trkpt>
<trkpt lat="53.313119" lon="06.560463"><ele>21.9</ele><time>2021-05-20T10:50:28Z</time><name>PT3748</name></trkpt>
<trkpt lat="53.313130" lon="06.560465"><ele>22</ele><time>2021-05-20T10:50:28Z</time><name>PT3749</name></trkpt>
<trkpt lat="53.313141" lon="06.560468"><ele>21.9</ele><time>2021-05-20T10:50:29Z</time><name>PT3750</name></trkpt>
<trkpt lat="53.313153" lon="06.560471"><ele>21.8</ele><time>2021-05-20T10:50:31Z</time><name>PT3751</name></trkpt>
<trkpt lat="53.313164" lon="06.560476"><ele>21.6</ele><time>2021-05-20T10:50:31Z</time><name>PT3752</name></trkpt>
<trkpt lat="53.313176" lon="06.560479"><ele>21.6</ele><time>2021-05-20T10:50:32Z</time><name>PT3753</name></trkpt>
<trkpt lat="53.313188" lon="06.560482"><ele>21.6</ele><time>2021-05-20T10:50:34Z</time><name>PT3754</name></trkpt>
<trkpt lat="53.313200" lon="06.560486"><ele>21.5</ele><time>2021-05-20T10:50:34Z</time><name>PT3755</name></trkpt>
<trkpt lat="53.313212" lon="06.560486"><ele>21.5</ele><time>2021-05-20T10:50:35Z</time><name>PT3756</name></trkpt>
<trkpt lat="53.313223" lon="06.560486"><ele>21.6</ele><time>2021-05-20T10:50:37Z</time><name>PT3757</name></trkpt>
<trkpt lat="53.313233" lon="06.560486"><ele>21.5</ele><time>2021-05-20T10:50:37Z</time><name>PT3758</name></trkpt>
<trkpt lat="53.313243" lon="06.560489"><ele>21.5</ele><time>2021-05-20T10:50:38Z</time><name>PT3759</name></trkpt>
<trkpt lat="53.313254" lon="06.560490"><ele>21.7</ele><time>2021-05-20T10:50:40Z</time><name>PT3760</name></trkpt>
<trkpt lat="53.313266" lon="06.560493"><ele>21.6</ele><time>2021-05-20T10:50:40Z</time><name>PT3761</name></trkpt>
<trkpt lat="53.313278" lon="06.560493"><ele>21.6</ele><time>2021-05-20T10:50:41Z</time><name>PT3762</name></trkpt>
<trkpt lat="53.313290" lon="06.560494"><ele>21.8</ele><time>2021-05-20T10:50:43Z</time><name>PT3763</name></trkpt>
<trkpt lat="53.313303" lon="06.560493"><ele>21.6</ele><time>2021-05-20T10:50:43Z</time><name>PT3764</name></trkpt>
<trkpt lat="53.313317" lon="06.560492"><ele>21.6</ele><time>2021-05-20T10:50:44Z</time><name>PT3765</name></trkpt>
<trkpt lat="53.313327" lon="06.560493"><ele>21.8</ele><time>2021-05-20T10:50:46Z</time><name>PT3766</name></trkpt>
<trkpt lat="53.313339" lon="06.560494"><ele>21.8</ele><time>2021-05-20T10:50:46Z</time><name>PT3767</name></trkpt>
<trkpt lat="53.313350" lon="06.560496"><ele>21.9</ele><time>2021-05-20T10:50:47Z</time><name>PT3768</name></trkpt>
<trkpt lat="53.313362" lon="06.560499"><ele>21.9</ele><time>2021-05-20T10:50:49Z</time><name>PT3769</name></trkpt>
<trkpt lat="53.313374" lon="06.560502"><ele>21.9</ele><time>2021-05-20T10:50:49Z</time><name>PT3770</name></trkpt>
<trkpt lat="53.313385" lon="06.560506"><ele>21.8</ele><time>2021-05-20T10:50:50Z</time><name>PT3771</name></trkpt>
<trkpt lat="53.313397" lon="06.560508"><ele>21.8</ele><time>2021-05-20T10:50:52Z</time><name>PT3772</name></trkpt>
<trkpt lat="53.313409" lon="06.560510"><ele>21.8</ele><time>2021-05-20T10:50:52Z</time><name>PT3773</name></trkpt>
<trkpt lat="53.313420" lon="06.560511"><ele>21.8</ele><time>2021-05-20T10:50:53Z</time><name>PT3774</name></trkpt>
<trkpt lat="53.313431" lon="06.560513"><ele>21.7</ele><time>2021-05-20T10:50:55Z</time><name>PT3775</name></trkpt>
<trkpt lat="53.313440" lon="06.560515"><ele>21.9</ele><time>2021-05-20T10:50:55Z</time><name>PT3776</name></trkpt>
<trkpt lat="53.313450" lon="06.560516"><ele>21.8</ele><time>2021-05-20T10:50:56Z</time><name>PT3777</name></trkpt>
<trkpt lat="53.313460" lon="06.560516"><ele>21.9</ele><time>2021-05-20T10:50:58Z</time><name>PT3778</name></trkpt>
<trkpt lat="53.313468" lon="06.560517"><ele>22.1</ele><time>2021-05-20T10:50:58Z</time><name>PT3779</name></trkpt>
<trkpt lat="53.313477" lon="06.560520"><ele>22.2</ele><time>2021-05-20T10:50:59Z</time><name>PT3780</name></trkpt>
<trkpt lat="53.313484" lon="06.560521"><ele>22.2</ele><time>2021-05-20T10:51:01Z</time><name>PT3781</name></trkpt>
<trkpt lat="53.313489" lon="06.560522"><ele>22</ele><time>2021-05-20T10:51:01Z</time><name>PT3782</name></trkpt>
<trkpt lat="53.313492" lon="06.560523"><ele>21.9</ele><time>2021-05-20T10:51:02Z</time><name>PT3783</name></trkpt>
<trkpt lat="53.313493" lon="06.560521"><ele>21.9</ele><time>2021-05-20T10:51:04Z</time><name>PT3784</name></trkpt>
<trkpt lat="53.313494" lon="06.560520"><ele>21.9</ele><time>2021-05-20T10:51:04Z</time><name>PT3785</name></trkpt>
<trkpt lat="53.313497" lon="06.560518"><ele>22.1</ele><time>2021-05-20T10:51:05Z</time><name>PT3786</name></trkpt>
<trkpt lat="53.313497" lon="06.560518"><ele>22.3</ele><time>2021-05-20T10:51:27Z</time><name>PT3787</name></trkpt>
<trkpt lat="53.313503" lon="06.560515"><ele>22.3</ele><time>2021-05-20T10:51:27Z</time><name>PT3788</name></trkpt>
<trkpt lat="53.313503" lon="06.560522"><ele>22.4</ele><time>2021-05-20T10:53:46Z</time><name>PT3789</name></trkpt>
<trkpt lat="53.313503" lon="06.560524"><ele>22.4</ele><time>2021-05-20T10:53:47Z</time><name>PT3790</name></trkpt>
<trkpt lat="53.313501" lon="06.560526"><ele>22.4</ele><time>2021-05-20T10:57:25Z</time><name>PT3791</name></trkpt>
<trkpt lat="53.313503" lon="06.560529"><ele>22.3</ele><time>2021-05-20T10:57:27Z</time><name>PT3792</name></trkpt>
<trkpt lat="53.313510" lon="06.560531"><ele>22.4</ele><time>2021-05-20T10:57:27Z</time><name>PT3793</name></trkpt>
<trkpt lat="53.313513" lon="06.560536"><ele>22.4</ele><time>2021-05-20T10:57:28Z</time><name>PT3794</name></trkpt>
<trkpt lat="53.313516" lon="06.560540"><ele>22.7</ele><time>2021-05-20T10:57:30Z</time><name>PT3795</name></trkpt>
<trkpt lat="53.313515" lon="06.560540"><ele>22.8</ele><time>2021-05-20T10:57:30Z</time><name>PT3796</name></trkpt>
<trkpt lat="53.313512" lon="06.560542"><ele>22.9</ele><time>2021-05-20T10:57:31Z</time><name>PT3797</name></trkpt>
<trkpt lat="53.313511" lon="06.560543"><ele>22.7</ele><time>2021-05-20T10:57:33Z</time><name>PT3798</name></trkpt>
<trkpt lat="53.313511" lon="06.560541"><ele>22.4</ele><time>2021-05-20T10:57:33Z</time><name>PT3799</name></trkpt>
<trkpt lat="53.313520" lon="06.560546"><ele>22.4</ele><time>2021-05-20T10:58:20Z</time><name>PT3800</name></trkpt>
<trkpt lat="53.313533" lon="06.560551"><ele>22.7</ele><time>2021-05-20T10:58:20Z</time><name>PT3801</name></trkpt>
<trkpt lat="53.313544" lon="06.560554"><ele>23</ele><time>2021-05-20T10:58:21Z</time><name>PT3802</name></trkpt>
<trkpt lat="53.313562" lon="06.560550"><ele>23.1</ele><time>2021-05-20T10:58:23Z</time><name>PT3803</name></trkpt>
<trkpt lat="53.313574" lon="06.560551"><ele>23.1</ele><time>2021-05-20T10:58:23Z</time><name>PT3804</name></trkpt>
<trkpt lat="53.313587" lon="06.560552"><ele>23.2</ele><time>2021-05-20T10:58:24Z</time><name>PT3805</name></trkpt>
<trkpt lat="53.313599" lon="06.560551"><ele>22.9</ele><time>2021-05-20T10:58:26Z</time><name>PT3806</name></trkpt>
<trkpt lat="53.313611" lon="06.560552"><ele>23</ele><time>2021-05-20T10:58:26Z</time><name>PT3807</name></trkpt>
<trkpt lat="53.313623" lon="06.560552"><ele>22.9</ele><time>2021-05-20T10:58:28Z</time><name>PT3808</name></trkpt>
<trkpt lat="53.313633" lon="06.560551"><ele>22.9</ele><time>2021-05-20T10:58:28Z</time><name>PT3809</name></trkpt>
<trkpt lat="53.313643" lon="06.560546"><ele>22.9</ele><time>2021-05-20T10:58:29Z</time><name>PT3810</name></trkpt>
<trkpt lat="53.313652" lon="06.560547"><ele>22.7</ele><time>2021-05-20T10:58:31Z</time><name>PT3811</name></trkpt>
<trkpt lat="53.313665" lon="06.560548"><ele>22.6</ele><time>2021-05-20T10:58:31Z</time><name>PT3812</name></trkpt>
<trkpt lat="53.313678" lon="06.560549"><ele>22.8</ele><time>2021-05-20T10:58:33Z</time><name>PT3813</name></trkpt>
<trkpt lat="53.313692" lon="06.560551"><ele>22.7</ele><time>2021-05-20T10:58:33Z</time><name>PT3814</name></trkpt>
<trkpt lat="53.313706" lon="06.560552"><ele>22.6</ele><time>2021-05-20T10:58:35Z</time><name>PT3815</name></trkpt>
<trkpt lat="53.313719" lon="06.560554"><ele>22.7</ele><time>2021-05-20T10:58:35Z</time><name>PT3816</name></trkpt>
<trkpt lat="53.313733" lon="06.560557"><ele>22.7</ele><time>2021-05-20T10:58:36Z</time><name>PT3817</name></trkpt>
<trkpt lat="53.313746" lon="06.560560"><ele>22.9</ele><time>2021-05-20T10:58:38Z</time><name>PT3818</name></trkpt>
<trkpt lat="53.313758" lon="06.560562"><ele>22.9</ele><time>2021-05-20T10:58:38Z</time><name>PT3819</name></trkpt>
<trkpt lat="53.313771" lon="06.560562"><ele>22.7</ele><time>2021-05-20T10:58:40Z</time><name>PT3820</name></trkpt>
<trkpt lat="53.313783" lon="06.560563"><ele>22.8</ele><time>2021-05-20T10:58:40Z</time><name>PT3821</name></trkpt>
<trkpt lat="53.313795" lon="06.560564"><ele>22.6</ele><time>2021-05-20T10:58:42Z</time><name>PT3822</name></trkpt>
<trkpt lat="53.313807" lon="06.560564"><ele>22.6</ele><time>2021-05-20T10:58:42Z</time><name>PT3823</name></trkpt>
<trkpt lat="53.313819" lon="06.560564"><ele>22.9</ele><time>2021-05-20T10:58:43Z</time><name>PT3824</name></trkpt>
<trkpt lat="53.313831" lon="06.560565"><ele>23.1</ele><time>2021-05-20T10:58:45Z</time><name>PT3825</name></trkpt>
<trkpt lat="53.313844" lon="06.560564"><ele>23</ele><time>2021-05-20T10:58:45Z</time><name>PT3826</name></trkpt>
<trkpt lat="53.313857" lon="06.560565"><ele>23</ele><time>2021-05-20T10:58:46Z</time><name>PT3827</name></trkpt>
<trkpt lat="53.313868" lon="06.560565"><ele>22.8</ele><time>2021-05-20T10:58:48Z</time><name>PT3828</name></trkpt>
<trkpt lat="53.313879" lon="06.560564"><ele>22.7</ele><time>2021-05-20T10:58:48Z</time><name>PT3829</name></trkpt>
<trkpt lat="53.313888" lon="06.560564"><ele>22.7</ele><time>2021-05-20T10:58:49Z</time><name>PT3830</name></trkpt>
<trkpt lat="53.313891" lon="06.560566"><ele>22.8</ele><time>2021-05-20T10:58:51Z</time><name>PT3831</name></trkpt>
<trkpt lat="53.313891" lon="06.560566"><ele>22.9</ele><time>2021-05-20T10:58:51Z</time><name>PT3832</name></trkpt>
<trkpt lat="53.313890" lon="06.560566"><ele>22.9</ele><time>2021-05-20T10:58:52Z</time><name>PT3833</name></trkpt>
<trkpt lat="53.313890" lon="06.560565"><ele>23.1</ele><time>2021-05-20T10:58:54Z</time><name>PT3834</name></trkpt>
<trkpt lat="53.313893" lon="06.560564"><ele>22.9</ele><time>2021-05-20T10:58:55Z</time><name>PT3835</name></trkpt>
<trkpt lat="53.313893" lon="06.560562"><ele>22.8</ele><time>2021-05-20T10:58:57Z</time><name>PT3836</name></trkpt>
<trkpt lat="53.313893" lon="06.560560"><ele>22.7</ele><time>2021-05-20T10:58:57Z</time><name>PT3837</name></trkpt>
<trkpt lat="53.313893" lon="06.560562"><ele>22.7</ele><time>2021-05-20T10:59:00Z</time><name>PT3838</name></trkpt>
<trkpt lat="53.313900" lon="06.560559"><ele>22.5</ele><time>2021-05-20T10:59:02Z</time><name>PT3839</name></trkpt>
<trkpt lat="53.313900" lon="06.560558"><ele>22.4</ele><time>2021-05-20T10:59:02Z</time><name>PT3840</name></trkpt>
<trkpt lat="53.313905" lon="06.560560"><ele>22.4</ele><time>2021-05-20T10:59:04Z</time><name>PT3841</name></trkpt>
<trkpt lat="53.313914" lon="06.560563"><ele>22.4</ele><time>2021-05-20T10:59:04Z</time><name>PT3842</name></trkpt>
<trkpt lat="53.313924" lon="06.560564"><ele>22.4</ele><time>2021-05-20T10:59:05Z</time><name>PT3843</name></trkpt>
<trkpt lat="53.313932" lon="06.560563"><ele>22.4</ele><time>2021-05-20T10:59:07Z</time><name>PT3844</name></trkpt>
<trkpt lat="53.313942" lon="06.560564"><ele>22.4</ele><time>2021-05-20T10:59:07Z</time><name>PT3845</name></trkpt>
<trkpt lat="53.313955" lon="06.560566"><ele>22.6</ele><time>2021-05-20T10:59:08Z</time><name>PT3846</name></trkpt>
<trkpt lat="53.313969" lon="06.560567"><ele>22.6</ele><time>2021-05-20T10:59:10Z</time><name>PT3847</name></trkpt>
<trkpt lat="53.313982" lon="06.560571"><ele>22.8</ele><time>2021-05-20T10:59:10Z</time><name>PT3848</name></trkpt>
<trkpt lat="53.313995" lon="06.560571"><ele>22.6</ele><time>2021-05-20T10:59:11Z</time><name>PT3849</name></trkpt>
<trkpt lat="53.314008" lon="06.560570"><ele>22.7</ele><time>2021-05-20T10:59:13Z</time><name>PT3850</name></trkpt>
<trkpt lat="53.314021" lon="06.560570"><ele>22.7</ele><time>2021-05-20T10:59:13Z</time><name>PT3851</name></trkpt>
<trkpt lat="53.314034" lon="06.560574"><ele>22.6</ele><time>2021-05-20T10:59:14Z</time><name>PT3852</name></trkpt>
<trkpt lat="53.314047" lon="06.560578"><ele>22.8</ele><time>2021-05-20T10:59:16Z</time><name>PT3853</name></trkpt>
<trkpt lat="53.314060" lon="06.560583"><ele>22.5</ele><time>2021-05-20T10:59:16Z</time><name>PT3854</name></trkpt>
<trkpt lat="53.314072" lon="06.560588"><ele>22.5</ele><time>2021-05-20T10:59:17Z</time><name>PT3855</name></trkpt>
<trkpt lat="53.314083" lon="06.560594"><ele>22.5</ele><time>2021-05-20T10:59:19Z</time><name>PT3856</name></trkpt>
<trkpt lat="53.314095" lon="06.560601"><ele>22.6</ele><time>2021-05-20T10:59:19Z</time><name>PT3857</name></trkpt>
<trkpt lat="53.314107" lon="06.560610"><ele>22.5</ele><time>2021-05-20T10:59:21Z</time><name>PT3858</name></trkpt>
<trkpt lat="53.314117" lon="06.560620"><ele>22.5</ele><time>2021-05-20T10:59:21Z</time><name>PT3859</name></trkpt>
<trkpt lat="53.314127" lon="06.560631"><ele>22.5</ele><time>2021-05-20T10:59:22Z</time><name>PT3860</name></trkpt>
<trkpt lat="53.314138" lon="06.560641"><ele>22.5</ele><time>2021-05-20T10:59:24Z</time><name>PT3861</name></trkpt>
<trkpt lat="53.314149" lon="06.560652"><ele>22.7</ele><time>2021-05-20T10:59:24Z</time><name>PT3862</name></trkpt>
<trkpt lat="53.314159" lon="06.560663"><ele>22.7</ele><time>2021-05-20T10:59:26Z</time><name>PT3863</name></trkpt>
<trkpt lat="53.314167" lon="06.560671"><ele>22.6</ele><time>2021-05-20T10:59:26Z</time><name>PT3864</name></trkpt>
<trkpt lat="53.314177" lon="06.560681"><ele>22.5</ele><time>2021-05-20T10:59:27Z</time><name>PT3865</name></trkpt>
<trkpt lat="53.314187" lon="06.560689"><ele>22.5</ele><time>2021-05-20T10:59:29Z</time><name>PT3866</name></trkpt>
<trkpt lat="53.314195" lon="06.560695"><ele>22.4</ele><time>2021-05-20T10:59:29Z</time><name>PT3867</name></trkpt>
<trkpt lat="53.314206" lon="06.560703"><ele>22.4</ele><time>2021-05-20T10:59:30Z</time><name>PT3868</name></trkpt>
<trkpt lat="53.314217" lon="06.560711"><ele>22.4</ele><time>2021-05-20T10:59:32Z</time><name>PT3869</name></trkpt>
<trkpt lat="53.314228" lon="06.560722"><ele>22.4</ele><time>2021-05-20T10:59:32Z</time><name>PT3870</name></trkpt>
<trkpt lat="53.314239" lon="06.560731"><ele>22.5</ele><time>2021-05-20T10:59:34Z</time><name>PT3871</name></trkpt>
<trkpt lat="53.314249" lon="06.560738"><ele>22.6</ele><time>2021-05-20T10:59:34Z</time><name>PT3872</name></trkpt>
<trkpt lat="53.314259" lon="06.560745"><ele>22.5</ele><time>2021-05-20T10:59:36Z</time><name>PT3873</name></trkpt>
<trkpt lat="53.314268" lon="06.560754"><ele>22.5</ele><time>2021-05-20T10:59:36Z</time><name>PT3874</name></trkpt>
<trkpt lat="53.314277" lon="06.560762"><ele>22.6</ele><time>2021-05-20T10:59:37Z</time><name>PT3875</name></trkpt>
<trkpt lat="53.314287" lon="06.560769"><ele>22.7</ele><time>2021-05-20T10:59:39Z</time><name>PT3876</name></trkpt>
<trkpt lat="53.314297" lon="06.560776"><ele>22.6</ele><time>2021-05-20T10:59:39Z</time><name>PT3877</name></trkpt>
<trkpt lat="53.314306" lon="06.560783"><ele>22.8</ele><time>2021-05-20T10:59:41Z</time><name>PT3878</name></trkpt>
<trkpt lat="53.314314" lon="06.560786"><ele>22.8</ele><time>2021-05-20T10:59:41Z</time><name>PT3879</name></trkpt>
<trkpt lat="53.314322" lon="06.560787"><ele>23</ele><time>2021-05-20T10:59:43Z</time><name>PT3880</name></trkpt>
<trkpt lat="53.314332" lon="06.560788"><ele>23</ele><time>2021-05-20T10:59:43Z</time><name>PT3881</name></trkpt>
<trkpt lat="53.314338" lon="06.560792"><ele>23.1</ele><time>2021-05-20T10:59:45Z</time><name>PT3882</name></trkpt>
<trkpt lat="53.314343" lon="06.560797"><ele>23.1</ele><time>2021-05-20T10:59:45Z</time><name>PT3883</name></trkpt>
<trkpt lat="53.314346" lon="06.560796"><ele>23.1</ele><time>2021-05-20T10:59:47Z</time><name>PT3884</name></trkpt>
<trkpt lat="53.314348" lon="06.560798"><ele>23</ele><time>2021-05-20T10:59:47Z</time><name>PT3885</name></trkpt>
<trkpt lat="53.314349" lon="06.560795"><ele>23.3</ele><time>2021-05-20T10:59:48Z</time><name>PT3886</name></trkpt>
<trkpt lat="53.314352" lon="06.560795"><ele>23.3</ele><time>2021-05-20T10:59:50Z</time><name>PT3887</name></trkpt>
<trkpt lat="53.314354" lon="06.560797"><ele>23.1</ele><time>2021-05-20T10:59:50Z</time><name>PT3888</name></trkpt>
<trkpt lat="53.314355" lon="06.560800"><ele>23.2</ele><time>2021-05-20T10:59:52Z</time><name>PT3889</name></trkpt>
<trkpt lat="53.314361" lon="06.560815"><ele>23.4</ele><time>2021-05-20T11:00:35Z</time><name>PT3890</name></trkpt>
<trkpt lat="53.314371" lon="06.560819"><ele>23.3</ele><time>2021-05-20T11:00:37Z</time><name>PT3891</name></trkpt>
<trkpt lat="53.314384" lon="06.560825"><ele>23.2</ele><time>2021-05-20T11:00:37Z</time><name>PT3892</name></trkpt>
<trkpt lat="53.314397" lon="06.560830"><ele>23.1</ele><time>2021-05-20T11:00:39Z</time><name>PT3893</name></trkpt>
<trkpt lat="53.314411" lon="06.560831"><ele>23.1</ele><time>2021-05-20T11:00:39Z</time><name>PT3894</name></trkpt>
<trkpt lat="53.314429" lon="06.560829"><ele>23.1</ele><time>2021-05-20T11:00:41Z</time><name>PT3895</name></trkpt>
<trkpt lat="53.314443" lon="06.560833"><ele>23</ele><time>2021-05-20T11:00:41Z</time><name>PT3896</name></trkpt>
<trkpt lat="53.314458" lon="06.560837"><ele>23.1</ele><time>2021-05-20T11:00:42Z</time><name>PT3897</name></trkpt>
<trkpt lat="53.314471" lon="06.560843"><ele>23</ele><time>2021-05-20T11:00:44Z</time><name>PT3898</name></trkpt>
<trkpt lat="53.314483" lon="06.560850"><ele>23</ele><time>2021-05-20T11:00:44Z</time><name>PT3899</name></trkpt>
<trkpt lat="53.314498" lon="06.560856"><ele>22.9</ele><time>2021-05-20T11:00:46Z</time><name>PT3900</name></trkpt>
<trkpt lat="53.314512" lon="06.560863"><ele>22.8</ele><time>2021-05-20T11:00:46Z</time><name>PT3901</name></trkpt>
<trkpt lat="53.314525" lon="06.560868"><ele>22.9</ele><time>2021-05-20T11:00:47Z</time><name>PT3902</name></trkpt>
<trkpt lat="53.314538" lon="06.560872"><ele>23</ele><time>2021-05-20T11:00:49Z</time><name>PT3903</name></trkpt>
<trkpt lat="53.314550" lon="06.560878"><ele>23.1</ele><time>2021-05-20T11:00:49Z</time><name>PT3904</name></trkpt>
<trkpt lat="53.314562" lon="06.560882"><ele>23.1</ele><time>2021-05-20T11:00:51Z</time><name>PT3905</name></trkpt>
<trkpt lat="53.314575" lon="06.560888"><ele>23</ele><time>2021-05-20T11:00:51Z</time><name>PT3906</name></trkpt>
<trkpt lat="53.314586" lon="06.560894"><ele>22.9</ele><time>2021-05-20T11:00:52Z</time><name>PT3907</name></trkpt>
<trkpt lat="53.314597" lon="06.560899"><ele>22.7</ele><time>2021-05-20T11:00:54Z</time><name>PT3908</name></trkpt>
<trkpt lat="53.314610" lon="06.560906"><ele>22.7</ele><time>2021-05-20T11:00:54Z</time><name>PT3909</name></trkpt>
<trkpt lat="53.314622" lon="06.560910"><ele>22.7</ele><time>2021-05-20T11:00:55Z</time><name>PT3910</name></trkpt>
<trkpt lat="53.314634" lon="06.560913"><ele>22.7</ele><time>2021-05-20T11:00:57Z</time><name>PT3911</name></trkpt>
<trkpt lat="53.314646" lon="06.560918"><ele>22.8</ele><time>2021-05-20T11:00:57Z</time><name>PT3912</name></trkpt>
<trkpt lat="53.314659" lon="06.560922"><ele>22.9</ele><time>2021-05-20T11:00:58Z</time><name>PT3913</name></trkpt>
<trkpt lat="53.314671" lon="06.560928"><ele>22.9</ele><time>2021-05-20T11:01:00Z</time><name>PT3914</name></trkpt>
<trkpt lat="53.314684" lon="06.560937"><ele>22.8</ele><time>2021-05-20T11:01:00Z</time><name>PT3915</name></trkpt>
<trkpt lat="53.314695" lon="06.560942"><ele>22.6</ele><time>2021-05-20T11:01:02Z</time><name>PT3916</name></trkpt>
<trkpt lat="53.314707" lon="06.560948"><ele>22.6</ele><time>2021-05-20T11:01:02Z</time><name>PT3917</name></trkpt>
<trkpt lat="53.314719" lon="06.560953"><ele>22.6</ele><time>2021-05-20T11:01:04Z</time><name>PT3918</name></trkpt>
<trkpt lat="53.314731" lon="06.560956"><ele>22.5</ele><time>2021-05-20T11:01:04Z</time><name>PT3919</name></trkpt>
<trkpt lat="53.314745" lon="06.560962"><ele>22.8</ele><time>2021-05-20T11:01:06Z</time><name>PT3920</name></trkpt>
<trkpt lat="53.314757" lon="06.560968"><ele>22.7</ele><time>2021-05-20T11:01:06Z</time><name>PT3921</name></trkpt>
<trkpt lat="53.314768" lon="06.560977"><ele>22.9</ele><time>2021-05-20T11:01:07Z</time><name>PT3922</name></trkpt>
<trkpt lat="53.314780" lon="06.560986"><ele>22.9</ele><time>2021-05-20T11:01:09Z</time><name>PT3923</name></trkpt>
<trkpt lat="53.314792" lon="06.560991"><ele>22.8</ele><time>2021-05-20T11:01:09Z</time><name>PT3924</name></trkpt>
<trkpt lat="53.314805" lon="06.560997"><ele>22.6</ele><time>2021-05-20T11:01:11Z</time><name>PT3925</name></trkpt>
<trkpt lat="53.314817" lon="06.561004"><ele>22.5</ele><time>2021-05-20T11:01:11Z</time><name>PT3926</name></trkpt>
<trkpt lat="53.314828" lon="06.561014"><ele>22.6</ele><time>2021-05-20T11:01:12Z</time><name>PT3927</name></trkpt>
<trkpt lat="53.314841" lon="06.561022"><ele>22.6</ele><time>2021-05-20T11:01:14Z</time><name>PT3928</name></trkpt>
<trkpt lat="53.314846" lon="06.561030"><ele>22.7</ele><time>2021-05-20T11:01:14Z</time><name>PT3929</name></trkpt>
<trkpt lat="53.314851" lon="06.561039"><ele>22.7</ele><time>2021-05-20T11:01:16Z</time><name>PT3930</name></trkpt>
<trkpt lat="53.314862" lon="06.561047"><ele>22.5</ele><time>2021-05-20T11:01:16Z</time><name>PT3931</name></trkpt>
<trkpt lat="53.314875" lon="06.561056"><ele>22.6</ele><time>2021-05-20T11:01:17Z</time><name>PT3932</name></trkpt>
<trkpt lat="53.314887" lon="06.561065"><ele>22.6</ele><time>2021-05-20T11:01:19Z</time><name>PT3933</name></trkpt>
<trkpt lat="53.314901" lon="06.561071"><ele>22.6</ele><time>2021-05-20T11:01:19Z</time><name>PT3934</name></trkpt>
<trkpt lat="53.314914" lon="06.561078"><ele>22.8</ele><time>2021-05-20T11:01:21Z</time><name>PT3935</name></trkpt>
<trkpt lat="53.314925" lon="06.561082"><ele>22.8</ele><time>2021-05-20T11:01:21Z</time><name>PT3936</name></trkpt>
<trkpt lat="53.314930" lon="06.561083"><ele>22.8</ele><time>2021-05-20T11:01:23Z</time><name>PT3937</name></trkpt>
<trkpt lat="53.314931" lon="06.561084"><ele>22.7</ele><time>2021-05-20T11:01:23Z</time><name>PT3938</name></trkpt>
<trkpt lat="53.314934" lon="06.561088"><ele>22.8</ele><time>2021-05-20T11:01:24Z</time><name>PT3939</name></trkpt>
<trkpt lat="53.314940" lon="06.561093"><ele>22.9</ele><time>2021-05-20T11:01:26Z</time><name>PT3940</name></trkpt>
<trkpt lat="53.314947" lon="06.561096"><ele>22.7</ele><time>2021-05-20T11:01:26Z</time><name>PT3941</name></trkpt>
<trkpt lat="53.314947" lon="06.561093"><ele>22.6</ele><time>2021-05-20T11:01:27Z</time><name>PT3942</name></trkpt>
<trkpt lat="53.314952" lon="06.561102"><ele>22.6</ele><time>2021-05-20T11:01:29Z</time><name>PT3943</name></trkpt>
<trkpt lat="53.314958" lon="06.561111"><ele>22.7</ele><time>2021-05-20T11:01:29Z</time><name>PT3944</name></trkpt>
<trkpt lat="53.314966" lon="06.561115"><ele>22.6</ele><time>2021-05-20T11:01:30Z</time><name>PT3945</name></trkpt>
<trkpt lat="53.314977" lon="06.561119"><ele>22.6</ele><time>2021-05-20T11:01:32Z</time><name>PT3946</name></trkpt>
<trkpt lat="53.314987" lon="06.561123"><ele>22.6</ele><time>2021-05-20T11:01:32Z</time><name>PT3947</name></trkpt>
<trkpt lat="53.314997" lon="06.561127"><ele>22.7</ele><time>2021-05-20T11:01:33Z</time><name>PT3948</name></trkpt>
<trkpt lat="53.315009" lon="06.561132"><ele>22.5</ele><time>2021-05-20T11:01:35Z</time><name>PT3949</name></trkpt>
<trkpt lat="53.315021" lon="06.561138"><ele>22.7</ele><time>2021-05-20T11:01:35Z</time><name>PT3950</name></trkpt>
<trkpt lat="53.315033" lon="06.561143"><ele>22.8</ele><time>2021-05-20T11:01:36Z</time><name>PT3951</name></trkpt>
<trkpt lat="53.315045" lon="06.561149"><ele>22.9</ele><time>2021-05-20T11:01:38Z</time><name>PT3952</name></trkpt>
<trkpt lat="53.315057" lon="06.561153"><ele>22.8</ele><time>2021-05-20T11:01:38Z</time><name>PT3953</name></trkpt>
<trkpt lat="53.315069" lon="06.561158"><ele>22.6</ele><time>2021-05-20T11:01:40Z</time><name>PT3954</name></trkpt>
<trkpt lat="53.315080" lon="06.561163"><ele>22.7</ele><time>2021-05-20T11:01:40Z</time><name>PT3955</name></trkpt>
<trkpt lat="53.315092" lon="06.561170"><ele>22.8</ele><time>2021-05-20T11:01:41Z</time><name>PT3956</name></trkpt>
<trkpt lat="53.315103" lon="06.561175"><ele>22.7</ele><time>2021-05-20T11:01:43Z</time><name>PT3957</name></trkpt>
<trkpt lat="53.315114" lon="06.561181"><ele>22.7</ele><time>2021-05-20T11:01:43Z</time><name>PT3958</name></trkpt>
<trkpt lat="53.315125" lon="06.561188"><ele>22.7</ele><time>2021-05-20T11:01:45Z</time><name>PT3959</name></trkpt>
<trkpt lat="53.315136" lon="06.561195"><ele>22.7</ele><time>2021-05-20T11:01:45Z</time><name>PT3960</name></trkpt>
<trkpt lat="53.315154" lon="06.561194"><ele>22.7</ele><time>2021-05-20T11:01:46Z</time><name>PT3961</name></trkpt>
<trkpt lat="53.315170" lon="06.561195"><ele>22.6</ele><time>2021-05-20T11:01:48Z</time><name>PT3962</name></trkpt>
<trkpt lat="53.315181" lon="06.561202"><ele>22.4</ele><time>2021-05-20T11:01:48Z</time><name>PT3963</name></trkpt>
<trkpt lat="53.315193" lon="06.561207"><ele>22.5</ele><time>2021-05-20T11:01:49Z</time><name>PT3964</name></trkpt>
<trkpt lat="53.315205" lon="06.561209"><ele>22.4</ele><time>2021-05-20T11:01:51Z</time><name>PT3965</name></trkpt>
<trkpt lat="53.315217" lon="06.561211"><ele>22.4</ele><time>2021-05-20T11:01:51Z</time><name>PT3966</name></trkpt>
<trkpt lat="53.315229" lon="06.561214"><ele>22.4</ele><time>2021-05-20T11:01:52Z</time><name>PT3967</name></trkpt>
<trkpt lat="53.315240" lon="06.561217"><ele>22.4</ele><time>2021-05-20T11:01:54Z</time><name>PT3968</name></trkpt>
<trkpt lat="53.315251" lon="06.561220"><ele>22.4</ele><time>2021-05-20T11:01:54Z</time><name>PT3969</name></trkpt>
<trkpt lat="53.315261" lon="06.561225"><ele>22.4</ele><time>2021-05-20T11:01:56Z</time><name>PT3970</name></trkpt>
<trkpt lat="53.315273" lon="06.561230"><ele>22.4</ele><time>2021-05-20T11:01:56Z</time><name>PT3971</name></trkpt>
<trkpt lat="53.315284" lon="06.561237"><ele>22.4</ele><time>2021-05-20T11:01:58Z</time><name>PT3972</name></trkpt>
<trkpt lat="53.315295" lon="06.561243"><ele>22.4</ele><time>2021-05-20T11:01:58Z</time><name>PT3973</name></trkpt>
<trkpt lat="53.315306" lon="06.561249"><ele>22.4</ele><time>2021-05-20T11:01:59Z</time><name>PT3974</name></trkpt>
<trkpt lat="53.315318" lon="06.561255"><ele>22.6</ele><time>2021-05-20T11:02:01Z</time><name>PT3975</name></trkpt>
<trkpt lat="53.315332" lon="06.561261"><ele>22.6</ele><time>2021-05-20T11:02:01Z</time><name>PT3976</name></trkpt>
<trkpt lat="53.315345" lon="06.561266"><ele>22.5</ele><time>2021-05-20T11:02:03Z</time><name>PT3977</name></trkpt>
<trkpt lat="53.315356" lon="06.561270"><ele>22.6</ele><time>2021-05-20T11:02:03Z</time><name>PT3978</name></trkpt>
<trkpt lat="53.315368" lon="06.561274"><ele>22.4</ele><time>2021-05-20T11:02:04Z</time><name>PT3979</name></trkpt>
<trkpt lat="53.315381" lon="06.561276"><ele>22.3</ele><time>2021-05-20T11:02:06Z</time><name>PT3980</name></trkpt>
<trkpt lat="53.315391" lon="06.561279"><ele>22.4</ele><time>2021-05-20T11:02:06Z</time><name>PT3981</name></trkpt>
<trkpt lat="53.315395" lon="06.561279"><ele>22.3</ele><time>2021-05-20T11:02:08Z</time><name>PT3982</name></trkpt>
<trkpt lat="53.315391" lon="06.561280"><ele>22.4</ele><time>2021-05-20T11:02:08Z</time><name>PT3983</name></trkpt>
<trkpt lat="53.315389" lon="06.561281"><ele>22.3</ele><time>2021-05-20T11:02:09Z</time><name>PT3984</name></trkpt>
<trkpt lat="53.315394" lon="06.561287"><ele>22.3</ele><time>2021-05-20T11:02:11Z</time><name>PT3985</name></trkpt>
<trkpt lat="53.315403" lon="06.561294"><ele>22.4</ele><time>2021-05-20T11:02:11Z</time><name>PT3986</name></trkpt>
<trkpt lat="53.315413" lon="06.561300"><ele>22.2</ele><time>2021-05-20T11:02:12Z</time><name>PT3987</name></trkpt>
<trkpt lat="53.315425" lon="06.561308"><ele>22.2</ele><time>2021-05-20T11:02:14Z</time><name>PT3988</name></trkpt>
<trkpt lat="53.315437" lon="06.561314"><ele>22.2</ele><time>2021-05-20T11:02:14Z</time><name>PT3989</name></trkpt>
<trkpt lat="53.315449" lon="06.561321"><ele>22.3</ele><time>2021-05-20T11:02:16Z</time><name>PT3990</name></trkpt>
<trkpt lat="53.315459" lon="06.561327"><ele>22.2</ele><time>2021-05-20T11:02:16Z</time><name>PT3991</name></trkpt>
<trkpt lat="53.315470" lon="06.561330"><ele>22.4</ele><time>2021-05-20T11:02:17Z</time><name>PT3992</name></trkpt>
<trkpt lat="53.315482" lon="06.561334"><ele>22.4</ele><time>2021-05-20T11:02:19Z</time><name>PT3993</name></trkpt>
<trkpt lat="53.315493" lon="06.561339"><ele>22.4</ele><time>2021-05-20T11:02:19Z</time><name>PT3994</name></trkpt>
<trkpt lat="53.315505" lon="06.561343"><ele>22.4</ele><time>2021-05-20T11:02:21Z</time><name>PT3995</name></trkpt>
<trkpt lat="53.315517" lon="06.561348"><ele>22.5</ele><time>2021-05-20T11:02:21Z</time><name>PT3996</name></trkpt>
<trkpt lat="53.315529" lon="06.561352"><ele>22.6</ele><time>2021-05-20T11:02:22Z</time><name>PT3997</name></trkpt>
<trkpt lat="53.315540" lon="06.561357"><ele>22.5</ele><time>2021-05-20T11:02:24Z</time><name>PT3998</name></trkpt>
<trkpt lat="53.315551" lon="06.561362"><ele>22.4</ele><time>2021-05-20T11:02:24Z</time><name>PT3999</name></trkpt>
<trkpt lat="53.315562" lon="06.561367"><ele>22.3</ele><time>2021-05-20T11:02:25Z</time><name>PT4000</name></trkpt>
<trkpt lat="53.315573" lon="06.561374"><ele>22.1</ele><time>2021-05-20T11:02:27Z</time><name>PT4001</name></trkpt>
<trkpt lat="53.315584" lon="06.561381"><ele>22.1</ele><time>2021-05-20T11:02:27Z</time><name>PT4002</name></trkpt>
<trkpt lat="53.315596" lon="06.561388"><ele>22.2</ele><time>2021-05-20T11:02:28Z</time><name>PT4003</name></trkpt>
<trkpt lat="53.315608" lon="06.561395"><ele>22.1</ele><time>2021-05-20T11:02:30Z</time><name>PT4004</name></trkpt>
<trkpt lat="53.315619" lon="06.561400"><ele>22.1</ele><time>2021-05-20T11:02:30Z</time><name>PT4005</name></trkpt>
<trkpt lat="53.315631" lon="06.561406"><ele>22.3</ele><time>2021-05-20T11:02:32Z</time><name>PT4006</name></trkpt>
<trkpt lat="53.315642" lon="06.561412"><ele>22.3</ele><time>2021-05-20T11:02:32Z</time><name>PT4007</name></trkpt>
<trkpt lat="53.315653" lon="06.561418"><ele>22.4</ele><time>2021-05-20T11:02:34Z</time><name>PT4008</name></trkpt>
<trkpt lat="53.315665" lon="06.561424"><ele>22.4</ele><time>2021-05-20T11:02:34Z</time><name>PT4009</name></trkpt>
<trkpt lat="53.315677" lon="06.561428"><ele>22.3</ele><time>2021-05-20T11:02:36Z</time><name>PT4010</name></trkpt>
<trkpt lat="53.315688" lon="06.561433"><ele>22.1</ele><time>2021-05-20T11:02:36Z</time><name>PT4011</name></trkpt>
<trkpt lat="53.315700" lon="06.561438"><ele>22.1</ele><time>2021-05-20T11:02:38Z</time><name>PT4012</name></trkpt>
<trkpt lat="53.315713" lon="06.561441"><ele>22</ele><time>2021-05-20T11:02:38Z</time><name>PT4013</name></trkpt>
<trkpt lat="53.315725" lon="06.561446"><ele>22</ele><time>2021-05-20T11:02:40Z</time><name>PT4014</name></trkpt>
<trkpt lat="53.315737" lon="06.561451"><ele>22.2</ele><time>2021-05-20T11:02:40Z</time><name>PT4015</name></trkpt>
<trkpt lat="53.315749" lon="06.561457"><ele>22.3</ele><time>2021-05-20T11:02:42Z</time><name>PT4016</name></trkpt>
<trkpt lat="53.315762" lon="06.561462"><ele>22.2</ele><time>2021-05-20T11:02:42Z</time><name>PT4017</name></trkpt>
<trkpt lat="53.315774" lon="06.561468"><ele>22.2</ele><time>2021-05-20T11:02:44Z</time><name>PT4018</name></trkpt>
<trkpt lat="53.315787" lon="06.561472"><ele>22</ele><time>2021-05-20T11:02:44Z</time><name>PT4019</name></trkpt>
<trkpt lat="53.315799" lon="06.561475"><ele>22</ele><time>2021-05-20T11:02:45Z</time><name>PT4020</name></trkpt>
<trkpt lat="53.315810" lon="06.561480"><ele>22</ele><time>2021-05-20T11:02:47Z</time><name>PT4021</name></trkpt>
<trkpt lat="53.315821" lon="06.561485"><ele>22</ele><time>2021-05-20T11:02:47Z</time><name>PT4022</name></trkpt>
<trkpt lat="53.315833" lon="06.561491"><ele>22</ele><time>2021-05-20T11:02:49Z</time><name>PT4023</name></trkpt>
<trkpt lat="53.315845" lon="06.561498"><ele>21.9</ele><time>2021-05-20T11:02:49Z</time><name>PT4024</name></trkpt>
<trkpt lat="53.315858" lon="06.561504"><ele>21.9</ele><time>2021-05-20T11:02:51Z</time><name>PT4025</name></trkpt>
<trkpt lat="53.315871" lon="06.561511"><ele>22</ele><time>2021-05-20T11:02:51Z</time><name>PT4026</name></trkpt>
<trkpt lat="53.315885" lon="06.561518"><ele>22</ele><time>2021-05-20T11:02:53Z</time><name>PT4027</name></trkpt>
<trkpt lat="53.315898" lon="06.561526"><ele>22.2</ele><time>2021-05-20T11:02:53Z</time><name>PT4028</name></trkpt>
<trkpt lat="53.315909" lon="06.561531"><ele>22.1</ele><time>2021-05-20T11:02:55Z</time><name>PT4029</name></trkpt>
<trkpt lat="53.315920" lon="06.561536"><ele>22.2</ele><time>2021-05-20T11:02:55Z</time><name>PT4030</name></trkpt>
<trkpt lat="53.315931" lon="06.561540"><ele>22.1</ele><time>2021-05-20T11:02:56Z</time><name>PT4031</name></trkpt>
<trkpt lat="53.315944" lon="06.561545"><ele>22</ele><time>2021-05-20T11:02:58Z</time><name>PT4032</name></trkpt>
<trkpt lat="53.315956" lon="06.561550"><ele>22.1</ele><time>2021-05-20T11:02:58Z</time><name>PT4033</name></trkpt>
<trkpt lat="53.315969" lon="06.561555"><ele>22.2</ele><time>2021-05-20T11:02:59Z</time><name>PT4034</name></trkpt>
<trkpt lat="53.315980" lon="06.561559"><ele>22.3</ele><time>2021-05-20T11:03:01Z</time><name>PT4035</name></trkpt>
<trkpt lat="53.315992" lon="06.561565"><ele>22.4</ele><time>2021-05-20T11:03:01Z</time><name>PT4036</name></trkpt>
<trkpt lat="53.316002" lon="06.561571"><ele>22.4</ele><time>2021-05-20T11:03:02Z</time><name>PT4037</name></trkpt>
<trkpt lat="53.316013" lon="06.561577"><ele>22.2</ele><time>2021-05-20T11:03:04Z</time><name>PT4038</name></trkpt>
<trkpt lat="53.316024" lon="06.561585"><ele>22.1</ele><time>2021-05-20T11:03:04Z</time><name>PT4039</name></trkpt>
<trkpt lat="53.316036" lon="06.561592"><ele>21.9</ele><time>2021-05-20T11:03:05Z</time><name>PT4040</name></trkpt>
<trkpt lat="53.316048" lon="06.561599"><ele>22.1</ele><time>2021-05-20T11:03:07Z</time><name>PT4041</name></trkpt>
<trkpt lat="53.316061" lon="06.561606"><ele>22.1</ele><time>2021-05-20T11:03:07Z</time><name>PT4042</name></trkpt>
<trkpt lat="53.316073" lon="06.561613"><ele>22.2</ele><time>2021-05-20T11:03:08Z</time><name>PT4043</name></trkpt>
<trkpt lat="53.316084" lon="06.561618"><ele>22.2</ele><time>2021-05-20T11:03:10Z</time><name>PT4044</name></trkpt>
<trkpt lat="53.316095" lon="06.561622"><ele>22.2</ele><time>2021-05-20T11:03:10Z</time><name>PT4045</name></trkpt>
<trkpt lat="53.316107" lon="06.561627"><ele>22.1</ele><time>2021-05-20T11:03:11Z</time><name>PT4046</name></trkpt>
<trkpt lat="53.316120" lon="06.561631"><ele>21.9</ele><time>2021-05-20T11:03:13Z</time><name>PT4047</name></trkpt>
<trkpt lat="53.316132" lon="06.561636"><ele>21.9</ele><time>2021-05-20T11:03:13Z</time><name>PT4048</name></trkpt>
<trkpt lat="53.316144" lon="06.561643"><ele>21.8</ele><time>2021-05-20T11:03:14Z</time><name>PT4049</name></trkpt>
<trkpt lat="53.316156" lon="06.561648"><ele>21.7</ele><time>2021-05-20T11:03:16Z</time><name>PT4050</name></trkpt>
<trkpt lat="53.316166" lon="06.561652"><ele>21.7</ele><time>2021-05-20T11:03:16Z</time><name>PT4051</name></trkpt>
<trkpt lat="53.316177" lon="06.561658"><ele>21.8</ele><time>2021-05-20T11:03:17Z</time><name>PT4052</name></trkpt>
<trkpt lat="53.316187" lon="06.561663"><ele>21.9</ele><time>2021-05-20T11:03:19Z</time><name>PT4053</name></trkpt>
<trkpt lat="53.316199" lon="06.561670"><ele>21.9</ele><time>2021-05-20T11:03:19Z</time><name>PT4054</name></trkpt>
<trkpt lat="53.316210" lon="06.561675"><ele>22.1</ele><time>2021-05-20T11:03:20Z</time><name>PT4055</name></trkpt>
<trkpt lat="53.316221" lon="06.561682"><ele>22</ele><time>2021-05-20T11:03:22Z</time><name>PT4056</name></trkpt>
<trkpt lat="53.316231" lon="06.561690"><ele>22.1</ele><time>2021-05-20T11:03:22Z</time><name>PT4057</name></trkpt>
<trkpt lat="53.316242" lon="06.561699"><ele>21.9</ele><time>2021-05-20T11:03:23Z</time><name>PT4058</name></trkpt>
<trkpt lat="53.316253" lon="06.561705"><ele>21.9</ele><time>2021-05-20T11:03:25Z</time><name>PT4059</name></trkpt>
<trkpt lat="53.316266" lon="06.561712"><ele>21.8</ele><time>2021-05-20T11:03:25Z</time><name>PT4060</name></trkpt>
<trkpt lat="53.316278" lon="06.561719"><ele>21.7</ele><time>2021-05-20T11:03:26Z</time><name>PT4061</name></trkpt>
<trkpt lat="53.316291" lon="06.561726"><ele>21.5</ele><time>2021-05-20T11:03:28Z</time><name>PT4062</name></trkpt>
<trkpt lat="53.316303" lon="06.561732"><ele>21.5</ele><time>2021-05-20T11:03:28Z</time><name>PT4063</name></trkpt>
<trkpt lat="53.316315" lon="06.561737"><ele>21.4</ele><time>2021-05-20T11:03:29Z</time><name>PT4064</name></trkpt>
<trkpt lat="53.316327" lon="06.561740"><ele>21.5</ele><time>2021-05-20T11:03:31Z</time><name>PT4065</name></trkpt>
<trkpt lat="53.316339" lon="06.561745"><ele>21.5</ele><time>2021-05-20T11:03:31Z</time><name>PT4066</name></trkpt>
<trkpt lat="53.316352" lon="06.561750"><ele>21.7</ele><time>2021-05-20T11:03:32Z</time><name>PT4067</name></trkpt>
<trkpt lat="53.316365" lon="06.561756"><ele>21.8</ele><time>2021-05-20T11:03:34Z</time><name>PT4068</name></trkpt>
<trkpt lat="53.316376" lon="06.561762"><ele>21.9</ele><time>2021-05-20T11:03:34Z</time><name>PT4069</name></trkpt>
<trkpt lat="53.316388" lon="06.561766"><ele>21.8</ele><time>2021-05-20T11:03:35Z</time><name>PT4070</name></trkpt>
<trkpt lat="53.316400" lon="06.561772"><ele>21.9</ele><time>2021-05-20T11:03:37Z</time><name>PT4071</name></trkpt>
<trkpt lat="53.316413" lon="06.561781"><ele>21.9</ele><time>2021-05-20T11:03:37Z</time><name>PT4072</name></trkpt>
<trkpt lat="53.316426" lon="06.561791"><ele>21.9</ele><time>2021-05-20T11:03:39Z</time><name>PT4073</name></trkpt>
<trkpt lat="53.316438" lon="06.561798"><ele>22.2</ele><time>2021-05-20T11:03:39Z</time><name>PT4074</name></trkpt>
<trkpt lat="53.316448" lon="06.561805"><ele>22.2</ele><time>2021-05-20T11:03:41Z</time><name>PT4075</name></trkpt>
<trkpt lat="53.316461" lon="06.561810"><ele>22.1</ele><time>2021-05-20T11:03:41Z</time><name>PT4076</name></trkpt>
<trkpt lat="53.316473" lon="06.561815"><ele>22.2</ele><time>2021-05-20T11:03:43Z</time><name>PT4077</name></trkpt>
<trkpt lat="53.316485" lon="06.561820"><ele>22</ele><time>2021-05-20T11:03:43Z</time><name>PT4078</name></trkpt>
<trkpt lat="53.316498" lon="06.561825"><ele>22.1</ele><time>2021-05-20T11:03:45Z</time><name>PT4079</name></trkpt>
<trkpt lat="53.316511" lon="06.561829"><ele>22.2</ele><time>2021-05-20T11:03:45Z</time><name>PT4080</name></trkpt>
<trkpt lat="53.316526" lon="06.561834"><ele>22.2</ele><time>2021-05-20T11:03:46Z</time><name>PT4081</name></trkpt>
<trkpt lat="53.316540" lon="06.561840"><ele>22.2</ele><time>2021-05-20T11:03:48Z</time><name>PT4082</name></trkpt>
<trkpt lat="53.316554" lon="06.561845"><ele>22.2</ele><time>2021-05-20T11:03:48Z</time><name>PT4083</name></trkpt>
<trkpt lat="53.316567" lon="06.561850"><ele>22</ele><time>2021-05-20T11:03:49Z</time><name>PT4084</name></trkpt>
<trkpt lat="53.316578" lon="06.561854"><ele>21.9</ele><time>2021-05-20T11:03:51Z</time><name>PT4085</name></trkpt>
<trkpt lat="53.316589" lon="06.561858"><ele>21.9</ele><time>2021-05-20T11:03:51Z</time><name>PT4086</name></trkpt>
<trkpt lat="53.316599" lon="06.561862"><ele>21.9</ele><time>2021-05-20T11:03:52Z</time><name>PT4087</name></trkpt>
<trkpt lat="53.316610" lon="06.561868"><ele>21.8</ele><time>2021-05-20T11:03:54Z</time><name>PT4088</name></trkpt>
<trkpt lat="53.316621" lon="06.561873"><ele>21.7</ele><time>2021-05-20T11:03:54Z</time><name>PT4089</name></trkpt>
<trkpt lat="53.316632" lon="06.561878"><ele>21.8</ele><time>2021-05-20T11:03:55Z</time><name>PT4090</name></trkpt>
<trkpt lat="53.316643" lon="06.561883"><ele>21.9</ele><time>2021-05-20T11:03:57Z</time><name>PT4091</name></trkpt>
<trkpt lat="53.316655" lon="06.561887"><ele>22</ele><time>2021-05-20T11:03:57Z</time><name>PT4092</name></trkpt>
<trkpt lat="53.316667" lon="06.561891"><ele>22.1</ele><time>2021-05-20T11:03:58Z</time><name>PT4093</name></trkpt>
<trkpt lat="53.316679" lon="06.561896"><ele>22.1</ele><time>2021-05-20T11:04:00Z</time><name>PT4094</name></trkpt>
<trkpt lat="53.316691" lon="06.561901"><ele>22</ele><time>2021-05-20T11:04:00Z</time><name>PT4095</name></trkpt>
<trkpt lat="53.316702" lon="06.561905"><ele>22.1</ele><time>2021-05-20T11:04:01Z</time><name>PT4096</name></trkpt>
<trkpt lat="53.316713" lon="06.561908"><ele>21.9</ele><time>2021-05-20T11:04:03Z</time><name>PT4097</name></trkpt>
<trkpt lat="53.316724" lon="06.561914"><ele>21.9</ele><time>2021-05-20T11:04:03Z</time><name>PT4098</name></trkpt>
<trkpt lat="53.316734" lon="06.561919"><ele>22</ele><time>2021-05-20T11:04:04Z</time><name>PT4099</name></trkpt>
<trkpt lat="53.316746" lon="06.561925"><ele>21.9</ele><time>2021-05-20T11:04:06Z</time><name>PT4100</name></trkpt>
<trkpt lat="53.316757" lon="06.561932"><ele>21.9</ele><time>2021-05-20T11:04:06Z</time><name>PT4101</name></trkpt>
<trkpt lat="53.316769" lon="06.561939"><ele>21.9</ele><time>2021-05-20T11:04:07Z</time><name>PT4102</name></trkpt>
<trkpt lat="53.316780" lon="06.561946"><ele>21.7</ele><time>2021-05-20T11:04:09Z</time><name>PT4103</name></trkpt>
<trkpt lat="53.316792" lon="06.561952"><ele>21.7</ele><time>2021-05-20T11:04:09Z</time><name>PT4104</name></trkpt>
<trkpt lat="53.316804" lon="06.561957"><ele>21.8</ele><time>2021-05-20T11:04:11Z</time><name>PT4105</name></trkpt>
<trkpt lat="53.316814" lon="06.561962"><ele>21.7</ele><time>2021-05-20T11:04:11Z</time><name>PT4106</name></trkpt>
<trkpt lat="53.316823" lon="06.561969"><ele>21.8</ele><time>2021-05-20T11:04:13Z</time><name>PT4107</name></trkpt>
<trkpt lat="53.316833" lon="06.561977"><ele>21.8</ele><time>2021-05-20T11:04:13Z</time><name>PT4108</name></trkpt>
<trkpt lat="53.316845" lon="06.561982"><ele>21.8</ele><time>2021-05-20T11:04:14Z</time><name>PT4109</name></trkpt>
<trkpt lat="53.316856" lon="06.561986"><ele>21.8</ele><time>2021-05-20T11:04:16Z</time><name>PT4110</name></trkpt>
<trkpt lat="53.316869" lon="06.561989"><ele>21.9</ele><time>2021-05-20T11:04:16Z</time><name>PT4111</name></trkpt>
<trkpt lat="53.316879" lon="06.561994"><ele>22.1</ele><time>2021-05-20T11:04:17Z</time><name>PT4112</name></trkpt>
<trkpt lat="53.316887" lon="06.561998"><ele>22</ele><time>2021-05-20T11:04:19Z</time><name>PT4113</name></trkpt>
<trkpt lat="53.316896" lon="06.562004"><ele>22.1</ele><time>2021-05-20T11:04:19Z</time><name>PT4114</name></trkpt>
<trkpt lat="53.316906" lon="06.562010"><ele>22.1</ele><time>2021-05-20T11:04:20Z</time><name>PT4115</name></trkpt>
<trkpt lat="53.316915" lon="06.562018"><ele>22</ele><time>2021-05-20T11:04:22Z</time><name>PT4116</name></trkpt>
<trkpt lat="53.316926" lon="06.562026"><ele>22.1</ele><time>2021-05-20T11:04:22Z</time><name>PT4117</name></trkpt>
<trkpt lat="53.316935" lon="06.562033"><ele>22.1</ele><time>2021-05-20T11:04:23Z</time><name>PT4118</name></trkpt>
<trkpt lat="53.316944" lon="06.562038"><ele>22.1</ele><time>2021-05-20T11:04:25Z</time><name>PT4119</name></trkpt>
<trkpt lat="53.316955" lon="06.562042"><ele>22.2</ele><time>2021-05-20T11:04:25Z</time><name>PT4120</name></trkpt>
<trkpt lat="53.316964" lon="06.562045"><ele>22.2</ele><time>2021-05-20T11:04:26Z</time><name>PT4121</name></trkpt>
<trkpt lat="53.316976" lon="06.562048"><ele>22.2</ele><time>2021-05-20T11:04:28Z</time><name>PT4122</name></trkpt>
<trkpt lat="53.316987" lon="06.562052"><ele>22.1</ele><time>2021-05-20T11:04:28Z</time><name>PT4123</name></trkpt>
<trkpt lat="53.317000" lon="06.562056"><ele>22.2</ele><time>2021-05-20T11:04:29Z</time><name>PT4124</name></trkpt>
<trkpt lat="53.317012" lon="06.562059"><ele>22.2</ele><time>2021-05-20T11:04:31Z</time><name>PT4125</name></trkpt>
<trkpt lat="53.317025" lon="06.562064"><ele>22</ele><time>2021-05-20T11:04:31Z</time><name>PT4126</name></trkpt>
<trkpt lat="53.317037" lon="06.562069"><ele>21.9</ele><time>2021-05-20T11:04:32Z</time><name>PT4127</name></trkpt>
<trkpt lat="53.317050" lon="06.562075"><ele>21.9</ele><time>2021-05-20T11:04:34Z</time><name>PT4128</name></trkpt>
<trkpt lat="53.317061" lon="06.562080"><ele>21.8</ele><time>2021-05-20T11:04:34Z</time><name>PT4129</name></trkpt>
<trkpt lat="53.317072" lon="06.562086"><ele>22</ele><time>2021-05-20T11:04:36Z</time><name>PT4130</name></trkpt>
<trkpt lat="53.317084" lon="06.562092"><ele>22</ele><time>2021-05-20T11:04:36Z</time><name>PT4131</name></trkpt>
<trkpt lat="53.317096" lon="06.562098"><ele>22.3</ele><time>2021-05-20T11:04:37Z</time><name>PT4132</name></trkpt>
<trkpt lat="53.317108" lon="06.562104"><ele>22.1</ele><time>2021-05-20T11:04:39Z</time><name>PT4133</name></trkpt>
<trkpt lat="53.317121" lon="06.562112"><ele>22.1</ele><time>2021-05-20T11:04:39Z</time><name>PT4134</name></trkpt>
<trkpt lat="53.317133" lon="06.562118"><ele>22.1</ele><time>2021-05-20T11:04:40Z</time><name>PT4135</name></trkpt>
<trkpt lat="53.317146" lon="06.562124"><ele>21.9</ele><time>2021-05-20T11:04:42Z</time><name>PT4136</name></trkpt>
<trkpt lat="53.317157" lon="06.562129"><ele>21.9</ele><time>2021-05-20T11:04:42Z</time><name>PT4137</name></trkpt>
<trkpt lat="53.317167" lon="06.562135"><ele>21.9</ele><time>2021-05-20T11:04:43Z</time><name>PT4138</name></trkpt>
<trkpt lat="53.317178" lon="06.562141"><ele>21.9</ele><time>2021-05-20T11:04:45Z</time><name>PT4139</name></trkpt>
<trkpt lat="53.317189" lon="06.562145"><ele>21.9</ele><time>2021-05-20T11:04:45Z</time><name>PT4140</name></trkpt>
<trkpt lat="53.317200" lon="06.562150"><ele>21.8</ele><time>2021-05-20T11:04:46Z</time><name>PT4141</name></trkpt>
<trkpt lat="53.317211" lon="06.562155"><ele>21.7</ele><time>2021-05-20T11:04:48Z</time><name>PT4142</name></trkpt>
<trkpt lat="53.317223" lon="06.562158"><ele>21.9</ele><time>2021-05-20T11:04:48Z</time><name>PT4143</name></trkpt>
<trkpt lat="53.317236" lon="06.562161"><ele>21.9</ele><time>2021-05-20T11:04:49Z</time><name>PT4144</name></trkpt>
<trkpt lat="53.317251" lon="06.562166"><ele>21.9</ele><time>2021-05-20T11:04:51Z</time><name>PT4145</name></trkpt>
<trkpt lat="53.317264" lon="06.562170"><ele>21.9</ele><time>2021-05-20T11:04:51Z</time><name>PT4146</name></trkpt>
<trkpt lat="53.317277" lon="06.562173"><ele>21.9</ele><time>2021-05-20T11:04:53Z</time><name>PT4147</name></trkpt>
<trkpt lat="53.317290" lon="06.562178"><ele>22</ele><time>2021-05-20T11:04:53Z</time><name>PT4148</name></trkpt>
<trkpt lat="53.317301" lon="06.562183"><ele>21.9</ele><time>2021-05-20T11:04:54Z</time><name>PT4149</name></trkpt>
<trkpt lat="53.317311" lon="06.562190"><ele>21.9</ele><time>2021-05-20T11:04:56Z</time><name>PT4150</name></trkpt>
<trkpt lat="53.317322" lon="06.562197"><ele>21.9</ele><time>2021-05-20T11:04:56Z</time><name>PT4151</name></trkpt>
<trkpt lat="53.317332" lon="06.562204"><ele>21.9</ele><time>2021-05-20T11:04:57Z</time><name>PT4152</name></trkpt>
<trkpt lat="53.317342" lon="06.562210"><ele>21.9</ele><time>2021-05-20T11:04:59Z</time><name>PT4153</name></trkpt>
<trkpt lat="53.317353" lon="06.562218"><ele>21.9</ele><time>2021-05-20T11:04:59Z</time><name>PT4154</name></trkpt>
<trkpt lat="53.317366" lon="06.562226"><ele>21.9</ele><time>2021-05-20T11:05:00Z</time><name>PT4155</name></trkpt>
<trkpt lat="53.317378" lon="06.562233"><ele>21.9</ele><time>2021-05-20T11:05:02Z</time><name>PT4156</name></trkpt>
<trkpt lat="53.317388" lon="06.562239"><ele>21.9</ele><time>2021-05-20T11:05:02Z</time><name>PT4157</name></trkpt>
<trkpt lat="53.317399" lon="06.562244"><ele>22.2</ele><time>2021-05-20T11:05:03Z</time><name>PT4158</name></trkpt>
<trkpt lat="53.317410" lon="06.562250"><ele>22.1</ele><time>2021-05-20T11:05:05Z</time><name>PT4159</name></trkpt>
<trkpt lat="53.317421" lon="06.562256"><ele>22</ele><time>2021-05-20T11:05:05Z</time><name>PT4160</name></trkpt>
<trkpt lat="53.317433" lon="06.562261"><ele>22</ele><time>2021-05-20T11:05:06Z</time><name>PT4161</name></trkpt>
<trkpt lat="53.317447" lon="06.562266"><ele>21.9</ele><time>2021-05-20T11:05:08Z</time><name>PT4162</name></trkpt>
<trkpt lat="53.317460" lon="06.562272"><ele>21.9</ele><time>2021-05-20T11:05:08Z</time><name>PT4163</name></trkpt>
<trkpt lat="53.317473" lon="06.562277"><ele>22</ele><time>2021-05-20T11:05:09Z</time><name>PT4164</name></trkpt>
<trkpt lat="53.317487" lon="06.562283"><ele>22.1</ele><time>2021-05-20T11:05:11Z</time><name>PT4165</name></trkpt>
<trkpt lat="53.317500" lon="06.562289"><ele>22.1</ele><time>2021-05-20T11:05:11Z</time><name>PT4166</name></trkpt>
<trkpt lat="53.317512" lon="06.562295"><ele>21.9</ele><time>2021-05-20T11:05:12Z</time><name>PT4167</name></trkpt>
<trkpt lat="53.317524" lon="06.562301"><ele>21.9</ele><time>2021-05-20T11:05:14Z</time><name>PT4168</name></trkpt>
<trkpt lat="53.317535" lon="06.562307"><ele>21.9</ele><time>2021-05-20T11:05:14Z</time><name>PT4169</name></trkpt>
<trkpt lat="53.317546" lon="06.562311"><ele>21.8</ele><time>2021-05-20T11:05:15Z</time><name>PT4170</name></trkpt>
<trkpt lat="53.317558" lon="06.562320"><ele>21.9</ele><time>2021-05-20T11:05:17Z</time><name>PT4171</name></trkpt>
<trkpt lat="53.317569" lon="06.562328"><ele>21.8</ele><time>2021-05-20T11:05:17Z</time><name>PT4172</name></trkpt>
<trkpt lat="53.317580" lon="06.562335"><ele>21.8</ele><time>2021-05-20T11:05:18Z</time><name>PT4173</name></trkpt>
<trkpt lat="53.317592" lon="06.562339"><ele>21.7</ele><time>2021-05-20T11:05:20Z</time><name>PT4174</name></trkpt>
<trkpt lat="53.317603" lon="06.562343"><ele>21.9</ele><time>2021-05-20T11:05:20Z</time><name>PT4175</name></trkpt>
<trkpt lat="53.317615" lon="06.562348"><ele>21.8</ele><time>2021-05-20T11:05:21Z</time><name>PT4176</name></trkpt>
<trkpt lat="53.317627" lon="06.562352"><ele>21.8</ele><time>2021-05-20T11:05:23Z</time><name>PT4177</name></trkpt>
<trkpt lat="53.317640" lon="06.562357"><ele>21.9</ele><time>2021-05-20T11:05:23Z</time><name>PT4178</name></trkpt>
<trkpt lat="53.317652" lon="06.562361"><ele>21.9</ele><time>2021-05-20T11:05:24Z</time><name>PT4179</name></trkpt>
<trkpt lat="53.317664" lon="06.562366"><ele>21.8</ele><time>2021-05-20T11:05:26Z</time><name>PT4180</name></trkpt>
<trkpt lat="53.317676" lon="06.562371"><ele>21.7</ele><time>2021-05-20T11:05:26Z</time><name>PT4181</name></trkpt>
<trkpt lat="53.317688" lon="06.562375"><ele>21.5</ele><time>2021-05-20T11:05:27Z</time><name>PT4182</name></trkpt>
<trkpt lat="53.317697" lon="06.562378"><ele>21.6</ele><time>2021-05-20T11:05:29Z</time><name>PT4183</name></trkpt>
<trkpt lat="53.317708" lon="06.562382"><ele>21.6</ele><time>2021-05-20T11:05:29Z</time><name>PT4184</name></trkpt>
<trkpt lat="53.317719" lon="06.562387"><ele>21.6</ele><time>2021-05-20T11:05:30Z</time><name>PT4185</name></trkpt>
<trkpt lat="53.317730" lon="06.562393"><ele>21.8</ele><time>2021-05-20T11:05:32Z</time><name>PT4186</name></trkpt>
<trkpt lat="53.317740" lon="06.562399"><ele>22</ele><time>2021-05-20T11:05:32Z</time><name>PT4187</name></trkpt>
<trkpt lat="53.317750" lon="06.562406"><ele>22</ele><time>2021-05-20T11:05:33Z</time><name>PT4188</name></trkpt>
<trkpt lat="53.317762" lon="06.562413"><ele>22.1</ele><time>2021-05-20T11:05:35Z</time><name>PT4189</name></trkpt>
<trkpt lat="53.317773" lon="06.562420"><ele>22</ele><time>2021-05-20T11:05:35Z</time><name>PT4190</name></trkpt>
<trkpt lat="53.317784" lon="06.562427"><ele>21.8</ele><time>2021-05-20T11:05:37Z</time><name>PT4191</name></trkpt>
<trkpt lat="53.317796" lon="06.562434"><ele>21.7</ele><time>2021-05-20T11:05:37Z</time><name>PT4192</name></trkpt>
<trkpt lat="53.317807" lon="06.562440"><ele>21.5</ele><time>2021-05-20T11:05:38Z</time><name>PT4193</name></trkpt>
<trkpt lat="53.317819" lon="06.562446"><ele>21.5</ele><time>2021-05-20T11:05:40Z</time><name>PT4194</name></trkpt>
<trkpt lat="53.317829" lon="06.562451"><ele>21.5</ele><time>2021-05-20T11:05:40Z</time><name>PT4195</name></trkpt>
<trkpt lat="53.317841" lon="06.562456"><ele>21.6</ele><time>2021-05-20T11:05:41Z</time><name>PT4196</name></trkpt>
<trkpt lat="53.317853" lon="06.562461"><ele>21.7</ele><time>2021-05-20T11:05:43Z</time><name>PT4197</name></trkpt>
<trkpt lat="53.317864" lon="06.562467"><ele>21.8</ele><time>2021-05-20T11:05:43Z</time><name>PT4198</name></trkpt>
<trkpt lat="53.317876" lon="06.562472"><ele>21.7</ele><time>2021-05-20T11:05:44Z</time><name>PT4199</name></trkpt>
<trkpt lat="53.317889" lon="06.562475"><ele>21.7</ele><time>2021-05-20T11:05:46Z</time><name>PT4200</name></trkpt>
<trkpt lat="53.317901" lon="06.562479"><ele>21.8</ele><time>2021-05-20T11:05:46Z</time><name>PT4201</name></trkpt>
<trkpt lat="53.317914" lon="06.562483"><ele>21.7</ele><time>2021-05-20T11:05:47Z</time><name>PT4202</name></trkpt>
<trkpt lat="53.317926" lon="06.562487"><ele>21.6</ele><time>2021-05-20T11:05:49Z</time><name>PT4203</name></trkpt>
<trkpt lat="53.317938" lon="06.562490"><ele>21.7</ele><time>2021-05-20T11:05:49Z</time><name>PT4204</name></trkpt>
<trkpt lat="53.317949" lon="06.562495"><ele>21.8</ele><time>2021-05-20T11:05:50Z</time><name>PT4205</name></trkpt>
<trkpt lat="53.317963" lon="06.562500"><ele>21.8</ele><time>2021-05-20T11:05:52Z</time><name>PT4206</name></trkpt>
<trkpt lat="53.317974" lon="06.562505"><ele>21.9</ele><time>2021-05-20T11:05:52Z</time><name>PT4207</name></trkpt>
<trkpt lat="53.317985" lon="06.562511"><ele>21.9</ele><time>2021-05-20T11:05:53Z</time><name>PT4208</name></trkpt>
<trkpt lat="53.317996" lon="06.562518"><ele>21.9</ele><time>2021-05-20T11:05:55Z</time><name>PT4209</name></trkpt>
<trkpt lat="53.318010" lon="06.562523"><ele>22</ele><time>2021-05-20T11:05:55Z</time><name>PT4210</name></trkpt>
<trkpt lat="53.318023" lon="06.562532"><ele>21.9</ele><time>2021-05-20T11:05:57Z</time><name>PT4211</name></trkpt>
<trkpt lat="53.318035" lon="06.562539"><ele>21.9</ele><time>2021-05-20T11:05:57Z</time><name>PT4212</name></trkpt>
<trkpt lat="53.318047" lon="06.562546"><ele>21.8</ele><time>2021-05-20T11:05:58Z</time><name>PT4213</name></trkpt>
<trkpt lat="53.318058" lon="06.562554"><ele>21.7</ele><time>2021-05-20T11:06:00Z</time><name>PT4214</name></trkpt>
<trkpt lat="53.318070" lon="06.562561"><ele>21.6</ele><time>2021-05-20T11:06:00Z</time><name>PT4215</name></trkpt>
<trkpt lat="53.318082" lon="06.562567"><ele>21.5</ele><time>2021-05-20T11:06:02Z</time><name>PT4216</name></trkpt>
<trkpt lat="53.318094" lon="06.562572"><ele>21.4</ele><time>2021-05-20T11:06:02Z</time><name>PT4217</name></trkpt>
<trkpt lat="53.318106" lon="06.562577"><ele>21.5</ele><time>2021-05-20T11:06:03Z</time><name>PT4218</name></trkpt>
<trkpt lat="53.318119" lon="06.562583"><ele>21.6</ele><time>2021-05-20T11:06:05Z</time><name>PT4219</name></trkpt>
<trkpt lat="53.318131" lon="06.562586"><ele>21.7</ele><time>2021-05-20T11:06:05Z</time><name>PT4220</name></trkpt>
<trkpt lat="53.318143" lon="06.562589"><ele>21.9</ele><time>2021-05-20T11:06:06Z</time><name>PT4221</name></trkpt>
<trkpt lat="53.318155" lon="06.562593"><ele>21.9</ele><time>2021-05-20T11:06:08Z</time><name>PT4222</name></trkpt>
<trkpt lat="53.318167" lon="06.562597"><ele>21.9</ele><time>2021-05-20T11:06:08Z</time><name>PT4223</name></trkpt>
<trkpt lat="53.318179" lon="06.562604"><ele>21.9</ele><time>2021-05-20T11:06:09Z</time><name>PT4224</name></trkpt>
<trkpt lat="53.318189" lon="06.562607"><ele>21.7</ele><time>2021-05-20T11:06:11Z</time><name>PT4225</name></trkpt>
<trkpt lat="53.318200" lon="06.562609"><ele>21.6</ele><time>2021-05-20T11:06:11Z</time><name>PT4226</name></trkpt>
<trkpt lat="53.318211" lon="06.562614"><ele>21.6</ele><time>2021-05-20T11:06:12Z</time><name>PT4227</name></trkpt>
<trkpt lat="53.318222" lon="06.562619"><ele>21.5</ele><time>2021-05-20T11:06:14Z</time><name>PT4228</name></trkpt>
<trkpt lat="53.318232" lon="06.562625"><ele>21.6</ele><time>2021-05-20T11:06:14Z</time><name>PT4229</name></trkpt>
<trkpt lat="53.318243" lon="06.562631"><ele>21.9</ele><time>2021-05-20T11:06:15Z</time><name>PT4230</name></trkpt>
<trkpt lat="53.318254" lon="06.562636"><ele>21.9</ele><time>2021-05-20T11:06:17Z</time><name>PT4231</name></trkpt>
<trkpt lat="53.318265" lon="06.562642"><ele>22.1</ele><time>2021-05-20T11:06:17Z</time><name>PT4232</name></trkpt>
<trkpt lat="53.318276" lon="06.562651"><ele>22.1</ele><time>2021-05-20T11:06:18Z</time><name>PT4233</name></trkpt>
<trkpt lat="53.318287" lon="06.562657"><ele>22.2</ele><time>2021-05-20T11:06:20Z</time><name>PT4234</name></trkpt>
<trkpt lat="53.318300" lon="06.562663"><ele>22.1</ele><time>2021-05-20T11:06:20Z</time><name>PT4235</name></trkpt>
<trkpt lat="53.318311" lon="06.562668"><ele>21.9</ele><time>2021-05-20T11:06:21Z</time><name>PT4236</name></trkpt>
<trkpt lat="53.318322" lon="06.562674"><ele>22</ele><time>2021-05-20T11:06:23Z</time><name>PT4237</name></trkpt>
<trkpt lat="53.318333" lon="06.562678"><ele>21.9</ele><time>2021-05-20T11:06:23Z</time><name>PT4238</name></trkpt>
<trkpt lat="53.318345" lon="06.562681"><ele>21.9</ele><time>2021-05-20T11:06:24Z</time><name>PT4239</name></trkpt>
<trkpt lat="53.318356" lon="06.562686"><ele>22</ele><time>2021-05-20T11:06:26Z</time><name>PT4240</name></trkpt>
<trkpt lat="53.318369" lon="06.562690"><ele>22</ele><time>2021-05-20T11:06:26Z</time><name>PT4241</name></trkpt>
<trkpt lat="53.318382" lon="06.562695"><ele>21.9</ele><time>2021-05-20T11:06:27Z</time><name>PT4242</name></trkpt>
<trkpt lat="53.318393" lon="06.562699"><ele>21.9</ele><time>2021-05-20T11:06:29Z</time><name>PT4243</name></trkpt>
<trkpt lat="53.318403" lon="06.562702"><ele>21.7</ele><time>2021-05-20T11:06:29Z</time><name>PT4244</name></trkpt>
<trkpt lat="53.318413" lon="06.562706"><ele>21.8</ele><time>2021-05-20T11:06:31Z</time><name>PT4245</name></trkpt>
<trkpt lat="53.318424" lon="06.562713"><ele>21.8</ele><time>2021-05-20T11:06:31Z</time><name>PT4246</name></trkpt>
<trkpt lat="53.318435" lon="06.562721"><ele>21.8</ele><time>2021-05-20T11:06:32Z</time><name>PT4247</name></trkpt>
<trkpt lat="53.318447" lon="06.562729"><ele>21.8</ele><time>2021-05-20T11:06:34Z</time><name>PT4248</name></trkpt>
<trkpt lat="53.318459" lon="06.562735"><ele>21.8</ele><time>2021-05-20T11:06:34Z</time><name>PT4249</name></trkpt>
<trkpt lat="53.318469" lon="06.562740"><ele>21.9</ele><time>2021-05-20T11:06:35Z</time><name>PT4250</name></trkpt>
<trkpt lat="53.318479" lon="06.562745"><ele>21.9</ele><time>2021-05-20T11:06:37Z</time><name>PT4251</name></trkpt>
<trkpt lat="53.318490" lon="06.562750"><ele>21.9</ele><time>2021-05-20T11:06:37Z</time><name>PT4252</name></trkpt>
<trkpt lat="53.318502" lon="06.562754"><ele>21.9</ele><time>2021-05-20T11:06:38Z</time><name>PT4253</name></trkpt>
<trkpt lat="53.318513" lon="06.562758"><ele>21.9</ele><time>2021-05-20T11:06:40Z</time><name>PT4254</name></trkpt>
<trkpt lat="53.318523" lon="06.562764"><ele>21.8</ele><time>2021-05-20T11:06:40Z</time><name>PT4255</name></trkpt>
<trkpt lat="53.318534" lon="06.562771"><ele>21.7</ele><time>2021-05-20T11:06:41Z</time><name>PT4256</name></trkpt>
<trkpt lat="53.318546" lon="06.562780"><ele>21.6</ele><time>2021-05-20T11:06:43Z</time><name>PT4257</name></trkpt>
<trkpt lat="53.318558" lon="06.562788"><ele>21.8</ele><time>2021-05-20T11:06:43Z</time><name>PT4258</name></trkpt>
<trkpt lat="53.318570" lon="06.562795"><ele>21.9</ele><time>2021-05-20T11:06:44Z</time><name>PT4259</name></trkpt>
<trkpt lat="53.318582" lon="06.562801"><ele>21.9</ele><time>2021-05-20T11:06:46Z</time><name>PT4260</name></trkpt>
<trkpt lat="53.318594" lon="06.562809"><ele>21.8</ele><time>2021-05-20T11:06:46Z</time><name>PT4261</name></trkpt>
<trkpt lat="53.318606" lon="06.562815"><ele>21.7</ele><time>2021-05-20T11:06:47Z</time><name>PT4262</name></trkpt>
<trkpt lat="53.318618" lon="06.562820"><ele>21.5</ele><time>2021-05-20T11:06:49Z</time><name>PT4263</name></trkpt>
<trkpt lat="53.318630" lon="06.562823"><ele>21.5</ele><time>2021-05-20T11:06:49Z</time><name>PT4264</name></trkpt>
<trkpt lat="53.318643" lon="06.562827"><ele>21.6</ele><time>2021-05-20T11:06:50Z</time><name>PT4265</name></trkpt>
<trkpt lat="53.318657" lon="06.562830"><ele>21.6</ele><time>2021-05-20T11:06:52Z</time><name>PT4266</name></trkpt>
<trkpt lat="53.318671" lon="06.562833"><ele>21.8</ele><time>2021-05-20T11:06:52Z</time><name>PT4267</name></trkpt>
<trkpt lat="53.318683" lon="06.562837"><ele>21.8</ele><time>2021-05-20T11:06:53Z</time><name>PT4268</name></trkpt>
<trkpt lat="53.318694" lon="06.562840"><ele>21.9</ele><time>2021-05-20T11:06:55Z</time><name>PT4269</name></trkpt>
<trkpt lat="53.318704" lon="06.562847"><ele>21.8</ele><time>2021-05-20T11:06:55Z</time><name>PT4270</name></trkpt>
<trkpt lat="53.318714" lon="06.562853"><ele>21.8</ele><time>2021-05-20T11:06:56Z</time><name>PT4271</name></trkpt>
<trkpt lat="53.318726" lon="06.562859"><ele>21.7</ele><time>2021-05-20T11:06:58Z</time><name>PT4272</name></trkpt>
<trkpt lat="53.318738" lon="06.562865"><ele>21.5</ele><time>2021-05-20T11:06:58Z</time><name>PT4273</name></trkpt>
<trkpt lat="53.318749" lon="06.562871"><ele>21.5</ele><time>2021-05-20T11:06:59Z</time><name>PT4274</name></trkpt>
<trkpt lat="53.318761" lon="06.562875"><ele>21.6</ele><time>2021-05-20T11:07:01Z</time><name>PT4275</name></trkpt>
<trkpt lat="53.318774" lon="06.562879"><ele>21.6</ele><time>2021-05-20T11:07:01Z</time><name>PT4276</name></trkpt>
<trkpt lat="53.318787" lon="06.562882"><ele>21.6</ele><time>2021-05-20T11:07:02Z</time><name>PT4277</name></trkpt>
<trkpt lat="53.318800" lon="06.562886"><ele>21.6</ele><time>2021-05-20T11:07:04Z</time><name>PT4278</name></trkpt>
<trkpt lat="53.318813" lon="06.562889"><ele>21.8</ele><time>2021-05-20T11:07:04Z</time><name>PT4279</name></trkpt>
<trkpt lat="53.318827" lon="06.562893"><ele>21.6</ele><time>2021-05-20T11:07:05Z</time><name>PT4280</name></trkpt>
<trkpt lat="53.318840" lon="06.562895"><ele>21.6</ele><time>2021-05-20T11:07:07Z</time><name>PT4281</name></trkpt>
<trkpt lat="53.318850" lon="06.562899"><ele>21.6</ele><time>2021-05-20T11:07:07Z</time><name>PT4282</name></trkpt>
<trkpt lat="53.318861" lon="06.562902"><ele>21.5</ele><time>2021-05-20T11:07:09Z</time><name>PT4283</name></trkpt>
<trkpt lat="53.318872" lon="06.562908"><ele>21.6</ele><time>2021-05-20T11:07:09Z</time><name>PT4284</name></trkpt>
<trkpt lat="53.318884" lon="06.562914"><ele>21.6</ele><time>2021-05-20T11:07:10Z</time><name>PT4285</name></trkpt>
<trkpt lat="53.318895" lon="06.562921"><ele>21.8</ele><time>2021-05-20T11:07:12Z</time><name>PT4286</name></trkpt>
<trkpt lat="53.318906" lon="06.562926"><ele>21.7</ele><time>2021-05-20T11:07:12Z</time><name>PT4287</name></trkpt>
<trkpt lat="53.318918" lon="06.562929"><ele>21.7</ele><time>2021-05-20T11:07:13Z</time><name>PT4288</name></trkpt>
<trkpt lat="53.318931" lon="06.562933"><ele>21.6</ele><time>2021-05-20T11:07:15Z</time><name>PT4289</name></trkpt>
<trkpt lat="53.318944" lon="06.562936"><ele>21.6</ele><time>2021-05-20T11:07:15Z</time><name>PT4290</name></trkpt>
<trkpt lat="53.318957" lon="06.562938"><ele>21.5</ele><time>2021-05-20T11:07:16Z</time><name>PT4291</name></trkpt>
<trkpt lat="53.318969" lon="06.562941"><ele>21.5</ele><time>2021-05-20T11:07:18Z</time><name>PT4292</name></trkpt>
<trkpt lat="53.318979" lon="06.562946"><ele>21.4</ele><time>2021-05-20T11:07:18Z</time><name>PT4293</name></trkpt>
<trkpt lat="53.318990" lon="06.562951"><ele>21.3</ele><time>2021-05-20T11:07:19Z</time><name>PT4294</name></trkpt>
<trkpt lat="53.319001" lon="06.562955"><ele>21.5</ele><time>2021-05-20T11:07:21Z</time><name>PT4295</name></trkpt>
<trkpt lat="53.319011" lon="06.562961"><ele>21.5</ele><time>2021-05-20T11:07:21Z</time><name>PT4296</name></trkpt>
<trkpt lat="53.319022" lon="06.562966"><ele>21.5</ele><time>2021-05-20T11:07:22Z</time><name>PT4297</name></trkpt>
<trkpt lat="53.319034" lon="06.562971"><ele>21.5</ele><time>2021-05-20T11:07:24Z</time><name>PT4298</name></trkpt>
<trkpt lat="53.319045" lon="06.562974"><ele>21.5</ele><time>2021-05-20T11:07:24Z</time><name>PT4299</name></trkpt>
<trkpt lat="53.319057" lon="06.562977"><ele>21.5</ele><time>2021-05-20T11:07:25Z</time><name>PT4300</name></trkpt>
<trkpt lat="53.319069" lon="06.562978"><ele>21.4</ele><time>2021-05-20T11:07:27Z</time><name>PT4301</name></trkpt>
<trkpt lat="53.319079" lon="06.562981"><ele>21.7</ele><time>2021-05-20T11:07:27Z</time><name>PT4302</name></trkpt>
<trkpt lat="53.319090" lon="06.562984"><ele>21.8</ele><time>2021-05-20T11:07:28Z</time><name>PT4303</name></trkpt>
<trkpt lat="53.319100" lon="06.562989"><ele>21.8</ele><time>2021-05-20T11:07:30Z</time><name>PT4304</name></trkpt>
<trkpt lat="53.319111" lon="06.562993"><ele>21.9</ele><time>2021-05-20T11:07:30Z</time><name>PT4305</name></trkpt>
<trkpt lat="53.319122" lon="06.562997"><ele>21.9</ele><time>2021-05-20T11:07:31Z</time><name>PT4306</name></trkpt>
<trkpt lat="53.319134" lon="06.563004"><ele>21.9</ele><time>2021-05-20T11:07:33Z</time><name>PT4307</name></trkpt>
<trkpt lat="53.319145" lon="06.563011"><ele>21.9</ele><time>2021-05-20T11:07:33Z</time><name>PT4308</name></trkpt>
<trkpt lat="53.319158" lon="06.563017"><ele>21.9</ele><time>2021-05-20T11:07:34Z</time><name>PT4309</name></trkpt>
<trkpt lat="53.319170" lon="06.563022"><ele>21.9</ele><time>2021-05-20T11:07:36Z</time><name>PT4310</name></trkpt>
<trkpt lat="53.319182" lon="06.563025"><ele>21.6</ele><time>2021-05-20T11:07:36Z</time><name>PT4311</name></trkpt>
<trkpt lat="53.319194" lon="06.563028"><ele>21.5</ele><time>2021-05-20T11:07:38Z</time><name>PT4312</name></trkpt>
<trkpt lat="53.319206" lon="06.563033"><ele>21.6</ele><time>2021-05-20T11:07:38Z</time><name>PT4313</name></trkpt>
<trkpt lat="53.319219" lon="06.563037"><ele>21.7</ele><time>2021-05-20T11:07:39Z</time><name>PT4314</name></trkpt>
<trkpt lat="53.319231" lon="06.563039"><ele>21.8</ele><time>2021-05-20T11:07:41Z</time><name>PT4315</name></trkpt>
<trkpt lat="53.319243" lon="06.563041"><ele>21.7</ele><time>2021-05-20T11:07:41Z</time><name>PT4316</name></trkpt>
<trkpt lat="53.319255" lon="06.563044"><ele>21.8</ele><time>2021-05-20T11:07:42Z</time><name>PT4317</name></trkpt>
<trkpt lat="53.319268" lon="06.563046"><ele>21.7</ele><time>2021-05-20T11:07:44Z</time><name>PT4318</name></trkpt>
<trkpt lat="53.319280" lon="06.563049"><ele>21.7</ele><time>2021-05-20T11:07:44Z</time><name>PT4319</name></trkpt>
<trkpt lat="53.319292" lon="06.563052"><ele>21.9</ele><time>2021-05-20T11:07:45Z</time><name>PT4320</name></trkpt>
<trkpt lat="53.319302" lon="06.563056"><ele>21.6</ele><time>2021-05-20T11:07:47Z</time><name>PT4321</name></trkpt>
<trkpt lat="53.319312" lon="06.563059"><ele>21.6</ele><time>2021-05-20T11:07:47Z</time><name>PT4322</name></trkpt>
<trkpt lat="53.319323" lon="06.563063"><ele>21.5</ele><time>2021-05-20T11:07:48Z</time><name>PT4323</name></trkpt>
<trkpt lat="53.319335" lon="06.563068"><ele>21.5</ele><time>2021-05-20T11:07:50Z</time><name>PT4324</name></trkpt>
<trkpt lat="53.319346" lon="06.563073"><ele>21.4</ele><time>2021-05-20T11:07:50Z</time><name>PT4325</name></trkpt>
<trkpt lat="53.319359" lon="06.563078"><ele>21.5</ele><time>2021-05-20T11:07:51Z</time><name>PT4326</name></trkpt>
<trkpt lat="53.319370" lon="06.563082"><ele>21.7</ele><time>2021-05-20T11:07:53Z</time><name>PT4327</name></trkpt>
<trkpt lat="53.319381" lon="06.563086"><ele>21.7</ele><time>2021-05-20T11:07:53Z</time><name>PT4328</name></trkpt>
<trkpt lat="53.319393" lon="06.563088"><ele>21.9</ele><time>2021-05-20T11:07:54Z</time><name>PT4329</name></trkpt>
<trkpt lat="53.319405" lon="06.563089"><ele>21.9</ele><time>2021-05-20T11:07:56Z</time><name>PT4330</name></trkpt>
<trkpt lat="53.319417" lon="06.563091"><ele>21.9</ele><time>2021-05-20T11:07:56Z</time><name>PT4331</name></trkpt>
<trkpt lat="53.319429" lon="06.563094"><ele>21.9</ele><time>2021-05-20T11:07:57Z</time><name>PT4332</name></trkpt>
<trkpt lat="53.319440" lon="06.563097"><ele>21.9</ele><time>2021-05-20T11:07:59Z</time><name>PT4333</name></trkpt>
<trkpt lat="53.319451" lon="06.563101"><ele>21.9</ele><time>2021-05-20T11:07:59Z</time><name>PT4334</name></trkpt>
<trkpt lat="53.319462" lon="06.563106"><ele>21.9</ele><time>2021-05-20T11:08:00Z</time><name>PT4335</name></trkpt>
<trkpt lat="53.319474" lon="06.563112"><ele>21.9</ele><time>2021-05-20T11:08:02Z</time><name>PT4336</name></trkpt>
<trkpt lat="53.319487" lon="06.563118"><ele>21.9</ele><time>2021-05-20T11:08:02Z</time><name>PT4337</name></trkpt>
<trkpt lat="53.319499" lon="06.563122"><ele>21.5</ele><time>2021-05-20T11:08:04Z</time><name>PT4338</name></trkpt>
<trkpt lat="53.319511" lon="06.563125"><ele>21.5</ele><time>2021-05-20T11:08:04Z</time><name>PT4339</name></trkpt>
<trkpt lat="53.319523" lon="06.563127"><ele>21.6</ele><time>2021-05-20T11:08:05Z</time><name>PT4340</name></trkpt>
<trkpt lat="53.319533" lon="06.563130"><ele>21.8</ele><time>2021-05-20T11:08:07Z</time><name>PT4341</name></trkpt>
<trkpt lat="53.319545" lon="06.563133"><ele>22</ele><time>2021-05-20T11:08:07Z</time><name>PT4342</name></trkpt>
<trkpt lat="53.319559" lon="06.563136"><ele>22</ele><time>2021-05-20T11:08:09Z</time><name>PT4343</name></trkpt>
<trkpt lat="53.319570" lon="06.563138"><ele>21.9</ele><time>2021-05-20T11:08:09Z</time><name>PT4344</name></trkpt>
<trkpt lat="53.319581" lon="06.563142"><ele>22</ele><time>2021-05-20T11:08:10Z</time><name>PT4345</name></trkpt>
<trkpt lat="53.319593" lon="06.563145"><ele>21.9</ele><time>2021-05-20T11:08:12Z</time><name>PT4346</name></trkpt>
<trkpt lat="53.319604" lon="06.563150"><ele>21.9</ele><time>2021-05-20T11:08:12Z</time><name>PT4347</name></trkpt>
<trkpt lat="53.319617" lon="06.563156"><ele>21.8</ele><time>2021-05-20T11:08:13Z</time><name>PT4348</name></trkpt>
<trkpt lat="53.319629" lon="06.563162"><ele>21.9</ele><time>2021-05-20T11:08:15Z</time><name>PT4349</name></trkpt>
<trkpt lat="53.319640" lon="06.563168"><ele>21.9</ele><time>2021-05-20T11:08:15Z</time><name>PT4350</name></trkpt>
<trkpt lat="53.319651" lon="06.563171"><ele>21.9</ele><time>2021-05-20T11:08:17Z</time><name>PT4351</name></trkpt>
<trkpt lat="53.319663" lon="06.563174"><ele>21.9</ele><time>2021-05-20T11:08:17Z</time><name>PT4352</name></trkpt>
<trkpt lat="53.319674" lon="06.563176"><ele>22</ele><time>2021-05-20T11:08:18Z</time><name>PT4353</name></trkpt>
<trkpt lat="53.319687" lon="06.563178"><ele>22.1</ele><time>2021-05-20T11:08:20Z</time><name>PT4354</name></trkpt>
<trkpt lat="53.319697" lon="06.563179"><ele>22.1</ele><time>2021-05-20T11:08:20Z</time><name>PT4355</name></trkpt>
<trkpt lat="53.319702" lon="06.563182"><ele>22.3</ele><time>2021-05-20T11:08:21Z</time><name>PT4356</name></trkpt>
<trkpt lat="53.319700" lon="06.563183"><ele>22.1</ele><time>2021-05-20T11:08:23Z</time><name>PT4357</name></trkpt>
<trkpt lat="53.319699" lon="06.563184"><ele>21.9</ele><time>2021-05-20T11:08:23Z</time><name>PT4358</name></trkpt>
<trkpt lat="53.319703" lon="06.563188"><ele>21.6</ele><time>2021-05-20T11:08:24Z</time><name>PT4359</name></trkpt>
<trkpt lat="53.319710" lon="06.563192"><ele>21.6</ele><time>2021-05-20T11:08:26Z</time><name>PT4360</name></trkpt>
<trkpt lat="53.319719" lon="06.563198"><ele>21.5</ele><time>2021-05-20T11:08:26Z</time><name>PT4361</name></trkpt>
<trkpt lat="53.319729" lon="06.563200"><ele>21.7</ele><time>2021-05-20T11:08:27Z</time><name>PT4362</name></trkpt>
<trkpt lat="53.319737" lon="06.563203"><ele>21.9</ele><time>2021-05-20T11:08:29Z</time><name>PT4363</name></trkpt>
<trkpt lat="53.319742" lon="06.563206"><ele>21.8</ele><time>2021-05-20T11:08:29Z</time><name>PT4364</name></trkpt>
<trkpt lat="53.319746" lon="06.563206"><ele>21.9</ele><time>2021-05-20T11:08:31Z</time><name>PT4365</name></trkpt>
<trkpt lat="53.319744" lon="06.563205"><ele>22</ele><time>2021-05-20T11:08:31Z</time><name>PT4366</name></trkpt>
<trkpt lat="53.319742" lon="06.563204"><ele>21.9</ele><time>2021-05-20T11:08:33Z</time><name>PT4367</name></trkpt>
<trkpt lat="53.319740" lon="06.563204"><ele>21.7</ele><time>2021-05-20T11:08:33Z</time><name>PT4368</name></trkpt>
<trkpt lat="53.319741" lon="06.563205"><ele>21.5</ele><time>2021-05-20T11:08:34Z</time><name>PT4369</name></trkpt>
<trkpt lat="53.319742" lon="06.563205"><ele>21.5</ele><time>2021-05-20T11:08:36Z</time><name>PT4370</name></trkpt>
<trkpt lat="53.319747" lon="06.563206"><ele>21.5</ele><time>2021-05-20T11:08:36Z</time><name>PT4371</name></trkpt>
<trkpt lat="53.319754" lon="06.563209"><ele>21.8</ele><time>2021-05-20T11:08:37Z</time><name>PT4372</name></trkpt>
<trkpt lat="53.319761" lon="06.563214"><ele>21.9</ele><time>2021-05-20T11:08:39Z</time><name>PT4373</name></trkpt>
<trkpt lat="53.319771" lon="06.563220"><ele>21.9</ele><time>2021-05-20T11:08:39Z</time><name>PT4374</name></trkpt>
<trkpt lat="53.319781" lon="06.563222"><ele>21.7</ele><time>2021-05-20T11:08:40Z</time><name>PT4375</name></trkpt>
<trkpt lat="53.319792" lon="06.563225"><ele>21.8</ele><time>2021-05-20T11:08:42Z</time><name>PT4376</name></trkpt>
<trkpt lat="53.319802" lon="06.563227"><ele>21.8</ele><time>2021-05-20T11:08:42Z</time><name>PT4377</name></trkpt>
<trkpt lat="53.319811" lon="06.563230"><ele>21.8</ele><time>2021-05-20T11:08:43Z</time><name>PT4378</name></trkpt>
<trkpt lat="53.319819" lon="06.563234"><ele>21.9</ele><time>2021-05-20T11:08:45Z</time><name>PT4379</name></trkpt>
<trkpt lat="53.319826" lon="06.563239"><ele>21.9</ele><time>2021-05-20T11:08:45Z</time><name>PT4380</name></trkpt>
<trkpt lat="53.319835" lon="06.563240"><ele>21.8</ele><time>2021-05-20T11:08:47Z</time><name>PT4381</name></trkpt>
<trkpt lat="53.319843" lon="06.563239"><ele>21.8</ele><time>2021-05-20T11:08:47Z</time><name>PT4382</name></trkpt>
<trkpt lat="53.319854" lon="06.563241"><ele>21.8</ele><time>2021-05-20T11:08:48Z</time><name>PT4383</name></trkpt>
<trkpt lat="53.319865" lon="06.563243"><ele>21.7</ele><time>2021-05-20T11:08:50Z</time><name>PT4384</name></trkpt>
<trkpt lat="53.319875" lon="06.563247"><ele>21.6</ele><time>2021-05-20T11:08:50Z</time><name>PT4385</name></trkpt>
<trkpt lat="53.319884" lon="06.563250"><ele>21.6</ele><time>2021-05-20T11:08:51Z</time><name>PT4386</name></trkpt>
<trkpt lat="53.319894" lon="06.563254"><ele>21.9</ele><time>2021-05-20T11:08:53Z</time><name>PT4387</name></trkpt>
<trkpt lat="53.319897" lon="06.563259"><ele>21.9</ele><time>2021-05-20T11:08:53Z</time><name>PT4388</name></trkpt>
<trkpt lat="53.319902" lon="06.563263"><ele>21.9</ele><time>2021-05-20T11:08:54Z</time><name>PT4389</name></trkpt>
<trkpt lat="53.319909" lon="06.563264"><ele>21.8</ele><time>2021-05-20T11:08:56Z</time><name>PT4390</name></trkpt>
<trkpt lat="53.319917" lon="06.563266"><ele>21.8</ele><time>2021-05-20T11:08:56Z</time><name>PT4391</name></trkpt>
<trkpt lat="53.319925" lon="06.563268"><ele>21.7</ele><time>2021-05-20T11:08:57Z</time><name>PT4392</name></trkpt>
<trkpt lat="53.319932" lon="06.563269"><ele>21.8</ele><time>2021-05-20T11:08:59Z</time><name>PT4393</name></trkpt>
<trkpt lat="53.319939" lon="06.563268"><ele>21.8</ele><time>2021-05-20T11:08:59Z</time><name>PT4394</name></trkpt>
<trkpt lat="53.319948" lon="06.563272"><ele>21.9</ele><time>2021-05-20T11:09:00Z</time><name>PT4395</name></trkpt>
<trkpt lat="53.319954" lon="06.563273"><ele>21.6</ele><time>2021-05-20T11:09:02Z</time><name>PT4396</name></trkpt>
<trkpt lat="53.319959" lon="06.563272"><ele>21.7</ele><time>2021-05-20T11:09:02Z</time><name>PT4397</name></trkpt>
<trkpt lat="53.319966" lon="06.563276"><ele>21.6</ele><time>2021-05-20T11:09:03Z</time><name>PT4398</name></trkpt>
<trkpt lat="53.319974" lon="06.563279"><ele>21.5</ele><time>2021-05-20T11:09:05Z</time><name>PT4399</name></trkpt>
<trkpt lat="53.319978" lon="06.563278"><ele>21.5</ele><time>2021-05-20T11:09:05Z</time><name>PT4400</name></trkpt>
<trkpt lat="53.319979" lon="06.563280"><ele>21.2</ele><time>2021-05-20T11:09:06Z</time><name>PT4401</name></trkpt>
<trkpt lat="53.319982" lon="06.563283"><ele>21.3</ele><time>2021-05-20T11:09:08Z</time><name>PT4402</name></trkpt>
<trkpt lat="53.319988" lon="06.563286"><ele>21.3</ele><time>2021-05-20T11:09:08Z</time><name>PT4403</name></trkpt>
<trkpt lat="53.319994" lon="06.563291"><ele>21.5</ele><time>2021-05-20T11:09:09Z</time><name>PT4404</name></trkpt>
<trkpt lat="53.320002" lon="06.563296"><ele>21.9</ele><time>2021-05-20T11:09:11Z</time><name>PT4405</name></trkpt>
<trkpt lat="53.320010" lon="06.563297"><ele>21.9</ele><time>2021-05-20T11:09:11Z</time><name>PT4406</name></trkpt>
<trkpt lat="53.320018" lon="06.563298"><ele>22</ele><time>2021-05-20T11:09:12Z</time><name>PT4407</name></trkpt>
<trkpt lat="53.320027" lon="06.563299"><ele>21.9</ele><time>2021-05-20T11:09:14Z</time><name>PT4408</name></trkpt>
<trkpt lat="53.320035" lon="06.563301"><ele>21.9</ele><time>2021-05-20T11:09:14Z</time><name>PT4409</name></trkpt>
<trkpt lat="53.320042" lon="06.563305"><ele>21.9</ele><time>2021-05-20T11:09:15Z</time><name>PT4410</name></trkpt>
<trkpt lat="53.320050" lon="06.563307"><ele>22</ele><time>2021-05-20T11:09:17Z</time><name>PT4411</name></trkpt>
<trkpt lat="53.320054" lon="06.563303"><ele>21.9</ele><time>2021-05-20T11:09:17Z</time><name>PT4412</name></trkpt>
<trkpt lat="53.320056" lon="06.563303"><ele>21.9</ele><time>2021-05-20T11:09:19Z</time><name>PT4413</name></trkpt>
<trkpt lat="53.320054" lon="06.563305"><ele>21.8</ele><time>2021-05-20T11:09:19Z</time><name>PT4414</name></trkpt>
<trkpt lat="53.320055" lon="06.563308"><ele>21.8</ele><time>2021-05-20T11:09:20Z</time><name>PT4415</name></trkpt>
<trkpt lat="53.320053" lon="06.563310"><ele>21.6</ele><time>2021-05-20T11:09:22Z</time><name>PT4416</name></trkpt>
<trkpt lat="53.320051" lon="06.563312"><ele>21.7</ele><time>2021-05-20T11:09:22Z</time><name>PT4417</name></trkpt>
<trkpt lat="53.320051" lon="06.563315"><ele>21.7</ele><time>2021-05-20T11:09:23Z</time><name>PT4418</name></trkpt>
<trkpt lat="53.320050" lon="06.563316"><ele>21.7</ele><time>2021-05-20T11:09:25Z</time><name>PT4419</name></trkpt>
<trkpt lat="53.320053" lon="06.563319"><ele>22</ele><time>2021-05-20T11:09:28Z</time><name>PT4420</name></trkpt>
<trkpt lat="53.320063" lon="06.563325"><ele>22.1</ele><time>2021-05-20T11:09:30Z</time><name>PT4421</name></trkpt>
<trkpt lat="53.320073" lon="06.563330"><ele>22.1</ele><time>2021-05-20T11:09:30Z</time><name>PT4422</name></trkpt>
<trkpt lat="53.320080" lon="06.563330"><ele>22</ele><time>2021-05-20T11:09:31Z</time><name>PT4423</name></trkpt>
<trkpt lat="53.320082" lon="06.563327"><ele>21.9</ele><time>2021-05-20T11:09:33Z</time><name>PT4424</name></trkpt>
<trkpt lat="53.320083" lon="06.563327"><ele>21.9</ele><time>2021-05-20T11:09:33Z</time><name>PT4425</name></trkpt>
<trkpt lat="53.320085" lon="06.563327"><ele>21.9</ele><time>2021-05-20T11:09:34Z</time><name>PT4426</name></trkpt>
<trkpt lat="53.320084" lon="06.563330"><ele>21.9</ele><time>2021-05-20T11:09:36Z</time><name>PT4427</name></trkpt>
<trkpt lat="53.320085" lon="06.563332"><ele>21.9</ele><time>2021-05-20T11:09:36Z</time><name>PT4428</name></trkpt>
<trkpt lat="53.320086" lon="06.563330"><ele>22</ele><time>2021-05-20T11:10:24Z</time><name>PT4429</name></trkpt>
<trkpt lat="53.320096" lon="06.563335"><ele>22</ele><time>2021-05-20T11:10:24Z</time><name>PT4430</name></trkpt>
<trkpt lat="53.320108" lon="06.563341"><ele>22.2</ele><time>2021-05-20T11:10:25Z</time><name>PT4431</name></trkpt>
<trkpt lat="53.320121" lon="06.563345"><ele>22.1</ele><time>2021-05-20T11:10:27Z</time><name>PT4432</name></trkpt>
<trkpt lat="53.320135" lon="06.563346"><ele>22.1</ele><time>2021-05-20T11:10:27Z</time><name>PT4433</name></trkpt>
<trkpt lat="53.320153" lon="06.563344"><ele>22</ele><time>2021-05-20T11:10:28Z</time><name>PT4434</name></trkpt>
<trkpt lat="53.320166" lon="06.563346"><ele>21.9</ele><time>2021-05-20T11:10:30Z</time><name>PT4435</name></trkpt>
<trkpt lat="53.320180" lon="06.563349"><ele>21.9</ele><time>2021-05-20T11:10:30Z</time><name>PT4436</name></trkpt>
<trkpt lat="53.320192" lon="06.563354"><ele>22.1</ele><time>2021-05-20T11:10:32Z</time><name>PT4437</name></trkpt>
<trkpt lat="53.320204" lon="06.563357"><ele>21.9</ele><time>2021-05-20T11:10:32Z</time><name>PT4438</name></trkpt>
<trkpt lat="53.320216" lon="06.563358"><ele>22</ele><time>2021-05-20T11:10:33Z</time><name>PT4439</name></trkpt>
<trkpt lat="53.320226" lon="06.563361"><ele>21.9</ele><time>2021-05-20T11:10:35Z</time><name>PT4440</name></trkpt>
<trkpt lat="53.320236" lon="06.563362"><ele>21.8</ele><time>2021-05-20T11:10:35Z</time><name>PT4441</name></trkpt>
<trkpt lat="53.320246" lon="06.563366"><ele>21.8</ele><time>2021-05-20T11:10:37Z</time><name>PT4442</name></trkpt>
<trkpt lat="53.320257" lon="06.563370"><ele>21.8</ele><time>2021-05-20T11:10:37Z</time><name>PT4443</name></trkpt>
<trkpt lat="53.320267" lon="06.563373"><ele>21.8</ele><time>2021-05-20T11:10:38Z</time><name>PT4444</name></trkpt>
<trkpt lat="53.320278" lon="06.563376"><ele>21.9</ele><time>2021-05-20T11:10:40Z</time><name>PT4445</name></trkpt>
<trkpt lat="53.320287" lon="06.563376"><ele>21.9</ele><time>2021-05-20T11:10:40Z</time><name>PT4446</name></trkpt>
<trkpt lat="53.320295" lon="06.563377"><ele>22.1</ele><time>2021-05-20T11:10:41Z</time><name>PT4447</name></trkpt>
<trkpt lat="53.320305" lon="06.563381"><ele>22.2</ele><time>2021-05-20T11:10:43Z</time><name>PT4448</name></trkpt>
<trkpt lat="53.320315" lon="06.563385"><ele>21.9</ele><time>2021-05-20T11:10:43Z</time><name>PT4449</name></trkpt>
<trkpt lat="53.320325" lon="06.563388"><ele>21.9</ele><time>2021-05-20T11:10:44Z</time><name>PT4450</name></trkpt>
<trkpt lat="53.320335" lon="06.563390"><ele>21.9</ele><time>2021-05-20T11:10:46Z</time><name>PT4451</name></trkpt>
<trkpt lat="53.320346" lon="06.563390"><ele>21.8</ele><time>2021-05-20T11:10:46Z</time><name>PT4452</name></trkpt>
<trkpt lat="53.320356" lon="06.563390"><ele>21.9</ele><time>2021-05-20T11:10:47Z</time><name>PT4453</name></trkpt>
<trkpt lat="53.320366" lon="06.563391"><ele>22</ele><time>2021-05-20T11:10:49Z</time><name>PT4454</name></trkpt>
<trkpt lat="53.320376" lon="06.563394"><ele>22.1</ele><time>2021-05-20T11:10:49Z</time><name>PT4455</name></trkpt>
<trkpt lat="53.320386" lon="06.563398"><ele>22</ele><time>2021-05-20T11:10:50Z</time><name>PT4456</name></trkpt>
<trkpt lat="53.320396" lon="06.563402"><ele>22.1</ele><time>2021-05-20T11:10:52Z</time><name>PT4457</name></trkpt>
<trkpt lat="53.320406" lon="06.563406"><ele>22</ele><time>2021-05-20T11:10:52Z</time><name>PT4458</name></trkpt>
<trkpt lat="53.320415" lon="06.563407"><ele>22</ele><time>2021-05-20T11:10:53Z</time><name>PT4459</name></trkpt>
<trkpt lat="53.320424" lon="06.563407"><ele>21.9</ele><time>2021-05-20T11:10:55Z</time><name>PT4460</name></trkpt>
<trkpt lat="53.320434" lon="06.563407"><ele>21.8</ele><time>2021-05-20T11:10:55Z</time><name>PT4461</name></trkpt>
<trkpt lat="53.320444" lon="06.563411"><ele>21.7</ele><time>2021-05-20T11:10:56Z</time><name>PT4462</name></trkpt>
<trkpt lat="53.320454" lon="06.563417"><ele>21.7</ele><time>2021-05-20T11:10:58Z</time><name>PT4463</name></trkpt>
<trkpt lat="53.320463" lon="06.563421"><ele>21.8</ele><time>2021-05-20T11:10:58Z</time><name>PT4464</name></trkpt>
<trkpt lat="53.320473" lon="06.563425"><ele>21.7</ele><time>2021-05-20T11:10:59Z</time><name>PT4465</name></trkpt>
<trkpt lat="53.320483" lon="06.563427"><ele>21.7</ele><time>2021-05-20T11:11:01Z</time><name>PT4466</name></trkpt>
<trkpt lat="53.320491" lon="06.563429"><ele>21.6</ele><time>2021-05-20T11:11:01Z</time><name>PT4467</name></trkpt>
<trkpt lat="53.320500" lon="06.563430"><ele>21.7</ele><time>2021-05-20T11:11:02Z</time><name>PT4468</name></trkpt>
<trkpt lat="53.320509" lon="06.563434"><ele>21.8</ele><time>2021-05-20T11:11:04Z</time><name>PT4469</name></trkpt>
<trkpt lat="53.320520" lon="06.563439"><ele>21.9</ele><time>2021-05-20T11:11:04Z</time><name>PT4470</name></trkpt>
<trkpt lat="53.320532" lon="06.563443"><ele>21.9</ele><time>2021-05-20T11:11:05Z</time><name>PT4471</name></trkpt>
<trkpt lat="53.320545" lon="06.563448"><ele>22</ele><time>2021-05-20T11:11:07Z</time><name>PT4472</name></trkpt>
<trkpt lat="53.320557" lon="06.563452"><ele>21.9</ele><time>2021-05-20T11:11:07Z</time><name>PT4473</name></trkpt>
<trkpt lat="53.320569" lon="06.563456"><ele>22</ele><time>2021-05-20T11:11:08Z</time><name>PT4474</name></trkpt>
<trkpt lat="53.320581" lon="06.563458"><ele>22</ele><time>2021-05-20T11:11:10Z</time><name>PT4475</name></trkpt>
<trkpt lat="53.320594" lon="06.563460"><ele>21.9</ele><time>2021-05-20T11:11:10Z</time><name>PT4476</name></trkpt>
<trkpt lat="53.320607" lon="06.563463"><ele>22.1</ele><time>2021-05-20T11:11:11Z</time><name>PT4477</name></trkpt>
<trkpt lat="53.320617" lon="06.563468"><ele>22.1</ele><time>2021-05-20T11:11:13Z</time><name>PT4478</name></trkpt>
<trkpt lat="53.320628" lon="06.563473"><ele>21.9</ele><time>2021-05-20T11:11:13Z</time><name>PT4479</name></trkpt>
<trkpt lat="53.320640" lon="06.563478"><ele>22</ele><time>2021-05-20T11:11:14Z</time><name>PT4480</name></trkpt>
<trkpt lat="53.320652" lon="06.563483"><ele>21.9</ele><time>2021-05-20T11:11:16Z</time><name>PT4481</name></trkpt>
<trkpt lat="53.320663" lon="06.563487"><ele>21.9</ele><time>2021-05-20T11:11:16Z</time><name>PT4482</name></trkpt>
<trkpt lat="53.320675" lon="06.563489"><ele>21.9</ele><time>2021-05-20T11:11:17Z</time><name>PT4483</name></trkpt>
<trkpt lat="53.320687" lon="06.563490"><ele>21.9</ele><time>2021-05-20T11:11:19Z</time><name>PT4484</name></trkpt>
<trkpt lat="53.320700" lon="06.563493"><ele>21.9</ele><time>2021-05-20T11:11:19Z</time><name>PT4485</name></trkpt>
<trkpt lat="53.320713" lon="06.563494"><ele>21.9</ele><time>2021-05-20T11:11:20Z</time><name>PT4486</name></trkpt>
<trkpt lat="53.320725" lon="06.563498"><ele>22</ele><time>2021-05-20T11:11:22Z</time><name>PT4487</name></trkpt>
<trkpt lat="53.320735" lon="06.563501"><ele>22.1</ele><time>2021-05-20T11:11:22Z</time><name>PT4488</name></trkpt>
<trkpt lat="53.320747" lon="06.563505"><ele>22.2</ele><time>2021-05-20T11:11:23Z</time><name>PT4489</name></trkpt>
<trkpt lat="53.320759" lon="06.563510"><ele>22.2</ele><time>2021-05-20T11:11:25Z</time><name>PT4490</name></trkpt>
<trkpt lat="53.320771" lon="06.563514"><ele>22.1</ele><time>2021-05-20T11:11:25Z</time><name>PT4491</name></trkpt>
<trkpt lat="53.320783" lon="06.563520"><ele>22</ele><time>2021-05-20T11:11:26Z</time><name>PT4492</name></trkpt>
<trkpt lat="53.320794" lon="06.563524"><ele>21.9</ele><time>2021-05-20T11:11:28Z</time><name>PT4493</name></trkpt>
<trkpt lat="53.320807" lon="06.563528"><ele>21.8</ele><time>2021-05-20T11:11:28Z</time><name>PT4494</name></trkpt>
<trkpt lat="53.320819" lon="06.563531"><ele>21.9</ele><time>2021-05-20T11:11:29Z</time><name>PT4495</name></trkpt>
<trkpt lat="53.320831" lon="06.563534"><ele>21.9</ele><time>2021-05-20T11:11:31Z</time><name>PT4496</name></trkpt>
<trkpt lat="53.320841" lon="06.563535"><ele>21.8</ele><time>2021-05-20T11:11:31Z</time><name>PT4497</name></trkpt>
<trkpt lat="53.320853" lon="06.563537"><ele>21.9</ele><time>2021-05-20T11:11:32Z</time><name>PT4498</name></trkpt>
<trkpt lat="53.320864" lon="06.563541"><ele>21.9</ele><time>2021-05-20T11:11:34Z</time><name>PT4499</name></trkpt>
<trkpt lat="53.320876" lon="06.563546"><ele>21.9</ele><time>2021-05-20T11:11:34Z</time><name>PT4500</name></trkpt>
<trkpt lat="53.320888" lon="06.563551"><ele>21.9</ele><time>2021-05-20T11:11:35Z</time><name>PT4501</name></trkpt>
<trkpt lat="53.320900" lon="06.563556"><ele>21.9</ele><time>2021-05-20T11:11:37Z</time><name>PT4502</name></trkpt>
<trkpt lat="53.320912" lon="06.563560"><ele>21.9</ele><time>2021-05-20T11:11:37Z</time><name>PT4503</name></trkpt>
<trkpt lat="53.320922" lon="06.563564"><ele>21.9</ele><time>2021-05-20T11:11:38Z</time><name>PT4504</name></trkpt>
<trkpt lat="53.320933" lon="06.563567"><ele>22</ele><time>2021-05-20T11:11:40Z</time><name>PT4505</name></trkpt>
<trkpt lat="53.320946" lon="06.563571"><ele>21.9</ele><time>2021-05-20T11:11:40Z</time><name>PT4506</name></trkpt>
<trkpt lat="53.320957" lon="06.563571"><ele>21.9</ele><time>2021-05-20T11:11:41Z</time><name>PT4507</name></trkpt>
<trkpt lat="53.320966" lon="06.563572"><ele>21.9</ele><time>2021-05-20T11:11:43Z</time><name>PT4508</name></trkpt>
<trkpt lat="53.320977" lon="06.563578"><ele>21.9</ele><time>2021-05-20T11:11:43Z</time><name>PT4509</name></trkpt>
<trkpt lat="53.320989" lon="06.563584"><ele>21.9</ele><time>2021-05-20T11:11:44Z</time><name>PT4510</name></trkpt>
<trkpt lat="53.321001" lon="06.563589"><ele>21.9</ele><time>2021-05-20T11:11:46Z</time><name>PT4511</name></trkpt>
<trkpt lat="53.321014" lon="06.563594"><ele>21.9</ele><time>2021-05-20T11:11:46Z</time><name>PT4512</name></trkpt>
<trkpt lat="53.321027" lon="06.563600"><ele>22.1</ele><time>2021-05-20T11:11:47Z</time><name>PT4513</name></trkpt>
<trkpt lat="53.321038" lon="06.563604"><ele>22.1</ele><time>2021-05-20T11:11:49Z</time><name>PT4514</name></trkpt>
<trkpt lat="53.321050" lon="06.563608"><ele>22.1</ele><time>2021-05-20T11:11:49Z</time><name>PT4515</name></trkpt>
<trkpt lat="53.321062" lon="06.563611"><ele>22</ele><time>2021-05-20T11:11:50Z</time><name>PT4516</name></trkpt>
<trkpt lat="53.321076" lon="06.563615"><ele>22</ele><time>2021-05-20T11:11:52Z</time><name>PT4517</name></trkpt>
<trkpt lat="53.321088" lon="06.563616"><ele>22</ele><time>2021-05-20T11:11:52Z</time><name>PT4518</name></trkpt>
<trkpt lat="53.321101" lon="06.563618"><ele>22</ele><time>2021-05-20T11:11:53Z</time><name>PT4519</name></trkpt>
<trkpt lat="53.321113" lon="06.563619"><ele>22</ele><time>2021-05-20T11:11:55Z</time><name>PT4520</name></trkpt>
<trkpt lat="53.321123" lon="06.563622"><ele>21.9</ele><time>2021-05-20T11:11:55Z</time><name>PT4521</name></trkpt>
<trkpt lat="53.321135" lon="06.563627"><ele>21.9</ele><time>2021-05-20T11:11:56Z</time><name>PT4522</name></trkpt>
<trkpt lat="53.321146" lon="06.563631"><ele>22</ele><time>2021-05-20T11:11:58Z</time><name>PT4523</name></trkpt>
<trkpt lat="53.321158" lon="06.563636"><ele>22.1</ele><time>2021-05-20T11:11:58Z</time><name>PT4524</name></trkpt>
<trkpt lat="53.321170" lon="06.563642"><ele>22.1</ele><time>2021-05-20T11:11:59Z</time><name>PT4525</name></trkpt>
<trkpt lat="53.321182" lon="06.563647"><ele>22.2</ele><time>2021-05-20T11:12:01Z</time><name>PT4526</name></trkpt>
<trkpt lat="53.321195" lon="06.563652"><ele>22.1</ele><time>2021-05-20T11:12:01Z</time><name>PT4527</name></trkpt>
<trkpt lat="53.321207" lon="06.563655"><ele>22.2</ele><time>2021-05-20T11:12:02Z</time><name>PT4528</name></trkpt>
<trkpt lat="53.321219" lon="06.563659"><ele>22.2</ele><time>2021-05-20T11:12:04Z</time><name>PT4529</name></trkpt>
<trkpt lat="53.321231" lon="06.563662"><ele>22.1</ele><time>2021-05-20T11:12:04Z</time><name>PT4530</name></trkpt>
<trkpt lat="53.321244" lon="06.563666"><ele>22.2</ele><time>2021-05-20T11:12:05Z</time><name>PT4531</name></trkpt>
<trkpt lat="53.321257" lon="06.563670"><ele>22</ele><time>2021-05-20T11:12:07Z</time><name>PT4532</name></trkpt>
<trkpt lat="53.321270" lon="06.563673"><ele>22.1</ele><time>2021-05-20T11:12:07Z</time><name>PT4533</name></trkpt>
<trkpt lat="53.321283" lon="06.563676"><ele>22.3</ele><time>2021-05-20T11:12:08Z</time><name>PT4534</name></trkpt>
<trkpt lat="53.321295" lon="06.563680"><ele>22.1</ele><time>2021-05-20T11:12:10Z</time><name>PT4535</name></trkpt>
<trkpt lat="53.321307" lon="06.563683"><ele>22.1</ele><time>2021-05-20T11:12:10Z</time><name>PT4536</name></trkpt>
<trkpt lat="53.321319" lon="06.563685"><ele>22</ele><time>2021-05-20T11:12:11Z</time><name>PT4537</name></trkpt>
<trkpt lat="53.321330" lon="06.563688"><ele>22</ele><time>2021-05-20T11:12:13Z</time><name>PT4538</name></trkpt>
<trkpt lat="53.321341" lon="06.563689"><ele>22.1</ele><time>2021-05-20T11:12:13Z</time><name>PT4539</name></trkpt>
<trkpt lat="53.321352" lon="06.563691"><ele>22</ele><time>2021-05-20T11:12:14Z</time><name>PT4540</name></trkpt>
<trkpt lat="53.321363" lon="06.563695"><ele>22.1</ele><time>2021-05-20T11:12:16Z</time><name>PT4541</name></trkpt>
<trkpt lat="53.321375" lon="06.563700"><ele>22</ele><time>2021-05-20T11:12:16Z</time><name>PT4542</name></trkpt>
<trkpt lat="53.321386" lon="06.563706"><ele>22</ele><time>2021-05-20T11:12:17Z</time><name>PT4543</name></trkpt>
<trkpt lat="53.321396" lon="06.563711"><ele>22.1</ele><time>2021-05-20T11:12:19Z</time><name>PT4544</name></trkpt>
<trkpt lat="53.321407" lon="06.563715"><ele>22</ele><time>2021-05-20T11:12:19Z</time><name>PT4545</name></trkpt>
<trkpt lat="53.321418" lon="06.563719"><ele>22</ele><time>2021-05-20T11:12:20Z</time><name>PT4546</name></trkpt>
<trkpt lat="53.321431" lon="06.563725"><ele>22.1</ele><time>2021-05-20T11:12:22Z</time><name>PT4547</name></trkpt>
<trkpt lat="53.321443" lon="06.563729"><ele>22.2</ele><time>2021-05-20T11:12:22Z</time><name>PT4548</name></trkpt>
<trkpt lat="53.321456" lon="06.563734"><ele>22.4</ele><time>2021-05-20T11:12:23Z</time><name>PT4549</name></trkpt>
<trkpt lat="53.321469" lon="06.563739"><ele>22.4</ele><time>2021-05-20T11:12:25Z</time><name>PT4550</name></trkpt>
<trkpt lat="53.321482" lon="06.563744"><ele>22.3</ele><time>2021-05-20T11:12:25Z</time><name>PT4551</name></trkpt>
<trkpt lat="53.321493" lon="06.563748"><ele>22.3</ele><time>2021-05-20T11:12:26Z</time><name>PT4552</name></trkpt>
<trkpt lat="53.321505" lon="06.563754"><ele>22</ele><time>2021-05-20T11:12:28Z</time><name>PT4553</name></trkpt>
<trkpt lat="53.321516" lon="06.563757"><ele>22</ele><time>2021-05-20T11:12:28Z</time><name>PT4554</name></trkpt>
<trkpt lat="53.321527" lon="06.563761"><ele>22.2</ele><time>2021-05-20T11:12:29Z</time><name>PT4555</name></trkpt>
<trkpt lat="53.321540" lon="06.563764"><ele>22.2</ele><time>2021-05-20T11:12:31Z</time><name>PT4556</name></trkpt>
<trkpt lat="53.321552" lon="06.563767"><ele>22.1</ele><time>2021-05-20T11:12:31Z</time><name>PT4557</name></trkpt>
<trkpt lat="53.321566" lon="06.563768"><ele>22.3</ele><time>2021-05-20T11:12:32Z</time><name>PT4558</name></trkpt>
<trkpt lat="53.321579" lon="06.563770"><ele>22.2</ele><time>2021-05-20T11:12:34Z</time><name>PT4559</name></trkpt>
<trkpt lat="53.321592" lon="06.563772"><ele>22.4</ele><time>2021-05-20T11:12:34Z</time><name>PT4560</name></trkpt>
<trkpt lat="53.321606" lon="06.563775"><ele>22.3</ele><time>2021-05-20T11:12:35Z</time><name>PT4561</name></trkpt>
<trkpt lat="53.321619" lon="06.563778"><ele>22.2</ele><time>2021-05-20T11:12:37Z</time><name>PT4562</name></trkpt>
<trkpt lat="53.321632" lon="06.563781"><ele>22.2</ele><time>2021-05-20T11:12:37Z</time><name>PT4563</name></trkpt>
<trkpt lat="53.321645" lon="06.563784"><ele>22</ele><time>2021-05-20T11:12:38Z</time><name>PT4564</name></trkpt>
<trkpt lat="53.321659" lon="06.563788"><ele>21.9</ele><time>2021-05-20T11:12:40Z</time><name>PT4565</name></trkpt>
<trkpt lat="53.321671" lon="06.563792"><ele>21.9</ele><time>2021-05-20T11:12:40Z</time><name>PT4566</name></trkpt>
<trkpt lat="53.321682" lon="06.563795"><ele>22</ele><time>2021-05-20T11:12:41Z</time><name>PT4567</name></trkpt>
<trkpt lat="53.321693" lon="06.563798"><ele>22</ele><time>2021-05-20T11:12:43Z</time><name>PT4568</name></trkpt>
<trkpt lat="53.321704" lon="06.563803"><ele>22</ele><time>2021-05-20T11:12:43Z</time><name>PT4569</name></trkpt>
<trkpt lat="53.321715" lon="06.563808"><ele>22</ele><time>2021-05-20T11:12:44Z</time><name>PT4570</name></trkpt>
<trkpt lat="53.321726" lon="06.563812"><ele>22</ele><time>2021-05-20T11:12:46Z</time><name>PT4571</name></trkpt>
<trkpt lat="53.321739" lon="06.563816"><ele>21.9</ele><time>2021-05-20T11:12:46Z</time><name>PT4572</name></trkpt>
<trkpt lat="53.321752" lon="06.563821"><ele>22</ele><time>2021-05-20T11:12:47Z</time><name>PT4573</name></trkpt>
<trkpt lat="53.321765" lon="06.563827"><ele>22.1</ele><time>2021-05-20T11:12:49Z</time><name>PT4574</name></trkpt>
<trkpt lat="53.321777" lon="06.563832"><ele>22</ele><time>2021-05-20T11:12:49Z</time><name>PT4575</name></trkpt>
<trkpt lat="53.321789" lon="06.563836"><ele>21.9</ele><time>2021-05-20T11:12:50Z</time><name>PT4576</name></trkpt>
<trkpt lat="53.321801" lon="06.563841"><ele>22</ele><time>2021-05-20T11:12:52Z</time><name>PT4577</name></trkpt>
<trkpt lat="53.321812" lon="06.563844"><ele>21.9</ele><time>2021-05-20T11:12:52Z</time><name>PT4578</name></trkpt>
<trkpt lat="53.321824" lon="06.563848"><ele>22</ele><time>2021-05-20T11:12:53Z</time><name>PT4579</name></trkpt>
<trkpt lat="53.321835" lon="06.563850"><ele>22.3</ele><time>2021-05-20T11:12:55Z</time><name>PT4580</name></trkpt>
<trkpt lat="53.321847" lon="06.563854"><ele>22.1</ele><time>2021-05-20T11:12:55Z</time><name>PT4581</name></trkpt>
<trkpt lat="53.321860" lon="06.563855"><ele>22.1</ele><time>2021-05-20T11:12:56Z</time><name>PT4582</name></trkpt>
<trkpt lat="53.321870" lon="06.563858"><ele>21.9</ele><time>2021-05-20T11:12:58Z</time><name>PT4583</name></trkpt>
<trkpt lat="53.321881" lon="06.563861"><ele>21.9</ele><time>2021-05-20T11:12:58Z</time><name>PT4584</name></trkpt>
<trkpt lat="53.321891" lon="06.563864"><ele>21.7</ele><time>2021-05-20T11:12:59Z</time><name>PT4585</name></trkpt>
<trkpt lat="53.321901" lon="06.563869"><ele>21.8</ele><time>2021-05-20T11:13:01Z</time><name>PT4586</name></trkpt>
<trkpt lat="53.321911" lon="06.563875"><ele>21.8</ele><time>2021-05-20T11:13:01Z</time><name>PT4587</name></trkpt>
<trkpt lat="53.321923" lon="06.563879"><ele>21.9</ele><time>2021-05-20T11:13:02Z</time><name>PT4588</name></trkpt>
<trkpt lat="53.321934" lon="06.563882"><ele>22.2</ele><time>2021-05-20T11:13:04Z</time><name>PT4589</name></trkpt>
<trkpt lat="53.321945" lon="06.563885"><ele>22.2</ele><time>2021-05-20T11:13:04Z</time><name>PT4590</name></trkpt>
<trkpt lat="53.321957" lon="06.563886"><ele>22.1</ele><time>2021-05-20T11:13:05Z</time><name>PT4591</name></trkpt>
<trkpt lat="53.321969" lon="06.563887"><ele>22.2</ele><time>2021-05-20T11:13:07Z</time><name>PT4592</name></trkpt>
<trkpt lat="53.321980" lon="06.563889"><ele>22.1</ele><time>2021-05-20T11:13:07Z</time><name>PT4593</name></trkpt>
<trkpt lat="53.321991" lon="06.563892"><ele>22.1</ele><time>2021-05-20T11:13:08Z</time><name>PT4594</name></trkpt>
<trkpt lat="53.322002" lon="06.563895"><ele>21.9</ele><time>2021-05-20T11:13:10Z</time><name>PT4595</name></trkpt>
<trkpt lat="53.322013" lon="06.563898"><ele>21.9</ele><time>2021-05-20T11:13:10Z</time><name>PT4596</name></trkpt>
<trkpt lat="53.322025" lon="06.563902"><ele>21.7</ele><time>2021-05-20T11:13:11Z</time><name>PT4597</name></trkpt>
<trkpt lat="53.322036" lon="06.563905"><ele>21.8</ele><time>2021-05-20T11:13:13Z</time><name>PT4598</name></trkpt>
<trkpt lat="53.322047" lon="06.563910"><ele>21.7</ele><time>2021-05-20T11:13:13Z</time><name>PT4599</name></trkpt>
<trkpt lat="53.322056" lon="06.563914"><ele>21.9</ele><time>2021-05-20T11:13:14Z</time><name>PT4600</name></trkpt>
<trkpt lat="53.322064" lon="06.563916"><ele>21.9</ele><time>2021-05-20T11:13:16Z</time><name>PT4601</name></trkpt>
<trkpt lat="53.322072" lon="06.563917"><ele>22</ele><time>2021-05-20T11:13:16Z</time><name>PT4602</name></trkpt>
<trkpt lat="53.322076" lon="06.563918"><ele>22.1</ele><time>2021-05-20T11:13:17Z</time><name>PT4603</name></trkpt>
<trkpt lat="53.322085" lon="06.563924"><ele>22</ele><time>2021-05-20T11:13:19Z</time><name>PT4604</name></trkpt>
<trkpt lat="53.322096" lon="06.563929"><ele>22.2</ele><time>2021-05-20T11:13:19Z</time><name>PT4605</name></trkpt>
<trkpt lat="53.322107" lon="06.563932"><ele>22.1</ele><time>2021-05-20T11:13:20Z</time><name>PT4606</name></trkpt>
<trkpt lat="53.322118" lon="06.563936"><ele>22</ele><time>2021-05-20T11:13:22Z</time><name>PT4607</name></trkpt>
<trkpt lat="53.322129" lon="06.563940"><ele>21.9</ele><time>2021-05-20T11:13:22Z</time><name>PT4608</name></trkpt>
<trkpt lat="53.322142" lon="06.563943"><ele>21.9</ele><time>2021-05-20T11:13:23Z</time><name>PT4609</name></trkpt>
<trkpt lat="53.322155" lon="06.563946"><ele>21.9</ele><time>2021-05-20T11:13:25Z</time><name>PT4610</name></trkpt>
<trkpt lat="53.322168" lon="06.563949"><ele>21.8</ele><time>2021-05-20T11:13:25Z</time><name>PT4611</name></trkpt>
<trkpt lat="53.322181" lon="06.563952"><ele>22</ele><time>2021-05-20T11:13:26Z</time><name>PT4612</name></trkpt>
<trkpt lat="53.322193" lon="06.563955"><ele>21.9</ele><time>2021-05-20T11:13:28Z</time><name>PT4613</name></trkpt>
<trkpt lat="53.322205" lon="06.563957"><ele>21.9</ele><time>2021-05-20T11:13:28Z</time><name>PT4614</name></trkpt>
<trkpt lat="53.322217" lon="06.563960"><ele>22</ele><time>2021-05-20T11:13:29Z</time><name>PT4615</name></trkpt>
<trkpt lat="53.322228" lon="06.563962"><ele>21.9</ele><time>2021-05-20T11:13:31Z</time><name>PT4616</name></trkpt>
<trkpt lat="53.322239" lon="06.563966"><ele>22</ele><time>2021-05-20T11:13:31Z</time><name>PT4617</name></trkpt>
<trkpt lat="53.322251" lon="06.563971"><ele>22.1</ele><time>2021-05-20T11:13:32Z</time><name>PT4618</name></trkpt>
<trkpt lat="53.322263" lon="06.563977"><ele>22.1</ele><time>2021-05-20T11:13:34Z</time><name>PT4619</name></trkpt>
<trkpt lat="53.322276" lon="06.563982"><ele>22.2</ele><time>2021-05-20T11:13:34Z</time><name>PT4620</name></trkpt>
<trkpt lat="53.322288" lon="06.563987"><ele>22.3</ele><time>2021-05-20T11:13:35Z</time><name>PT4621</name></trkpt>
<trkpt lat="53.322299" lon="06.563992"><ele>22.1</ele><time>2021-05-20T11:13:37Z</time><name>PT4622</name></trkpt>
<trkpt lat="53.322311" lon="06.563995"><ele>22</ele><time>2021-05-20T11:13:37Z</time><name>PT4623</name></trkpt>
<trkpt lat="53.322323" lon="06.564000"><ele>22.1</ele><time>2021-05-20T11:13:38Z</time><name>PT4624</name></trkpt>
<trkpt lat="53.322335" lon="06.564002"><ele>21.9</ele><time>2021-05-20T11:13:40Z</time><name>PT4625</name></trkpt>
<trkpt lat="53.322346" lon="06.564005"><ele>21.9</ele><time>2021-05-20T11:13:40Z</time><name>PT4626</name></trkpt>
<trkpt lat="53.322358" lon="06.564007"><ele>21.9</ele><time>2021-05-20T11:13:41Z</time><name>PT4627</name></trkpt>
<trkpt lat="53.322370" lon="06.564010"><ele>21.9</ele><time>2021-05-20T11:13:43Z</time><name>PT4628</name></trkpt>
<trkpt lat="53.322383" lon="06.564013"><ele>21.8</ele><time>2021-05-20T11:13:43Z</time><name>PT4629</name></trkpt>
<trkpt lat="53.322394" lon="06.564016"><ele>21.9</ele><time>2021-05-20T11:13:44Z</time><name>PT4630</name></trkpt>
<trkpt lat="53.322406" lon="06.564017"><ele>22</ele><time>2021-05-20T11:13:46Z</time><name>PT4631</name></trkpt>
<trkpt lat="53.322416" lon="06.564019"><ele>21.9</ele><time>2021-05-20T11:13:46Z</time><name>PT4632</name></trkpt>
<trkpt lat="53.322427" lon="06.564023"><ele>21.9</ele><time>2021-05-20T11:13:47Z</time><name>PT4633</name></trkpt>
<trkpt lat="53.322436" lon="06.564028"><ele>21.9</ele><time>2021-05-20T11:13:49Z</time><name>PT4634</name></trkpt>
<trkpt lat="53.322448" lon="06.564033"><ele>21.8</ele><time>2021-05-20T11:13:49Z</time><name>PT4635</name></trkpt>
<trkpt lat="53.322457" lon="06.564038"><ele>21.6</ele><time>2021-05-20T11:13:50Z</time><name>PT4636</name></trkpt>
<trkpt lat="53.322468" lon="06.564042"><ele>21.6</ele><time>2021-05-20T11:13:52Z</time><name>PT4637</name></trkpt>
<trkpt lat="53.322479" lon="06.564045"><ele>21.6</ele><time>2021-05-20T11:13:52Z</time><name>PT4638</name></trkpt>
<trkpt lat="53.322489" lon="06.564047"><ele>21.6</ele><time>2021-05-20T11:13:53Z</time><name>PT4639</name></trkpt>
<trkpt lat="53.322497" lon="06.564048"><ele>21.8</ele><time>2021-05-20T11:13:55Z</time><name>PT4640</name></trkpt>
<trkpt lat="53.322500" lon="06.564051"><ele>21.9</ele><time>2021-05-20T11:13:55Z</time><name>PT4641</name></trkpt>
<trkpt lat="53.322501" lon="06.564051"><ele>21.9</ele><time>2021-05-20T11:13:56Z</time><name>PT4642</name></trkpt>
<trkpt lat="53.322500" lon="06.564050"><ele>21.9</ele><time>2021-05-20T11:13:58Z</time><name>PT4643</name></trkpt>
<trkpt lat="53.322497" lon="06.564050"><ele>21.9</ele><time>2021-05-20T11:13:58Z</time><name>PT4644</name></trkpt>
<trkpt lat="53.322497" lon="06.564053"><ele>21.7</ele><time>2021-05-20T11:13:59Z</time><name>PT4645</name></trkpt>
<trkpt lat="53.322497" lon="06.564054"><ele>21.8</ele><time>2021-05-20T11:14:01Z</time><name>PT4646</name></trkpt>
<trkpt lat="53.322498" lon="06.564054"><ele>21.9</ele><time>2021-05-20T11:14:01Z</time><name>PT4647</name></trkpt>
<trkpt lat="53.322502" lon="06.564059"><ele>21.8</ele><time>2021-05-20T11:14:05Z</time><name>PT4648</name></trkpt>
<trkpt lat="53.322514" lon="06.564071"><ele>21.9</ele><time>2021-05-20T11:14:07Z</time><name>PT4649</name></trkpt>
<trkpt lat="53.322524" lon="06.564076"><ele>21.9</ele><time>2021-05-20T11:14:07Z</time><name>PT4650</name></trkpt>
<trkpt lat="53.322534" lon="06.564081"><ele>21.7</ele><time>2021-05-20T11:14:08Z</time><name>PT4651</name></trkpt>
<trkpt lat="53.322543" lon="06.564086"><ele>21.7</ele><time>2021-05-20T11:14:10Z</time><name>PT4652</name></trkpt>
<trkpt lat="53.322553" lon="06.564089"><ele>21.6</ele><time>2021-05-20T11:14:10Z</time><name>PT4653</name></trkpt>
<trkpt lat="53.322565" lon="06.564090"><ele>21.6</ele><time>2021-05-20T11:14:11Z</time><name>PT4654</name></trkpt>
<trkpt lat="53.322573" lon="06.564093"><ele>21.7</ele><time>2021-05-20T11:14:13Z</time><name>PT4655</name></trkpt>
<trkpt lat="53.322581" lon="06.564099"><ele>21.7</ele><time>2021-05-20T11:14:13Z</time><name>PT4656</name></trkpt>
<trkpt lat="53.322589" lon="06.564104"><ele>21.9</ele><time>2021-05-20T11:14:14Z</time><name>PT4657</name></trkpt>
<trkpt lat="53.322594" lon="06.564107"><ele>21.9</ele><time>2021-05-20T11:14:16Z</time><name>PT4658</name></trkpt>
<trkpt lat="53.322597" lon="06.564108"><ele>22</ele><time>2021-05-20T11:14:16Z</time><name>PT4659</name></trkpt>
<trkpt lat="53.322601" lon="06.564109"><ele>22</ele><time>2021-05-20T11:14:17Z</time><name>PT4660</name></trkpt>
<trkpt lat="53.322606" lon="06.564112"><ele>21.9</ele><time>2021-05-20T11:14:19Z</time><name>PT4661</name></trkpt>
<trkpt lat="53.322609" lon="06.564113"><ele>21.9</ele><time>2021-05-20T11:14:19Z</time><name>PT4662</name></trkpt>
<trkpt lat="53.322609" lon="06.564112"><ele>21.8</ele><time>2021-05-20T11:14:20Z</time><name>PT4663</name></trkpt>
<trkpt lat="53.322611" lon="06.564112"><ele>21.7</ele><time>2021-05-20T11:14:22Z</time><name>PT4664</name></trkpt>
<trkpt lat="53.322615" lon="06.564117"><ele>21.7</ele><time>2021-05-20T11:14:29Z</time><name>PT4665</name></trkpt>
<trkpt lat="53.322618" lon="06.564121"><ele>21.7</ele><time>2021-05-20T11:14:31Z</time><name>PT4666</name></trkpt>
<trkpt lat="53.322618" lon="06.564123"><ele>21.6</ele><time>2021-05-20T11:14:31Z</time><name>PT4667</name></trkpt>
<trkpt lat="53.322619" lon="06.564126"><ele>21.7</ele><time>2021-05-20T11:14:32Z</time><name>PT4668</name></trkpt>
<trkpt lat="53.322623" lon="06.564132"><ele>21.9</ele><time>2021-05-20T11:14:40Z</time><name>PT4669</name></trkpt>
<trkpt lat="53.322625" lon="06.564146"><ele>22</ele><time>2021-05-20T11:14:40Z</time><name>PT4670</name></trkpt>
<trkpt lat="53.322626" lon="06.564159"><ele>22</ele><time>2021-05-20T11:14:41Z</time><name>PT4671</name></trkpt>
<trkpt lat="53.322625" lon="06.564174"><ele>21.9</ele><time>2021-05-20T11:14:43Z</time><name>PT4672</name></trkpt>
<trkpt lat="53.322629" lon="06.564189"><ele>21.9</ele><time>2021-05-20T11:14:43Z</time><name>PT4673</name></trkpt>
<trkpt lat="53.322633" lon="06.564197"><ele>21.8</ele><time>2021-05-20T11:14:44Z</time><name>PT4674</name></trkpt>
<trkpt lat="53.322634" lon="06.564214"><ele>21.9</ele><time>2021-05-20T11:14:46Z</time><name>PT4675</name></trkpt>
<trkpt lat="53.322637" lon="06.564228"><ele>21.6</ele><time>2021-05-20T11:14:46Z</time><name>PT4676</name></trkpt>
<trkpt lat="53.322642" lon="06.564243"><ele>21.7</ele><time>2021-05-20T11:14:47Z</time><name>PT4677</name></trkpt>
<trkpt lat="53.322646" lon="06.564260"><ele>21.6</ele><time>2021-05-20T11:14:49Z</time><name>PT4678</name></trkpt>
<trkpt lat="53.322650" lon="06.564276"><ele>21.8</ele><time>2021-05-20T11:14:49Z</time><name>PT4679</name></trkpt>
<trkpt lat="53.322650" lon="06.564292"><ele>21.8</ele><time>2021-05-20T11:14:50Z</time><name>PT4680</name></trkpt>
<trkpt lat="53.322652" lon="06.564305"><ele>21.9</ele><time>2021-05-20T11:14:52Z</time><name>PT4681</name></trkpt>
<trkpt lat="53.322654" lon="06.564319"><ele>21.8</ele><time>2021-05-20T11:14:52Z</time><name>PT4682</name></trkpt>
<trkpt lat="53.322655" lon="06.564331"><ele>21.8</ele><time>2021-05-20T11:14:53Z</time><name>PT4683</name></trkpt>
<trkpt lat="53.322655" lon="06.564345"><ele>21.7</ele><time>2021-05-20T11:14:55Z</time><name>PT4684</name></trkpt>
<trkpt lat="53.322657" lon="06.564362"><ele>21.6</ele><time>2021-05-20T11:14:55Z</time><name>PT4685</name></trkpt>
<trkpt lat="53.322660" lon="06.564379"><ele>21.7</ele><time>2021-05-20T11:14:56Z</time><name>PT4686</name></trkpt>
<trkpt lat="53.322662" lon="06.564397"><ele>21.6</ele><time>2021-05-20T11:14:58Z</time><name>PT4687</name></trkpt>
<trkpt lat="53.322665" lon="06.564416"><ele>21.7</ele><time>2021-05-20T11:14:58Z</time><name>PT4688</name></trkpt>
<trkpt lat="53.322667" lon="06.564433"><ele>21.6</ele><time>2021-05-20T11:14:59Z</time><name>PT4689</name></trkpt>
<trkpt lat="53.322669" lon="06.564450"><ele>21.5</ele><time>2021-05-20T11:15:01Z</time><name>PT4690</name></trkpt>
<trkpt lat="53.322671" lon="06.564468"><ele>21.7</ele><time>2021-05-20T11:15:01Z</time><name>PT4691</name></trkpt>
<trkpt lat="53.322673" lon="06.564486"><ele>21.4</ele><time>2021-05-20T11:15:02Z</time><name>PT4692</name></trkpt>
<trkpt lat="53.322674" lon="06.564504"><ele>21.3</ele><time>2021-05-20T11:15:04Z</time><name>PT4693</name></trkpt>
<trkpt lat="53.322677" lon="06.564522"><ele>21.4</ele><time>2021-05-20T11:15:04Z</time><name>PT4694</name></trkpt>
<trkpt lat="53.322682" lon="06.564542"><ele>21.2</ele><time>2021-05-20T11:15:05Z</time><name>PT4695</name></trkpt>
<trkpt lat="53.322685" lon="06.564561"><ele>21.2</ele><time>2021-05-20T11:15:07Z</time><name>PT4696</name></trkpt>
<trkpt lat="53.322688" lon="06.564577"><ele>21.3</ele><time>2021-05-20T11:15:07Z</time><name>PT4697</name></trkpt>
<trkpt lat="53.322689" lon="06.564595"><ele>21.4</ele><time>2021-05-20T11:15:08Z</time><name>PT4698</name></trkpt>
<trkpt lat="53.322691" lon="06.564614"><ele>21.4</ele><time>2021-05-20T11:15:10Z</time><name>PT4699</name></trkpt>
<trkpt lat="53.322693" lon="06.564631"><ele>21.4</ele><time>2021-05-20T11:15:10Z</time><name>PT4700</name></trkpt>
<trkpt lat="53.322695" lon="06.564647"><ele>21.5</ele><time>2021-05-20T11:15:11Z</time><name>PT4701</name></trkpt>
<trkpt lat="53.322699" lon="06.564666"><ele>21.5</ele><time>2021-05-20T11:15:13Z</time><name>PT4702</name></trkpt>
<trkpt lat="53.322701" lon="06.564680"><ele>21.6</ele><time>2021-05-20T11:15:13Z</time><name>PT4703</name></trkpt>
<trkpt lat="53.322702" lon="06.564696"><ele>21.5</ele><time>2021-05-20T11:15:14Z</time><name>PT4704</name></trkpt>
<trkpt lat="53.322705" lon="06.564712"><ele>21.5</ele><time>2021-05-20T11:15:16Z</time><name>PT4705</name></trkpt>
<trkpt lat="53.322708" lon="06.564728"><ele>21.5</ele><time>2021-05-20T11:15:16Z</time><name>PT4706</name></trkpt>
<trkpt lat="53.322711" lon="06.564745"><ele>21.5</ele><time>2021-05-20T11:15:17Z</time><name>PT4707</name></trkpt>
<trkpt lat="53.322714" lon="06.564766"><ele>21.4</ele><time>2021-05-20T11:15:19Z</time><name>PT4708</name></trkpt>
<trkpt lat="53.322715" lon="06.564783"><ele>21.4</ele><time>2021-05-20T11:15:19Z</time><name>PT4709</name></trkpt>
<trkpt lat="53.322715" lon="06.564801"><ele>21.5</ele><time>2021-05-20T11:15:20Z</time><name>PT4710</name></trkpt>
<trkpt lat="53.322715" lon="06.564823"><ele>21.5</ele><time>2021-05-20T11:15:22Z</time><name>PT4711</name></trkpt>
<trkpt lat="53.322715" lon="06.564847"><ele>21.4</ele><time>2021-05-20T11:15:22Z</time><name>PT4712</name></trkpt>
<trkpt lat="53.322716" lon="06.564868"><ele>21.5</ele><time>2021-05-20T11:15:23Z</time><name>PT4713</name></trkpt>
<trkpt lat="53.322719" lon="06.564890"><ele>21.5</ele><time>2021-05-20T11:15:25Z</time><name>PT4714</name></trkpt>
<trkpt lat="53.322722" lon="06.564911"><ele>21.5</ele><time>2021-05-20T11:15:25Z</time><name>PT4715</name></trkpt>
<trkpt lat="53.322724" lon="06.564932"><ele>21.4</ele><time>2021-05-20T11:15:26Z</time><name>PT4716</name></trkpt>
<trkpt lat="53.322726" lon="06.564952"><ele>21.5</ele><time>2021-05-20T11:15:28Z</time><name>PT4717</name></trkpt>
<trkpt lat="53.322727" lon="06.564973"><ele>21.5</ele><time>2021-05-20T11:15:28Z</time><name>PT4718</name></trkpt>
<trkpt lat="53.322728" lon="06.564993"><ele>21.5</ele><time>2021-05-20T11:15:29Z</time><name>PT4719</name></trkpt>
<trkpt lat="53.322729" lon="06.565012"><ele>21.5</ele><time>2021-05-20T11:15:31Z</time><name>PT4720</name></trkpt>
<trkpt lat="53.322731" lon="06.565030"><ele>21.4</ele><time>2021-05-20T11:15:31Z</time><name>PT4721</name></trkpt>
<trkpt lat="53.322734" lon="06.565050"><ele>21.4</ele><time>2021-05-20T11:15:32Z</time><name>PT4722</name></trkpt>
<trkpt lat="53.322735" lon="06.565068"><ele>21.4</ele><time>2021-05-20T11:15:34Z</time><name>PT4723</name></trkpt>
<trkpt lat="53.322737" lon="06.565085"><ele>21.4</ele><time>2021-05-20T11:15:34Z</time><name>PT4724</name></trkpt>
<trkpt lat="53.322739" lon="06.565104"><ele>21.3</ele><time>2021-05-20T11:15:35Z</time><name>PT4725</name></trkpt>
<trkpt lat="53.322740" lon="06.565123"><ele>21.1</ele><time>2021-05-20T11:15:37Z</time><name>PT4726</name></trkpt>
<trkpt lat="53.322742" lon="06.565140"><ele>21.3</ele><time>2021-05-20T11:15:37Z</time><name>PT4727</name></trkpt>
<trkpt lat="53.322742" lon="06.565155"><ele>21.5</ele><time>2021-05-20T11:15:38Z</time><name>PT4728</name></trkpt>
<trkpt lat="53.322741" lon="06.565163"><ele>21.4</ele><time>2021-05-20T11:15:40Z</time><name>PT4729</name></trkpt>
<trkpt lat="53.322742" lon="06.565170"><ele>21.4</ele><time>2021-05-20T11:15:40Z</time><name>PT4730</name></trkpt>
<trkpt lat="53.322744" lon="06.565184"><ele>21.5</ele><time>2021-05-20T11:15:41Z</time><name>PT4731</name></trkpt>
<trkpt lat="53.322746" lon="06.565204"><ele>21.4</ele><time>2021-05-20T11:15:43Z</time><name>PT4732</name></trkpt>
<trkpt lat="53.322747" lon="06.565225"><ele>21.5</ele><time>2021-05-20T11:15:43Z</time><name>PT4733</name></trkpt>
<trkpt lat="53.322750" lon="06.565245"><ele>21.5</ele><time>2021-05-20T11:15:44Z</time><name>PT4734</name></trkpt>
<trkpt lat="53.322750" lon="06.565261"><ele>21.4</ele><time>2021-05-20T11:15:46Z</time><name>PT4735</name></trkpt>
<trkpt lat="53.322750" lon="06.565277"><ele>21.3</ele><time>2021-05-20T11:15:46Z</time><name>PT4736</name></trkpt>
<trkpt lat="53.322750" lon="06.565295"><ele>21.3</ele><time>2021-05-20T11:15:47Z</time><name>PT4737</name></trkpt>
<trkpt lat="53.322752" lon="06.565314"><ele>21.3</ele><time>2021-05-20T11:15:49Z</time><name>PT4738</name></trkpt>
<trkpt lat="53.322755" lon="06.565334"><ele>21.1</ele><time>2021-05-20T11:15:49Z</time><name>PT4739</name></trkpt>
<trkpt lat="53.322757" lon="06.565352"><ele>21.3</ele><time>2021-05-20T11:15:50Z</time><name>PT4740</name></trkpt>
<trkpt lat="53.322758" lon="06.565370"><ele>21.4</ele><time>2021-05-20T11:15:52Z</time><name>PT4741</name></trkpt>
<trkpt lat="53.322761" lon="06.565390"><ele>21.4</ele><time>2021-05-20T11:15:52Z</time><name>PT4742</name></trkpt>
<trkpt lat="53.322763" lon="06.565410"><ele>21.5</ele><time>2021-05-20T11:15:53Z</time><name>PT4743</name></trkpt>
<trkpt lat="53.322764" lon="06.565429"><ele>21.5</ele><time>2021-05-20T11:15:55Z</time><name>PT4744</name></trkpt>
<trkpt lat="53.322764" lon="06.565449"><ele>21.5</ele><time>2021-05-20T11:15:55Z</time><name>PT4745</name></trkpt>
<trkpt lat="53.322765" lon="06.565473"><ele>21.5</ele><time>2021-05-20T11:15:56Z</time><name>PT4746</name></trkpt>
<trkpt lat="53.322766" lon="06.565494"><ele>21.3</ele><time>2021-05-20T11:15:58Z</time><name>PT4747</name></trkpt>
<trkpt lat="53.322766" lon="06.565514"><ele>21.3</ele><time>2021-05-20T11:15:58Z</time><name>PT4748</name></trkpt>
<trkpt lat="53.322768" lon="06.565533"><ele>21.1</ele><time>2021-05-20T11:15:59Z</time><name>PT4749</name></trkpt>
<trkpt lat="53.322771" lon="06.565552"><ele>21.2</ele><time>2021-05-20T11:16:01Z</time><name>PT4750</name></trkpt>
<trkpt lat="53.322773" lon="06.565572"><ele>21.1</ele><time>2021-05-20T11:16:01Z</time><name>PT4751</name></trkpt>
<trkpt lat="53.322775" lon="06.565592"><ele>21.2</ele><time>2021-05-20T11:16:02Z</time><name>PT4752</name></trkpt>
<trkpt lat="53.322776" lon="06.565610"><ele>21</ele><time>2021-05-20T11:16:04Z</time><name>PT4753</name></trkpt>
<trkpt lat="53.322777" lon="06.565629"><ele>21</ele><time>2021-05-20T11:16:04Z</time><name>PT4754</name></trkpt>
<trkpt lat="53.322777" lon="06.565652"><ele>21.1</ele><time>2021-05-20T11:16:05Z</time><name>PT4755</name></trkpt>
<trkpt lat="53.322778" lon="06.565669"><ele>21</ele><time>2021-05-20T11:16:07Z</time><name>PT4756</name></trkpt>
<trkpt lat="53.322780" lon="06.565691"><ele>21.1</ele><time>2021-05-20T11:16:07Z</time><name>PT4757</name></trkpt>
<trkpt lat="53.322783" lon="06.565711"><ele>21</ele><time>2021-05-20T11:16:08Z</time><name>PT4758</name></trkpt>
<trkpt lat="53.322784" lon="06.565729"><ele>21</ele><time>2021-05-20T11:16:09Z</time><name>PT4759</name></trkpt>
<trkpt lat="53.322786" lon="06.565748"><ele>20.7</ele><time>2021-05-20T11:16:10Z</time><name>PT4760</name></trkpt>
<trkpt lat="53.322787" lon="06.565768"><ele>20.9</ele><time>2021-05-20T11:16:12Z</time><name>PT4761</name></trkpt>
<trkpt lat="53.322787" lon="06.565787"><ele>21</ele><time>2021-05-20T11:16:12Z</time><name>PT4762</name></trkpt>
<trkpt lat="53.322786" lon="06.565807"><ele>21.1</ele><time>2021-05-20T11:16:13Z</time><name>PT4763</name></trkpt>
<trkpt lat="53.322786" lon="06.565824"><ele>21.2</ele><time>2021-05-20T11:16:15Z</time><name>PT4764</name></trkpt>
<trkpt lat="53.322787" lon="06.565842"><ele>21.1</ele><time>2021-05-20T11:16:15Z</time><name>PT4765</name></trkpt>
<trkpt lat="53.322790" lon="06.565861"><ele>21.2</ele><time>2021-05-20T11:16:16Z</time><name>PT4766</name></trkpt>
<trkpt lat="53.322792" lon="06.565882"><ele>21.2</ele><time>2021-05-20T11:16:18Z</time><name>PT4767</name></trkpt>
<trkpt lat="53.322793" lon="06.565901"><ele>21.3</ele><time>2021-05-20T11:16:18Z</time><name>PT4768</name></trkpt>
<trkpt lat="53.322794" lon="06.565921"><ele>21.5</ele><time>2021-05-20T11:16:19Z</time><name>PT4769</name></trkpt>
<trkpt lat="53.322795" lon="06.565939"><ele>21.5</ele><time>2021-05-20T11:16:21Z</time><name>PT4770</name></trkpt>
<trkpt lat="53.322794" lon="06.565960"><ele>21.4</ele><time>2021-05-20T11:16:21Z</time><name>PT4771</name></trkpt>
<trkpt lat="53.322796" lon="06.565981"><ele>21.5</ele><time>2021-05-20T11:16:22Z</time><name>PT4772</name></trkpt>
<trkpt lat="53.322797" lon="06.565996"><ele>21.2</ele><time>2021-05-20T11:16:24Z</time><name>PT4773</name></trkpt>
<trkpt lat="53.322800" lon="06.566014"><ele>21</ele><time>2021-05-20T11:16:24Z</time><name>PT4774</name></trkpt>
<trkpt lat="53.322801" lon="06.566032"><ele>21</ele><time>2021-05-20T11:16:25Z</time><name>PT4775</name></trkpt>
<trkpt lat="53.322804" lon="06.566047"><ele>21</ele><time>2021-05-20T11:16:27Z</time><name>PT4776</name></trkpt>
<trkpt lat="53.322804" lon="06.566064"><ele>20.9</ele><time>2021-05-20T11:16:27Z</time><name>PT4777</name></trkpt>
<trkpt lat="53.322807" lon="06.566084"><ele>21.1</ele><time>2021-05-20T11:16:28Z</time><name>PT4778</name></trkpt>
<trkpt lat="53.322806" lon="06.566104"><ele>21.1</ele><time>2021-05-20T11:16:30Z</time><name>PT4779</name></trkpt>
<trkpt lat="53.322807" lon="06.566123"><ele>21</ele><time>2021-05-20T11:16:30Z</time><name>PT4780</name></trkpt>
<trkpt lat="53.322808" lon="06.566141"><ele>21.1</ele><time>2021-05-20T11:16:31Z</time><name>PT4781</name></trkpt>
<trkpt lat="53.322810" lon="06.566159"><ele>21.2</ele><time>2021-05-20T11:16:33Z</time><name>PT4782</name></trkpt>
<trkpt lat="53.322812" lon="06.566176"><ele>21.1</ele><time>2021-05-20T11:16:33Z</time><name>PT4783</name></trkpt>
<trkpt lat="53.322815" lon="06.566193"><ele>21.1</ele><time>2021-05-20T11:16:34Z</time><name>PT4784</name></trkpt>
<trkpt lat="53.322817" lon="06.566214"><ele>21.1</ele><time>2021-05-20T11:16:36Z</time><name>PT4785</name></trkpt>
<trkpt lat="53.322818" lon="06.566232"><ele>21</ele><time>2021-05-20T11:16:36Z</time><name>PT4786</name></trkpt>
<trkpt lat="53.322818" lon="06.566249"><ele>21</ele><time>2021-05-20T11:16:37Z</time><name>PT4787</name></trkpt>
<trkpt lat="53.322817" lon="06.566266"><ele>21</ele><time>2021-05-20T11:16:39Z</time><name>PT4788</name></trkpt>
<trkpt lat="53.322818" lon="06.566283"><ele>21.2</ele><time>2021-05-20T11:16:39Z</time><name>PT4789</name></trkpt>
<trkpt lat="53.322820" lon="06.566299"><ele>21.3</ele><time>2021-05-20T11:16:40Z</time><name>PT4790</name></trkpt>
<trkpt lat="53.322824" lon="06.566317"><ele>21.5</ele><time>2021-05-20T11:16:42Z</time><name>PT4791</name></trkpt>
<trkpt lat="53.322828" lon="06.566335"><ele>21.4</ele><time>2021-05-20T11:16:42Z</time><name>PT4792</name></trkpt>
<trkpt lat="53.322831" lon="06.566353"><ele>21.4</ele><time>2021-05-20T11:16:43Z</time><name>PT4793</name></trkpt>
<trkpt lat="53.322833" lon="06.566371"><ele>21.2</ele><time>2021-05-20T11:16:45Z</time><name>PT4794</name></trkpt>
<trkpt lat="53.322836" lon="06.566389"><ele>21.1</ele><time>2021-05-20T11:16:45Z</time><name>PT4795</name></trkpt>
<trkpt lat="53.322838" lon="06.566403"><ele>21.2</ele><time>2021-05-20T11:16:46Z</time><name>PT4796</name></trkpt>
<trkpt lat="53.322840" lon="06.566420"><ele>21.2</ele><time>2021-05-20T11:16:48Z</time><name>PT4797</name></trkpt>
<trkpt lat="53.322842" lon="06.566438"><ele>21.3</ele><time>2021-05-20T11:16:48Z</time><name>PT4798</name></trkpt>
<trkpt lat="53.322845" lon="06.566457"><ele>21.3</ele><time>2021-05-20T11:16:49Z</time><name>PT4799</name></trkpt>
<trkpt lat="53.322847" lon="06.566476"><ele>21.3</ele><time>2021-05-20T11:16:51Z</time><name>PT4800</name></trkpt>
<trkpt lat="53.322851" lon="06.566493"><ele>21.3</ele><time>2021-05-20T11:16:51Z</time><name>PT4801</name></trkpt>
<trkpt lat="53.322855" lon="06.566513"><ele>21.3</ele><time>2021-05-20T11:16:52Z</time><name>PT4802</name></trkpt>
<trkpt lat="53.322856" lon="06.566531"><ele>21.3</ele><time>2021-05-20T11:16:54Z</time><name>PT4803</name></trkpt>
<trkpt lat="53.322858" lon="06.566549"><ele>21.3</ele><time>2021-05-20T11:16:54Z</time><name>PT4804</name></trkpt>
<trkpt lat="53.322859" lon="06.566569"><ele>21.3</ele><time>2021-05-20T11:16:55Z</time><name>PT4805</name></trkpt>
<trkpt lat="53.322859" lon="06.566590"><ele>21.3</ele><time>2021-05-20T11:16:57Z</time><name>PT4806</name></trkpt>
<trkpt lat="53.322859" lon="06.566610"><ele>21.4</ele><time>2021-05-20T11:16:57Z</time><name>PT4807</name></trkpt>
<trkpt lat="53.322858" lon="06.566628"><ele>21.5</ele><time>2021-05-20T11:16:58Z</time><name>PT4808</name></trkpt>
<trkpt lat="53.322857" lon="06.566646"><ele>21.3</ele><time>2021-05-20T11:17:00Z</time><name>PT4809</name></trkpt>
<trkpt lat="53.322858" lon="06.566664"><ele>21.4</ele><time>2021-05-20T11:17:00Z</time><name>PT4810</name></trkpt>
<trkpt lat="53.322859" lon="06.566683"><ele>21.4</ele><time>2021-05-20T11:17:01Z</time><name>PT4811</name></trkpt>
<trkpt lat="53.322860" lon="06.566703"><ele>21.3</ele><time>2021-05-20T11:17:03Z</time><name>PT4812</name></trkpt>
<trkpt lat="53.322860" lon="06.566723"><ele>21.3</ele><time>2021-05-20T11:17:03Z</time><name>PT4813</name></trkpt>
<trkpt lat="53.322860" lon="06.566744"><ele>21.5</ele><time>2021-05-20T11:17:04Z</time><name>PT4814</name></trkpt>
<trkpt lat="53.322858" lon="06.566764"><ele>21.4</ele><time>2021-05-20T11:17:06Z</time><name>PT4815</name></trkpt>
<trkpt lat="53.322856" lon="06.566783"><ele>21.4</ele><time>2021-05-20T11:17:06Z</time><name>PT4816</name></trkpt>
<trkpt lat="53.322857" lon="06.566804"><ele>21.4</ele><time>2021-05-20T11:17:07Z</time><name>PT4817</name></trkpt>
<trkpt lat="53.322857" lon="06.566824"><ele>21.5</ele><time>2021-05-20T11:17:09Z</time><name>PT4818</name></trkpt>
<trkpt lat="53.322856" lon="06.566843"><ele>21.4</ele><time>2021-05-20T11:17:09Z</time><name>PT4819</name></trkpt>
<trkpt lat="53.322856" lon="06.566863"><ele>21.5</ele><time>2021-05-20T11:17:10Z</time><name>PT4820</name></trkpt>
<trkpt lat="53.322857" lon="06.566884"><ele>21.5</ele><time>2021-05-20T11:17:12Z</time><name>PT4821</name></trkpt>
<trkpt lat="53.322858" lon="06.566903"><ele>21.5</ele><time>2021-05-20T11:17:12Z</time><name>PT4822</name></trkpt>
<trkpt lat="53.322858" lon="06.566923"><ele>21.5</ele><time>2021-05-20T11:17:13Z</time><name>PT4823</name></trkpt>
<trkpt lat="53.322860" lon="06.566943"><ele>21.4</ele><time>2021-05-20T11:17:15Z</time><name>PT4824</name></trkpt>
<trkpt lat="53.322862" lon="06.566965"><ele>21.5</ele><time>2021-05-20T11:17:15Z</time><name>PT4825</name></trkpt>
<trkpt lat="53.322865" lon="06.566985"><ele>21.4</ele><time>2021-05-20T11:17:16Z</time><name>PT4826</name></trkpt>
<trkpt lat="53.322868" lon="06.567005"><ele>21.2</ele><time>2021-05-20T11:17:18Z</time><name>PT4827</name></trkpt>
<trkpt lat="53.322870" lon="06.567025"><ele>21.2</ele><time>2021-05-20T11:17:18Z</time><name>PT4828</name></trkpt>
<trkpt lat="53.322873" lon="06.567047"><ele>21.3</ele><time>2021-05-20T11:17:19Z</time><name>PT4829</name></trkpt>
<trkpt lat="53.322874" lon="06.567067"><ele>21.4</ele><time>2021-05-20T11:17:21Z</time><name>PT4830</name></trkpt>
<trkpt lat="53.322876" lon="06.567089"><ele>21.4</ele><time>2021-05-20T11:17:21Z</time><name>PT4831</name></trkpt>
<trkpt lat="53.322877" lon="06.567110"><ele>21.5</ele><time>2021-05-20T11:17:22Z</time><name>PT4832</name></trkpt>
<trkpt lat="53.322877" lon="06.567130"><ele>21.3</ele><time>2021-05-20T11:17:24Z</time><name>PT4833</name></trkpt>
<trkpt lat="53.322880" lon="06.567149"><ele>21.2</ele><time>2021-05-20T11:17:24Z</time><name>PT4834</name></trkpt>
<trkpt lat="53.322884" lon="06.567168"><ele>21.3</ele><time>2021-05-20T11:17:25Z</time><name>PT4835</name></trkpt>
<trkpt lat="53.322889" lon="06.567186"><ele>21.3</ele><time>2021-05-20T11:17:27Z</time><name>PT4836</name></trkpt>
<trkpt lat="53.322892" lon="06.567208"><ele>21.3</ele><time>2021-05-20T11:17:27Z</time><name>PT4837</name></trkpt>
<trkpt lat="53.322896" lon="06.567228"><ele>21.6</ele><time>2021-05-20T11:17:28Z</time><name>PT4838</name></trkpt>
<trkpt lat="53.322899" lon="06.567248"><ele>21.5</ele><time>2021-05-20T11:17:30Z</time><name>PT4839</name></trkpt>
<trkpt lat="53.322902" lon="06.567266"><ele>21.6</ele><time>2021-05-20T11:17:30Z</time><name>PT4840</name></trkpt>
<trkpt lat="53.322905" lon="06.567284"><ele>21.6</ele><time>2021-05-20T11:17:31Z</time><name>PT4841</name></trkpt>
<trkpt lat="53.322905" lon="06.567303"><ele>21.5</ele><time>2021-05-20T11:17:33Z</time><name>PT4842</name></trkpt>
<trkpt lat="53.322908" lon="06.567322"><ele>21.4</ele><time>2021-05-20T11:17:33Z</time><name>PT4843</name></trkpt>
<trkpt lat="53.322910" lon="06.567340"><ele>21.4</ele><time>2021-05-20T11:17:34Z</time><name>PT4844</name></trkpt>
<trkpt lat="53.322913" lon="06.567358"><ele>21.5</ele><time>2021-05-20T11:17:36Z</time><name>PT4845</name></trkpt>
<trkpt lat="53.322915" lon="06.567377"><ele>21.4</ele><time>2021-05-20T11:17:36Z</time><name>PT4846</name></trkpt>
<trkpt lat="53.322918" lon="06.567396"><ele>21.5</ele><time>2021-05-20T11:17:37Z</time><name>PT4847</name></trkpt>
<trkpt lat="53.322922" lon="06.567416"><ele>21.4</ele><time>2021-05-20T11:17:39Z</time><name>PT4848</name></trkpt>
<trkpt lat="53.322926" lon="06.567435"><ele>21.4</ele><time>2021-05-20T11:17:39Z</time><name>PT4849</name></trkpt>
<trkpt lat="53.322929" lon="06.567453"><ele>21.5</ele><time>2021-05-20T11:17:40Z</time><name>PT4850</name></trkpt>
<trkpt lat="53.322932" lon="06.567473"><ele>21.6</ele><time>2021-05-20T11:17:42Z</time><name>PT4851</name></trkpt>
<trkpt lat="53.322935" lon="06.567491"><ele>21.5</ele><time>2021-05-20T11:17:42Z</time><name>PT4852</name></trkpt>
<trkpt lat="53.322938" lon="06.567511"><ele>21.7</ele><time>2021-05-20T11:17:43Z</time><name>PT4853</name></trkpt>
<trkpt lat="53.322940" lon="06.567531"><ele>21.7</ele><time>2021-05-20T11:17:45Z</time><name>PT4854</name></trkpt>
<trkpt lat="53.322943" lon="06.567552"><ele>21.5</ele><time>2021-05-20T11:17:45Z</time><name>PT4855</name></trkpt>
<trkpt lat="53.322946" lon="06.567570"><ele>21.5</ele><time>2021-05-20T11:17:46Z</time><name>PT4856</name></trkpt>
<trkpt lat="53.322949" lon="06.567589"><ele>21.5</ele><time>2021-05-20T11:17:48Z</time><name>PT4857</name></trkpt>
<trkpt lat="53.322952" lon="06.567610"><ele>21.5</ele><time>2021-05-20T11:17:48Z</time><name>PT4858</name></trkpt>
<trkpt lat="53.322955" lon="06.567630"><ele>21.5</ele><time>2021-05-20T11:17:49Z</time><name>PT4859</name></trkpt>
<trkpt lat="53.322959" lon="06.567651"><ele>21.5</ele><time>2021-05-20T11:17:51Z</time><name>PT4860</name></trkpt>
<trkpt lat="53.322963" lon="06.567670"><ele>21.5</ele><time>2021-05-20T11:17:51Z</time><name>PT4861</name></trkpt>
<trkpt lat="53.322967" lon="06.567689"><ele>21.3</ele><time>2021-05-20T11:17:52Z</time><name>PT4862</name></trkpt>
<trkpt lat="53.322970" lon="06.567707"><ele>21.5</ele><time>2021-05-20T11:17:54Z</time><name>PT4863</name></trkpt>
<trkpt lat="53.322972" lon="06.567724"><ele>21.4</ele><time>2021-05-20T11:17:54Z</time><name>PT4864</name></trkpt>
<trkpt lat="53.322975" lon="06.567742"><ele>21.5</ele><time>2021-05-20T11:17:55Z</time><name>PT4865</name></trkpt>
<trkpt lat="53.322977" lon="06.567761"><ele>21.7</ele><time>2021-05-20T11:17:57Z</time><name>PT4866</name></trkpt>
<trkpt lat="53.322980" lon="06.567780"><ele>21.6</ele><time>2021-05-20T11:17:57Z</time><name>PT4867</name></trkpt>
<trkpt lat="53.322982" lon="06.567797"><ele>21.6</ele><time>2021-05-20T11:17:58Z</time><name>PT4868</name></trkpt>
<trkpt lat="53.322985" lon="06.567818"><ele>21.7</ele><time>2021-05-20T11:18:00Z</time><name>PT4869</name></trkpt>
<trkpt lat="53.322988" lon="06.567838"><ele>21.5</ele><time>2021-05-20T11:18:00Z</time><name>PT4870</name></trkpt>
<trkpt lat="53.322991" lon="06.567858"><ele>21.2</ele><time>2021-05-20T11:18:01Z</time><name>PT4871</name></trkpt>
<trkpt lat="53.322993" lon="06.567878"><ele>21.2</ele><time>2021-05-20T11:18:03Z</time><name>PT4872</name></trkpt>
<trkpt lat="53.322995" lon="06.567898"><ele>21.2</ele><time>2021-05-20T11:18:03Z</time><name>PT4873</name></trkpt>
<trkpt lat="53.322996" lon="06.567914"><ele>21.4</ele><time>2021-05-20T11:18:04Z</time><name>PT4874</name></trkpt>
<trkpt lat="53.322997" lon="06.567932"><ele>21.5</ele><time>2021-05-20T11:18:06Z</time><name>PT4875</name></trkpt>
<trkpt lat="53.323000" lon="06.567951"><ele>21.5</ele><time>2021-05-20T11:18:06Z</time><name>PT4876</name></trkpt>
<trkpt lat="53.323002" lon="06.567970"><ele>21.6</ele><time>2021-05-20T11:18:07Z</time><name>PT4877</name></trkpt>
<trkpt lat="53.323004" lon="06.567988"><ele>21.5</ele><time>2021-05-20T11:18:09Z</time><name>PT4878</name></trkpt>
<trkpt lat="53.323005" lon="06.568007"><ele>21.6</ele><time>2021-05-20T11:18:09Z</time><name>PT4879</name></trkpt>
<trkpt lat="53.323006" lon="06.568027"><ele>21.7</ele><time>2021-05-20T11:18:10Z</time><name>PT4880</name></trkpt>
<trkpt lat="53.323007" lon="06.568046"><ele>21.6</ele><time>2021-05-20T11:18:11Z</time><name>PT4881</name></trkpt>
<trkpt lat="53.323009" lon="06.568068"><ele>21.5</ele><time>2021-05-20T11:18:12Z</time><name>PT4882</name></trkpt>
<trkpt lat="53.323011" lon="06.568087"><ele>21.5</ele><time>2021-05-20T11:18:14Z</time><name>PT4883</name></trkpt>
<trkpt lat="53.323014" lon="06.568107"><ele>21.5</ele><time>2021-05-20T11:18:14Z</time><name>PT4884</name></trkpt>
<trkpt lat="53.323018" lon="06.568129"><ele>21.5</ele><time>2021-05-20T11:18:15Z</time><name>PT4885</name></trkpt>
<trkpt lat="53.323022" lon="06.568151"><ele>21.5</ele><time>2021-05-20T11:18:17Z</time><name>PT4886</name></trkpt>
<trkpt lat="53.323026" lon="06.568172"><ele>21.5</ele><time>2021-05-20T11:18:17Z</time><name>PT4887</name></trkpt>
<trkpt lat="53.323030" lon="06.568190"><ele>21.5</ele><time>2021-05-20T11:18:18Z</time><name>PT4888</name></trkpt>
<trkpt lat="53.323033" lon="06.568208"><ele>21.5</ele><time>2021-05-20T11:18:20Z</time><name>PT4889</name></trkpt>
<trkpt lat="53.323036" lon="06.568225"><ele>21.6</ele><time>2021-05-20T11:18:20Z</time><name>PT4890</name></trkpt>
<trkpt lat="53.323038" lon="06.568241"><ele>21.9</ele><time>2021-05-20T11:18:21Z</time><name>PT4891</name></trkpt>
<trkpt lat="53.323038" lon="06.568259"><ele>21.9</ele><time>2021-05-20T11:18:23Z</time><name>PT4892</name></trkpt>
<trkpt lat="53.323039" lon="06.568278"><ele>21.9</ele><time>2021-05-20T11:18:23Z</time><name>PT4893</name></trkpt>
<trkpt lat="53.323040" lon="06.568297"><ele>21.7</ele><time>2021-05-20T11:18:24Z</time><name>PT4894</name></trkpt>
<trkpt lat="53.323043" lon="06.568317"><ele>21.6</ele><time>2021-05-20T11:18:26Z</time><name>PT4895</name></trkpt>
<trkpt lat="53.323045" lon="06.568335"><ele>21.6</ele><time>2021-05-20T11:18:26Z</time><name>PT4896</name></trkpt>
<trkpt lat="53.323048" lon="06.568355"><ele>21.5</ele><time>2021-05-20T11:18:27Z</time><name>PT4897</name></trkpt>
<trkpt lat="53.323052" lon="06.568375"><ele>21.5</ele><time>2021-05-20T11:18:29Z</time><name>PT4898</name></trkpt>
<trkpt lat="53.323056" lon="06.568395"><ele>21.4</ele><time>2021-05-20T11:18:29Z</time><name>PT4899</name></trkpt>
<trkpt lat="53.323060" lon="06.568414"><ele>21.3</ele><time>2021-05-20T11:18:30Z</time><name>PT4900</name></trkpt>
<trkpt lat="53.323063" lon="06.568432"><ele>21.3</ele><time>2021-05-20T11:18:32Z</time><name>PT4901</name></trkpt>
<trkpt lat="53.323065" lon="06.568450"><ele>21.5</ele><time>2021-05-20T11:18:32Z</time><name>PT4902</name></trkpt>
<trkpt lat="53.323067" lon="06.568470"><ele>21.5</ele><time>2021-05-20T11:18:33Z</time><name>PT4903</name></trkpt>
<trkpt lat="53.323069" lon="06.568489"><ele>21.6</ele><time>2021-05-20T11:18:35Z</time><name>PT4904</name></trkpt>
<trkpt lat="53.323071" lon="06.568508"><ele>21.6</ele><time>2021-05-20T11:18:35Z</time><name>PT4905</name></trkpt>
<trkpt lat="53.323073" lon="06.568527"><ele>21.4</ele><time>2021-05-20T11:18:36Z</time><name>PT4906</name></trkpt>
<trkpt lat="53.323075" lon="06.568545"><ele>21.5</ele><time>2021-05-20T11:18:38Z</time><name>PT4907</name></trkpt>
<trkpt lat="53.323078" lon="06.568562"><ele>21.5</ele><time>2021-05-20T11:18:38Z</time><name>PT4908</name></trkpt>
<trkpt lat="53.323082" lon="06.568581"><ele>21.5</ele><time>2021-05-20T11:18:39Z</time><name>PT4909</name></trkpt>
<trkpt lat="53.323085" lon="06.568599"><ele>21.7</ele><time>2021-05-20T11:18:41Z</time><name>PT4910</name></trkpt>
<trkpt lat="53.323089" lon="06.568618"><ele>21.7</ele><time>2021-05-20T11:18:41Z</time><name>PT4911</name></trkpt>
<trkpt lat="53.323093" lon="06.568635"><ele>21.8</ele><time>2021-05-20T11:18:42Z</time><name>PT4912</name></trkpt>
<trkpt lat="53.323096" lon="06.568654"><ele>21.7</ele><time>2021-05-20T11:18:43Z</time><name>PT4913</name></trkpt>
<trkpt lat="53.323098" lon="06.568674"><ele>21.7</ele><time>2021-05-20T11:18:44Z</time><name>PT4914</name></trkpt>
<trkpt lat="53.323099" lon="06.568695"><ele>21.7</ele><time>2021-05-20T11:18:45Z</time><name>PT4915</name></trkpt>
<trkpt lat="53.323100" lon="06.568715"><ele>21.6</ele><time>2021-05-20T11:18:46Z</time><name>PT4916</name></trkpt>
<trkpt lat="53.323103" lon="06.568733"><ele>21.5</ele><time>2021-05-20T11:18:48Z</time><name>PT4917</name></trkpt>
<trkpt lat="53.323107" lon="06.568753"><ele>21.5</ele><time>2021-05-20T11:18:48Z</time><name>PT4918</name></trkpt>
<trkpt lat="53.323110" lon="06.568774"><ele>21.6</ele><time>2021-05-20T11:18:49Z</time><name>PT4919</name></trkpt>
<trkpt lat="53.323114" lon="06.568794"><ele>21.7</ele><time>2021-05-20T11:18:51Z</time><name>PT4920</name></trkpt>
<trkpt lat="53.323117" lon="06.568813"><ele>21.7</ele><time>2021-05-20T11:18:51Z</time><name>PT4921</name></trkpt>
<trkpt lat="53.323120" lon="06.568832"><ele>21.8</ele><time>2021-05-20T11:18:52Z</time><name>PT4922</name></trkpt>
<trkpt lat="53.323123" lon="06.568850"><ele>21.7</ele><time>2021-05-20T11:18:54Z</time><name>PT4923</name></trkpt>
<trkpt lat="53.323126" lon="06.568870"><ele>21.9</ele><time>2021-05-20T11:18:54Z</time><name>PT4924</name></trkpt>
<trkpt lat="53.323127" lon="06.568890"><ele>21.9</ele><time>2021-05-20T11:18:55Z</time><name>PT4925</name></trkpt>
<trkpt lat="53.323129" lon="06.568909"><ele>21.8</ele><time>2021-05-20T11:18:57Z</time><name>PT4926</name></trkpt>
<trkpt lat="53.323129" lon="06.568928"><ele>21.7</ele><time>2021-05-20T11:18:57Z</time><name>PT4927</name></trkpt>
<trkpt lat="53.323130" lon="06.568947"><ele>21.5</ele><time>2021-05-20T11:18:58Z</time><name>PT4928</name></trkpt>
<trkpt lat="53.323132" lon="06.568967"><ele>21.4</ele><time>2021-05-20T11:19:00Z</time><name>PT4929</name></trkpt>
<trkpt lat="53.323134" lon="06.568987"><ele>21.5</ele><time>2021-05-20T11:19:00Z</time><name>PT4930</name></trkpt>
<trkpt lat="53.323137" lon="06.569006"><ele>21.5</ele><time>2021-05-20T11:19:01Z</time><name>PT4931</name></trkpt>
<trkpt lat="53.323140" lon="06.569024"><ele>21.5</ele><time>2021-05-20T11:19:03Z</time><name>PT4932</name></trkpt>
<trkpt lat="53.323142" lon="06.569042"><ele>21.6</ele><time>2021-05-20T11:19:03Z</time><name>PT4933</name></trkpt>
<trkpt lat="53.323143" lon="06.569060"><ele>21.6</ele><time>2021-05-20T11:19:04Z</time><name>PT4934</name></trkpt>
<trkpt lat="53.323144" lon="06.569079"><ele>21.5</ele><time>2021-05-20T11:19:05Z</time><name>PT4935</name></trkpt>
<trkpt lat="53.323145" lon="06.569098"><ele>21.6</ele><time>2021-05-20T11:19:06Z</time><name>PT4936</name></trkpt>
<trkpt lat="53.323146" lon="06.569118"><ele>21.7</ele><time>2021-05-20T11:19:07Z</time><name>PT4937</name></trkpt>
<trkpt lat="53.323147" lon="06.569138"><ele>21.7</ele><time>2021-05-20T11:19:08Z</time><name>PT4938</name></trkpt>
<trkpt lat="53.323148" lon="06.569159"><ele>21.7</ele><time>2021-05-20T11:19:10Z</time><name>PT4939</name></trkpt>
<trkpt lat="53.323149" lon="06.569178"><ele>21.5</ele><time>2021-05-20T11:19:10Z</time><name>PT4940</name></trkpt>
<trkpt lat="53.323150" lon="06.569197"><ele>21.5</ele><time>2021-05-20T11:19:11Z</time><name>PT4941</name></trkpt>
<trkpt lat="53.323152" lon="06.569219"><ele>21.5</ele><time>2021-05-20T11:19:13Z</time><name>PT4942</name></trkpt>
<trkpt lat="53.323154" lon="06.569240"><ele>21.5</ele><time>2021-05-20T11:19:13Z</time><name>PT4943</name></trkpt>
<trkpt lat="53.323156" lon="06.569261"><ele>21.5</ele><time>2021-05-20T11:19:14Z</time><name>PT4944</name></trkpt>
<trkpt lat="53.323158" lon="06.569280"><ele>21.5</ele><time>2021-05-20T11:19:15Z</time><name>PT4945</name></trkpt>
<trkpt lat="53.323161" lon="06.569301"><ele>21.6</ele><time>2021-05-20T11:19:16Z</time><name>PT4946</name></trkpt>
<trkpt lat="53.323163" lon="06.569320"><ele>21.6</ele><time>2021-05-20T11:19:18Z</time><name>PT4947</name></trkpt>
<trkpt lat="53.323167" lon="06.569338"><ele>21.7</ele><time>2021-05-20T11:19:18Z</time><name>PT4948</name></trkpt>
<trkpt lat="53.323168" lon="06.569354"><ele>21.7</ele><time>2021-05-20T11:19:19Z</time><name>PT4949</name></trkpt>
<trkpt lat="53.323169" lon="06.569371"><ele>21.6</ele><time>2021-05-20T11:19:21Z</time><name>PT4950</name></trkpt>
<trkpt lat="53.323170" lon="06.569388"><ele>21.6</ele><time>2021-05-20T11:19:21Z</time><name>PT4951</name></trkpt>
<trkpt lat="53.323171" lon="06.569408"><ele>21.8</ele><time>2021-05-20T11:19:22Z</time><name>PT4952</name></trkpt>
<trkpt lat="53.323171" lon="06.569426"><ele>21.8</ele><time>2021-05-20T11:19:23Z</time><name>PT4953</name></trkpt>
<trkpt lat="53.323169" lon="06.569444"><ele>21.7</ele><time>2021-05-20T11:19:24Z</time><name>PT4954</name></trkpt>
<trkpt lat="53.323171" lon="06.569462"><ele>21.9</ele><time>2021-05-20T11:19:26Z</time><name>PT4955</name></trkpt>
<trkpt lat="53.323175" lon="06.569481"><ele>21.8</ele><time>2021-05-20T11:19:26Z</time><name>PT4956</name></trkpt>
<trkpt lat="53.323178" lon="06.569499"><ele>21.7</ele><time>2021-05-20T11:19:27Z</time><name>PT4957</name></trkpt>
<trkpt lat="53.323182" lon="06.569518"><ele>21.7</ele><time>2021-05-20T11:19:29Z</time><name>PT4958</name></trkpt>
<trkpt lat="53.323183" lon="06.569536"><ele>21.8</ele><time>2021-05-20T11:19:29Z</time><name>PT4959</name></trkpt>
<trkpt lat="53.323185" lon="06.569549"><ele>21.7</ele><time>2021-05-20T11:19:30Z</time><name>PT4960</name></trkpt>
<trkpt lat="53.323186" lon="06.569566"><ele>21.7</ele><time>2021-05-20T11:19:32Z</time><name>PT4961</name></trkpt>
<trkpt lat="53.323186" lon="06.569584"><ele>21.8</ele><time>2021-05-20T11:19:32Z</time><name>PT4962</name></trkpt>
<trkpt lat="53.323187" lon="06.569603"><ele>21.8</ele><time>2021-05-20T11:19:33Z</time><name>PT4963</name></trkpt>
<trkpt lat="53.323188" lon="06.569624"><ele>21.9</ele><time>2021-05-20T11:19:35Z</time><name>PT4964</name></trkpt>
<trkpt lat="53.323191" lon="06.569645"><ele>21.9</ele><time>2021-05-20T11:19:35Z</time><name>PT4965</name></trkpt>
<trkpt lat="53.323193" lon="06.569663"><ele>22</ele><time>2021-05-20T11:19:36Z</time><name>PT4966</name></trkpt>
<trkpt lat="53.323194" lon="06.569684"><ele>22</ele><time>2021-05-20T11:19:37Z</time><name>PT4967</name></trkpt>
<trkpt lat="53.323197" lon="06.569704"><ele>21.8</ele><time>2021-05-20T11:19:38Z</time><name>PT4968</name></trkpt>
<trkpt lat="53.323200" lon="06.569724"><ele>21.6</ele><time>2021-05-20T11:19:40Z</time><name>PT4969</name></trkpt>
<trkpt lat="53.323204" lon="06.569746"><ele>21.5</ele><time>2021-05-20T11:19:40Z</time><name>PT4970</name></trkpt>
<trkpt lat="53.323206" lon="06.569766"><ele>21.6</ele><time>2021-05-20T11:19:41Z</time><name>PT4971</name></trkpt>
<trkpt lat="53.323208" lon="06.569786"><ele>21.7</ele><time>2021-05-20T11:19:43Z</time><name>PT4972</name></trkpt>
<trkpt lat="53.323211" lon="06.569805"><ele>21.8</ele><time>2021-05-20T11:19:43Z</time><name>PT4973</name></trkpt>
<trkpt lat="53.323214" lon="06.569822"><ele>21.8</ele><time>2021-05-20T11:19:44Z</time><name>PT4974</name></trkpt>
<trkpt lat="53.323217" lon="06.569839"><ele>21.9</ele><time>2021-05-20T11:19:46Z</time><name>PT4975</name></trkpt>
<trkpt lat="53.323219" lon="06.569857"><ele>21.8</ele><time>2021-05-20T11:19:46Z</time><name>PT4976</name></trkpt>
<trkpt lat="53.323220" lon="06.569874"><ele>21.8</ele><time>2021-05-20T11:19:47Z</time><name>PT4977</name></trkpt>
<trkpt lat="53.323221" lon="06.569893"><ele>21.6</ele><time>2021-05-20T11:19:49Z</time><name>PT4978</name></trkpt>
<trkpt lat="53.323223" lon="06.569913"><ele>21.5</ele><time>2021-05-20T11:19:49Z</time><name>PT4979</name></trkpt>
<trkpt lat="53.323225" lon="06.569933"><ele>21.6</ele><time>2021-05-20T11:19:50Z</time><name>PT4980</name></trkpt>
<trkpt lat="53.323227" lon="06.569951"><ele>21.6</ele><time>2021-05-20T11:19:52Z</time><name>PT4981</name></trkpt>
<trkpt lat="53.323230" lon="06.569971"><ele>21.7</ele><time>2021-05-20T11:19:52Z</time><name>PT4982</name></trkpt>
<trkpt lat="53.323234" lon="06.569989"><ele>21.8</ele><time>2021-05-20T11:19:53Z</time><name>PT4983</name></trkpt>
<trkpt lat="53.323237" lon="06.570007"><ele>21.5</ele><time>2021-05-20T11:19:55Z</time><name>PT4984</name></trkpt>
<trkpt lat="53.323240" lon="06.570023"><ele>21.4</ele><time>2021-05-20T11:19:55Z</time><name>PT4985</name></trkpt>
<trkpt lat="53.323241" lon="06.570039"><ele>21.4</ele><time>2021-05-20T11:19:56Z</time><name>PT4986</name></trkpt>
<trkpt lat="53.323241" lon="06.570055"><ele>21.4</ele><time>2021-05-20T11:19:57Z</time><name>PT4987</name></trkpt>
<trkpt lat="53.323243" lon="06.570074"><ele>21.4</ele><time>2021-05-20T11:19:58Z</time><name>PT4988</name></trkpt>
<trkpt lat="53.323245" lon="06.570093"><ele>21.6</ele><time>2021-05-20T11:20:00Z</time><name>PT4989</name></trkpt>
<trkpt lat="53.323247" lon="06.570112"><ele>21.6</ele><time>2021-05-20T11:20:00Z</time><name>PT4990</name></trkpt>
<trkpt lat="53.323250" lon="06.570130"><ele>21.7</ele><time>2021-05-20T11:20:01Z</time><name>PT4991</name></trkpt>
<trkpt lat="53.323254" lon="06.570148"><ele>21.8</ele><time>2021-05-20T11:20:03Z</time><name>PT4992</name></trkpt>
<trkpt lat="53.323258" lon="06.570165"><ele>21.9</ele><time>2021-05-20T11:20:03Z</time><name>PT4993</name></trkpt>
<trkpt lat="53.323260" lon="06.570180"><ele>21.9</ele><time>2021-05-20T11:20:04Z</time><name>PT4994</name></trkpt>
<trkpt lat="53.323262" lon="06.570197"><ele>21.9</ele><time>2021-05-20T11:20:06Z</time><name>PT4995</name></trkpt>
<trkpt lat="53.323263" lon="06.570215"><ele>21.9</ele><time>2021-05-20T11:20:06Z</time><name>PT4996</name></trkpt>
<trkpt lat="53.323266" lon="06.570237"><ele>21.9</ele><time>2021-05-20T11:20:07Z</time><name>PT4997</name></trkpt>
<trkpt lat="53.323269" lon="06.570257"><ele>21.9</ele><time>2021-05-20T11:20:09Z</time><name>PT4998</name></trkpt>
<trkpt lat="53.323271" lon="06.570275"><ele>21.9</ele><time>2021-05-20T11:20:09Z</time><name>PT4999</name></trkpt>
<trkpt lat="53.323273" lon="06.570294"><ele>21.6</ele><time>2021-05-20T11:20:10Z</time><name>PT5000</name></trkpt>
<trkpt lat="53.323275" lon="06.570313"><ele>21.4</ele><time>2021-05-20T11:20:11Z</time><name>PT5001</name></trkpt>
<trkpt lat="53.323278" lon="06.570331"><ele>21.4</ele><time>2021-05-20T11:20:12Z</time><name>PT5002</name></trkpt>
<trkpt lat="53.323281" lon="06.570348"><ele>21.5</ele><time>2021-05-20T11:20:13Z</time><name>PT5003</name></trkpt>
<trkpt lat="53.323283" lon="06.570365"><ele>21.5</ele><time>2021-05-20T11:20:14Z</time><name>PT5004</name></trkpt>
<trkpt lat="53.323284" lon="06.570383"><ele>21.8</ele><time>2021-05-20T11:20:15Z</time><name>PT5005</name></trkpt>
<trkpt lat="53.323285" lon="06.570403"><ele>21.8</ele><time>2021-05-20T11:20:16Z</time><name>PT5006</name></trkpt>
<trkpt lat="53.323286" lon="06.570423"><ele>21.8</ele><time>2021-05-20T11:20:18Z</time><name>PT5007</name></trkpt>
<trkpt lat="53.323288" lon="06.570444"><ele>21.9</ele><time>2021-05-20T11:20:18Z</time><name>PT5008</name></trkpt>
<trkpt lat="53.323291" lon="06.570463"><ele>21.9</ele><time>2021-05-20T11:20:19Z</time><name>PT5009</name></trkpt>
<trkpt lat="53.323294" lon="06.570482"><ele>22</ele><time>2021-05-20T11:20:20Z</time><name>PT5010</name></trkpt>
<trkpt lat="53.323296" lon="06.570501"><ele>22</ele><time>2021-05-20T11:20:21Z</time><name>PT5011</name></trkpt>
<trkpt lat="53.323298" lon="06.570518"><ele>21.9</ele><time>2021-05-20T11:20:22Z</time><name>PT5012</name></trkpt>
<trkpt lat="53.323300" lon="06.570534"><ele>21.9</ele><time>2021-05-20T11:20:23Z</time><name>PT5013</name></trkpt>
<trkpt lat="53.323302" lon="06.570552"><ele>21.9</ele><time>2021-05-20T11:20:25Z</time><name>PT5014</name></trkpt>
<trkpt lat="53.323304" lon="06.570570"><ele>22.2</ele><time>2021-05-20T11:20:25Z</time><name>PT5015</name></trkpt>
<trkpt lat="53.323305" lon="06.570588"><ele>22.2</ele><time>2021-05-20T11:20:26Z</time><name>PT5016</name></trkpt>
<trkpt lat="53.323306" lon="06.570606"><ele>22.1</ele><time>2021-05-20T11:20:28Z</time><name>PT5017</name></trkpt>
<trkpt lat="53.323308" lon="06.570623"><ele>22.2</ele><time>2021-05-20T11:20:28Z</time><name>PT5018</name></trkpt>
<trkpt lat="53.323311" lon="06.570642"><ele>22.1</ele><time>2021-05-20T11:20:29Z</time><name>PT5019</name></trkpt>
<trkpt lat="53.323314" lon="06.570661"><ele>22</ele><time>2021-05-20T11:20:31Z</time><name>PT5020</name></trkpt>
<trkpt lat="53.323317" lon="06.570678"><ele>22</ele><time>2021-05-20T11:20:31Z</time><name>PT5021</name></trkpt>
<trkpt lat="53.323318" lon="06.570694"><ele>21.9</ele><time>2021-05-20T11:20:33Z</time><name>PT5022</name></trkpt>
<trkpt lat="53.323319" lon="06.570712"><ele>21.8</ele><time>2021-05-20T11:20:33Z</time><name>PT5023</name></trkpt>
<trkpt lat="53.323321" lon="06.570732"><ele>21.6</ele><time>2021-05-20T11:20:34Z</time><name>PT5024</name></trkpt>
<trkpt lat="53.323322" lon="06.570751"><ele>21.6</ele><time>2021-05-20T11:20:35Z</time><name>PT5025</name></trkpt>
<trkpt lat="53.323325" lon="06.570772"><ele>21.6</ele><time>2021-05-20T11:20:36Z</time><name>PT5026</name></trkpt>
<trkpt lat="53.323327" lon="06.570792"><ele>21.8</ele><time>2021-05-20T11:20:38Z</time><name>PT5027</name></trkpt>
<trkpt lat="53.323330" lon="06.570810"><ele>21.8</ele><time>2021-05-20T11:20:38Z</time><name>PT5028</name></trkpt>
<trkpt lat="53.323332" lon="06.570827"><ele>21.9</ele><time>2021-05-20T11:20:39Z</time><name>PT5029</name></trkpt>
<trkpt lat="53.323334" lon="06.570844"><ele>21.8</ele><time>2021-05-20T11:20:41Z</time><name>PT5030</name></trkpt>
<trkpt lat="53.323336" lon="06.570863"><ele>21.9</ele><time>2021-05-20T11:20:41Z</time><name>PT5031</name></trkpt>
<trkpt lat="53.323336" lon="06.570881"><ele>21.9</ele><time>2021-05-20T11:20:42Z</time><name>PT5032</name></trkpt>
<trkpt lat="53.323337" lon="06.570899"><ele>21.9</ele><time>2021-05-20T11:20:43Z</time><name>PT5033</name></trkpt>
<trkpt lat="53.323339" lon="06.570917"><ele>21.9</ele><time>2021-05-20T11:20:44Z</time><name>PT5034</name></trkpt>
<trkpt lat="53.323341" lon="06.570935"><ele>21.9</ele><time>2021-05-20T11:20:45Z</time><name>PT5035</name></trkpt>
<trkpt lat="53.323343" lon="06.570953"><ele>21.8</ele><time>2021-05-20T11:20:47Z</time><name>PT5036</name></trkpt>
<trkpt lat="53.323346" lon="06.570971"><ele>21.9</ele><time>2021-05-20T11:20:47Z</time><name>PT5037</name></trkpt>
<trkpt lat="53.323348" lon="06.570989"><ele>21.8</ele><time>2021-05-20T11:20:48Z</time><name>PT5038</name></trkpt>
<trkpt lat="53.323348" lon="06.571007"><ele>21.7</ele><time>2021-05-20T11:20:50Z</time><name>PT5039</name></trkpt>
<trkpt lat="53.323349" lon="06.571026"><ele>21.8</ele><time>2021-05-20T11:20:50Z</time><name>PT5040</name></trkpt>
<trkpt lat="53.323349" lon="06.571045"><ele>21.8</ele><time>2021-05-20T11:20:51Z</time><name>PT5041</name></trkpt>
<trkpt lat="53.323350" lon="06.571065"><ele>22</ele><time>2021-05-20T11:20:53Z</time><name>PT5042</name></trkpt>
<trkpt lat="53.323352" lon="06.571082"><ele>21.9</ele><time>2021-05-20T11:20:53Z</time><name>PT5043</name></trkpt>
<trkpt lat="53.323355" lon="06.571100"><ele>21.9</ele><time>2021-05-20T11:20:54Z</time><name>PT5044</name></trkpt>
<trkpt lat="53.323356" lon="06.571117"><ele>21.7</ele><time>2021-05-20T11:20:56Z</time><name>PT5045</name></trkpt>
<trkpt lat="53.323357" lon="06.571134"><ele>21.6</ele><time>2021-05-20T11:20:56Z</time><name>PT5046</name></trkpt>
<trkpt lat="53.323357" lon="06.571150"><ele>21.7</ele><time>2021-05-20T11:20:57Z</time><name>PT5047</name></trkpt>
<trkpt lat="53.323356" lon="06.571168"><ele>21.8</ele><time>2021-05-20T11:20:59Z</time><name>PT5048</name></trkpt>
<trkpt lat="53.323357" lon="06.571188"><ele>21.8</ele><time>2021-05-20T11:20:59Z</time><name>PT5049</name></trkpt>
<trkpt lat="53.323360" lon="06.571208"><ele>21.8</ele><time>2021-05-20T11:21:00Z</time><name>PT5050</name></trkpt>
<trkpt lat="53.323363" lon="06.571227"><ele>21.7</ele><time>2021-05-20T11:21:02Z</time><name>PT5051</name></trkpt>
<trkpt lat="53.323364" lon="06.571246"><ele>21.8</ele><time>2021-05-20T11:21:02Z</time><name>PT5052</name></trkpt>
<trkpt lat="53.323367" lon="06.571265"><ele>21.9</ele><time>2021-05-20T11:21:03Z</time><name>PT5053</name></trkpt>
<trkpt lat="53.323368" lon="06.571282"><ele>21.9</ele><time>2021-05-20T11:21:05Z</time><name>PT5054</name></trkpt>
<trkpt lat="53.323370" lon="06.571297"><ele>21.9</ele><time>2021-05-20T11:21:05Z</time><name>PT5055</name></trkpt>
<trkpt lat="53.323371" lon="06.571313"><ele>21.7</ele><time>2021-05-20T11:21:06Z</time><name>PT5056</name></trkpt>
<trkpt lat="53.323371" lon="06.571331"><ele>21.7</ele><time>2021-05-20T11:21:08Z</time><name>PT5057</name></trkpt>
<trkpt lat="53.323372" lon="06.571350"><ele>21.6</ele><time>2021-05-20T11:21:08Z</time><name>PT5058</name></trkpt>
<trkpt lat="53.323373" lon="06.571368"><ele>21.5</ele><time>2021-05-20T11:21:09Z</time><name>PT5059</name></trkpt>
<trkpt lat="53.323373" lon="06.571385"><ele>21.6</ele><time>2021-05-20T11:21:11Z</time><name>PT5060</name></trkpt>
<trkpt lat="53.323375" lon="06.571403"><ele>21.7</ele><time>2021-05-20T11:21:11Z</time><name>PT5061</name></trkpt>
<trkpt lat="53.323378" lon="06.571423"><ele>21.8</ele><time>2021-05-20T11:21:12Z</time><name>PT5062</name></trkpt>
<trkpt lat="53.323380" lon="06.571441"><ele>21.9</ele><time>2021-05-20T11:21:14Z</time><name>PT5063</name></trkpt>
<trkpt lat="53.323382" lon="06.571459"><ele>21.9</ele><time>2021-05-20T11:21:14Z</time><name>PT5064</name></trkpt>
<trkpt lat="53.323386" lon="06.571477"><ele>21.7</ele><time>2021-05-20T11:21:15Z</time><name>PT5065</name></trkpt>
<trkpt lat="53.323388" lon="06.571493"><ele>21.6</ele><time>2021-05-20T11:21:17Z</time><name>PT5066</name></trkpt>
<trkpt lat="53.323389" lon="06.571510"><ele>21.5</ele><time>2021-05-20T11:21:17Z</time><name>PT5067</name></trkpt>
<trkpt lat="53.323391" lon="06.571528"><ele>21.6</ele><time>2021-05-20T11:21:18Z</time><name>PT5068</name></trkpt>
<trkpt lat="53.323393" lon="06.571548"><ele>21.7</ele><time>2021-05-20T11:21:19Z</time><name>PT5069</name></trkpt>
<trkpt lat="53.323395" lon="06.571568"><ele>21.9</ele><time>2021-05-20T11:21:20Z</time><name>PT5070</name></trkpt>
<trkpt lat="53.323397" lon="06.571587"><ele>21.9</ele><time>2021-05-20T11:21:21Z</time><name>PT5071</name></trkpt>
<trkpt lat="53.323399" lon="06.571606"><ele>21.9</ele><time>2021-05-20T11:21:22Z</time><name>PT5072</name></trkpt>
<trkpt lat="53.323402" lon="06.571624"><ele>21.9</ele><time>2021-05-20T11:21:24Z</time><name>PT5073</name></trkpt>
<trkpt lat="53.323407" lon="06.571643"><ele>21.7</ele><time>2021-05-20T11:21:24Z</time><name>PT5074</name></trkpt>
<trkpt lat="53.323410" lon="06.571661"><ele>21.7</ele><time>2021-05-20T11:21:25Z</time><name>PT5075</name></trkpt>
<trkpt lat="53.323413" lon="06.571679"><ele>21.5</ele><time>2021-05-20T11:21:27Z</time><name>PT5076</name></trkpt>
<trkpt lat="53.323415" lon="06.571695"><ele>21.6</ele><time>2021-05-20T11:21:27Z</time><name>PT5077</name></trkpt>
<trkpt lat="53.323417" lon="06.571712"><ele>21.6</ele><time>2021-05-20T11:21:28Z</time><name>PT5078</name></trkpt>
<trkpt lat="53.323419" lon="06.571730"><ele>21.6</ele><time>2021-05-20T11:21:30Z</time><name>PT5079</name></trkpt>
<trkpt lat="53.323420" lon="06.571747"><ele>21.8</ele><time>2021-05-20T11:21:30Z</time><name>PT5080</name></trkpt>
<trkpt lat="53.323422" lon="06.571766"><ele>21.7</ele><time>2021-05-20T11:21:31Z</time><name>PT5081</name></trkpt>
<trkpt lat="53.323425" lon="06.571783"><ele>21.9</ele><time>2021-05-20T11:21:33Z</time><name>PT5082</name></trkpt>
<trkpt lat="53.323428" lon="06.571799"><ele>21.9</ele><time>2021-05-20T11:21:33Z</time><name>PT5083</name></trkpt>
<trkpt lat="53.323430" lon="06.571816"><ele>21.8</ele><time>2021-05-20T11:21:34Z</time><name>PT5084</name></trkpt>
<trkpt lat="53.323433" lon="06.571834"><ele>21.8</ele><time>2021-05-20T11:21:36Z</time><name>PT5085</name></trkpt>
<trkpt lat="53.323436" lon="06.571853"><ele>21.7</ele><time>2021-05-20T11:21:36Z</time><name>PT5086</name></trkpt>
<trkpt lat="53.323438" lon="06.571871"><ele>21.7</ele><time>2021-05-20T11:21:37Z</time><name>PT5087</name></trkpt>
<trkpt lat="53.323441" lon="06.571892"><ele>21.8</ele><time>2021-05-20T11:21:39Z</time><name>PT5088</name></trkpt>
<trkpt lat="53.323443" lon="06.571912"><ele>21.9</ele><time>2021-05-20T11:21:39Z</time><name>PT5089</name></trkpt>
<trkpt lat="53.323444" lon="06.571931"><ele>21.7</ele><time>2021-05-20T11:21:40Z</time><name>PT5090</name></trkpt>
<trkpt lat="53.323447" lon="06.571949"><ele>21.6</ele><time>2021-05-20T11:21:41Z</time><name>PT5091</name></trkpt>
<trkpt lat="53.323450" lon="06.571966"><ele>21.5</ele><time>2021-05-20T11:21:42Z</time><name>PT5092</name></trkpt>
<trkpt lat="53.323453" lon="06.571984"><ele>21.5</ele><time>2021-05-20T11:21:43Z</time><name>PT5093</name></trkpt>
<trkpt lat="53.323457" lon="06.572003"><ele>21.3</ele><time>2021-05-20T11:21:44Z</time><name>PT5094</name></trkpt>
<trkpt lat="53.323462" lon="06.572022"><ele>21.1</ele><time>2021-05-20T11:21:46Z</time><name>PT5095</name></trkpt>
<trkpt lat="53.323465" lon="06.572041"><ele>21.3</ele><time>2021-05-20T11:21:46Z</time><name>PT5096</name></trkpt>
<trkpt lat="53.323468" lon="06.572059"><ele>21.5</ele><time>2021-05-20T11:21:47Z</time><name>PT5097</name></trkpt>
<trkpt lat="53.323470" lon="06.572078"><ele>21.6</ele><time>2021-05-20T11:21:49Z</time><name>PT5098</name></trkpt>
<trkpt lat="53.323472" lon="06.572097"><ele>21.8</ele><time>2021-05-20T11:21:49Z</time><name>PT5099</name></trkpt>
<trkpt lat="53.323476" lon="06.572115"><ele>21.9</ele><time>2021-05-20T11:21:50Z</time><name>PT5100</name></trkpt>
<trkpt lat="53.323479" lon="06.572133"><ele>21.9</ele><time>2021-05-20T11:21:52Z</time><name>PT5101</name></trkpt>
<trkpt lat="53.323481" lon="06.572151"><ele>22</ele><time>2021-05-20T11:21:52Z</time><name>PT5102</name></trkpt>
<trkpt lat="53.323484" lon="06.572167"><ele>22</ele><time>2021-05-20T11:21:53Z</time><name>PT5103</name></trkpt>
<trkpt lat="53.323486" lon="06.572183"><ele>21.9</ele><time>2021-05-20T11:21:55Z</time><name>PT5104</name></trkpt>
<trkpt lat="53.323487" lon="06.572199"><ele>21.9</ele><time>2021-05-20T11:21:55Z</time><name>PT5105</name></trkpt>
<trkpt lat="53.323490" lon="06.572218"><ele>21.9</ele><time>2021-05-20T11:21:56Z</time><name>PT5106</name></trkpt>
<trkpt lat="53.323492" lon="06.572237"><ele>21.9</ele><time>2021-05-20T11:21:58Z</time><name>PT5107</name></trkpt>
<trkpt lat="53.323494" lon="06.572255"><ele>21.9</ele><time>2021-05-20T11:21:58Z</time><name>PT5108</name></trkpt>
<trkpt lat="53.323498" lon="06.572273"><ele>21.9</ele><time>2021-05-20T11:21:59Z</time><name>PT5109</name></trkpt>
<trkpt lat="53.323502" lon="06.572291"><ele>21.8</ele><time>2021-05-20T11:22:01Z</time><name>PT5110</name></trkpt>
<trkpt lat="53.323507" lon="06.572310"><ele>21.8</ele><time>2021-05-20T11:22:01Z</time><name>PT5111</name></trkpt>
<trkpt lat="53.323509" lon="06.572326"><ele>21.9</ele><time>2021-05-20T11:22:02Z</time><name>PT5112</name></trkpt>
<trkpt lat="53.323510" lon="06.572342"><ele>22.1</ele><time>2021-05-20T11:22:04Z</time><name>PT5113</name></trkpt>
<trkpt lat="53.323510" lon="06.572360"><ele>22.1</ele><time>2021-05-20T11:22:04Z</time><name>PT5114</name></trkpt>
<trkpt lat="53.323512" lon="06.572379"><ele>21.9</ele><time>2021-05-20T11:22:05Z</time><name>PT5115</name></trkpt>
<trkpt lat="53.323515" lon="06.572399"><ele>21.9</ele><time>2021-05-20T11:22:07Z</time><name>PT5116</name></trkpt>
<trkpt lat="53.323518" lon="06.572421"><ele>21.9</ele><time>2021-05-20T11:22:07Z</time><name>PT5117</name></trkpt>
<trkpt lat="53.323521" lon="06.572442"><ele>21.9</ele><time>2021-05-20T11:22:08Z</time><name>PT5118</name></trkpt>
<trkpt lat="53.323524" lon="06.572461"><ele>22</ele><time>2021-05-20T11:22:10Z</time><name>PT5119</name></trkpt>
<trkpt lat="53.323528" lon="06.572478"><ele>21.9</ele><time>2021-05-20T11:22:10Z</time><name>PT5120</name></trkpt>
<trkpt lat="53.323530" lon="06.572497"><ele>21.9</ele><time>2021-05-20T11:22:11Z</time><name>PT5121</name></trkpt>
<trkpt lat="53.323531" lon="06.572515"><ele>21.9</ele><time>2021-05-20T11:22:12Z</time><name>PT5122</name></trkpt>
<trkpt lat="53.323532" lon="06.572534"><ele>21.8</ele><time>2021-05-20T11:22:13Z</time><name>PT5123</name></trkpt>
<trkpt lat="53.323533" lon="06.572555"><ele>21.9</ele><time>2021-05-20T11:22:15Z</time><name>PT5124</name></trkpt>
<trkpt lat="53.323535" lon="06.572573"><ele>21.8</ele><time>2021-05-20T11:22:15Z</time><name>PT5125</name></trkpt>
<trkpt lat="53.323536" lon="06.572591"><ele>21.8</ele><time>2021-05-20T11:22:16Z</time><name>PT5126</name></trkpt>
<trkpt lat="53.323537" lon="06.572608"><ele>21.7</ele><time>2021-05-20T11:22:17Z</time><name>PT5127</name></trkpt>
<trkpt lat="53.323540" lon="06.572626"><ele>21.9</ele><time>2021-05-20T11:22:18Z</time><name>PT5128</name></trkpt>
<trkpt lat="53.323544" lon="06.572645"><ele>21.9</ele><time>2021-05-20T11:22:20Z</time><name>PT5129</name></trkpt>
<trkpt lat="53.323547" lon="06.572662"><ele>21.9</ele><time>2021-05-20T11:22:20Z</time><name>PT5130</name></trkpt>
<trkpt lat="53.323550" lon="06.572681"><ele>22</ele><time>2021-05-20T11:22:21Z</time><name>PT5131</name></trkpt>
<trkpt lat="53.323551" lon="06.572699"><ele>22</ele><time>2021-05-20T11:22:23Z</time><name>PT5132</name></trkpt>
<trkpt lat="53.323552" lon="06.572718"><ele>22.1</ele><time>2021-05-20T11:22:23Z</time><name>PT5133</name></trkpt>
<trkpt lat="53.323555" lon="06.572736"><ele>22</ele><time>2021-05-20T11:22:24Z</time><name>PT5134</name></trkpt>
<trkpt lat="53.323557" lon="06.572757"><ele>21.9</ele><time>2021-05-20T11:22:26Z</time><name>PT5135</name></trkpt>
<trkpt lat="53.323559" lon="06.572776"><ele>21.9</ele><time>2021-05-20T11:22:26Z</time><name>PT5136</name></trkpt>
<trkpt lat="53.323562" lon="06.572794"><ele>21.9</ele><time>2021-05-20T11:22:27Z</time><name>PT5137</name></trkpt>
<trkpt lat="53.323565" lon="06.572812"><ele>22</ele><time>2021-05-20T11:22:29Z</time><name>PT5138</name></trkpt>
<trkpt lat="53.323567" lon="06.572828"><ele>22</ele><time>2021-05-20T11:22:29Z</time><name>PT5139</name></trkpt>
<trkpt lat="53.323567" lon="06.572846"><ele>22.1</ele><time>2021-05-20T11:22:30Z</time><name>PT5140</name></trkpt>
<trkpt lat="53.323570" lon="06.572865"><ele>21.9</ele><time>2021-05-20T11:22:32Z</time><name>PT5141</name></trkpt>
<trkpt lat="53.323572" lon="06.572886"><ele>21.9</ele><time>2021-05-20T11:22:32Z</time><name>PT5142</name></trkpt>
<trkpt lat="53.323574" lon="06.572905"><ele>21.9</ele><time>2021-05-20T11:22:33Z</time><name>PT5143</name></trkpt>
<trkpt lat="53.323575" lon="06.572923"><ele>21.8</ele><time>2021-05-20T11:22:35Z</time><name>PT5144</name></trkpt>
<trkpt lat="53.323578" lon="06.572942"><ele>21.7</ele><time>2021-05-20T11:22:35Z</time><name>PT5145</name></trkpt>
<trkpt lat="53.323579" lon="06.572960"><ele>21.6</ele><time>2021-05-20T11:22:36Z</time><name>PT5146</name></trkpt>
<trkpt lat="53.323582" lon="06.572977"><ele>21.7</ele><time>2021-05-20T11:22:38Z</time><name>PT5147</name></trkpt>
<trkpt lat="53.323583" lon="06.572995"><ele>21.7</ele><time>2021-05-20T11:22:38Z</time><name>PT5148</name></trkpt>
<trkpt lat="53.323584" lon="06.573011"><ele>21.9</ele><time>2021-05-20T11:22:39Z</time><name>PT5149</name></trkpt>
<trkpt lat="53.323584" lon="06.573029"><ele>22.1</ele><time>2021-05-20T11:22:41Z</time><name>PT5150</name></trkpt>
<trkpt lat="53.323586" lon="06.573048"><ele>22</ele><time>2021-05-20T11:22:41Z</time><name>PT5151</name></trkpt>
<trkpt lat="53.323586" lon="06.573066"><ele>22</ele><time>2021-05-20T11:22:42Z</time><name>PT5152</name></trkpt>
<trkpt lat="53.323588" lon="06.573083"><ele>21.9</ele><time>2021-05-20T11:22:44Z</time><name>PT5153</name></trkpt>
<trkpt lat="53.323591" lon="06.573101"><ele>21.9</ele><time>2021-05-20T11:22:44Z</time><name>PT5154</name></trkpt>
<trkpt lat="53.323594" lon="06.573119"><ele>21.7</ele><time>2021-05-20T11:22:45Z</time><name>PT5155</name></trkpt>
<trkpt lat="53.323596" lon="06.573135"><ele>21.8</ele><time>2021-05-20T11:22:47Z</time><name>PT5156</name></trkpt>
<trkpt lat="53.323598" lon="06.573151"><ele>21.9</ele><time>2021-05-20T11:22:47Z</time><name>PT5157</name></trkpt>
<trkpt lat="53.323601" lon="06.573170"><ele>21.9</ele><time>2021-05-20T11:22:48Z</time><name>PT5158</name></trkpt>
<trkpt lat="53.323603" lon="06.573189"><ele>21.9</ele><time>2021-05-20T11:22:50Z</time><name>PT5159</name></trkpt>
<trkpt lat="53.323605" lon="06.573207"><ele>21.9</ele><time>2021-05-20T11:22:50Z</time><name>PT5160</name></trkpt>
<trkpt lat="53.323607" lon="06.573225"><ele>21.7</ele><time>2021-05-20T11:22:51Z</time><name>PT5161</name></trkpt>
<trkpt lat="53.323609" lon="06.573242"><ele>21.9</ele><time>2021-05-20T11:22:53Z</time><name>PT5162</name></trkpt>
<trkpt lat="53.323610" lon="06.573258"><ele>21.7</ele><time>2021-05-20T11:22:53Z</time><name>PT5163</name></trkpt>
<trkpt lat="53.323612" lon="06.573274"><ele>21.9</ele><time>2021-05-20T11:22:54Z</time><name>PT5164</name></trkpt>
<trkpt lat="53.323614" lon="06.573289"><ele>22</ele><time>2021-05-20T11:22:56Z</time><name>PT5165</name></trkpt>
<trkpt lat="53.323615" lon="06.573306"><ele>21.9</ele><time>2021-05-20T11:22:56Z</time><name>PT5166</name></trkpt>
<trkpt lat="53.323616" lon="06.573326"><ele>22</ele><time>2021-05-20T11:22:57Z</time><name>PT5167</name></trkpt>
<trkpt lat="53.323618" lon="06.573346"><ele>22</ele><time>2021-05-20T11:22:59Z</time><name>PT5168</name></trkpt>
<trkpt lat="53.323619" lon="06.573364"><ele>21.9</ele><time>2021-05-20T11:22:59Z</time><name>PT5169</name></trkpt>
<trkpt lat="53.323620" lon="06.573383"><ele>21.8</ele><time>2021-05-20T11:23:00Z</time><name>PT5170</name></trkpt>
<trkpt lat="53.323624" lon="06.573403"><ele>21.8</ele><time>2021-05-20T11:23:02Z</time><name>PT5171</name></trkpt>
<trkpt lat="53.323627" lon="06.573422"><ele>21.8</ele><time>2021-05-20T11:23:02Z</time><name>PT5172</name></trkpt>
<trkpt lat="53.323630" lon="06.573440"><ele>21.9</ele><time>2021-05-20T11:23:03Z</time><name>PT5173</name></trkpt>
<trkpt lat="53.323634" lon="06.573458"><ele>21.9</ele><time>2021-05-20T11:23:05Z</time><name>PT5174</name></trkpt>
<trkpt lat="53.323637" lon="06.573476"><ele>21.9</ele><time>2021-05-20T11:23:05Z</time><name>PT5175</name></trkpt>
<trkpt lat="53.323639" lon="06.573494"><ele>22.1</ele><time>2021-05-20T11:23:06Z</time><name>PT5176</name></trkpt>
<trkpt lat="53.323641" lon="06.573513"><ele>22.1</ele><time>2021-05-20T11:23:08Z</time><name>PT5177</name></trkpt>
<trkpt lat="53.323643" lon="06.573532"><ele>22.1</ele><time>2021-05-20T11:23:08Z</time><name>PT5178</name></trkpt>
<trkpt lat="53.323645" lon="06.573552"><ele>22.4</ele><time>2021-05-20T11:23:09Z</time><name>PT5179</name></trkpt>
<trkpt lat="53.323648" lon="06.573572"><ele>22.2</ele><time>2021-05-20T11:23:11Z</time><name>PT5180</name></trkpt>
<trkpt lat="53.323651" lon="06.573592"><ele>22.2</ele><time>2021-05-20T11:23:11Z</time><name>PT5181</name></trkpt>
<trkpt lat="53.323655" lon="06.573611"><ele>22.1</ele><time>2021-05-20T11:23:12Z</time><name>PT5182</name></trkpt>
<trkpt lat="53.323658" lon="06.573630"><ele>21.9</ele><time>2021-05-20T11:23:14Z</time><name>PT5183</name></trkpt>
<trkpt lat="53.323661" lon="06.573649"><ele>21.9</ele><time>2021-05-20T11:23:14Z</time><name>PT5184</name></trkpt>
<trkpt lat="53.323664" lon="06.573668"><ele>21.9</ele><time>2021-05-20T11:23:15Z</time><name>PT5185</name></trkpt>
<trkpt lat="53.323665" lon="06.573690"><ele>22.1</ele><time>2021-05-20T11:23:17Z</time><name>PT5186</name></trkpt>
<trkpt lat="53.323667" lon="06.573711"><ele>22.1</ele><time>2021-05-20T11:23:17Z</time><name>PT5187</name></trkpt>
<trkpt lat="53.323669" lon="06.573730"><ele>22.2</ele><time>2021-05-20T11:23:18Z</time><name>PT5188</name></trkpt>
<trkpt lat="53.323671" lon="06.573749"><ele>22.4</ele><time>2021-05-20T11:23:20Z</time><name>PT5189</name></trkpt>
<trkpt lat="53.323673" lon="06.573770"><ele>22.4</ele><time>2021-05-20T11:23:20Z</time><name>PT5190</name></trkpt>
<trkpt lat="53.323677" lon="06.573787"><ele>22.4</ele><time>2021-05-20T11:23:21Z</time><name>PT5191</name></trkpt>
<trkpt lat="53.323680" lon="06.573804"><ele>22.3</ele><time>2021-05-20T11:23:23Z</time><name>PT5192</name></trkpt>
<trkpt lat="53.323680" lon="06.573821"><ele>22.4</ele><time>2021-05-20T11:23:23Z</time><name>PT5193</name></trkpt>
<trkpt lat="53.323681" lon="06.573841"><ele>22.2</ele><time>2021-05-20T11:23:24Z</time><name>PT5194</name></trkpt>
<trkpt lat="53.323683" lon="06.573860"><ele>22.1</ele><time>2021-05-20T11:23:26Z</time><name>PT5195</name></trkpt>
<trkpt lat="53.323686" lon="06.573880"><ele>22</ele><time>2021-05-20T11:23:26Z</time><name>PT5196</name></trkpt>
<trkpt lat="53.323689" lon="06.573899"><ele>21.9</ele><time>2021-05-20T11:23:27Z</time><name>PT5197</name></trkpt>
<trkpt lat="53.323693" lon="06.573920"><ele>21.9</ele><time>2021-05-20T11:23:29Z</time><name>PT5198</name></trkpt>
<trkpt lat="53.323695" lon="06.573940"><ele>21.9</ele><time>2021-05-20T11:23:29Z</time><name>PT5199</name></trkpt>
<trkpt lat="53.323698" lon="06.573958"><ele>21.9</ele><time>2021-05-20T11:23:30Z</time><name>PT5200</name></trkpt>
<trkpt lat="53.323700" lon="06.573974"><ele>22.3</ele><time>2021-05-20T11:23:32Z</time><name>PT5201</name></trkpt>
<trkpt lat="53.323702" lon="06.573991"><ele>22.4</ele><time>2021-05-20T11:23:32Z</time><name>PT5202</name></trkpt>
<trkpt lat="53.323703" lon="06.574010"><ele>22.4</ele><time>2021-05-20T11:23:33Z</time><name>PT5203</name></trkpt>
<trkpt lat="53.323704" lon="06.574030"><ele>22.4</ele><time>2021-05-20T11:23:35Z</time><name>PT5204</name></trkpt>
<trkpt lat="53.323705" lon="06.574049"><ele>22.2</ele><time>2021-05-20T11:23:35Z</time><name>PT5205</name></trkpt>
<trkpt lat="53.323707" lon="06.574067"><ele>22.1</ele><time>2021-05-20T11:23:36Z</time><name>PT5206</name></trkpt>
<trkpt lat="53.323709" lon="06.574087"><ele>22</ele><time>2021-05-20T11:23:38Z</time><name>PT5207</name></trkpt>
<trkpt lat="53.323713" lon="06.574107"><ele>22.1</ele><time>2021-05-20T11:23:38Z</time><name>PT5208</name></trkpt>
<trkpt lat="53.323716" lon="06.574128"><ele>22.1</ele><time>2021-05-20T11:23:39Z</time><name>PT5209</name></trkpt>
<trkpt lat="53.323718" lon="06.574145"><ele>21.9</ele><time>2021-05-20T11:23:41Z</time><name>PT5210</name></trkpt>
<trkpt lat="53.323719" lon="06.574164"><ele>21.9</ele><time>2021-05-20T11:23:41Z</time><name>PT5211</name></trkpt>
<trkpt lat="53.323719" lon="06.574184"><ele>21.9</ele><time>2021-05-20T11:23:42Z</time><name>PT5212</name></trkpt>
<trkpt lat="53.323720" lon="06.574204"><ele>21.9</ele><time>2021-05-20T11:23:44Z</time><name>PT5213</name></trkpt>
<trkpt lat="53.323720" lon="06.574224"><ele>22</ele><time>2021-05-20T11:23:44Z</time><name>PT5214</name></trkpt>
<trkpt lat="53.323721" lon="06.574242"><ele>22.1</ele><time>2021-05-20T11:23:45Z</time><name>PT5215</name></trkpt>
<trkpt lat="53.323723" lon="06.574260"><ele>22.3</ele><time>2021-05-20T11:23:47Z</time><name>PT5216</name></trkpt>
<trkpt lat="53.323726" lon="06.574280"><ele>22.2</ele><time>2021-05-20T11:23:47Z</time><name>PT5217</name></trkpt>
<trkpt lat="53.323729" lon="06.574296"><ele>22</ele><time>2021-05-20T11:23:48Z</time><name>PT5218</name></trkpt>
<trkpt lat="53.323730" lon="06.574311"><ele>21.9</ele><time>2021-05-20T11:23:50Z</time><name>PT5219</name></trkpt>
<trkpt lat="53.323731" lon="06.574328"><ele>21.9</ele><time>2021-05-20T11:23:50Z</time><name>PT5220</name></trkpt>
<trkpt lat="53.323731" lon="06.574342"><ele>21.9</ele><time>2021-05-20T11:23:51Z</time><name>PT5221</name></trkpt>
<trkpt lat="53.323732" lon="06.574355"><ele>22.1</ele><time>2021-05-20T11:23:53Z</time><name>PT5222</name></trkpt>
<trkpt lat="53.323734" lon="06.574363"><ele>22.3</ele><time>2021-05-20T11:23:53Z</time><name>PT5223</name></trkpt>
<trkpt lat="53.323734" lon="06.574370"><ele>22.2</ele><time>2021-05-20T11:23:54Z</time><name>PT5224</name></trkpt>
<trkpt lat="53.323735" lon="06.574375"><ele>22.2</ele><time>2021-05-20T11:23:56Z</time><name>PT5225</name></trkpt>
<trkpt lat="53.323736" lon="06.574379"><ele>22.2</ele><time>2021-05-20T11:23:56Z</time><name>PT5226</name></trkpt>
<trkpt lat="53.323737" lon="06.574385"><ele>22.2</ele><time>2021-05-20T11:23:57Z</time><name>PT5227</name></trkpt>
<trkpt lat="53.323738" lon="06.574394"><ele>22</ele><time>2021-05-20T11:23:59Z</time><name>PT5228</name></trkpt>
<trkpt lat="53.323740" lon="06.574404"><ele>22</ele><time>2021-05-20T11:23:59Z</time><name>PT5229</name></trkpt>
<trkpt lat="53.323742" lon="06.574419"><ele>21.8</ele><time>2021-05-20T11:24:00Z</time><name>PT5230</name></trkpt>
<trkpt lat="53.323745" lon="06.574433"><ele>21.9</ele><time>2021-05-20T11:24:02Z</time><name>PT5231</name></trkpt>
<trkpt lat="53.323748" lon="06.574452"><ele>21.9</ele><time>2021-05-20T11:24:02Z</time><name>PT5232</name></trkpt>
<trkpt lat="53.323750" lon="06.574470"><ele>21.9</ele><time>2021-05-20T11:24:03Z</time><name>PT5233</name></trkpt>
<trkpt lat="53.323751" lon="06.574492"><ele>22</ele><time>2021-05-20T11:24:05Z</time><name>PT5234</name></trkpt>
<trkpt lat="53.323753" lon="06.574509"><ele>22</ele><time>2021-05-20T11:24:05Z</time><name>PT5235</name></trkpt>
<trkpt lat="53.323754" lon="06.574528"><ele>21.9</ele><time>2021-05-20T11:24:06Z</time><name>PT5236</name></trkpt>
<trkpt lat="53.323754" lon="06.574546"><ele>21.9</ele><time>2021-05-20T11:24:08Z</time><name>PT5237</name></trkpt>
<trkpt lat="53.323754" lon="06.574561"><ele>21.9</ele><time>2021-05-20T11:24:08Z</time><name>PT5238</name></trkpt>
<trkpt lat="53.323755" lon="06.574574"><ele>21.9</ele><time>2021-05-20T11:24:09Z</time><name>PT5239</name></trkpt>
<trkpt lat="53.323755" lon="06.574588"><ele>22</ele><time>2021-05-20T11:24:11Z</time><name>PT5240</name></trkpt>
<trkpt lat="53.323756" lon="06.574603"><ele>22.1</ele><time>2021-05-20T11:24:11Z</time><name>PT5241</name></trkpt>
<trkpt lat="53.323757" lon="06.574619"><ele>22</ele><time>2021-05-20T11:24:12Z</time><name>PT5242</name></trkpt>
<trkpt lat="53.323758" lon="06.574636"><ele>21.9</ele><time>2021-05-20T11:24:14Z</time><name>PT5243</name></trkpt>
<trkpt lat="53.323758" lon="06.574655"><ele>21.8</ele><time>2021-05-20T11:24:14Z</time><name>PT5244</name></trkpt>
<trkpt lat="53.323757" lon="06.574673"><ele>21.8</ele><time>2021-05-20T11:24:15Z</time><name>PT5245</name></trkpt>
<trkpt lat="53.323758" lon="06.574690"><ele>21.8</ele><time>2021-05-20T11:24:17Z</time><name>PT5246</name></trkpt>
<trkpt lat="53.323760" lon="06.574704"><ele>21.9</ele><time>2021-05-20T11:24:17Z</time><name>PT5247</name></trkpt>
<trkpt lat="53.323762" lon="06.574720"><ele>22</ele><time>2021-05-20T11:24:18Z</time><name>PT5248</name></trkpt>
<trkpt lat="53.323763" lon="06.574737"><ele>22</ele><time>2021-05-20T11:24:20Z</time><name>PT5249</name></trkpt>
<trkpt lat="53.323764" lon="06.574753"><ele>22.1</ele><time>2021-05-20T11:24:20Z</time><name>PT5250</name></trkpt>
<trkpt lat="53.323765" lon="06.574770"><ele>21.9</ele><time>2021-05-20T11:24:21Z</time><name>PT5251</name></trkpt>
<trkpt lat="53.323766" lon="06.574788"><ele>22</ele><time>2021-05-20T11:24:23Z</time><name>PT5252</name></trkpt>
<trkpt lat="53.323768" lon="06.574805"><ele>21.9</ele><time>2021-05-20T11:24:23Z</time><name>PT5253</name></trkpt>
<trkpt lat="53.323770" lon="06.574820"><ele>22</ele><time>2021-05-20T11:24:24Z</time><name>PT5254</name></trkpt>
<trkpt lat="53.323772" lon="06.574836"><ele>22.2</ele><time>2021-05-20T11:24:26Z</time><name>PT5255</name></trkpt>
<trkpt lat="53.323772" lon="06.574851"><ele>22.1</ele><time>2021-05-20T11:24:26Z</time><name>PT5256</name></trkpt>
<trkpt lat="53.323773" lon="06.574868"><ele>22.1</ele><time>2021-05-20T11:24:27Z</time><name>PT5257</name></trkpt>
<trkpt lat="53.323774" lon="06.574883"><ele>21.8</ele><time>2021-05-20T11:24:29Z</time><name>PT5258</name></trkpt>
<trkpt lat="53.323777" lon="06.574899"><ele>21.8</ele><time>2021-05-20T11:24:29Z</time><name>PT5259</name></trkpt>
<trkpt lat="53.323774" lon="06.574915"><ele>21.6</ele><time>2021-05-20T11:24:30Z</time><name>PT5260</name></trkpt>
<trkpt lat="53.323777" lon="06.574936"><ele>21.9</ele><time>2021-05-20T11:24:32Z</time><name>PT5261</name></trkpt>
<trkpt lat="53.323781" lon="06.574955"><ele>22.2</ele><time>2021-05-20T11:24:32Z</time><name>PT5262</name></trkpt>
<trkpt lat="53.323783" lon="06.574973"><ele>22.2</ele><time>2021-05-20T11:24:33Z</time><name>PT5263</name></trkpt>
<trkpt lat="53.323781" lon="06.574991"><ele>22.2</ele><time>2021-05-20T11:24:35Z</time><name>PT5264</name></trkpt>
<trkpt lat="53.323782" lon="06.575008"><ele>22.2</ele><time>2021-05-20T11:24:35Z</time><name>PT5265</name></trkpt>
<trkpt lat="53.323786" lon="06.575025"><ele>21.9</ele><time>2021-05-20T11:24:36Z</time><name>PT5266</name></trkpt>
<trkpt lat="53.323786" lon="06.575043"><ele>21.9</ele><time>2021-05-20T11:24:38Z</time><name>PT5267</name></trkpt>
<trkpt lat="53.323786" lon="06.575058"><ele>21.9</ele><time>2021-05-20T11:24:38Z</time><name>PT5268</name></trkpt>
<trkpt lat="53.323787" lon="06.575074"><ele>22.2</ele><time>2021-05-20T11:24:39Z</time><name>PT5269</name></trkpt>
<trkpt lat="53.323786" lon="06.575090"><ele>22.4</ele><time>2021-05-20T11:24:41Z</time><name>PT5270</name></trkpt>
<trkpt lat="53.323786" lon="06.575103"><ele>22.4</ele><time>2021-05-20T11:24:41Z</time><name>PT5271</name></trkpt>
<trkpt lat="53.323786" lon="06.575117"><ele>22.2</ele><time>2021-05-20T11:24:42Z</time><name>PT5272</name></trkpt>
<trkpt lat="53.323790" lon="06.575136"><ele>22</ele><time>2021-05-20T11:24:44Z</time><name>PT5273</name></trkpt>
<trkpt lat="53.323792" lon="06.575152"><ele>22.1</ele><time>2021-05-20T11:24:44Z</time><name>PT5274</name></trkpt>
<trkpt lat="53.323792" lon="06.575167"><ele>22.1</ele><time>2021-05-20T11:24:45Z</time><name>PT5275</name></trkpt>
<trkpt lat="53.323791" lon="06.575186"><ele>22.1</ele><time>2021-05-20T11:24:47Z</time><name>PT5276</name></trkpt>
<trkpt lat="53.323792" lon="06.575201"><ele>22.1</ele><time>2021-05-20T11:24:47Z</time><name>PT5277</name></trkpt>
<trkpt lat="53.323795" lon="06.575216"><ele>22</ele><time>2021-05-20T11:24:48Z</time><name>PT5278</name></trkpt>
<trkpt lat="53.323801" lon="06.575231"><ele>21.9</ele><time>2021-05-20T11:24:50Z</time><name>PT5279</name></trkpt>
<trkpt lat="53.323802" lon="06.575248"><ele>21.8</ele><time>2021-05-20T11:24:50Z</time><name>PT5280</name></trkpt>
<trkpt lat="53.323797" lon="06.575261"><ele>21.8</ele><time>2021-05-20T11:24:51Z</time><name>PT5281</name></trkpt>
<trkpt lat="53.323799" lon="06.575277"><ele>21.9</ele><time>2021-05-20T11:24:53Z</time><name>PT5282</name></trkpt>
<trkpt lat="53.323799" lon="06.575291"><ele>21.9</ele><time>2021-05-20T11:24:53Z</time><name>PT5283</name></trkpt>
<trkpt lat="53.323800" lon="06.575305"><ele>22.1</ele><time>2021-05-20T11:24:54Z</time><name>PT5284</name></trkpt>
<trkpt lat="53.323802" lon="06.575320"><ele>22.3</ele><time>2021-05-20T11:24:56Z</time><name>PT5285</name></trkpt>
<trkpt lat="53.323805" lon="06.575338"><ele>22.3</ele><time>2021-05-20T11:24:56Z</time><name>PT5286</name></trkpt>
<trkpt lat="53.323808" lon="06.575350"><ele>21.9</ele><time>2021-05-20T11:24:57Z</time><name>PT5287</name></trkpt>
<trkpt lat="53.323808" lon="06.575364"><ele>21.9</ele><time>2021-05-20T11:24:59Z</time><name>PT5288</name></trkpt>
<trkpt lat="53.323811" lon="06.575383"><ele>21.9</ele><time>2021-05-20T11:24:59Z</time><name>PT5289</name></trkpt>
<trkpt lat="53.323813" lon="06.575401"><ele>21.9</ele><time>2021-05-20T11:25:00Z</time><name>PT5290</name></trkpt>
<trkpt lat="53.323821" lon="06.575421"><ele>22</ele><time>2021-05-20T11:25:02Z</time><name>PT5291</name></trkpt>
<trkpt lat="53.323828" lon="06.575441"><ele>21.9</ele><time>2021-05-20T11:25:02Z</time><name>PT5292</name></trkpt>
<trkpt lat="53.323831" lon="06.575457"><ele>22.1</ele><time>2021-05-20T11:25:03Z</time><name>PT5293</name></trkpt>
<trkpt lat="53.323832" lon="06.575472"><ele>22.1</ele><time>2021-05-20T11:25:05Z</time><name>PT5294</name></trkpt>
<trkpt lat="53.323831" lon="06.575486"><ele>22.2</ele><time>2021-05-20T11:25:05Z</time><name>PT5295</name></trkpt>
<trkpt lat="53.323834" lon="06.575513"><ele>22.3</ele><time>2021-05-20T11:25:06Z</time><name>PT5296</name></trkpt>
<trkpt lat="53.323836" lon="06.575538"><ele>22.4</ele><time>2021-05-20T11:25:08Z</time><name>PT5297</name></trkpt>
<trkpt lat="53.323839" lon="06.575558"><ele>22.3</ele><time>2021-05-20T11:25:08Z</time><name>PT5298</name></trkpt>
<trkpt lat="53.323841" lon="06.575575"><ele>22.2</ele><time>2021-05-20T11:25:09Z</time><name>PT5299</name></trkpt>
<trkpt lat="53.323842" lon="06.575590"><ele>22</ele><time>2021-05-20T11:25:11Z</time><name>PT5300</name></trkpt>
<trkpt lat="53.323844" lon="06.575607"><ele>22</ele><time>2021-05-20T11:25:11Z</time><name>PT5301</name></trkpt>
<trkpt lat="53.323845" lon="06.575624"><ele>22.1</ele><time>2021-05-20T11:25:12Z</time><name>PT5302</name></trkpt>
<trkpt lat="53.323848" lon="06.575641"><ele>22.1</ele><time>2021-05-20T11:25:14Z</time><name>PT5303</name></trkpt>
<trkpt lat="53.323849" lon="06.575656"><ele>22</ele><time>2021-05-20T11:25:14Z</time><name>PT5304</name></trkpt>
<trkpt lat="53.323850" lon="06.575674"><ele>22</ele><time>2021-05-20T11:25:15Z</time><name>PT5305</name></trkpt>
<trkpt lat="53.323851" lon="06.575691"><ele>21.9</ele><time>2021-05-20T11:25:17Z</time><name>PT5306</name></trkpt>
<trkpt lat="53.323850" lon="06.575710"><ele>21.9</ele><time>2021-05-20T11:25:17Z</time><name>PT5307</name></trkpt>
<trkpt lat="53.323852" lon="06.575727"><ele>22</ele><time>2021-05-20T11:25:18Z</time><name>PT5308</name></trkpt>
<trkpt lat="53.323859" lon="06.575749"><ele>22.1</ele><time>2021-05-20T11:25:20Z</time><name>PT5309</name></trkpt>
<trkpt lat="53.323865" lon="06.575770"><ele>22</ele><time>2021-05-20T11:25:20Z</time><name>PT5310</name></trkpt>
<trkpt lat="53.323870" lon="06.575789"><ele>22.2</ele><time>2021-05-20T11:25:21Z</time><name>PT5311</name></trkpt>
<trkpt lat="53.323874" lon="06.575807"><ele>22</ele><time>2021-05-20T11:25:23Z</time><name>PT5312</name></trkpt>
<trkpt lat="53.323876" lon="06.575824"><ele>21.9</ele><time>2021-05-20T11:25:23Z</time><name>PT5313</name></trkpt>
<trkpt lat="53.323876" lon="06.575837"><ele>22.2</ele><time>2021-05-20T11:25:24Z</time><name>PT5314</name></trkpt>
<trkpt lat="53.323875" lon="06.575852"><ele>22.1</ele><time>2021-05-20T11:25:26Z</time><name>PT5315</name></trkpt>
<trkpt lat="53.323874" lon="06.575869"><ele>22.1</ele><time>2021-05-20T11:25:26Z</time><name>PT5316</name></trkpt>
<trkpt lat="53.323877" lon="06.575889"><ele>21.9</ele><time>2021-05-20T11:25:27Z</time><name>PT5317</name></trkpt>
<trkpt lat="53.323876" lon="06.575908"><ele>21.9</ele><time>2021-05-20T11:25:29Z</time><name>PT5318</name></trkpt>
<trkpt lat="53.323875" lon="06.575924"><ele>21.9</ele><time>2021-05-20T11:25:29Z</time><name>PT5319</name></trkpt>
<trkpt lat="53.323874" lon="06.575939"><ele>22</ele><time>2021-05-20T11:25:30Z</time><name>PT5320</name></trkpt>
<trkpt lat="53.323875" lon="06.575949"><ele>22.2</ele><time>2021-05-20T11:25:32Z</time><name>PT5321</name></trkpt>
<trkpt lat="53.323877" lon="06.575969"><ele>22.2</ele><time>2021-05-20T11:25:32Z</time><name>PT5322</name></trkpt>
<trkpt lat="53.323878" lon="06.575987"><ele>22.3</ele><time>2021-05-20T11:25:33Z</time><name>PT5323</name></trkpt>
<trkpt lat="53.323885" lon="06.576007"><ele>22.2</ele><time>2021-05-20T11:25:35Z</time><name>PT5324</name></trkpt>
<trkpt lat="53.323887" lon="06.576024"><ele>22.1</ele><time>2021-05-20T11:25:35Z</time><name>PT5325</name></trkpt>
<trkpt lat="53.323890" lon="06.576042"><ele>22.1</ele><time>2021-05-20T11:25:36Z</time><name>PT5326</name></trkpt>
<trkpt lat="53.323894" lon="06.576062"><ele>21.9</ele><time>2021-05-20T11:25:38Z</time><name>PT5327</name></trkpt>
<trkpt lat="53.323896" lon="06.576088"><ele>21.9</ele><time>2021-05-20T11:25:38Z</time><name>PT5328</name></trkpt>
<trkpt lat="53.323900" lon="06.576115"><ele>21.9</ele><time>2021-05-20T11:25:39Z</time><name>PT5329</name></trkpt>
<trkpt lat="53.323899" lon="06.576135"><ele>22</ele><time>2021-05-20T11:25:41Z</time><name>PT5330</name></trkpt>
<trkpt lat="53.323902" lon="06.576159"><ele>22</ele><time>2021-05-20T11:25:41Z</time><name>PT5331</name></trkpt>
<trkpt lat="53.323903" lon="06.576181"><ele>22.1</ele><time>2021-05-20T11:25:42Z</time><name>PT5332</name></trkpt>
<trkpt lat="53.323907" lon="06.576204"><ele>22.1</ele><time>2021-05-20T11:25:44Z</time><name>PT5333</name></trkpt>
<trkpt lat="53.323910" lon="06.576222"><ele>22.2</ele><time>2021-05-20T11:25:44Z</time><name>PT5334</name></trkpt>
<trkpt lat="53.323914" lon="06.576245"><ele>22.2</ele><time>2021-05-20T11:25:45Z</time><name>PT5335</name></trkpt>
<trkpt lat="53.323917" lon="06.576265"><ele>22.1</ele><time>2021-05-20T11:25:47Z</time><name>PT5336</name></trkpt>
<trkpt lat="53.323917" lon="06.576282"><ele>22.1</ele><time>2021-05-20T11:25:47Z</time><name>PT5337</name></trkpt>
<trkpt lat="53.323918" lon="06.576301"><ele>22.3</ele><time>2021-05-20T11:25:48Z</time><name>PT5338</name></trkpt>
<trkpt lat="53.323919" lon="06.576318"><ele>22.3</ele><time>2021-05-20T11:25:50Z</time><name>PT5339</name></trkpt>
<trkpt lat="53.323920" lon="06.576335"><ele>22.2</ele><time>2021-05-20T11:25:50Z</time><name>PT5340</name></trkpt>
<trkpt lat="53.323924" lon="06.576353"><ele>22.2</ele><time>2021-05-20T11:25:51Z</time><name>PT5341</name></trkpt>
<trkpt lat="53.323927" lon="06.576372"><ele>21.9</ele><time>2021-05-20T11:25:53Z</time><name>PT5342</name></trkpt>
<trkpt lat="53.323931" lon="06.576395"><ele>21.9</ele><time>2021-05-20T11:25:53Z</time><name>PT5343</name></trkpt>
<trkpt lat="53.323934" lon="06.576417"><ele>21.9</ele><time>2021-05-20T11:25:54Z</time><name>PT5344</name></trkpt>
<trkpt lat="53.323939" lon="06.576441"><ele>22.1</ele><time>2021-05-20T11:25:56Z</time><name>PT5345</name></trkpt>
<trkpt lat="53.323946" lon="06.576462"><ele>22.1</ele><time>2021-05-20T11:25:56Z</time><name>PT5346</name></trkpt>
<trkpt lat="53.323948" lon="06.576478"><ele>22.1</ele><time>2021-05-20T11:25:57Z</time><name>PT5347</name></trkpt>
<trkpt lat="53.323949" lon="06.576497"><ele>22</ele><time>2021-05-20T11:25:59Z</time><name>PT5348</name></trkpt>
<trkpt lat="53.323950" lon="06.576520"><ele>21.9</ele><time>2021-05-20T11:25:59Z</time><name>PT5349</name></trkpt>
<trkpt lat="53.323952" lon="06.576543"><ele>21.9</ele><time>2021-05-20T11:26:00Z</time><name>PT5350</name></trkpt>
<trkpt lat="53.323956" lon="06.576566"><ele>21.8</ele><time>2021-05-20T11:26:01Z</time><name>PT5351</name></trkpt>
<trkpt lat="53.323959" lon="06.576588"><ele>21.9</ele><time>2021-05-20T11:26:02Z</time><name>PT5352</name></trkpt>
<trkpt lat="53.323960" lon="06.576608"><ele>21.8</ele><time>2021-05-20T11:26:03Z</time><name>PT5353</name></trkpt>
<trkpt lat="53.323962" lon="06.576628"><ele>21.9</ele><time>2021-05-20T11:26:05Z</time><name>PT5354</name></trkpt>
<trkpt lat="53.323965" lon="06.576653"><ele>22</ele><time>2021-05-20T11:26:05Z</time><name>PT5355</name></trkpt>
<trkpt lat="53.323970" lon="06.576675"><ele>22.2</ele><time>2021-05-20T11:26:06Z</time><name>PT5356</name></trkpt>
<trkpt lat="53.323975" lon="06.576690"><ele>22.3</ele><time>2021-05-20T11:26:08Z</time><name>PT5357</name></trkpt>
<trkpt lat="53.323978" lon="06.576710"><ele>22.1</ele><time>2021-05-20T11:26:08Z</time><name>PT5358</name></trkpt>
<trkpt lat="53.323979" lon="06.576729"><ele>22</ele><time>2021-05-20T11:26:09Z</time><name>PT5359</name></trkpt>
<trkpt lat="53.323980" lon="06.576749"><ele>22</ele><time>2021-05-20T11:26:11Z</time><name>PT5360</name></trkpt>
<trkpt lat="53.323982" lon="06.576769"><ele>22.1</ele><time>2021-05-20T11:26:11Z</time><name>PT5361</name></trkpt>
<trkpt lat="53.323985" lon="06.576786"><ele>22.2</ele><time>2021-05-20T11:26:12Z</time><name>PT5362</name></trkpt>
<trkpt lat="53.323988" lon="06.576807"><ele>22.3</ele><time>2021-05-20T11:26:14Z</time><name>PT5363</name></trkpt>
<trkpt lat="53.323991" lon="06.576827"><ele>22.4</ele><time>2021-05-20T11:26:14Z</time><name>PT5364</name></trkpt>
<trkpt lat="53.323993" lon="06.576844"><ele>22.2</ele><time>2021-05-20T11:26:15Z</time><name>PT5365</name></trkpt>
<trkpt lat="53.323995" lon="06.576861"><ele>22.1</ele><time>2021-05-20T11:26:17Z</time><name>PT5366</name></trkpt>
<trkpt lat="53.323995" lon="06.576880"><ele>22.1</ele><time>2021-05-20T11:26:17Z</time><name>PT5367</name></trkpt>
<trkpt lat="53.323997" lon="06.576902"><ele>22.1</ele><time>2021-05-20T11:26:18Z</time><name>PT5368</name></trkpt>
<trkpt lat="53.323999" lon="06.576921"><ele>22.1</ele><time>2021-05-20T11:26:20Z</time><name>PT5369</name></trkpt>
<trkpt lat="53.324000" lon="06.576940"><ele>22.1</ele><time>2021-05-20T11:26:20Z</time><name>PT5370</name></trkpt>
<trkpt lat="53.324000" lon="06.576959"><ele>22.4</ele><time>2021-05-20T11:26:21Z</time><name>PT5371</name></trkpt>
<trkpt lat="53.324002" lon="06.576978"><ele>22.2</ele><time>2021-05-20T11:26:23Z</time><name>PT5372</name></trkpt>
<trkpt lat="53.324002" lon="06.576993"><ele>22.1</ele><time>2021-05-20T11:26:23Z</time><name>PT5373</name></trkpt>
<trkpt lat="53.324003" lon="06.577009"><ele>22.1</ele><time>2021-05-20T11:26:24Z</time><name>PT5374</name></trkpt>
<trkpt lat="53.324002" lon="06.577024"><ele>21.9</ele><time>2021-05-20T11:26:26Z</time><name>PT5375</name></trkpt>
<trkpt lat="53.324004" lon="06.577043"><ele>22</ele><time>2021-05-20T11:26:26Z</time><name>PT5376</name></trkpt>
<trkpt lat="53.324009" lon="06.577064"><ele>22.1</ele><time>2021-05-20T11:26:27Z</time><name>PT5377</name></trkpt>
<trkpt lat="53.324013" lon="06.577086"><ele>22.3</ele><time>2021-05-20T11:26:29Z</time><name>PT5378</name></trkpt>
<trkpt lat="53.324016" lon="06.577106"><ele>22.3</ele><time>2021-05-20T11:26:29Z</time><name>PT5379</name></trkpt>
<trkpt lat="53.324016" lon="06.577124"><ele>22.4</ele><time>2021-05-20T11:26:30Z</time><name>PT5380</name></trkpt>
<trkpt lat="53.324018" lon="06.577144"><ele>22.4</ele><time>2021-05-20T11:26:32Z</time><name>PT5381</name></trkpt>
<trkpt lat="53.324022" lon="06.577163"><ele>22.4</ele><time>2021-05-20T11:26:32Z</time><name>PT5382</name></trkpt>
<trkpt lat="53.324025" lon="06.577183"><ele>22.4</ele><time>2021-05-20T11:26:33Z</time><name>PT5383</name></trkpt>
<trkpt lat="53.324028" lon="06.577202"><ele>22.4</ele><time>2021-05-20T11:26:35Z</time><name>PT5384</name></trkpt>
<trkpt lat="53.324030" lon="06.577218"><ele>22.3</ele><time>2021-05-20T11:26:35Z</time><name>PT5385</name></trkpt>
<trkpt lat="53.324030" lon="06.577233"><ele>22.3</ele><time>2021-05-20T11:26:36Z</time><name>PT5386</name></trkpt>
<trkpt lat="53.324029" lon="06.577251"><ele>22.1</ele><time>2021-05-20T11:26:38Z</time><name>PT5387</name></trkpt>
<trkpt lat="53.324029" lon="06.577267"><ele>22.2</ele><time>2021-05-20T11:26:38Z</time><name>PT5388</name></trkpt>
<trkpt lat="53.324031" lon="06.577282"><ele>22.4</ele><time>2021-05-20T11:26:39Z</time><name>PT5389</name></trkpt>
<trkpt lat="53.324034" lon="06.577301"><ele>22.3</ele><time>2021-05-20T11:26:41Z</time><name>PT5390</name></trkpt>
<trkpt lat="53.324037" lon="06.577318"><ele>22.3</ele><time>2021-05-20T11:26:41Z</time><name>PT5391</name></trkpt>
<trkpt lat="53.324040" lon="06.577338"><ele>22.4</ele><time>2021-05-20T11:26:42Z</time><name>PT5392</name></trkpt>
<trkpt lat="53.324043" lon="06.577357"><ele>22.4</ele><time>2021-05-20T11:26:44Z</time><name>PT5393</name></trkpt>
<trkpt lat="53.324041" lon="06.577373"><ele>22.4</ele><time>2021-05-20T11:26:44Z</time><name>PT5394</name></trkpt>
<trkpt lat="53.324051" lon="06.577403"><ele>22.4</ele><time>2021-05-20T11:26:45Z</time><name>PT5395</name></trkpt>
<trkpt lat="53.324056" lon="06.577420"><ele>22.3</ele><time>2021-05-20T11:26:47Z</time><name>PT5396</name></trkpt>
<trkpt lat="53.324059" lon="06.577438"><ele>22.2</ele><time>2021-05-20T11:26:47Z</time><name>PT5397</name></trkpt>
<trkpt lat="53.324058" lon="06.577455"><ele>22</ele><time>2021-05-20T11:26:48Z</time><name>PT5398</name></trkpt>
<trkpt lat="53.324063" lon="06.577475"><ele>22</ele><time>2021-05-20T11:26:50Z</time><name>PT5399</name></trkpt>
<trkpt lat="53.324067" lon="06.577491"><ele>22</ele><time>2021-05-20T11:26:50Z</time><name>PT5400</name></trkpt>
<trkpt lat="53.324068" lon="06.577507"><ele>22.2</ele><time>2021-05-20T11:26:51Z</time><name>PT5401</name></trkpt>
<trkpt lat="53.324067" lon="06.577523"><ele>22.3</ele><time>2021-05-20T11:26:53Z</time><name>PT5402</name></trkpt>
<trkpt lat="53.324068" lon="06.577539"><ele>22.4</ele><time>2021-05-20T11:26:53Z</time><name>PT5403</name></trkpt>
<trkpt lat="53.324069" lon="06.577555"><ele>22.3</ele><time>2021-05-20T11:26:54Z</time><name>PT5404</name></trkpt>
<trkpt lat="53.324073" lon="06.577570"><ele>22.4</ele><time>2021-05-20T11:26:56Z</time><name>PT5405</name></trkpt>
<trkpt lat="53.324076" lon="06.577585"><ele>22.2</ele><time>2021-05-20T11:26:56Z</time><name>PT5406</name></trkpt>
<trkpt lat="53.324078" lon="06.577596"><ele>22.1</ele><time>2021-05-20T11:26:57Z</time><name>PT5407</name></trkpt>
<trkpt lat="53.324077" lon="06.577599"><ele>22.2</ele><time>2021-05-20T11:26:59Z</time><name>PT5408</name></trkpt>
<trkpt lat="53.324077" lon="06.577607"><ele>22.3</ele><time>2021-05-20T11:27:00Z</time><name>PT5409</name></trkpt>
<trkpt lat="53.324077" lon="06.577619"><ele>22.4</ele><time>2021-05-20T11:27:02Z</time><name>PT5410</name></trkpt>
<trkpt lat="53.324077" lon="06.577634"><ele>22.3</ele><time>2021-05-20T11:27:02Z</time><name>PT5411</name></trkpt>
<trkpt lat="53.324078" lon="06.577651"><ele>22.1</ele><time>2021-05-20T11:27:03Z</time><name>PT5412</name></trkpt>
<trkpt lat="53.324080" lon="06.577666"><ele>21.9</ele><time>2021-05-20T11:27:05Z</time><name>PT5413</name></trkpt>
<trkpt lat="53.324081" lon="06.577681"><ele>21.9</ele><time>2021-05-20T11:27:05Z</time><name>PT5414</name></trkpt>
<trkpt lat="53.324083" lon="06.577697"><ele>21.8</ele><time>2021-05-20T11:27:06Z</time><name>PT5415</name></trkpt>
<trkpt lat="53.324086" lon="06.577716"><ele>21.8</ele><time>2021-05-20T11:27:08Z</time><name>PT5416</name></trkpt>
<trkpt lat="53.324090" lon="06.577737"><ele>21.9</ele><time>2021-05-20T11:27:08Z</time><name>PT5417</name></trkpt>
<trkpt lat="53.324090" lon="06.577753"><ele>21.8</ele><time>2021-05-20T11:27:09Z</time><name>PT5418</name></trkpt>
<trkpt lat="53.324090" lon="06.577770"><ele>22</ele><time>2021-05-20T11:27:11Z</time><name>PT5419</name></trkpt>
<trkpt lat="53.324093" lon="06.577787"><ele>22</ele><time>2021-05-20T11:27:11Z</time><name>PT5420</name></trkpt>
<trkpt lat="53.324097" lon="06.577806"><ele>21.9</ele><time>2021-05-20T11:27:12Z</time><name>PT5421</name></trkpt>
<trkpt lat="53.324103" lon="06.577826"><ele>21.9</ele><time>2021-05-20T11:27:14Z</time><name>PT5422</name></trkpt>
<trkpt lat="53.324105" lon="06.577844"><ele>21.9</ele><time>2021-05-20T11:27:14Z</time><name>PT5423</name></trkpt>
<trkpt lat="53.324107" lon="06.577860"><ele>21.9</ele><time>2021-05-20T11:27:15Z</time><name>PT5424</name></trkpt>
<trkpt lat="53.324109" lon="06.577877"><ele>22.2</ele><time>2021-05-20T11:27:17Z</time><name>PT5425</name></trkpt>
<trkpt lat="53.324111" lon="06.577892"><ele>22.1</ele><time>2021-05-20T11:27:17Z</time><name>PT5426</name></trkpt>
<trkpt lat="53.324111" lon="06.577905"><ele>22.1</ele><time>2021-05-20T11:27:18Z</time><name>PT5427</name></trkpt>
<trkpt lat="53.324112" lon="06.577909"><ele>22.1</ele><time>2021-05-20T11:27:20Z</time><name>PT5428</name></trkpt>
<trkpt lat="53.324113" lon="06.577909"><ele>22.1</ele><time>2021-05-20T11:27:20Z</time><name>PT5429</name></trkpt>
<trkpt lat="53.324113" lon="06.577908"><ele>22</ele><time>2021-05-20T11:27:21Z</time><name>PT5430</name></trkpt>
<trkpt lat="53.324112" lon="06.577917"><ele>22.1</ele><time>2021-05-20T11:27:30Z</time><name>PT5431</name></trkpt>
<trkpt lat="53.324114" lon="06.577934"><ele>22</ele><time>2021-05-20T11:27:32Z</time><name>PT5432</name></trkpt>
<trkpt lat="53.324120" lon="06.577953"><ele>21.9</ele><time>2021-05-20T11:27:32Z</time><name>PT5433</name></trkpt>
<trkpt lat="53.324122" lon="06.577970"><ele>21.9</ele><time>2021-05-20T11:27:33Z</time><name>PT5434</name></trkpt>
<trkpt lat="53.324125" lon="06.577986"><ele>21.6</ele><time>2021-05-20T11:27:35Z</time><name>PT5435</name></trkpt>
<trkpt lat="53.324127" lon="06.578004"><ele>21.6</ele><time>2021-05-20T11:27:35Z</time><name>PT5436</name></trkpt>
<trkpt lat="53.324130" lon="06.578022"><ele>21.8</ele><time>2021-05-20T11:27:36Z</time><name>PT5437</name></trkpt>
<trkpt lat="53.324134" lon="06.578040"><ele>21.9</ele><time>2021-05-20T11:27:38Z</time><name>PT5438</name></trkpt>
<trkpt lat="53.324139" lon="06.578059"><ele>21.7</ele><time>2021-05-20T11:27:38Z</time><name>PT5439</name></trkpt>
<trkpt lat="53.324141" lon="06.578075"><ele>21.9</ele><time>2021-05-20T11:27:39Z</time><name>PT5440</name></trkpt>
<trkpt lat="53.324143" lon="06.578092"><ele>21.9</ele><time>2021-05-20T11:27:41Z</time><name>PT5441</name></trkpt>
<trkpt lat="53.324145" lon="06.578109"><ele>21.9</ele><time>2021-05-20T11:27:41Z</time><name>PT5442</name></trkpt>
<trkpt lat="53.324151" lon="06.578130"><ele>21.9</ele><time>2021-05-20T11:27:42Z</time><name>PT5443</name></trkpt>
<trkpt lat="53.324153" lon="06.578150"><ele>22</ele><time>2021-05-20T11:27:44Z</time><name>PT5444</name></trkpt>
<trkpt lat="53.324155" lon="06.578169"><ele>22.1</ele><time>2021-05-20T11:27:44Z</time><name>PT5445</name></trkpt>
<trkpt lat="53.324156" lon="06.578187"><ele>22.2</ele><time>2021-05-20T11:27:45Z</time><name>PT5446</name></trkpt>
<trkpt lat="53.324158" lon="06.578203"><ele>22.2</ele><time>2021-05-20T11:27:47Z</time><name>PT5447</name></trkpt>
<trkpt lat="53.324159" lon="06.578215"><ele>22</ele><time>2021-05-20T11:27:47Z</time><name>PT5448</name></trkpt>
<trkpt lat="53.324161" lon="06.578230"><ele>21.9</ele><time>2021-05-20T11:27:48Z</time><name>PT5449</name></trkpt>
<trkpt lat="53.324160" lon="06.578244"><ele>21.8</ele><time>2021-05-20T11:27:50Z</time><name>PT5450</name></trkpt>
<trkpt lat="53.324162" lon="06.578265"><ele>21.9</ele><time>2021-05-20T11:27:50Z</time><name>PT5451</name></trkpt>
<trkpt lat="53.324166" lon="06.578285"><ele>22.1</ele><time>2021-05-20T11:27:51Z</time><name>PT5452</name></trkpt>
<trkpt lat="53.324171" lon="06.578304"><ele>22.3</ele><time>2021-05-20T11:27:53Z</time><name>PT5453</name></trkpt>
<trkpt lat="53.324178" lon="06.578321"><ele>22.4</ele><time>2021-05-20T11:27:53Z</time><name>PT5454</name></trkpt>
<trkpt lat="53.324185" lon="06.578337"><ele>22.4</ele><time>2021-05-20T11:27:54Z</time><name>PT5455</name></trkpt>
<trkpt lat="53.324190" lon="06.578353"><ele>22.3</ele><time>2021-05-20T11:27:55Z</time><name>PT5456</name></trkpt>
<trkpt lat="53.324193" lon="06.578368"><ele>22.2</ele><time>2021-05-20T11:27:56Z</time><name>PT5457</name></trkpt>
<trkpt lat="53.324188" lon="06.578384"><ele>22</ele><time>2021-05-20T11:27:58Z</time><name>PT5458</name></trkpt>
<trkpt lat="53.324190" lon="06.578406"><ele>22</ele><time>2021-05-20T11:27:58Z</time><name>PT5459</name></trkpt>
<trkpt lat="53.324192" lon="06.578422"><ele>22</ele><time>2021-05-20T11:27:59Z</time><name>PT5460</name></trkpt>
<trkpt lat="53.324194" lon="06.578438"><ele>22.1</ele><time>2021-05-20T11:28:01Z</time><name>PT5461</name></trkpt>
<trkpt lat="53.324198" lon="06.578452"><ele>22.1</ele><time>2021-05-20T11:28:01Z</time><name>PT5462</name></trkpt>
<trkpt lat="53.324199" lon="06.578465"><ele>22</ele><time>2021-05-20T11:28:02Z</time><name>PT5463</name></trkpt>
<trkpt lat="53.324201" lon="06.578481"><ele>22.1</ele><time>2021-05-20T11:28:04Z</time><name>PT5464</name></trkpt>
<trkpt lat="53.324205" lon="06.578498"><ele>22.1</ele><time>2021-05-20T11:28:04Z</time><name>PT5465</name></trkpt>
<trkpt lat="53.324207" lon="06.578513"><ele>22.1</ele><time>2021-05-20T11:28:05Z</time><name>PT5466</name></trkpt>
<trkpt lat="53.324211" lon="06.578529"><ele>22.2</ele><time>2021-05-20T11:28:07Z</time><name>PT5467</name></trkpt>
<trkpt lat="53.324215" lon="06.578545"><ele>22.3</ele><time>2021-05-20T11:28:07Z</time><name>PT5468</name></trkpt>
<trkpt lat="53.324217" lon="06.578558"><ele>22.2</ele><time>2021-05-20T11:28:08Z</time><name>PT5469</name></trkpt>
<trkpt lat="53.324219" lon="06.578575"><ele>22.1</ele><time>2021-05-20T11:28:10Z</time><name>PT5470</name></trkpt>
<trkpt lat="53.324219" lon="06.578590"><ele>22</ele><time>2021-05-20T11:28:10Z</time><name>PT5471</name></trkpt>
<trkpt lat="53.324221" lon="06.578600"><ele>22.2</ele><time>2021-05-20T11:28:11Z</time><name>PT5472</name></trkpt>
<trkpt lat="53.324222" lon="06.578607"><ele>22.4</ele><time>2021-05-20T11:28:12Z</time><name>PT5473</name></trkpt>
<trkpt lat="53.324220" lon="06.578611"><ele>22.4</ele><time>2021-05-20T11:28:13Z</time><name>PT5474</name></trkpt>
<trkpt lat="53.324222" lon="06.578615"><ele>22.4</ele><time>2021-05-20T11:28:14Z</time><name>PT5475</name></trkpt>
<trkpt lat="53.324221" lon="06.578621"><ele>22.3</ele><time>2021-05-20T11:28:16Z</time><name>PT5476</name></trkpt>
<trkpt lat="53.324223" lon="06.578629"><ele>22.2</ele><time>2021-05-20T11:28:16Z</time><name>PT5477</name></trkpt>
<trkpt lat="53.324226" lon="06.578641"><ele>22.1</ele><time>2021-05-20T11:28:17Z</time><name>PT5478</name></trkpt>
<trkpt lat="53.324231" lon="06.578654"><ele>22</ele><time>2021-05-20T11:28:19Z</time><name>PT5479</name></trkpt>
<trkpt lat="53.324235" lon="06.578668"><ele>21.9</ele><time>2021-05-20T11:28:19Z</time><name>PT5480</name></trkpt>
<trkpt lat="53.324243" lon="06.578683"><ele>22</ele><time>2021-05-20T11:28:20Z</time><name>PT5481</name></trkpt>
<trkpt lat="53.324250" lon="06.578697"><ele>21.9</ele><time>2021-05-20T11:28:22Z</time><name>PT5482</name></trkpt>
<trkpt lat="53.324255" lon="06.578709"><ele>21.9</ele><time>2021-05-20T11:28:22Z</time><name>PT5483</name></trkpt>
<trkpt lat="53.324261" lon="06.578720"><ele>21.9</ele><time>2021-05-20T11:28:23Z</time><name>PT5484</name></trkpt>
<trkpt lat="53.324266" lon="06.578731"><ele>21.9</ele><time>2021-05-20T11:28:24Z</time><name>PT5485</name></trkpt>
<trkpt lat="53.324272" lon="06.578744"><ele>21.9</ele><time>2021-05-20T11:28:25Z</time><name>PT5486</name></trkpt>
<trkpt lat="53.324279" lon="06.578755"><ele>21.9</ele><time>2021-05-20T11:28:26Z</time><name>PT5487</name></trkpt>
<trkpt lat="53.324288" lon="06.578766"><ele>21.8</ele><time>2021-05-20T11:28:28Z</time><name>PT5488</name></trkpt>
<trkpt lat="53.324296" lon="06.578777"><ele>21.9</ele><time>2021-05-20T11:28:28Z</time><name>PT5489</name></trkpt>
<trkpt lat="53.324306" lon="06.578788"><ele>21.8</ele><time>2021-05-20T11:28:29Z</time><name>PT5490</name></trkpt>
<trkpt lat="53.324315" lon="06.578800"><ele>21.7</ele><time>2021-05-20T11:28:30Z</time><name>PT5491</name></trkpt>
<trkpt lat="53.324326" lon="06.578812"><ele>21.9</ele><time>2021-05-20T11:28:31Z</time><name>PT5492</name></trkpt>
<trkpt lat="53.324334" lon="06.578825"><ele>22</ele><time>2021-05-20T11:28:32Z</time><name>PT5493</name></trkpt>
<trkpt lat="53.324342" lon="06.578838"><ele>22.1</ele><time>2021-05-20T11:28:33Z</time><name>PT5494</name></trkpt>
<trkpt lat="53.324352" lon="06.578851"><ele>22.4</ele><time>2021-05-20T11:28:34Z</time><name>PT5495</name></trkpt>
<trkpt lat="53.324362" lon="06.578863"><ele>22.4</ele><time>2021-05-20T11:28:36Z</time><name>PT5496</name></trkpt>
<trkpt lat="53.324370" lon="06.578875"><ele>22.6</ele><time>2021-05-20T11:28:36Z</time><name>PT5497</name></trkpt>
<trkpt lat="53.324377" lon="06.578886"><ele>22.4</ele><time>2021-05-20T11:28:37Z</time><name>PT5498</name></trkpt>
<trkpt lat="53.324384" lon="06.578900"><ele>22.4</ele><time>2021-05-20T11:28:38Z</time><name>PT5499</name></trkpt>
<trkpt lat="53.324391" lon="06.578914"><ele>22.1</ele><time>2021-05-20T11:28:39Z</time><name>PT5500</name></trkpt>
<trkpt lat="53.324399" lon="06.578926"><ele>21.9</ele><time>2021-05-20T11:28:40Z</time><name>PT5501</name></trkpt>
<trkpt lat="53.324405" lon="06.578937"><ele>21.9</ele><time>2021-05-20T11:28:42Z</time><name>PT5502</name></trkpt>
<trkpt lat="53.324412" lon="06.578951"><ele>21.9</ele><time>2021-05-20T11:28:42Z</time><name>PT5503</name></trkpt>
<trkpt lat="53.324420" lon="06.578967"><ele>21.8</ele><time>2021-05-20T11:28:43Z</time><name>PT5504</name></trkpt>
<trkpt lat="53.324426" lon="06.578982"><ele>21.8</ele><time>2021-05-20T11:28:45Z</time><name>PT5505</name></trkpt>
<trkpt lat="53.324430" lon="06.578997"><ele>21.7</ele><time>2021-05-20T11:28:45Z</time><name>PT5506</name></trkpt>
<trkpt lat="53.324434" lon="06.579013"><ele>21.6</ele><time>2021-05-20T11:28:46Z</time><name>PT5507</name></trkpt>
<trkpt lat="53.324438" lon="06.579031"><ele>21.7</ele><time>2021-05-20T11:28:48Z</time><name>PT5508</name></trkpt>
<trkpt lat="53.324442" lon="06.579047"><ele>21.9</ele><time>2021-05-20T11:28:48Z</time><name>PT5509</name></trkpt>
<trkpt lat="53.324445" lon="06.579062"><ele>21.9</ele><time>2021-05-20T11:28:49Z</time><name>PT5510</name></trkpt>
<trkpt lat="53.324449" lon="06.579078"><ele>22</ele><time>2021-05-20T11:28:50Z</time><name>PT5511</name></trkpt>
<trkpt lat="53.324453" lon="06.579092"><ele>22</ele><time>2021-05-20T11:28:51Z</time><name>PT5512</name></trkpt>
<trkpt lat="53.324456" lon="06.579107"><ele>22</ele><time>2021-05-20T11:28:52Z</time><name>PT5513</name></trkpt>
<trkpt lat="53.324459" lon="06.579125"><ele>22</ele><time>2021-05-20T11:28:54Z</time><name>PT5514</name></trkpt>
<trkpt lat="53.324461" lon="06.579145"><ele>22.1</ele><time>2021-05-20T11:28:54Z</time><name>PT5515</name></trkpt>
<trkpt lat="53.324464" lon="06.579168"><ele>22.2</ele><time>2021-05-20T11:28:55Z</time><name>PT5516</name></trkpt>
<trkpt lat="53.324468" lon="06.579190"><ele>22</ele><time>2021-05-20T11:28:57Z</time><name>PT5517</name></trkpt>
<trkpt lat="53.324470" lon="06.579209"><ele>22.2</ele><time>2021-05-20T11:28:57Z</time><name>PT5518</name></trkpt>
<trkpt lat="53.324471" lon="06.579229"><ele>22</ele><time>2021-05-20T11:28:58Z</time><name>PT5519</name></trkpt>
<trkpt lat="53.324473" lon="06.579248"><ele>21.9</ele><time>2021-05-20T11:29:00Z</time><name>PT5520</name></trkpt>
<trkpt lat="53.324476" lon="06.579267"><ele>22</ele><time>2021-05-20T11:29:00Z</time><name>PT5521</name></trkpt>
<trkpt lat="53.324478" lon="06.579284"><ele>21.9</ele><time>2021-05-20T11:29:01Z</time><name>PT5522</name></trkpt>
<trkpt lat="53.324479" lon="06.579300"><ele>21.9</ele><time>2021-05-20T11:29:03Z</time><name>PT5523</name></trkpt>
<trkpt lat="53.324482" lon="06.579313"><ele>21.8</ele><time>2021-05-20T11:29:03Z</time><name>PT5524</name></trkpt>
<trkpt lat="53.324485" lon="06.579328"><ele>21.9</ele><time>2021-05-20T11:29:04Z</time><name>PT5525</name></trkpt>
<trkpt lat="53.324488" lon="06.579345"><ele>21.8</ele><time>2021-05-20T11:29:06Z</time><name>PT5526</name></trkpt>
<trkpt lat="53.324494" lon="06.579362"><ele>21.6</ele><time>2021-05-20T11:29:06Z</time><name>PT5527</name></trkpt>
<trkpt lat="53.324497" lon="06.579380"><ele>21.7</ele><time>2021-05-20T11:29:07Z</time><name>PT5528</name></trkpt>
<trkpt lat="53.324500" lon="06.579400"><ele>21.6</ele><time>2021-05-20T11:29:09Z</time><name>PT5529</name></trkpt>
<trkpt lat="53.324504" lon="06.579420"><ele>21.7</ele><time>2021-05-20T11:29:09Z</time><name>PT5530</name></trkpt>
<trkpt lat="53.324505" lon="06.579440"><ele>21.8</ele><time>2021-05-20T11:29:10Z</time><name>PT5531</name></trkpt>
<trkpt lat="53.324510" lon="06.579461"><ele>21.9</ele><time>2021-05-20T11:29:12Z</time><name>PT5532</name></trkpt>
<trkpt lat="53.324515" lon="06.579480"><ele>21.9</ele><time>2021-05-20T11:29:12Z</time><name>PT5533</name></trkpt>
<trkpt lat="53.324521" lon="06.579496"><ele>22</ele><time>2021-05-20T11:29:13Z</time><name>PT5534</name></trkpt>
<trkpt lat="53.324528" lon="06.579513"><ele>22</ele><time>2021-05-20T11:29:15Z</time><name>PT5535</name></trkpt>
<trkpt lat="53.324537" lon="06.579529"><ele>21.9</ele><time>2021-05-20T11:29:15Z</time><name>PT5536</name></trkpt>
<trkpt lat="53.324546" lon="06.579544"><ele>21.6</ele><time>2021-05-20T11:29:16Z</time><name>PT5537</name></trkpt>
<trkpt lat="53.324553" lon="06.579555"><ele>21.6</ele><time>2021-05-20T11:29:18Z</time><name>PT5538</name></trkpt>
<trkpt lat="53.324561" lon="06.579567"><ele>21.6</ele><time>2021-05-20T11:29:18Z</time><name>PT5539</name></trkpt>
<trkpt lat="53.324570" lon="06.579580"><ele>21.6</ele><time>2021-05-20T11:29:19Z</time><name>PT5540</name></trkpt>
<trkpt lat="53.324579" lon="06.579589"><ele>21.7</ele><time>2021-05-20T11:29:21Z</time><name>PT5541</name></trkpt>
<trkpt lat="53.324589" lon="06.579597"><ele>21.9</ele><time>2021-05-20T11:29:21Z</time><name>PT5542</name></trkpt>
<trkpt lat="53.324600" lon="06.579604"><ele>21.8</ele><time>2021-05-20T11:29:22Z</time><name>PT5543</name></trkpt>
<trkpt lat="53.324611" lon="06.579608"><ele>21.7</ele><time>2021-05-20T11:29:24Z</time><name>PT5544</name></trkpt>
<trkpt lat="53.324623" lon="06.579610"><ele>21.8</ele><time>2021-05-20T11:29:24Z</time><name>PT5545</name></trkpt>
<trkpt lat="53.324634" lon="06.579611"><ele>21.7</ele><time>2021-05-20T11:29:25Z</time><name>PT5546</name></trkpt>
<trkpt lat="53.324644" lon="06.579614"><ele>21.9</ele><time>2021-05-20T11:29:27Z</time><name>PT5547</name></trkpt>
<trkpt lat="53.324656" lon="06.579618"><ele>21.9</ele><time>2021-05-20T11:29:27Z</time><name>PT5548</name></trkpt>
<trkpt lat="53.324667" lon="06.579622"><ele>21.9</ele><time>2021-05-20T11:29:28Z</time><name>PT5549</name></trkpt>
<trkpt lat="53.324678" lon="06.579623"><ele>21.9</ele><time>2021-05-20T11:29:29Z</time><name>PT5550</name></trkpt>
<trkpt lat="53.324692" lon="06.579624"><ele>22.1</ele><time>2021-05-20T11:29:30Z</time><name>PT5551</name></trkpt>
<trkpt lat="53.324705" lon="06.579621"><ele>22</ele><time>2021-05-20T11:29:31Z</time><name>PT5552</name></trkpt>
<trkpt lat="53.324720" lon="06.579622"><ele>21.9</ele><time>2021-05-20T11:29:33Z</time><name>PT5553</name></trkpt>
<trkpt lat="53.324735" lon="06.579618"><ele>21.9</ele><time>2021-05-20T11:29:33Z</time><name>PT5554</name></trkpt>
<trkpt lat="53.324749" lon="06.579614"><ele>21.9</ele><time>2021-05-20T11:29:34Z</time><name>PT5555</name></trkpt>
<trkpt lat="53.324761" lon="06.579610"><ele>22.2</ele><time>2021-05-20T11:29:36Z</time><name>PT5556</name></trkpt>
<trkpt lat="53.324775" lon="06.579606"><ele>22.2</ele><time>2021-05-20T11:29:36Z</time><name>PT5557</name></trkpt>
<trkpt lat="53.324787" lon="06.579603"><ele>22.4</ele><time>2021-05-20T11:29:37Z</time><name>PT5558</name></trkpt>
<trkpt lat="53.324798" lon="06.579599"><ele>22.3</ele><time>2021-05-20T11:29:39Z</time><name>PT5559</name></trkpt>
<trkpt lat="53.324810" lon="06.579596"><ele>22.1</ele><time>2021-05-20T11:29:39Z</time><name>PT5560</name></trkpt>
<trkpt lat="53.324820" lon="06.579594"><ele>22.1</ele><time>2021-05-20T11:29:40Z</time><name>PT5561</name></trkpt>
<trkpt lat="53.324831" lon="06.579593"><ele>22</ele><time>2021-05-20T11:29:41Z</time><name>PT5562</name></trkpt>
<trkpt lat="53.324842" lon="06.579592"><ele>21.9</ele><time>2021-05-20T11:29:42Z</time><name>PT5563</name></trkpt>
<trkpt lat="53.324853" lon="06.579591"><ele>21.9</ele><time>2021-05-20T11:29:43Z</time><name>PT5564</name></trkpt>
<trkpt lat="53.324866" lon="06.579588"><ele>21.9</ele><time>2021-05-20T11:29:44Z</time><name>PT5565</name></trkpt>
<trkpt lat="53.324878" lon="06.579584"><ele>21.9</ele><time>2021-05-20T11:29:45Z</time><name>PT5566</name></trkpt>
<trkpt lat="53.324889" lon="06.579579"><ele>21.9</ele><time>2021-05-20T11:29:46Z</time><name>PT5567</name></trkpt>
<trkpt lat="53.324898" lon="06.579571"><ele>22</ele><time>2021-05-20T11:29:47Z</time><name>PT5568</name></trkpt>
<trkpt lat="53.324906" lon="06.579564"><ele>22.1</ele><time>2021-05-20T11:29:49Z</time><name>PT5569</name></trkpt>
<trkpt lat="53.324917" lon="06.579560"><ele>22.1</ele><time>2021-05-20T11:29:49Z</time><name>PT5570</name></trkpt>
<trkpt lat="53.324928" lon="06.579559"><ele>22.1</ele><time>2021-05-20T11:29:50Z</time><name>PT5571</name></trkpt>
<trkpt lat="53.324940" lon="06.579558"><ele>22.1</ele><time>2021-05-20T11:29:52Z</time><name>PT5572</name></trkpt>
<trkpt lat="53.324952" lon="06.579555"><ele>22.2</ele><time>2021-05-20T11:29:52Z</time><name>PT5573</name></trkpt>
<trkpt lat="53.324963" lon="06.579550"><ele>22.2</ele><time>2021-05-20T11:29:53Z</time><name>PT5574</name></trkpt>
<trkpt lat="53.324975" lon="06.579546"><ele>22.1</ele><time>2021-05-20T11:29:54Z</time><name>PT5575</name></trkpt>
<trkpt lat="53.324987" lon="06.579541"><ele>21.9</ele><time>2021-05-20T11:29:55Z</time><name>PT5576</name></trkpt>
<trkpt lat="53.324998" lon="06.579537"><ele>21.9</ele><time>2021-05-20T11:29:56Z</time><name>PT5577</name></trkpt>
<trkpt lat="53.325007" lon="06.579534"><ele>21.6</ele><time>2021-05-20T11:29:57Z</time><name>PT5578</name></trkpt>
<trkpt lat="53.325018" lon="06.579531"><ele>21.7</ele><time>2021-05-20T11:29:58Z</time><name>PT5579</name></trkpt>
<trkpt lat="53.325028" lon="06.579529"><ele>21.7</ele><time>2021-05-20T11:29:59Z</time><name>PT5580</name></trkpt>
<trkpt lat="53.325040" lon="06.579529"><ele>21.8</ele><time>2021-05-20T11:30:00Z</time><name>PT5581</name></trkpt>
<trkpt lat="53.325053" lon="06.579527"><ele>21.9</ele><time>2021-05-20T11:30:01Z</time><name>PT5582</name></trkpt>
<trkpt lat="53.325065" lon="06.579528"><ele>21.9</ele><time>2021-05-20T11:30:02Z</time><name>PT5583</name></trkpt>
<trkpt lat="53.325077" lon="06.579527"><ele>21.8</ele><time>2021-05-20T11:30:04Z</time><name>PT5584</name></trkpt>
<trkpt lat="53.325088" lon="06.579524"><ele>21.8</ele><time>2021-05-20T11:30:04Z</time><name>PT5585</name></trkpt>
<trkpt lat="53.325100" lon="06.579519"><ele>21.7</ele><time>2021-05-20T11:30:05Z</time><name>PT5586</name></trkpt>
<trkpt lat="53.325112" lon="06.579514"><ele>21.6</ele><time>2021-05-20T11:30:06Z</time><name>PT5587</name></trkpt>
<trkpt lat="53.325125" lon="06.579508"><ele>21.8</ele><time>2021-05-20T11:30:07Z</time><name>PT5588</name></trkpt>
<trkpt lat="53.325137" lon="06.579504"><ele>21.9</ele><time>2021-05-20T11:30:08Z</time><name>PT5589</name></trkpt>
<trkpt lat="53.325148" lon="06.579500"><ele>21.9</ele><time>2021-05-20T11:30:10Z</time><name>PT5590</name></trkpt>
<trkpt lat="53.325160" lon="06.579497"><ele>21.9</ele><time>2021-05-20T11:30:10Z</time><name>PT5591</name></trkpt>
<trkpt lat="53.325172" lon="06.579493"><ele>21.8</ele><time>2021-05-20T11:30:11Z</time><name>PT5592</name></trkpt>
<trkpt lat="53.325184" lon="06.579489"><ele>21.8</ele><time>2021-05-20T11:30:12Z</time><name>PT5593</name></trkpt>
<trkpt lat="53.325196" lon="06.579486"><ele>21.7</ele><time>2021-05-20T11:30:13Z</time><name>PT5594</name></trkpt>
<trkpt lat="53.325208" lon="06.579482"><ele>21.9</ele><time>2021-05-20T11:30:14Z</time><name>PT5595</name></trkpt>
<trkpt lat="53.325220" lon="06.579477"><ele>21.9</ele><time>2021-05-20T11:30:15Z</time><name>PT5596</name></trkpt>
<trkpt lat="53.325231" lon="06.579472"><ele>21.9</ele><time>2021-05-20T11:30:16Z</time><name>PT5597</name></trkpt>
<trkpt lat="53.325241" lon="06.579466"><ele>21.9</ele><time>2021-05-20T11:30:18Z</time><name>PT5598</name></trkpt>
<trkpt lat="53.325252" lon="06.579462"><ele>21.9</ele><time>2021-05-20T11:30:18Z</time><name>PT5599</name></trkpt>
<trkpt lat="53.325261" lon="06.579457"><ele>21.9</ele><time>2021-05-20T11:30:19Z</time><name>PT5600</name></trkpt>
<trkpt lat="53.325273" lon="06.579452"><ele>21.9</ele><time>2021-05-20T11:30:20Z</time><name>PT5601</name></trkpt>
<trkpt lat="53.325283" lon="06.579449"><ele>21.7</ele><time>2021-05-20T11:30:21Z</time><name>PT5602</name></trkpt>
<trkpt lat="53.325295" lon="06.579448"><ele>21.8</ele><time>2021-05-20T11:30:23Z</time><name>PT5603</name></trkpt>
<trkpt lat="53.325307" lon="06.579448"><ele>21.7</ele><time>2021-05-20T11:30:23Z</time><name>PT5604</name></trkpt>
<trkpt lat="53.325319" lon="06.579445"><ele>21.9</ele><time>2021-05-20T11:30:24Z</time><name>PT5605</name></trkpt>
<trkpt lat="53.325332" lon="06.579440"><ele>22</ele><time>2021-05-20T11:30:26Z</time><name>PT5606</name></trkpt>
<trkpt lat="53.325343" lon="06.579433"><ele>21.9</ele><time>2021-05-20T11:30:26Z</time><name>PT5607</name></trkpt>
<trkpt lat="53.325354" lon="06.579428"><ele>21.9</ele><time>2021-05-20T11:30:27Z</time><name>PT5608</name></trkpt>
<trkpt lat="53.325367" lon="06.579423"><ele>21.8</ele><time>2021-05-20T11:30:29Z</time><name>PT5609</name></trkpt>
<trkpt lat="53.325377" lon="06.579417"><ele>21.7</ele><time>2021-05-20T11:30:29Z</time><name>PT5610</name></trkpt>
<trkpt lat="53.325389" lon="06.579412"><ele>21.7</ele><time>2021-05-20T11:30:30Z</time><name>PT5611</name></trkpt>
<trkpt lat="53.325399" lon="06.579406"><ele>21.8</ele><time>2021-05-20T11:30:32Z</time><name>PT5612</name></trkpt>
<trkpt lat="53.325410" lon="06.579400"><ele>21.7</ele><time>2021-05-20T11:30:32Z</time><name>PT5613</name></trkpt>
<trkpt lat="53.325419" lon="06.579396"><ele>21.4</ele><time>2021-05-20T11:30:33Z</time><name>PT5614</name></trkpt>
<trkpt lat="53.325427" lon="06.579392"><ele>21.3</ele><time>2021-05-20T11:30:34Z</time><name>PT5615</name></trkpt>
<trkpt lat="53.325437" lon="06.579388"><ele>21.1</ele><time>2021-05-20T11:30:35Z</time><name>PT5616</name></trkpt>
<trkpt lat="53.325448" lon="06.579386"><ele>21</ele><time>2021-05-20T11:30:36Z</time><name>PT5617</name></trkpt>
<trkpt lat="53.325460" lon="06.579381"><ele>21.1</ele><time>2021-05-20T11:30:38Z</time><name>PT5618</name></trkpt>
<trkpt lat="53.325472" lon="06.579375"><ele>21.4</ele><time>2021-05-20T11:30:38Z</time><name>PT5619</name></trkpt>
<trkpt lat="53.325483" lon="06.579371"><ele>21.5</ele><time>2021-05-20T11:30:39Z</time><name>PT5620</name></trkpt>
<trkpt lat="53.325497" lon="06.579366"><ele>21.5</ele><time>2021-05-20T11:30:41Z</time><name>PT5621</name></trkpt>
<trkpt lat="53.325506" lon="06.579360"><ele>21.8</ele><time>2021-05-20T11:30:41Z</time><name>PT5622</name></trkpt>
<trkpt lat="53.325514" lon="06.579354"><ele>21.7</ele><time>2021-05-20T11:30:42Z</time><name>PT5623</name></trkpt>
<trkpt lat="53.325525" lon="06.579347"><ele>21.5</ele><time>2021-05-20T11:30:43Z</time><name>PT5624</name></trkpt>
<trkpt lat="53.325537" lon="06.579341"><ele>21.3</ele><time>2021-05-20T11:30:44Z</time><name>PT5625</name></trkpt>
<trkpt lat="53.325547" lon="06.579336"><ele>21.4</ele><time>2021-05-20T11:30:45Z</time><name>PT5626</name></trkpt>
<trkpt lat="53.325559" lon="06.579332"><ele>21.4</ele><time>2021-05-20T11:30:46Z</time><name>PT5627</name></trkpt>
<trkpt lat="53.325569" lon="06.579328"><ele>21.5</ele><time>2021-05-20T11:30:47Z</time><name>PT5628</name></trkpt>
<trkpt lat="53.325580" lon="06.579325"><ele>21.8</ele><time>2021-05-20T11:30:48Z</time><name>PT5629</name></trkpt>
<trkpt lat="53.325593" lon="06.579321"><ele>21.8</ele><time>2021-05-20T11:30:50Z</time><name>PT5630</name></trkpt>
<trkpt lat="53.325606" lon="06.579317"><ele>21.8</ele><time>2021-05-20T11:30:50Z</time><name>PT5631</name></trkpt>
<trkpt lat="53.325617" lon="06.579313"><ele>21.9</ele><time>2021-05-20T11:30:51Z</time><name>PT5632</name></trkpt>
<trkpt lat="53.325627" lon="06.579309"><ele>21.9</ele><time>2021-05-20T11:30:52Z</time><name>PT5633</name></trkpt>
<trkpt lat="53.325639" lon="06.579304"><ele>21.8</ele><time>2021-05-20T11:30:53Z</time><name>PT5634</name></trkpt>
<trkpt lat="53.325651" lon="06.579299"><ele>21.9</ele><time>2021-05-20T11:30:54Z</time><name>PT5635</name></trkpt>
<trkpt lat="53.325662" lon="06.579293"><ele>21.8</ele><time>2021-05-20T11:30:56Z</time><name>PT5636</name></trkpt>
<trkpt lat="53.325674" lon="06.579286"><ele>21.8</ele><time>2021-05-20T11:30:56Z</time><name>PT5637</name></trkpt>
<trkpt lat="53.325684" lon="06.579281"><ele>21.9</ele><time>2021-05-20T11:30:57Z</time><name>PT5638</name></trkpt>
<trkpt lat="53.325695" lon="06.579276"><ele>21.9</ele><time>2021-05-20T11:30:59Z</time><name>PT5639</name></trkpt>
<trkpt lat="53.325704" lon="06.579274"><ele>21.9</ele><time>2021-05-20T11:30:59Z</time><name>PT5640</name></trkpt>
<trkpt lat="53.325717" lon="06.579272"><ele>21.9</ele><time>2021-05-20T11:31:00Z</time><name>PT5641</name></trkpt>
<trkpt lat="53.325730" lon="06.579271"><ele>21.7</ele><time>2021-05-20T11:31:02Z</time><name>PT5642</name></trkpt>
<trkpt lat="53.325742" lon="06.579268"><ele>21.6</ele><time>2021-05-20T11:31:02Z</time><name>PT5643</name></trkpt>
<trkpt lat="53.325755" lon="06.579265"><ele>21.6</ele><time>2021-05-20T11:31:03Z</time><name>PT5644</name></trkpt>
<trkpt lat="53.325767" lon="06.579259"><ele>21.7</ele><time>2021-05-20T11:31:04Z</time><name>PT5645</name></trkpt>
<trkpt lat="53.325772" lon="06.579252"><ele>21.8</ele><time>2021-05-20T11:31:05Z</time><name>PT5646</name></trkpt>
<trkpt lat="53.325780" lon="06.579245"><ele>21.8</ele><time>2021-05-20T11:31:06Z</time><name>PT5647</name></trkpt>
<trkpt lat="53.325792" lon="06.579239"><ele>21.9</ele><time>2021-05-20T11:31:08Z</time><name>PT5648</name></trkpt>
<trkpt lat="53.325802" lon="06.579235"><ele>21.9</ele><time>2021-05-20T11:31:08Z</time><name>PT5649</name></trkpt>
<trkpt lat="53.325812" lon="06.579230"><ele>21.8</ele><time>2021-05-20T11:31:09Z</time><name>PT5650</name></trkpt>
<trkpt lat="53.325824" lon="06.579224"><ele>21.8</ele><time>2021-05-20T11:31:10Z</time><name>PT5651</name></trkpt>
<trkpt lat="53.325834" lon="06.579220"><ele>21.7</ele><time>2021-05-20T11:31:11Z</time><name>PT5652</name></trkpt>
<trkpt lat="53.325844" lon="06.579215"><ele>21.6</ele><time>2021-05-20T11:31:12Z</time><name>PT5653</name></trkpt>
<trkpt lat="53.325853" lon="06.579207"><ele>21.7</ele><time>2021-05-20T11:31:13Z</time><name>PT5654</name></trkpt>
<trkpt lat="53.325861" lon="06.579199"><ele>21.8</ele><time>2021-05-20T11:31:14Z</time><name>PT5655</name></trkpt>
<trkpt lat="53.325870" lon="06.579192"><ele>21.7</ele><time>2021-05-20T11:31:15Z</time><name>PT5656</name></trkpt>
<trkpt lat="53.325874" lon="06.579184"><ele>21.6</ele><time>2021-05-20T11:31:16Z</time><name>PT5657</name></trkpt>
<trkpt lat="53.325881" lon="06.579178"><ele>21.6</ele><time>2021-05-20T11:31:17Z</time><name>PT5658</name></trkpt>
<trkpt lat="53.325891" lon="06.579172"><ele>21.4</ele><time>2021-05-20T11:31:18Z</time><name>PT5659</name></trkpt>
<trkpt lat="53.325901" lon="06.579165"><ele>21.3</ele><time>2021-05-20T11:31:19Z</time><name>PT5660</name></trkpt>
<trkpt lat="53.325910" lon="06.579158"><ele>21.4</ele><time>2021-05-20T11:31:20Z</time><name>PT5661</name></trkpt>
<trkpt lat="53.325919" lon="06.579148"><ele>21.4</ele><time>2021-05-20T11:31:21Z</time><name>PT5662</name></trkpt>
<trkpt lat="53.325928" lon="06.579139"><ele>21.5</ele><time>2021-05-20T11:31:22Z</time><name>PT5663</name></trkpt>
<trkpt lat="53.325937" lon="06.579128"><ele>21.6</ele><time>2021-05-20T11:31:23Z</time><name>PT5664</name></trkpt>
<trkpt lat="53.325945" lon="06.579119"><ele>21.7</ele><time>2021-05-20T11:31:25Z</time><name>PT5665</name></trkpt>
<trkpt lat="53.325953" lon="06.579110"><ele>21.6</ele><time>2021-05-20T11:31:25Z</time><name>PT5666</name></trkpt>
<trkpt lat="53.325960" lon="06.579101"><ele>21.8</ele><time>2021-05-20T11:31:26Z</time><name>PT5667</name></trkpt>
<trkpt lat="53.325967" lon="06.579093"><ele>21.5</ele><time>2021-05-20T11:31:28Z</time><name>PT5668</name></trkpt>
<trkpt lat="53.325975" lon="06.579085"><ele>21.5</ele><time>2021-05-20T11:31:28Z</time><name>PT5669</name></trkpt>
<trkpt lat="53.325983" lon="06.579074"><ele>21.6</ele><time>2021-05-20T11:31:29Z</time><name>PT5670</name></trkpt>
<trkpt lat="53.325989" lon="06.579065"><ele>21.5</ele><time>2021-05-20T11:31:30Z</time><name>PT5671</name></trkpt>
<trkpt lat="53.325997" lon="06.579056"><ele>21.6</ele><time>2021-05-20T11:31:31Z</time><name>PT5672</name></trkpt>
<trkpt lat="53.326004" lon="06.579045"><ele>21.5</ele><time>2021-05-20T11:31:32Z</time><name>PT5673</name></trkpt>
<trkpt lat="53.326013" lon="06.579034"><ele>21.5</ele><time>2021-05-20T11:31:34Z</time><name>PT5674</name></trkpt>
<trkpt lat="53.326021" lon="06.579023"><ele>21.5</ele><time>2021-05-20T11:31:34Z</time><name>PT5675</name></trkpt>
<trkpt lat="53.326028" lon="06.579011"><ele>21.5</ele><time>2021-05-20T11:31:35Z</time><name>PT5676</name></trkpt>
<trkpt lat="53.326035" lon="06.579000"><ele>21.5</ele><time>2021-05-20T11:31:37Z</time><name>PT5677</name></trkpt>
<trkpt lat="53.326043" lon="06.578988"><ele>21.5</ele><time>2021-05-20T11:31:37Z</time><name>PT5678</name></trkpt>
<trkpt lat="53.326050" lon="06.578978"><ele>21.5</ele><time>2021-05-20T11:31:38Z</time><name>PT5679</name></trkpt>
<trkpt lat="53.326058" lon="06.578968"><ele>21.6</ele><time>2021-05-20T11:31:39Z</time><name>PT5680</name></trkpt>
<trkpt lat="53.326067" lon="06.578957"><ele>21.5</ele><time>2021-05-20T11:31:40Z</time><name>PT5681</name></trkpt>
<trkpt lat="53.326075" lon="06.578946"><ele>21.8</ele><time>2021-05-20T11:31:41Z</time><name>PT5682</name></trkpt>
<trkpt lat="53.326082" lon="06.578933"><ele>21.8</ele><time>2021-05-20T11:31:42Z</time><name>PT5683</name></trkpt>
<trkpt lat="53.326089" lon="06.578921"><ele>21.8</ele><time>2021-05-20T11:31:43Z</time><name>PT5684</name></trkpt>
<trkpt lat="53.326097" lon="06.578910"><ele>21.9</ele><time>2021-05-20T11:31:44Z</time><name>PT5685</name></trkpt>
<trkpt lat="53.326104" lon="06.578899"><ele>21.9</ele><time>2021-05-20T11:31:45Z</time><name>PT5686</name></trkpt>
<trkpt lat="53.326113" lon="06.578888"><ele>21.8</ele><time>2021-05-20T11:31:46Z</time><name>PT5687</name></trkpt>
<trkpt lat="53.326122" lon="06.578878"><ele>21.5</ele><time>2021-05-20T11:31:47Z</time><name>PT5688</name></trkpt>
<trkpt lat="53.326128" lon="06.578865"><ele>21.5</ele><time>2021-05-20T11:31:48Z</time><name>PT5689</name></trkpt>
<trkpt lat="53.326135" lon="06.578851"><ele>21.5</ele><time>2021-05-20T11:31:49Z</time><name>PT5690</name></trkpt>
<trkpt lat="53.326142" lon="06.578838"><ele>21.6</ele><time>2021-05-20T11:31:50Z</time><name>PT5691</name></trkpt>
<trkpt lat="53.326150" lon="06.578827"><ele>21.8</ele><time>2021-05-20T11:31:51Z</time><name>PT5692</name></trkpt>
<trkpt lat="53.326158" lon="06.578817"><ele>21.7</ele><time>2021-05-20T11:31:52Z</time><name>PT5693</name></trkpt>
<trkpt lat="53.326167" lon="06.578808"><ele>21.7</ele><time>2021-05-20T11:31:53Z</time><name>PT5694</name></trkpt>
<trkpt lat="53.326175" lon="06.578798"><ele>21.7</ele><time>2021-05-20T11:31:54Z</time><name>PT5695</name></trkpt>
<trkpt lat="53.326183" lon="06.578788"><ele>21.5</ele><time>2021-05-20T11:31:55Z</time><name>PT5696</name></trkpt>
<trkpt lat="53.326191" lon="06.578776"><ele>21.5</ele><time>2021-05-20T11:31:56Z</time><name>PT5697</name></trkpt>
<trkpt lat="53.326199" lon="06.578765"><ele>21.6</ele><time>2021-05-20T11:31:57Z</time><name>PT5698</name></trkpt>
<trkpt lat="53.326208" lon="06.578756"><ele>21.7</ele><time>2021-05-20T11:31:58Z</time><name>PT5699</name></trkpt>
<trkpt lat="53.326217" lon="06.578744"><ele>21.9</ele><time>2021-05-20T11:31:59Z</time><name>PT5700</name></trkpt>
<trkpt lat="53.326228" lon="06.578734"><ele>22</ele><time>2021-05-20T11:32:00Z</time><name>PT5701</name></trkpt>
<trkpt lat="53.326240" lon="06.578724"><ele>-2.1</ele><time>2021-05-20T11:32:01Z</time><name>PT5702</name></trkpt>
<trkpt lat="53.326249" lon="06.578714"><ele>-2.2</ele><time>2021-05-20T11:32:02Z</time><name>PT5703</name></trkpt>
<trkpt lat="53.326257" lon="06.578703"><ele>-2.2</ele><time>2021-05-20T11:32:03Z</time><name>PT5704</name></trkpt>
<trkpt lat="53.326267" lon="06.578693"><ele>-2.2</ele><time>2021-05-20T11:32:05Z</time><name>PT5705</name></trkpt>
<trkpt lat="53.326276" lon="06.578685"><ele>-2.4</ele><time>2021-05-20T11:32:05Z</time><name>PT5706</name></trkpt>
<trkpt lat="53.326285" lon="06.578680"><ele>-2.4</ele><time>2021-05-20T11:32:06Z</time><name>PT5707</name></trkpt>
<trkpt lat="53.326295" lon="06.578675"><ele>-2.4</ele><time>2021-05-20T11:32:07Z</time><name>PT5708</name></trkpt>
<trkpt lat="53.326305" lon="06.578670"><ele>-2.5</ele><time>2021-05-20T11:32:08Z</time><name>PT5709</name></trkpt>
<trkpt lat="53.326315" lon="06.578664"><ele>-2.3</ele><time>2021-05-20T11:32:09Z</time><name>PT5710</name></trkpt>
<trkpt lat="53.326325" lon="06.578660"><ele>-2.2</ele><time>2021-05-20T11:32:11Z</time><name>PT5711</name></trkpt>
<trkpt lat="53.326336" lon="06.578654"><ele>-2.2</ele><time>2021-05-20T11:32:11Z</time><name>PT5712</name></trkpt>
<trkpt lat="53.326347" lon="06.578648"><ele>-2.2</ele><time>2021-05-20T11:32:12Z</time><name>PT5713</name></trkpt>
<trkpt lat="53.326357" lon="06.578645"><ele>-2.3</ele><time>2021-05-20T11:32:13Z</time><name>PT5714</name></trkpt>
<trkpt lat="53.326367" lon="06.578643"><ele>-2.3</ele><time>2021-05-20T11:32:14Z</time><name>PT5715</name></trkpt>
<trkpt lat="53.326378" lon="06.578643"><ele>-2.3</ele><time>2021-05-20T11:32:15Z</time><name>PT5716</name></trkpt>
<trkpt lat="53.326391" lon="06.578643"><ele>-2.2</ele><time>2021-05-20T11:32:16Z</time><name>PT5717</name></trkpt>
<trkpt lat="53.326404" lon="06.578641"><ele>-2.3</ele><time>2021-05-20T11:32:17Z</time><name>PT5718</name></trkpt>
<trkpt lat="53.326418" lon="06.578635"><ele>-2.2</ele><time>2021-05-20T11:32:18Z</time><name>PT5719</name></trkpt>
<trkpt lat="53.326432" lon="06.578630"><ele>-2.2</ele><time>2021-05-20T11:32:19Z</time><name>PT5720</name></trkpt>
<trkpt lat="53.326448" lon="06.578624"><ele>-2.1</ele><time>2021-05-20T11:32:20Z</time><name>PT5721</name></trkpt>
<trkpt lat="53.326462" lon="06.578618"><ele>-2</ele><time>2021-05-20T11:32:21Z</time><name>PT5722</name></trkpt>
<trkpt lat="53.326475" lon="06.578616"><ele>-1.9</ele><time>2021-05-20T11:32:23Z</time><name>PT5723</name></trkpt>
<trkpt lat="53.326487" lon="06.578617"><ele>-1.9</ele><time>2021-05-20T11:32:23Z</time><name>PT5724</name></trkpt>
<trkpt lat="53.326500" lon="06.578616"><ele>-2</ele><time>2021-05-20T11:32:24Z</time><name>PT5725</name></trkpt>
<trkpt lat="53.326513" lon="06.578616"><ele>-1.9</ele><time>2021-05-20T11:32:26Z</time><name>PT5726</name></trkpt>
<trkpt lat="53.326526" lon="06.578617"><ele>-2.1</ele><time>2021-05-20T11:32:26Z</time><name>PT5727</name></trkpt>
<trkpt lat="53.326540" lon="06.578617"><ele>-2</ele><time>2021-05-20T11:32:27Z</time><name>PT5728</name></trkpt>
<trkpt lat="53.326553" lon="06.578615"><ele>-2.2</ele><time>2021-05-20T11:32:28Z</time><name>PT5729</name></trkpt>
<trkpt lat="53.326564" lon="06.578614"><ele>-2.2</ele><time>2021-05-20T11:32:29Z</time><name>PT5730</name></trkpt>
<trkpt lat="53.326575" lon="06.578615"><ele>-2</ele><time>2021-05-20T11:32:30Z</time><name>PT5731</name></trkpt>
<trkpt lat="53.326585" lon="06.578619"><ele>-2.1</ele><time>2021-05-20T11:32:31Z</time><name>PT5732</name></trkpt>
<trkpt lat="53.326596" lon="06.578623"><ele>-2.1</ele><time>2021-05-20T11:32:32Z</time><name>PT5733</name></trkpt>
<trkpt lat="53.326606" lon="06.578629"><ele>-2.1</ele><time>2021-05-20T11:32:33Z</time><name>PT5734</name></trkpt>
<trkpt lat="53.326618" lon="06.578633"><ele>-2.3</ele><time>2021-05-20T11:32:34Z</time><name>PT5735</name></trkpt>
<trkpt lat="53.326629" lon="06.578636"><ele>-2.4</ele><time>2021-05-20T11:32:35Z</time><name>PT5736</name></trkpt>
<trkpt lat="53.326639" lon="06.578640"><ele>-2.5</ele><time>2021-05-20T11:32:36Z</time><name>PT5737</name></trkpt>
<trkpt lat="53.326651" lon="06.578642"><ele>-2.4</ele><time>2021-05-20T11:32:37Z</time><name>PT5738</name></trkpt>
<trkpt lat="53.326662" lon="06.578643"><ele>-2.3</ele><time>2021-05-20T11:32:38Z</time><name>PT5739</name></trkpt>
<trkpt lat="53.326671" lon="06.578647"><ele>-2.3</ele><time>2021-05-20T11:32:39Z</time><name>PT5740</name></trkpt>
<trkpt lat="53.326681" lon="06.578651"><ele>-2.2</ele><time>2021-05-20T11:32:40Z</time><name>PT5741</name></trkpt>
<trkpt lat="53.326691" lon="06.578657"><ele>-2.3</ele><time>2021-05-20T11:32:41Z</time><name>PT5742</name></trkpt>
<trkpt lat="53.326699" lon="06.578662"><ele>-2.5</ele><time>2021-05-20T11:32:42Z</time><name>PT5743</name></trkpt>
<trkpt lat="53.326707" lon="06.578665"><ele>-2.6</ele><time>2021-05-20T11:32:43Z</time><name>PT5744</name></trkpt>
<trkpt lat="53.326717" lon="06.578669"><ele>-2.6</ele><time>2021-05-20T11:32:44Z</time><name>PT5745</name></trkpt>
<trkpt lat="53.326725" lon="06.578674"><ele>-2.5</ele><time>2021-05-20T11:32:45Z</time><name>PT5746</name></trkpt>
<trkpt lat="53.326732" lon="06.578682"><ele>-2.5</ele><time>2021-05-20T11:32:46Z</time><name>PT5747</name></trkpt>
<trkpt lat="53.326743" lon="06.578689"><ele>-2.5</ele><time>2021-05-20T11:32:47Z</time><name>PT5748</name></trkpt>
<trkpt lat="53.326751" lon="06.578696"><ele>-2.4</ele><time>2021-05-20T11:32:49Z</time><name>PT5749</name></trkpt>
<trkpt lat="53.326758" lon="06.578704"><ele>-2.5</ele><time>2021-05-20T11:32:49Z</time><name>PT5750</name></trkpt>
<trkpt lat="53.326765" lon="06.578712"><ele>-2.6</ele><time>2021-05-20T11:32:50Z</time><name>PT5751</name></trkpt>
<trkpt lat="53.326771" lon="06.578719"><ele>-2.4</ele><time>2021-05-20T11:32:51Z</time><name>PT5752</name></trkpt>
<trkpt lat="53.326775" lon="06.578729"><ele>-2.4</ele><time>2021-05-20T11:32:52Z</time><name>PT5753</name></trkpt>
<trkpt lat="53.326778" lon="06.578739"><ele>-2.4</ele><time>2021-05-20T11:32:53Z</time><name>PT5754</name></trkpt>
<trkpt lat="53.326779" lon="06.578749"><ele>-2.5</ele><time>2021-05-20T11:32:54Z</time><name>PT5755</name></trkpt>
<trkpt lat="53.326779" lon="06.578760"><ele>-2.7</ele><time>2021-05-20T11:32:55Z</time><name>PT5756</name></trkpt>
<trkpt lat="53.326777" lon="06.578773"><ele>-2.7</ele><time>2021-05-20T11:32:56Z</time><name>PT5757</name></trkpt>
<trkpt lat="53.326773" lon="06.578787"><ele>-2.7</ele><time>2021-05-20T11:32:58Z</time><name>PT5758</name></trkpt>
<trkpt lat="53.326771" lon="06.578801"><ele>-2.8</ele><time>2021-05-20T11:32:58Z</time><name>PT5759</name></trkpt>
<trkpt lat="53.326769" lon="06.578817"><ele>-2.8</ele><time>2021-05-20T11:32:59Z</time><name>PT5760</name></trkpt>
<trkpt lat="53.326767" lon="06.578835"><ele>-2.6</ele><time>2021-05-20T11:33:01Z</time><name>PT5761</name></trkpt>
<trkpt lat="53.326768" lon="06.578852"><ele>-2.7</ele><time>2021-05-20T11:33:01Z</time><name>PT5762</name></trkpt>
<trkpt lat="53.326767" lon="06.578868"><ele>-2.6</ele><time>2021-05-20T11:33:02Z</time><name>PT5763</name></trkpt>
<trkpt lat="53.326765" lon="06.578884"><ele>-2.6</ele><time>2021-05-20T11:33:03Z</time><name>PT5764</name></trkpt>
<trkpt lat="53.326765" lon="06.578903"><ele>-2.6</ele><time>2021-05-20T11:33:04Z</time><name>PT5765</name></trkpt>
<trkpt lat="53.326764" lon="06.578920"><ele>-2.4</ele><time>2021-05-20T11:33:05Z</time><name>PT5766</name></trkpt>
<trkpt lat="53.326765" lon="06.578939"><ele>-2.3</ele><time>2021-05-20T11:33:06Z</time><name>PT5767</name></trkpt>
<trkpt lat="53.326767" lon="06.578957"><ele>-2.3</ele><time>2021-05-20T11:33:07Z</time><name>PT5768</name></trkpt>
<trkpt lat="53.326767" lon="06.578973"><ele>-2.4</ele><time>2021-05-20T11:33:08Z</time><name>PT5769</name></trkpt>
<trkpt lat="53.326767" lon="06.578991"><ele>-2.3</ele><time>2021-05-20T11:33:09Z</time><name>PT5770</name></trkpt>
<trkpt lat="53.326768" lon="06.579007"><ele>-2.3</ele><time>2021-05-20T11:33:10Z</time><name>PT5771</name></trkpt>
<trkpt lat="53.326767" lon="06.579022"><ele>-2.6</ele><time>2021-05-20T11:33:11Z</time><name>PT5772</name></trkpt>
<trkpt lat="53.326765" lon="06.579038"><ele>-2.6</ele><time>2021-05-20T11:33:12Z</time><name>PT5773</name></trkpt>
<trkpt lat="53.326765" lon="06.579055"><ele>-2.6</ele><time>2021-05-20T11:33:13Z</time><name>PT5774</name></trkpt>
<trkpt lat="53.326764" lon="06.579072"><ele>-2.8</ele><time>2021-05-20T11:33:14Z</time><name>PT5775</name></trkpt>
<trkpt lat="53.326765" lon="06.579087"><ele>-2.7</ele><time>2021-05-20T11:33:15Z</time><name>PT5776</name></trkpt>
<trkpt lat="53.326765" lon="06.579104"><ele>-2.7</ele><time>2021-05-20T11:33:16Z</time><name>PT5777</name></trkpt>
<trkpt lat="53.326765" lon="06.579120"><ele>-2.6</ele><time>2021-05-20T11:33:17Z</time><name>PT5778</name></trkpt>
<trkpt lat="53.326765" lon="06.579136"><ele>-2.7</ele><time>2021-05-20T11:33:18Z</time><name>PT5779</name></trkpt>
<trkpt lat="53.326763" lon="06.579153"><ele>-2.6</ele><time>2021-05-20T11:33:19Z</time><name>PT5780</name></trkpt>
<trkpt lat="53.326763" lon="06.579174"><ele>-2.6</ele><time>2021-05-20T11:33:20Z</time><name>PT5781</name></trkpt>
<trkpt lat="53.326763" lon="06.579191"><ele>-2.7</ele><time>2021-05-20T11:33:21Z</time><name>PT5782</name></trkpt>
<trkpt lat="53.326764" lon="06.579208"><ele>-2.6</ele><time>2021-05-20T11:33:22Z</time><name>PT5783</name></trkpt>
<trkpt lat="53.326766" lon="06.579224"><ele>-2.8</ele><time>2021-05-20T11:33:23Z</time><name>PT5784</name></trkpt>
<trkpt lat="53.326765" lon="06.579239"><ele>-2.6</ele><time>2021-05-20T11:33:24Z</time><name>PT5785</name></trkpt>
<trkpt lat="53.326764" lon="06.579256"><ele>-2.6</ele><time>2021-05-20T11:33:25Z</time><name>PT5786</name></trkpt>
<trkpt lat="53.326762" lon="06.579271"><ele>-2.7</ele><time>2021-05-20T11:33:26Z</time><name>PT5787</name></trkpt>
<trkpt lat="53.326762" lon="06.579287"><ele>-2.6</ele><time>2021-05-20T11:33:28Z</time><name>PT5788</name></trkpt>
<trkpt lat="53.326763" lon="06.579305"><ele>-2.7</ele><time>2021-05-20T11:33:28Z</time><name>PT5789</name></trkpt>
<trkpt lat="53.326763" lon="06.579321"><ele>-2.6</ele><time>2021-05-20T11:33:29Z</time><name>PT5790</name></trkpt>
<trkpt lat="53.326760" lon="06.579337"><ele>-2.6</ele><time>2021-05-20T11:33:30Z</time><name>PT5791</name></trkpt>
<trkpt lat="53.326759" lon="06.579354"><ele>-2.6</ele><time>2021-05-20T11:33:31Z</time><name>PT5792</name></trkpt>
<trkpt lat="53.326758" lon="06.579370"><ele>-2.6</ele><time>2021-05-20T11:33:32Z</time><name>PT5793</name></trkpt>
<trkpt lat="53.326757" lon="06.579384"><ele>-2.6</ele><time>2021-05-20T11:33:33Z</time><name>PT5794</name></trkpt>
<trkpt lat="53.326755" lon="06.579399"><ele>-2.7</ele><time>2021-05-20T11:33:34Z</time><name>PT5795</name></trkpt>
<trkpt lat="53.326754" lon="06.579415"><ele>-2.6</ele><time>2021-05-20T11:33:35Z</time><name>PT5796</name></trkpt>
<trkpt lat="53.326753" lon="06.579430"><ele>-2.6</ele><time>2021-05-20T11:33:36Z</time><name>PT5797</name></trkpt>
<trkpt lat="53.326753" lon="06.579446"><ele>-2.6</ele><time>2021-05-20T11:33:37Z</time><name>PT5798</name></trkpt>
<trkpt lat="53.326754" lon="06.579462"><ele>-2.6</ele><time>2021-05-20T11:33:38Z</time><name>PT5799</name></trkpt>
<trkpt lat="53.326754" lon="06.579476"><ele>-2.6</ele><time>2021-05-20T11:33:40Z</time><name>PT5800</name></trkpt>
<trkpt lat="53.326751" lon="06.579490"><ele>-2.6</ele><time>2021-05-20T11:33:40Z</time><name>PT5801</name></trkpt>
<trkpt lat="53.326748" lon="06.579505"><ele>-2.6</ele><time>2021-05-20T11:33:41Z</time><name>PT5802</name></trkpt>
<trkpt lat="53.326746" lon="06.579523"><ele>-2.8</ele><time>2021-05-20T11:33:42Z</time><name>PT5803</name></trkpt>
<trkpt lat="53.326745" lon="06.579538"><ele>-2.9</ele><time>2021-05-20T11:33:43Z</time><name>PT5804</name></trkpt>
<trkpt lat="53.326743" lon="06.579553"><ele>-2.8</ele><time>2021-05-20T11:33:44Z</time><name>PT5805</name></trkpt>
<trkpt lat="53.326740" lon="06.579572"><ele>-2.6</ele><time>2021-05-20T11:33:45Z</time><name>PT5806</name></trkpt>
<trkpt lat="53.326739" lon="06.579588"><ele>-2.5</ele><time>2021-05-20T11:33:46Z</time><name>PT5807</name></trkpt>
<trkpt lat="53.326736" lon="06.579604"><ele>-2.3</ele><time>2021-05-20T11:33:47Z</time><name>PT5808</name></trkpt>
<trkpt lat="53.326733" lon="06.579619"><ele>-2.5</ele><time>2021-05-20T11:33:48Z</time><name>PT5809</name></trkpt>
<trkpt lat="53.326731" lon="06.579635"><ele>-2.6</ele><time>2021-05-20T11:33:49Z</time><name>PT5810</name></trkpt>
<trkpt lat="53.326731" lon="06.579652"><ele>-2.7</ele><time>2021-05-20T11:33:50Z</time><name>PT5811</name></trkpt>
<trkpt lat="53.326730" lon="06.579668"><ele>-2.6</ele><time>2021-05-20T11:33:52Z</time><name>PT5812</name></trkpt>
<trkpt lat="53.326729" lon="06.579685"><ele>-2.6</ele><time>2021-05-20T11:33:52Z</time><name>PT5813</name></trkpt>
<trkpt lat="53.326726" lon="06.579700"><ele>-2.6</ele><time>2021-05-20T11:33:53Z</time><name>PT5814</name></trkpt>
<trkpt lat="53.326725" lon="06.579716"><ele>-2.6</ele><time>2021-05-20T11:33:54Z</time><name>PT5815</name></trkpt>
<trkpt lat="53.326723" lon="06.579734"><ele>-2.6</ele><time>2021-05-20T11:33:55Z</time><name>PT5816</name></trkpt>
<trkpt lat="53.326722" lon="06.579748"><ele>-2.6</ele><time>2021-05-20T11:33:56Z</time><name>PT5817</name></trkpt>
<trkpt lat="53.326721" lon="06.579762"><ele>-2.6</ele><time>2021-05-20T11:33:57Z</time><name>PT5818</name></trkpt>
<trkpt lat="53.326722" lon="06.579778"><ele>-2.6</ele><time>2021-05-20T11:33:58Z</time><name>PT5819</name></trkpt>
<trkpt lat="53.326722" lon="06.579792"><ele>-2.7</ele><time>2021-05-20T11:33:59Z</time><name>PT5820</name></trkpt>
<trkpt lat="53.326721" lon="06.579810"><ele>-2.6</ele><time>2021-05-20T11:34:00Z</time><name>PT5821</name></trkpt>
<trkpt lat="53.326720" lon="06.579827"><ele>-2.6</ele><time>2021-05-20T11:34:01Z</time><name>PT5822</name></trkpt>
<trkpt lat="53.326720" lon="06.579846"><ele>-2.6</ele><time>2021-05-20T11:34:02Z</time><name>PT5823</name></trkpt>
<trkpt lat="53.326719" lon="06.579865"><ele>-2.6</ele><time>2021-05-20T11:34:04Z</time><name>PT5824</name></trkpt>
<trkpt lat="53.326719" lon="06.579884"><ele>-2.6</ele><time>2021-05-20T11:34:04Z</time><name>PT5825</name></trkpt>
<trkpt lat="53.326721" lon="06.579904"><ele>-2.6</ele><time>2021-05-20T11:34:05Z</time><name>PT5826</name></trkpt>
<trkpt lat="53.326723" lon="06.579924"><ele>-2.6</ele><time>2021-05-20T11:34:07Z</time><name>PT5827</name></trkpt>
<trkpt lat="53.326722" lon="06.579941"><ele>-2.6</ele><time>2021-05-20T11:34:07Z</time><name>PT5828</name></trkpt>
<trkpt lat="53.326724" lon="06.579957"><ele>-2.8</ele><time>2021-05-20T11:34:08Z</time><name>PT5829</name></trkpt>
<trkpt lat="53.326727" lon="06.579973"><ele>-2.6</ele><time>2021-05-20T11:34:09Z</time><name>PT5830</name></trkpt>
<trkpt lat="53.326732" lon="06.579989"><ele>-2.6</ele><time>2021-05-20T11:34:10Z</time><name>PT5831</name></trkpt>
<trkpt lat="53.326736" lon="06.580003"><ele>-2.8</ele><time>2021-05-20T11:34:11Z</time><name>PT5832</name></trkpt>
<trkpt lat="53.326741" lon="06.580013"><ele>-2.7</ele><time>2021-05-20T11:34:13Z</time><name>PT5833</name></trkpt>
<trkpt lat="53.326749" lon="06.580021"><ele>-2.6</ele><time>2021-05-20T11:34:13Z</time><name>PT5834</name></trkpt>
<trkpt lat="53.326756" lon="06.580030"><ele>-2.6</ele><time>2021-05-20T11:34:14Z</time><name>PT5835</name></trkpt>
<trkpt lat="53.326763" lon="06.580035"><ele>-2.5</ele><time>2021-05-20T11:34:15Z</time><name>PT5836</name></trkpt>
<trkpt lat="53.326771" lon="06.580042"><ele>-2.4</ele><time>2021-05-20T11:34:16Z</time><name>PT5837</name></trkpt>
<trkpt lat="53.326778" lon="06.580046"><ele>-2.3</ele><time>2021-05-20T11:34:17Z</time><name>PT5838</name></trkpt>
<trkpt lat="53.326786" lon="06.580047"><ele>-2.2</ele><time>2021-05-20T11:34:18Z</time><name>PT5839</name></trkpt>
<trkpt lat="53.326794" lon="06.580048"><ele>-2.2</ele><time>2021-05-20T11:34:19Z</time><name>PT5840</name></trkpt>
<trkpt lat="53.326801" lon="06.580049"><ele>-2.2</ele><time>2021-05-20T11:34:20Z</time><name>PT5841</name></trkpt>
<trkpt lat="53.326810" lon="06.580048"><ele>-2.2</ele><time>2021-05-20T11:34:21Z</time><name>PT5842</name></trkpt>
<trkpt lat="53.326817" lon="06.580046"><ele>-2</ele><time>2021-05-20T11:34:22Z</time><name>PT5843</name></trkpt>
<trkpt lat="53.326826" lon="06.580043"><ele>-2.1</ele><time>2021-05-20T11:34:23Z</time><name>PT5844</name></trkpt>
<trkpt lat="53.326835" lon="06.580039"><ele>-2.2</ele><time>2021-05-20T11:34:24Z</time><name>PT5845</name></trkpt>
<trkpt lat="53.326844" lon="06.580034"><ele>-2.1</ele><time>2021-05-20T11:34:25Z</time><name>PT5846</name></trkpt>
<trkpt lat="53.326851" lon="06.580029"><ele>-2</ele><time>2021-05-20T11:34:26Z</time><name>PT5847</name></trkpt>
<trkpt lat="53.326860" lon="06.580027"><ele>-1.9</ele><time>2021-05-20T11:34:27Z</time><name>PT5848</name></trkpt>
<trkpt lat="53.326870" lon="06.580025"><ele>-2.1</ele><time>2021-05-20T11:34:28Z</time><name>PT5849</name></trkpt>
<trkpt lat="53.326880" lon="06.580022"><ele>-2</ele><time>2021-05-20T11:34:29Z</time><name>PT5850</name></trkpt>
<trkpt lat="53.326889" lon="06.580019"><ele>-2</ele><time>2021-05-20T11:34:31Z</time><name>PT5851</name></trkpt>
<trkpt lat="53.326897" lon="06.580014"><ele>-2.1</ele><time>2021-05-20T11:34:31Z</time><name>PT5852</name></trkpt>
<trkpt lat="53.326904" lon="06.580013"><ele>-1.9</ele><time>2021-05-20T11:34:32Z</time><name>PT5853</name></trkpt>
<trkpt lat="53.326912" lon="06.580016"><ele>-1.9</ele><time>2021-05-20T11:34:33Z</time><name>PT5854</name></trkpt>
<trkpt lat="53.326922" lon="06.580019"><ele>-1.9</ele><time>2021-05-20T11:34:34Z</time><name>PT5855</name></trkpt>
<trkpt lat="53.326933" lon="06.580021"><ele>-1.8</ele><time>2021-05-20T11:34:35Z</time><name>PT5856</name></trkpt>
<trkpt lat="53.326943" lon="06.580024"><ele>-1.8</ele><time>2021-05-20T11:34:36Z</time><name>PT5857</name></trkpt>
<trkpt lat="53.326955" lon="06.580025"><ele>-1.8</ele><time>2021-05-20T11:34:37Z</time><name>PT5858</name></trkpt>
<trkpt lat="53.326965" lon="06.580026"><ele>-1.9</ele><time>2021-05-20T11:34:38Z</time><name>PT5859</name></trkpt>
<trkpt lat="53.326976" lon="06.580027"><ele>-2</ele><time>2021-05-20T11:34:39Z</time><name>PT5860</name></trkpt>
<trkpt lat="53.326984" lon="06.580027"><ele>-2.1</ele><time>2021-05-20T11:34:40Z</time><name>PT5861</name></trkpt>
<trkpt lat="53.326995" lon="06.580029"><ele>-2.1</ele><time>2021-05-20T11:34:41Z</time><name>PT5862</name></trkpt>
<trkpt lat="53.327008" lon="06.580031"><ele>-2.1</ele><time>2021-05-20T11:34:43Z</time><name>PT5863</name></trkpt>
<trkpt lat="53.327022" lon="06.580026"><ele>-2</ele><time>2021-05-20T11:34:43Z</time><name>PT5864</name></trkpt>
<trkpt lat="53.327034" lon="06.580020"><ele>-1.9</ele><time>2021-05-20T11:34:44Z</time><name>PT5865</name></trkpt>
<trkpt lat="53.327044" lon="06.580016"><ele>-1.9</ele><time>2021-05-20T11:34:45Z</time><name>PT5866</name></trkpt>
<trkpt lat="53.327055" lon="06.580016"><ele>-1.9</ele><time>2021-05-20T11:34:46Z</time><name>PT5867</name></trkpt>
<trkpt lat="53.327063" lon="06.580019"><ele>-1.8</ele><time>2021-05-20T11:34:47Z</time><name>PT5868</name></trkpt>
<trkpt lat="53.327071" lon="06.580024"><ele>-1.9</ele><time>2021-05-20T11:34:48Z</time><name>PT5869</name></trkpt>
<trkpt lat="53.327078" lon="06.580036"><ele>-1.8</ele><time>2021-05-20T11:34:49Z</time><name>PT5870</name></trkpt>
<trkpt lat="53.327081" lon="06.580049"><ele>-1.8</ele><time>2021-05-20T11:34:50Z</time><name>PT5871</name></trkpt>
<trkpt lat="53.327082" lon="06.580054"><ele>-1.7</ele><time>2021-05-20T11:34:51Z</time><name>PT5872</name></trkpt>
<trkpt lat="53.327080" lon="06.580061"><ele>-1.7</ele><time>2021-05-20T11:34:52Z</time><name>PT5873</name></trkpt>
<trkpt lat="53.327078" lon="06.580073"><ele>-1.8</ele><time>2021-05-20T11:34:53Z</time><name>PT5874</name></trkpt>
<trkpt lat="53.327076" lon="06.580085"><ele>-1.7</ele><time>2021-05-20T11:34:54Z</time><name>PT5875</name></trkpt>
<trkpt lat="53.327078" lon="06.580104"><ele>-1.7</ele><time>2021-05-20T11:34:55Z</time><name>PT5876</name></trkpt>
<trkpt lat="53.327079" lon="06.580120"><ele>-1.7</ele><time>2021-05-20T11:34:56Z</time><name>PT5877</name></trkpt>
<trkpt lat="53.327078" lon="06.580133"><ele>-1.7</ele><time>2021-05-20T11:34:57Z</time><name>PT5878</name></trkpt>
<trkpt lat="53.327076" lon="06.580147"><ele>-1.7</ele><time>2021-05-20T11:34:58Z</time><name>PT5879</name></trkpt>
<trkpt lat="53.327075" lon="06.580160"><ele>-1.7</ele><time>2021-05-20T11:34:59Z</time><name>PT5880</name></trkpt>
<trkpt lat="53.327073" lon="06.580172"><ele>-1.7</ele><time>2021-05-20T11:35:00Z</time><name>PT5881</name></trkpt>
<trkpt lat="53.327073" lon="06.580183"><ele>-1.7</ele><time>2021-05-20T11:35:01Z</time><name>PT5882</name></trkpt>
<trkpt lat="53.327072" lon="06.580194"><ele>-1.7</ele><time>2021-05-20T11:35:02Z</time><name>PT5883</name></trkpt>
<trkpt lat="53.327073" lon="06.580204"><ele>-1.7</ele><time>2021-05-20T11:35:03Z</time><name>PT5884</name></trkpt>
<trkpt lat="53.327074" lon="06.580212"><ele>-1.7</ele><time>2021-05-20T11:35:04Z</time><name>PT5885</name></trkpt>
<trkpt lat="53.327073" lon="06.580218"><ele>-1.7</ele><time>2021-05-20T11:35:05Z</time><name>PT5886</name></trkpt>
<trkpt lat="53.327073" lon="06.580225"><ele>-1.7</ele><time>2021-05-20T11:35:06Z</time><name>PT5887</name></trkpt>
<trkpt lat="53.327073" lon="06.580233"><ele>-1.7</ele><time>2021-05-20T11:35:07Z</time><name>PT5888</name></trkpt>
<trkpt lat="53.327076" lon="06.580240"><ele>-2</ele><time>2021-05-20T11:35:08Z</time><name>PT5889</name></trkpt>
<trkpt lat="53.327073" lon="06.580251"><ele>-1.7</ele><time>2021-05-20T11:35:09Z</time><name>PT5890</name></trkpt>
<trkpt lat="53.327075" lon="06.580260"><ele>-1.7</ele><time>2021-05-20T11:35:10Z</time><name>PT5891</name></trkpt>
<trkpt lat="53.327074" lon="06.580268"><ele>-1.8</ele><time>2021-05-20T11:35:11Z</time><name>PT5892</name></trkpt>
<trkpt lat="53.327079" lon="06.580276"><ele>-1.8</ele><time>2021-05-20T11:35:12Z</time><name>PT5893</name></trkpt>
<trkpt lat="53.327087" lon="06.580285"><ele>-2</ele><time>2021-05-20T11:35:13Z</time><name>PT5894</name></trkpt>
<trkpt lat="53.327093" lon="06.580296"><ele>-2</ele><time>2021-05-20T11:35:14Z</time><name>PT5895</name></trkpt>
<trkpt lat="53.327088" lon="06.580303"><ele>-2.1</ele><time>2021-05-20T11:35:15Z</time><name>PT5896</name></trkpt>
<trkpt lat="53.327092" lon="06.580309"><ele>-2</ele><time>2021-05-20T11:35:16Z</time><name>PT5897</name></trkpt>
<trkpt lat="53.327094" lon="06.580323"><ele>-2.2</ele><time>2021-05-20T11:35:17Z</time><name>PT5898</name></trkpt>
<trkpt lat="53.327099" lon="06.580325"><ele>-2.2</ele><time>2021-05-20T11:35:18Z</time><name>PT5899</name></trkpt>
<trkpt lat="53.327103" lon="06.580322"><ele>-2.2</ele><time>2021-05-20T11:35:19Z</time><name>PT5900</name></trkpt>
<trkpt lat="53.327114" lon="06.580329"><ele>-2.2</ele><time>2021-05-20T11:35:20Z</time><name>PT5901</name></trkpt>
<trkpt lat="53.327121" lon="06.580329"><ele>-2.1</ele><time>2021-05-20T11:35:22Z</time><name>PT5902</name></trkpt>
<trkpt lat="53.327124" lon="06.580327"><ele>-2</ele><time>2021-05-20T11:35:22Z</time><name>PT5903</name></trkpt>
<trkpt lat="53.327130" lon="06.580326"><ele>-1.8</ele><time>2021-05-20T11:35:23Z</time><name>PT5904</name></trkpt>
<trkpt lat="53.327137" lon="06.580327"><ele>-1.8</ele><time>2021-05-20T11:35:24Z</time><name>PT5905</name></trkpt>
<trkpt lat="53.327143" lon="06.580325"><ele>-1.8</ele><time>2021-05-20T11:35:25Z</time><name>PT5906</name></trkpt>
<trkpt lat="53.327148" lon="06.580325"><ele>-1.7</ele><time>2021-05-20T11:35:26Z</time><name>PT5907</name></trkpt>
<trkpt lat="53.327152" lon="06.580325"><ele>-1.7</ele><time>2021-05-20T11:35:27Z</time><name>PT5908</name></trkpt>
<trkpt lat="53.327157" lon="06.580327"><ele>-1.5</ele><time>2021-05-20T11:35:28Z</time><name>PT5909</name></trkpt>
<trkpt lat="53.327163" lon="06.580325"><ele>-1.2</ele><time>2021-05-20T11:35:29Z</time><name>PT5910</name></trkpt>
<trkpt lat="53.327170" lon="06.580325"><ele>0.9</ele><time>2021-05-20T11:35:30Z</time><name>PT5911</name></trkpt>
<trkpt lat="53.327175" lon="06.580326"><ele>0.8</ele><time>2021-05-20T11:35:31Z</time><name>PT5912</name></trkpt>
<trkpt lat="53.327180" lon="06.580324"><ele>0.6</ele><time>2021-05-20T11:35:32Z</time><name>PT5913</name></trkpt>
<trkpt lat="53.327191" lon="06.580320"><ele>0.5</ele><time>2021-05-20T11:35:34Z</time><name>PT5914</name></trkpt>
<trkpt lat="53.327196" lon="06.580323"><ele>0.5</ele><time>2021-05-20T11:35:34Z</time><name>PT5915</name></trkpt>
<trkpt lat="53.327202" lon="06.580319"><ele>0.5</ele><time>2021-05-20T11:35:35Z</time><name>PT5916</name></trkpt>
<trkpt lat="53.327210" lon="06.580314"><ele>0.4</ele><time>2021-05-20T11:35:36Z</time><name>PT5917</name></trkpt>
<trkpt lat="53.327218" lon="06.580313"><ele>0.4</ele><time>2021-05-20T11:35:37Z</time><name>PT5918</name></trkpt>
<trkpt lat="53.327223" lon="06.580313"><ele>0.3</ele><time>2021-05-20T11:35:38Z</time><name>PT5919</name></trkpt>
<trkpt lat="53.327224" lon="06.580312"><ele>0.3</ele><time>2021-05-20T11:35:39Z</time><name>PT5920</name></trkpt>
<trkpt lat="53.327231" lon="06.580309"><ele>0.3</ele><time>2021-05-20T11:35:40Z</time><name>PT5921</name></trkpt>
<trkpt lat="53.327240" lon="06.580305"><ele>0.4</ele><time>2021-05-20T11:35:41Z</time><name>PT5922</name></trkpt>
<trkpt lat="53.327243" lon="06.580309"><ele>0.4</ele><time>2021-05-20T11:35:42Z</time><name>PT5923</name></trkpt>
<trkpt lat="53.327249" lon="06.580311"><ele>0.6</ele><time>2021-05-20T11:35:43Z</time><name>PT5924</name></trkpt>
<trkpt lat="53.327254" lon="06.580317"><ele>0.5</ele><time>2021-05-20T11:35:44Z</time><name>PT5925</name></trkpt>
<trkpt lat="53.327261" lon="06.580324"><ele>0.3</ele><time>2021-05-20T11:35:45Z</time><name>PT5926</name></trkpt>
<trkpt lat="53.327265" lon="06.580333"><ele>0.3</ele><time>2021-05-20T11:35:46Z</time><name>PT5927</name></trkpt>
<trkpt lat="53.327266" lon="06.580340"><ele>0.3</ele><time>2021-05-20T11:35:47Z</time><name>PT5928</name></trkpt>
<trkpt lat="53.327264" lon="06.580344"><ele>0</ele><time>2021-05-20T11:35:48Z</time><name>PT5929</name></trkpt>
<trkpt lat="53.327264" lon="06.580349"><ele>0</ele><time>2021-05-20T11:35:49Z</time><name>PT5930</name></trkpt>
<trkpt lat="53.327265" lon="06.580354"><ele>0</ele><time>2021-05-20T11:35:50Z</time><name>PT5931</name></trkpt>
<trkpt lat="53.327266" lon="06.580358"><ele>0</ele><time>2021-05-20T11:35:51Z</time><name>PT5932</name></trkpt>
<trkpt lat="53.327270" lon="06.580360"><ele>0.1</ele><time>2021-05-20T11:35:52Z</time><name>PT5933</name></trkpt>
<trkpt lat="53.327272" lon="06.580359"><ele>0</ele><time>2021-05-20T11:35:53Z</time><name>PT5934</name></trkpt>
<trkpt lat="53.327275" lon="06.580367"><ele>0.1</ele><time>2021-05-20T11:35:54Z</time><name>PT5935</name></trkpt>
<trkpt lat="53.327276" lon="06.580373"><ele>0.2</ele><time>2021-05-20T11:35:55Z</time><name>PT5936</name></trkpt>
<trkpt lat="53.327277" lon="06.580383"><ele>0.2</ele><time>2021-05-20T11:35:56Z</time><name>PT5937</name></trkpt>
<trkpt lat="53.327281" lon="06.580406"><ele>0.3</ele><time>2021-05-20T11:36:02Z</time><name>PT5938</name></trkpt>
<trkpt lat="53.327280" lon="06.580414"><ele>0.1</ele><time>2021-05-20T11:36:03Z</time><name>PT5939</name></trkpt>
<trkpt lat="53.327273" lon="06.580419"><ele>0.6</ele><time>2021-05-20T11:36:08Z</time><name>PT5940</name></trkpt>
<trkpt lat="53.327281" lon="06.580443"><ele>0.5</ele><time>2021-05-20T11:36:09Z</time><name>PT5941</name></trkpt>
<trkpt lat="53.327284" lon="06.580438"><ele>0.6</ele><time>2021-05-20T11:36:10Z</time><name>PT5942</name></trkpt>
<trkpt lat="53.326764" lon="06.578723"><ele>0.1</ele><time>2021-05-20T12:00:41Z</time><name>PT5943</name></trkpt>
<trkpt lat="53.326766" lon="06.578728"><ele>0</ele><time>2021-05-20T12:00:44Z</time><name>PT5944</name></trkpt>
<trkpt lat="53.326774" lon="06.578732"><ele>0</ele><time>2021-05-20T12:00:45Z</time><name>PT5945</name></trkpt>
<trkpt lat="53.326784" lon="06.578740"><ele>0.3</ele><time>2021-05-20T12:00:46Z</time><name>PT5946</name></trkpt>
<trkpt lat="53.326793" lon="06.578747"><ele>0.2</ele><time>2021-05-20T12:00:47Z</time><name>PT5947</name></trkpt>
<trkpt lat="53.326803" lon="06.578751"><ele>0.3</ele><time>2021-05-20T12:00:48Z</time><name>PT5948</name></trkpt>
<trkpt lat="53.326813" lon="06.578755"><ele>0.3</ele><time>2021-05-20T12:00:49Z</time><name>PT5949</name></trkpt>
<trkpt lat="53.326823" lon="06.578758"><ele>0.2</ele><time>2021-05-20T12:00:50Z</time><name>PT5950</name></trkpt>
<trkpt lat="53.326832" lon="06.578760"><ele>0.2</ele><time>2021-05-20T12:00:51Z</time><name>PT5951</name></trkpt>
<trkpt lat="53.326840" lon="06.578762"><ele>0.3</ele><time>2021-05-20T12:00:52Z</time><name>PT5952</name></trkpt>
<trkpt lat="53.326848" lon="06.578764"><ele>0.1</ele><time>2021-05-20T12:00:53Z</time><name>PT5953</name></trkpt>
<trkpt lat="53.326858" lon="06.578768"><ele>0.1</ele><time>2021-05-20T12:00:54Z</time><name>PT5954</name></trkpt>
<trkpt lat="53.326868" lon="06.578772"><ele>0.1</ele><time>2021-05-20T12:00:55Z</time><name>PT5955</name></trkpt>
<trkpt lat="53.326878" lon="06.578777"><ele>0.1</ele><time>2021-05-20T12:00:56Z</time><name>PT5956</name></trkpt>
<trkpt lat="53.326886" lon="06.578780"><ele>0.1</ele><time>2021-05-20T12:00:57Z</time><name>PT5957</name></trkpt>
<trkpt lat="53.326894" lon="06.578782"><ele>0.1</ele><time>2021-05-20T12:00:58Z</time><name>PT5958</name></trkpt>
<trkpt lat="53.326903" lon="06.578784"><ele>0.3</ele><time>2021-05-20T12:00:59Z</time><name>PT5959</name></trkpt>
<trkpt lat="53.326912" lon="06.578787"><ele>0.3</ele><time>2021-05-20T12:01:01Z</time><name>PT5960</name></trkpt>
<trkpt lat="53.326922" lon="06.578792"><ele>0.3</ele><time>2021-05-20T12:01:01Z</time><name>PT5961</name></trkpt>
<trkpt lat="53.326931" lon="06.578796"><ele>0.3</ele><time>2021-05-20T12:01:02Z</time><name>PT5962</name></trkpt>
<trkpt lat="53.326939" lon="06.578799"><ele>0.2</ele><time>2021-05-20T12:01:03Z</time><name>PT5963</name></trkpt>
<trkpt lat="53.326942" lon="06.578800"><ele>0.1</ele><time>2021-05-20T12:01:04Z</time><name>PT5964</name></trkpt>
<trkpt lat="53.326943" lon="06.578800"><ele>0.1</ele><time>2021-05-20T12:01:05Z</time><name>PT5965</name></trkpt>
<trkpt lat="53.326943" lon="06.578801"><ele>0.1</ele><time>2021-05-20T12:01:06Z</time><name>PT5966</name></trkpt>
<trkpt lat="53.326946" lon="06.578800"><ele>0.2</ele><time>2021-05-20T12:01:12Z</time><name>PT5967</name></trkpt>
<trkpt lat="53.326953" lon="06.578800"><ele>0.3</ele><time>2021-05-20T12:01:13Z</time><name>PT5968</name></trkpt>
<trkpt lat="53.326957" lon="06.578795"><ele>0.4</ele><time>2021-05-20T12:01:14Z</time><name>PT5969</name></trkpt>
<trkpt lat="53.326967" lon="06.578795"><ele>0.2</ele><time>2021-05-20T12:01:15Z</time><name>PT5970</name></trkpt>
<trkpt lat="53.326977" lon="06.578792"><ele>0.3</ele><time>2021-05-20T12:01:16Z</time><name>PT5971</name></trkpt>
<trkpt lat="53.326987" lon="06.578787"><ele>0.4</ele><time>2021-05-20T12:01:17Z</time><name>PT5972</name></trkpt>
<trkpt lat="53.326993" lon="06.578785"><ele>0.4</ele><time>2021-05-20T12:01:18Z</time><name>PT5973</name></trkpt>
<trkpt lat="53.326997" lon="06.578782"><ele>0.3</ele><time>2021-05-20T12:01:19Z</time><name>PT5974</name></trkpt>
<trkpt lat="53.327002" lon="06.578782"><ele>0.3</ele><time>2021-05-20T12:01:20Z</time><name>PT5975</name></trkpt>
<trkpt lat="53.327005" lon="06.578784"><ele>0.3</ele><time>2021-05-20T12:01:21Z</time><name>PT5976</name></trkpt>
<trkpt lat="53.327008" lon="06.578785"><ele>0.3</ele><time>2021-05-20T12:01:22Z</time><name>PT5977</name></trkpt>
<trkpt lat="53.327010" lon="06.578785"><ele>0.2</ele><time>2021-05-20T12:01:23Z</time><name>PT5978</name></trkpt>
<trkpt lat="53.327011" lon="06.578785"><ele>0.3</ele><time>2021-05-20T12:01:24Z</time><name>PT5979</name></trkpt>
<trkpt lat="53.327013" lon="06.578783"><ele>0</ele><time>2021-05-20T12:01:58Z</time><name>PT5980</name></trkpt>
<trkpt lat="53.327021" lon="06.578778"><ele>0</ele><time>2021-05-20T12:01:59Z</time><name>PT5981</name></trkpt>
<trkpt lat="53.327026" lon="06.578774"><ele>0.1</ele><time>2021-05-20T12:02:00Z</time><name>PT5982</name></trkpt>
<trkpt lat="53.327031" lon="06.578769"><ele>0.1</ele><time>2021-05-20T12:02:01Z</time><name>PT5983</name></trkpt>
<trkpt lat="53.327037" lon="06.578762"><ele>0</ele><time>2021-05-20T12:02:02Z</time><name>PT5984</name></trkpt>
<trkpt lat="53.327039" lon="06.578761"><ele>0</ele><time>2021-05-20T12:02:03Z</time><name>PT5985</name></trkpt>
<trkpt lat="53.327043" lon="06.578755"><ele>0.1</ele><time>2021-05-20T12:02:04Z</time><name>PT5986</name></trkpt>
<trkpt lat="53.327048" lon="06.578749"><ele>0.3</ele><time>2021-05-20T12:02:05Z</time><name>PT5987</name></trkpt>
<trkpt lat="53.327056" lon="06.578748"><ele>0.3</ele><time>2021-05-20T12:02:06Z</time><name>PT5988</name></trkpt>
<trkpt lat="53.327060" lon="06.578745"><ele>0.5</ele><time>2021-05-20T12:02:07Z</time><name>PT5989</name></trkpt>
<trkpt lat="53.327065" lon="06.578746"><ele>0.5</ele><time>2021-05-20T12:02:08Z</time><name>PT5990</name></trkpt>
<trkpt lat="53.327072" lon="06.578746"><ele>0.7</ele><time>2021-05-20T12:02:09Z</time><name>PT5991</name></trkpt>
<trkpt lat="53.327077" lon="06.578747"><ele>0.5</ele><time>2021-05-20T12:02:10Z</time><name>PT5992</name></trkpt>
<trkpt lat="53.327080" lon="06.578746"><ele>0.5</ele><time>2021-05-20T12:02:11Z</time><name>PT5993</name></trkpt>
<trkpt lat="53.327080" lon="06.578745"><ele>0.5</ele><time>2021-05-20T12:02:12Z</time><name>PT5994</name></trkpt>
<trkpt lat="53.327080" lon="06.578746"><ele>0.5</ele><time>2021-05-20T12:02:13Z</time><name>PT5995</name></trkpt>
<trkpt lat="53.327081" lon="06.578749"><ele>0.4</ele><time>2021-05-20T12:02:23Z</time><name>PT5996</name></trkpt>
<trkpt lat="53.327085" lon="06.578749"><ele>0.3</ele><time>2021-05-20T12:02:24Z</time><name>PT5997</name></trkpt>
<trkpt lat="53.327085" lon="06.578751"><ele>0.3</ele><time>2021-05-20T12:02:25Z</time><name>PT5998</name></trkpt>
<trkpt lat="53.327082" lon="06.578749"><ele>0.6</ele><time>2021-05-20T12:02:27Z</time><name>PT5999</name></trkpt>
<trkpt lat="53.327081" lon="06.578747"><ele>0.6</ele><time>2021-05-20T12:02:28Z</time><name>PT6000</name></trkpt>
<trkpt lat="53.327080" lon="06.578747"><ele>0.7</ele><time>2021-05-20T12:02:29Z</time><name>PT6001</name></trkpt>
<trkpt lat="53.327079" lon="06.578749"><ele>0.6</ele><time>2021-05-20T12:02:30Z</time><name>PT6002</name></trkpt>
<trkpt lat="53.327080" lon="06.578750"><ele>0.7</ele><time>2021-05-20T12:02:31Z</time><name>PT6003</name></trkpt>
<trkpt lat="53.327079" lon="06.578752"><ele>0.7</ele><time>2021-05-20T12:02:34Z</time><name>PT6004</name></trkpt>
<trkpt lat="53.327079" lon="06.578752"><ele>0.7</ele><time>2021-05-20T12:02:35Z</time><name>PT6005</name></trkpt>
<trkpt lat="53.327077" lon="06.578746"><ele>0.6</ele><time>2021-05-20T12:02:36Z</time><name>PT6006</name></trkpt>
<trkpt lat="53.327076" lon="06.578745"><ele>0.5</ele><time>2021-05-20T12:02:37Z</time><name>PT6007</name></trkpt>
<trkpt lat="53.327078" lon="06.578747"><ele>0</ele><time>2021-05-20T12:02:54Z</time><name>PT6008</name></trkpt>
<trkpt lat="53.327079" lon="06.578748"><ele>0</ele><time>2021-05-20T12:02:55Z</time><name>PT6009</name></trkpt>
<trkpt lat="53.327076" lon="06.578743"><ele>0</ele><time>2021-05-20T12:02:56Z</time><name>PT6010</name></trkpt>
<trkpt lat="53.327077" lon="06.578741"><ele>0.3</ele><time>2021-05-20T12:02:59Z</time><name>PT6011</name></trkpt>
<trkpt lat="53.327078" lon="06.578734"><ele>0.6</ele><time>2021-05-20T12:03:00Z</time><name>PT6012</name></trkpt>
<trkpt lat="53.327082" lon="06.578717"><ele>0.8</ele><time>2021-05-20T12:03:01Z</time><name>PT6013</name></trkpt>
<trkpt lat="53.327087" lon="06.578700"><ele>-1.1</ele><time>2021-05-20T12:03:02Z</time><name>PT6014</name></trkpt>
<trkpt lat="53.327095" lon="06.578685"><ele>-1.2</ele><time>2021-05-20T12:03:03Z</time><name>PT6015</name></trkpt>
<trkpt lat="53.327101" lon="06.578674"><ele>-1.2</ele><time>2021-05-20T12:03:04Z</time><name>PT6016</name></trkpt>
<trkpt lat="53.327107" lon="06.578665"><ele>-1.2</ele><time>2021-05-20T12:03:05Z</time><name>PT6017</name></trkpt>
<trkpt lat="53.327114" lon="06.578665"><ele>0.9</ele><time>2021-05-20T12:03:06Z</time><name>PT6018</name></trkpt>
<trkpt lat="53.327122" lon="06.578659"><ele>0.7</ele><time>2021-05-20T12:03:07Z</time><name>PT6019</name></trkpt>
<trkpt lat="53.327135" lon="06.578646"><ele>0.6</ele><time>2021-05-20T12:03:08Z</time><name>PT6020</name></trkpt>
<trkpt lat="53.327142" lon="06.578632"><ele>0.6</ele><time>2021-05-20T12:03:09Z</time><name>PT6021</name></trkpt>
<trkpt lat="53.327147" lon="06.578619"><ele>0.7</ele><time>2021-05-20T12:03:10Z</time><name>PT6022</name></trkpt>
<trkpt lat="53.327150" lon="06.578612"><ele>0.6</ele><time>2021-05-20T12:03:11Z</time><name>PT6023</name></trkpt>
<trkpt lat="53.327153" lon="06.578602"><ele>0.7</ele><time>2021-05-20T12:03:12Z</time><name>PT6024</name></trkpt>
<trkpt lat="53.327159" lon="06.578589"><ele>0.7</ele><time>2021-05-20T12:03:14Z</time><name>PT6025</name></trkpt>
<trkpt lat="53.327167" lon="06.578574"><ele>0.7</ele><time>2021-05-20T12:03:14Z</time><name>PT6026</name></trkpt>
<trkpt lat="53.327176" lon="06.578557"><ele>0.8</ele><time>2021-05-20T12:03:15Z</time><name>PT6027</name></trkpt>
<trkpt lat="53.327189" lon="06.578543"><ele>0.9</ele><time>2021-05-20T12:03:16Z</time><name>PT6028</name></trkpt>
<trkpt lat="53.327196" lon="06.578531"><ele>0.9</ele><time>2021-05-20T12:03:17Z</time><name>PT6029</name></trkpt>
<trkpt lat="53.327197" lon="06.578518"><ele>0.9</ele><time>2021-05-20T12:03:18Z</time><name>PT6030</name></trkpt>
<trkpt lat="53.327198" lon="06.578514"><ele>-1.2</ele><time>2021-05-20T12:03:19Z</time><name>PT6031</name></trkpt>
<trkpt lat="53.327201" lon="06.578512"><ele>-1</ele><time>2021-05-20T12:03:20Z</time><name>PT6032</name></trkpt>
<trkpt lat="53.327204" lon="06.578502"><ele>-1.1</ele><time>2021-05-20T12:03:21Z</time><name>PT6033</name></trkpt>
<trkpt lat="53.327211" lon="06.578485"><ele>-1</ele><time>2021-05-20T12:03:23Z</time><name>PT6034</name></trkpt>
<trkpt lat="53.327219" lon="06.578467"><ele>0.9</ele><time>2021-05-20T12:03:23Z</time><name>PT6035</name></trkpt>
<trkpt lat="53.327221" lon="06.578452"><ele>-1</ele><time>2021-05-20T12:03:24Z</time><name>PT6036</name></trkpt>
<trkpt lat="53.327223" lon="06.578439"><ele>-1.1</ele><time>2021-05-20T12:03:26Z</time><name>PT6037</name></trkpt>
<trkpt lat="53.327223" lon="06.578428"><ele>-1.1</ele><time>2021-05-20T12:03:26Z</time><name>PT6038</name></trkpt>
<trkpt lat="53.327225" lon="06.578416"><ele>-1.1</ele><time>2021-05-20T12:03:27Z</time><name>PT6039</name></trkpt>
<trkpt lat="53.327231" lon="06.578397"><ele>-1</ele><time>2021-05-20T12:03:28Z</time><name>PT6040</name></trkpt>
<trkpt lat="53.327236" lon="06.578378"><ele>-1</ele><time>2021-05-20T12:03:29Z</time><name>PT6041</name></trkpt>
<trkpt lat="53.327240" lon="06.578359"><ele>0.7</ele><time>2021-05-20T12:03:30Z</time><name>PT6042</name></trkpt>
<trkpt lat="53.327243" lon="06.578339"><ele>0.4</ele><time>2021-05-20T12:03:31Z</time><name>PT6043</name></trkpt>
<trkpt lat="53.327245" lon="06.578326"><ele>0.6</ele><time>2021-05-20T12:03:32Z</time><name>PT6044</name></trkpt>
<trkpt lat="53.327246" lon="06.578312"><ele>0.6</ele><time>2021-05-20T12:03:33Z</time><name>PT6045</name></trkpt>
<trkpt lat="53.327248" lon="06.578299"><ele>0.8</ele><time>2021-05-20T12:03:34Z</time><name>PT6046</name></trkpt>
<trkpt lat="53.327252" lon="06.578279"><ele>0.7</ele><time>2021-05-20T12:03:35Z</time><name>PT6047</name></trkpt>
<trkpt lat="53.327257" lon="06.578254"><ele>0.8</ele><time>2021-05-20T12:03:36Z</time><name>PT6048</name></trkpt>
<trkpt lat="53.327264" lon="06.578230"><ele>-1</ele><time>2021-05-20T12:03:37Z</time><name>PT6049</name></trkpt>
<trkpt lat="53.327269" lon="06.578214"><ele>0.8</ele><time>2021-05-20T12:03:38Z</time><name>PT6050</name></trkpt>
<trkpt lat="53.327272" lon="06.578205"><ele>0.7</ele><time>2021-05-20T12:03:39Z</time><name>PT6051</name></trkpt>
<trkpt lat="53.327272" lon="06.578199"><ele>0.6</ele><time>2021-05-20T12:03:40Z</time><name>PT6052</name></trkpt>
<trkpt lat="53.327273" lon="06.578188"><ele>0.5</ele><time>2021-05-20T12:03:41Z</time><name>PT6053</name></trkpt>
<trkpt lat="53.327277" lon="06.578174"><ele>0.4</ele><time>2021-05-20T12:03:42Z</time><name>PT6054</name></trkpt>
<trkpt lat="53.327284" lon="06.578155"><ele>0.3</ele><time>2021-05-20T12:03:43Z</time><name>PT6055</name></trkpt>
<trkpt lat="53.327292" lon="06.578132"><ele>0.4</ele><time>2021-05-20T12:03:44Z</time><name>PT6056</name></trkpt>
<trkpt lat="53.327297" lon="06.578114"><ele>0.6</ele><time>2021-05-20T12:03:45Z</time><name>PT6057</name></trkpt>
<trkpt lat="53.327300" lon="06.578100"><ele>0.7</ele><time>2021-05-20T12:03:46Z</time><name>PT6058</name></trkpt>
<trkpt lat="53.327301" lon="06.578089"><ele>0.7</ele><time>2021-05-20T12:03:47Z</time><name>PT6059</name></trkpt>
<trkpt lat="53.327304" lon="06.578078"><ele>0.7</ele><time>2021-05-20T12:03:48Z</time><name>PT6060</name></trkpt>
<trkpt lat="53.327308" lon="06.578069"><ele>0.7</ele><time>2021-05-20T12:03:49Z</time><name>PT6061</name></trkpt>
<trkpt lat="53.327314" lon="06.578056"><ele>0.7</ele><time>2021-05-20T12:03:50Z</time><name>PT6062</name></trkpt>
<trkpt lat="53.327325" lon="06.578036"><ele>0.8</ele><time>2021-05-20T12:03:51Z</time><name>PT6063</name></trkpt>
<trkpt lat="53.327337" lon="06.578022"><ele>-1</ele><time>2021-05-20T12:03:52Z</time><name>PT6064</name></trkpt>
<trkpt lat="53.327346" lon="06.578012"><ele>-1.1</ele><time>2021-05-20T12:03:53Z</time><name>PT6065</name></trkpt>
<trkpt lat="53.327351" lon="06.578007"><ele>-1.2</ele><time>2021-05-20T12:03:54Z</time><name>PT6066</name></trkpt>
<trkpt lat="53.327357" lon="06.578005"><ele>-1.2</ele><time>2021-05-20T12:03:55Z</time><name>PT6067</name></trkpt>
<trkpt lat="53.327366" lon="06.578007"><ele>-1.1</ele><time>2021-05-20T12:03:56Z</time><name>PT6068</name></trkpt>
<trkpt lat="53.327379" lon="06.578009"><ele>-1</ele><time>2021-05-20T12:03:57Z</time><name>PT6069</name></trkpt>
<trkpt lat="53.327394" lon="06.578009"><ele>0.9</ele><time>2021-05-20T12:03:58Z</time><name>PT6070</name></trkpt>
<trkpt lat="53.327407" lon="06.578006"><ele>0.8</ele><time>2021-05-20T12:03:59Z</time><name>PT6071</name></trkpt>
<trkpt lat="53.327416" lon="06.577999"><ele>-1</ele><time>2021-05-20T12:04:00Z</time><name>PT6072</name></trkpt>
<trkpt lat="53.327424" lon="06.577994"><ele>0.9</ele><time>2021-05-20T12:04:01Z</time><name>PT6073</name></trkpt>
<trkpt lat="53.327432" lon="06.577992"><ele>-1.2</ele><time>2021-05-20T12:04:02Z</time><name>PT6074</name></trkpt>
<trkpt lat="53.327440" lon="06.577990"><ele>-1.2</ele><time>2021-05-20T12:04:03Z</time><name>PT6075</name></trkpt>
<trkpt lat="53.327453" lon="06.577990"><ele>-1.3</ele><time>2021-05-20T12:04:04Z</time><name>PT6076</name></trkpt>
<trkpt lat="53.327470" lon="06.577989"><ele>-1.2</ele><time>2021-05-20T12:04:05Z</time><name>PT6077</name></trkpt>
<trkpt lat="53.327483" lon="06.577988"><ele>-1</ele><time>2021-05-20T12:04:06Z</time><name>PT6078</name></trkpt>
<trkpt lat="53.327494" lon="06.577984"><ele>0.9</ele><time>2021-05-20T12:04:07Z</time><name>PT6079</name></trkpt>
<trkpt lat="53.327504" lon="06.577979"><ele>0.9</ele><time>2021-05-20T12:04:08Z</time><name>PT6080</name></trkpt>
<trkpt lat="53.327511" lon="06.577973"><ele>0.9</ele><time>2021-05-20T12:04:09Z</time><name>PT6081</name></trkpt>
<trkpt lat="53.327517" lon="06.577969"><ele>-1</ele><time>2021-05-20T12:04:10Z</time><name>PT6082</name></trkpt>
<trkpt lat="53.327525" lon="06.577967"><ele>-1.1</ele><time>2021-05-20T12:04:11Z</time><name>PT6083</name></trkpt>
<trkpt lat="53.327537" lon="06.577969"><ele>-1.2</ele><time>2021-05-20T12:04:12Z</time><name>PT6084</name></trkpt>
<trkpt lat="53.327550" lon="06.577972"><ele>-1.2</ele><time>2021-05-20T12:04:13Z</time><name>PT6085</name></trkpt>
<trkpt lat="53.327566" lon="06.577970"><ele>-1</ele><time>2021-05-20T12:04:14Z</time><name>PT6086</name></trkpt>
<trkpt lat="53.327577" lon="06.577965"><ele>-1.1</ele><time>2021-05-20T12:04:15Z</time><name>PT6087</name></trkpt>
<trkpt lat="53.327586" lon="06.577962"><ele>-1.1</ele><time>2021-05-20T12:04:16Z</time><name>PT6088</name></trkpt>
<trkpt lat="53.327594" lon="06.577958"><ele>-1.1</ele><time>2021-05-20T12:04:17Z</time><name>PT6089</name></trkpt>
<trkpt lat="53.327600" lon="06.577953"><ele>-1</ele><time>2021-05-20T12:04:18Z</time><name>PT6090</name></trkpt>
<trkpt lat="53.327607" lon="06.577952"><ele>0.9</ele><time>2021-05-20T12:04:19Z</time><name>PT6091</name></trkpt>
<trkpt lat="53.327615" lon="06.577951"><ele>0.9</ele><time>2021-05-20T12:04:20Z</time><name>PT6092</name></trkpt>
<trkpt lat="53.327627" lon="06.577948"><ele>0.7</ele><time>2021-05-20T12:04:21Z</time><name>PT6093</name></trkpt>
<trkpt lat="53.327641" lon="06.577947"><ele>0.8</ele><time>2021-05-20T12:04:22Z</time><name>PT6094</name></trkpt>
<trkpt lat="53.327655" lon="06.577943"><ele>0.8</ele><time>2021-05-20T12:04:23Z</time><name>PT6095</name></trkpt>
<trkpt lat="53.327665" lon="06.577938"><ele>0.9</ele><time>2021-05-20T12:04:24Z</time><name>PT6096</name></trkpt>
<trkpt lat="53.327671" lon="06.577933"><ele>0.8</ele><time>2021-05-20T12:04:25Z</time><name>PT6097</name></trkpt>
<trkpt lat="53.327679" lon="06.577928"><ele>0.8</ele><time>2021-05-20T12:04:26Z</time><name>PT6098</name></trkpt>
<trkpt lat="53.327687" lon="06.577926"><ele>0.8</ele><time>2021-05-20T12:04:27Z</time><name>PT6099</name></trkpt>
<trkpt lat="53.327700" lon="06.577925"><ele>0.8</ele><time>2021-05-20T12:04:28Z</time><name>PT6100</name></trkpt>
<trkpt lat="53.327714" lon="06.577925"><ele>0.8</ele><time>2021-05-20T12:04:29Z</time><name>PT6101</name></trkpt>
<trkpt lat="53.327727" lon="06.577924"><ele>0.9</ele><time>2021-05-20T12:04:30Z</time><name>PT6102</name></trkpt>
<trkpt lat="53.327738" lon="06.577921"><ele>0.8</ele><time>2021-05-20T12:04:31Z</time><name>PT6103</name></trkpt>
<trkpt lat="53.327747" lon="06.577916"><ele>-1</ele><time>2021-05-20T12:04:32Z</time><name>PT6104</name></trkpt>
<trkpt lat="53.327754" lon="06.577910"><ele>-1</ele><time>2021-05-20T12:04:33Z</time><name>PT6105</name></trkpt>
<trkpt lat="53.327762" lon="06.577907"><ele>0.9</ele><time>2021-05-20T12:04:34Z</time><name>PT6106</name></trkpt>
<trkpt lat="53.327771" lon="06.577904"><ele>0.9</ele><time>2021-05-20T12:04:35Z</time><name>PT6107</name></trkpt>
<trkpt lat="53.327783" lon="06.577902"><ele>-1</ele><time>2021-05-20T12:04:36Z</time><name>PT6108</name></trkpt>
<trkpt lat="53.327797" lon="06.577900"><ele>-1</ele><time>2021-05-20T12:04:37Z</time><name>PT6109</name></trkpt>
<trkpt lat="53.327808" lon="06.577896"><ele>-1.2</ele><time>2021-05-20T12:04:38Z</time><name>PT6110</name></trkpt>
<trkpt lat="53.327816" lon="06.577891"><ele>-1.2</ele><time>2021-05-20T12:04:39Z</time><name>PT6111</name></trkpt>
<trkpt lat="53.327823" lon="06.577884"><ele>-1.3</ele><time>2021-05-20T12:04:40Z</time><name>PT6112</name></trkpt>
<trkpt lat="53.327831" lon="06.577882"><ele>-1.1</ele><time>2021-05-20T12:04:41Z</time><name>PT6113</name></trkpt>
<trkpt lat="53.327841" lon="06.577880"><ele>0.9</ele><time>2021-05-20T12:04:42Z</time><name>PT6114</name></trkpt>
<trkpt lat="53.327855" lon="06.577878"><ele>0.7</ele><time>2021-05-20T12:04:43Z</time><name>PT6115</name></trkpt>
<trkpt lat="53.327869" lon="06.577875"><ele>0.5</ele><time>2021-05-20T12:04:44Z</time><name>PT6116</name></trkpt>
<trkpt lat="53.327876" lon="06.577870"><ele>0.5</ele><time>2021-05-20T12:04:45Z</time><name>PT6117</name></trkpt>
<trkpt lat="53.327881" lon="06.577866"><ele>0.6</ele><time>2021-05-20T12:04:46Z</time><name>PT6118</name></trkpt>
<trkpt lat="53.327888" lon="06.577863"><ele>0.7</ele><time>2021-05-20T12:04:47Z</time><name>PT6119</name></trkpt>
<trkpt lat="53.327895" lon="06.577859"><ele>0.7</ele><time>2021-05-20T12:04:48Z</time><name>PT6120</name></trkpt>
<trkpt lat="53.327906" lon="06.577857"><ele>0.8</ele><time>2021-05-20T12:04:49Z</time><name>PT6121</name></trkpt>
<trkpt lat="53.327918" lon="06.577858"><ele>0.8</ele><time>2021-05-20T12:04:50Z</time><name>PT6122</name></trkpt>
<trkpt lat="53.327925" lon="06.577855"><ele>-1</ele><time>2021-05-20T12:04:51Z</time><name>PT6123</name></trkpt>
<trkpt lat="53.327932" lon="06.577851"><ele>-1</ele><time>2021-05-20T12:04:52Z</time><name>PT6124</name></trkpt>
<trkpt lat="53.327940" lon="06.577849"><ele>-1</ele><time>2021-05-20T12:04:53Z</time><name>PT6125</name></trkpt>
<trkpt lat="53.327949" lon="06.577850"><ele>0.9</ele><time>2021-05-20T12:04:54Z</time><name>PT6126</name></trkpt>
<trkpt lat="53.327963" lon="06.577850"><ele>0.8</ele><time>2021-05-20T12:04:55Z</time><name>PT6127</name></trkpt>
<trkpt lat="53.327978" lon="06.577846"><ele>0.8</ele><time>2021-05-20T12:04:56Z</time><name>PT6128</name></trkpt>
<trkpt lat="53.327988" lon="06.577840"><ele>0.6</ele><time>2021-05-20T12:04:57Z</time><name>PT6129</name></trkpt>
<trkpt lat="53.327996" lon="06.577835"><ele>0.7</ele><time>2021-05-20T12:04:58Z</time><name>PT6130</name></trkpt>
<trkpt lat="53.328003" lon="06.577831"><ele>0.8</ele><time>2021-05-20T12:04:59Z</time><name>PT6131</name></trkpt>
<trkpt lat="53.328012" lon="06.577830"><ele>0.9</ele><time>2021-05-20T12:05:00Z</time><name>PT6132</name></trkpt>
<trkpt lat="53.328023" lon="06.577828"><ele>-1</ele><time>2021-05-20T12:05:01Z</time><name>PT6133</name></trkpt>
<trkpt lat="53.328036" lon="06.577826"><ele>-1</ele><time>2021-05-20T12:05:02Z</time><name>PT6134</name></trkpt>
<trkpt lat="53.328050" lon="06.577824"><ele>0.9</ele><time>2021-05-20T12:05:04Z</time><name>PT6135</name></trkpt>
<trkpt lat="53.328062" lon="06.577821"><ele>0.8</ele><time>2021-05-20T12:05:04Z</time><name>PT6136</name></trkpt>
<trkpt lat="53.328072" lon="06.577815"><ele>0.7</ele><time>2021-05-20T12:05:05Z</time><name>PT6137</name></trkpt>
<trkpt lat="53.328079" lon="06.577810"><ele>0.9</ele><time>2021-05-20T12:05:07Z</time><name>PT6138</name></trkpt>
<trkpt lat="53.328086" lon="06.577807"><ele>0.8</ele><time>2021-05-20T12:05:07Z</time><name>PT6139</name></trkpt>
<trkpt lat="53.328096" lon="06.577806"><ele>0.8</ele><time>2021-05-20T12:05:08Z</time><name>PT6140</name></trkpt>
<trkpt lat="53.328110" lon="06.577805"><ele>0.8</ele><time>2021-05-20T12:05:09Z</time><name>PT6141</name></trkpt>
<trkpt lat="53.328124" lon="06.577805"><ele>0.9</ele><time>2021-05-20T12:05:10Z</time><name>PT6142</name></trkpt>
<trkpt lat="53.328134" lon="06.577800"><ele>0.7</ele><time>2021-05-20T12:05:11Z</time><name>PT6143</name></trkpt>
<trkpt lat="53.328141" lon="06.577797"><ele>0.8</ele><time>2021-05-20T12:05:12Z</time><name>PT6144</name></trkpt>
<trkpt lat="53.328148" lon="06.577793"><ele>0.9</ele><time>2021-05-20T12:05:13Z</time><name>PT6145</name></trkpt>
<trkpt lat="53.328157" lon="06.577790"><ele>0.8</ele><time>2021-05-20T12:05:14Z</time><name>PT6146</name></trkpt>
<trkpt lat="53.328169" lon="06.577789"><ele>0.6</ele><time>2021-05-20T12:05:15Z</time><name>PT6147</name></trkpt>
<trkpt lat="53.328183" lon="06.577789"><ele>0.6</ele><time>2021-05-20T12:05:16Z</time><name>PT6148</name></trkpt>
<trkpt lat="53.328197" lon="06.577784"><ele>0.7</ele><time>2021-05-20T12:05:17Z</time><name>PT6149</name></trkpt>
<trkpt lat="53.328209" lon="06.577780"><ele>0.6</ele><time>2021-05-20T12:05:18Z</time><name>PT6150</name></trkpt>
<trkpt lat="53.328217" lon="06.577777"><ele>0.7</ele><time>2021-05-20T12:05:19Z</time><name>PT6151</name></trkpt>
<trkpt lat="53.328226" lon="06.577775"><ele>0.5</ele><time>2021-05-20T12:05:20Z</time><name>PT6152</name></trkpt>
<trkpt lat="53.328234" lon="06.577775"><ele>0.3</ele><time>2021-05-20T12:05:21Z</time><name>PT6153</name></trkpt>
<trkpt lat="53.328243" lon="06.577775"><ele>0.1</ele><time>2021-05-20T12:05:22Z</time><name>PT6154</name></trkpt>
<trkpt lat="53.328252" lon="06.577772"><ele>0</ele><time>2021-05-20T12:05:23Z</time><name>PT6155</name></trkpt>
<trkpt lat="53.328257" lon="06.577770"><ele>0.1</ele><time>2021-05-20T12:05:24Z</time><name>PT6156</name></trkpt>
<trkpt lat="53.328260" lon="06.577771"><ele>0.2</ele><time>2021-05-20T12:05:25Z</time><name>PT6157</name></trkpt>
<trkpt lat="53.328266" lon="06.577768"><ele>0.2</ele><time>2021-05-20T12:05:26Z</time><name>PT6158</name></trkpt>
<trkpt lat="53.328275" lon="06.577764"><ele>0.4</ele><time>2021-05-20T12:05:27Z</time><name>PT6159</name></trkpt>
<trkpt lat="53.328283" lon="06.577761"><ele>0.1</ele><time>2021-05-20T12:05:28Z</time><name>PT6160</name></trkpt>
<trkpt lat="53.328293" lon="06.577759"><ele>0.1</ele><time>2021-05-20T12:05:29Z</time><name>PT6161</name></trkpt>
<trkpt lat="53.328304" lon="06.577758"><ele>0.1</ele><time>2021-05-20T12:05:30Z</time><name>PT6162</name></trkpt>
<trkpt lat="53.328313" lon="06.577755"><ele>0.1</ele><time>2021-05-20T12:05:31Z</time><name>PT6163</name></trkpt>
<trkpt lat="53.328322" lon="06.577749"><ele>0.2</ele><time>2021-05-20T12:05:32Z</time><name>PT6164</name></trkpt>
<trkpt lat="53.328332" lon="06.577742"><ele>0.4</ele><time>2021-05-20T12:05:33Z</time><name>PT6165</name></trkpt>
<trkpt lat="53.328340" lon="06.577736"><ele>0.1</ele><time>2021-05-20T12:05:34Z</time><name>PT6166</name></trkpt>
<trkpt lat="53.328349" lon="06.577736"><ele>0.1</ele><time>2021-05-20T12:05:35Z</time><name>PT6167</name></trkpt>
<trkpt lat="53.328358" lon="06.577735"><ele>0.1</ele><time>2021-05-20T12:05:36Z</time><name>PT6168</name></trkpt>
<trkpt lat="53.328368" lon="06.577732"><ele>0</ele><time>2021-05-20T12:05:37Z</time><name>PT6169</name></trkpt>
<trkpt lat="53.328379" lon="06.577733"><ele>0</ele><time>2021-05-20T12:05:38Z</time><name>PT6170</name></trkpt>
<trkpt lat="53.328390" lon="06.577730"><ele>0.1</ele><time>2021-05-20T12:05:39Z</time><name>PT6171</name></trkpt>
<trkpt lat="53.328400" lon="06.577727"><ele>0.1</ele><time>2021-05-20T12:05:40Z</time><name>PT6172</name></trkpt>
<trkpt lat="53.328410" lon="06.577725"><ele>0.2</ele><time>2021-05-20T12:05:41Z</time><name>PT6173</name></trkpt>
<trkpt lat="53.328419" lon="06.577721"><ele>0.1</ele><time>2021-05-20T12:05:42Z</time><name>PT6174</name></trkpt>
<trkpt lat="53.328429" lon="06.577719"><ele>0.2</ele><time>2021-05-20T12:05:43Z</time><name>PT6175</name></trkpt>
<trkpt lat="53.328439" lon="06.577718"><ele>0.1</ele><time>2021-05-20T12:05:44Z</time><name>PT6176</name></trkpt>
<trkpt lat="53.328455" lon="06.577718"><ele>0.1</ele><time>2021-05-20T12:05:45Z</time><name>PT6177</name></trkpt>
<trkpt lat="53.328470" lon="06.577716"><ele>0.1</ele><time>2021-05-20T12:05:46Z</time><name>PT6178</name></trkpt>
<trkpt lat="53.328482" lon="06.577711"><ele>0.1</ele><time>2021-05-20T12:05:47Z</time><name>PT6179</name></trkpt>
<trkpt lat="53.328490" lon="06.577705"><ele>0</ele><time>2021-05-20T12:05:48Z</time><name>PT6180</name></trkpt>
<trkpt lat="53.328500" lon="06.577704"><ele>0.2</ele><time>2021-05-20T12:05:49Z</time><name>PT6181</name></trkpt>
<trkpt lat="53.328510" lon="06.577702"><ele>0.3</ele><time>2021-05-20T12:05:50Z</time><name>PT6182</name></trkpt>
<trkpt lat="53.328519" lon="06.577701"><ele>0.3</ele><time>2021-05-20T12:05:51Z</time><name>PT6183</name></trkpt>
<trkpt lat="53.328526" lon="06.577700"><ele>0.3</ele><time>2021-05-20T12:05:52Z</time><name>PT6184</name></trkpt>
<trkpt lat="53.328533" lon="06.577695"><ele>0</ele><time>2021-05-20T12:05:53Z</time><name>PT6185</name></trkpt>
<trkpt lat="53.328541" lon="06.577688"><ele>0</ele><time>2021-05-20T12:05:54Z</time><name>PT6186</name></trkpt>
<trkpt lat="53.328549" lon="06.577683"><ele>0.2</ele><time>2021-05-20T12:05:55Z</time><name>PT6187</name></trkpt>
<trkpt lat="53.328558" lon="06.577681"><ele>0.2</ele><time>2021-05-20T12:05:56Z</time><name>PT6188</name></trkpt>
<trkpt lat="53.328567" lon="06.577680"><ele>0.2</ele><time>2021-05-20T12:05:57Z</time><name>PT6189</name></trkpt>
<trkpt lat="53.328575" lon="06.577679"><ele>0.4</ele><time>2021-05-20T12:05:58Z</time><name>PT6190</name></trkpt>
<trkpt lat="53.328583" lon="06.577677"><ele>0.3</ele><time>2021-05-20T12:05:59Z</time><name>PT6191</name></trkpt>
<trkpt lat="53.328591" lon="06.577672"><ele>0.5</ele><time>2021-05-20T12:06:00Z</time><name>PT6192</name></trkpt>
<trkpt lat="53.328599" lon="06.577668"><ele>0.4</ele><time>2021-05-20T12:06:01Z</time><name>PT6193</name></trkpt>
<trkpt lat="53.328606" lon="06.577665"><ele>0.4</ele><time>2021-05-20T12:06:02Z</time><name>PT6194</name></trkpt>
<trkpt lat="53.328617" lon="06.577664"><ele>0.2</ele><time>2021-05-20T12:06:03Z</time><name>PT6195</name></trkpt>
<trkpt lat="53.328629" lon="06.577663"><ele>0.4</ele><time>2021-05-20T12:06:04Z</time><name>PT6196</name></trkpt>
<trkpt lat="53.328641" lon="06.577660"><ele>0.3</ele><time>2021-05-20T12:06:05Z</time><name>PT6197</name></trkpt>
<trkpt lat="53.328652" lon="06.577655"><ele>0.3</ele><time>2021-05-20T12:06:06Z</time><name>PT6198</name></trkpt>
<trkpt lat="53.328664" lon="06.577654"><ele>0.2</ele><time>2021-05-20T12:06:07Z</time><name>PT6199</name></trkpt>
<trkpt lat="53.328673" lon="06.577645"><ele>0.2</ele><time>2021-05-20T12:06:08Z</time><name>PT6200</name></trkpt>
<trkpt lat="53.328680" lon="06.577640"><ele>0</ele><time>2021-05-20T12:06:09Z</time><name>PT6201</name></trkpt>
<trkpt lat="53.328685" lon="06.577637"><ele>0</ele><time>2021-05-20T12:06:10Z</time><name>PT6202</name></trkpt>
<trkpt lat="53.328693" lon="06.577635"><ele>0</ele><time>2021-05-20T12:06:11Z</time><name>PT6203</name></trkpt>
<trkpt lat="53.328705" lon="06.577634"><ele>0.3</ele><time>2021-05-20T12:06:12Z</time><name>PT6204</name></trkpt>
<trkpt lat="53.328720" lon="06.577634"><ele>0.3</ele><time>2021-05-20T12:06:13Z</time><name>PT6205</name></trkpt>
<trkpt lat="53.328735" lon="06.577632"><ele>0.3</ele><time>2021-05-20T12:06:14Z</time><name>PT6206</name></trkpt>
<trkpt lat="53.328749" lon="06.577628"><ele>0.5</ele><time>2021-05-20T12:06:15Z</time><name>PT6207</name></trkpt>
<trkpt lat="53.328758" lon="06.577622"><ele>0.5</ele><time>2021-05-20T12:06:16Z</time><name>PT6208</name></trkpt>
<trkpt lat="53.328764" lon="06.577617"><ele>0.3</ele><time>2021-05-20T12:06:17Z</time><name>PT6209</name></trkpt>
<trkpt lat="53.328770" lon="06.577615"><ele>0.4</ele><time>2021-05-20T12:06:18Z</time><name>PT6210</name></trkpt>
<trkpt lat="53.328778" lon="06.577614"><ele>0.5</ele><time>2021-05-20T12:06:19Z</time><name>PT6211</name></trkpt>
<trkpt lat="53.328792" lon="06.577616"><ele>0.3</ele><time>2021-05-20T12:06:20Z</time><name>PT6212</name></trkpt>
<trkpt lat="53.328804" lon="06.577614"><ele>0.5</ele><time>2021-05-20T12:06:21Z</time><name>PT6213</name></trkpt>
<trkpt lat="53.328812" lon="06.577608"><ele>0.5</ele><time>2021-05-20T12:06:22Z</time><name>PT6214</name></trkpt>
<trkpt lat="53.328819" lon="06.577604"><ele>0.5</ele><time>2021-05-20T12:06:23Z</time><name>PT6215</name></trkpt>
<trkpt lat="53.328825" lon="06.577601"><ele>0.7</ele><time>2021-05-20T12:06:24Z</time><name>PT6216</name></trkpt>
<trkpt lat="53.328834" lon="06.577599"><ele>0.7</ele><time>2021-05-20T12:06:25Z</time><name>PT6217</name></trkpt>
<trkpt lat="53.328848" lon="06.577597"><ele>0.7</ele><time>2021-05-20T12:06:26Z</time><name>PT6218</name></trkpt>
<trkpt lat="53.328864" lon="06.577600"><ele>0.7</ele><time>2021-05-20T12:06:27Z</time><name>PT6219</name></trkpt>
<trkpt lat="53.328880" lon="06.577601"><ele>0.6</ele><time>2021-05-20T12:06:28Z</time><name>PT6220</name></trkpt>
<trkpt lat="53.328886" lon="06.577600"><ele>0.3</ele><time>2021-05-20T12:06:29Z</time><name>PT6221</name></trkpt>
<trkpt lat="53.328894" lon="06.577596"><ele>0.3</ele><time>2021-05-20T12:06:30Z</time><name>PT6222</name></trkpt>
<trkpt lat="53.328904" lon="06.577590"><ele>0.3</ele><time>2021-05-20T12:06:31Z</time><name>PT6223</name></trkpt>
<trkpt lat="53.328910" lon="06.577587"><ele>0.3</ele><time>2021-05-20T12:06:32Z</time><name>PT6224</name></trkpt>
<trkpt lat="53.328916" lon="06.577581"><ele>0.4</ele><time>2021-05-20T12:06:33Z</time><name>PT6225</name></trkpt>
<trkpt lat="53.328921" lon="06.577580"><ele>0.7</ele><time>2021-05-20T12:06:34Z</time><name>PT6226</name></trkpt>
<trkpt lat="53.328931" lon="06.577580"><ele>0.7</ele><time>2021-05-20T12:06:35Z</time><name>PT6227</name></trkpt>
<trkpt lat="53.328946" lon="06.577577"><ele>0.7</ele><time>2021-05-20T12:06:36Z</time><name>PT6228</name></trkpt>
<trkpt lat="53.328960" lon="06.577571"><ele>0.5</ele><time>2021-05-20T12:06:37Z</time><name>PT6229</name></trkpt>
<trkpt lat="53.328969" lon="06.577567"><ele>0.6</ele><time>2021-05-20T12:06:38Z</time><name>PT6230</name></trkpt>
<trkpt lat="53.328977" lon="06.577561"><ele>0.6</ele><time>2021-05-20T12:06:39Z</time><name>PT6231</name></trkpt>
<trkpt lat="53.328985" lon="06.577555"><ele>0.6</ele><time>2021-05-20T12:06:40Z</time><name>PT6232</name></trkpt>
<trkpt lat="53.328992" lon="06.577550"><ele>0.7</ele><time>2021-05-20T12:06:41Z</time><name>PT6233</name></trkpt>
<trkpt lat="53.329001" lon="06.577545"><ele>0.7</ele><time>2021-05-20T12:06:42Z</time><name>PT6234</name></trkpt>
<trkpt lat="53.329010" lon="06.577538"><ele>0.7</ele><time>2021-05-20T12:06:43Z</time><name>PT6235</name></trkpt>
<trkpt lat="53.329020" lon="06.577529"><ele>0.5</ele><time>2021-05-20T12:06:44Z</time><name>PT6236</name></trkpt>
<trkpt lat="53.329032" lon="06.577519"><ele>0.4</ele><time>2021-05-20T12:06:45Z</time><name>PT6237</name></trkpt>
<trkpt lat="53.329044" lon="06.577509"><ele>0.3</ele><time>2021-05-20T12:06:46Z</time><name>PT6238</name></trkpt>
<trkpt lat="53.329056" lon="06.577490"><ele>0.3</ele><time>2021-05-20T12:06:47Z</time><name>PT6239</name></trkpt>
<trkpt lat="53.329066" lon="06.577469"><ele>0.1</ele><time>2021-05-20T12:06:48Z</time><name>PT6240</name></trkpt>
<trkpt lat="53.329072" lon="06.577454"><ele>0.3</ele><time>2021-05-20T12:06:49Z</time><name>PT6241</name></trkpt>
<trkpt lat="53.329076" lon="06.577445"><ele>0.2</ele><time>2021-05-20T12:06:50Z</time><name>PT6242</name></trkpt>
<trkpt lat="53.329080" lon="06.577436"><ele>0.4</ele><time>2021-05-20T12:06:51Z</time><name>PT6243</name></trkpt>
<trkpt lat="53.329085" lon="06.577427"><ele>0.4</ele><time>2021-05-20T12:06:52Z</time><name>PT6244</name></trkpt>
<trkpt lat="53.329094" lon="06.577417"><ele>0.8</ele><time>2021-05-20T12:06:53Z</time><name>PT6245</name></trkpt>
<trkpt lat="53.329111" lon="06.577409"><ele>0.8</ele><time>2021-05-20T12:06:54Z</time><name>PT6246</name></trkpt>
<trkpt lat="53.329125" lon="06.577403"><ele>-1</ele><time>2021-05-20T12:06:55Z</time><name>PT6247</name></trkpt>
<trkpt lat="53.329133" lon="06.577397"><ele>-1.1</ele><time>2021-05-20T12:06:56Z</time><name>PT6248</name></trkpt>
<trkpt lat="53.329142" lon="06.577392"><ele>-1</ele><time>2021-05-20T12:06:57Z</time><name>PT6249</name></trkpt>
<trkpt lat="53.329148" lon="06.577387"><ele>0.9</ele><time>2021-05-20T12:06:58Z</time><name>PT6250</name></trkpt>
<trkpt lat="53.329156" lon="06.577388"><ele>-1</ele><time>2021-05-20T12:06:59Z</time><name>PT6251</name></trkpt>
<trkpt lat="53.329166" lon="06.577390"><ele>-1</ele><time>2021-05-20T12:07:00Z</time><name>PT6252</name></trkpt>
<trkpt lat="53.329177" lon="06.577391"><ele>-1</ele><time>2021-05-20T12:07:01Z</time><name>PT6253</name></trkpt>
<trkpt lat="53.329189" lon="06.577394"><ele>-1</ele><time>2021-05-20T12:07:02Z</time><name>PT6254</name></trkpt>
<trkpt lat="53.329197" lon="06.577392"><ele>-1.2</ele><time>2021-05-20T12:07:03Z</time><name>PT6255</name></trkpt>
<trkpt lat="53.329204" lon="06.577390"><ele>-1.2</ele><time>2021-05-20T12:07:04Z</time><name>PT6256</name></trkpt>
<trkpt lat="53.329211" lon="06.577390"><ele>-1.3</ele><time>2021-05-20T12:07:05Z</time><name>PT6257</name></trkpt>
<trkpt lat="53.329221" lon="06.577391"><ele>-1.5</ele><time>2021-05-20T12:07:06Z</time><name>PT6258</name></trkpt>
<trkpt lat="53.329235" lon="06.577391"><ele>-1.4</ele><time>2021-05-20T12:07:07Z</time><name>PT6259</name></trkpt>
<trkpt lat="53.329251" lon="06.577392"><ele>-1.3</ele><time>2021-05-20T12:07:08Z</time><name>PT6260</name></trkpt>
<trkpt lat="53.329263" lon="06.577392"><ele>-1.2</ele><time>2021-05-20T12:07:09Z</time><name>PT6261</name></trkpt>
<trkpt lat="53.329272" lon="06.577392"><ele>-1.2</ele><time>2021-05-20T12:07:10Z</time><name>PT6262</name></trkpt>
<trkpt lat="53.329278" lon="06.577391"><ele>-1.2</ele><time>2021-05-20T12:07:11Z</time><name>PT6263</name></trkpt>
<trkpt lat="53.329285" lon="06.577390"><ele>-1.3</ele><time>2021-05-20T12:07:12Z</time><name>PT6264</name></trkpt>
<trkpt lat="53.329292" lon="06.577391"><ele>-1.3</ele><time>2021-05-20T12:07:13Z</time><name>PT6265</name></trkpt>
<trkpt lat="53.329302" lon="06.577393"><ele>-1.3</ele><time>2021-05-20T12:07:14Z</time><name>PT6266</name></trkpt>
<trkpt lat="53.329315" lon="06.577397"><ele>-1.3</ele><time>2021-05-20T12:07:15Z</time><name>PT6267</name></trkpt>
<trkpt lat="53.329329" lon="06.577399"><ele>-1.4</ele><time>2021-05-20T12:07:16Z</time><name>PT6268</name></trkpt>
<trkpt lat="53.329339" lon="06.577395"><ele>-1.2</ele><time>2021-05-20T12:07:17Z</time><name>PT6269</name></trkpt>
<trkpt lat="53.329345" lon="06.577393"><ele>-1.2</ele><time>2021-05-20T12:07:18Z</time><name>PT6270</name></trkpt>
<trkpt lat="53.329350" lon="06.577392"><ele>-1.2</ele><time>2021-05-20T12:07:19Z</time><name>PT6271</name></trkpt>
<trkpt lat="53.329355" lon="06.577390"><ele>-1.1</ele><time>2021-05-20T12:07:20Z</time><name>PT6272</name></trkpt>
<trkpt lat="53.329365" lon="06.577391"><ele>0.9</ele><time>2021-05-20T12:07:21Z</time><name>PT6273</name></trkpt>
<trkpt lat="53.329378" lon="06.577394"><ele>-1.1</ele><time>2021-05-20T12:07:22Z</time><name>PT6274</name></trkpt>
<trkpt lat="53.329388" lon="06.577396"><ele>-1</ele><time>2021-05-20T12:07:23Z</time><name>PT6275</name></trkpt>
<trkpt lat="53.329395" lon="06.577395"><ele>-1</ele><time>2021-05-20T12:07:24Z</time><name>PT6276</name></trkpt>
<trkpt lat="53.329401" lon="06.577392"><ele>0.8</ele><time>2021-05-20T12:07:25Z</time><name>PT6277</name></trkpt>
<trkpt lat="53.329407" lon="06.577392"><ele>0.8</ele><time>2021-05-20T12:07:26Z</time><name>PT6278</name></trkpt>
<trkpt lat="53.329417" lon="06.577395"><ele>0.9</ele><time>2021-05-20T12:07:27Z</time><name>PT6279</name></trkpt>
<trkpt lat="53.329433" lon="06.577394"><ele>0.9</ele><time>2021-05-20T12:07:28Z</time><name>PT6280</name></trkpt>
<trkpt lat="53.329450" lon="06.577392"><ele>-1</ele><time>2021-05-20T12:07:29Z</time><name>PT6281</name></trkpt>
<trkpt lat="53.329462" lon="06.577392"><ele>0.9</ele><time>2021-05-20T12:07:30Z</time><name>PT6282</name></trkpt>
<trkpt lat="53.329470" lon="06.577392"><ele>-1</ele><time>2021-05-20T12:07:31Z</time><name>PT6283</name></trkpt>
<trkpt lat="53.329476" lon="06.577391"><ele>0.8</ele><time>2021-05-20T12:07:32Z</time><name>PT6284</name></trkpt>
<trkpt lat="53.329483" lon="06.577388"><ele>0.8</ele><time>2021-05-20T12:07:33Z</time><name>PT6285</name></trkpt>
<trkpt lat="53.329492" lon="06.577388"><ele>0.7</ele><time>2021-05-20T12:07:34Z</time><name>PT6286</name></trkpt>
<trkpt lat="53.329502" lon="06.577392"><ele>0.8</ele><time>2021-05-20T12:07:35Z</time><name>PT6287</name></trkpt>
<trkpt lat="53.329516" lon="06.577395"><ele>0.9</ele><time>2021-05-20T12:07:36Z</time><name>PT6288</name></trkpt>
<trkpt lat="53.329528" lon="06.577397"><ele>0.9</ele><time>2021-05-20T12:07:37Z</time><name>PT6289</name></trkpt>
<trkpt lat="53.329537" lon="06.577395"><ele>0.7</ele><time>2021-05-20T12:07:38Z</time><name>PT6290</name></trkpt>
<trkpt lat="53.329543" lon="06.577393"><ele>0.7</ele><time>2021-05-20T12:07:39Z</time><name>PT6291</name></trkpt>
<trkpt lat="53.329550" lon="06.577392"><ele>0.7</ele><time>2021-05-20T12:07:40Z</time><name>PT6292</name></trkpt>
<trkpt lat="53.329556" lon="06.577391"><ele>0.7</ele><time>2021-05-20T12:07:41Z</time><name>PT6293</name></trkpt>
<trkpt lat="53.329570" lon="06.577392"><ele>0.7</ele><time>2021-05-20T12:07:42Z</time><name>PT6294</name></trkpt>
<trkpt lat="53.329585" lon="06.577396"><ele>0.7</ele><time>2021-05-20T12:07:43Z</time><name>PT6295</name></trkpt>
<trkpt lat="53.329598" lon="06.577399"><ele>0.6</ele><time>2021-05-20T12:07:44Z</time><name>PT6296</name></trkpt>
<trkpt lat="53.329607" lon="06.577397"><ele>0.7</ele><time>2021-05-20T12:07:45Z</time><name>PT6297</name></trkpt>
<trkpt lat="53.329612" lon="06.577397"><ele>0.7</ele><time>2021-05-20T12:07:46Z</time><name>PT6298</name></trkpt>
<trkpt lat="53.329620" lon="06.577392"><ele>0.7</ele><time>2021-05-20T12:07:47Z</time><name>PT6299</name></trkpt>
<trkpt lat="53.329629" lon="06.577393"><ele>0.7</ele><time>2021-05-20T12:07:48Z</time><name>PT6300</name></trkpt>
<trkpt lat="53.329640" lon="06.577394"><ele>0.7</ele><time>2021-05-20T12:07:49Z</time><name>PT6301</name></trkpt>
<trkpt lat="53.329655" lon="06.577395"><ele>0.7</ele><time>2021-05-20T12:07:50Z</time><name>PT6302</name></trkpt>
<trkpt lat="53.329672" lon="06.577397"><ele>0.9</ele><time>2021-05-20T12:07:51Z</time><name>PT6303</name></trkpt>
<trkpt lat="53.329686" lon="06.577398"><ele>0.9</ele><time>2021-05-20T12:07:53Z</time><name>PT6304</name></trkpt>
<trkpt lat="53.329694" lon="06.577395"><ele>0.9</ele><time>2021-05-20T12:07:53Z</time><name>PT6305</name></trkpt>
<trkpt lat="53.329700" lon="06.577392"><ele>0.9</ele><time>2021-05-20T12:07:54Z</time><name>PT6306</name></trkpt>
<trkpt lat="53.329706" lon="06.577388"><ele>0.9</ele><time>2021-05-20T12:07:55Z</time><name>PT6307</name></trkpt>
<trkpt lat="53.329714" lon="06.577388"><ele>-1</ele><time>2021-05-20T12:07:56Z</time><name>PT6308</name></trkpt>
<trkpt lat="53.329726" lon="06.577387"><ele>-1.1</ele><time>2021-05-20T12:07:57Z</time><name>PT6309</name></trkpt>
<trkpt lat="53.329740" lon="06.577391"><ele>-1</ele><time>2021-05-20T12:07:58Z</time><name>PT6310</name></trkpt>
<trkpt lat="53.329753" lon="06.577392"><ele>-1.2</ele><time>2021-05-20T12:07:59Z</time><name>PT6311</name></trkpt>
<trkpt lat="53.329764" lon="06.577388"><ele>-1.2</ele><time>2021-05-20T12:08:00Z</time><name>PT6312</name></trkpt>
<trkpt lat="53.329773" lon="06.577388"><ele>0.9</ele><time>2021-05-20T12:08:01Z</time><name>PT6313</name></trkpt>
<trkpt lat="53.329782" lon="06.577386"><ele>0.7</ele><time>2021-05-20T12:08:02Z</time><name>PT6314</name></trkpt>
<trkpt lat="53.329791" lon="06.577381"><ele>0.6</ele><time>2021-05-20T12:08:03Z</time><name>PT6315</name></trkpt>
<trkpt lat="53.329799" lon="06.577379"><ele>0.2</ele><time>2021-05-20T12:08:04Z</time><name>PT6316</name></trkpt>
<trkpt lat="53.329812" lon="06.577380"><ele>0.1</ele><time>2021-05-20T12:08:05Z</time><name>PT6317</name></trkpt>
<trkpt lat="53.329830" lon="06.577385"><ele>0.3</ele><time>2021-05-20T12:08:06Z</time><name>PT6318</name></trkpt>
<trkpt lat="53.329848" lon="06.577388"><ele>0.5</ele><time>2021-05-20T12:08:07Z</time><name>PT6319</name></trkpt>
<trkpt lat="53.329860" lon="06.577390"><ele>0.7</ele><time>2021-05-20T12:08:08Z</time><name>PT6320</name></trkpt>
<trkpt lat="53.329866" lon="06.577389"><ele>0.7</ele><time>2021-05-20T12:08:09Z</time><name>PT6321</name></trkpt>
<trkpt lat="53.329873" lon="06.577386"><ele>0.8</ele><time>2021-05-20T12:08:10Z</time><name>PT6322</name></trkpt>
<trkpt lat="53.329880" lon="06.577382"><ele>0.9</ele><time>2021-05-20T12:08:11Z</time><name>PT6323</name></trkpt>
<trkpt lat="53.329886" lon="06.577380"><ele>0.8</ele><time>2021-05-20T12:08:12Z</time><name>PT6324</name></trkpt>
<trkpt lat="53.329893" lon="06.577380"><ele>0.8</ele><time>2021-05-20T12:08:13Z</time><name>PT6325</name></trkpt>
<trkpt lat="53.329903" lon="06.577382"><ele>0.8</ele><time>2021-05-20T12:08:14Z</time><name>PT6326</name></trkpt>
<trkpt lat="53.329915" lon="06.577387"><ele>0.8</ele><time>2021-05-20T12:08:15Z</time><name>PT6327</name></trkpt>
<trkpt lat="53.329931" lon="06.577391"><ele>0.7</ele><time>2021-05-20T12:08:16Z</time><name>PT6328</name></trkpt>
<trkpt lat="53.329947" lon="06.577394"><ele>0.9</ele><time>2021-05-20T12:08:17Z</time><name>PT6329</name></trkpt>
<trkpt lat="53.329959" lon="06.577394"><ele>0.7</ele><time>2021-05-20T12:08:18Z</time><name>PT6330</name></trkpt>
<trkpt lat="53.329969" lon="06.577392"><ele>0.7</ele><time>2021-05-20T12:08:19Z</time><name>PT6331</name></trkpt>
<trkpt lat="53.329977" lon="06.577388"><ele>0.7</ele><time>2021-05-20T12:08:20Z</time><name>PT6332</name></trkpt>
<trkpt lat="53.329981" lon="06.577384"><ele>0.6</ele><time>2021-05-20T12:08:21Z</time><name>PT6333</name></trkpt>
<trkpt lat="53.329985" lon="06.577382"><ele>0.6</ele><time>2021-05-20T12:08:22Z</time><name>PT6334</name></trkpt>
<trkpt lat="53.329995" lon="06.577384"><ele>0.7</ele><time>2021-05-20T12:08:23Z</time><name>PT6335</name></trkpt>
<trkpt lat="53.330006" lon="06.577389"><ele>0.9</ele><time>2021-05-20T12:08:24Z</time><name>PT6336</name></trkpt>
<trkpt lat="53.330020" lon="06.577392"><ele>0.9</ele><time>2021-05-20T12:08:25Z</time><name>PT6337</name></trkpt>
<trkpt lat="53.330033" lon="06.577392"><ele>-1</ele><time>2021-05-20T12:08:26Z</time><name>PT6338</name></trkpt>
<trkpt lat="53.330042" lon="06.577391"><ele>-1</ele><time>2021-05-20T12:08:27Z</time><name>PT6339</name></trkpt>
<trkpt lat="53.330048" lon="06.577385"><ele>0.7</ele><time>2021-05-20T12:08:28Z</time><name>PT6340</name></trkpt>
<trkpt lat="53.330053" lon="06.577382"><ele>0.7</ele><time>2021-05-20T12:08:29Z</time><name>PT6341</name></trkpt>
<trkpt lat="53.330059" lon="06.577382"><ele>0.7</ele><time>2021-05-20T12:08:30Z</time><name>PT6342</name></trkpt>
<trkpt lat="53.330068" lon="06.577384"><ele>0.6</ele><time>2021-05-20T12:08:31Z</time><name>PT6343</name></trkpt>
<trkpt lat="53.330080" lon="06.577389"><ele>0.6</ele><time>2021-05-20T12:08:32Z</time><name>PT6344</name></trkpt>
<trkpt lat="53.330095" lon="06.577394"><ele>0.4</ele><time>2021-05-20T12:08:33Z</time><name>PT6345</name></trkpt>
<trkpt lat="53.330108" lon="06.577397"><ele>0.4</ele><time>2021-05-20T12:08:34Z</time><name>PT6346</name></trkpt>
<trkpt lat="53.330117" lon="06.577395"><ele>0.6</ele><time>2021-05-20T12:08:35Z</time><name>PT6347</name></trkpt>
<trkpt lat="53.330124" lon="06.577393"><ele>0.6</ele><time>2021-05-20T12:08:36Z</time><name>PT6348</name></trkpt>
<trkpt lat="53.330131" lon="06.577392"><ele>0.7</ele><time>2021-05-20T12:08:37Z</time><name>PT6349</name></trkpt>
<trkpt lat="53.330140" lon="06.577393"><ele>0.7</ele><time>2021-05-20T12:08:38Z</time><name>PT6350</name></trkpt>
<trkpt lat="53.330153" lon="06.577395"><ele>0.5</ele><time>2021-05-20T12:08:39Z</time><name>PT6351</name></trkpt>
<trkpt lat="53.330168" lon="06.577396"><ele>0.3</ele><time>2021-05-20T12:08:40Z</time><name>PT6352</name></trkpt>
<trkpt lat="53.330180" lon="06.577396"><ele>0.4</ele><time>2021-05-20T12:08:41Z</time><name>PT6353</name></trkpt>
<trkpt lat="53.330192" lon="06.577396"><ele>0.5</ele><time>2021-05-20T12:08:42Z</time><name>PT6354</name></trkpt>
<trkpt lat="53.330200" lon="06.577394"><ele>0.7</ele><time>2021-05-20T12:08:43Z</time><name>PT6355</name></trkpt>
<trkpt lat="53.330206" lon="06.577394"><ele>0.7</ele><time>2021-05-20T12:08:44Z</time><name>PT6356</name></trkpt>
<trkpt lat="53.330214" lon="06.577400"><ele>0.7</ele><time>2021-05-20T12:08:45Z</time><name>PT6357</name></trkpt>
<trkpt lat="53.330227" lon="06.577405"><ele>0.7</ele><time>2021-05-20T12:08:46Z</time><name>PT6358</name></trkpt>
<trkpt lat="53.330239" lon="06.577407"><ele>0.7</ele><time>2021-05-20T12:08:47Z</time><name>PT6359</name></trkpt>
<trkpt lat="53.330247" lon="06.577406"><ele>0.7</ele><time>2021-05-20T12:08:48Z</time><name>PT6360</name></trkpt>
<trkpt lat="53.330255" lon="06.577405"><ele>0.6</ele><time>2021-05-20T12:08:49Z</time><name>PT6361</name></trkpt>
<trkpt lat="53.330261" lon="06.577406"><ele>0.6</ele><time>2021-05-20T12:08:50Z</time><name>PT6362</name></trkpt>
<trkpt lat="53.330274" lon="06.577406"><ele>0.7</ele><time>2021-05-20T12:08:51Z</time><name>PT6363</name></trkpt>
<trkpt lat="53.330288" lon="06.577404"><ele>0.7</ele><time>2021-05-20T12:08:52Z</time><name>PT6364</name></trkpt>
<trkpt lat="53.330300" lon="06.577401"><ele>0.5</ele><time>2021-05-20T12:08:53Z</time><name>PT6365</name></trkpt>
<trkpt lat="53.330307" lon="06.577398"><ele>0.5</ele><time>2021-05-20T12:08:54Z</time><name>PT6366</name></trkpt>
<trkpt lat="53.330316" lon="06.577396"><ele>0.4</ele><time>2021-05-20T12:08:55Z</time><name>PT6367</name></trkpt>
<trkpt lat="53.330325" lon="06.577398"><ele>0.6</ele><time>2021-05-20T12:08:56Z</time><name>PT6368</name></trkpt>
<trkpt lat="53.330337" lon="06.577399"><ele>0.7</ele><time>2021-05-20T12:08:57Z</time><name>PT6369</name></trkpt>
<trkpt lat="53.330352" lon="06.577401"><ele>0.8</ele><time>2021-05-20T12:08:58Z</time><name>PT6370</name></trkpt>
<trkpt lat="53.330365" lon="06.577403"><ele>0.8</ele><time>2021-05-20T12:08:59Z</time><name>PT6371</name></trkpt>
<trkpt lat="53.330373" lon="06.577402"><ele>0.9</ele><time>2021-05-20T12:09:00Z</time><name>PT6372</name></trkpt>
<trkpt lat="53.330380" lon="06.577401"><ele>0.8</ele><time>2021-05-20T12:09:01Z</time><name>PT6373</name></trkpt>
<trkpt lat="53.330387" lon="06.577401"><ele>0.9</ele><time>2021-05-20T12:09:03Z</time><name>PT6374</name></trkpt>
<trkpt lat="53.330395" lon="06.577403"><ele>0.9</ele><time>2021-05-20T12:09:03Z</time><name>PT6375</name></trkpt>
<trkpt lat="53.330407" lon="06.577402"><ele>-1</ele><time>2021-05-20T12:09:04Z</time><name>PT6376</name></trkpt>
<trkpt lat="53.330423" lon="06.577403"><ele>0.8</ele><time>2021-05-20T12:09:05Z</time><name>PT6377</name></trkpt>
<trkpt lat="53.330434" lon="06.577403"><ele>0.7</ele><time>2021-05-20T12:09:06Z</time><name>PT6378</name></trkpt>
<trkpt lat="53.330439" lon="06.577399"><ele>-1</ele><time>2021-05-20T12:09:07Z</time><name>PT6379</name></trkpt>
<trkpt lat="53.330443" lon="06.577397"><ele>-1.1</ele><time>2021-05-20T12:09:08Z</time><name>PT6380</name></trkpt>
<trkpt lat="53.330451" lon="06.577402"><ele>0.9</ele><time>2021-05-20T12:09:09Z</time><name>PT6381</name></trkpt>
<trkpt lat="53.330464" lon="06.577405"><ele>-1.2</ele><time>2021-05-20T12:09:10Z</time><name>PT6382</name></trkpt>
<trkpt lat="53.330481" lon="06.577405"><ele>-1</ele><time>2021-05-20T12:09:11Z</time><name>PT6383</name></trkpt>
<trkpt lat="53.330497" lon="06.577406"><ele>0.8</ele><time>2021-05-20T12:09:12Z</time><name>PT6384</name></trkpt>
<trkpt lat="53.330507" lon="06.577406"><ele>0.8</ele><time>2021-05-20T12:09:13Z</time><name>PT6385</name></trkpt>
<trkpt lat="53.330513" lon="06.577405"><ele>0.8</ele><time>2021-05-20T12:09:14Z</time><name>PT6386</name></trkpt>
<trkpt lat="53.330519" lon="06.577405"><ele>0.9</ele><time>2021-05-20T12:09:15Z</time><name>PT6387</name></trkpt>
<trkpt lat="53.330528" lon="06.577405"><ele>0.8</ele><time>2021-05-20T12:09:16Z</time><name>PT6388</name></trkpt>
<trkpt lat="53.330541" lon="06.577406"><ele>-1</ele><time>2021-05-20T12:09:17Z</time><name>PT6389</name></trkpt>
<trkpt lat="53.330557" lon="06.577406"><ele>-1.2</ele><time>2021-05-20T12:09:18Z</time><name>PT6390</name></trkpt>
<trkpt lat="53.330568" lon="06.577407"><ele>-1</ele><time>2021-05-20T12:09:19Z</time><name>PT6391</name></trkpt>
<trkpt lat="53.330576" lon="06.577405"><ele>-1.2</ele><time>2021-05-20T12:09:20Z</time><name>PT6392</name></trkpt>
<trkpt lat="53.330582" lon="06.577402"><ele>-1.1</ele><time>2021-05-20T12:09:21Z</time><name>PT6393</name></trkpt>
<trkpt lat="53.330587" lon="06.577402"><ele>-1.1</ele><time>2021-05-20T12:09:22Z</time><name>PT6394</name></trkpt>
<trkpt lat="53.330596" lon="06.577402"><ele>-1.2</ele><time>2021-05-20T12:09:23Z</time><name>PT6395</name></trkpt>
<trkpt lat="53.330612" lon="06.577401"><ele>-1.2</ele><time>2021-05-20T12:09:24Z</time><name>PT6396</name></trkpt>
<trkpt lat="53.330625" lon="06.577401"><ele>-1.1</ele><time>2021-05-20T12:09:25Z</time><name>PT6397</name></trkpt>
<trkpt lat="53.330634" lon="06.577398"><ele>-1.2</ele><time>2021-05-20T12:09:26Z</time><name>PT6398</name></trkpt>
<trkpt lat="53.330640" lon="06.577396"><ele>-1.1</ele><time>2021-05-20T12:09:27Z</time><name>PT6399</name></trkpt>
<trkpt lat="53.330644" lon="06.577394"><ele>-1</ele><time>2021-05-20T12:09:28Z</time><name>PT6400</name></trkpt>
<trkpt lat="53.330651" lon="06.577398"><ele>-1.2</ele><time>2021-05-20T12:09:29Z</time><name>PT6401</name></trkpt>
<trkpt lat="53.330664" lon="06.577400"><ele>-1.4</ele><time>2021-05-20T12:09:30Z</time><name>PT6402</name></trkpt>
<trkpt lat="53.330678" lon="06.577400"><ele>-1.6</ele><time>2021-05-20T12:09:31Z</time><name>PT6403</name></trkpt>
<trkpt lat="53.330690" lon="06.577399"><ele>-1.6</ele><time>2021-05-20T12:09:32Z</time><name>PT6404</name></trkpt>
<trkpt lat="53.330699" lon="06.577399"><ele>-1.6</ele><time>2021-05-20T12:09:33Z</time><name>PT6405</name></trkpt>
<trkpt lat="53.330705" lon="06.577397"><ele>-1.4</ele><time>2021-05-20T12:09:34Z</time><name>PT6406</name></trkpt>
<trkpt lat="53.330712" lon="06.577396"><ele>-1.3</ele><time>2021-05-20T12:09:35Z</time><name>PT6407</name></trkpt>
<trkpt lat="53.330721" lon="06.577395"><ele>-1.2</ele><time>2021-05-20T12:09:36Z</time><name>PT6408</name></trkpt>
<trkpt lat="53.330733" lon="06.577400"><ele>-1.3</ele><time>2021-05-20T12:09:37Z</time><name>PT6409</name></trkpt>
<trkpt lat="53.330748" lon="06.577403"><ele>-1.5</ele><time>2021-05-20T12:09:38Z</time><name>PT6410</name></trkpt>
<trkpt lat="53.330761" lon="06.577402"><ele>-1.4</ele><time>2021-05-20T12:09:39Z</time><name>PT6411</name></trkpt>
<trkpt lat="53.330769" lon="06.577399"><ele>-1.2</ele><time>2021-05-20T12:09:40Z</time><name>PT6412</name></trkpt>
<trkpt lat="53.330775" lon="06.577396"><ele>-1.2</ele><time>2021-05-20T12:09:41Z</time><name>PT6413</name></trkpt>
<trkpt lat="53.330780" lon="06.577395"><ele>-1.2</ele><time>2021-05-20T12:09:42Z</time><name>PT6414</name></trkpt>
<trkpt lat="53.330787" lon="06.577398"><ele>-1</ele><time>2021-05-20T12:09:43Z</time><name>PT6415</name></trkpt>
<trkpt lat="53.330797" lon="06.577402"><ele>0.9</ele><time>2021-05-20T12:09:44Z</time><name>PT6416</name></trkpt>
<trkpt lat="53.330812" lon="06.577404"><ele>-1</ele><time>2021-05-20T12:09:45Z</time><name>PT6417</name></trkpt>
<trkpt lat="53.330824" lon="06.577403"><ele>-1.1</ele><time>2021-05-20T12:09:46Z</time><name>PT6418</name></trkpt>
<trkpt lat="53.330833" lon="06.577402"><ele>-1.2</ele><time>2021-05-20T12:09:47Z</time><name>PT6419</name></trkpt>
<trkpt lat="53.330840" lon="06.577399"><ele>-1.2</ele><time>2021-05-20T12:09:48Z</time><name>PT6420</name></trkpt>
<trkpt lat="53.330848" lon="06.577400"><ele>-1.2</ele><time>2021-05-20T12:09:49Z</time><name>PT6421</name></trkpt>
<trkpt lat="53.330857" lon="06.577404"><ele>-1.2</ele><time>2021-05-20T12:09:50Z</time><name>PT6422</name></trkpt>
<trkpt lat="53.330871" lon="06.577407"><ele>-1.3</ele><time>2021-05-20T12:09:51Z</time><name>PT6423</name></trkpt>
<trkpt lat="53.330885" lon="06.577407"><ele>-1.3</ele><time>2021-05-20T12:09:52Z</time><name>PT6424</name></trkpt>
<trkpt lat="53.330894" lon="06.577405"><ele>-1.3</ele><time>2021-05-20T12:09:53Z</time><name>PT6425</name></trkpt>
<trkpt lat="53.330901" lon="06.577401"><ele>-1.3</ele><time>2021-05-20T12:09:54Z</time><name>PT6426</name></trkpt>
<trkpt lat="53.330909" lon="06.577399"><ele>-1.2</ele><time>2021-05-20T12:09:55Z</time><name>PT6427</name></trkpt>
<trkpt lat="53.330918" lon="06.577401"><ele>-1.4</ele><time>2021-05-20T12:09:56Z</time><name>PT6428</name></trkpt>
<trkpt lat="53.330930" lon="06.577403"><ele>-1.4</ele><time>2021-05-20T12:09:57Z</time><name>PT6429</name></trkpt>
<trkpt lat="53.330945" lon="06.577406"><ele>-1.6</ele><time>2021-05-20T12:09:58Z</time><name>PT6430</name></trkpt>
<trkpt lat="53.330958" lon="06.577408"><ele>-1.5</ele><time>2021-05-20T12:09:59Z</time><name>PT6431</name></trkpt>
<trkpt lat="53.330966" lon="06.577407"><ele>-1.4</ele><time>2021-05-20T12:10:00Z</time><name>PT6432</name></trkpt>
<trkpt lat="53.330972" lon="06.577403"><ele>-1.5</ele><time>2021-05-20T12:10:01Z</time><name>PT6433</name></trkpt>
<trkpt lat="53.330977" lon="06.577403"><ele>-1.3</ele><time>2021-05-20T12:10:02Z</time><name>PT6434</name></trkpt>
<trkpt lat="53.330986" lon="06.577406"><ele>-1.3</ele><time>2021-05-20T12:10:03Z</time><name>PT6435</name></trkpt>
<trkpt lat="53.331001" lon="06.577407"><ele>-1.2</ele><time>2021-05-20T12:10:04Z</time><name>PT6436</name></trkpt>
<trkpt lat="53.331016" lon="06.577407"><ele>-1.4</ele><time>2021-05-20T12:10:05Z</time><name>PT6437</name></trkpt>
<trkpt lat="53.331027" lon="06.577408"><ele>-1.4</ele><time>2021-05-20T12:10:06Z</time><name>PT6438</name></trkpt>
<trkpt lat="53.331034" lon="06.577408"><ele>-1.4</ele><time>2021-05-20T12:10:07Z</time><name>PT6439</name></trkpt>
<trkpt lat="53.331042" lon="06.577406"><ele>-1.3</ele><time>2021-05-20T12:10:08Z</time><name>PT6440</name></trkpt>
<trkpt lat="53.331049" lon="06.577407"><ele>-1.3</ele><time>2021-05-20T12:10:09Z</time><name>PT6441</name></trkpt>
<trkpt lat="53.331060" lon="06.577410"><ele>-1.2</ele><time>2021-05-20T12:10:10Z</time><name>PT6442</name></trkpt>
<trkpt lat="53.331072" lon="06.577412"><ele>-1.1</ele><time>2021-05-20T12:10:11Z</time><name>PT6443</name></trkpt>
<trkpt lat="53.331080" lon="06.577412"><ele>-1.2</ele><time>2021-05-20T12:10:12Z</time><name>PT6444</name></trkpt>
<trkpt lat="53.331084" lon="06.577410"><ele>-1.2</ele><time>2021-05-20T12:10:13Z</time><name>PT6445</name></trkpt>
<trkpt lat="53.331089" lon="06.577410"><ele>-1.2</ele><time>2021-05-20T12:10:14Z</time><name>PT6446</name></trkpt>
<trkpt lat="53.331099" lon="06.577410"><ele>-1.2</ele><time>2021-05-20T12:10:15Z</time><name>PT6447</name></trkpt>
<trkpt lat="53.331114" lon="06.577412"><ele>-1.4</ele><time>2021-05-20T12:10:16Z</time><name>PT6448</name></trkpt>
<trkpt lat="53.331129" lon="06.577416"><ele>-1.4</ele><time>2021-05-20T12:10:17Z</time><name>PT6449</name></trkpt>
<trkpt lat="53.331138" lon="06.577414"><ele>-1.5</ele><time>2021-05-20T12:10:18Z</time><name>PT6450</name></trkpt>
<trkpt lat="53.331145" lon="06.577413"><ele>-1.6</ele><time>2021-05-20T12:10:19Z</time><name>PT6451</name></trkpt>
<trkpt lat="53.331151" lon="06.577417"><ele>-1.6</ele><time>2021-05-20T12:10:20Z</time><name>PT6452</name></trkpt>
<trkpt lat="53.331160" lon="06.577421"><ele>-1.4</ele><time>2021-05-20T12:10:21Z</time><name>PT6453</name></trkpt>
<trkpt lat="53.331172" lon="06.577419"><ele>-1.4</ele><time>2021-05-20T12:10:22Z</time><name>PT6454</name></trkpt>
<trkpt lat="53.331180" lon="06.577415"><ele>-1.3</ele><time>2021-05-20T12:10:23Z</time><name>PT6455</name></trkpt>
<trkpt lat="53.331185" lon="06.577413"><ele>-1.2</ele><time>2021-05-20T12:10:24Z</time><name>PT6456</name></trkpt>
<trkpt lat="53.331190" lon="06.577413"><ele>-1.2</ele><time>2021-05-20T12:10:25Z</time><name>PT6457</name></trkpt>
<trkpt lat="53.331199" lon="06.577419"><ele>-1.2</ele><time>2021-05-20T12:10:26Z</time><name>PT6458</name></trkpt>
<trkpt lat="53.331213" lon="06.577424"><ele>-1.2</ele><time>2021-05-20T12:10:27Z</time><name>PT6459</name></trkpt>
<trkpt lat="53.331224" lon="06.577428"><ele>-1.2</ele><time>2021-05-20T12:10:28Z</time><name>PT6460</name></trkpt>
<trkpt lat="53.331232" lon="06.577427"><ele>-1.2</ele><time>2021-05-20T12:10:29Z</time><name>PT6461</name></trkpt>
<trkpt lat="53.331237" lon="06.577428"><ele>-1.3</ele><time>2021-05-20T12:10:30Z</time><name>PT6462</name></trkpt>
<trkpt lat="53.331246" lon="06.577431"><ele>-1.2</ele><time>2021-05-20T12:10:31Z</time><name>PT6463</name></trkpt>
<trkpt lat="53.331259" lon="06.577436"><ele>-1.2</ele><time>2021-05-20T12:10:32Z</time><name>PT6464</name></trkpt>
<trkpt lat="53.331269" lon="06.577438"><ele>-1.2</ele><time>2021-05-20T12:10:33Z</time><name>PT6465</name></trkpt>
<trkpt lat="53.331274" lon="06.577439"><ele>-1</ele><time>2021-05-20T12:10:34Z</time><name>PT6466</name></trkpt>
<trkpt lat="53.331277" lon="06.577442"><ele>-1</ele><time>2021-05-20T12:10:35Z</time><name>PT6467</name></trkpt>
<trkpt lat="53.331284" lon="06.577451"><ele>0.8</ele><time>2021-05-20T12:10:36Z</time><name>PT6468</name></trkpt>
<trkpt lat="53.331290" lon="06.577459"><ele>0.7</ele><time>2021-05-20T12:10:37Z</time><name>PT6469</name></trkpt>
<trkpt lat="53.331291" lon="06.577463"><ele>0.7</ele><time>2021-05-20T12:10:38Z</time><name>PT6470</name></trkpt>
<trkpt lat="53.331291" lon="06.577469"><ele>0.7</ele><time>2021-05-20T12:10:39Z</time><name>PT6471</name></trkpt>
<trkpt lat="53.331290" lon="06.577486"><ele>0.6</ele><time>2021-05-20T12:10:40Z</time><name>PT6472</name></trkpt>
<trkpt lat="53.331290" lon="06.577512"><ele>0.7</ele><time>2021-05-20T12:10:41Z</time><name>PT6473</name></trkpt>
<trkpt lat="53.331291" lon="06.577534"><ele>0.8</ele><time>2021-05-20T12:10:42Z</time><name>PT6474</name></trkpt>
<trkpt lat="53.331293" lon="06.577551"><ele>0.7</ele><time>2021-05-20T12:10:43Z</time><name>PT6475</name></trkpt>
<trkpt lat="53.331294" lon="06.577563"><ele>0.7</ele><time>2021-05-20T12:10:44Z</time><name>PT6476</name></trkpt>
<trkpt lat="53.331296" lon="06.577575"><ele>0.7</ele><time>2021-05-20T12:10:45Z</time><name>PT6477</name></trkpt>
<trkpt lat="53.331298" lon="06.577590"><ele>0.7</ele><time>2021-05-20T12:10:46Z</time><name>PT6478</name></trkpt>
<trkpt lat="53.331303" lon="06.577611"><ele>0.7</ele><time>2021-05-20T12:10:47Z</time><name>PT6479</name></trkpt>
<trkpt lat="53.331310" lon="06.577631"><ele>0.7</ele><time>2021-05-20T12:10:48Z</time><name>PT6480</name></trkpt>
<trkpt lat="53.331316" lon="06.577642"><ele>0.9</ele><time>2021-05-20T12:10:49Z</time><name>PT6481</name></trkpt>
<trkpt lat="53.331323" lon="06.577653"><ele>-1.1</ele><time>2021-05-20T12:10:50Z</time><name>PT6482</name></trkpt>
<trkpt lat="53.331329" lon="06.577662"><ele>-1</ele><time>2021-05-20T12:10:51Z</time><name>PT6483</name></trkpt>
<trkpt lat="53.331335" lon="06.577668"><ele>-1.2</ele><time>2021-05-20T12:10:52Z</time><name>PT6484</name></trkpt>
<trkpt lat="53.331346" lon="06.577681"><ele>-1.2</ele><time>2021-05-20T12:10:53Z</time><name>PT6485</name></trkpt>
<trkpt lat="53.331360" lon="06.577688"><ele>-1.2</ele><time>2021-05-20T12:10:54Z</time><name>PT6486</name></trkpt>
<trkpt lat="53.331372" lon="06.577688"><ele>-1.2</ele><time>2021-05-20T12:10:55Z</time><name>PT6487</name></trkpt>
<trkpt lat="53.331381" lon="06.577687"><ele>-1.1</ele><time>2021-05-20T12:10:56Z</time><name>PT6488</name></trkpt>
<trkpt lat="53.331389" lon="06.577681"><ele>0.8</ele><time>2021-05-20T12:10:57Z</time><name>PT6489</name></trkpt>
<trkpt lat="53.331398" lon="06.577681"><ele>0.5</ele><time>2021-05-20T12:10:58Z</time><name>PT6490</name></trkpt>
<trkpt lat="53.331411" lon="06.577686"><ele>0.4</ele><time>2021-05-20T12:10:59Z</time><name>PT6491</name></trkpt>
<trkpt lat="53.331424" lon="06.577690"><ele>0.5</ele><time>2021-05-20T12:11:00Z</time><name>PT6492</name></trkpt>
<trkpt lat="53.331433" lon="06.577692"><ele>0.8</ele><time>2021-05-20T12:11:01Z</time><name>PT6493</name></trkpt>
<trkpt lat="53.331439" lon="06.577689"><ele>-1.1</ele><time>2021-05-20T12:11:02Z</time><name>PT6494</name></trkpt>
<trkpt lat="53.331446" lon="06.577690"><ele>-1.2</ele><time>2021-05-20T12:11:03Z</time><name>PT6495</name></trkpt>
<trkpt lat="53.331454" lon="06.577695"><ele>-1.2</ele><time>2021-05-20T12:11:04Z</time><name>PT6496</name></trkpt>
<trkpt lat="53.331467" lon="06.577703"><ele>-1.2</ele><time>2021-05-20T12:11:05Z</time><name>PT6497</name></trkpt>
<trkpt lat="53.331485" lon="06.577710"><ele>-1.2</ele><time>2021-05-20T12:11:06Z</time><name>PT6498</name></trkpt>
<trkpt lat="53.331501" lon="06.577713"><ele>-1.2</ele><time>2021-05-20T12:11:07Z</time><name>PT6499</name></trkpt>
<trkpt lat="53.331512" lon="06.577712"><ele>0.9</ele><time>2021-05-20T12:11:08Z</time><name>PT6500</name></trkpt>
<trkpt lat="53.331519" lon="06.577709"><ele>-1</ele><time>2021-05-20T12:11:09Z</time><name>PT6501</name></trkpt>
<trkpt lat="53.331525" lon="06.577709"><ele>-1</ele><time>2021-05-20T12:11:10Z</time><name>PT6502</name></trkpt>
<trkpt lat="53.331533" lon="06.577709"><ele>-1</ele><time>2021-05-20T12:11:11Z</time><name>PT6503</name></trkpt>
<trkpt lat="53.331545" lon="06.577711"><ele>-1</ele><time>2021-05-20T12:11:12Z</time><name>PT6504</name></trkpt>
<trkpt lat="53.331562" lon="06.577715"><ele>-1</ele><time>2021-05-20T12:11:13Z</time><name>PT6505</name></trkpt>
<trkpt lat="53.331582" lon="06.577721"><ele>0.9</ele><time>2021-05-20T12:11:14Z</time><name>PT6506</name></trkpt>
<trkpt lat="53.331598" lon="06.577724"><ele>-1</ele><time>2021-05-20T12:11:15Z</time><name>PT6507</name></trkpt>
<trkpt lat="53.331611" lon="06.577723"><ele>0.9</ele><time>2021-05-20T12:11:16Z</time><name>PT6508</name></trkpt>
<trkpt lat="53.331621" lon="06.577721"><ele>-1</ele><time>2021-05-20T12:11:17Z</time><name>PT6509</name></trkpt>
<trkpt lat="53.331626" lon="06.577720"><ele>-1</ele><time>2021-05-20T12:11:18Z</time><name>PT6510</name></trkpt>
<trkpt lat="53.331631" lon="06.577724"><ele>-1</ele><time>2021-05-20T12:11:19Z</time><name>PT6511</name></trkpt>
<trkpt lat="53.331637" lon="06.577733"><ele>-1.1</ele><time>2021-05-20T12:11:20Z</time><name>PT6512</name></trkpt>
<trkpt lat="53.331650" lon="06.577734"><ele>-1</ele><time>2021-05-20T12:11:21Z</time><name>PT6513</name></trkpt>
<trkpt lat="53.331662" lon="06.577731"><ele>0.8</ele><time>2021-05-20T12:11:22Z</time><name>PT6514</name></trkpt>
<trkpt lat="53.331670" lon="06.577729"><ele>0.8</ele><time>2021-05-20T12:11:23Z</time><name>PT6515</name></trkpt>
<trkpt lat="53.331676" lon="06.577727"><ele>0.7</ele><time>2021-05-20T12:11:24Z</time><name>PT6516</name></trkpt>
<trkpt lat="53.331682" lon="06.577728"><ele>0.8</ele><time>2021-05-20T12:11:25Z</time><name>PT6517</name></trkpt>
<trkpt lat="53.331689" lon="06.577731"><ele>0.8</ele><time>2021-05-20T12:11:26Z</time><name>PT6518</name></trkpt>
<trkpt lat="53.331702" lon="06.577737"><ele>0.8</ele><time>2021-05-20T12:11:27Z</time><name>PT6519</name></trkpt>
<trkpt lat="53.331717" lon="06.577745"><ele>0.8</ele><time>2021-05-20T12:11:28Z</time><name>PT6520</name></trkpt>
<trkpt lat="53.331727" lon="06.577749"><ele>0.8</ele><time>2021-05-20T12:11:29Z</time><name>PT6521</name></trkpt>
<trkpt lat="53.331733" lon="06.577748"><ele>0.8</ele><time>2021-05-20T12:11:30Z</time><name>PT6522</name></trkpt>
<trkpt lat="53.331737" lon="06.577750"><ele>0.7</ele><time>2021-05-20T12:11:31Z</time><name>PT6523</name></trkpt>
<trkpt lat="53.331746" lon="06.577755"><ele>0.7</ele><time>2021-05-20T12:11:32Z</time><name>PT6524</name></trkpt>
<trkpt lat="53.331761" lon="06.577763"><ele>0.8</ele><time>2021-05-20T12:11:33Z</time><name>PT6525</name></trkpt>
<trkpt lat="53.331774" lon="06.577769"><ele>0.8</ele><time>2021-05-20T12:11:34Z</time><name>PT6526</name></trkpt>
<trkpt lat="53.331781" lon="06.577770"><ele>-1</ele><time>2021-05-20T12:11:35Z</time><name>PT6527</name></trkpt>
<trkpt lat="53.331789" lon="06.577770"><ele>-1.1</ele><time>2021-05-20T12:11:36Z</time><name>PT6528</name></trkpt>
<trkpt lat="53.331795" lon="06.577772"><ele>-1.1</ele><time>2021-05-20T12:11:37Z</time><name>PT6529</name></trkpt>
<trkpt lat="53.331806" lon="06.577778"><ele>-1.2</ele><time>2021-05-20T12:11:38Z</time><name>PT6530</name></trkpt>
<trkpt lat="53.331814" lon="06.577780"><ele>-1</ele><time>2021-05-20T12:11:39Z</time><name>PT6531</name></trkpt>
<trkpt lat="53.331818" lon="06.577781"><ele>0.8</ele><time>2021-05-20T12:11:40Z</time><name>PT6532</name></trkpt>
<trkpt lat="53.331820" lon="06.577779"><ele>0.9</ele><time>2021-05-20T12:11:41Z</time><name>PT6533</name></trkpt>
<trkpt lat="53.331820" lon="06.577776"><ele>0.7</ele><time>2021-05-20T12:11:42Z</time><name>PT6534</name></trkpt>
<trkpt lat="53.331823" lon="06.577772"><ele>0.8</ele><time>2021-05-20T12:11:43Z</time><name>PT6535</name></trkpt>
<trkpt lat="53.331823" lon="06.577774"><ele>-1</ele><time>2021-05-20T12:11:44Z</time><name>PT6536</name></trkpt>
<trkpt lat="53.331822" lon="06.577770"><ele>0.9</ele><time>2021-05-20T12:11:45Z</time><name>PT6537</name></trkpt>
<trkpt lat="53.331827" lon="06.577764"><ele>0.7</ele><time>2021-05-20T12:11:46Z</time><name>PT6538</name></trkpt>
<trkpt lat="53.331837" lon="06.577767"><ele>0.7</ele><time>2021-05-20T12:11:47Z</time><name>PT6539</name></trkpt>
<trkpt lat="53.331846" lon="06.577770"><ele>0.6</ele><time>2021-05-20T12:11:48Z</time><name>PT6540</name></trkpt>
<trkpt lat="53.331850" lon="06.577771"><ele>0.7</ele><time>2021-05-20T12:11:49Z</time><name>PT6541</name></trkpt>
<trkpt lat="53.331851" lon="06.577771"><ele>-1</ele><time>2021-05-20T12:11:50Z</time><name>PT6542</name></trkpt>
<trkpt lat="53.331852" lon="06.577772"><ele>-1.2</ele><time>2021-05-20T12:11:51Z</time><name>PT6543</name></trkpt>
<trkpt lat="53.331853" lon="06.577773"><ele>-1.2</ele><time>2021-05-20T12:11:55Z</time><name>PT6544</name></trkpt>
<trkpt lat="53.331862" lon="06.577777"><ele>0.9</ele><time>2021-05-20T12:11:56Z</time><name>PT6545</name></trkpt>
<trkpt lat="53.331870" lon="06.577785"><ele>0.8</ele><time>2021-05-20T12:11:57Z</time><name>PT6546</name></trkpt>
<trkpt lat="53.331872" lon="06.577789"><ele>0.7</ele><time>2021-05-20T12:11:58Z</time><name>PT6547</name></trkpt>
<trkpt lat="53.331873" lon="06.577792"><ele>0.7</ele><time>2021-05-20T12:11:59Z</time><name>PT6548</name></trkpt>
<trkpt lat="53.331873" lon="06.577792"><ele>0.7</ele><time>2021-05-20T12:12:00Z</time><name>PT6549</name></trkpt>
<trkpt lat="53.331872" lon="06.577797"><ele>-1</ele><time>2021-05-20T12:12:04Z</time><name>PT6550</name></trkpt>
<trkpt lat="53.331875" lon="06.577798"><ele>-1</ele><time>2021-05-20T12:12:05Z</time><name>PT6551</name></trkpt>
<trkpt lat="53.331881" lon="06.577801"><ele>-1.2</ele><time>2021-05-20T12:12:06Z</time><name>PT6552</name></trkpt>
<trkpt lat="53.331887" lon="06.577806"><ele>-1.2</ele><time>2021-05-20T12:12:07Z</time><name>PT6553</name></trkpt>
<trkpt lat="53.331891" lon="06.577808"><ele>-1.3</ele><time>2021-05-20T12:12:08Z</time><name>PT6554</name></trkpt>
<trkpt lat="53.331893" lon="06.577807"><ele>-1.5</ele><time>2021-05-20T12:12:10Z</time><name>PT6555</name></trkpt>
<trkpt lat="53.331894" lon="06.577806"><ele>-1.6</ele><time>2021-05-20T12:12:10Z</time><name>PT6556</name></trkpt>
<trkpt lat="53.331894" lon="06.577806"><ele>-1.6</ele><time>2021-05-20T12:12:11Z</time><name>PT6557</name></trkpt>
<trkpt lat="53.331899" lon="06.577808"><ele>-1.4</ele><time>2021-05-20T12:12:16Z</time><name>PT6558</name></trkpt>
<trkpt lat="53.331907" lon="06.577814"><ele>-1.3</ele><time>2021-05-20T12:12:17Z</time><name>PT6559</name></trkpt>
<trkpt lat="53.331915" lon="06.577813"><ele>-1.4</ele><time>2021-05-20T12:12:18Z</time><name>PT6560</name></trkpt>
<trkpt lat="53.331926" lon="06.577816"><ele>-1.3</ele><time>2021-05-20T12:12:19Z</time><name>PT6561</name></trkpt>
<trkpt lat="53.331939" lon="06.577818"><ele>-1</ele><time>2021-05-20T12:12:20Z</time><name>PT6562</name></trkpt>
<trkpt lat="53.331949" lon="06.577818"><ele>-1</ele><time>2021-05-20T12:12:21Z</time><name>PT6563</name></trkpt>
<trkpt lat="53.331956" lon="06.577816"><ele>-1</ele><time>2021-05-20T12:12:22Z</time><name>PT6564</name></trkpt>
<trkpt lat="53.331965" lon="06.577820"><ele>-1</ele><time>2021-05-20T12:12:23Z</time><name>PT6565</name></trkpt>
<trkpt lat="53.331976" lon="06.577824"><ele>-1.1</ele><time>2021-05-20T12:12:24Z</time><name>PT6566</name></trkpt>
<trkpt lat="53.331987" lon="06.577830"><ele>-1.2</ele><time>2021-05-20T12:12:25Z</time><name>PT6567</name></trkpt>
<trkpt lat="53.332004" lon="06.577833"><ele>-1.2</ele><time>2021-05-20T12:12:26Z</time><name>PT6568</name></trkpt>
<trkpt lat="53.332022" lon="06.577839"><ele>-1.3</ele><time>2021-05-20T12:12:27Z</time><name>PT6569</name></trkpt>
<trkpt lat="53.332036" lon="06.577836"><ele>-1.3</ele><time>2021-05-20T12:12:28Z</time><name>PT6570</name></trkpt>
<trkpt lat="53.332047" lon="06.577836"><ele>-1.2</ele><time>2021-05-20T12:12:29Z</time><name>PT6571</name></trkpt>
<trkpt lat="53.332057" lon="06.577835"><ele>-1.2</ele><time>2021-05-20T12:12:30Z</time><name>PT6572</name></trkpt>
<trkpt lat="53.332064" lon="06.577835"><ele>-1.2</ele><time>2021-05-20T12:12:31Z</time><name>PT6573</name></trkpt>
<trkpt lat="53.332073" lon="06.577835"><ele>-1</ele><time>2021-05-20T12:12:32Z</time><name>PT6574</name></trkpt>
<trkpt lat="53.332083" lon="06.577840"><ele>-1.1</ele><time>2021-05-20T12:12:33Z</time><name>PT6575</name></trkpt>
<trkpt lat="53.332096" lon="06.577848"><ele>-1.1</ele><time>2021-05-20T12:12:34Z</time><name>PT6576</name></trkpt>
<trkpt lat="53.332110" lon="06.577853"><ele>-1.2</ele><time>2021-05-20T12:12:35Z</time><name>PT6577</name></trkpt>
<trkpt lat="53.332121" lon="06.577855"><ele>-1.2</ele><time>2021-05-20T12:12:36Z</time><name>PT6578</name></trkpt>
<trkpt lat="53.332128" lon="06.577855"><ele>-1.2</ele><time>2021-05-20T12:12:37Z</time><name>PT6579</name></trkpt>
<trkpt lat="53.332130" lon="06.577854"><ele>-1.2</ele><time>2021-05-20T12:12:38Z</time><name>PT6580</name></trkpt>
<trkpt lat="53.332134" lon="06.577855"><ele>-1.2</ele><time>2021-05-20T12:12:39Z</time><name>PT6581</name></trkpt>
<trkpt lat="53.332140" lon="06.577856"><ele>-1.2</ele><time>2021-05-20T12:12:40Z</time><name>PT6582</name></trkpt>
<trkpt lat="53.332149" lon="06.577857"><ele>-1.2</ele><time>2021-05-20T12:12:41Z</time><name>PT6583</name></trkpt>
<trkpt lat="53.332163" lon="06.577860"><ele>-1.2</ele><time>2021-05-20T12:12:42Z</time><name>PT6584</name></trkpt>
<trkpt lat="53.332180" lon="06.577864"><ele>-1.2</ele><time>2021-05-20T12:12:43Z</time><name>PT6585</name></trkpt>
<trkpt lat="53.332194" lon="06.577867"><ele>-1.2</ele><time>2021-05-20T12:12:44Z</time><name>PT6586</name></trkpt>
<trkpt lat="53.332206" lon="06.577866"><ele>-1.2</ele><time>2021-05-20T12:12:45Z</time><name>PT6587</name></trkpt>
<trkpt lat="53.332216" lon="06.577865"><ele>-1.1</ele><time>2021-05-20T12:12:46Z</time><name>PT6588</name></trkpt>
<trkpt lat="53.332224" lon="06.577863"><ele>-1.1</ele><time>2021-05-20T12:12:47Z</time><name>PT6589</name></trkpt>
<trkpt lat="53.332233" lon="06.577861"><ele>-1</ele><time>2021-05-20T12:12:48Z</time><name>PT6590</name></trkpt>
<trkpt lat="53.332241" lon="06.577863"><ele>-1</ele><time>2021-05-20T12:12:49Z</time><name>PT6591</name></trkpt>
<trkpt lat="53.332250" lon="06.577867"><ele>-1</ele><time>2021-05-20T12:12:50Z</time><name>PT6592</name></trkpt>
<trkpt lat="53.332263" lon="06.577871"><ele>0.9</ele><time>2021-05-20T12:12:51Z</time><name>PT6593</name></trkpt>
<trkpt lat="53.332278" lon="06.577876"><ele>-1</ele><time>2021-05-20T12:12:52Z</time><name>PT6594</name></trkpt>
<trkpt lat="53.332292" lon="06.577879"><ele>0.9</ele><time>2021-05-20T12:12:53Z</time><name>PT6595</name></trkpt>
<trkpt lat="53.332304" lon="06.577880"><ele>-1</ele><time>2021-05-20T12:12:55Z</time><name>PT6596</name></trkpt>
<trkpt lat="53.332312" lon="06.577878"><ele>0.9</ele><time>2021-05-20T12:12:55Z</time><name>PT6597</name></trkpt>
<trkpt lat="53.332318" lon="06.577879"><ele>-1.1</ele><time>2021-05-20T12:12:56Z</time><name>PT6598</name></trkpt>
<trkpt lat="53.332326" lon="06.577882"><ele>-1</ele><time>2021-05-20T12:12:57Z</time><name>PT6599</name></trkpt>
<trkpt lat="53.332334" lon="06.577887"><ele>-1</ele><time>2021-05-20T12:12:58Z</time><name>PT6600</name></trkpt>
<trkpt lat="53.332349" lon="06.577896"><ele>-1</ele><time>2021-05-20T12:12:59Z</time><name>PT6601</name></trkpt>
<trkpt lat="53.332365" lon="06.577908"><ele>-1.1</ele><time>2021-05-20T12:13:00Z</time><name>PT6602</name></trkpt>
<trkpt lat="53.332382" lon="06.577917"><ele>-1.2</ele><time>2021-05-20T12:13:01Z</time><name>PT6603</name></trkpt>
<trkpt lat="53.332400" lon="06.577921"><ele>-1.3</ele><time>2021-05-20T12:13:02Z</time><name>PT6604</name></trkpt>
<trkpt lat="53.332416" lon="06.577922"><ele>-1.6</ele><time>2021-05-20T12:13:03Z</time><name>PT6605</name></trkpt>
<trkpt lat="53.332428" lon="06.577920"><ele>-1.7</ele><time>2021-05-20T12:13:04Z</time><name>PT6606</name></trkpt>
<trkpt lat="53.332437" lon="06.577918"><ele>-1.6</ele><time>2021-05-20T12:13:05Z</time><name>PT6607</name></trkpt>
<trkpt lat="53.332446" lon="06.577918"><ele>-1.5</ele><time>2021-05-20T12:13:06Z</time><name>PT6608</name></trkpt>
<trkpt lat="53.332455" lon="06.577922"><ele>-1.3</ele><time>2021-05-20T12:13:07Z</time><name>PT6609</name></trkpt>
<trkpt lat="53.332466" lon="06.577929"><ele>-1.3</ele><time>2021-05-20T12:13:08Z</time><name>PT6610</name></trkpt>
<trkpt lat="53.332477" lon="06.577934"><ele>-1.3</ele><time>2021-05-20T12:13:09Z</time><name>PT6611</name></trkpt>
<trkpt lat="53.332490" lon="06.577938"><ele>-1.3</ele><time>2021-05-20T12:13:10Z</time><name>PT6612</name></trkpt>
<trkpt lat="53.332507" lon="06.577942"><ele>-1.2</ele><time>2021-05-20T12:13:11Z</time><name>PT6613</name></trkpt>
<trkpt lat="53.332521" lon="06.577946"><ele>-1.2</ele><time>2021-05-20T12:13:12Z</time><name>PT6614</name></trkpt>
<trkpt lat="53.332532" lon="06.577949"><ele>-1.2</ele><time>2021-05-20T12:13:13Z</time><name>PT6615</name></trkpt>
<trkpt lat="53.332541" lon="06.577950"><ele>-1.1</ele><time>2021-05-20T12:13:15Z</time><name>PT6616</name></trkpt>
<trkpt lat="53.332547" lon="06.577950"><ele>-1.2</ele><time>2021-05-20T12:13:15Z</time><name>PT6617</name></trkpt>
<trkpt lat="53.332555" lon="06.577951"><ele>-1.1</ele><time>2021-05-20T12:13:16Z</time><name>PT6618</name></trkpt>
<trkpt lat="53.332566" lon="06.577950"><ele>-1</ele><time>2021-05-20T12:13:17Z</time><name>PT6619</name></trkpt>
<trkpt lat="53.332579" lon="06.577953"><ele>0.9</ele><time>2021-05-20T12:13:18Z</time><name>PT6620</name></trkpt>
<trkpt lat="53.332593" lon="06.577959"><ele>-1</ele><time>2021-05-20T12:13:19Z</time><name>PT6621</name></trkpt>
<trkpt lat="53.332611" lon="06.577965"><ele>-1.2</ele><time>2021-05-20T12:13:20Z</time><name>PT6622</name></trkpt>
<trkpt lat="53.332626" lon="06.577970"><ele>-1.2</ele><time>2021-05-20T12:13:21Z</time><name>PT6623</name></trkpt>
<trkpt lat="53.332638" lon="06.577972"><ele>-1.2</ele><time>2021-05-20T12:13:22Z</time><name>PT6624</name></trkpt>
<trkpt lat="53.332648" lon="06.577971"><ele>-1.2</ele><time>2021-05-20T12:13:23Z</time><name>PT6625</name></trkpt>
<trkpt lat="53.332655" lon="06.577972"><ele>-1.2</ele><time>2021-05-20T12:13:24Z</time><name>PT6626</name></trkpt>
<trkpt lat="53.332664" lon="06.577974"><ele>-1.2</ele><time>2021-05-20T12:13:25Z</time><name>PT6627</name></trkpt>
<trkpt lat="53.332674" lon="06.577976"><ele>-1.2</ele><time>2021-05-20T12:13:26Z</time><name>PT6628</name></trkpt>
<trkpt lat="53.332685" lon="06.577987"><ele>-1.2</ele><time>2021-05-20T12:13:27Z</time><name>PT6629</name></trkpt>
<trkpt lat="53.332698" lon="06.577994"><ele>-1.2</ele><time>2021-05-20T12:13:28Z</time><name>PT6630</name></trkpt>
<trkpt lat="53.332712" lon="06.577997"><ele>-1.2</ele><time>2021-05-20T12:13:30Z</time><name>PT6631</name></trkpt>
<trkpt lat="53.332725" lon="06.578000"><ele>-1.2</ele><time>2021-05-20T12:13:30Z</time><name>PT6632</name></trkpt>
<trkpt lat="53.332736" lon="06.578003"><ele>-1.2</ele><time>2021-05-20T12:13:31Z</time><name>PT6633</name></trkpt>
<trkpt lat="53.332746" lon="06.578003"><ele>-1.2</ele><time>2021-05-20T12:13:32Z</time><name>PT6634</name></trkpt>
<trkpt lat="53.332754" lon="06.578002"><ele>-1.2</ele><time>2021-05-20T12:13:33Z</time><name>PT6635</name></trkpt>
<trkpt lat="53.332762" lon="06.578001"><ele>-1.1</ele><time>2021-05-20T12:13:34Z</time><name>PT6636</name></trkpt>
<trkpt lat="53.332770" lon="06.578001"><ele>0.9</ele><time>2021-05-20T12:13:35Z</time><name>PT6637</name></trkpt>
<trkpt lat="53.332780" lon="06.578005"><ele>-1.1</ele><time>2021-05-20T12:13:36Z</time><name>PT6638</name></trkpt>
<trkpt lat="53.332792" lon="06.578010"><ele>-1.1</ele><time>2021-05-20T12:13:37Z</time><name>PT6639</name></trkpt>
<trkpt lat="53.332808" lon="06.578014"><ele>-1.1</ele><time>2021-05-20T12:13:38Z</time><name>PT6640</name></trkpt>
<trkpt lat="53.332822" lon="06.578018"><ele>-1.2</ele><time>2021-05-20T12:13:39Z</time><name>PT6641</name></trkpt>
<trkpt lat="53.332834" lon="06.578020"><ele>-1.1</ele><time>2021-05-20T12:13:40Z</time><name>PT6642</name></trkpt>
<trkpt lat="53.332843" lon="06.578018"><ele>-1.2</ele><time>2021-05-20T12:13:41Z</time><name>PT6643</name></trkpt>
<trkpt lat="53.332851" lon="06.578014"><ele>-1.2</ele><time>2021-05-20T12:13:42Z</time><name>PT6644</name></trkpt>
<trkpt lat="53.332859" lon="06.578012"><ele>-1.2</ele><time>2021-05-20T12:13:43Z</time><name>PT6645</name></trkpt>
<trkpt lat="53.332866" lon="06.578016"><ele>-1.2</ele><time>2021-05-20T12:13:44Z</time><name>PT6646</name></trkpt>
<trkpt lat="53.332874" lon="06.578021"><ele>-1</ele><time>2021-05-20T12:13:45Z</time><name>PT6647</name></trkpt>
<trkpt lat="53.332888" lon="06.578028"><ele>0.9</ele><time>2021-05-20T12:13:46Z</time><name>PT6648</name></trkpt>
<trkpt lat="53.332906" lon="06.578041"><ele>0.9</ele><time>2021-05-20T12:13:47Z</time><name>PT6649</name></trkpt>
<trkpt lat="53.332919" lon="06.578057"><ele>0.9</ele><time>2021-05-20T12:13:48Z</time><name>PT6650</name></trkpt>
<trkpt lat="53.332931" lon="06.578069"><ele>0.9</ele><time>2021-05-20T12:13:49Z</time><name>PT6651</name></trkpt>
<trkpt lat="53.332941" lon="06.578077"><ele>-1.1</ele><time>2021-05-20T12:13:50Z</time><name>PT6652</name></trkpt>
<trkpt lat="53.332951" lon="06.578082"><ele>-1.2</ele><time>2021-05-20T12:13:51Z</time><name>PT6653</name></trkpt>
<trkpt lat="53.332958" lon="06.578092"><ele>-1.2</ele><time>2021-05-20T12:13:52Z</time><name>PT6654</name></trkpt>
<trkpt lat="53.332964" lon="06.578102"><ele>0.9</ele><time>2021-05-20T12:13:53Z</time><name>PT6655</name></trkpt>
<trkpt lat="53.332966" lon="06.578118"><ele>-1</ele><time>2021-05-20T12:13:54Z</time><name>PT6656</name></trkpt>
<trkpt lat="53.332971" lon="06.578135"><ele>0.7</ele><time>2021-05-20T12:13:55Z</time><name>PT6657</name></trkpt>
<trkpt lat="53.332972" lon="06.578157"><ele>0.7</ele><time>2021-05-20T12:13:56Z</time><name>PT6658</name></trkpt>
<trkpt lat="53.332974" lon="06.578178"><ele>0.7</ele><time>2021-05-20T12:13:57Z</time><name>PT6659</name></trkpt>
<trkpt lat="53.332975" lon="06.578200"><ele>0.7</ele><time>2021-05-20T12:13:58Z</time><name>PT6660</name></trkpt>
<trkpt lat="53.332975" lon="06.578212"><ele>0.5</ele><time>2021-05-20T12:13:59Z</time><name>PT6661</name></trkpt>
<trkpt lat="53.332974" lon="06.578224"><ele>0.4</ele><time>2021-05-20T12:14:00Z</time><name>PT6662</name></trkpt>
<trkpt lat="53.332974" lon="06.578236"><ele>0.6</ele><time>2021-05-20T12:14:01Z</time><name>PT6663</name></trkpt>
<trkpt lat="53.332975" lon="06.578250"><ele>0.7</ele><time>2021-05-20T12:14:02Z</time><name>PT6664</name></trkpt>
<trkpt lat="53.332975" lon="06.578262"><ele>0.7</ele><time>2021-05-20T12:14:03Z</time><name>PT6665</name></trkpt>
<trkpt lat="53.332974" lon="06.578273"><ele>-1</ele><time>2021-05-20T12:14:04Z</time><name>PT6666</name></trkpt>
<trkpt lat="53.332975" lon="06.578293"><ele>-1</ele><time>2021-05-20T12:14:05Z</time><name>PT6667</name></trkpt>
<trkpt lat="53.332975" lon="06.578317"><ele>-1</ele><time>2021-05-20T12:14:06Z</time><name>PT6668</name></trkpt>
<trkpt lat="53.332974" lon="06.578339"><ele>0.9</ele><time>2021-05-20T12:14:07Z</time><name>PT6669</name></trkpt>
<trkpt lat="53.332974" lon="06.578362"><ele>0.9</ele><time>2021-05-20T12:14:08Z</time><name>PT6670</name></trkpt>
<trkpt lat="53.332978" lon="06.578384"><ele>0.8</ele><time>2021-05-20T12:14:09Z</time><name>PT6671</name></trkpt>
<trkpt lat="53.332981" lon="06.578398"><ele>0.8</ele><time>2021-05-20T12:14:10Z</time><name>PT6672</name></trkpt>
<trkpt lat="53.332985" lon="06.578408"><ele>0.7</ele><time>2021-05-20T12:14:11Z</time><name>PT6673</name></trkpt>
<trkpt lat="53.332985" lon="06.578421"><ele>0.8</ele><time>2021-05-20T12:14:12Z</time><name>PT6674</name></trkpt>
<trkpt lat="53.332983" lon="06.578440"><ele>0.7</ele><time>2021-05-20T12:14:13Z</time><name>PT6675</name></trkpt>
<trkpt lat="53.332981" lon="06.578463"><ele>0.7</ele><time>2021-05-20T12:14:14Z</time><name>PT6676</name></trkpt>
<trkpt lat="53.332976" lon="06.578487"><ele>0.5</ele><time>2021-05-20T12:14:15Z</time><name>PT6677</name></trkpt>
<trkpt lat="53.332974" lon="06.578512"><ele>0.4</ele><time>2021-05-20T12:14:16Z</time><name>PT6678</name></trkpt>
<trkpt lat="53.332976" lon="06.578533"><ele>0.5</ele><time>2021-05-20T12:14:17Z</time><name>PT6679</name></trkpt>
<trkpt lat="53.332975" lon="06.578546"><ele>0.5</ele><time>2021-05-20T12:14:18Z</time><name>PT6680</name></trkpt>
<trkpt lat="53.332977" lon="06.578560"><ele>0.5</ele><time>2021-05-20T12:14:19Z</time><name>PT6681</name></trkpt>
<trkpt lat="53.332977" lon="06.578571"><ele>0.7</ele><time>2021-05-20T12:14:20Z</time><name>PT6682</name></trkpt>
<trkpt lat="53.332976" lon="06.578586"><ele>0.5</ele><time>2021-05-20T12:14:21Z</time><name>PT6683</name></trkpt>
<trkpt lat="53.332977" lon="06.578602"><ele>0.7</ele><time>2021-05-20T12:14:22Z</time><name>PT6684</name></trkpt>
<trkpt lat="53.332975" lon="06.578620"><ele>0.6</ele><time>2021-05-20T12:14:23Z</time><name>PT6685</name></trkpt>
<trkpt lat="53.332975" lon="06.578643"><ele>0.7</ele><time>2021-05-20T12:14:24Z</time><name>PT6686</name></trkpt>
<trkpt lat="53.332976" lon="06.578666"><ele>0.7</ele><time>2021-05-20T12:14:25Z</time><name>PT6687</name></trkpt>
<trkpt lat="53.332978" lon="06.578684"><ele>0.7</ele><time>2021-05-20T12:14:26Z</time><name>PT6688</name></trkpt>
<trkpt lat="53.332979" lon="06.578697"><ele>0.7</ele><time>2021-05-20T12:14:27Z</time><name>PT6689</name></trkpt>
<trkpt lat="53.332978" lon="06.578708"><ele>0.7</ele><time>2021-05-20T12:14:28Z</time><name>PT6690</name></trkpt>
<trkpt lat="53.332978" lon="06.578723"><ele>0.7</ele><time>2021-05-20T12:14:29Z</time><name>PT6691</name></trkpt>
<trkpt lat="53.332978" lon="06.578739"><ele>0.9</ele><time>2021-05-20T12:14:30Z</time><name>PT6692</name></trkpt>
<trkpt lat="53.332977" lon="06.578760"><ele>0.8</ele><time>2021-05-20T12:14:31Z</time><name>PT6693</name></trkpt>
<trkpt lat="53.332977" lon="06.578784"><ele>0.9</ele><time>2021-05-20T12:14:32Z</time><name>PT6694</name></trkpt>
<trkpt lat="53.332977" lon="06.578811"><ele>-1</ele><time>2021-05-20T12:14:33Z</time><name>PT6695</name></trkpt>
<trkpt lat="53.332978" lon="06.578836"><ele>-1</ele><time>2021-05-20T12:14:34Z</time><name>PT6696</name></trkpt>
<trkpt lat="53.332982" lon="06.578857"><ele>-1</ele><time>2021-05-20T12:14:35Z</time><name>PT6697</name></trkpt>
<trkpt lat="53.332984" lon="06.578873"><ele>-1.1</ele><time>2021-05-20T12:14:36Z</time><name>PT6698</name></trkpt>
<trkpt lat="53.332986" lon="06.578885"><ele>-1.1</ele><time>2021-05-20T12:14:37Z</time><name>PT6699</name></trkpt>
<trkpt lat="53.332985" lon="06.578898"><ele>-1.2</ele><time>2021-05-20T12:14:38Z</time><name>PT6700</name></trkpt>
<trkpt lat="53.332985" lon="06.578915"><ele>-1</ele><time>2021-05-20T12:14:39Z</time><name>PT6701</name></trkpt>
<trkpt lat="53.332982" lon="06.578936"><ele>0.8</ele><time>2021-05-20T12:14:40Z</time><name>PT6702</name></trkpt>
<trkpt lat="53.332977" lon="06.578959"><ele>0.9</ele><time>2021-05-20T12:14:41Z</time><name>PT6703</name></trkpt>
<trkpt lat="53.332974" lon="06.578980"><ele>0.8</ele><time>2021-05-20T12:14:42Z</time><name>PT6704</name></trkpt>
<trkpt lat="53.332972" lon="06.578999"><ele>0.7</ele><time>2021-05-20T12:14:43Z</time><name>PT6705</name></trkpt>
<trkpt lat="53.332970" lon="06.579013"><ele>0.7</ele><time>2021-05-20T12:14:44Z</time><name>PT6706</name></trkpt>
<trkpt lat="53.332967" lon="06.579023"><ele>0.8</ele><time>2021-05-20T12:14:45Z</time><name>PT6707</name></trkpt>
<trkpt lat="53.332964" lon="06.579034"><ele>0.7</ele><time>2021-05-20T12:14:46Z</time><name>PT6708</name></trkpt>
<trkpt lat="53.332958" lon="06.579044"><ele>0.7</ele><time>2021-05-20T12:14:47Z</time><name>PT6709</name></trkpt>
<trkpt lat="53.332951" lon="06.579056"><ele>0.7</ele><time>2021-05-20T12:14:48Z</time><name>PT6710</name></trkpt>
<trkpt lat="53.332942" lon="06.579073"><ele>0.4</ele><time>2021-05-20T12:14:49Z</time><name>PT6711</name></trkpt>
<trkpt lat="53.332932" lon="06.579092"><ele>0.4</ele><time>2021-05-20T12:14:50Z</time><name>PT6712</name></trkpt>
<trkpt lat="53.332921" lon="06.579112"><ele>0.5</ele><time>2021-05-20T12:14:51Z</time><name>PT6713</name></trkpt>
<trkpt lat="53.332913" lon="06.579133"><ele>0.5</ele><time>2021-05-20T12:14:52Z</time><name>PT6714</name></trkpt>
<trkpt lat="53.332907" lon="06.579148"><ele>0.6</ele><time>2021-05-20T12:14:53Z</time><name>PT6715</name></trkpt>
<trkpt lat="53.332903" lon="06.579163"><ele>0.7</ele><time>2021-05-20T12:14:54Z</time><name>PT6716</name></trkpt>
<trkpt lat="53.332899" lon="06.579177"><ele>0.6</ele><time>2021-05-20T12:14:55Z</time><name>PT6717</name></trkpt>
<trkpt lat="53.332895" lon="06.579187"><ele>0.3</ele><time>2021-05-20T12:14:56Z</time><name>PT6718</name></trkpt>
<trkpt lat="53.332888" lon="06.579201"><ele>0.5</ele><time>2021-05-20T12:14:57Z</time><name>PT6719</name></trkpt>
<trkpt lat="53.332881" lon="06.579216"><ele>0.7</ele><time>2021-05-20T12:14:58Z</time><name>PT6720</name></trkpt>
<trkpt lat="53.332872" lon="06.579234"><ele>0.7</ele><time>2021-05-20T12:14:59Z</time><name>PT6721</name></trkpt>
<trkpt lat="53.332862" lon="06.579256"><ele>0.8</ele><time>2021-05-20T12:15:00Z</time><name>PT6722</name></trkpt>
<trkpt lat="53.332851" lon="06.579274"><ele>0.7</ele><time>2021-05-20T12:15:01Z</time><name>PT6723</name></trkpt>
<trkpt lat="53.332843" lon="06.579292"><ele>0.6</ele><time>2021-05-20T12:15:02Z</time><name>PT6724</name></trkpt>
<trkpt lat="53.332837" lon="06.579309"><ele>0.5</ele><time>2021-05-20T12:15:03Z</time><name>PT6725</name></trkpt>
<trkpt lat="53.332831" lon="06.579323"><ele>0.5</ele><time>2021-05-20T12:15:04Z</time><name>PT6726</name></trkpt>
<trkpt lat="53.332825" lon="06.579334"><ele>0.4</ele><time>2021-05-20T12:15:05Z</time><name>PT6727</name></trkpt>
<trkpt lat="53.332820" lon="06.579345"><ele>0.5</ele><time>2021-05-20T12:15:06Z</time><name>PT6728</name></trkpt>
<trkpt lat="53.332812" lon="06.579358"><ele>0.4</ele><time>2021-05-20T12:15:07Z</time><name>PT6729</name></trkpt>
<trkpt lat="53.332803" lon="06.579373"><ele>0.3</ele><time>2021-05-20T12:15:08Z</time><name>PT6730</name></trkpt>
<trkpt lat="53.332793" lon="06.579393"><ele>0.3</ele><time>2021-05-20T12:15:09Z</time><name>PT6731</name></trkpt>
<trkpt lat="53.332784" lon="06.579411"><ele>0.5</ele><time>2021-05-20T12:15:10Z</time><name>PT6732</name></trkpt>
<trkpt lat="53.332778" lon="06.579426"><ele>0.5</ele><time>2021-05-20T12:15:11Z</time><name>PT6733</name></trkpt>
<trkpt lat="53.332776" lon="06.579436"><ele>0.5</ele><time>2021-05-20T12:15:12Z</time><name>PT6734</name></trkpt>
<trkpt lat="53.332773" lon="06.579445"><ele>0.7</ele><time>2021-05-20T12:15:13Z</time><name>PT6735</name></trkpt>
<trkpt lat="53.332766" lon="06.579457"><ele>0.7</ele><time>2021-05-20T12:15:14Z</time><name>PT6736</name></trkpt>
<trkpt lat="53.332756" lon="06.579472"><ele>0.7</ele><time>2021-05-20T12:15:15Z</time><name>PT6737</name></trkpt>
<trkpt lat="53.332746" lon="06.579492"><ele>0.6</ele><time>2021-05-20T12:15:16Z</time><name>PT6738</name></trkpt>
<trkpt lat="53.332738" lon="06.579514"><ele>0.7</ele><time>2021-05-20T12:15:17Z</time><name>PT6739</name></trkpt>
<trkpt lat="53.332731" lon="06.579531"><ele>0.7</ele><time>2021-05-20T12:15:18Z</time><name>PT6740</name></trkpt>
<trkpt lat="53.332727" lon="06.579544"><ele>0.7</ele><time>2021-05-20T12:15:19Z</time><name>PT6741</name></trkpt>
<trkpt lat="53.332723" lon="06.579556"><ele>0.7</ele><time>2021-05-20T12:15:20Z</time><name>PT6742</name></trkpt>
<trkpt lat="53.332716" lon="06.579565"><ele>0.7</ele><time>2021-05-20T12:15:21Z</time><name>PT6743</name></trkpt>
<trkpt lat="53.332709" lon="06.579577"><ele>0.6</ele><time>2021-05-20T12:15:22Z</time><name>PT6744</name></trkpt>
<trkpt lat="53.332701" lon="06.579594"><ele>0.6</ele><time>2021-05-20T12:15:23Z</time><name>PT6745</name></trkpt>
<trkpt lat="53.332692" lon="06.579611"><ele>0.5</ele><time>2021-05-20T12:15:24Z</time><name>PT6746</name></trkpt>
<trkpt lat="53.332682" lon="06.579628"><ele>0.6</ele><time>2021-05-20T12:15:25Z</time><name>PT6747</name></trkpt>
<trkpt lat="53.332672" lon="06.579649"><ele>0.5</ele><time>2021-05-20T12:15:26Z</time><name>PT6748</name></trkpt>
<trkpt lat="53.332666" lon="06.579671"><ele>0.5</ele><time>2021-05-20T12:15:27Z</time><name>PT6749</name></trkpt>
<trkpt lat="53.332660" lon="06.579688"><ele>0.6</ele><time>2021-05-20T12:15:28Z</time><name>PT6750</name></trkpt>
<trkpt lat="53.332654" lon="06.579704"><ele>0.6</ele><time>2021-05-20T12:15:29Z</time><name>PT6751</name></trkpt>
<trkpt lat="53.332650" lon="06.579716"><ele>0.7</ele><time>2021-05-20T12:15:30Z</time><name>PT6752</name></trkpt>
<trkpt lat="53.332646" lon="06.579725"><ele>0.9</ele><time>2021-05-20T12:15:31Z</time><name>PT6753</name></trkpt>
<trkpt lat="53.332641" lon="06.579735"><ele>0.9</ele><time>2021-05-20T12:15:32Z</time><name>PT6754</name></trkpt>
<trkpt lat="53.332632" lon="06.579746"><ele>0.9</ele><time>2021-05-20T12:15:33Z</time><name>PT6755</name></trkpt>
<trkpt lat="53.332621" lon="06.579757"><ele>0.7</ele><time>2021-05-20T12:15:34Z</time><name>PT6756</name></trkpt>
<trkpt lat="53.332608" lon="06.579770"><ele>0.8</ele><time>2021-05-20T12:15:35Z</time><name>PT6757</name></trkpt>
<trkpt lat="53.332595" lon="06.579785"><ele>0.7</ele><time>2021-05-20T12:15:36Z</time><name>PT6758</name></trkpt>
<trkpt lat="53.332583" lon="06.579792"><ele>0.7</ele><time>2021-05-20T12:15:37Z</time><name>PT6759</name></trkpt>
<trkpt lat="53.332575" lon="06.579797"><ele>0.6</ele><time>2021-05-20T12:15:38Z</time><name>PT6760</name></trkpt>
<trkpt lat="53.332571" lon="06.579809"><ele>0.5</ele><time>2021-05-20T12:15:39Z</time><name>PT6761</name></trkpt>
<trkpt lat="53.332565" lon="06.579819"><ele>0.6</ele><time>2021-05-20T12:15:40Z</time><name>PT6762</name></trkpt>
<trkpt lat="53.332558" lon="06.579826"><ele>0.4</ele><time>2021-05-20T12:15:41Z</time><name>PT6763</name></trkpt>
<trkpt lat="53.332552" lon="06.579836"><ele>0.3</ele><time>2021-05-20T12:15:42Z</time><name>PT6764</name></trkpt>
<trkpt lat="53.332546" lon="06.579846"><ele>0.5</ele><time>2021-05-20T12:15:43Z</time><name>PT6765</name></trkpt>
<trkpt lat="53.332541" lon="06.579857"><ele>0.4</ele><time>2021-05-20T12:15:44Z</time><name>PT6766</name></trkpt>
<trkpt lat="53.332536" lon="06.579868"><ele>0.3</ele><time>2021-05-20T12:15:45Z</time><name>PT6767</name></trkpt>
<trkpt lat="53.332531" lon="06.579879"><ele>0.3</ele><time>2021-05-20T12:15:46Z</time><name>PT6768</name></trkpt>
<trkpt lat="53.332527" lon="06.579893"><ele>0.3</ele><time>2021-05-20T12:15:47Z</time><name>PT6769</name></trkpt>
<trkpt lat="53.332520" lon="06.579914"><ele>0.4</ele><time>2021-05-20T12:15:48Z</time><name>PT6770</name></trkpt>
<trkpt lat="53.332516" lon="06.579940"><ele>0.5</ele><time>2021-05-20T12:15:49Z</time><name>PT6771</name></trkpt>
<trkpt lat="53.332513" lon="06.579956"><ele>0.6</ele><time>2021-05-20T12:15:50Z</time><name>PT6772</name></trkpt>
<trkpt lat="53.332512" lon="06.579968"><ele>0.7</ele><time>2021-05-20T12:15:51Z</time><name>PT6773</name></trkpt>
<trkpt lat="53.332512" lon="06.579982"><ele>0.6</ele><time>2021-05-20T12:15:52Z</time><name>PT6774</name></trkpt>
<trkpt lat="53.332511" lon="06.579992"><ele>0.5</ele><time>2021-05-20T12:15:53Z</time><name>PT6775</name></trkpt>
<trkpt lat="53.332510" lon="06.580008"><ele>0.4</ele><time>2021-05-20T12:15:54Z</time><name>PT6776</name></trkpt>
<trkpt lat="53.332508" lon="06.580029"><ele>0.2</ele><time>2021-05-20T12:15:55Z</time><name>PT6777</name></trkpt>
<trkpt lat="53.332509" lon="06.580048"><ele>0.2</ele><time>2021-05-20T12:15:56Z</time><name>PT6778</name></trkpt>
<trkpt lat="53.332511" lon="06.580063"><ele>0.1</ele><time>2021-05-20T12:15:57Z</time><name>PT6779</name></trkpt>
<trkpt lat="53.332512" lon="06.580072"><ele>0</ele><time>2021-05-20T12:15:58Z</time><name>PT6780</name></trkpt>
<trkpt lat="53.332514" lon="06.580093"><ele>0.1</ele><time>2021-05-20T12:15:59Z</time><name>PT6781</name></trkpt>
<trkpt lat="53.332514" lon="06.580114"><ele>0.3</ele><time>2021-05-20T12:16:00Z</time><name>PT6782</name></trkpt>
<trkpt lat="53.332516" lon="06.580134"><ele>0.3</ele><time>2021-05-20T12:16:01Z</time><name>PT6783</name></trkpt>
<trkpt lat="53.332516" lon="06.580152"><ele>0.4</ele><time>2021-05-20T12:16:02Z</time><name>PT6784</name></trkpt>
<trkpt lat="53.332517" lon="06.580166"><ele>0.5</ele><time>2021-05-20T12:16:03Z</time><name>PT6785</name></trkpt>
<trkpt lat="53.332517" lon="06.580175"><ele>0.5</ele><time>2021-05-20T12:16:04Z</time><name>PT6786</name></trkpt>
<trkpt lat="53.332518" lon="06.580190"><ele>0.6</ele><time>2021-05-20T12:16:05Z</time><name>PT6787</name></trkpt>
<trkpt lat="53.332517" lon="06.580208"><ele>0.6</ele><time>2021-05-20T12:16:06Z</time><name>PT6788</name></trkpt>
<trkpt lat="53.332514" lon="06.580232"><ele>0.4</ele><time>2021-05-20T12:16:07Z</time><name>PT6789</name></trkpt>
<trkpt lat="53.332514" lon="06.580261"><ele>0.3</ele><time>2021-05-20T12:16:08Z</time><name>PT6790</name></trkpt>
<trkpt lat="53.332515" lon="06.580288"><ele>0.1</ele><time>2021-05-20T12:16:09Z</time><name>PT6791</name></trkpt>
<trkpt lat="53.332516" lon="06.580306"><ele>0.1</ele><time>2021-05-20T12:16:10Z</time><name>PT6792</name></trkpt>
<trkpt lat="53.332517" lon="06.580321"><ele>0</ele><time>2021-05-20T12:16:11Z</time><name>PT6793</name></trkpt>
<trkpt lat="53.332518" lon="06.580333"><ele>0.3</ele><time>2021-05-20T12:16:12Z</time><name>PT6794</name></trkpt>
<trkpt lat="53.332518" lon="06.580347"><ele>0.6</ele><time>2021-05-20T12:16:13Z</time><name>PT6795</name></trkpt>
<trkpt lat="53.332518" lon="06.580360"><ele>0.6</ele><time>2021-05-20T12:16:14Z</time><name>PT6796</name></trkpt>
<trkpt lat="53.332520" lon="06.580379"><ele>0.6</ele><time>2021-05-20T12:16:15Z</time><name>PT6797</name></trkpt>
<trkpt lat="53.332521" lon="06.580402"><ele>0.6</ele><time>2021-05-20T12:16:16Z</time><name>PT6798</name></trkpt>
<trkpt lat="53.332523" lon="06.580423"><ele>0.6</ele><time>2021-05-20T12:16:17Z</time><name>PT6799</name></trkpt>
<trkpt lat="53.332525" lon="06.580442"><ele>0.5</ele><time>2021-05-20T12:16:18Z</time><name>PT6800</name></trkpt>
<trkpt lat="53.332529" lon="06.580456"><ele>0.5</ele><time>2021-05-20T12:16:19Z</time><name>PT6801</name></trkpt>
<trkpt lat="53.332532" lon="06.580471"><ele>0.4</ele><time>2021-05-20T12:16:20Z</time><name>PT6802</name></trkpt>
<trkpt lat="53.332532" lon="06.580485"><ele>0.5</ele><time>2021-05-20T12:16:21Z</time><name>PT6803</name></trkpt>
<trkpt lat="53.332526" lon="06.580498"><ele>0.6</ele><time>2021-05-20T12:16:22Z</time><name>PT6804</name></trkpt>
<trkpt lat="53.332524" lon="06.580521"><ele>0.5</ele><time>2021-05-20T12:16:23Z</time><name>PT6805</name></trkpt>
<trkpt lat="53.332525" lon="06.580550"><ele>0.5</ele><time>2021-05-20T12:16:24Z</time><name>PT6806</name></trkpt>
<trkpt lat="53.332524" lon="06.580574"><ele>0.6</ele><time>2021-05-20T12:16:25Z</time><name>PT6807</name></trkpt>
<trkpt lat="53.332525" lon="06.580592"><ele>0.5</ele><time>2021-05-20T12:16:26Z</time><name>PT6808</name></trkpt>
<trkpt lat="53.332527" lon="06.580605"><ele>0.5</ele><time>2021-05-20T12:16:27Z</time><name>PT6809</name></trkpt>
<trkpt lat="53.332531" lon="06.580619"><ele>0.7</ele><time>2021-05-20T12:16:28Z</time><name>PT6810</name></trkpt>
<trkpt lat="53.332530" lon="06.580632"><ele>0.6</ele><time>2021-05-20T12:16:29Z</time><name>PT6811</name></trkpt>
<trkpt lat="53.332527" lon="06.580647"><ele>0.5</ele><time>2021-05-20T12:16:30Z</time><name>PT6812</name></trkpt>
<trkpt lat="53.332524" lon="06.580668"><ele>0.7</ele><time>2021-05-20T12:16:31Z</time><name>PT6813</name></trkpt>
<trkpt lat="53.332524" lon="06.580696"><ele>0.6</ele><time>2021-05-20T12:16:32Z</time><name>PT6814</name></trkpt>
<trkpt lat="53.332524" lon="06.580723"><ele>0.7</ele><time>2021-05-20T12:16:33Z</time><name>PT6815</name></trkpt>
<trkpt lat="53.332524" lon="06.580745"><ele>0.7</ele><time>2021-05-20T12:16:34Z</time><name>PT6816</name></trkpt>
<trkpt lat="53.332525" lon="06.580761"><ele>0.6</ele><time>2021-05-20T12:16:35Z</time><name>PT6817</name></trkpt>
<trkpt lat="53.332526" lon="06.580774"><ele>0.7</ele><time>2021-05-20T12:16:36Z</time><name>PT6818</name></trkpt>
<trkpt lat="53.332526" lon="06.580789"><ele>0.4</ele><time>2021-05-20T12:16:37Z</time><name>PT6819</name></trkpt>
<trkpt lat="53.332525" lon="06.580805"><ele>0.3</ele><time>2021-05-20T12:16:38Z</time><name>PT6820</name></trkpt>
<trkpt lat="53.332524" lon="06.580827"><ele>0.3</ele><time>2021-05-20T12:16:39Z</time><name>PT6821</name></trkpt>
<trkpt lat="53.332524" lon="06.580852"><ele>0.3</ele><time>2021-05-20T12:16:40Z</time><name>PT6822</name></trkpt>
<trkpt lat="53.332523" lon="06.580870"><ele>0.3</ele><time>2021-05-20T12:16:41Z</time><name>PT6823</name></trkpt>
<trkpt lat="53.332521" lon="06.580882"><ele>0.3</ele><time>2021-05-20T12:16:42Z</time><name>PT6824</name></trkpt>
<trkpt lat="53.332519" lon="06.580894"><ele>0.3</ele><time>2021-05-20T12:16:43Z</time><name>PT6825</name></trkpt>
<trkpt lat="53.332513" lon="06.580907"><ele>0.3</ele><time>2021-05-20T12:16:44Z</time><name>PT6826</name></trkpt>
<trkpt lat="53.332506" lon="06.580921"><ele>0.2</ele><time>2021-05-20T12:16:45Z</time><name>PT6827</name></trkpt>
<trkpt lat="53.332500" lon="06.580930"><ele>0.2</ele><time>2021-05-20T12:16:46Z</time><name>PT6828</name></trkpt>
<trkpt lat="53.332489" lon="06.580930"><ele>0.3</ele><time>2021-05-20T12:16:47Z</time><name>PT6829</name></trkpt>
<trkpt lat="53.332476" lon="06.580928"><ele>0.3</ele><time>2021-05-20T12:16:48Z</time><name>PT6830</name></trkpt>
<trkpt lat="53.332467" lon="06.580929"><ele>0.4</ele><time>2021-05-20T12:16:49Z</time><name>PT6831</name></trkpt>
<trkpt lat="53.332461" lon="06.580929"><ele>0.4</ele><time>2021-05-20T12:16:50Z</time><name>PT6832</name></trkpt>
<trkpt lat="53.332452" lon="06.580927"><ele>0.2</ele><time>2021-05-20T12:16:51Z</time><name>PT6833</name></trkpt>
<trkpt lat="53.332445" lon="06.580927"><ele>0.2</ele><time>2021-05-20T12:16:52Z</time><name>PT6834</name></trkpt>
<trkpt lat="53.332443" lon="06.580927"><ele>0.1</ele><time>2021-05-20T12:16:53Z</time><name>PT6835</name></trkpt>
<trkpt lat="53.332439" lon="06.580927"><ele>0.1</ele><time>2021-05-20T12:16:54Z</time><name>PT6836</name></trkpt>
<trkpt lat="53.332437" lon="06.580927"><ele>0.2</ele><time>2021-05-20T12:16:55Z</time><name>PT6837</name></trkpt>
<trkpt lat="53.332435" lon="06.580921"><ele>0.1</ele><time>2021-05-20T12:16:56Z</time><name>PT6838</name></trkpt>
<trkpt lat="53.332434" lon="06.580920"><ele>0</ele><time>2021-05-20T12:16:57Z</time><name>PT6839</name></trkpt>
<trkpt lat="53.332436" lon="06.580922"><ele>0.1</ele><time>2021-05-20T12:16:58Z</time><name>PT6840</name></trkpt>
<trkpt lat="53.332437" lon="06.580924"><ele>0.1</ele><time>2021-05-20T12:16:59Z</time><name>PT6841</name></trkpt>
<trkpt lat="53.332433" lon="06.580922"><ele>0</ele><time>2021-05-20T12:17:06Z</time><name>PT6842</name></trkpt>
<trkpt lat="53.332430" lon="06.580926"><ele>0</ele><time>2021-05-20T12:17:07Z</time><name>PT6843</name></trkpt>
<trkpt lat="53.332428" lon="06.580926"><ele>0</ele><time>2021-05-20T12:17:08Z</time><name>PT6844</name></trkpt>
<trkpt lat="53.332422" lon="06.580919"><ele>0.3</ele><time>2021-05-20T12:17:09Z</time><name>PT6845</name></trkpt>
<trkpt lat="53.332422" lon="06.580924"><ele>0.4</ele><time>2021-05-20T12:17:10Z</time><name>PT6846</name></trkpt>
<trkpt lat="53.332420" lon="06.580929"><ele>0.4</ele><time>2021-05-20T12:17:11Z</time><name>PT6847</name></trkpt>
<trkpt lat="53.332418" lon="06.580931"><ele>0.5</ele><time>2021-05-20T12:17:12Z</time><name>PT6848</name></trkpt>
<trkpt lat="53.332418" lon="06.580938"><ele>0.5</ele><time>2021-05-20T12:17:13Z</time><name>PT6849</name></trkpt>
<trkpt lat="53.332417" lon="06.580939"><ele>0.3</ele><time>2021-05-20T12:17:14Z</time><name>PT6850</name></trkpt>
<trkpt lat="53.332418" lon="06.580940"><ele>0.3</ele><time>2021-05-20T12:17:15Z</time><name>PT6851</name></trkpt>
<trkpt lat="53.332418" lon="06.580944"><ele>0</ele><time>2021-05-20T12:17:16Z</time><name>PT6852</name></trkpt>
<trkpt lat="53.332420" lon="06.580947"><ele>0</ele><time>2021-05-20T12:17:18Z</time><name>PT6853</name></trkpt>
<trkpt lat="53.332419" lon="06.580952"><ele>0.1</ele><time>2021-05-20T12:17:19Z</time><name>PT6854</name></trkpt>
<trkpt lat="53.332419" lon="06.580963"><ele>0</ele><time>2021-05-20T12:17:20Z</time><name>PT6855</name></trkpt>
<trkpt lat="53.332414" lon="06.580980"><ele>0</ele><time>2021-05-20T12:17:21Z</time><name>PT6856</name></trkpt>
<trkpt lat="53.332414" lon="06.581015"><ele>0</ele><time>2021-05-20T12:17:22Z</time><name>PT6857</name></trkpt>
<trkpt lat="53.332413" lon="06.581045"><ele>0.1</ele><time>2021-05-20T12:17:23Z</time><name>PT6858</name></trkpt>
<trkpt lat="53.332413" lon="06.581064"><ele>0.2</ele><time>2021-05-20T12:17:24Z</time><name>PT6859</name></trkpt>
<trkpt lat="53.332413" lon="06.581080"><ele>0.1</ele><time>2021-05-20T12:17:25Z</time><name>PT6860</name></trkpt>
<trkpt lat="53.332415" lon="06.581092"><ele>0.1</ele><time>2021-05-20T12:17:26Z</time><name>PT6861</name></trkpt>
<trkpt lat="53.332414" lon="06.581106"><ele>0</ele><time>2021-05-20T12:17:27Z</time><name>PT6862</name></trkpt>
<trkpt lat="53.332412" lon="06.581124"><ele>0</ele><time>2021-05-20T12:17:28Z</time><name>PT6863</name></trkpt>
<trkpt lat="53.332413" lon="06.581150"><ele>0</ele><time>2021-05-20T12:17:29Z</time><name>PT6864</name></trkpt>
<trkpt lat="53.332416" lon="06.581176"><ele>0.1</ele><time>2021-05-20T12:17:30Z</time><name>PT6865</name></trkpt>
<trkpt lat="53.332420" lon="06.581195"><ele>0</ele><time>2021-05-20T12:17:31Z</time><name>PT6866</name></trkpt>
<trkpt lat="53.332423" lon="06.581209"><ele>0.1</ele><time>2021-05-20T12:17:32Z</time><name>PT6867</name></trkpt>
<trkpt lat="53.332429" lon="06.581222"><ele>0</ele><time>2021-05-20T12:17:33Z</time><name>PT6868</name></trkpt>
<trkpt lat="53.332430" lon="06.581233"><ele>0.2</ele><time>2021-05-20T12:17:34Z</time><name>PT6869</name></trkpt>
<trkpt lat="53.332430" lon="06.581245"><ele>0.4</ele><time>2021-05-20T12:17:35Z</time><name>PT6870</name></trkpt>
<trkpt lat="53.332435" lon="06.581271"><ele>0.4</ele><time>2021-05-20T12:17:36Z</time><name>PT6871</name></trkpt>
<trkpt lat="53.332438" lon="06.581300"><ele>0.4</ele><time>2021-05-20T12:17:37Z</time><name>PT6872</name></trkpt>
<trkpt lat="53.332439" lon="06.581319"><ele>0.3</ele><time>2021-05-20T12:17:38Z</time><name>PT6873</name></trkpt>
<trkpt lat="53.332440" lon="06.581332"><ele>0</ele><time>2021-05-20T12:17:39Z</time><name>PT6874</name></trkpt>
<trkpt lat="53.332438" lon="06.581342"><ele>0.1</ele><time>2021-05-20T12:17:40Z</time><name>PT6875</name></trkpt>
<trkpt lat="53.332438" lon="06.581355"><ele>0.1</ele><time>2021-05-20T12:17:41Z</time><name>PT6876</name></trkpt>
<trkpt lat="53.332439" lon="06.581373"><ele>0.1</ele><time>2021-05-20T12:17:42Z</time><name>PT6877</name></trkpt>
<trkpt lat="53.332440" lon="06.581396"><ele>0.1</ele><time>2021-05-20T12:17:43Z</time><name>PT6878</name></trkpt>
<trkpt lat="53.332440" lon="06.581418"><ele>0</ele><time>2021-05-20T12:17:44Z</time><name>PT6879</name></trkpt>
<trkpt lat="53.332443" lon="06.581437"><ele>0.1</ele><time>2021-05-20T12:17:45Z</time><name>PT6880</name></trkpt>
<trkpt lat="53.332443" lon="06.581451"><ele>0.1</ele><time>2021-05-20T12:17:46Z</time><name>PT6881</name></trkpt>
<trkpt lat="53.332444" lon="06.581462"><ele>0.1</ele><time>2021-05-20T12:17:47Z</time><name>PT6882</name></trkpt>
<trkpt lat="53.332444" lon="06.581473"><ele>0.3</ele><time>2021-05-20T12:17:48Z</time><name>PT6883</name></trkpt>
<trkpt lat="53.332442" lon="06.581488"><ele>0.3</ele><time>2021-05-20T12:17:49Z</time><name>PT6884</name></trkpt>
<trkpt lat="53.332441" lon="06.581511"><ele>0.3</ele><time>2021-05-20T12:17:50Z</time><name>PT6885</name></trkpt>
<trkpt lat="53.332441" lon="06.581537"><ele>0.3</ele><time>2021-05-20T12:17:51Z</time><name>PT6886</name></trkpt>
<trkpt lat="53.332441" lon="06.581571"><ele>0.2</ele><time>2021-05-20T12:17:52Z</time><name>PT6887</name></trkpt>
<trkpt lat="53.332443" lon="06.581593"><ele>0.1</ele><time>2021-05-20T12:17:53Z</time><name>PT6888</name></trkpt>
<trkpt lat="53.332444" lon="06.581608"><ele>0</ele><time>2021-05-20T12:17:54Z</time><name>PT6889</name></trkpt>
<trkpt lat="53.332447" lon="06.581621"><ele>0.2</ele><time>2021-05-20T12:17:55Z</time><name>PT6890</name></trkpt>
<trkpt lat="53.332448" lon="06.581635"><ele>0</ele><time>2021-05-20T12:17:56Z</time><name>PT6891</name></trkpt>
<trkpt lat="53.332448" lon="06.581641"><ele>0</ele><time>2021-05-20T12:17:57Z</time><name>PT6892</name></trkpt>
<trkpt lat="53.332451" lon="06.581657"><ele>0.1</ele><time>2021-05-20T12:17:58Z</time><name>PT6893</name></trkpt>
<trkpt lat="53.332454" lon="06.581675"><ele>0</ele><time>2021-05-20T12:17:59Z</time><name>PT6894</name></trkpt>
<trkpt lat="53.332458" lon="06.581691"><ele>0.1</ele><time>2021-05-20T12:18:00Z</time><name>PT6895</name></trkpt>
<trkpt lat="53.332464" lon="06.581711"><ele>0</ele><time>2021-05-20T12:18:01Z</time><name>PT6896</name></trkpt>
<trkpt lat="53.332468" lon="06.581725"><ele>0</ele><time>2021-05-20T12:18:02Z</time><name>PT6897</name></trkpt>
<trkpt lat="53.332474" lon="06.581736"><ele>0.1</ele><time>2021-05-20T12:18:03Z</time><name>PT6898</name></trkpt>
<trkpt lat="53.332483" lon="06.581746"><ele>0.2</ele><time>2021-05-20T12:18:04Z</time><name>PT6899</name></trkpt>
<trkpt lat="53.332490" lon="06.581759"><ele>0.4</ele><time>2021-05-20T12:18:05Z</time><name>PT6900</name></trkpt>
<trkpt lat="53.332496" lon="06.581771"><ele>0.3</ele><time>2021-05-20T12:18:06Z</time><name>PT6901</name></trkpt>
<trkpt lat="53.332509" lon="06.581792"><ele>0.3</ele><time>2021-05-20T12:18:07Z</time><name>PT6902</name></trkpt>
<trkpt lat="53.332523" lon="06.581815"><ele>0.3</ele><time>2021-05-20T12:18:08Z</time><name>PT6903</name></trkpt>
<trkpt lat="53.332535" lon="06.581828"><ele>0.3</ele><time>2021-05-20T12:18:09Z</time><name>PT6904</name></trkpt>
<trkpt lat="53.332545" lon="06.581839"><ele>0.4</ele><time>2021-05-20T12:18:10Z</time><name>PT6905</name></trkpt>
<trkpt lat="53.332556" lon="06.581847"><ele>0.5</ele><time>2021-05-20T12:18:11Z</time><name>PT6906</name></trkpt>
<trkpt lat="53.332565" lon="06.581850"><ele>0.5</ele><time>2021-05-20T12:18:12Z</time><name>PT6907</name></trkpt>
<trkpt lat="53.332573" lon="06.581851"><ele>0.7</ele><time>2021-05-20T12:18:13Z</time><name>PT6908</name></trkpt>
<trkpt lat="53.332581" lon="06.581856"><ele>0.7</ele><time>2021-05-20T12:18:14Z</time><name>PT6909</name></trkpt>
<trkpt lat="53.332593" lon="06.581863"><ele>0.6</ele><time>2021-05-20T12:18:15Z</time><name>PT6910</name></trkpt>
<trkpt lat="53.332604" lon="06.581870"><ele>0.4</ele><time>2021-05-20T12:18:16Z</time><name>PT6911</name></trkpt>
<trkpt lat="53.332614" lon="06.581877"><ele>0.2</ele><time>2021-05-20T12:18:17Z</time><name>PT6912</name></trkpt>
<trkpt lat="53.332621" lon="06.581873"><ele>0.3</ele><time>2021-05-20T12:18:18Z</time><name>PT6913</name></trkpt>
<trkpt lat="53.332628" lon="06.581874"><ele>0.2</ele><time>2021-05-20T12:18:19Z</time><name>PT6914</name></trkpt>
<trkpt lat="53.332639" lon="06.581885"><ele>0.5</ele><time>2021-05-20T12:18:20Z</time><name>PT6915</name></trkpt>
<trkpt lat="53.332653" lon="06.581901"><ele>0.5</ele><time>2021-05-20T12:18:21Z</time><name>PT6916</name></trkpt>
<trkpt lat="53.332667" lon="06.581913"><ele>0.3</ele><time>2021-05-20T12:18:22Z</time><name>PT6917</name></trkpt>
<trkpt lat="53.332682" lon="06.581923"><ele>0.5</ele><time>2021-05-20T12:18:23Z</time><name>PT6918</name></trkpt>
<trkpt lat="53.332695" lon="06.581930"><ele>0.3</ele><time>2021-05-20T12:18:24Z</time><name>PT6919</name></trkpt>
<trkpt lat="53.332705" lon="06.581938"><ele>0.3</ele><time>2021-05-20T12:18:25Z</time><name>PT6920</name></trkpt>
<trkpt lat="53.332714" lon="06.581945"><ele>0.4</ele><time>2021-05-20T12:18:26Z</time><name>PT6921</name></trkpt>
<trkpt lat="53.332722" lon="06.581952"><ele>0.3</ele><time>2021-05-20T12:18:27Z</time><name>PT6922</name></trkpt>
<trkpt lat="53.332730" lon="06.581960"><ele>0.2</ele><time>2021-05-20T12:18:28Z</time><name>PT6923</name></trkpt>
<trkpt lat="53.332740" lon="06.581970"><ele>0.2</ele><time>2021-05-20T12:18:29Z</time><name>PT6924</name></trkpt>
<trkpt lat="53.332750" lon="06.581979"><ele>0</ele><time>2021-05-20T12:18:30Z</time><name>PT6925</name></trkpt>
<trkpt lat="53.332760" lon="06.581987"><ele>0</ele><time>2021-05-20T12:18:31Z</time><name>PT6926</name></trkpt>
<trkpt lat="53.332769" lon="06.581994"><ele>0</ele><time>2021-05-20T12:18:32Z</time><name>PT6927</name></trkpt>
<trkpt lat="53.332779" lon="06.582003"><ele>0</ele><time>2021-05-20T12:18:33Z</time><name>PT6928</name></trkpt>
<trkpt lat="53.332789" lon="06.582012"><ele>0.2</ele><time>2021-05-20T12:18:34Z</time><name>PT6929</name></trkpt>
<trkpt lat="53.332797" lon="06.582018"><ele>0.2</ele><time>2021-05-20T12:18:35Z</time><name>PT6930</name></trkpt>
<trkpt lat="53.332803" lon="06.582023"><ele>0.3</ele><time>2021-05-20T12:18:36Z</time><name>PT6931</name></trkpt>
<trkpt lat="53.332808" lon="06.582029"><ele>0.4</ele><time>2021-05-20T12:18:37Z</time><name>PT6932</name></trkpt>
<trkpt lat="53.332813" lon="06.582040"><ele>0.5</ele><time>2021-05-20T12:18:38Z</time><name>PT6933</name></trkpt>
<trkpt lat="53.332818" lon="06.582052"><ele>0.4</ele><time>2021-05-20T12:18:39Z</time><name>PT6934</name></trkpt>
<trkpt lat="53.332825" lon="06.582069"><ele>0.4</ele><time>2021-05-20T12:18:40Z</time><name>PT6935</name></trkpt>
<trkpt lat="53.332837" lon="06.582093"><ele>0.3</ele><time>2021-05-20T12:18:41Z</time><name>PT6936</name></trkpt>
<trkpt lat="53.332847" lon="06.582110"><ele>0.3</ele><time>2021-05-20T12:18:42Z</time><name>PT6937</name></trkpt>
<trkpt lat="53.332855" lon="06.582126"><ele>0</ele><time>2021-05-20T12:18:43Z</time><name>PT6938</name></trkpt>
<trkpt lat="53.332862" lon="06.582143"><ele>0</ele><time>2021-05-20T12:18:44Z</time><name>PT6939</name></trkpt>
<trkpt lat="53.332869" lon="06.582159"><ele>0</ele><time>2021-05-20T12:18:45Z</time><name>PT6940</name></trkpt>
<trkpt lat="53.332876" lon="06.582177"><ele>0.1</ele><time>2021-05-20T12:18:46Z</time><name>PT6941</name></trkpt>
<trkpt lat="53.332882" lon="06.582192"><ele>0.1</ele><time>2021-05-20T12:18:47Z</time><name>PT6942</name></trkpt>
<trkpt lat="53.332888" lon="06.582207"><ele>0</ele><time>2021-05-20T12:18:48Z</time><name>PT6943</name></trkpt>
<trkpt lat="53.332893" lon="06.582224"><ele>0</ele><time>2021-05-20T12:18:49Z</time><name>PT6944</name></trkpt>
<trkpt lat="53.332898" lon="06.582242"><ele>0.2</ele><time>2021-05-20T12:18:50Z</time><name>PT6945</name></trkpt>
<trkpt lat="53.332902" lon="06.582261"><ele>0.1</ele><time>2021-05-20T12:18:51Z</time><name>PT6946</name></trkpt>
<trkpt lat="53.332905" lon="06.582281"><ele>0.1</ele><time>2021-05-20T12:18:52Z</time><name>PT6947</name></trkpt>
<trkpt lat="53.332911" lon="06.582300"><ele>0</ele><time>2021-05-20T12:18:53Z</time><name>PT6948</name></trkpt>
<trkpt lat="53.332916" lon="06.582320"><ele>0.3</ele><time>2021-05-20T12:18:54Z</time><name>PT6949</name></trkpt>
<trkpt lat="53.332920" lon="06.582334"><ele>0.3</ele><time>2021-05-20T12:18:55Z</time><name>PT6950</name></trkpt>
<trkpt lat="53.332924" lon="06.582349"><ele>0.6</ele><time>2021-05-20T12:18:56Z</time><name>PT6951</name></trkpt>
<trkpt lat="53.332930" lon="06.582366"><ele>0.6</ele><time>2021-05-20T12:18:57Z</time><name>PT6952</name></trkpt>
<trkpt lat="53.332935" lon="06.582378"><ele>0.6</ele><time>2021-05-20T12:18:58Z</time><name>PT6953</name></trkpt>
<trkpt lat="53.332942" lon="06.582390"><ele>0.5</ele><time>2021-05-20T12:18:59Z</time><name>PT6954</name></trkpt>
<trkpt lat="53.332948" lon="06.582401"><ele>0.5</ele><time>2021-05-20T12:19:00Z</time><name>PT6955</name></trkpt>
<trkpt lat="53.332955" lon="06.582414"><ele>0.3</ele><time>2021-05-20T12:19:01Z</time><name>PT6956</name></trkpt>
<trkpt lat="53.332959" lon="06.582429"><ele>0.6</ele><time>2021-05-20T12:19:02Z</time><name>PT6957</name></trkpt>
<trkpt lat="53.332964" lon="06.582445"><ele>0.5</ele><time>2021-05-20T12:19:03Z</time><name>PT6958</name></trkpt>
<trkpt lat="53.332973" lon="06.582463"><ele>0.4</ele><time>2021-05-20T12:19:04Z</time><name>PT6959</name></trkpt>
<trkpt lat="53.332983" lon="06.582481"><ele>0.5</ele><time>2021-05-20T12:19:05Z</time><name>PT6960</name></trkpt>
<trkpt lat="53.332992" lon="06.582495"><ele>0.6</ele><time>2021-05-20T12:19:06Z</time><name>PT6961</name></trkpt>
<trkpt lat="53.333006" lon="06.582508"><ele>0.5</ele><time>2021-05-20T12:19:07Z</time><name>PT6962</name></trkpt>
<trkpt lat="53.333018" lon="06.582515"><ele>0.5</ele><time>2021-05-20T12:19:08Z</time><name>PT6963</name></trkpt>
<trkpt lat="53.333029" lon="06.582522"><ele>0.4</ele><time>2021-05-20T12:19:09Z</time><name>PT6964</name></trkpt>
<trkpt lat="53.333037" lon="06.582521"><ele>0.3</ele><time>2021-05-20T12:19:10Z</time><name>PT6965</name></trkpt>
<trkpt lat="53.333046" lon="06.582525"><ele>0.3</ele><time>2021-05-20T12:19:11Z</time><name>PT6966</name></trkpt>
<trkpt lat="53.333055" lon="06.582527"><ele>0.2</ele><time>2021-05-20T12:19:12Z</time><name>PT6967</name></trkpt>
<trkpt lat="53.333066" lon="06.582529"><ele>0.2</ele><time>2021-05-20T12:19:13Z</time><name>PT6968</name></trkpt>
<trkpt lat="53.333079" lon="06.582532"><ele>0.1</ele><time>2021-05-20T12:19:14Z</time><name>PT6969</name></trkpt>
<trkpt lat="53.333091" lon="06.582537"><ele>0.3</ele><time>2021-05-20T12:19:15Z</time><name>PT6970</name></trkpt>
<trkpt lat="53.333103" lon="06.582542"><ele>0.1</ele><time>2021-05-20T12:19:16Z</time><name>PT6971</name></trkpt>
<trkpt lat="53.333114" lon="06.582541"><ele>0.2</ele><time>2021-05-20T12:19:17Z</time><name>PT6972</name></trkpt>
<trkpt lat="53.333126" lon="06.582538"><ele>0.3</ele><time>2021-05-20T12:19:18Z</time><name>PT6973</name></trkpt>
<trkpt lat="53.333136" lon="06.582535"><ele>0.2</ele><time>2021-05-20T12:19:19Z</time><name>PT6974</name></trkpt>
<trkpt lat="53.333145" lon="06.582534"><ele>0.2</ele><time>2021-05-20T12:19:20Z</time><name>PT6975</name></trkpt>
<trkpt lat="53.333152" lon="06.582531"><ele>0.3</ele><time>2021-05-20T12:19:21Z</time><name>PT6976</name></trkpt>
<trkpt lat="53.333160" lon="06.582531"><ele>0.1</ele><time>2021-05-20T12:19:22Z</time><name>PT6977</name></trkpt>
<trkpt lat="53.333168" lon="06.582532"><ele>0.3</ele><time>2021-05-20T12:19:23Z</time><name>PT6978</name></trkpt>
<trkpt lat="53.333176" lon="06.582532"><ele>0.2</ele><time>2021-05-20T12:19:24Z</time><name>PT6979</name></trkpt>
<trkpt lat="53.333185" lon="06.582533"><ele>0.2</ele><time>2021-05-20T12:19:25Z</time><name>PT6980</name></trkpt>
<trkpt lat="53.333194" lon="06.582531"><ele>0.3</ele><time>2021-05-20T12:19:26Z</time><name>PT6981</name></trkpt>
<trkpt lat="53.333204" lon="06.582528"><ele>0.3</ele><time>2021-05-20T12:19:27Z</time><name>PT6982</name></trkpt>
<trkpt lat="53.333213" lon="06.582527"><ele>0.3</ele><time>2021-05-20T12:19:28Z</time><name>PT6983</name></trkpt>
<trkpt lat="53.333222" lon="06.582525"><ele>0.3</ele><time>2021-05-20T12:19:29Z</time><name>PT6984</name></trkpt>
<trkpt lat="53.333231" lon="06.582524"><ele>0.3</ele><time>2021-05-20T12:19:30Z</time><name>PT6985</name></trkpt>
<trkpt lat="53.333242" lon="06.582525"><ele>0.3</ele><time>2021-05-20T12:19:31Z</time><name>PT6986</name></trkpt>
<trkpt lat="53.333251" lon="06.582524"><ele>0.3</ele><time>2021-05-20T12:19:32Z</time><name>PT6987</name></trkpt>
<trkpt lat="53.333264" lon="06.582526"><ele>0.3</ele><time>2021-05-20T12:19:33Z</time><name>PT6988</name></trkpt>
<trkpt lat="53.333275" lon="06.582524"><ele>0.2</ele><time>2021-05-20T12:19:34Z</time><name>PT6989</name></trkpt>
<trkpt lat="53.333287" lon="06.582521"><ele>0</ele><time>2021-05-20T12:19:35Z</time><name>PT6990</name></trkpt>
<trkpt lat="53.333298" lon="06.582517"><ele>0</ele><time>2021-05-20T12:19:36Z</time><name>PT6991</name></trkpt>
<trkpt lat="53.333303" lon="06.582513"><ele>0</ele><time>2021-05-20T12:19:37Z</time><name>PT6992</name></trkpt>
<trkpt lat="53.333305" lon="06.582511"><ele>0.2</ele><time>2021-05-20T12:19:38Z</time><name>PT6993</name></trkpt>
<trkpt lat="53.333314" lon="06.582514"><ele>0.4</ele><time>2021-05-20T12:19:39Z</time><name>PT6994</name></trkpt>
<trkpt lat="53.333324" lon="06.582514"><ele>0.5</ele><time>2021-05-20T12:19:40Z</time><name>PT6995</name></trkpt>
<trkpt lat="53.333337" lon="06.582516"><ele>0.6</ele><time>2021-05-20T12:19:41Z</time><name>PT6996</name></trkpt>
<trkpt lat="53.333348" lon="06.582518"><ele>0.3</ele><time>2021-05-20T12:19:42Z</time><name>PT6997</name></trkpt>
<trkpt lat="53.333359" lon="06.582520"><ele>0.4</ele><time>2021-05-20T12:19:43Z</time><name>PT6998</name></trkpt>
<trkpt lat="53.333368" lon="06.582519"><ele>0.3</ele><time>2021-05-20T12:19:44Z</time><name>PT6999</name></trkpt>
<trkpt lat="53.333376" lon="06.582517"><ele>0.3</ele><time>2021-05-20T12:19:45Z</time><name>PT7000</name></trkpt>
<trkpt lat="53.333383" lon="06.582514"><ele>0.4</ele><time>2021-05-20T12:19:46Z</time><name>PT7001</name></trkpt>
<trkpt lat="53.333389" lon="06.582511"><ele>0.6</ele><time>2021-05-20T12:19:47Z</time><name>PT7002</name></trkpt>
<trkpt lat="53.333393" lon="06.582512"><ele>0.5</ele><time>2021-05-20T12:19:48Z</time><name>PT7003</name></trkpt>
<trkpt lat="53.333401" lon="06.582515"><ele>0.6</ele><time>2021-05-20T12:19:49Z</time><name>PT7004</name></trkpt>
<trkpt lat="53.333413" lon="06.582515"><ele>0.8</ele><time>2021-05-20T12:19:50Z</time><name>PT7005</name></trkpt>
<trkpt lat="53.333424" lon="06.582514"><ele>0.8</ele><time>2021-05-20T12:19:51Z</time><name>PT7006</name></trkpt>
<trkpt lat="53.333435" lon="06.582511"><ele>-1</ele><time>2021-05-20T12:19:52Z</time><name>PT7007</name></trkpt>
<trkpt lat="53.333451" lon="06.582511"><ele>-1</ele><time>2021-05-20T12:19:53Z</time><name>PT7008</name></trkpt>
<trkpt lat="53.333459" lon="06.582511"><ele>0.9</ele><time>2021-05-20T12:19:54Z</time><name>PT7009</name></trkpt>
<trkpt lat="53.333471" lon="06.582511"><ele>0.7</ele><time>2021-05-20T12:19:55Z</time><name>PT7010</name></trkpt>
<trkpt lat="53.333485" lon="06.582510"><ele>0.6</ele><time>2021-05-20T12:19:56Z</time><name>PT7011</name></trkpt>
<trkpt lat="53.333496" lon="06.582506"><ele>0.5</ele><time>2021-05-20T12:19:57Z</time><name>PT7012</name></trkpt>
<trkpt lat="53.333505" lon="06.582503"><ele>0.4</ele><time>2021-05-20T12:19:58Z</time><name>PT7013</name></trkpt>
<trkpt lat="53.333515" lon="06.582501"><ele>0.2</ele><time>2021-05-20T12:19:59Z</time><name>PT7014</name></trkpt>
<trkpt lat="53.333534" lon="06.582496"><ele>0.2</ele><time>2021-05-20T12:20:00Z</time><name>PT7015</name></trkpt>
<trkpt lat="53.333545" lon="06.582495"><ele>0.3</ele><time>2021-05-20T12:20:01Z</time><name>PT7016</name></trkpt>
<trkpt lat="53.333554" lon="06.582495"><ele>0.3</ele><time>2021-05-20T12:20:02Z</time><name>PT7017</name></trkpt>
<trkpt lat="53.333564" lon="06.582494"><ele>0.2</ele><time>2021-05-20T12:20:03Z</time><name>PT7018</name></trkpt>
<trkpt lat="53.333573" lon="06.582489"><ele>0.3</ele><time>2021-05-20T12:20:04Z</time><name>PT7019</name></trkpt>
<trkpt lat="53.333581" lon="06.582486"><ele>0.2</ele><time>2021-05-20T12:20:05Z</time><name>PT7020</name></trkpt>
<trkpt lat="53.333589" lon="06.582484"><ele>0.3</ele><time>2021-05-20T12:20:06Z</time><name>PT7021</name></trkpt>
<trkpt lat="53.333599" lon="06.582482"><ele>0.2</ele><time>2021-05-20T12:20:07Z</time><name>PT7022</name></trkpt>
<trkpt lat="53.333609" lon="06.582479"><ele>0</ele><time>2021-05-20T12:20:08Z</time><name>PT7023</name></trkpt>
<trkpt lat="53.333618" lon="06.582475"><ele>0.1</ele><time>2021-05-20T12:20:09Z</time><name>PT7024</name></trkpt>
<trkpt lat="53.333629" lon="06.582468"><ele>0.2</ele><time>2021-05-20T12:20:10Z</time><name>PT7025</name></trkpt>
<trkpt lat="53.333639" lon="06.582463"><ele>0.1</ele><time>2021-05-20T12:20:11Z</time><name>PT7026</name></trkpt>
<trkpt lat="53.333648" lon="06.582459"><ele>0.2</ele><time>2021-05-20T12:20:12Z</time><name>PT7027</name></trkpt>
<trkpt lat="53.333659" lon="06.582458"><ele>0.3</ele><time>2021-05-20T12:20:13Z</time><name>PT7028</name></trkpt>
<trkpt lat="53.333668" lon="06.582456"><ele>0.3</ele><time>2021-05-20T12:20:14Z</time><name>PT7029</name></trkpt>
<trkpt lat="53.333675" lon="06.582454"><ele>0.3</ele><time>2021-05-20T12:20:15Z</time><name>PT7030</name></trkpt>
<trkpt lat="53.333686" lon="06.582450"><ele>0.4</ele><time>2021-05-20T12:20:16Z</time><name>PT7031</name></trkpt>
<trkpt lat="53.333698" lon="06.582445"><ele>0.4</ele><time>2021-05-20T12:20:17Z</time><name>PT7032</name></trkpt>
<trkpt lat="53.333707" lon="06.582440"><ele>0.4</ele><time>2021-05-20T12:20:18Z</time><name>PT7033</name></trkpt>
<trkpt lat="53.333715" lon="06.582434"><ele>0.4</ele><time>2021-05-20T12:20:19Z</time><name>PT7034</name></trkpt>
<trkpt lat="53.333725" lon="06.582430"><ele>0.2</ele><time>2021-05-20T12:20:20Z</time><name>PT7035</name></trkpt>
<trkpt lat="53.333734" lon="06.582428"><ele>0.3</ele><time>2021-05-20T12:20:22Z</time><name>PT7036</name></trkpt>
<trkpt lat="53.333742" lon="06.582427"><ele>0.2</ele><time>2021-05-20T12:20:22Z</time><name>PT7037</name></trkpt>
<trkpt lat="53.333750" lon="06.582422"><ele>0.3</ele><time>2021-05-20T12:20:23Z</time><name>PT7038</name></trkpt>
<trkpt lat="53.333758" lon="06.582416"><ele>0.3</ele><time>2021-05-20T12:20:24Z</time><name>PT7039</name></trkpt>
<trkpt lat="53.333767" lon="06.582414"><ele>0</ele><time>2021-05-20T12:20:25Z</time><name>PT7040</name></trkpt>
<trkpt lat="53.333779" lon="06.582407"><ele>0.1</ele><time>2021-05-20T12:20:26Z</time><name>PT7041</name></trkpt>
<trkpt lat="53.333789" lon="06.582401"><ele>0.1</ele><time>2021-05-20T12:20:27Z</time><name>PT7042</name></trkpt>
<trkpt lat="53.333798" lon="06.582397"><ele>0.2</ele><time>2021-05-20T12:20:28Z</time><name>PT7043</name></trkpt>
<trkpt lat="53.333809" lon="06.582394"><ele>0.3</ele><time>2021-05-20T12:20:29Z</time><name>PT7044</name></trkpt>
<trkpt lat="53.333819" lon="06.582390"><ele>0.4</ele><time>2021-05-20T12:20:30Z</time><name>PT7045</name></trkpt>
<trkpt lat="53.333826" lon="06.582389"><ele>0.5</ele><time>2021-05-20T12:20:31Z</time><name>PT7046</name></trkpt>
<trkpt lat="53.333834" lon="06.582386"><ele>0.4</ele><time>2021-05-20T12:20:32Z</time><name>PT7047</name></trkpt>
<trkpt lat="53.333846" lon="06.582381"><ele>0.2</ele><time>2021-05-20T12:20:33Z</time><name>PT7048</name></trkpt>
<trkpt lat="53.333858" lon="06.582374"><ele>0.3</ele><time>2021-05-20T12:20:34Z</time><name>PT7049</name></trkpt>
<trkpt lat="53.333869" lon="06.582368"><ele>0.3</ele><time>2021-05-20T12:20:35Z</time><name>PT7050</name></trkpt>
<trkpt lat="53.333875" lon="06.582361"><ele>0.3</ele><time>2021-05-20T12:20:36Z</time><name>PT7051</name></trkpt>
<trkpt lat="53.333884" lon="06.582360"><ele>0.5</ele><time>2021-05-20T12:20:37Z</time><name>PT7052</name></trkpt>
<trkpt lat="53.333896" lon="06.582361"><ele>0.6</ele><time>2021-05-20T12:20:38Z</time><name>PT7053</name></trkpt>
<trkpt lat="53.333909" lon="06.582361"><ele>0.7</ele><time>2021-05-20T12:20:39Z</time><name>PT7054</name></trkpt>
<trkpt lat="53.333922" lon="06.582357"><ele>0.7</ele><time>2021-05-20T12:20:40Z</time><name>PT7055</name></trkpt>
<trkpt lat="53.333934" lon="06.582351"><ele>0.7</ele><time>2021-05-20T12:20:41Z</time><name>PT7056</name></trkpt>
<trkpt lat="53.333942" lon="06.582349"><ele>0.7</ele><time>2021-05-20T12:20:42Z</time><name>PT7057</name></trkpt>
<trkpt lat="53.333948" lon="06.582348"><ele>0.7</ele><time>2021-05-20T12:20:43Z</time><name>PT7058</name></trkpt>
<trkpt lat="53.333955" lon="06.582347"><ele>0.7</ele><time>2021-05-20T12:20:44Z</time><name>PT7059</name></trkpt>
<trkpt lat="53.333967" lon="06.582348"><ele>0.6</ele><time>2021-05-20T12:20:45Z</time><name>PT7060</name></trkpt>
<trkpt lat="53.333979" lon="06.582352"><ele>0.7</ele><time>2021-05-20T12:20:46Z</time><name>PT7061</name></trkpt>
<trkpt lat="53.333991" lon="06.582357"><ele>0.7</ele><time>2021-05-20T12:20:47Z</time><name>PT7062</name></trkpt>
<trkpt lat="53.334007" lon="06.582364"><ele>0.8</ele><time>2021-05-20T12:20:48Z</time><name>PT7063</name></trkpt>
<trkpt lat="53.334020" lon="06.582366"><ele>-1.1</ele><time>2021-05-20T12:20:49Z</time><name>PT7064</name></trkpt>
<trkpt lat="53.334028" lon="06.582368"><ele>-1</ele><time>2021-05-20T12:20:50Z</time><name>PT7065</name></trkpt>
<trkpt lat="53.334038" lon="06.582372"><ele>-1.1</ele><time>2021-05-20T12:20:51Z</time><name>PT7066</name></trkpt>
<trkpt lat="53.334047" lon="06.582380"><ele>0.9</ele><time>2021-05-20T12:20:52Z</time><name>PT7067</name></trkpt>
<trkpt lat="53.334058" lon="06.582389"><ele>-1</ele><time>2021-05-20T12:20:53Z</time><name>PT7068</name></trkpt>
<trkpt lat="53.334068" lon="06.582400"><ele>-1</ele><time>2021-05-20T12:20:54Z</time><name>PT7069</name></trkpt>
<trkpt lat="53.334081" lon="06.582410"><ele>0.9</ele><time>2021-05-20T12:20:55Z</time><name>PT7070</name></trkpt>
<trkpt lat="53.334093" lon="06.582417"><ele>0.9</ele><time>2021-05-20T12:20:56Z</time><name>PT7071</name></trkpt>
<trkpt lat="53.334103" lon="06.582420"><ele>0.7</ele><time>2021-05-20T12:20:57Z</time><name>PT7072</name></trkpt>
<trkpt lat="53.334112" lon="06.582421"><ele>0.7</ele><time>2021-05-20T12:20:58Z</time><name>PT7073</name></trkpt>
<trkpt lat="53.334121" lon="06.582424"><ele>0.7</ele><time>2021-05-20T12:20:59Z</time><name>PT7074</name></trkpt>
<trkpt lat="53.334131" lon="06.582433"><ele>0.8</ele><time>2021-05-20T12:21:00Z</time><name>PT7075</name></trkpt>
<trkpt lat="53.334141" lon="06.582442"><ele>0.8</ele><time>2021-05-20T12:21:01Z</time><name>PT7076</name></trkpt>
<trkpt lat="53.334155" lon="06.582454"><ele>0.7</ele><time>2021-05-20T12:21:02Z</time><name>PT7077</name></trkpt>
<trkpt lat="53.334167" lon="06.582464"><ele>0.6</ele><time>2021-05-20T12:21:03Z</time><name>PT7078</name></trkpt>
<trkpt lat="53.334181" lon="06.582473"><ele>0.4</ele><time>2021-05-20T12:21:04Z</time><name>PT7079</name></trkpt>
<trkpt lat="53.334192" lon="06.582479"><ele>0.3</ele><time>2021-05-20T12:21:05Z</time><name>PT7080</name></trkpt>
<trkpt lat="53.334200" lon="06.582484"><ele>0.6</ele><time>2021-05-20T12:21:06Z</time><name>PT7081</name></trkpt>
<trkpt lat="53.334209" lon="06.582487"><ele>0.5</ele><time>2021-05-20T12:21:07Z</time><name>PT7082</name></trkpt>
<trkpt lat="53.334218" lon="06.582488"><ele>0.5</ele><time>2021-05-20T12:21:08Z</time><name>PT7083</name></trkpt>
<trkpt lat="53.334228" lon="06.582490"><ele>0.6</ele><time>2021-05-20T12:21:09Z</time><name>PT7084</name></trkpt>
<trkpt lat="53.334237" lon="06.582493"><ele>0.5</ele><time>2021-05-20T12:21:10Z</time><name>PT7085</name></trkpt>
<trkpt lat="53.334247" lon="06.582496"><ele>0.4</ele><time>2021-05-20T12:21:11Z</time><name>PT7086</name></trkpt>
<trkpt lat="53.334260" lon="06.582504"><ele>0.5</ele><time>2021-05-20T12:21:12Z</time><name>PT7087</name></trkpt>
<trkpt lat="53.334270" lon="06.582511"><ele>0.5</ele><time>2021-05-20T12:21:13Z</time><name>PT7088</name></trkpt>
<trkpt lat="53.334276" lon="06.582513"><ele>0.6</ele><time>2021-05-20T12:21:14Z</time><name>PT7089</name></trkpt>
<trkpt lat="53.334278" lon="06.582513"><ele>0.5</ele><time>2021-05-20T12:21:15Z</time><name>PT7090</name></trkpt>
<trkpt lat="53.334281" lon="06.582514"><ele>0.4</ele><time>2021-05-20T12:21:16Z</time><name>PT7091</name></trkpt>
<trkpt lat="53.334285" lon="06.582511"><ele>0.3</ele><time>2021-05-20T12:21:17Z</time><name>PT7092</name></trkpt>
<trkpt lat="53.334292" lon="06.582511"><ele>0.3</ele><time>2021-05-20T12:21:18Z</time><name>PT7093</name></trkpt>
<trkpt lat="53.334301" lon="06.582512"><ele>0.1</ele><time>2021-05-20T12:21:19Z</time><name>PT7094</name></trkpt>
<trkpt lat="53.334308" lon="06.582511"><ele>0.1</ele><time>2021-05-20T12:21:20Z</time><name>PT7095</name></trkpt>
<trkpt lat="53.334319" lon="06.582512"><ele>0</ele><time>2021-05-20T12:21:21Z</time><name>PT7096</name></trkpt>
<trkpt lat="53.334329" lon="06.582512"><ele>0.1</ele><time>2021-05-20T12:21:22Z</time><name>PT7097</name></trkpt>
<trkpt lat="53.334341" lon="06.582509"><ele>0.2</ele><time>2021-05-20T12:21:23Z</time><name>PT7098</name></trkpt>
<trkpt lat="53.334352" lon="06.582506"><ele>0.1</ele><time>2021-05-20T12:21:24Z</time><name>PT7099</name></trkpt>
<trkpt lat="53.334359" lon="06.582503"><ele>0</ele><time>2021-05-20T12:21:25Z</time><name>PT7100</name></trkpt>
<trkpt lat="53.334371" lon="06.582503"><ele>0</ele><time>2021-05-20T12:21:26Z</time><name>PT7101</name></trkpt>
<trkpt lat="53.334389" lon="06.582500"><ele>0.1</ele><time>2021-05-20T12:21:27Z</time><name>PT7102</name></trkpt>
<trkpt lat="53.334404" lon="06.582498"><ele>0.3</ele><time>2021-05-20T12:21:28Z</time><name>PT7103</name></trkpt>
<trkpt lat="53.334419" lon="06.582497"><ele>0.3</ele><time>2021-05-20T12:21:29Z</time><name>PT7104</name></trkpt>
<trkpt lat="53.334433" lon="06.582493"><ele>0.3</ele><time>2021-05-20T12:21:30Z</time><name>PT7105</name></trkpt>
<trkpt lat="53.334441" lon="06.582488"><ele>0.3</ele><time>2021-05-20T12:21:31Z</time><name>PT7106</name></trkpt>
<trkpt lat="53.334453" lon="06.582489"><ele>0.4</ele><time>2021-05-20T12:21:32Z</time><name>PT7107</name></trkpt>
<trkpt lat="53.334466" lon="06.582486"><ele>0.3</ele><time>2021-05-20T12:21:33Z</time><name>PT7108</name></trkpt>
<trkpt lat="53.334476" lon="06.582482"><ele>0.3</ele><time>2021-05-20T12:21:34Z</time><name>PT7109</name></trkpt>
<trkpt lat="53.334487" lon="06.582478"><ele>0</ele><time>2021-05-20T12:21:35Z</time><name>PT7110</name></trkpt>
<trkpt lat="53.334495" lon="06.582473"><ele>0.1</ele><time>2021-05-20T12:21:36Z</time><name>PT7111</name></trkpt>
<trkpt lat="53.334504" lon="06.582468"><ele>0.3</ele><time>2021-05-20T12:21:37Z</time><name>PT7112</name></trkpt>
<trkpt lat="53.334515" lon="06.582462"><ele>0.3</ele><time>2021-05-20T12:21:38Z</time><name>PT7113</name></trkpt>
<trkpt lat="53.334526" lon="06.582455"><ele>0.1</ele><time>2021-05-20T12:21:39Z</time><name>PT7114</name></trkpt>
<trkpt lat="53.334541" lon="06.582455"><ele>0.1</ele><time>2021-05-20T12:21:40Z</time><name>PT7115</name></trkpt>
<trkpt lat="53.334557" lon="06.582456"><ele>0.4</ele><time>2021-05-20T12:21:41Z</time><name>PT7116</name></trkpt>
<trkpt lat="53.334573" lon="06.582453"><ele>0.5</ele><time>2021-05-20T12:21:42Z</time><name>PT7117</name></trkpt>
<trkpt lat="53.334585" lon="06.582448"><ele>0.7</ele><time>2021-05-20T12:21:43Z</time><name>PT7118</name></trkpt>
<trkpt lat="53.334596" lon="06.582441"><ele>0.7</ele><time>2021-05-20T12:21:44Z</time><name>PT7119</name></trkpt>
<trkpt lat="53.334602" lon="06.582437"><ele>0.7</ele><time>2021-05-20T12:21:45Z</time><name>PT7120</name></trkpt>
<trkpt lat="53.334609" lon="06.582430"><ele>0.6</ele><time>2021-05-20T12:21:46Z</time><name>PT7121</name></trkpt>
<trkpt lat="53.334617" lon="06.582426"><ele>0.7</ele><time>2021-05-20T12:21:47Z</time><name>PT7122</name></trkpt>
<trkpt lat="53.334628" lon="06.582423"><ele>0.7</ele><time>2021-05-20T12:21:48Z</time><name>PT7123</name></trkpt>
<trkpt lat="53.334643" lon="06.582421"><ele>0.7</ele><time>2021-05-20T12:21:49Z</time><name>PT7124</name></trkpt>
<trkpt lat="53.334654" lon="06.582417"><ele>0.7</ele><time>2021-05-20T12:21:50Z</time><name>PT7125</name></trkpt>
<trkpt lat="53.334660" lon="06.582412"><ele>0.7</ele><time>2021-05-20T12:21:51Z</time><name>PT7126</name></trkpt>
<trkpt lat="53.334666" lon="06.582408"><ele>0.8</ele><time>2021-05-20T12:21:52Z</time><name>PT7127</name></trkpt>
<trkpt lat="53.334676" lon="06.582405"><ele>0.9</ele><time>2021-05-20T12:21:53Z</time><name>PT7128</name></trkpt>
<trkpt lat="53.334689" lon="06.582401"><ele>0.8</ele><time>2021-05-20T12:21:54Z</time><name>PT7129</name></trkpt>
<trkpt lat="53.334704" lon="06.582398"><ele>0.7</ele><time>2021-05-20T12:21:55Z</time><name>PT7130</name></trkpt>
<trkpt lat="53.334719" lon="06.582395"><ele>0.7</ele><time>2021-05-20T12:21:56Z</time><name>PT7131</name></trkpt>
<trkpt lat="53.334728" lon="06.582391"><ele>0.4</ele><time>2021-05-20T12:21:57Z</time><name>PT7132</name></trkpt>
<trkpt lat="53.334736" lon="06.582386"><ele>0.3</ele><time>2021-05-20T12:21:58Z</time><name>PT7133</name></trkpt>
<trkpt lat="53.334745" lon="06.582383"><ele>0.1</ele><time>2021-05-20T12:21:59Z</time><name>PT7134</name></trkpt>
<trkpt lat="53.334753" lon="06.582385"><ele>0.2</ele><time>2021-05-20T12:22:00Z</time><name>PT7135</name></trkpt>
<trkpt lat="53.334765" lon="06.582386"><ele>0.3</ele><time>2021-05-20T12:22:01Z</time><name>PT7136</name></trkpt>
<trkpt lat="53.334780" lon="06.582392"><ele>0.4</ele><time>2021-05-20T12:22:02Z</time><name>PT7137</name></trkpt>
<trkpt lat="53.334794" lon="06.582396"><ele>0.5</ele><time>2021-05-20T12:22:03Z</time><name>PT7138</name></trkpt>
<trkpt lat="53.334803" lon="06.582395"><ele>0.6</ele><time>2021-05-20T12:22:04Z</time><name>PT7139</name></trkpt>
<trkpt lat="53.334811" lon="06.582393"><ele>0.6</ele><time>2021-05-20T12:22:05Z</time><name>PT7140</name></trkpt>
<trkpt lat="53.334820" lon="06.582392"><ele>0.7</ele><time>2021-05-20T12:22:06Z</time><name>PT7141</name></trkpt>
<trkpt lat="53.334828" lon="06.582393"><ele>0.7</ele><time>2021-05-20T12:22:07Z</time><name>PT7142</name></trkpt>
<trkpt lat="53.334840" lon="06.582396"><ele>0.7</ele><time>2021-05-20T12:22:08Z</time><name>PT7143</name></trkpt>
<trkpt lat="53.334853" lon="06.582399"><ele>0.7</ele><time>2021-05-20T12:22:09Z</time><name>PT7144</name></trkpt>
<trkpt lat="53.334865" lon="06.582402"><ele>0.7</ele><time>2021-05-20T12:22:10Z</time><name>PT7145</name></trkpt>
<trkpt lat="53.334876" lon="06.582403"><ele>0.6</ele><time>2021-05-20T12:22:11Z</time><name>PT7146</name></trkpt>
<trkpt lat="53.334884" lon="06.582402"><ele>0.7</ele><time>2021-05-20T12:22:12Z</time><name>PT7147</name></trkpt>
<trkpt lat="53.334890" lon="06.582401"><ele>-1</ele><time>2021-05-20T12:22:13Z</time><name>PT7148</name></trkpt>
<trkpt lat="53.334894" lon="06.582401"><ele>-1.2</ele><time>2021-05-20T12:22:14Z</time><name>PT7149</name></trkpt>
<trkpt lat="53.334898" lon="06.582400"><ele>-1.2</ele><time>2021-05-20T12:22:15Z</time><name>PT7150</name></trkpt>
<trkpt lat="53.334905" lon="06.582396"><ele>0.9</ele><time>2021-05-20T12:22:19Z</time><name>PT7151</name></trkpt>
<trkpt lat="53.334921" lon="06.582394"><ele>0.8</ele><time>2021-05-20T12:22:20Z</time><name>PT7152</name></trkpt>
<trkpt lat="53.334935" lon="06.582392"><ele>0.8</ele><time>2021-05-20T12:22:21Z</time><name>PT7153</name></trkpt>
<trkpt lat="53.334942" lon="06.582389"><ele>0.7</ele><time>2021-05-20T12:22:22Z</time><name>PT7154</name></trkpt>
<trkpt lat="53.334949" lon="06.582385"><ele>0.7</ele><time>2021-05-20T12:22:23Z</time><name>PT7155</name></trkpt>
<trkpt lat="53.334958" lon="06.582384"><ele>0.7</ele><time>2021-05-20T12:22:24Z</time><name>PT7156</name></trkpt>
<trkpt lat="53.334969" lon="06.582386"><ele>0.9</ele><time>2021-05-20T12:22:25Z</time><name>PT7157</name></trkpt>
<trkpt lat="53.334982" lon="06.582388"><ele>0.8</ele><time>2021-05-20T12:22:26Z</time><name>PT7158</name></trkpt>
<trkpt lat="53.334997" lon="06.582388"><ele>0.7</ele><time>2021-05-20T12:22:27Z</time><name>PT7159</name></trkpt>
<trkpt lat="53.335010" lon="06.582387"><ele>0.5</ele><time>2021-05-20T12:22:28Z</time><name>PT7160</name></trkpt>
<trkpt lat="53.335021" lon="06.582382"><ele>0.5</ele><time>2021-05-20T12:22:29Z</time><name>PT7161</name></trkpt>
<trkpt lat="53.335031" lon="06.582379"><ele>0.3</ele><time>2021-05-20T12:22:30Z</time><name>PT7162</name></trkpt>
<trkpt lat="53.335040" lon="06.582378"><ele>0.4</ele><time>2021-05-20T12:22:31Z</time><name>PT7163</name></trkpt>
<trkpt lat="53.335048" lon="06.582374"><ele>0.4</ele><time>2021-05-20T12:22:32Z</time><name>PT7164</name></trkpt>
<trkpt lat="53.335058" lon="06.582372"><ele>0.4</ele><time>2021-05-20T12:22:33Z</time><name>PT7165</name></trkpt>
<trkpt lat="53.335071" lon="06.582372"><ele>0.7</ele><time>2021-05-20T12:22:34Z</time><name>PT7166</name></trkpt>
<trkpt lat="53.335086" lon="06.582372"><ele>0.7</ele><time>2021-05-20T12:22:35Z</time><name>PT7167</name></trkpt>
<trkpt lat="53.335094" lon="06.582372"><ele>0.9</ele><time>2021-05-20T12:22:36Z</time><name>PT7168</name></trkpt>
<trkpt lat="53.335098" lon="06.582380"><ele>0.8</ele><time>2021-05-20T12:22:37Z</time><name>PT7169</name></trkpt>
<trkpt lat="53.335099" lon="06.582399"><ele>0.7</ele><time>2021-05-20T12:22:38Z</time><name>PT7170</name></trkpt>
<trkpt lat="53.335104" lon="06.582424"><ele>0.7</ele><time>2021-05-20T12:22:39Z</time><name>PT7171</name></trkpt>
<trkpt lat="53.335110" lon="06.582448"><ele>0.3</ele><time>2021-05-20T12:22:40Z</time><name>PT7172</name></trkpt>
<trkpt lat="53.335113" lon="06.582467"><ele>0.2</ele><time>2021-05-20T12:22:41Z</time><name>PT7173</name></trkpt>
<trkpt lat="53.335117" lon="06.582479"><ele>0.3</ele><time>2021-05-20T12:22:42Z</time><name>PT7174</name></trkpt>
<trkpt lat="53.335120" lon="06.582486"><ele>0.4</ele><time>2021-05-20T12:22:43Z</time><name>PT7175</name></trkpt>
<trkpt lat="53.335122" lon="06.582494"><ele>0.4</ele><time>2021-05-20T12:22:44Z</time><name>PT7176</name></trkpt>
<trkpt lat="53.335124" lon="06.582510"><ele>0.6</ele><time>2021-05-20T12:22:45Z</time><name>PT7177</name></trkpt>
<trkpt lat="53.335124" lon="06.582533"><ele>0.5</ele><time>2021-05-20T12:22:46Z</time><name>PT7178</name></trkpt>
<trkpt lat="53.335124" lon="06.582557"><ele>0.3</ele><time>2021-05-20T12:22:47Z</time><name>PT7179</name></trkpt>
<trkpt lat="53.335125" lon="06.582573"><ele>0.3</ele><time>2021-05-20T12:22:48Z</time><name>PT7180</name></trkpt>
<trkpt lat="53.335128" lon="06.582585"><ele>0.4</ele><time>2021-05-20T12:22:49Z</time><name>PT7181</name></trkpt>
<trkpt lat="53.335130" lon="06.582593"><ele>0.3</ele><time>2021-05-20T12:22:50Z</time><name>PT7182</name></trkpt>
<trkpt lat="53.335132" lon="06.582604"><ele>0.4</ele><time>2021-05-20T12:22:51Z</time><name>PT7183</name></trkpt>
<trkpt lat="53.335132" lon="06.582613"><ele>0.6</ele><time>2021-05-20T12:22:52Z</time><name>PT7184</name></trkpt>
<trkpt lat="53.335132" lon="06.582630"><ele>0.5</ele><time>2021-05-20T12:22:53Z</time><name>PT7185</name></trkpt>
<trkpt lat="53.335133" lon="06.582653"><ele>0.4</ele><time>2021-05-20T12:22:54Z</time><name>PT7186</name></trkpt>
<trkpt lat="53.335134" lon="06.582678"><ele>0.6</ele><time>2021-05-20T12:22:55Z</time><name>PT7187</name></trkpt>
<trkpt lat="53.335135" lon="06.582697"><ele>0.7</ele><time>2021-05-20T12:22:56Z</time><name>PT7188</name></trkpt>
<trkpt lat="53.335137" lon="06.582712"><ele>0.7</ele><time>2021-05-20T12:22:57Z</time><name>PT7189</name></trkpt>
<trkpt lat="53.335139" lon="06.582723"><ele>0.7</ele><time>2021-05-20T12:22:58Z</time><name>PT7190</name></trkpt>
<trkpt lat="53.335142" lon="06.582737"><ele>0.8</ele><time>2021-05-20T12:22:59Z</time><name>PT7191</name></trkpt>
<trkpt lat="53.335142" lon="06.582755"><ele>0.7</ele><time>2021-05-20T12:23:00Z</time><name>PT7192</name></trkpt>
<trkpt lat="53.335141" lon="06.582780"><ele>0.6</ele><time>2021-05-20T12:23:01Z</time><name>PT7193</name></trkpt>
<trkpt lat="53.335142" lon="06.582808"><ele>0.5</ele><time>2021-05-20T12:23:02Z</time><name>PT7194</name></trkpt>
<trkpt lat="53.335145" lon="06.582837"><ele>0.4</ele><time>2021-05-20T12:23:03Z</time><name>PT7195</name></trkpt>
<trkpt lat="53.335147" lon="06.582858"><ele>0.4</ele><time>2021-05-20T12:23:04Z</time><name>PT7196</name></trkpt>
<trkpt lat="53.335150" lon="06.582873"><ele>0.4</ele><time>2021-05-20T12:23:05Z</time><name>PT7197</name></trkpt>
<trkpt lat="53.335148" lon="06.582895"><ele>0.6</ele><time>2021-05-20T12:23:06Z</time><name>PT7198</name></trkpt>
<trkpt lat="53.335149" lon="06.582915"><ele>0.7</ele><time>2021-05-20T12:23:07Z</time><name>PT7199</name></trkpt>
<trkpt lat="53.335150" lon="06.582931"><ele>0.6</ele><time>2021-05-20T12:23:08Z</time><name>PT7200</name></trkpt>
<trkpt lat="53.335152" lon="06.582940"><ele>0.4</ele><time>2021-05-20T12:23:09Z</time><name>PT7201</name></trkpt>
<trkpt lat="53.335152" lon="06.582959"><ele>0.4</ele><time>2021-05-20T12:23:10Z</time><name>PT7202</name></trkpt>
<trkpt lat="53.335153" lon="06.582987"><ele>0.5</ele><time>2021-05-20T12:23:11Z</time><name>PT7203</name></trkpt>
<trkpt lat="53.335154" lon="06.583015"><ele>0.5</ele><time>2021-05-20T12:23:12Z</time><name>PT7204</name></trkpt>
<trkpt lat="53.335154" lon="06.583041"><ele>0.6</ele><time>2021-05-20T12:23:13Z</time><name>PT7205</name></trkpt>
<trkpt lat="53.335155" lon="06.583059"><ele>0.5</ele><time>2021-05-20T12:23:14Z</time><name>PT7206</name></trkpt>
<trkpt lat="53.335156" lon="06.583072"><ele>0.4</ele><time>2021-05-20T12:23:15Z</time><name>PT7207</name></trkpt>
<trkpt lat="53.335158" lon="06.583086"><ele>0.4</ele><time>2021-05-20T12:23:16Z</time><name>PT7208</name></trkpt>
<trkpt lat="53.335159" lon="06.583098"><ele>0.5</ele><time>2021-05-20T12:23:17Z</time><name>PT7209</name></trkpt>
<trkpt lat="53.335160" lon="06.583114"><ele>0.4</ele><time>2021-05-20T12:23:18Z</time><name>PT7210</name></trkpt>
<trkpt lat="53.335159" lon="06.583133"><ele>0.4</ele><time>2021-05-20T12:23:19Z</time><name>PT7211</name></trkpt>
<trkpt lat="53.335158" lon="06.583160"><ele>0.4</ele><time>2021-05-20T12:23:20Z</time><name>PT7212</name></trkpt>
<trkpt lat="53.335156" lon="06.583184"><ele>0.3</ele><time>2021-05-20T12:23:21Z</time><name>PT7213</name></trkpt>
<trkpt lat="53.335157" lon="06.583204"><ele>0.3</ele><time>2021-05-20T12:23:22Z</time><name>PT7214</name></trkpt>
<trkpt lat="53.335158" lon="06.583216"><ele>0.4</ele><time>2021-05-20T12:23:23Z</time><name>PT7215</name></trkpt>
<trkpt lat="53.335161" lon="06.583227"><ele>0.5</ele><time>2021-05-20T12:23:24Z</time><name>PT7216</name></trkpt>
<trkpt lat="53.335162" lon="06.583242"><ele>0.6</ele><time>2021-05-20T12:23:25Z</time><name>PT7217</name></trkpt>
<trkpt lat="53.335161" lon="06.583261"><ele>0.6</ele><time>2021-05-20T12:23:26Z</time><name>PT7218</name></trkpt>
<trkpt lat="53.335159" lon="06.583283"><ele>0.7</ele><time>2021-05-20T12:23:27Z</time><name>PT7219</name></trkpt>
<trkpt lat="53.335157" lon="06.583304"><ele>0.8</ele><time>2021-05-20T12:23:28Z</time><name>PT7220</name></trkpt>
<trkpt lat="53.335158" lon="06.583319"><ele>0.7</ele><time>2021-05-20T12:23:29Z</time><name>PT7221</name></trkpt>
<trkpt lat="53.335160" lon="06.583333"><ele>0.7</ele><time>2021-05-20T12:23:30Z</time><name>PT7222</name></trkpt>
<trkpt lat="53.335161" lon="06.583349"><ele>0.6</ele><time>2021-05-20T12:23:31Z</time><name>PT7223</name></trkpt>
<trkpt lat="53.335161" lon="06.583372"><ele>0.5</ele><time>2021-05-20T12:23:32Z</time><name>PT7224</name></trkpt>
<trkpt lat="53.335159" lon="06.583395"><ele>0.4</ele><time>2021-05-20T12:23:33Z</time><name>PT7225</name></trkpt>
<trkpt lat="53.335161" lon="06.583416"><ele>0.3</ele><time>2021-05-20T12:23:34Z</time><name>PT7226</name></trkpt>
<trkpt lat="53.335164" lon="06.583431"><ele>0.5</ele><time>2021-05-20T12:23:35Z</time><name>PT7227</name></trkpt>
<trkpt lat="53.335165" lon="06.583442"><ele>0.4</ele><time>2021-05-20T12:23:36Z</time><name>PT7228</name></trkpt>
<trkpt lat="53.335165" lon="06.583456"><ele>0.4</ele><time>2021-05-20T12:23:37Z</time><name>PT7229</name></trkpt>
<trkpt lat="53.335163" lon="06.583474"><ele>0.7</ele><time>2021-05-20T12:23:38Z</time><name>PT7230</name></trkpt>
<trkpt lat="53.335160" lon="06.583498"><ele>0.7</ele><time>2021-05-20T12:23:39Z</time><name>PT7231</name></trkpt>
<trkpt lat="53.335159" lon="06.583519"><ele>0.7</ele><time>2021-05-20T12:23:40Z</time><name>PT7232</name></trkpt>
<trkpt lat="53.335159" lon="06.583535"><ele>0.7</ele><time>2021-05-20T12:23:41Z</time><name>PT7233</name></trkpt>
<trkpt lat="53.335160" lon="06.583546"><ele>0.6</ele><time>2021-05-20T12:23:42Z</time><name>PT7234</name></trkpt>
<trkpt lat="53.335160" lon="06.583558"><ele>0.4</ele><time>2021-05-20T12:23:43Z</time><name>PT7235</name></trkpt>
<trkpt lat="53.335159" lon="06.583580"><ele>0.4</ele><time>2021-05-20T12:23:44Z</time><name>PT7236</name></trkpt>
<trkpt lat="53.335156" lon="06.583606"><ele>0.5</ele><time>2021-05-20T12:23:45Z</time><name>PT7237</name></trkpt>
<trkpt lat="53.335155" lon="06.583628"><ele>0.4</ele><time>2021-05-20T12:23:46Z</time><name>PT7238</name></trkpt>
<trkpt lat="53.335155" lon="06.583644"><ele>0.4</ele><time>2021-05-20T12:23:47Z</time><name>PT7239</name></trkpt>
<trkpt lat="53.335156" lon="06.583656"><ele>0.3</ele><time>2021-05-20T12:23:48Z</time><name>PT7240</name></trkpt>
<trkpt lat="53.335154" lon="06.583672"><ele>0.3</ele><time>2021-05-20T12:23:49Z</time><name>PT7241</name></trkpt>
<trkpt lat="53.335152" lon="06.583694"><ele>0.2</ele><time>2021-05-20T12:23:50Z</time><name>PT7242</name></trkpt>
<trkpt lat="53.335150" lon="06.583720"><ele>0.3</ele><time>2021-05-20T12:23:52Z</time><name>PT7243</name></trkpt>
<trkpt lat="53.335150" lon="06.583740"><ele>0.3</ele><time>2021-05-20T12:23:52Z</time><name>PT7244</name></trkpt>
<trkpt lat="53.335151" lon="06.583755"><ele>0.5</ele><time>2021-05-20T12:23:53Z</time><name>PT7245</name></trkpt>
<trkpt lat="53.335152" lon="06.583767"><ele>0.5</ele><time>2021-05-20T12:23:54Z</time><name>PT7246</name></trkpt>
<trkpt lat="53.335153" lon="06.583780"><ele>0.6</ele><time>2021-05-20T12:23:55Z</time><name>PT7247</name></trkpt>
<trkpt lat="53.335152" lon="06.583801"><ele>0.7</ele><time>2021-05-20T12:23:56Z</time><name>PT7248</name></trkpt>
<trkpt lat="53.335149" lon="06.583824"><ele>0.6</ele><time>2021-05-20T12:23:57Z</time><name>PT7249</name></trkpt>
<trkpt lat="53.335149" lon="06.583844"><ele>0.7</ele><time>2021-05-20T12:23:58Z</time><name>PT7250</name></trkpt>
<trkpt lat="53.335151" lon="06.583859"><ele>0.7</ele><time>2021-05-20T12:23:59Z</time><name>PT7251</name></trkpt>
<trkpt lat="53.335153" lon="06.583869"><ele>0.6</ele><time>2021-05-20T12:24:00Z</time><name>PT7252</name></trkpt>
<trkpt lat="53.335155" lon="06.583884"><ele>0.5</ele><time>2021-05-20T12:24:01Z</time><name>PT7253</name></trkpt>
<trkpt lat="53.335155" lon="06.583903"><ele>0.6</ele><time>2021-05-20T12:24:02Z</time><name>PT7254</name></trkpt>
<trkpt lat="53.335153" lon="06.583927"><ele>0.4</ele><time>2021-05-20T12:24:03Z</time><name>PT7255</name></trkpt>
<trkpt lat="53.335153" lon="06.583951"><ele>0.6</ele><time>2021-05-20T12:24:04Z</time><name>PT7256</name></trkpt>
<trkpt lat="53.335154" lon="06.583965"><ele>0.5</ele><time>2021-05-20T12:24:05Z</time><name>PT7257</name></trkpt>
<trkpt lat="53.335155" lon="06.583975"><ele>0.7</ele><time>2021-05-20T12:24:06Z</time><name>PT7258</name></trkpt>
<trkpt lat="53.335154" lon="06.583986"><ele>0.7</ele><time>2021-05-20T12:24:07Z</time><name>PT7259</name></trkpt>
<trkpt lat="53.335152" lon="06.584009"><ele>0.7</ele><time>2021-05-20T12:24:08Z</time><name>PT7260</name></trkpt>
<trkpt lat="53.335154" lon="06.584036"><ele>0.7</ele><time>2021-05-20T12:24:09Z</time><name>PT7261</name></trkpt>
<trkpt lat="53.335154" lon="06.584054"><ele>0.5</ele><time>2021-05-20T12:24:10Z</time><name>PT7262</name></trkpt>
<trkpt lat="53.335155" lon="06.584065"><ele>0.3</ele><time>2021-05-20T12:24:11Z</time><name>PT7263</name></trkpt>
<trkpt lat="53.335157" lon="06.584076"><ele>0.3</ele><time>2021-05-20T12:24:12Z</time><name>PT7264</name></trkpt>
<trkpt lat="53.335156" lon="06.584091"><ele>0.4</ele><time>2021-05-20T12:24:13Z</time><name>PT7265</name></trkpt>
<trkpt lat="53.335157" lon="06.584116"><ele>0.4</ele><time>2021-05-20T12:24:14Z</time><name>PT7266</name></trkpt>
<trkpt lat="53.335158" lon="06.584144"><ele>0.6</ele><time>2021-05-20T12:24:15Z</time><name>PT7267</name></trkpt>
<trkpt lat="53.335158" lon="06.584168"><ele>0.9</ele><time>2021-05-20T12:24:16Z</time><name>PT7268</name></trkpt>
<trkpt lat="53.335158" lon="06.584192"><ele>0.7</ele><time>2021-05-20T12:24:17Z</time><name>PT7269</name></trkpt>
<trkpt lat="53.335159" lon="06.584202"><ele>0.9</ele><time>2021-05-20T12:24:18Z</time><name>PT7270</name></trkpt>
<trkpt lat="53.335161" lon="06.584209"><ele>0.8</ele><time>2021-05-20T12:24:19Z</time><name>PT7271</name></trkpt>
<trkpt lat="53.335161" lon="06.584219"><ele>0.6</ele><time>2021-05-20T12:24:20Z</time><name>PT7272</name></trkpt>
<trkpt lat="53.335161" lon="06.584238"><ele>0.5</ele><time>2021-05-20T12:24:21Z</time><name>PT7273</name></trkpt>
<trkpt lat="53.335161" lon="06.584265"><ele>0.4</ele><time>2021-05-20T12:24:22Z</time><name>PT7274</name></trkpt>
<trkpt lat="53.335161" lon="06.584293"><ele>0.4</ele><time>2021-05-20T12:24:23Z</time><name>PT7275</name></trkpt>
<trkpt lat="53.335159" lon="06.584318"><ele>0.5</ele><time>2021-05-20T12:24:24Z</time><name>PT7276</name></trkpt>
<trkpt lat="53.335160" lon="06.584336"><ele>0.7</ele><time>2021-05-20T12:24:25Z</time><name>PT7277</name></trkpt>
<trkpt lat="53.335162" lon="06.584352"><ele>0.7</ele><time>2021-05-20T12:24:26Z</time><name>PT7278</name></trkpt>
<trkpt lat="53.335163" lon="06.584364"><ele>0.6</ele><time>2021-05-20T12:24:27Z</time><name>PT7279</name></trkpt>
<trkpt lat="53.335163" lon="06.584376"><ele>0.6</ele><time>2021-05-20T12:24:28Z</time><name>PT7280</name></trkpt>
<trkpt lat="53.335161" lon="06.584386"><ele>0.7</ele><time>2021-05-20T12:24:29Z</time><name>PT7281</name></trkpt>
<trkpt lat="53.335161" lon="06.584406"><ele>0.7</ele><time>2021-05-20T12:24:30Z</time><name>PT7282</name></trkpt>
<trkpt lat="53.335157" lon="06.584427"><ele>0.9</ele><time>2021-05-20T12:24:31Z</time><name>PT7283</name></trkpt>
<trkpt lat="53.335154" lon="06.584450"><ele>0.9</ele><time>2021-05-20T12:24:32Z</time><name>PT7284</name></trkpt>
<trkpt lat="53.335155" lon="06.584471"><ele>0.9</ele><time>2021-05-20T12:24:33Z</time><name>PT7285</name></trkpt>
<trkpt lat="53.335156" lon="06.584487"><ele>0.7</ele><time>2021-05-20T12:24:34Z</time><name>PT7286</name></trkpt>
<trkpt lat="53.335157" lon="06.584498"><ele>0.7</ele><time>2021-05-20T12:24:35Z</time><name>PT7287</name></trkpt>
<trkpt lat="53.335158" lon="06.584508"><ele>0.7</ele><time>2021-05-20T12:24:36Z</time><name>PT7288</name></trkpt>
<trkpt lat="53.335159" lon="06.584519"><ele>0.7</ele><time>2021-05-20T12:24:37Z</time><name>PT7289</name></trkpt>
<trkpt lat="53.335162" lon="06.584540"><ele>0.7</ele><time>2021-05-20T12:24:38Z</time><name>PT7290</name></trkpt>
<trkpt lat="53.335164" lon="06.584564"><ele>0.8</ele><time>2021-05-20T12:24:39Z</time><name>PT7291</name></trkpt>
<trkpt lat="53.335166" lon="06.584582"><ele>0.7</ele><time>2021-05-20T12:24:40Z</time><name>PT7292</name></trkpt>
<trkpt lat="53.335167" lon="06.584598"><ele>0.8</ele><time>2021-05-20T12:24:41Z</time><name>PT7293</name></trkpt>
<trkpt lat="53.335168" lon="06.584611"><ele>0.8</ele><time>2021-05-20T12:24:42Z</time><name>PT7294</name></trkpt>
<trkpt lat="53.335168" lon="06.584628"><ele>0.8</ele><time>2021-05-20T12:24:43Z</time><name>PT7295</name></trkpt>
<trkpt lat="53.335167" lon="06.584652"><ele>0.7</ele><time>2021-05-20T12:24:44Z</time><name>PT7296</name></trkpt>
<trkpt lat="53.335169" lon="06.584677"><ele>0.7</ele><time>2021-05-20T12:24:45Z</time><name>PT7297</name></trkpt>
<trkpt lat="53.335171" lon="06.584695"><ele>0.6</ele><time>2021-05-20T12:24:46Z</time><name>PT7298</name></trkpt>
<trkpt lat="53.335172" lon="06.584707"><ele>0.4</ele><time>2021-05-20T12:24:47Z</time><name>PT7299</name></trkpt>
<trkpt lat="53.335173" lon="06.584718"><ele>0.3</ele><time>2021-05-20T12:24:48Z</time><name>PT7300</name></trkpt>
<trkpt lat="53.335174" lon="06.584733"><ele>0.3</ele><time>2021-05-20T12:24:49Z</time><name>PT7301</name></trkpt>
<trkpt lat="53.335175" lon="06.584750"><ele>0.3</ele><time>2021-05-20T12:24:50Z</time><name>PT7302</name></trkpt>
<trkpt lat="53.335176" lon="06.584772"><ele>0.3</ele><time>2021-05-20T12:24:51Z</time><name>PT7303</name></trkpt>
<trkpt lat="53.335176" lon="06.584789"><ele>0.3</ele><time>2021-05-20T12:24:52Z</time><name>PT7304</name></trkpt>
<trkpt lat="53.335177" lon="06.584801"><ele>0.4</ele><time>2021-05-20T12:24:53Z</time><name>PT7305</name></trkpt>
<trkpt lat="53.335178" lon="06.584812"><ele>0.4</ele><time>2021-05-20T12:24:54Z</time><name>PT7306</name></trkpt>
<trkpt lat="53.335178" lon="06.584824"><ele>0.3</ele><time>2021-05-20T12:24:55Z</time><name>PT7307</name></trkpt>
<trkpt lat="53.335176" lon="06.584845"><ele>0.1</ele><time>2021-05-20T12:24:56Z</time><name>PT7308</name></trkpt>
<trkpt lat="53.335177" lon="06.584867"><ele>0.2</ele><time>2021-05-20T12:24:57Z</time><name>PT7309</name></trkpt>
<trkpt lat="53.335180" lon="06.584884"><ele>0.2</ele><time>2021-05-20T12:24:58Z</time><name>PT7310</name></trkpt>
<trkpt lat="53.335183" lon="06.584895"><ele>0.3</ele><time>2021-05-20T12:24:59Z</time><name>PT7311</name></trkpt>
<trkpt lat="53.335183" lon="06.584907"><ele>0.5</ele><time>2021-05-20T12:25:00Z</time><name>PT7312</name></trkpt>
<trkpt lat="53.335185" lon="06.584923"><ele>0.7</ele><time>2021-05-20T12:25:01Z</time><name>PT7313</name></trkpt>
<trkpt lat="53.335184" lon="06.584943"><ele>0.7</ele><time>2021-05-20T12:25:02Z</time><name>PT7314</name></trkpt>
<trkpt lat="53.335185" lon="06.584967"><ele>0.7</ele><time>2021-05-20T12:25:03Z</time><name>PT7315</name></trkpt>
<trkpt lat="53.335185" lon="06.584986"><ele>0.7</ele><time>2021-05-20T12:25:04Z</time><name>PT7316</name></trkpt>
<trkpt lat="53.335186" lon="06.585001"><ele>0.5</ele><time>2021-05-20T12:25:05Z</time><name>PT7317</name></trkpt>
<trkpt lat="53.335187" lon="06.585010"><ele>0.4</ele><time>2021-05-20T12:25:06Z</time><name>PT7318</name></trkpt>
<trkpt lat="53.335188" lon="06.585024"><ele>0.4</ele><time>2021-05-20T12:25:07Z</time><name>PT7319</name></trkpt>
<trkpt lat="53.335190" lon="06.585047"><ele>0.3</ele><time>2021-05-20T12:25:08Z</time><name>PT7320</name></trkpt>
<trkpt lat="53.335191" lon="06.585073"><ele>0.6</ele><time>2021-05-20T12:25:09Z</time><name>PT7321</name></trkpt>
<trkpt lat="53.335193" lon="06.585091"><ele>0.4</ele><time>2021-05-20T12:25:10Z</time><name>PT7322</name></trkpt>
<trkpt lat="53.335195" lon="06.585103"><ele>0.4</ele><time>2021-05-20T12:25:11Z</time><name>PT7323</name></trkpt>
<trkpt lat="53.335196" lon="06.585115"><ele>0.3</ele><time>2021-05-20T12:25:12Z</time><name>PT7324</name></trkpt>
<trkpt lat="53.335196" lon="06.585129"><ele>0.3</ele><time>2021-05-20T12:25:13Z</time><name>PT7325</name></trkpt>
<trkpt lat="53.335195" lon="06.585150"><ele>0.4</ele><time>2021-05-20T12:25:14Z</time><name>PT7326</name></trkpt>
<trkpt lat="53.335196" lon="06.585176"><ele>0.5</ele><time>2021-05-20T12:25:15Z</time><name>PT7327</name></trkpt>
<trkpt lat="53.335196" lon="06.585199"><ele>0.6</ele><time>2021-05-20T12:25:16Z</time><name>PT7328</name></trkpt>
<trkpt lat="53.335196" lon="06.585215"><ele>0.7</ele><time>2021-05-20T12:25:17Z</time><name>PT7329</name></trkpt>
<trkpt lat="53.335197" lon="06.585226"><ele>0.6</ele><time>2021-05-20T12:25:18Z</time><name>PT7330</name></trkpt>
<trkpt lat="53.335196" lon="06.585238"><ele>0.6</ele><time>2021-05-20T12:25:19Z</time><name>PT7331</name></trkpt>
<trkpt lat="53.335195" lon="06.585252"><ele>0.6</ele><time>2021-05-20T12:25:20Z</time><name>PT7332</name></trkpt>
<trkpt lat="53.335194" lon="06.585275"><ele>0.5</ele><time>2021-05-20T12:25:21Z</time><name>PT7333</name></trkpt>
<trkpt lat="53.335194" lon="06.585300"><ele>0.3</ele><time>2021-05-20T12:25:22Z</time><name>PT7334</name></trkpt>
<trkpt lat="53.335194" lon="06.585317"><ele>0.3</ele><time>2021-05-20T12:25:23Z</time><name>PT7335</name></trkpt>
<trkpt lat="53.335196" lon="06.585327"><ele>0.3</ele><time>2021-05-20T12:25:24Z</time><name>PT7336</name></trkpt>
<trkpt lat="53.335198" lon="06.585339"><ele>0.3</ele><time>2021-05-20T12:25:25Z</time><name>PT7337</name></trkpt>
<trkpt lat="53.335200" lon="06.585353"><ele>0.5</ele><time>2021-05-20T12:25:26Z</time><name>PT7338</name></trkpt>
<trkpt lat="53.335200" lon="06.585372"><ele>0.4</ele><time>2021-05-20T12:25:27Z</time><name>PT7339</name></trkpt>
<trkpt lat="53.335201" lon="06.585394"><ele>0.6</ele><time>2021-05-20T12:25:28Z</time><name>PT7340</name></trkpt>
<trkpt lat="53.335202" lon="06.585413"><ele>0.7</ele><time>2021-05-20T12:25:29Z</time><name>PT7341</name></trkpt>
<trkpt lat="53.335205" lon="06.585426"><ele>0.6</ele><time>2021-05-20T12:25:30Z</time><name>PT7342</name></trkpt>
<trkpt lat="53.335207" lon="06.585437"><ele>0.6</ele><time>2021-05-20T12:25:31Z</time><name>PT7343</name></trkpt>
<trkpt lat="53.335207" lon="06.585452"><ele>0.5</ele><time>2021-05-20T12:25:32Z</time><name>PT7344</name></trkpt>
<trkpt lat="53.335206" lon="06.585471"><ele>0.5</ele><time>2021-05-20T12:25:33Z</time><name>PT7345</name></trkpt>
<trkpt lat="53.335207" lon="06.585494"><ele>0.5</ele><time>2021-05-20T12:25:34Z</time><name>PT7346</name></trkpt>
<trkpt lat="53.335209" lon="06.585513"><ele>0.5</ele><time>2021-05-20T12:25:35Z</time><name>PT7347</name></trkpt>
<trkpt lat="53.335212" lon="06.585525"><ele>0.5</ele><time>2021-05-20T12:25:36Z</time><name>PT7348</name></trkpt>
<trkpt lat="53.335212" lon="06.585536"><ele>0.5</ele><time>2021-05-20T12:25:37Z</time><name>PT7349</name></trkpt>
<trkpt lat="53.335212" lon="06.585550"><ele>0.5</ele><time>2021-05-20T12:25:38Z</time><name>PT7350</name></trkpt>
<trkpt lat="53.335212" lon="06.585569"><ele>0.4</ele><time>2021-05-20T12:25:39Z</time><name>PT7351</name></trkpt>
<trkpt lat="53.335211" lon="06.585593"><ele>0.4</ele><time>2021-05-20T12:25:40Z</time><name>PT7352</name></trkpt>
<trkpt lat="53.335212" lon="06.585615"><ele>0.3</ele><time>2021-05-20T12:25:41Z</time><name>PT7353</name></trkpt>
<trkpt lat="53.335213" lon="06.585630"><ele>0.3</ele><time>2021-05-20T12:25:42Z</time><name>PT7354</name></trkpt>
<trkpt lat="53.335215" lon="06.585642"><ele>0.3</ele><time>2021-05-20T12:25:43Z</time><name>PT7355</name></trkpt>
<trkpt lat="53.335215" lon="06.585656"><ele>0.3</ele><time>2021-05-20T12:25:44Z</time><name>PT7356</name></trkpt>
<trkpt lat="53.335215" lon="06.585678"><ele>0.3</ele><time>2021-05-20T12:25:45Z</time><name>PT7357</name></trkpt>
<trkpt lat="53.335214" lon="06.585701"><ele>0.3</ele><time>2021-05-20T12:25:46Z</time><name>PT7358</name></trkpt>
<trkpt lat="53.335214" lon="06.585717"><ele>0.3</ele><time>2021-05-20T12:25:47Z</time><name>PT7359</name></trkpt>
<trkpt lat="53.335216" lon="06.585727"><ele>0.3</ele><time>2021-05-20T12:25:48Z</time><name>PT7360</name></trkpt>
<trkpt lat="53.335218" lon="06.585741"><ele>0.2</ele><time>2021-05-20T12:25:49Z</time><name>PT7361</name></trkpt>
<trkpt lat="53.335218" lon="06.585757"><ele>0.3</ele><time>2021-05-20T12:25:50Z</time><name>PT7362</name></trkpt>
<trkpt lat="53.335217" lon="06.585780"><ele>0.4</ele><time>2021-05-20T12:25:51Z</time><name>PT7363</name></trkpt>
<trkpt lat="53.335215" lon="06.585803"><ele>0.3</ele><time>2021-05-20T12:25:52Z</time><name>PT7364</name></trkpt>
<trkpt lat="53.335215" lon="06.585817"><ele>0.5</ele><time>2021-05-20T12:25:53Z</time><name>PT7365</name></trkpt>
<trkpt lat="53.335218" lon="06.585829"><ele>0.6</ele><time>2021-05-20T12:25:54Z</time><name>PT7366</name></trkpt>
<trkpt lat="53.335218" lon="06.585840"><ele>0.5</ele><time>2021-05-20T12:25:55Z</time><name>PT7367</name></trkpt>
<trkpt lat="53.335218" lon="06.585859"><ele>0.3</ele><time>2021-05-20T12:25:56Z</time><name>PT7368</name></trkpt>
<trkpt lat="53.335219" lon="06.585881"><ele>0.4</ele><time>2021-05-20T12:25:57Z</time><name>PT7369</name></trkpt>
<trkpt lat="53.335219" lon="06.585899"><ele>0.4</ele><time>2021-05-20T12:25:58Z</time><name>PT7370</name></trkpt>
<trkpt lat="53.335218" lon="06.585909"><ele>0.4</ele><time>2021-05-20T12:25:59Z</time><name>PT7371</name></trkpt>
<trkpt lat="53.335217" lon="06.585917"><ele>0.3</ele><time>2021-05-20T12:26:00Z</time><name>PT7372</name></trkpt>
<trkpt lat="53.335214" lon="06.585929"><ele>0.3</ele><time>2021-05-20T12:26:01Z</time><name>PT7373</name></trkpt>
<trkpt lat="53.335214" lon="06.585941"><ele>0.4</ele><time>2021-05-20T12:26:02Z</time><name>PT7374</name></trkpt>
<trkpt lat="53.335213" lon="06.585950"><ele>0.3</ele><time>2021-05-20T12:26:03Z</time><name>PT7375</name></trkpt>
<trkpt lat="53.335212" lon="06.585962"><ele>0.3</ele><time>2021-05-20T12:26:04Z</time><name>PT7376</name></trkpt>
<trkpt lat="53.335211" lon="06.585969"><ele>0.4</ele><time>2021-05-20T12:26:05Z</time><name>PT7377</name></trkpt>
<trkpt lat="53.335211" lon="06.585970"><ele>0.3</ele><time>2021-05-20T12:26:06Z</time><name>PT7378</name></trkpt>
<trkpt lat="53.335211" lon="06.585971"><ele>0.3</ele><time>2021-05-20T12:26:07Z</time><name>PT7379</name></trkpt>
<trkpt lat="53.335212" lon="06.585972"><ele>0.1</ele><time>2021-05-20T12:26:08Z</time><name>PT7380</name></trkpt>
<trkpt lat="53.335213" lon="06.585969"><ele>0.3</ele><time>2021-05-20T12:26:20Z</time><name>PT7381</name></trkpt>
<trkpt lat="53.335211" lon="06.585974"><ele>0.4</ele><time>2021-05-20T12:26:21Z</time><name>PT7382</name></trkpt>
<trkpt lat="53.335210" lon="06.585975"><ele>0.3</ele><time>2021-05-20T12:26:22Z</time><name>PT7383</name></trkpt>
<trkpt lat="53.335210" lon="06.585975"><ele>0.3</ele><time>2021-05-20T12:26:23Z</time><name>PT7384</name></trkpt>
<trkpt lat="53.335212" lon="06.585994"><ele>0.3</ele><time>2021-05-20T12:26:55Z</time><name>PT7385</name></trkpt>
<trkpt lat="53.335219" lon="06.586020"><ele>0.3</ele><time>2021-05-20T12:26:56Z</time><name>PT7386</name></trkpt>
<trkpt lat="53.335222" lon="06.586042"><ele>0.3</ele><time>2021-05-20T12:26:57Z</time><name>PT7387</name></trkpt>
<trkpt lat="53.335223" lon="06.586062"><ele>0.3</ele><time>2021-05-20T12:26:58Z</time><name>PT7388</name></trkpt>
<trkpt lat="53.335223" lon="06.586076"><ele>0.2</ele><time>2021-05-20T12:26:59Z</time><name>PT7389</name></trkpt>
<trkpt lat="53.335219" lon="06.586092"><ele>0.3</ele><time>2021-05-20T12:27:00Z</time><name>PT7390</name></trkpt>
<trkpt lat="53.335218" lon="06.586113"><ele>0.2</ele><time>2021-05-20T12:27:01Z</time><name>PT7391</name></trkpt>
<trkpt lat="53.335218" lon="06.586133"><ele>0.3</ele><time>2021-05-20T12:27:02Z</time><name>PT7392</name></trkpt>
<trkpt lat="53.335218" lon="06.586144"><ele>0.2</ele><time>2021-05-20T12:27:03Z</time><name>PT7393</name></trkpt>
<trkpt lat="53.335219" lon="06.586153"><ele>0.3</ele><time>2021-05-20T12:27:04Z</time><name>PT7394</name></trkpt>
<trkpt lat="53.335219" lon="06.586169"><ele>0.3</ele><time>2021-05-20T12:27:05Z</time><name>PT7395</name></trkpt>
<trkpt lat="53.335219" lon="06.586185"><ele>0.3</ele><time>2021-05-20T12:27:06Z</time><name>PT7396</name></trkpt>
<trkpt lat="53.335217" lon="06.586211"><ele>0.3</ele><time>2021-05-20T12:27:07Z</time><name>PT7397</name></trkpt>
<trkpt lat="53.335214" lon="06.586234"><ele>0.4</ele><time>2021-05-20T12:27:08Z</time><name>PT7398</name></trkpt>
<trkpt lat="53.335212" lon="06.586242"><ele>0.4</ele><time>2021-05-20T12:27:09Z</time><name>PT7399</name></trkpt>
<trkpt lat="53.335213" lon="06.586251"><ele>0.4</ele><time>2021-05-20T12:27:10Z</time><name>PT7400</name></trkpt>
<trkpt lat="53.335213" lon="06.586262"><ele>0.2</ele><time>2021-05-20T12:27:11Z</time><name>PT7401</name></trkpt>
<trkpt lat="53.335213" lon="06.586280"><ele>0.2</ele><time>2021-05-20T12:27:12Z</time><name>PT7402</name></trkpt>
<trkpt lat="53.335213" lon="06.586302"><ele>0.2</ele><time>2021-05-20T12:27:13Z</time><name>PT7403</name></trkpt>
<trkpt lat="53.335214" lon="06.586322"><ele>0.2</ele><time>2021-05-20T12:27:14Z</time><name>PT7404</name></trkpt>
<trkpt lat="53.335215" lon="06.586338"><ele>0.1</ele><time>2021-05-20T12:27:15Z</time><name>PT7405</name></trkpt>
<trkpt lat="53.335216" lon="06.586352"><ele>0.1</ele><time>2021-05-20T12:27:16Z</time><name>PT7406</name></trkpt>
<trkpt lat="53.335216" lon="06.586365"><ele>0.2</ele><time>2021-05-20T12:27:17Z</time><name>PT7407</name></trkpt>
<trkpt lat="53.335216" lon="06.586380"><ele>0.3</ele><time>2021-05-20T12:27:18Z</time><name>PT7408</name></trkpt>
<trkpt lat="53.335216" lon="06.586402"><ele>0.3</ele><time>2021-05-20T12:27:19Z</time><name>PT7409</name></trkpt>
<trkpt lat="53.335219" lon="06.586426"><ele>0.5</ele><time>2021-05-20T12:27:20Z</time><name>PT7410</name></trkpt>
<trkpt lat="53.335220" lon="06.586448"><ele>0.5</ele><time>2021-05-20T12:27:22Z</time><name>PT7411</name></trkpt>
<trkpt lat="53.335221" lon="06.586461"><ele>0.5</ele><time>2021-05-20T12:27:22Z</time><name>PT7412</name></trkpt>
<trkpt lat="53.335220" lon="06.586477"><ele>0.4</ele><time>2021-05-20T12:27:23Z</time><name>PT7413</name></trkpt>
<trkpt lat="53.335215" lon="06.586498"><ele>0.3</ele><time>2021-05-20T12:27:24Z</time><name>PT7414</name></trkpt>
<trkpt lat="53.335214" lon="06.586526"><ele>0.4</ele><time>2021-05-20T12:27:25Z</time><name>PT7415</name></trkpt>
<trkpt lat="53.335215" lon="06.586544"><ele>0.3</ele><time>2021-05-20T12:27:26Z</time><name>PT7416</name></trkpt>
<trkpt lat="53.335219" lon="06.586558"><ele>0.3</ele><time>2021-05-20T12:27:27Z</time><name>PT7417</name></trkpt>
<trkpt lat="53.335222" lon="06.586568"><ele>0.3</ele><time>2021-05-20T12:27:28Z</time><name>PT7418</name></trkpt>
<trkpt lat="53.335223" lon="06.586581"><ele>0.3</ele><time>2021-05-20T12:27:29Z</time><name>PT7419</name></trkpt>
<trkpt lat="53.335225" lon="06.586603"><ele>0.3</ele><time>2021-05-20T12:27:30Z</time><name>PT7420</name></trkpt>
<trkpt lat="53.335228" lon="06.586625"><ele>0.3</ele><time>2021-05-20T12:27:31Z</time><name>PT7421</name></trkpt>
<trkpt lat="53.335231" lon="06.586644"><ele>0.4</ele><time>2021-05-20T12:27:32Z</time><name>PT7422</name></trkpt>
<trkpt lat="53.335235" lon="06.586655"><ele>0.3</ele><time>2021-05-20T12:27:33Z</time><name>PT7423</name></trkpt>
<trkpt lat="53.335237" lon="06.586666"><ele>0.4</ele><time>2021-05-20T12:27:34Z</time><name>PT7424</name></trkpt>
<trkpt lat="53.335241" lon="06.586682"><ele>0.3</ele><time>2021-05-20T12:27:35Z</time><name>PT7425</name></trkpt>
<trkpt lat="53.335245" lon="06.586709"><ele>0.1</ele><time>2021-05-20T12:27:36Z</time><name>PT7426</name></trkpt>
<trkpt lat="53.335249" lon="06.586733"><ele>0</ele><time>2021-05-20T12:27:37Z</time><name>PT7427</name></trkpt>
<trkpt lat="53.335254" lon="06.586752"><ele>0.1</ele><time>2021-05-20T12:27:38Z</time><name>PT7428</name></trkpt>
<trkpt lat="53.335259" lon="06.586766"><ele>0.1</ele><time>2021-05-20T12:27:39Z</time><name>PT7429</name></trkpt>
<trkpt lat="53.335262" lon="06.586775"><ele>0.3</ele><time>2021-05-20T12:27:40Z</time><name>PT7430</name></trkpt>
<trkpt lat="53.335265" lon="06.586785"><ele>0.5</ele><time>2021-05-20T12:27:41Z</time><name>PT7431</name></trkpt>
<trkpt lat="53.335267" lon="06.586801"><ele>0.4</ele><time>2021-05-20T12:27:42Z</time><name>PT7432</name></trkpt>
<trkpt lat="53.335268" lon="06.586822"><ele>0.3</ele><time>2021-05-20T12:27:43Z</time><name>PT7433</name></trkpt>
<trkpt lat="53.335272" lon="06.586843"><ele>0.3</ele><time>2021-05-20T12:27:44Z</time><name>PT7434</name></trkpt>
<trkpt lat="53.335277" lon="06.586859"><ele>0.3</ele><time>2021-05-20T12:27:45Z</time><name>PT7435</name></trkpt>
<trkpt lat="53.335279" lon="06.586869"><ele>0.2</ele><time>2021-05-20T12:27:46Z</time><name>PT7436</name></trkpt>
<trkpt lat="53.335282" lon="06.586884"><ele>0.2</ele><time>2021-05-20T12:27:47Z</time><name>PT7437</name></trkpt>
<trkpt lat="53.335285" lon="06.586906"><ele>0.1</ele><time>2021-05-20T12:27:48Z</time><name>PT7438</name></trkpt>
<trkpt lat="53.335285" lon="06.586928"><ele>0.1</ele><time>2021-05-20T12:27:49Z</time><name>PT7439</name></trkpt>
<trkpt lat="53.335286" lon="06.586946"><ele>0.1</ele><time>2021-05-20T12:27:50Z</time><name>PT7440</name></trkpt>
<trkpt lat="53.335289" lon="06.586960"><ele>0.2</ele><time>2021-05-20T12:27:51Z</time><name>PT7441</name></trkpt>
<trkpt lat="53.335293" lon="06.586972"><ele>0.2</ele><time>2021-05-20T12:27:52Z</time><name>PT7442</name></trkpt>
<trkpt lat="53.335293" lon="06.586986"><ele>0.2</ele><time>2021-05-20T12:27:53Z</time><name>PT7443</name></trkpt>
<trkpt lat="53.335296" lon="06.587007"><ele>0</ele><time>2021-05-20T12:27:54Z</time><name>PT7444</name></trkpt>
<trkpt lat="53.335301" lon="06.587030"><ele>0</ele><time>2021-05-20T12:27:55Z</time><name>PT7445</name></trkpt>
<trkpt lat="53.335305" lon="06.587048"><ele>0</ele><time>2021-05-20T12:27:56Z</time><name>PT7446</name></trkpt>
<trkpt lat="53.335309" lon="06.587061"><ele>0.1</ele><time>2021-05-20T12:27:57Z</time><name>PT7447</name></trkpt>
<trkpt lat="53.335313" lon="06.587072"><ele>0.1</ele><time>2021-05-20T12:27:58Z</time><name>PT7448</name></trkpt>
<trkpt lat="53.335316" lon="06.587086"><ele>0.1</ele><time>2021-05-20T12:27:59Z</time><name>PT7449</name></trkpt>
<trkpt lat="53.335318" lon="06.587101"><ele>0</ele><time>2021-05-20T12:28:01Z</time><name>PT7450</name></trkpt>
<trkpt lat="53.335322" lon="06.587122"><ele>0.1</ele><time>2021-05-20T12:28:01Z</time><name>PT7451</name></trkpt>
<trkpt lat="53.335326" lon="06.587142"><ele>0</ele><time>2021-05-20T12:28:02Z</time><name>PT7452</name></trkpt>
<trkpt lat="53.335329" lon="06.587163"><ele>0.1</ele><time>2021-05-20T12:28:03Z</time><name>PT7453</name></trkpt>
<trkpt lat="53.335333" lon="06.587175"><ele>0.1</ele><time>2021-05-20T12:28:04Z</time><name>PT7454</name></trkpt>
<trkpt lat="53.335336" lon="06.587184"><ele>0.1</ele><time>2021-05-20T12:28:05Z</time><name>PT7455</name></trkpt>
<trkpt lat="53.335337" lon="06.587195"><ele>0.2</ele><time>2021-05-20T12:28:06Z</time><name>PT7456</name></trkpt>
<trkpt lat="53.335339" lon="06.587214"><ele>0.2</ele><time>2021-05-20T12:28:07Z</time><name>PT7457</name></trkpt>
<trkpt lat="53.335342" lon="06.587238"><ele>0.2</ele><time>2021-05-20T12:28:08Z</time><name>PT7458</name></trkpt>
<trkpt lat="53.335346" lon="06.587261"><ele>0.3</ele><time>2021-05-20T12:28:09Z</time><name>PT7459</name></trkpt>
<trkpt lat="53.335351" lon="06.587279"><ele>0.3</ele><time>2021-05-20T12:28:10Z</time><name>PT7460</name></trkpt>
<trkpt lat="53.335355" lon="06.587291"><ele>0.3</ele><time>2021-05-20T12:28:11Z</time><name>PT7461</name></trkpt>
<trkpt lat="53.335358" lon="06.587304"><ele>0.3</ele><time>2021-05-20T12:28:12Z</time><name>PT7462</name></trkpt>
<trkpt lat="53.335359" lon="06.587320"><ele>0.2</ele><time>2021-05-20T12:28:13Z</time><name>PT7463</name></trkpt>
<trkpt lat="53.335365" lon="06.587341"><ele>0.2</ele><time>2021-05-20T12:28:14Z</time><name>PT7464</name></trkpt>
<trkpt lat="53.335372" lon="06.587364"><ele>0.2</ele><time>2021-05-20T12:28:15Z</time><name>PT7465</name></trkpt>
<trkpt lat="53.335379" lon="06.587384"><ele>0.3</ele><time>2021-05-20T12:28:16Z</time><name>PT7466</name></trkpt>
<trkpt lat="53.335384" lon="06.587399"><ele>0.3</ele><time>2021-05-20T12:28:17Z</time><name>PT7467</name></trkpt>
<trkpt lat="53.335388" lon="06.587410"><ele>0.4</ele><time>2021-05-20T12:28:18Z</time><name>PT7468</name></trkpt>
<trkpt lat="53.335391" lon="06.587420"><ele>0.6</ele><time>2021-05-20T12:28:19Z</time><name>PT7469</name></trkpt>
<trkpt lat="53.335393" lon="06.587434"><ele>0.3</ele><time>2021-05-20T12:28:20Z</time><name>PT7470</name></trkpt>
<trkpt lat="53.335396" lon="06.587454"><ele>0.4</ele><time>2021-05-20T12:28:21Z</time><name>PT7471</name></trkpt>
<trkpt lat="53.335400" lon="06.587475"><ele>0.2</ele><time>2021-05-20T12:28:22Z</time><name>PT7472</name></trkpt>
<trkpt lat="53.335404" lon="06.587492"><ele>0.3</ele><time>2021-05-20T12:28:23Z</time><name>PT7473</name></trkpt>
<trkpt lat="53.335408" lon="06.587502"><ele>0.3</ele><time>2021-05-20T12:28:24Z</time><name>PT7474</name></trkpt>
<trkpt lat="53.335410" lon="06.587513"><ele>0.3</ele><time>2021-05-20T12:28:25Z</time><name>PT7475</name></trkpt>
<trkpt lat="53.335412" lon="06.587527"><ele>0.2</ele><time>2021-05-20T12:28:26Z</time><name>PT7476</name></trkpt>
<trkpt lat="53.335415" lon="06.587549"><ele>0.3</ele><time>2021-05-20T12:28:27Z</time><name>PT7477</name></trkpt>
<trkpt lat="53.335418" lon="06.587569"><ele>0.3</ele><time>2021-05-20T12:28:28Z</time><name>PT7478</name></trkpt>
<trkpt lat="53.335421" lon="06.587585"><ele>0.3</ele><time>2021-05-20T12:28:29Z</time><name>PT7479</name></trkpt>
<trkpt lat="53.335423" lon="06.587596"><ele>0.4</ele><time>2021-05-20T12:28:30Z</time><name>PT7480</name></trkpt>
<trkpt lat="53.335426" lon="06.587611"><ele>0.3</ele><time>2021-05-20T12:28:31Z</time><name>PT7481</name></trkpt>
<trkpt lat="53.335430" lon="06.587626"><ele>0.3</ele><time>2021-05-20T12:28:32Z</time><name>PT7482</name></trkpt>
<trkpt lat="53.335433" lon="06.587647"><ele>0.3</ele><time>2021-05-20T12:28:33Z</time><name>PT7483</name></trkpt>
<trkpt lat="53.335437" lon="06.587670"><ele>0.4</ele><time>2021-05-20T12:28:34Z</time><name>PT7484</name></trkpt>
<trkpt lat="53.335443" lon="06.587687"><ele>0.3</ele><time>2021-05-20T12:28:35Z</time><name>PT7485</name></trkpt>
<trkpt lat="53.335444" lon="06.587697"><ele>0.6</ele><time>2021-05-20T12:28:36Z</time><name>PT7486</name></trkpt>
<trkpt lat="53.335447" lon="06.587707"><ele>0.5</ele><time>2021-05-20T12:28:37Z</time><name>PT7487</name></trkpt>
<trkpt lat="53.335449" lon="06.587723"><ele>0.4</ele><time>2021-05-20T12:28:38Z</time><name>PT7488</name></trkpt>
<trkpt lat="53.335451" lon="06.587743"><ele>0.3</ele><time>2021-05-20T12:28:39Z</time><name>PT7489</name></trkpt>
<trkpt lat="53.335455" lon="06.587763"><ele>0.4</ele><time>2021-05-20T12:28:40Z</time><name>PT7490</name></trkpt>
<trkpt lat="53.335458" lon="06.587780"><ele>0.6</ele><time>2021-05-20T12:28:41Z</time><name>PT7491</name></trkpt>
<trkpt lat="53.335462" lon="06.587791"><ele>0.7</ele><time>2021-05-20T12:28:42Z</time><name>PT7492</name></trkpt>
<trkpt lat="53.335463" lon="06.587801"><ele>0.9</ele><time>2021-05-20T12:28:43Z</time><name>PT7493</name></trkpt>
<trkpt lat="53.335465" lon="06.587816"><ele>0.9</ele><time>2021-05-20T12:28:44Z</time><name>PT7494</name></trkpt>
<trkpt lat="53.335467" lon="06.587838"><ele>0.8</ele><time>2021-05-20T12:28:45Z</time><name>PT7495</name></trkpt>
<trkpt lat="53.335470" lon="06.587855"><ele>0.7</ele><time>2021-05-20T12:28:46Z</time><name>PT7496</name></trkpt>
<trkpt lat="53.335474" lon="06.587865"><ele>0.7</ele><time>2021-05-20T12:28:47Z</time><name>PT7497</name></trkpt>
<trkpt lat="53.335476" lon="06.587872"><ele>0.5</ele><time>2021-05-20T12:28:48Z</time><name>PT7498</name></trkpt>
<trkpt lat="53.335478" lon="06.587879"><ele>0.6</ele><time>2021-05-20T12:28:49Z</time><name>PT7499</name></trkpt>
<trkpt lat="53.335481" lon="06.587887"><ele>0.4</ele><time>2021-05-20T12:28:50Z</time><name>PT7500</name></trkpt>
<trkpt lat="53.335482" lon="06.587894"><ele>0.6</ele><time>2021-05-20T12:28:51Z</time><name>PT7501</name></trkpt>
<trkpt lat="53.335485" lon="06.587898"><ele>0.8</ele><time>2021-05-20T12:28:52Z</time><name>PT7502</name></trkpt>
<trkpt lat="53.335486" lon="06.587898"><ele>0.9</ele><time>2021-05-20T12:28:53Z</time><name>PT7503</name></trkpt>
<trkpt lat="53.335487" lon="06.587903"><ele>0.9</ele><time>2021-05-20T12:28:54Z</time><name>PT7504</name></trkpt>
<trkpt lat="53.335490" lon="06.587908"><ele>0.8</ele><time>2021-05-20T12:28:55Z</time><name>PT7505</name></trkpt>
<trkpt lat="53.335490" lon="06.587909"><ele>0.7</ele><time>2021-05-20T12:28:56Z</time><name>PT7506</name></trkpt>
<trkpt lat="53.335495" lon="06.587914"><ele>0.7</ele><time>2021-05-20T12:29:01Z</time><name>PT7507</name></trkpt>
<trkpt lat="53.335498" lon="06.587923"><ele>0.7</ele><time>2021-05-20T12:29:02Z</time><name>PT7508</name></trkpt>
<trkpt lat="53.335500" lon="06.587940"><ele>0.5</ele><time>2021-05-20T12:29:03Z</time><name>PT7509</name></trkpt>
<trkpt lat="53.335505" lon="06.587953"><ele>0.7</ele><time>2021-05-20T12:29:04Z</time><name>PT7510</name></trkpt>
<trkpt lat="53.335509" lon="06.587964"><ele>0.7</ele><time>2021-05-20T12:29:05Z</time><name>PT7511</name></trkpt>
<trkpt lat="53.335509" lon="06.587976"><ele>0.5</ele><time>2021-05-20T12:29:06Z</time><name>PT7512</name></trkpt>
<trkpt lat="53.335511" lon="06.587994"><ele>0.4</ele><time>2021-05-20T12:29:07Z</time><name>PT7513</name></trkpt>
<trkpt lat="53.335514" lon="06.588011"><ele>0.4</ele><time>2021-05-20T12:29:08Z</time><name>PT7514</name></trkpt>
<trkpt lat="53.335519" lon="06.588026"><ele>0.4</ele><time>2021-05-20T12:29:09Z</time><name>PT7515</name></trkpt>
<trkpt lat="53.335520" lon="06.588038"><ele>0.4</ele><time>2021-05-20T12:29:10Z</time><name>PT7516</name></trkpt>
<trkpt lat="53.335520" lon="06.588048"><ele>0.4</ele><time>2021-05-20T12:29:11Z</time><name>PT7517</name></trkpt>
<trkpt lat="53.335521" lon="06.588068"><ele>0.5</ele><time>2021-05-20T12:29:12Z</time><name>PT7518</name></trkpt>
<trkpt lat="53.335523" lon="06.588084"><ele>0.5</ele><time>2021-05-20T12:29:13Z</time><name>PT7519</name></trkpt>
<trkpt lat="53.335524" lon="06.588099"><ele>0.5</ele><time>2021-05-20T12:29:14Z</time><name>PT7520</name></trkpt>
<trkpt lat="53.335523" lon="06.588108"><ele>0.4</ele><time>2021-05-20T12:29:15Z</time><name>PT7521</name></trkpt>
<trkpt lat="53.335523" lon="06.588107"><ele>0.2</ele><time>2021-05-20T12:29:16Z</time><name>PT7522</name></trkpt>
<trkpt lat="53.335523" lon="06.588109"><ele>0.2</ele><time>2021-05-20T12:29:17Z</time><name>PT7523</name></trkpt>
<trkpt lat="53.335523" lon="06.588111"><ele>0.1</ele><time>2021-05-20T12:29:18Z</time><name>PT7524</name></trkpt>
<trkpt lat="53.335525" lon="06.588115"><ele>0.2</ele><time>2021-05-20T12:29:23Z</time><name>PT7525</name></trkpt>
<trkpt lat="53.335528" lon="06.588130"><ele>0.4</ele><time>2021-05-20T12:29:24Z</time><name>PT7526</name></trkpt>
<trkpt lat="53.335531" lon="06.588139"><ele>0.3</ele><time>2021-05-20T12:29:25Z</time><name>PT7527</name></trkpt>
<trkpt lat="53.335533" lon="06.588146"><ele>0.2</ele><time>2021-05-20T12:29:26Z</time><name>PT7528</name></trkpt>
<trkpt lat="53.335536" lon="06.588153"><ele>0.3</ele><time>2021-05-20T12:29:27Z</time><name>PT7529</name></trkpt>
<trkpt lat="53.335539" lon="06.588163"><ele>0.3</ele><time>2021-05-20T12:29:28Z</time><name>PT7530</name></trkpt>
<trkpt lat="53.335542" lon="06.588171"><ele>0.3</ele><time>2021-05-20T12:29:29Z</time><name>PT7531</name></trkpt>
<trkpt lat="53.335544" lon="06.588177"><ele>0.5</ele><time>2021-05-20T12:29:30Z</time><name>PT7532</name></trkpt>
<trkpt lat="53.335547" lon="06.588182"><ele>0.4</ele><time>2021-05-20T12:29:31Z</time><name>PT7533</name></trkpt>
<trkpt lat="53.335553" lon="06.588188"><ele>0.3</ele><time>2021-05-20T12:29:32Z</time><name>PT7534</name></trkpt>
<trkpt lat="53.335562" lon="06.588192"><ele>0.3</ele><time>2021-05-20T12:29:33Z</time><name>PT7535</name></trkpt>
<trkpt lat="53.335568" lon="06.588191"><ele>0.2</ele><time>2021-05-20T12:29:34Z</time><name>PT7536</name></trkpt>
<trkpt lat="53.335574" lon="06.588192"><ele>0.1</ele><time>2021-05-20T12:29:35Z</time><name>PT7537</name></trkpt>
<trkpt lat="53.335583" lon="06.588195"><ele>0</ele><time>2021-05-20T12:29:36Z</time><name>PT7538</name></trkpt>
<trkpt lat="53.335596" lon="06.588195"><ele>0.1</ele><time>2021-05-20T12:29:37Z</time><name>PT7539</name></trkpt>
<trkpt lat="53.335605" lon="06.588196"><ele>0.2</ele><time>2021-05-20T12:29:38Z</time><name>PT7540</name></trkpt>
<trkpt lat="53.335615" lon="06.588196"><ele>0.1</ele><time>2021-05-20T12:29:39Z</time><name>PT7541</name></trkpt>
<trkpt lat="53.335623" lon="06.588191"><ele>0.1</ele><time>2021-05-20T12:29:40Z</time><name>PT7542</name></trkpt>
<trkpt lat="53.335636" lon="06.588185"><ele>0</ele><time>2021-05-20T12:29:41Z</time><name>PT7543</name></trkpt>
<trkpt lat="53.335647" lon="06.588180"><ele>0.1</ele><time>2021-05-20T12:29:42Z</time><name>PT7544</name></trkpt>
<trkpt lat="53.335656" lon="06.588175"><ele>0</ele><time>2021-05-20T12:29:43Z</time><name>PT7545</name></trkpt>
<trkpt lat="53.335664" lon="06.588172"><ele>0.1</ele><time>2021-05-20T12:29:44Z</time><name>PT7546</name></trkpt>
<trkpt lat="53.335672" lon="06.588171"><ele>0</ele><time>2021-05-20T12:29:45Z</time><name>PT7547</name></trkpt>
<trkpt lat="53.335679" lon="06.588167"><ele>0</ele><time>2021-05-20T12:29:46Z</time><name>PT7548</name></trkpt>
<trkpt lat="53.335686" lon="06.588158"><ele>0.1</ele><time>2021-05-20T12:29:47Z</time><name>PT7549</name></trkpt>
<trkpt lat="53.335691" lon="06.588153"><ele>0.2</ele><time>2021-05-20T12:29:48Z</time><name>PT7550</name></trkpt>
<trkpt lat="53.335701" lon="06.588151"><ele>0.3</ele><time>2021-05-20T12:29:49Z</time><name>PT7551</name></trkpt>
<trkpt lat="53.335707" lon="06.588147"><ele>0.3</ele><time>2021-05-20T12:29:50Z</time><name>PT7552</name></trkpt>
<trkpt lat="53.335712" lon="06.588143"><ele>0.3</ele><time>2021-05-20T12:29:51Z</time><name>PT7553</name></trkpt>
<trkpt lat="53.335719" lon="06.588144"><ele>0</ele><time>2021-05-20T12:30:00Z</time><name>PT7554</name></trkpt>
<trkpt lat="53.335725" lon="06.588140"><ele>0.1</ele><time>2021-05-20T12:30:01Z</time><name>PT7555</name></trkpt>
<trkpt lat="53.335731" lon="06.588138"><ele>0.2</ele><time>2021-05-20T12:30:02Z</time><name>PT7556</name></trkpt>
<trkpt lat="53.335737" lon="06.588132"><ele>0.3</ele><time>2021-05-20T12:30:03Z</time><name>PT7557</name></trkpt>
<trkpt lat="53.335746" lon="06.588133"><ele>0.3</ele><time>2021-05-20T12:30:04Z</time><name>PT7558</name></trkpt>
<trkpt lat="53.335756" lon="06.588128"><ele>0.3</ele><time>2021-05-20T12:30:05Z</time><name>PT7559</name></trkpt>
<trkpt lat="53.335765" lon="06.588125"><ele>0</ele><time>2021-05-20T12:30:06Z</time><name>PT7560</name></trkpt>
<trkpt lat="53.335771" lon="06.588123"><ele>0.3</ele><time>2021-05-20T12:30:07Z</time><name>PT7561</name></trkpt>
<trkpt lat="53.335777" lon="06.588124"><ele>0.4</ele><time>2021-05-20T12:30:08Z</time><name>PT7562</name></trkpt>
<trkpt lat="53.335783" lon="06.588125"><ele>0.6</ele><time>2021-05-20T12:30:09Z</time><name>PT7563</name></trkpt>
<trkpt lat="53.335791" lon="06.588129"><ele>0.8</ele><time>2021-05-20T12:30:10Z</time><name>PT7564</name></trkpt>
<trkpt lat="53.335796" lon="06.588128"><ele>0.7</ele><time>2021-05-20T12:30:11Z</time><name>PT7565</name></trkpt>
<trkpt lat="53.335797" lon="06.588131"><ele>0.7</ele><time>2021-05-20T12:30:12Z</time><name>PT7566</name></trkpt>
<trkpt lat="53.335802" lon="06.588134"><ele>0.4</ele><time>2021-05-20T12:30:13Z</time><name>PT7567</name></trkpt>
<trkpt lat="53.335809" lon="06.588137"><ele>0.5</ele><time>2021-05-20T12:30:14Z</time><name>PT7568</name></trkpt>
<trkpt lat="53.335816" lon="06.588145"><ele>0.4</ele><time>2021-05-20T12:30:15Z</time><name>PT7569</name></trkpt>
<trkpt lat="53.335830" lon="06.588154"><ele>0.6</ele><time>2021-05-20T12:30:16Z</time><name>PT7570</name></trkpt>
<trkpt lat="53.335841" lon="06.588163"><ele>0.7</ele><time>2021-05-20T12:30:17Z</time><name>PT7571</name></trkpt>
<trkpt lat="53.335851" lon="06.588170"><ele>0.7</ele><time>2021-05-20T12:30:18Z</time><name>PT7572</name></trkpt>
<trkpt lat="53.335859" lon="06.588174"><ele>0.7</ele><time>2021-05-20T12:30:19Z</time><name>PT7573</name></trkpt>
<trkpt lat="53.335867" lon="06.588179"><ele>0.7</ele><time>2021-05-20T12:30:20Z</time><name>PT7574</name></trkpt>
<trkpt lat="53.335875" lon="06.588185"><ele>0.4</ele><time>2021-05-20T12:30:21Z</time><name>PT7575</name></trkpt>
<trkpt lat="53.335888" lon="06.588196"><ele>0.5</ele><time>2021-05-20T12:30:22Z</time><name>PT7576</name></trkpt>
<trkpt lat="53.335899" lon="06.588205"><ele>0.5</ele><time>2021-05-20T12:30:23Z</time><name>PT7577</name></trkpt>
<trkpt lat="53.335907" lon="06.588210"><ele>0.5</ele><time>2021-05-20T12:30:24Z</time><name>PT7578</name></trkpt>
<trkpt lat="53.335913" lon="06.588216"><ele>0.5</ele><time>2021-05-20T12:30:25Z</time><name>PT7579</name></trkpt>
<trkpt lat="53.335918" lon="06.588223"><ele>0.7</ele><time>2021-05-20T12:30:26Z</time><name>PT7580</name></trkpt>
<trkpt lat="53.335924" lon="06.588232"><ele>0.8</ele><time>2021-05-20T12:30:27Z</time><name>PT7581</name></trkpt>
<trkpt lat="53.335933" lon="06.588242"><ele>0.8</ele><time>2021-05-20T12:30:28Z</time><name>PT7582</name></trkpt>
<trkpt lat="53.335941" lon="06.588253"><ele>-1</ele><time>2021-05-20T12:30:29Z</time><name>PT7583</name></trkpt>
<trkpt lat="53.335947" lon="06.588259"><ele>0.9</ele><time>2021-05-20T12:30:30Z</time><name>PT7584</name></trkpt>
<trkpt lat="53.335947" lon="06.588267"><ele>0.9</ele><time>2021-05-20T12:30:31Z</time><name>PT7585</name></trkpt>
<trkpt lat="53.335949" lon="06.588276"><ele>0.7</ele><time>2021-05-20T12:30:32Z</time><name>PT7586</name></trkpt>
<trkpt lat="53.335955" lon="06.588282"><ele>0.7</ele><time>2021-05-20T12:30:33Z</time><name>PT7587</name></trkpt>
<trkpt lat="53.335961" lon="06.588290"><ele>0.7</ele><time>2021-05-20T12:30:34Z</time><name>PT7588</name></trkpt>
<trkpt lat="53.335961" lon="06.588293"><ele>0.7</ele><time>2021-05-20T12:30:35Z</time><name>PT7589</name></trkpt>
<trkpt lat="53.335965" lon="06.588290"><ele>0.7</ele><time>2021-05-20T12:30:36Z</time><name>PT7590</name></trkpt>
<trkpt lat="53.335973" lon="06.588288"><ele>0.7</ele><time>2021-05-20T12:30:37Z</time><name>PT7591</name></trkpt>
<trkpt lat="53.335980" lon="06.588287"><ele>0.7</ele><time>2021-05-20T12:30:38Z</time><name>PT7592</name></trkpt>
<trkpt lat="53.335982" lon="06.588287"><ele>0.4</ele><time>2021-05-20T12:30:39Z</time><name>PT7593</name></trkpt>
<trkpt lat="53.335982" lon="06.588285"><ele>0.3</ele><time>2021-05-20T12:30:40Z</time><name>PT7594</name></trkpt>
<trkpt lat="53.335982" lon="06.588287"><ele>0.2</ele><time>2021-05-20T12:30:41Z</time><name>PT7595</name></trkpt>
<trkpt lat="53.335987" lon="06.588299"><ele>0.3</ele><time>2021-05-20T12:31:09Z</time><name>PT7596</name></trkpt>
<trkpt lat="53.336000" lon="06.588299"><ele>0.3</ele><time>2021-05-20T12:31:10Z</time><name>PT7597</name></trkpt>
<trkpt lat="53.336010" lon="06.588300"><ele>0.3</ele><time>2021-05-20T12:31:11Z</time><name>PT7598</name></trkpt>
<trkpt lat="53.336017" lon="06.588296"><ele>0.3</ele><time>2021-05-20T12:31:12Z</time><name>PT7599</name></trkpt>
<trkpt lat="53.336021" lon="06.588299"><ele>0.4</ele><time>2021-05-20T12:31:13Z</time><name>PT7600</name></trkpt>
<trkpt lat="53.336026" lon="06.588300"><ele>0.5</ele><time>2021-05-20T12:31:14Z</time><name>PT7601</name></trkpt>
<trkpt lat="53.336030" lon="06.588300"><ele>0.5</ele><time>2021-05-20T12:31:15Z</time><name>PT7602</name></trkpt>
<trkpt lat="53.336035" lon="06.588299"><ele>0.6</ele><time>2021-05-20T12:31:16Z</time><name>PT7603</name></trkpt>
<trkpt lat="53.336043" lon="06.588301"><ele>0.6</ele><time>2021-05-20T12:31:17Z</time><name>PT7604</name></trkpt>
<trkpt lat="53.336054" lon="06.588297"><ele>0.4</ele><time>2021-05-20T12:31:18Z</time><name>PT7605</name></trkpt>
<trkpt lat="53.336068" lon="06.588288"><ele>0.4</ele><time>2021-05-20T12:31:19Z</time><name>PT7606</name></trkpt>
<trkpt lat="53.336076" lon="06.588282"><ele>0.4</ele><time>2021-05-20T12:31:20Z</time><name>PT7607</name></trkpt>
<trkpt lat="53.336080" lon="06.588279"><ele>0.4</ele><time>2021-05-20T12:31:21Z</time><name>PT7608</name></trkpt>
<trkpt lat="53.336086" lon="06.588275"><ele>0.5</ele><time>2021-05-20T12:31:22Z</time><name>PT7609</name></trkpt>
<trkpt lat="53.336088" lon="06.588278"><ele>0.5</ele><time>2021-05-20T12:31:23Z</time><name>PT7610</name></trkpt>
<trkpt lat="53.336091" lon="06.588276"><ele>0.6</ele><time>2021-05-20T12:31:24Z</time><name>PT7611</name></trkpt>
<trkpt lat="53.336095" lon="06.588275"><ele>0.5</ele><time>2021-05-20T12:31:25Z</time><name>PT7612</name></trkpt>
<trkpt lat="53.336104" lon="06.588273"><ele>0.8</ele><time>2021-05-20T12:31:26Z</time><name>PT7613</name></trkpt>
<trkpt lat="53.336112" lon="06.588277"><ele>0.7</ele><time>2021-05-20T12:31:27Z</time><name>PT7614</name></trkpt>
<trkpt lat="53.336132" lon="06.588277"><ele>0.5</ele><time>2021-05-20T12:31:28Z</time><name>PT7615</name></trkpt>
<trkpt lat="53.336143" lon="06.588274"><ele>0.4</ele><time>2021-05-20T12:31:29Z</time><name>PT7616</name></trkpt>
<trkpt lat="53.336147" lon="06.588270"><ele>0.4</ele><time>2021-05-20T12:31:30Z</time><name>PT7617</name></trkpt>
<trkpt lat="53.336150" lon="06.588269"><ele>0.3</ele><time>2021-05-20T12:31:31Z</time><name>PT7618</name></trkpt>
<trkpt lat="53.336158" lon="06.588262"><ele>0.6</ele><time>2021-05-20T12:31:32Z</time><name>PT7619</name></trkpt>
<trkpt lat="53.336166" lon="06.588257"><ele>0.7</ele><time>2021-05-20T12:31:33Z</time><name>PT7620</name></trkpt>
<trkpt lat="53.336170" lon="06.588252"><ele>0.8</ele><time>2021-05-20T12:31:34Z</time><name>PT7621</name></trkpt>
<trkpt lat="53.336181" lon="06.588242"><ele>0.5</ele><time>2021-05-20T12:31:35Z</time><name>PT7622</name></trkpt>
<trkpt lat="53.336190" lon="06.588229"><ele>0.4</ele><time>2021-05-20T12:31:36Z</time><name>PT7623</name></trkpt>
<trkpt lat="53.336200" lon="06.588212"><ele>0.3</ele><time>2021-05-20T12:31:37Z</time><name>PT7624</name></trkpt>
<trkpt lat="53.336207" lon="06.588201"><ele>0.2</ele><time>2021-05-20T12:31:38Z</time><name>PT7625</name></trkpt>
<trkpt lat="53.336212" lon="06.588196"><ele>0.2</ele><time>2021-05-20T12:31:39Z</time><name>PT7626</name></trkpt>
<trkpt lat="53.336218" lon="06.588192"><ele>0.3</ele><time>2021-05-20T12:31:40Z</time><name>PT7627</name></trkpt>
<trkpt lat="53.336228" lon="06.588183"><ele>0.3</ele><time>2021-05-20T12:31:41Z</time><name>PT7628</name></trkpt>
<trkpt lat="53.336238" lon="06.588173"><ele>0.3</ele><time>2021-05-20T12:31:42Z</time><name>PT7629</name></trkpt>
<trkpt lat="53.336249" lon="06.588166"><ele>0.3</ele><time>2021-05-20T12:31:43Z</time><name>PT7630</name></trkpt>
<trkpt lat="53.336255" lon="06.588161"><ele>0</ele><time>2021-05-20T12:31:44Z</time><name>PT7631</name></trkpt>
<trkpt lat="53.336269" lon="06.588144"><ele>0</ele><time>2021-05-20T12:31:45Z</time><name>PT7632</name></trkpt>
<trkpt lat="53.336279" lon="06.588127"><ele>0.1</ele><time>2021-05-20T12:31:46Z</time><name>PT7633</name></trkpt>
<trkpt lat="53.336287" lon="06.588109"><ele>0.3</ele><time>2021-05-20T12:31:47Z</time><name>PT7634</name></trkpt>
<trkpt lat="53.336293" lon="06.588096"><ele>0.4</ele><time>2021-05-20T12:31:48Z</time><name>PT7635</name></trkpt>
<trkpt lat="53.336299" lon="06.588084"><ele>0.7</ele><time>2021-05-20T12:31:49Z</time><name>PT7636</name></trkpt>
<trkpt lat="53.336302" lon="06.588076"><ele>0.7</ele><time>2021-05-20T12:31:50Z</time><name>PT7637</name></trkpt>
<trkpt lat="53.336307" lon="06.588068"><ele>0.6</ele><time>2021-05-20T12:31:51Z</time><name>PT7638</name></trkpt>
<trkpt lat="53.336315" lon="06.588057"><ele>0.6</ele><time>2021-05-20T12:31:52Z</time><name>PT7639</name></trkpt>
<trkpt lat="53.336323" lon="06.588041"><ele>0.7</ele><time>2021-05-20T12:31:53Z</time><name>PT7640</name></trkpt>
<trkpt lat="53.336331" lon="06.588026"><ele>0.5</ele><time>2021-05-20T12:31:54Z</time><name>PT7641</name></trkpt>
<trkpt lat="53.336337" lon="06.588015"><ele>0.6</ele><time>2021-05-20T12:31:55Z</time><name>PT7642</name></trkpt>
<trkpt lat="53.336339" lon="06.588007"><ele>0.6</ele><time>2021-05-20T12:31:56Z</time><name>PT7643</name></trkpt>
<trkpt lat="53.336342" lon="06.588002"><ele>0.5</ele><time>2021-05-20T12:31:57Z</time><name>PT7644</name></trkpt>
<trkpt lat="53.336348" lon="06.587991"><ele>0.4</ele><time>2021-05-20T12:31:58Z</time><name>PT7645</name></trkpt>
<trkpt lat="53.336356" lon="06.587982"><ele>0.6</ele><time>2021-05-20T12:31:59Z</time><name>PT7646</name></trkpt>
<trkpt lat="53.336363" lon="06.587975"><ele>0.5</ele><time>2021-05-20T12:32:00Z</time><name>PT7647</name></trkpt>
<trkpt lat="53.336366" lon="06.587975"><ele>0.5</ele><time>2021-05-20T12:32:01Z</time><name>PT7648</name></trkpt>
<trkpt lat="53.336368" lon="06.587976"><ele>0.7</ele><time>2021-05-20T12:32:02Z</time><name>PT7649</name></trkpt>
<trkpt lat="53.336367" lon="06.587976"><ele>0.9</ele><time>2021-05-20T12:32:03Z</time><name>PT7650</name></trkpt>
<trkpt lat="53.336369" lon="06.587976"><ele>0.8</ele><time>2021-05-20T12:32:04Z</time><name>PT7651</name></trkpt>
<trkpt lat="53.336373" lon="06.587965"><ele>0.3</ele><time>2021-05-20T12:32:08Z</time><name>PT7652</name></trkpt>
<trkpt lat="53.336374" lon="06.587954"><ele>0.5</ele><time>2021-05-20T12:32:09Z</time><name>PT7653</name></trkpt>
<trkpt lat="53.336376" lon="06.587946"><ele>0.5</ele><time>2021-05-20T12:32:10Z</time><name>PT7654</name></trkpt>
<trkpt lat="53.336377" lon="06.587939"><ele>0.7</ele><time>2021-05-20T12:32:11Z</time><name>PT7655</name></trkpt>
<trkpt lat="53.336380" lon="06.587934"><ele>0.6</ele><time>2021-05-20T12:32:12Z</time><name>PT7656</name></trkpt>
<trkpt lat="53.336383" lon="06.587928"><ele>0.5</ele><time>2021-05-20T12:32:13Z</time><name>PT7657</name></trkpt>
<trkpt lat="53.336384" lon="06.587923"><ele>0.4</ele><time>2021-05-20T12:32:14Z</time><name>PT7658</name></trkpt>
<trkpt lat="53.336382" lon="06.587916"><ele>0.5</ele><time>2021-05-20T12:32:15Z</time><name>PT7659</name></trkpt>
<trkpt lat="53.336385" lon="06.587907"><ele>0.5</ele><time>2021-05-20T12:32:16Z</time><name>PT7660</name></trkpt>
<trkpt lat="53.336385" lon="06.587898"><ele>0.5</ele><time>2021-05-20T12:32:17Z</time><name>PT7661</name></trkpt>
<trkpt lat="53.336387" lon="06.587885"><ele>0.4</ele><time>2021-05-20T12:32:18Z</time><name>PT7662</name></trkpt>
<trkpt lat="53.336389" lon="06.587874"><ele>0.4</ele><time>2021-05-20T12:32:19Z</time><name>PT7663</name></trkpt>
<trkpt lat="53.336392" lon="06.587864"><ele>0.5</ele><time>2021-05-20T12:32:20Z</time><name>PT7664</name></trkpt>
<trkpt lat="53.336397" lon="06.587849"><ele>0.5</ele><time>2021-05-20T12:32:21Z</time><name>PT7665</name></trkpt>
<trkpt lat="53.336402" lon="06.587833"><ele>0.5</ele><time>2021-05-20T12:32:22Z</time><name>PT7666</name></trkpt>
<trkpt lat="53.336406" lon="06.587821"><ele>0.5</ele><time>2021-05-20T12:32:23Z</time><name>PT7667</name></trkpt>
<trkpt lat="53.336410" lon="06.587813"><ele>0.5</ele><time>2021-05-20T12:32:24Z</time><name>PT7668</name></trkpt>
<trkpt lat="53.336414" lon="06.587801"><ele>0.3</ele><time>2021-05-20T12:32:25Z</time><name>PT7669</name></trkpt>
<trkpt lat="53.336417" lon="06.587788"><ele>0.4</ele><time>2021-05-20T12:32:26Z</time><name>PT7670</name></trkpt>
<trkpt lat="53.336421" lon="06.587778"><ele>0.5</ele><time>2021-05-20T12:32:27Z</time><name>PT7671</name></trkpt>
<trkpt lat="53.336425" lon="06.587770"><ele>0.5</ele><time>2021-05-20T12:32:28Z</time><name>PT7672</name></trkpt>
<trkpt lat="53.336429" lon="06.587759"><ele>0.6</ele><time>2021-05-20T12:32:29Z</time><name>PT7673</name></trkpt>
<trkpt lat="53.336432" lon="06.587753"><ele>0.7</ele><time>2021-05-20T12:32:30Z</time><name>PT7674</name></trkpt>
<trkpt lat="53.336438" lon="06.587747"><ele>0.7</ele><time>2021-05-20T12:32:31Z</time><name>PT7675</name></trkpt>
<trkpt lat="53.336453" lon="06.587740"><ele>0.6</ele><time>2021-05-20T12:32:32Z</time><name>PT7676</name></trkpt>
<trkpt lat="53.336466" lon="06.587726"><ele>0.4</ele><time>2021-05-20T12:32:33Z</time><name>PT7677</name></trkpt>
<trkpt lat="53.336477" lon="06.587715"><ele>0.3</ele><time>2021-05-20T12:32:34Z</time><name>PT7678</name></trkpt>
<trkpt lat="53.336485" lon="06.587712"><ele>0.3</ele><time>2021-05-20T12:32:35Z</time><name>PT7679</name></trkpt>
<trkpt lat="53.336489" lon="06.587709"><ele>0.4</ele><time>2021-05-20T12:32:36Z</time><name>PT7680</name></trkpt>
<trkpt lat="53.336496" lon="06.587702"><ele>0.7</ele><time>2021-05-20T12:32:37Z</time><name>PT7681</name></trkpt>
<trkpt lat="53.336501" lon="06.587693"><ele>0.9</ele><time>2021-05-20T12:32:38Z</time><name>PT7682</name></trkpt>
<trkpt lat="53.336505" lon="06.587689"><ele>-1.1</ele><time>2021-05-20T12:32:39Z</time><name>PT7683</name></trkpt>
<trkpt lat="53.336507" lon="06.587688"><ele>-1.1</ele><time>2021-05-20T12:32:40Z</time><name>PT7684</name></trkpt>
<trkpt lat="53.336511" lon="06.587694"><ele>-1</ele><time>2021-05-20T12:32:41Z</time><name>PT7685</name></trkpt>
<trkpt lat="53.336512" lon="06.587695"><ele>-1</ele><time>2021-05-20T12:32:42Z</time><name>PT7686</name></trkpt>
<trkpt lat="53.336515" lon="06.587698"><ele>0.9</ele><time>2021-05-20T12:32:43Z</time><name>PT7687</name></trkpt>
<trkpt lat="53.336515" lon="06.587697"><ele>-1</ele><time>2021-05-20T12:32:44Z</time><name>PT7688</name></trkpt>
<trkpt lat="53.336515" lon="06.587695"><ele>-1.2</ele><time>2021-05-20T12:32:50Z</time><name>PT7689</name></trkpt>
<trkpt lat="53.336515" lon="06.587698"><ele>-1.2</ele><time>2021-05-20T12:32:51Z</time><name>PT7690</name></trkpt>
<trkpt lat="53.336517" lon="06.587699"><ele>-1.1</ele><time>2021-05-20T12:32:52Z</time><name>PT7691</name></trkpt>
<trkpt lat="53.336518" lon="06.587700"><ele>0.9</ele><time>2021-05-20T12:32:53Z</time><name>PT7692</name></trkpt>
<trkpt lat="53.336518" lon="06.587685"><ele>0.5</ele><time>2021-05-20T12:33:11Z</time><name>PT7693</name></trkpt>
<trkpt lat="53.336520" lon="06.587687"><ele>0.3</ele><time>2021-05-20T12:33:12Z</time><name>PT7694</name></trkpt>
<trkpt lat="53.336523" lon="06.587687"><ele>0.2</ele><time>2021-05-20T12:33:13Z</time><name>PT7695</name></trkpt>
<trkpt lat="53.336526" lon="06.587692"><ele>0.3</ele><time>2021-05-20T12:34:40Z</time><name>PT7696</name></trkpt>
<trkpt lat="53.336530" lon="06.587687"><ele>0.3</ele><time>2021-05-20T12:34:41Z</time><name>PT7697</name></trkpt>
<trkpt lat="53.336536" lon="06.587678"><ele>0.3</ele><time>2021-05-20T12:34:42Z</time><name>PT7698</name></trkpt>
<trkpt lat="53.336541" lon="06.587667"><ele>0.3</ele><time>2021-05-20T12:34:43Z</time><name>PT7699</name></trkpt>
<trkpt lat="53.336547" lon="06.587660"><ele>0.3</ele><time>2021-05-20T12:34:44Z</time><name>PT7700</name></trkpt>
<trkpt lat="53.336553" lon="06.587649"><ele>0.3</ele><time>2021-05-20T12:34:45Z</time><name>PT7701</name></trkpt>
<trkpt lat="53.336565" lon="06.587637"><ele>0.3</ele><time>2021-05-20T12:34:46Z</time><name>PT7702</name></trkpt>
<trkpt lat="53.336581" lon="06.587623"><ele>0.4</ele><time>2021-05-20T12:34:47Z</time><name>PT7703</name></trkpt>
<trkpt lat="53.336592" lon="06.587606"><ele>0.4</ele><time>2021-05-20T12:34:48Z</time><name>PT7704</name></trkpt>
<trkpt lat="53.336600" lon="06.587589"><ele>0.6</ele><time>2021-05-20T12:34:49Z</time><name>PT7705</name></trkpt>
<trkpt lat="53.336604" lon="06.587578"><ele>0.7</ele><time>2021-05-20T12:34:50Z</time><name>PT7706</name></trkpt>
<trkpt lat="53.336604" lon="06.587571"><ele>0.7</ele><time>2021-05-20T12:34:51Z</time><name>PT7707</name></trkpt>
<trkpt lat="53.336609" lon="06.587567"><ele>0.7</ele><time>2021-05-20T12:34:52Z</time><name>PT7708</name></trkpt>
<trkpt lat="53.336614" lon="06.587562"><ele>0.6</ele><time>2021-05-20T12:34:53Z</time><name>PT7709</name></trkpt>
<trkpt lat="53.336621" lon="06.587548"><ele>0.6</ele><time>2021-05-20T12:34:54Z</time><name>PT7710</name></trkpt>
<trkpt lat="53.336632" lon="06.587537"><ele>0.6</ele><time>2021-05-20T12:34:55Z</time><name>PT7711</name></trkpt>
<trkpt lat="53.336641" lon="06.587521"><ele>0.7</ele><time>2021-05-20T12:34:56Z</time><name>PT7712</name></trkpt>
<trkpt lat="53.336644" lon="06.587508"><ele>0.7</ele><time>2021-05-20T12:34:57Z</time><name>PT7713</name></trkpt>
<trkpt lat="53.336644" lon="06.587498"><ele>0.7</ele><time>2021-05-20T12:34:58Z</time><name>PT7714</name></trkpt>
<trkpt lat="53.336647" lon="06.587490"><ele>0.7</ele><time>2021-05-20T12:34:59Z</time><name>PT7715</name></trkpt>
<trkpt lat="53.336649" lon="06.587485"><ele>0.9</ele><time>2021-05-20T12:35:00Z</time><name>PT7716</name></trkpt>
<trkpt lat="53.336657" lon="06.587476"><ele>-1</ele><time>2021-05-20T12:35:01Z</time><name>PT7717</name></trkpt>
<trkpt lat="53.336661" lon="06.587471"><ele>-1</ele><time>2021-05-20T12:35:02Z</time><name>PT7718</name></trkpt>
<trkpt lat="53.336672" lon="06.587460"><ele>-1</ele><time>2021-05-20T12:35:03Z</time><name>PT7719</name></trkpt>
<trkpt lat="53.336680" lon="06.587449"><ele>0.9</ele><time>2021-05-20T12:35:04Z</time><name>PT7720</name></trkpt>
<trkpt lat="53.336690" lon="06.587431"><ele>0.6</ele><time>2021-05-20T12:35:05Z</time><name>PT7721</name></trkpt>
<trkpt lat="53.336699" lon="06.587409"><ele>0.7</ele><time>2021-05-20T12:35:06Z</time><name>PT7722</name></trkpt>
<trkpt lat="53.336706" lon="06.587392"><ele>0.4</ele><time>2021-05-20T12:35:07Z</time><name>PT7723</name></trkpt>
<trkpt lat="53.336712" lon="06.587382"><ele>0.5</ele><time>2021-05-20T12:35:08Z</time><name>PT7724</name></trkpt>
<trkpt lat="53.336716" lon="06.587369"><ele>0.3</ele><time>2021-05-20T12:35:09Z</time><name>PT7725</name></trkpt>
<trkpt lat="53.336722" lon="06.587355"><ele>0.2</ele><time>2021-05-20T12:35:10Z</time><name>PT7726</name></trkpt>
<trkpt lat="53.336730" lon="06.587340"><ele>0.3</ele><time>2021-05-20T12:35:11Z</time><name>PT7727</name></trkpt>
<trkpt lat="53.336738" lon="06.587328"><ele>0.3</ele><time>2021-05-20T12:35:12Z</time><name>PT7728</name></trkpt>
<trkpt lat="53.336745" lon="06.587320"><ele>0.4</ele><time>2021-05-20T12:35:13Z</time><name>PT7729</name></trkpt>
<trkpt lat="53.336750" lon="06.587311"><ele>0.7</ele><time>2021-05-20T12:35:14Z</time><name>PT7730</name></trkpt>
<trkpt lat="53.336755" lon="06.587309"><ele>0.7</ele><time>2021-05-20T12:35:15Z</time><name>PT7731</name></trkpt>
<trkpt lat="53.336761" lon="06.587300"><ele>0.7</ele><time>2021-05-20T12:35:16Z</time><name>PT7732</name></trkpt>
<trkpt lat="53.336765" lon="06.587292"><ele>0.6</ele><time>2021-05-20T12:35:17Z</time><name>PT7733</name></trkpt>
<trkpt lat="53.336764" lon="06.587292"><ele>0.3</ele><time>2021-05-20T12:35:18Z</time><name>PT7734</name></trkpt>
<trkpt lat="53.336764" lon="06.587292"><ele>0.4</ele><time>2021-05-20T12:35:19Z</time><name>PT7735</name></trkpt>
<trkpt lat="53.336763" lon="06.587293"><ele>0.3</ele><time>2021-05-20T12:35:20Z</time><name>PT7736</name></trkpt>
<trkpt lat="53.336763" lon="06.587293"><ele>0.5</ele><time>2021-05-20T12:35:21Z</time><name>PT7737</name></trkpt>
<trkpt lat="53.336764" lon="06.587293"><ele>0.7</ele><time>2021-05-20T12:35:22Z</time><name>PT7738</name></trkpt>
<trkpt lat="53.336765" lon="06.587293"><ele>0.8</ele><time>2021-05-20T12:35:23Z</time><name>PT7739</name></trkpt>
<trkpt lat="53.336773" lon="06.587296"><ele>0.7</ele><time>2021-05-20T12:35:26Z</time><name>PT7740</name></trkpt>
<trkpt lat="53.336775" lon="06.587293"><ele>0.7</ele><time>2021-05-20T12:35:27Z</time><name>PT7741</name></trkpt>
<trkpt lat="53.336775" lon="06.587289"><ele>0.7</ele><time>2021-05-20T12:35:28Z</time><name>PT7742</name></trkpt>
<trkpt lat="53.336771" lon="06.587285"><ele>0.7</ele><time>2021-05-20T12:35:30Z</time><name>PT7743</name></trkpt>
<trkpt lat="53.336769" lon="06.587286"><ele>0.7</ele><time>2021-05-20T12:35:31Z</time><name>PT7744</name></trkpt>
<trkpt lat="53.336766" lon="06.587285"><ele>0.8</ele><time>2021-05-20T12:35:32Z</time><name>PT7745</name></trkpt>
<trkpt lat="53.336765" lon="06.587283"><ele>0.7</ele><time>2021-05-20T12:35:33Z</time><name>PT7746</name></trkpt>
<trkpt lat="53.336763" lon="06.587279"><ele>0.3</ele><time>2021-05-20T12:35:36Z</time><name>PT7747</name></trkpt>
<trkpt lat="53.336761" lon="06.587275"><ele>0.2</ele><time>2021-05-20T12:35:37Z</time><name>PT7748</name></trkpt>
<trkpt lat="53.336759" lon="06.587270"><ele>0.1</ele><time>2021-05-20T12:35:38Z</time><name>PT7749</name></trkpt>
<trkpt lat="53.336762" lon="06.587261"><ele>0.2</ele><time>2021-05-20T12:35:40Z</time><name>PT7750</name></trkpt>
<trkpt lat="53.336765" lon="06.587251"><ele>0.5</ele><time>2021-05-20T12:35:41Z</time><name>PT7751</name></trkpt>
<trkpt lat="53.336766" lon="06.587246"><ele>0.8</ele><time>2021-05-20T12:35:42Z</time><name>PT7752</name></trkpt>
<trkpt lat="53.336772" lon="06.587234"><ele>0.7</ele><time>2021-05-20T12:35:43Z</time><name>PT7753</name></trkpt>
<trkpt lat="53.336781" lon="06.587221"><ele>0.7</ele><time>2021-05-20T12:35:44Z</time><name>PT7754</name></trkpt>
<trkpt lat="53.336784" lon="06.587210"><ele>0.8</ele><time>2021-05-20T12:35:45Z</time><name>PT7755</name></trkpt>
<trkpt lat="53.336790" lon="06.587203"><ele>0.7</ele><time>2021-05-20T12:35:46Z</time><name>PT7756</name></trkpt>
<trkpt lat="53.336797" lon="06.587194"><ele>0.6</ele><time>2021-05-20T12:35:47Z</time><name>PT7757</name></trkpt>
<trkpt lat="53.336807" lon="06.587183"><ele>0.7</ele><time>2021-05-20T12:35:48Z</time><name>PT7758</name></trkpt>
<trkpt lat="53.336817" lon="06.587164"><ele>0.7</ele><time>2021-05-20T12:35:49Z</time><name>PT7759</name></trkpt>
<trkpt lat="53.336826" lon="06.587143"><ele>0.7</ele><time>2021-05-20T12:35:50Z</time><name>PT7760</name></trkpt>
<trkpt lat="53.336830" lon="06.587129"><ele>0.7</ele><time>2021-05-20T12:35:51Z</time><name>PT7761</name></trkpt>
<trkpt lat="53.336830" lon="06.587117"><ele>0.6</ele><time>2021-05-20T12:35:52Z</time><name>PT7762</name></trkpt>
<trkpt lat="53.336832" lon="06.587107"><ele>0.6</ele><time>2021-05-20T12:35:53Z</time><name>PT7763</name></trkpt>
<trkpt lat="53.336838" lon="06.587095"><ele>0.6</ele><time>2021-05-20T12:35:54Z</time><name>PT7764</name></trkpt>
<trkpt lat="53.336846" lon="06.587076"><ele>0.7</ele><time>2021-05-20T12:35:55Z</time><name>PT7765</name></trkpt>
<trkpt lat="53.336857" lon="06.587057"><ele>0.6</ele><time>2021-05-20T12:35:56Z</time><name>PT7766</name></trkpt>
<trkpt lat="53.336863" lon="06.587042"><ele>0.7</ele><time>2021-05-20T12:35:57Z</time><name>PT7767</name></trkpt>
<trkpt lat="53.336866" lon="06.587030"><ele>0.6</ele><time>2021-05-20T12:35:58Z</time><name>PT7768</name></trkpt>
<trkpt lat="53.336869" lon="06.587022"><ele>0.6</ele><time>2021-05-20T12:35:59Z</time><name>PT7769</name></trkpt>
<trkpt lat="53.336875" lon="06.587014"><ele>0.6</ele><time>2021-05-20T12:36:00Z</time><name>PT7770</name></trkpt>
<trkpt lat="53.336877" lon="06.586996"><ele>0.5</ele><time>2021-05-20T12:36:01Z</time><name>PT7771</name></trkpt>
<trkpt lat="53.336887" lon="06.586977"><ele>0.4</ele><time>2021-05-20T12:36:02Z</time><name>PT7772</name></trkpt>
<trkpt lat="53.336897" lon="06.586954"><ele>0.5</ele><time>2021-05-20T12:36:03Z</time><name>PT7773</name></trkpt>
<trkpt lat="53.336904" lon="06.586935"><ele>0.5</ele><time>2021-05-20T12:36:04Z</time><name>PT7774</name></trkpt>
<trkpt lat="53.336909" lon="06.586921"><ele>0.5</ele><time>2021-05-20T12:36:05Z</time><name>PT7775</name></trkpt>
<trkpt lat="53.336911" lon="06.586914"><ele>0.4</ele><time>2021-05-20T12:36:06Z</time><name>PT7776</name></trkpt>
<trkpt lat="53.336914" lon="06.586905"><ele>0.5</ele><time>2021-05-20T12:36:07Z</time><name>PT7777</name></trkpt>
<trkpt lat="53.336919" lon="06.586897"><ele>0.4</ele><time>2021-05-20T12:36:08Z</time><name>PT7778</name></trkpt>
<trkpt lat="53.336923" lon="06.586880"><ele>0.5</ele><time>2021-05-20T12:36:09Z</time><name>PT7779</name></trkpt>
<trkpt lat="53.336926" lon="06.586856"><ele>0.7</ele><time>2021-05-20T12:36:10Z</time><name>PT7780</name></trkpt>
<trkpt lat="53.336928" lon="06.586826"><ele>0.7</ele><time>2021-05-20T12:36:11Z</time><name>PT7781</name></trkpt>
<trkpt lat="53.336930" lon="06.586800"><ele>0.8</ele><time>2021-05-20T12:36:12Z</time><name>PT7782</name></trkpt>
<trkpt lat="53.336937" lon="06.586783"><ele>0.7</ele><time>2021-05-20T12:36:13Z</time><name>PT7783</name></trkpt>
<trkpt lat="53.336941" lon="06.586765"><ele>0.8</ele><time>2021-05-20T12:36:14Z</time><name>PT7784</name></trkpt>
<trkpt lat="53.336946" lon="06.586761"><ele>0.7</ele><time>2021-05-20T12:36:15Z</time><name>PT7785</name></trkpt>
<trkpt lat="53.336948" lon="06.586754"><ele>0.6</ele><time>2021-05-20T12:36:16Z</time><name>PT7786</name></trkpt>
<trkpt lat="53.336952" lon="06.586744"><ele>0.5</ele><time>2021-05-20T12:36:17Z</time><name>PT7787</name></trkpt>
<trkpt lat="53.336954" lon="06.586729"><ele>0.5</ele><time>2021-05-20T12:36:18Z</time><name>PT7788</name></trkpt>
<trkpt lat="53.336960" lon="06.586715"><ele>0.5</ele><time>2021-05-20T12:36:19Z</time><name>PT7789</name></trkpt>
<trkpt lat="53.336968" lon="06.586714"><ele>0.6</ele><time>2021-05-20T12:36:20Z</time><name>PT7790</name></trkpt>
<trkpt lat="53.336970" lon="06.586711"><ele>0.7</ele><time>2021-05-20T12:36:21Z</time><name>PT7791</name></trkpt>
<trkpt lat="53.336973" lon="06.586712"><ele>0.7</ele><time>2021-05-20T12:36:22Z</time><name>PT7792</name></trkpt>
<trkpt lat="53.336974" lon="06.586710"><ele>0.7</ele><time>2021-05-20T12:36:23Z</time><name>PT7793</name></trkpt>
<trkpt lat="53.336976" lon="06.586702"><ele>0.6</ele><time>2021-05-20T12:36:42Z</time><name>PT7794</name></trkpt>
<trkpt lat="53.336985" lon="06.586684"><ele>0.6</ele><time>2021-05-20T12:36:43Z</time><name>PT7795</name></trkpt>
<trkpt lat="53.336995" lon="06.586661"><ele>0.5</ele><time>2021-05-20T12:36:44Z</time><name>PT7796</name></trkpt>
<trkpt lat="53.337001" lon="06.586648"><ele>0.3</ele><time>2021-05-20T12:36:45Z</time><name>PT7797</name></trkpt>
<trkpt lat="53.337006" lon="06.586634"><ele>0.3</ele><time>2021-05-20T12:36:46Z</time><name>PT7798</name></trkpt>
<trkpt lat="53.337014" lon="06.586612"><ele>0.3</ele><time>2021-05-20T12:36:47Z</time><name>PT7799</name></trkpt>
<trkpt lat="53.337018" lon="06.586594"><ele>0.4</ele><time>2021-05-20T12:36:48Z</time><name>PT7800</name></trkpt>
<trkpt lat="53.337024" lon="06.586579"><ele>0.4</ele><time>2021-05-20T12:36:49Z</time><name>PT7801</name></trkpt>
<trkpt lat="53.337030" lon="06.586558"><ele>0.3</ele><time>2021-05-20T12:36:50Z</time><name>PT7802</name></trkpt>
<trkpt lat="53.337035" lon="06.586543"><ele>0.3</ele><time>2021-05-20T12:36:51Z</time><name>PT7803</name></trkpt>
<trkpt lat="53.337042" lon="06.586529"><ele>0.2</ele><time>2021-05-20T12:36:52Z</time><name>PT7804</name></trkpt>
<trkpt lat="53.337049" lon="06.586512"><ele>0.2</ele><time>2021-05-20T12:36:53Z</time><name>PT7805</name></trkpt>
<trkpt lat="53.337055" lon="06.586495"><ele>0.1</ele><time>2021-05-20T12:36:54Z</time><name>PT7806</name></trkpt>
<trkpt lat="53.337063" lon="06.586480"><ele>0.1</ele><time>2021-05-20T12:36:55Z</time><name>PT7807</name></trkpt>
<trkpt lat="53.337070" lon="06.586467"><ele>0</ele><time>2021-05-20T12:36:56Z</time><name>PT7808</name></trkpt>
<trkpt lat="53.337079" lon="06.586453"><ele>0.1</ele><time>2021-05-20T12:36:57Z</time><name>PT7809</name></trkpt>
<trkpt lat="53.337086" lon="06.586437"><ele>0</ele><time>2021-05-20T12:36:58Z</time><name>PT7810</name></trkpt>
<trkpt lat="53.337093" lon="06.586421"><ele>0</ele><time>2021-05-20T12:36:59Z</time><name>PT7811</name></trkpt>
<trkpt lat="53.337102" lon="06.586404"><ele>0</ele><time>2021-05-20T12:37:00Z</time><name>PT7812</name></trkpt>
<trkpt lat="53.337111" lon="06.586382"><ele>0.1</ele><time>2021-05-20T12:37:01Z</time><name>PT7813</name></trkpt>
<trkpt lat="53.337120" lon="06.586363"><ele>0.2</ele><time>2021-05-20T12:37:02Z</time><name>PT7814</name></trkpt>
<trkpt lat="53.337129" lon="06.586346"><ele>0.2</ele><time>2021-05-20T12:37:03Z</time><name>PT7815</name></trkpt>
<trkpt lat="53.337140" lon="06.586334"><ele>0.4</ele><time>2021-05-20T12:37:04Z</time><name>PT7816</name></trkpt>
<trkpt lat="53.337146" lon="06.586319"><ele>0.4</ele><time>2021-05-20T12:37:05Z</time><name>PT7817</name></trkpt>
<trkpt lat="53.337149" lon="06.586304"><ele>0.3</ele><time>2021-05-20T12:37:06Z</time><name>PT7818</name></trkpt>
<trkpt lat="53.337155" lon="06.586286"><ele>0.3</ele><time>2021-05-20T12:37:07Z</time><name>PT7819</name></trkpt>
<trkpt lat="53.337162" lon="06.586271"><ele>0.2</ele><time>2021-05-20T12:37:08Z</time><name>PT7820</name></trkpt>
<trkpt lat="53.337168" lon="06.586256"><ele>0.2</ele><time>2021-05-20T12:37:09Z</time><name>PT7821</name></trkpt>
<trkpt lat="53.337176" lon="06.586242"><ele>0</ele><time>2021-05-20T12:37:10Z</time><name>PT7822</name></trkpt>
<trkpt lat="53.337182" lon="06.586226"><ele>0</ele><time>2021-05-20T12:37:11Z</time><name>PT7823</name></trkpt>
<trkpt lat="53.337188" lon="06.586211"><ele>0</ele><time>2021-05-20T12:37:12Z</time><name>PT7824</name></trkpt>
<trkpt lat="53.337195" lon="06.586196"><ele>0</ele><time>2021-05-20T12:37:13Z</time><name>PT7825</name></trkpt>
<trkpt lat="53.337204" lon="06.586182"><ele>0</ele><time>2021-05-20T12:37:14Z</time><name>PT7826</name></trkpt>
<trkpt lat="53.337211" lon="06.586167"><ele>0</ele><time>2021-05-20T12:37:15Z</time><name>PT7827</name></trkpt>
<trkpt lat="53.337219" lon="06.586152"><ele>0</ele><time>2021-05-20T12:37:16Z</time><name>PT7828</name></trkpt>
<trkpt lat="53.337226" lon="06.586139"><ele>0</ele><time>2021-05-20T12:37:17Z</time><name>PT7829</name></trkpt>
<trkpt lat="53.337231" lon="06.586127"><ele>0.1</ele><time>2021-05-20T12:37:18Z</time><name>PT7830</name></trkpt>
<trkpt lat="53.337238" lon="06.586115"><ele>0</ele><time>2021-05-20T12:37:19Z</time><name>PT7831</name></trkpt>
<trkpt lat="53.337248" lon="06.586100"><ele>0.1</ele><time>2021-05-20T12:37:20Z</time><name>PT7832</name></trkpt>
<trkpt lat="53.337254" lon="06.586083"><ele>0.1</ele><time>2021-05-20T12:37:21Z</time><name>PT7833</name></trkpt>
<trkpt lat="53.337259" lon="06.586066"><ele>0</ele><time>2021-05-20T12:37:22Z</time><name>PT7834</name></trkpt>
<trkpt lat="53.337266" lon="06.586049"><ele>0</ele><time>2021-05-20T12:37:23Z</time><name>PT7835</name></trkpt>
<trkpt lat="53.337271" lon="06.586031"><ele>0</ele><time>2021-05-20T12:37:24Z</time><name>PT7836</name></trkpt>
<trkpt lat="53.337277" lon="06.586016"><ele>0.2</ele><time>2021-05-20T12:37:25Z</time><name>PT7837</name></trkpt>
<trkpt lat="53.337284" lon="06.586003"><ele>0.2</ele><time>2021-05-20T12:37:26Z</time><name>PT7838</name></trkpt>
<trkpt lat="53.337291" lon="06.585986"><ele>0.3</ele><time>2021-05-20T12:37:27Z</time><name>PT7839</name></trkpt>
<trkpt lat="53.337298" lon="06.585973"><ele>0.3</ele><time>2021-05-20T12:37:28Z</time><name>PT7840</name></trkpt>
<trkpt lat="53.337305" lon="06.585962"><ele>0.2</ele><time>2021-05-20T12:37:29Z</time><name>PT7841</name></trkpt>
<trkpt lat="53.337312" lon="06.585950"><ele>0.2</ele><time>2021-05-20T12:37:30Z</time><name>PT7842</name></trkpt>
<trkpt lat="53.337319" lon="06.585936"><ele>0</ele><time>2021-05-20T12:37:31Z</time><name>PT7843</name></trkpt>
<trkpt lat="53.337326" lon="06.585920"><ele>0</ele><time>2021-05-20T12:37:32Z</time><name>PT7844</name></trkpt>
<trkpt lat="53.337333" lon="06.585904"><ele>0.1</ele><time>2021-05-20T12:37:33Z</time><name>PT7845</name></trkpt>
<trkpt lat="53.337341" lon="06.585890"><ele>0.4</ele><time>2021-05-20T12:37:34Z</time><name>PT7846</name></trkpt>
<trkpt lat="53.337348" lon="06.585876"><ele>0.3</ele><time>2021-05-20T12:37:35Z</time><name>PT7847</name></trkpt>
<trkpt lat="53.337356" lon="06.585862"><ele>0.3</ele><time>2021-05-20T12:37:36Z</time><name>PT7848</name></trkpt>
<trkpt lat="53.337364" lon="06.585848"><ele>0.1</ele><time>2021-05-20T12:37:37Z</time><name>PT7849</name></trkpt>
<trkpt lat="53.337372" lon="06.585835"><ele>0</ele><time>2021-05-20T12:37:38Z</time><name>PT7850</name></trkpt>
<trkpt lat="53.337380" lon="06.585816"><ele>0.1</ele><time>2021-05-20T12:37:39Z</time><name>PT7851</name></trkpt>
<trkpt lat="53.337385" lon="06.585800"><ele>0</ele><time>2021-05-20T12:37:40Z</time><name>PT7852</name></trkpt>
<trkpt lat="53.337390" lon="06.585784"><ele>0</ele><time>2021-05-20T12:37:41Z</time><name>PT7853</name></trkpt>
<trkpt lat="53.337395" lon="06.585770"><ele>0.1</ele><time>2021-05-20T12:37:42Z</time><name>PT7854</name></trkpt>
<trkpt lat="53.337404" lon="06.585755"><ele>0.1</ele><time>2021-05-20T12:37:43Z</time><name>PT7855</name></trkpt>
<trkpt lat="53.337412" lon="06.585742"><ele>0</ele><time>2021-05-20T12:37:44Z</time><name>PT7856</name></trkpt>
<trkpt lat="53.337420" lon="06.585731"><ele>0.1</ele><time>2021-05-20T12:37:45Z</time><name>PT7857</name></trkpt>
<trkpt lat="53.337427" lon="06.585718"><ele>0</ele><time>2021-05-20T12:37:46Z</time><name>PT7858</name></trkpt>
<trkpt lat="53.337434" lon="06.585707"><ele>0</ele><time>2021-05-20T12:37:47Z</time><name>PT7859</name></trkpt>
<trkpt lat="53.337440" lon="06.585691"><ele>0</ele><time>2021-05-20T12:37:48Z</time><name>PT7860</name></trkpt>
<trkpt lat="53.337448" lon="06.585679"><ele>0.1</ele><time>2021-05-20T12:37:49Z</time><name>PT7861</name></trkpt>
<trkpt lat="53.337454" lon="06.585665"><ele>0</ele><time>2021-05-20T12:37:50Z</time><name>PT7862</name></trkpt>
<trkpt lat="53.337460" lon="06.585654"><ele>0</ele><time>2021-05-20T12:37:51Z</time><name>PT7863</name></trkpt>
<trkpt lat="53.337464" lon="06.585643"><ele>0</ele><time>2021-05-20T12:37:52Z</time><name>PT7864</name></trkpt>
<trkpt lat="53.337471" lon="06.585630"><ele>0.1</ele><time>2021-05-20T12:37:53Z</time><name>PT7865</name></trkpt>
<trkpt lat="53.337479" lon="06.585614"><ele>0.1</ele><time>2021-05-20T12:37:54Z</time><name>PT7866</name></trkpt>
<trkpt lat="53.337485" lon="06.585599"><ele>0.1</ele><time>2021-05-20T12:37:55Z</time><name>PT7867</name></trkpt>
<trkpt lat="53.337491" lon="06.585588"><ele>0</ele><time>2021-05-20T12:37:56Z</time><name>PT7868</name></trkpt>
<trkpt lat="53.337496" lon="06.585575"><ele>0</ele><time>2021-05-20T12:37:57Z</time><name>PT7869</name></trkpt>
<trkpt lat="53.337503" lon="06.585560"><ele>0</ele><time>2021-05-20T12:37:58Z</time><name>PT7870</name></trkpt>
<trkpt lat="53.337508" lon="06.585545"><ele>0.1</ele><time>2021-05-20T12:37:59Z</time><name>PT7871</name></trkpt>
<trkpt lat="53.337514" lon="06.585530"><ele>0</ele><time>2021-05-20T12:38:00Z</time><name>PT7872</name></trkpt>
<trkpt lat="53.337520" lon="06.585517"><ele>0</ele><time>2021-05-20T12:38:01Z</time><name>PT7873</name></trkpt>
<trkpt lat="53.337528" lon="06.585502"><ele>0</ele><time>2021-05-20T12:38:02Z</time><name>PT7874</name></trkpt>
<trkpt lat="53.337527" lon="06.585493"><ele>0</ele><time>2021-05-20T12:38:03Z</time><name>PT7875</name></trkpt>
<trkpt lat="53.337530" lon="06.585480"><ele>0.1</ele><time>2021-05-20T12:38:04Z</time><name>PT7876</name></trkpt>
<trkpt lat="53.337537" lon="06.585466"><ele>0.2</ele><time>2021-05-20T12:38:05Z</time><name>PT7877</name></trkpt>
<trkpt lat="53.337546" lon="06.585451"><ele>0.1</ele><time>2021-05-20T12:38:06Z</time><name>PT7878</name></trkpt>
<trkpt lat="53.337555" lon="06.585435"><ele>0.1</ele><time>2021-05-20T12:38:07Z</time><name>PT7879</name></trkpt>
<trkpt lat="53.337562" lon="06.585420"><ele>0.1</ele><time>2021-05-20T12:38:08Z</time><name>PT7880</name></trkpt>
<trkpt lat="53.337569" lon="06.585404"><ele>0.1</ele><time>2021-05-20T12:38:09Z</time><name>PT7881</name></trkpt>
<trkpt lat="53.337575" lon="06.585388"><ele>0</ele><time>2021-05-20T12:38:10Z</time><name>PT7882</name></trkpt>
<trkpt lat="53.337581" lon="06.585374"><ele>0.1</ele><time>2021-05-20T12:38:11Z</time><name>PT7883</name></trkpt>
<trkpt lat="53.337587" lon="06.585361"><ele>0.1</ele><time>2021-05-20T12:38:12Z</time><name>PT7884</name></trkpt>
<trkpt lat="53.337594" lon="06.585351"><ele>0</ele><time>2021-05-20T12:38:13Z</time><name>PT7885</name></trkpt>
<trkpt lat="53.337601" lon="06.585338"><ele>0.1</ele><time>2021-05-20T12:38:14Z</time><name>PT7886</name></trkpt>
<trkpt lat="53.337608" lon="06.585326"><ele>0.2</ele><time>2021-05-20T12:38:15Z</time><name>PT7887</name></trkpt>
<trkpt lat="53.337617" lon="06.585312"><ele>0.3</ele><time>2021-05-20T12:38:16Z</time><name>PT7888</name></trkpt>
<trkpt lat="53.337624" lon="06.585297"><ele>0.5</ele><time>2021-05-20T12:38:17Z</time><name>PT7889</name></trkpt>
<trkpt lat="53.337630" lon="06.585281"><ele>0.6</ele><time>2021-05-20T12:38:18Z</time><name>PT7890</name></trkpt>
<trkpt lat="53.337634" lon="06.585264"><ele>0.4</ele><time>2021-05-20T12:38:19Z</time><name>PT7891</name></trkpt>
<trkpt lat="53.337639" lon="06.585250"><ele>0.3</ele><time>2021-05-20T12:38:20Z</time><name>PT7892</name></trkpt>
<trkpt lat="53.337644" lon="06.585240"><ele>0.2</ele><time>2021-05-20T12:38:21Z</time><name>PT7893</name></trkpt>
<trkpt lat="53.337652" lon="06.585229"><ele>0.2</ele><time>2021-05-20T12:38:22Z</time><name>PT7894</name></trkpt>
<trkpt lat="53.337659" lon="06.585216"><ele>0.3</ele><time>2021-05-20T12:38:23Z</time><name>PT7895</name></trkpt>
<trkpt lat="53.337667" lon="06.585200"><ele>0.1</ele><time>2021-05-20T12:38:24Z</time><name>PT7896</name></trkpt>
<trkpt lat="53.337674" lon="06.585184"><ele>0.1</ele><time>2021-05-20T12:38:25Z</time><name>PT7897</name></trkpt>
<trkpt lat="53.337679" lon="06.585168"><ele>0.1</ele><time>2021-05-20T12:38:26Z</time><name>PT7898</name></trkpt>
<trkpt lat="53.337681" lon="06.585153"><ele>0.1</ele><time>2021-05-20T12:38:27Z</time><name>PT7899</name></trkpt>
<trkpt lat="53.337684" lon="06.585143"><ele>0.2</ele><time>2021-05-20T12:38:28Z</time><name>PT7900</name></trkpt>
<trkpt lat="53.337689" lon="06.585133"><ele>0.3</ele><time>2021-05-20T12:38:29Z</time><name>PT7901</name></trkpt>
<trkpt lat="53.337696" lon="06.585120"><ele>0.1</ele><time>2021-05-20T12:38:30Z</time><name>PT7902</name></trkpt>
<trkpt lat="53.337705" lon="06.585109"><ele>0.1</ele><time>2021-05-20T12:38:31Z</time><name>PT7903</name></trkpt>
<trkpt lat="53.337714" lon="06.585096"><ele>0</ele><time>2021-05-20T12:38:32Z</time><name>PT7904</name></trkpt>
<trkpt lat="53.337721" lon="06.585080"><ele>0.1</ele><time>2021-05-20T12:38:33Z</time><name>PT7905</name></trkpt>
<trkpt lat="53.337728" lon="06.585063"><ele>0.3</ele><time>2021-05-20T12:38:34Z</time><name>PT7906</name></trkpt>
<trkpt lat="53.337738" lon="06.585046"><ele>0.4</ele><time>2021-05-20T12:38:35Z</time><name>PT7907</name></trkpt>
<trkpt lat="53.337745" lon="06.585034"><ele>0.4</ele><time>2021-05-20T12:38:36Z</time><name>PT7908</name></trkpt>
<trkpt lat="53.337750" lon="06.585022"><ele>0.6</ele><time>2021-05-20T12:38:37Z</time><name>PT7909</name></trkpt>
<trkpt lat="53.337754" lon="06.585007"><ele>0.3</ele><time>2021-05-20T12:38:38Z</time><name>PT7910</name></trkpt>
<trkpt lat="53.337760" lon="06.584995"><ele>0.2</ele><time>2021-05-20T12:38:39Z</time><name>PT7911</name></trkpt>
<trkpt lat="53.337765" lon="06.584980"><ele>0.5</ele><time>2021-05-20T12:38:40Z</time><name>PT7912</name></trkpt>
<trkpt lat="53.337771" lon="06.584967"><ele>0.3</ele><time>2021-05-20T12:38:41Z</time><name>PT7913</name></trkpt>
<trkpt lat="53.337778" lon="06.584956"><ele>0.3</ele><time>2021-05-20T12:38:42Z</time><name>PT7914</name></trkpt>
<trkpt lat="53.337786" lon="06.584944"><ele>0.1</ele><time>2021-05-20T12:38:43Z</time><name>PT7915</name></trkpt>
<trkpt lat="53.337795" lon="06.584931"><ele>0.1</ele><time>2021-05-20T12:38:44Z</time><name>PT7916</name></trkpt>
<trkpt lat="53.337803" lon="06.584917"><ele>0</ele><time>2021-05-20T12:38:45Z</time><name>PT7917</name></trkpt>
<trkpt lat="53.337810" lon="06.584901"><ele>0</ele><time>2021-05-20T12:38:46Z</time><name>PT7918</name></trkpt>
<trkpt lat="53.337814" lon="06.584887"><ele>0</ele><time>2021-05-20T12:38:47Z</time><name>PT7919</name></trkpt>
<trkpt lat="53.337817" lon="06.584868"><ele>0.1</ele><time>2021-05-20T12:38:48Z</time><name>PT7920</name></trkpt>
<trkpt lat="53.337824" lon="06.584852"><ele>0.1</ele><time>2021-05-20T12:38:49Z</time><name>PT7921</name></trkpt>
<trkpt lat="53.337832" lon="06.584839"><ele>0.2</ele><time>2021-05-20T12:38:50Z</time><name>PT7922</name></trkpt>
<trkpt lat="53.337838" lon="06.584826"><ele>0.2</ele><time>2021-05-20T12:38:51Z</time><name>PT7923</name></trkpt>
<trkpt lat="53.337845" lon="06.584813"><ele>0.3</ele><time>2021-05-20T12:38:52Z</time><name>PT7924</name></trkpt>
<trkpt lat="53.337854" lon="06.584802"><ele>0.2</ele><time>2021-05-20T12:38:53Z</time><name>PT7925</name></trkpt>
<trkpt lat="53.337862" lon="06.584788"><ele>0.2</ele><time>2021-05-20T12:38:54Z</time><name>PT7926</name></trkpt>
<trkpt lat="53.337868" lon="06.584772"><ele>0.2</ele><time>2021-05-20T12:38:55Z</time><name>PT7927</name></trkpt>
<trkpt lat="53.337874" lon="06.584758"><ele>0.3</ele><time>2021-05-20T12:38:56Z</time><name>PT7928</name></trkpt>
<trkpt lat="53.337881" lon="06.584747"><ele>0.4</ele><time>2021-05-20T12:38:57Z</time><name>PT7929</name></trkpt>
<trkpt lat="53.337892" lon="06.584730"><ele>0.3</ele><time>2021-05-20T12:38:58Z</time><name>PT7930</name></trkpt>
<trkpt lat="53.337899" lon="06.584718"><ele>0.2</ele><time>2021-05-20T12:38:59Z</time><name>PT7931</name></trkpt>
<trkpt lat="53.337906" lon="06.584702"><ele>0.1</ele><time>2021-05-20T12:39:00Z</time><name>PT7932</name></trkpt>
<trkpt lat="53.337912" lon="06.584689"><ele>0.1</ele><time>2021-05-20T12:39:01Z</time><name>PT7933</name></trkpt>
<trkpt lat="53.337919" lon="06.584673"><ele>0</ele><time>2021-05-20T12:39:02Z</time><name>PT7934</name></trkpt>
<trkpt lat="53.337927" lon="06.584659"><ele>0.2</ele><time>2021-05-20T12:39:03Z</time><name>PT7935</name></trkpt>
<trkpt lat="53.337934" lon="06.584645"><ele>0.4</ele><time>2021-05-20T12:39:04Z</time><name>PT7936</name></trkpt>
<trkpt lat="53.337945" lon="06.584631"><ele>0.5</ele><time>2021-05-20T12:39:05Z</time><name>PT7937</name></trkpt>
<trkpt lat="53.337954" lon="06.584617"><ele>0.5</ele><time>2021-05-20T12:39:06Z</time><name>PT7938</name></trkpt>
<trkpt lat="53.337962" lon="06.584603"><ele>0.6</ele><time>2021-05-20T12:39:07Z</time><name>PT7939</name></trkpt>
<trkpt lat="53.337968" lon="06.584590"><ele>0.7</ele><time>2021-05-20T12:39:08Z</time><name>PT7940</name></trkpt>
<trkpt lat="53.337976" lon="06.584576"><ele>0.8</ele><time>2021-05-20T12:39:09Z</time><name>PT7941</name></trkpt>
<trkpt lat="53.337987" lon="06.584562"><ele>0.7</ele><time>2021-05-20T12:39:10Z</time><name>PT7942</name></trkpt>
<trkpt lat="53.337994" lon="06.584546"><ele>0.8</ele><time>2021-05-20T12:39:12Z</time><name>PT7943</name></trkpt>
<trkpt lat="53.338002" lon="06.584530"><ele>0.6</ele><time>2021-05-20T12:39:12Z</time><name>PT7944</name></trkpt>
<trkpt lat="53.338010" lon="06.584515"><ele>0.4</ele><time>2021-05-20T12:39:13Z</time><name>PT7945</name></trkpt>
<trkpt lat="53.338017" lon="06.584499"><ele>0.5</ele><time>2021-05-20T12:39:14Z</time><name>PT7946</name></trkpt>
<trkpt lat="53.338023" lon="06.584482"><ele>0.5</ele><time>2021-05-20T12:39:15Z</time><name>PT7947</name></trkpt>
<trkpt lat="53.338030" lon="06.584468"><ele>0.3</ele><time>2021-05-20T12:39:16Z</time><name>PT7948</name></trkpt>
<trkpt lat="53.338038" lon="06.584458"><ele>0.2</ele><time>2021-05-20T12:39:17Z</time><name>PT7949</name></trkpt>
<trkpt lat="53.338046" lon="06.584444"><ele>0.1</ele><time>2021-05-20T12:39:18Z</time><name>PT7950</name></trkpt>
<trkpt lat="53.338053" lon="06.584429"><ele>0.1</ele><time>2021-05-20T12:39:19Z</time><name>PT7951</name></trkpt>
<trkpt lat="53.338063" lon="06.584411"><ele>0.1</ele><time>2021-05-20T12:39:20Z</time><name>PT7952</name></trkpt>
<trkpt lat="53.338073" lon="06.584392"><ele>0.1</ele><time>2021-05-20T12:39:21Z</time><name>PT7953</name></trkpt>
<trkpt lat="53.338082" lon="06.584373"><ele>0.3</ele><time>2021-05-20T12:39:22Z</time><name>PT7954</name></trkpt>
<trkpt lat="53.338089" lon="06.584355"><ele>0.2</ele><time>2021-05-20T12:39:23Z</time><name>PT7955</name></trkpt>
<trkpt lat="53.338093" lon="06.584342"><ele>0.2</ele><time>2021-05-20T12:39:24Z</time><name>PT7956</name></trkpt>
<trkpt lat="53.338099" lon="06.584332"><ele>0.4</ele><time>2021-05-20T12:39:25Z</time><name>PT7957</name></trkpt>
<trkpt lat="53.338109" lon="06.584318"><ele>0.4</ele><time>2021-05-20T12:39:26Z</time><name>PT7958</name></trkpt>
<trkpt lat="53.338117" lon="06.584304"><ele>0.5</ele><time>2021-05-20T12:39:27Z</time><name>PT7959</name></trkpt>
<trkpt lat="53.338125" lon="06.584291"><ele>0.5</ele><time>2021-05-20T12:39:28Z</time><name>PT7960</name></trkpt>
<trkpt lat="53.338134" lon="06.584272"><ele>0.4</ele><time>2021-05-20T12:39:29Z</time><name>PT7961</name></trkpt>
<trkpt lat="53.338144" lon="06.584256"><ele>0.2</ele><time>2021-05-20T12:39:30Z</time><name>PT7962</name></trkpt>
<trkpt lat="53.338148" lon="06.584241"><ele>0.1</ele><time>2021-05-20T12:39:31Z</time><name>PT7963</name></trkpt>
<trkpt lat="53.338153" lon="06.584229"><ele>0</ele><time>2021-05-20T12:39:32Z</time><name>PT7964</name></trkpt>
<trkpt lat="53.338158" lon="06.584220"><ele>0.1</ele><time>2021-05-20T12:39:33Z</time><name>PT7965</name></trkpt>
<trkpt lat="53.338166" lon="06.584208"><ele>0</ele><time>2021-05-20T12:39:34Z</time><name>PT7966</name></trkpt>
<trkpt lat="53.338178" lon="06.584195"><ele>0.2</ele><time>2021-05-20T12:39:35Z</time><name>PT7967</name></trkpt>
<trkpt lat="53.338191" lon="06.584181"><ele>0.2</ele><time>2021-05-20T12:39:36Z</time><name>PT7968</name></trkpt>
<trkpt lat="53.338201" lon="06.584164"><ele>0.4</ele><time>2021-05-20T12:39:37Z</time><name>PT7969</name></trkpt>
<trkpt lat="53.338209" lon="06.584151"><ele>0.3</ele><time>2021-05-20T12:39:38Z</time><name>PT7970</name></trkpt>
<trkpt lat="53.338215" lon="06.584138"><ele>0.1</ele><time>2021-05-20T12:39:39Z</time><name>PT7971</name></trkpt>
<trkpt lat="53.338221" lon="06.584126"><ele>0.1</ele><time>2021-05-20T12:39:40Z</time><name>PT7972</name></trkpt>
<trkpt lat="53.338227" lon="06.584117"><ele>0.2</ele><time>2021-05-20T12:39:41Z</time><name>PT7973</name></trkpt>
<trkpt lat="53.338233" lon="06.584109"><ele>0</ele><time>2021-05-20T12:39:42Z</time><name>PT7974</name></trkpt>
<trkpt lat="53.338241" lon="06.584099"><ele>0.1</ele><time>2021-05-20T12:39:43Z</time><name>PT7975</name></trkpt>
<trkpt lat="53.338248" lon="06.584090"><ele>0.2</ele><time>2021-05-20T12:39:44Z</time><name>PT7976</name></trkpt>
<trkpt lat="53.338258" lon="06.584081"><ele>0.2</ele><time>2021-05-20T12:39:45Z</time><name>PT7977</name></trkpt>
<trkpt lat="53.338263" lon="06.584070"><ele>0.2</ele><time>2021-05-20T12:39:46Z</time><name>PT7978</name></trkpt>
<trkpt lat="53.338268" lon="06.584062"><ele>0.3</ele><time>2021-05-20T12:39:47Z</time><name>PT7979</name></trkpt>
<trkpt lat="53.338271" lon="06.584058"><ele>0.2</ele><time>2021-05-20T12:39:48Z</time><name>PT7980</name></trkpt>
<trkpt lat="53.338276" lon="06.584048"><ele>0.1</ele><time>2021-05-20T12:39:49Z</time><name>PT7981</name></trkpt>
<trkpt lat="53.338283" lon="06.584042"><ele>0.1</ele><time>2021-05-20T12:39:50Z</time><name>PT7982</name></trkpt>
<trkpt lat="53.338286" lon="06.584038"><ele>0.1</ele><time>2021-05-20T12:39:51Z</time><name>PT7983</name></trkpt>
<trkpt lat="53.338290" lon="06.584038"><ele>0.1</ele><time>2021-05-20T12:39:52Z</time><name>PT7984</name></trkpt>
<trkpt lat="53.338293" lon="06.584039"><ele>0.2</ele><time>2021-05-20T12:39:53Z</time><name>PT7985</name></trkpt>
<trkpt lat="53.338294" lon="06.584038"><ele>0.4</ele><time>2021-05-20T12:39:54Z</time><name>PT7986</name></trkpt>
<trkpt lat="53.338292" lon="06.584035"><ele>0.5</ele><time>2021-05-20T12:39:55Z</time><name>PT7987</name></trkpt>
<trkpt lat="53.338292" lon="06.584034"><ele>0.6</ele><time>2021-05-20T12:39:56Z</time><name>PT7988</name></trkpt>
<trkpt lat="53.338293" lon="06.584033"><ele>0.5</ele><time>2021-05-20T12:39:57Z</time><name>PT7989</name></trkpt>
<trkpt lat="53.338293" lon="06.584033"><ele>0.2</ele><time>2021-05-20T12:39:58Z</time><name>PT7990</name></trkpt>
<trkpt lat="53.338292" lon="06.584030"><ele>0</ele><time>2021-05-20T12:40:08Z</time><name>PT7991</name></trkpt>
<trkpt lat="53.338294" lon="06.584025"><ele>0.1</ele><time>2021-05-20T12:40:09Z</time><name>PT7992</name></trkpt>
<trkpt lat="53.338296" lon="06.584027"><ele>0.1</ele><time>2021-05-20T12:40:10Z</time><name>PT7993</name></trkpt>
<trkpt lat="53.338296" lon="06.584026"><ele>0</ele><time>2021-05-20T12:40:11Z</time><name>PT7994</name></trkpt>
<trkpt lat="53.338297" lon="06.584023"><ele>0</ele><time>2021-05-20T12:40:12Z</time><name>PT7995</name></trkpt>
<trkpt lat="53.338299" lon="06.584015"><ele>0.5</ele><time>2021-05-20T12:40:30Z</time><name>PT7996</name></trkpt>
<trkpt lat="53.338306" lon="06.584008"><ele>0.6</ele><time>2021-05-20T12:40:31Z</time><name>PT7997</name></trkpt>
<trkpt lat="53.338313" lon="06.584004"><ele>0.7</ele><time>2021-05-20T12:40:32Z</time><name>PT7998</name></trkpt>
<trkpt lat="53.338316" lon="06.584000"><ele>0.6</ele><time>2021-05-20T12:40:33Z</time><name>PT7999</name></trkpt>
<trkpt lat="53.338318" lon="06.583999"><ele>0.6</ele><time>2021-05-20T12:40:34Z</time><name>PT8000</name></trkpt>
<trkpt lat="53.338318" lon="06.583998"><ele>0.8</ele><time>2021-05-20T12:40:35Z</time><name>PT8001</name></trkpt>
<trkpt lat="53.338319" lon="06.583998"><ele>0.7</ele><time>2021-05-20T12:40:36Z</time><name>PT8002</name></trkpt>
<trkpt lat="53.338318" lon="06.583994"><ele>0.7</ele><time>2021-05-20T12:40:45Z</time><name>PT8003</name></trkpt>
<trkpt lat="53.338321" lon="06.583990"><ele>0.9</ele><time>2021-05-20T12:40:46Z</time><name>PT8004</name></trkpt>
<trkpt lat="53.338323" lon="06.583985"><ele>1</ele><time>2021-05-20T12:40:47Z</time><name>PT8005</name></trkpt>
<trkpt lat="53.338323" lon="06.583983"><ele>1</ele><time>2021-05-20T12:40:48Z</time><name>PT8006</name></trkpt>
<trkpt lat="53.338323" lon="06.583981"><ele>1</ele><time>2021-05-20T12:40:49Z</time><name>PT8007</name></trkpt>
<trkpt lat="53.338327" lon="06.583978"><ele>1</ele><time>2021-05-20T12:41:00Z</time><name>PT8008</name></trkpt>
<trkpt lat="53.338328" lon="06.583976"><ele>1</ele><time>2021-05-20T12:41:01Z</time><name>PT8009</name></trkpt>
<trkpt lat="53.338329" lon="06.583976"><ele>0.7</ele><time>2021-05-20T12:41:10Z</time><name>PT8010</name></trkpt>
<trkpt lat="53.338331" lon="06.583973"><ele>0.7</ele><time>2021-05-20T12:41:11Z</time><name>PT8011</name></trkpt>
<trkpt lat="53.338332" lon="06.583970"><ele>0.6</ele><time>2021-05-20T12:41:22Z</time><name>PT8012</name></trkpt>
<trkpt lat="53.338335" lon="06.583966"><ele>0.7</ele><time>2021-05-20T12:41:23Z</time><name>PT8013</name></trkpt>
<trkpt lat="53.338336" lon="06.583964"><ele>1</ele><time>2021-05-20T12:41:24Z</time><name>PT8014</name></trkpt>
<trkpt lat="53.338339" lon="06.583959"><ele>0.9</ele><time>2021-05-20T12:41:25Z</time><name>PT8015</name></trkpt>
<trkpt lat="53.338344" lon="06.583956"><ele>1</ele><time>2021-05-20T12:41:26Z</time><name>PT8016</name></trkpt>
<trkpt lat="53.338349" lon="06.583952"><ele>0.8</ele><time>2021-05-20T12:41:27Z</time><name>PT8017</name></trkpt>
<trkpt lat="53.338352" lon="06.583954"><ele>1</ele><time>2021-05-20T12:42:00Z</time><name>PT8018</name></trkpt>
<trkpt lat="53.338356" lon="06.583948"><ele>1</ele><time>2021-05-20T12:42:01Z</time><name>PT8019</name></trkpt>
<trkpt lat="53.338358" lon="06.583943"><ele>1.1</ele><time>2021-05-20T12:42:02Z</time><name>PT8020</name></trkpt>
<trkpt lat="53.338360" lon="06.583941"><ele>1</ele><time>2021-05-20T12:42:03Z</time><name>PT8021</name></trkpt>
<trkpt lat="53.338361" lon="06.583939"><ele>1</ele><time>2021-05-20T12:42:04Z</time><name>PT8022</name></trkpt>
<trkpt lat="53.338366" lon="06.583938"><ele>0.8</ele><time>2021-05-20T12:42:34Z</time><name>PT8023</name></trkpt>
<trkpt lat="53.338368" lon="06.583934"><ele>0.9</ele><time>2021-05-20T12:42:35Z</time><name>PT8024</name></trkpt>
<trkpt lat="53.338370" lon="06.583932"><ele>1</ele><time>2021-05-20T12:42:36Z</time><name>PT8025</name></trkpt>
<trkpt lat="53.338373" lon="06.583931"><ele>1.2</ele><time>2021-05-20T12:42:37Z</time><name>PT8026</name></trkpt>
<trkpt lat="53.338376" lon="06.583932"><ele>1.2</ele><time>2021-05-20T12:42:40Z</time><name>PT8027</name></trkpt>
<trkpt lat="53.338379" lon="06.583933"><ele>1.2</ele><time>2021-05-20T12:42:41Z</time><name>PT8028</name></trkpt>
<trkpt lat="53.338379" lon="06.583932"><ele>1.1</ele><time>2021-05-20T12:42:42Z</time><name>PT8029</name></trkpt>
<trkpt lat="53.338381" lon="06.583931"><ele>1.1</ele><time>2021-05-20T12:42:43Z</time><name>PT8030</name></trkpt>
<trkpt lat="53.338381" lon="06.583931"><ele>1.1</ele><time>2021-05-20T12:42:44Z</time><name>PT8031</name></trkpt>
<trkpt lat="53.338382" lon="06.583930"><ele>1.1</ele><time>2021-05-20T12:42:45Z</time><name>PT8032</name></trkpt>
<trkpt lat="53.338388" lon="06.583926"><ele>1</ele><time>2021-05-20T12:43:44Z</time><name>PT8033</name></trkpt>
<trkpt lat="53.338390" lon="06.583924"><ele>1</ele><time>2021-05-20T12:43:45Z</time><name>PT8034</name></trkpt>
<trkpt lat="53.338394" lon="06.583919"><ele>1</ele><time>2021-05-20T12:43:46Z</time><name>PT8035</name></trkpt>
<trkpt lat="53.338398" lon="06.583912"><ele>0.8</ele><time>2021-05-20T12:43:47Z</time><name>PT8036</name></trkpt>
<trkpt lat="53.338401" lon="06.583906"><ele>0.6</ele><time>2021-05-20T12:43:48Z</time><name>PT8037</name></trkpt>
<trkpt lat="53.338407" lon="06.583900"><ele>0.7</ele><time>2021-05-20T12:43:49Z</time><name>PT8038</name></trkpt>
<trkpt lat="53.338417" lon="06.583892"><ele>0.8</ele><time>2021-05-20T12:43:50Z</time><name>PT8039</name></trkpt>
<trkpt lat="53.338428" lon="06.583884"><ele>0.9</ele><time>2021-05-20T12:43:51Z</time><name>PT8040</name></trkpt>
<trkpt lat="53.338437" lon="06.583876"><ele>1</ele><time>2021-05-20T12:43:52Z</time><name>PT8041</name></trkpt>
<trkpt lat="53.338445" lon="06.583871"><ele>1</ele><time>2021-05-20T12:43:53Z</time><name>PT8042</name></trkpt>
<trkpt lat="53.338455" lon="06.583866"><ele>0.8</ele><time>2021-05-20T12:43:54Z</time><name>PT8043</name></trkpt>
<trkpt lat="53.338465" lon="06.583861"><ele>0.8</ele><time>2021-05-20T12:43:55Z</time><name>PT8044</name></trkpt>
<trkpt lat="53.338476" lon="06.583857"><ele>0.6</ele><time>2021-05-20T12:43:56Z</time><name>PT8045</name></trkpt>
<trkpt lat="53.338487" lon="06.583849"><ele>0.6</ele><time>2021-05-20T12:43:57Z</time><name>PT8046</name></trkpt>
<trkpt lat="53.338497" lon="06.583842"><ele>0.6</ele><time>2021-05-20T12:43:58Z</time><name>PT8047</name></trkpt>
<trkpt lat="53.338506" lon="06.583836"><ele>0.9</ele><time>2021-05-20T12:43:59Z</time><name>PT8048</name></trkpt>
<trkpt lat="53.338514" lon="06.583832"><ele>1</ele><time>2021-05-20T12:44:00Z</time><name>PT8049</name></trkpt>
<trkpt lat="53.338523" lon="06.583827"><ele>1</ele><time>2021-05-20T12:44:01Z</time><name>PT8050</name></trkpt>
<trkpt lat="53.338534" lon="06.583823"><ele>1</ele><time>2021-05-20T12:44:02Z</time><name>PT8051</name></trkpt>
<trkpt lat="53.338544" lon="06.583816"><ele>1</ele><time>2021-05-20T12:44:03Z</time><name>PT8052</name></trkpt>
<trkpt lat="53.338553" lon="06.583808"><ele>1</ele><time>2021-05-20T12:44:04Z</time><name>PT8053</name></trkpt>
<trkpt lat="53.338561" lon="06.583801"><ele>0.6</ele><time>2021-05-20T12:44:05Z</time><name>PT8054</name></trkpt>
<trkpt lat="53.338569" lon="06.583794"><ele>0.7</ele><time>2021-05-20T12:44:06Z</time><name>PT8055</name></trkpt>
<trkpt lat="53.338577" lon="06.583790"><ele>0.8</ele><time>2021-05-20T12:44:07Z</time><name>PT8056</name></trkpt>
<trkpt lat="53.338587" lon="06.583785"><ele>0.6</ele><time>2021-05-20T12:44:08Z</time><name>PT8057</name></trkpt>
<trkpt lat="53.338598" lon="06.583780"><ele>0.7</ele><time>2021-05-20T12:44:09Z</time><name>PT8058</name></trkpt>
<trkpt lat="53.338609" lon="06.583774"><ele>0.8</ele><time>2021-05-20T12:44:10Z</time><name>PT8059</name></trkpt>
<trkpt lat="53.338620" lon="06.583765"><ele>0.6</ele><time>2021-05-20T12:44:11Z</time><name>PT8060</name></trkpt>
<trkpt lat="53.338630" lon="06.583757"><ele>0.6</ele><time>2021-05-20T12:44:12Z</time><name>PT8061</name></trkpt>
<trkpt lat="53.338639" lon="06.583752"><ele>0.6</ele><time>2021-05-20T12:44:13Z</time><name>PT8062</name></trkpt>
<trkpt lat="53.338648" lon="06.583748"><ele>0.7</ele><time>2021-05-20T12:44:14Z</time><name>PT8063</name></trkpt>
<trkpt lat="53.338658" lon="06.583743"><ele>0.8</ele><time>2021-05-20T12:44:15Z</time><name>PT8064</name></trkpt>
<trkpt lat="53.338668" lon="06.583739"><ele>0.8</ele><time>2021-05-20T12:44:16Z</time><name>PT8065</name></trkpt>
<trkpt lat="53.338679" lon="06.583734"><ele>1</ele><time>2021-05-20T12:44:17Z</time><name>PT8066</name></trkpt>
<trkpt lat="53.338689" lon="06.583725"><ele>1</ele><time>2021-05-20T12:44:18Z</time><name>PT8067</name></trkpt>
<trkpt lat="53.338699" lon="06.583718"><ele>1</ele><time>2021-05-20T12:44:19Z</time><name>PT8068</name></trkpt>
<trkpt lat="53.338708" lon="06.583713"><ele>0.9</ele><time>2021-05-20T12:44:20Z</time><name>PT8069</name></trkpt>
<trkpt lat="53.338716" lon="06.583708"><ele>1</ele><time>2021-05-20T12:44:21Z</time><name>PT8070</name></trkpt>
<trkpt lat="53.338727" lon="06.583703"><ele>0.6</ele><time>2021-05-20T12:44:22Z</time><name>PT8071</name></trkpt>
<trkpt lat="53.338737" lon="06.583698"><ele>0.8</ele><time>2021-05-20T12:44:23Z</time><name>PT8072</name></trkpt>
<trkpt lat="53.338748" lon="06.583693"><ele>0.9</ele><time>2021-05-20T12:44:24Z</time><name>PT8073</name></trkpt>
<trkpt lat="53.338759" lon="06.583688"><ele>0.9</ele><time>2021-05-20T12:44:25Z</time><name>PT8074</name></trkpt>
<trkpt lat="53.338768" lon="06.583682"><ele>1.1</ele><time>2021-05-20T12:44:26Z</time><name>PT8075</name></trkpt>
<trkpt lat="53.338777" lon="06.583676"><ele>1</ele><time>2021-05-20T12:44:27Z</time><name>PT8076</name></trkpt>
<trkpt lat="53.338785" lon="06.583669"><ele>1</ele><time>2021-05-20T12:44:28Z</time><name>PT8077</name></trkpt>
<trkpt lat="53.338794" lon="06.583665"><ele>0.9</ele><time>2021-05-20T12:44:29Z</time><name>PT8078</name></trkpt>
<trkpt lat="53.338804" lon="06.583665"><ele>1</ele><time>2021-05-20T12:44:30Z</time><name>PT8079</name></trkpt>
<trkpt lat="53.338812" lon="06.583665"><ele>0.9</ele><time>2021-05-20T12:44:31Z</time><name>PT8080</name></trkpt>
<trkpt lat="53.338821" lon="06.583662"><ele>0.8</ele><time>2021-05-20T12:44:32Z</time><name>PT8081</name></trkpt>
<trkpt lat="53.338828" lon="06.583658"><ele>0.8</ele><time>2021-05-20T12:44:33Z</time><name>PT8082</name></trkpt>
<trkpt lat="53.338835" lon="06.583653"><ele>0.6</ele><time>2021-05-20T12:44:34Z</time><name>PT8083</name></trkpt>
<trkpt lat="53.338843" lon="06.583649"><ele>0.6</ele><time>2021-05-20T12:44:35Z</time><name>PT8084</name></trkpt>
<trkpt lat="53.338853" lon="06.583644"><ele>0.6</ele><time>2021-05-20T12:44:36Z</time><name>PT8085</name></trkpt>
<trkpt lat="53.338863" lon="06.583637"><ele>0.6</ele><time>2021-05-20T12:44:37Z</time><name>PT8086</name></trkpt>
<trkpt lat="53.338872" lon="06.583631"><ele>0.6</ele><time>2021-05-20T12:44:38Z</time><name>PT8087</name></trkpt>
<trkpt lat="53.338881" lon="06.583627"><ele>0.6</ele><time>2021-05-20T12:44:39Z</time><name>PT8088</name></trkpt>
<trkpt lat="53.338890" lon="06.583624"><ele>0.7</ele><time>2021-05-20T12:44:40Z</time><name>PT8089</name></trkpt>
<trkpt lat="53.338900" lon="06.583621"><ele>0.5</ele><time>2021-05-20T12:44:41Z</time><name>PT8090</name></trkpt>
<trkpt lat="53.338912" lon="06.583619"><ele>0.3</ele><time>2021-05-20T12:44:42Z</time><name>PT8091</name></trkpt>
<trkpt lat="53.338923" lon="06.583616"><ele>0.5</ele><time>2021-05-20T12:44:43Z</time><name>PT8092</name></trkpt>
<trkpt lat="53.338932" lon="06.583610"><ele>0.2</ele><time>2021-05-20T12:44:44Z</time><name>PT8093</name></trkpt>
<trkpt lat="53.338942" lon="06.583604"><ele>0.1</ele><time>2021-05-20T12:44:45Z</time><name>PT8094</name></trkpt>
<trkpt lat="53.338952" lon="06.583598"><ele>0.3</ele><time>2021-05-20T12:44:46Z</time><name>PT8095</name></trkpt>
<trkpt lat="53.338961" lon="06.583592"><ele>0.3</ele><time>2021-05-20T12:44:47Z</time><name>PT8096</name></trkpt>
<trkpt lat="53.338971" lon="06.583589"><ele>0.2</ele><time>2021-05-20T12:44:48Z</time><name>PT8097</name></trkpt>
<trkpt lat="53.338980" lon="06.583590"><ele>0.2</ele><time>2021-05-20T12:44:49Z</time><name>PT8098</name></trkpt>
<trkpt lat="53.338990" lon="06.583588"><ele>0.2</ele><time>2021-05-20T12:44:50Z</time><name>PT8099</name></trkpt>
<trkpt lat="53.339001" lon="06.583585"><ele>0.3</ele><time>2021-05-20T12:44:51Z</time><name>PT8100</name></trkpt>
<trkpt lat="53.339011" lon="06.583580"><ele>0.1</ele><time>2021-05-20T12:44:52Z</time><name>PT8101</name></trkpt>
<trkpt lat="53.339020" lon="06.583575"><ele>0.2</ele><time>2021-05-20T12:44:53Z</time><name>PT8102</name></trkpt>
<trkpt lat="53.339029" lon="06.583570"><ele>0.2</ele><time>2021-05-20T12:44:54Z</time><name>PT8103</name></trkpt>
<trkpt lat="53.339038" lon="06.583568"><ele>0.2</ele><time>2021-05-20T12:44:55Z</time><name>PT8104</name></trkpt>
<trkpt lat="53.339048" lon="06.583564"><ele>0.1</ele><time>2021-05-20T12:44:56Z</time><name>PT8105</name></trkpt>
<trkpt lat="53.339058" lon="06.583559"><ele>0.1</ele><time>2021-05-20T12:44:57Z</time><name>PT8106</name></trkpt>
<trkpt lat="53.339067" lon="06.583554"><ele>0.1</ele><time>2021-05-20T12:44:58Z</time><name>PT8107</name></trkpt>
<trkpt lat="53.339075" lon="06.583550"><ele>0.2</ele><time>2021-05-20T12:44:59Z</time><name>PT8108</name></trkpt>
<trkpt lat="53.339085" lon="06.583546"><ele>0.1</ele><time>2021-05-20T12:45:00Z</time><name>PT8109</name></trkpt>
<trkpt lat="53.339095" lon="06.583541"><ele>0.2</ele><time>2021-05-20T12:45:01Z</time><name>PT8110</name></trkpt>
<trkpt lat="53.339107" lon="06.583537"><ele>0.3</ele><time>2021-05-20T12:45:02Z</time><name>PT8111</name></trkpt>
<trkpt lat="53.339118" lon="06.583530"><ele>0.2</ele><time>2021-05-20T12:45:03Z</time><name>PT8112</name></trkpt>
<trkpt lat="53.339129" lon="06.583524"><ele>0.2</ele><time>2021-05-20T12:45:04Z</time><name>PT8113</name></trkpt>
<trkpt lat="53.339138" lon="06.583518"><ele>0.2</ele><time>2021-05-20T12:45:05Z</time><name>PT8114</name></trkpt>
<trkpt lat="53.339146" lon="06.583513"><ele>0.2</ele><time>2021-05-20T12:45:06Z</time><name>PT8115</name></trkpt>
<trkpt lat="53.339155" lon="06.583510"><ele>0.2</ele><time>2021-05-20T12:45:07Z</time><name>PT8116</name></trkpt>
<trkpt lat="53.339164" lon="06.583508"><ele>0.2</ele><time>2021-05-20T12:45:08Z</time><name>PT8117</name></trkpt>
<trkpt lat="53.339173" lon="06.583506"><ele>0.4</ele><time>2021-05-20T12:45:09Z</time><name>PT8118</name></trkpt>
<trkpt lat="53.339182" lon="06.583501"><ele>0.4</ele><time>2021-05-20T12:45:10Z</time><name>PT8119</name></trkpt>
<trkpt lat="53.339190" lon="06.583494"><ele>0.1</ele><time>2021-05-20T12:45:11Z</time><name>PT8120</name></trkpt>
<trkpt lat="53.339196" lon="06.583488"><ele>0.1</ele><time>2021-05-20T12:45:12Z</time><name>PT8121</name></trkpt>
<trkpt lat="53.339203" lon="06.583484"><ele>0.2</ele><time>2021-05-20T12:45:13Z</time><name>PT8122</name></trkpt>
<trkpt lat="53.339211" lon="06.583479"><ele>0.2</ele><time>2021-05-20T12:45:14Z</time><name>PT8123</name></trkpt>
<trkpt lat="53.339220" lon="06.583477"><ele>0.5</ele><time>2021-05-20T12:45:15Z</time><name>PT8124</name></trkpt>
<trkpt lat="53.339228" lon="06.583471"><ele>0.6</ele><time>2021-05-20T12:45:16Z</time><name>PT8125</name></trkpt>
<trkpt lat="53.339236" lon="06.583463"><ele>0.6</ele><time>2021-05-20T12:45:17Z</time><name>PT8126</name></trkpt>
<trkpt lat="53.339242" lon="06.583459"><ele>0.5</ele><time>2021-05-20T12:45:18Z</time><name>PT8127</name></trkpt>
<trkpt lat="53.339250" lon="06.583452"><ele>0.6</ele><time>2021-05-20T12:45:19Z</time><name>PT8128</name></trkpt>
<trkpt lat="53.339260" lon="06.583446"><ele>0.6</ele><time>2021-05-20T12:45:20Z</time><name>PT8129</name></trkpt>
<trkpt lat="53.339269" lon="06.583439"><ele>0.5</ele><time>2021-05-20T12:45:21Z</time><name>PT8130</name></trkpt>
<trkpt lat="53.339278" lon="06.583429"><ele>0.5</ele><time>2021-05-20T12:45:22Z</time><name>PT8131</name></trkpt>
<trkpt lat="53.339285" lon="06.583420"><ele>0.4</ele><time>2021-05-20T12:45:23Z</time><name>PT8132</name></trkpt>
<trkpt lat="53.339293" lon="06.583414"><ele>0.2</ele><time>2021-05-20T12:45:24Z</time><name>PT8133</name></trkpt>
<trkpt lat="53.339301" lon="06.583407"><ele>0.2</ele><time>2021-05-20T12:45:25Z</time><name>PT8134</name></trkpt>
<trkpt lat="53.339309" lon="06.583399"><ele>0.2</ele><time>2021-05-20T12:45:26Z</time><name>PT8135</name></trkpt>
<trkpt lat="53.339317" lon="06.583390"><ele>0.4</ele><time>2021-05-20T12:45:27Z</time><name>PT8136</name></trkpt>
<trkpt lat="53.339323" lon="06.583379"><ele>0.4</ele><time>2021-05-20T12:45:28Z</time><name>PT8137</name></trkpt>
<trkpt lat="53.339330" lon="06.583368"><ele>0.4</ele><time>2021-05-20T12:45:29Z</time><name>PT8138</name></trkpt>
<trkpt lat="53.339338" lon="06.583360"><ele>0.5</ele><time>2021-05-20T12:45:30Z</time><name>PT8139</name></trkpt>
<trkpt lat="53.339346" lon="06.583352"><ele>0.2</ele><time>2021-05-20T12:45:31Z</time><name>PT8140</name></trkpt>
<trkpt lat="53.339355" lon="06.583343"><ele>0.2</ele><time>2021-05-20T12:45:32Z</time><name>PT8141</name></trkpt>
<trkpt lat="53.339362" lon="06.583330"><ele>0.3</ele><time>2021-05-20T12:45:33Z</time><name>PT8142</name></trkpt>
<trkpt lat="53.339367" lon="06.583317"><ele>0.1</ele><time>2021-05-20T12:45:34Z</time><name>PT8143</name></trkpt>
<trkpt lat="53.339373" lon="06.583305"><ele>0.1</ele><time>2021-05-20T12:45:35Z</time><name>PT8144</name></trkpt>
<trkpt lat="53.339379" lon="06.583293"><ele>0.1</ele><time>2021-05-20T12:45:36Z</time><name>PT8145</name></trkpt>
<trkpt lat="53.339389" lon="06.583285"><ele>0.1</ele><time>2021-05-20T12:45:37Z</time><name>PT8146</name></trkpt>
<trkpt lat="53.339398" lon="06.583277"><ele>0.1</ele><time>2021-05-20T12:45:38Z</time><name>PT8147</name></trkpt>
<trkpt lat="53.339406" lon="06.583267"><ele>0.1</ele><time>2021-05-20T12:45:39Z</time><name>PT8148</name></trkpt>
<trkpt lat="53.339413" lon="06.583255"><ele>0.2</ele><time>2021-05-20T12:45:40Z</time><name>PT8149</name></trkpt>
<trkpt lat="53.339420" lon="06.583245"><ele>0.2</ele><time>2021-05-20T12:45:41Z</time><name>PT8150</name></trkpt>
<trkpt lat="53.339426" lon="06.583235"><ele>0.3</ele><time>2021-05-20T12:45:42Z</time><name>PT8151</name></trkpt>
<trkpt lat="53.339433" lon="06.583224"><ele>0.2</ele><time>2021-05-20T12:45:43Z</time><name>PT8152</name></trkpt>
<trkpt lat="53.339442" lon="06.583213"><ele>0.2</ele><time>2021-05-20T12:45:44Z</time><name>PT8153</name></trkpt>
<trkpt lat="53.339450" lon="06.583202"><ele>0.3</ele><time>2021-05-20T12:45:45Z</time><name>PT8154</name></trkpt>
<trkpt lat="53.339458" lon="06.583191"><ele>0.3</ele><time>2021-05-20T12:45:46Z</time><name>PT8155</name></trkpt>
<trkpt lat="53.339464" lon="06.583180"><ele>0.2</ele><time>2021-05-20T12:45:47Z</time><name>PT8156</name></trkpt>
<trkpt lat="53.339469" lon="06.583170"><ele>0.1</ele><time>2021-05-20T12:45:48Z</time><name>PT8157</name></trkpt>
<trkpt lat="53.339476" lon="06.583159"><ele>0.1</ele><time>2021-05-20T12:45:49Z</time><name>PT8158</name></trkpt>
<trkpt lat="53.339484" lon="06.583147"><ele>0.1</ele><time>2021-05-20T12:45:50Z</time><name>PT8159</name></trkpt>
<trkpt lat="53.339490" lon="06.583135"><ele>0.1</ele><time>2021-05-20T12:45:51Z</time><name>PT8160</name></trkpt>
<trkpt lat="53.339497" lon="06.583122"><ele>0.4</ele><time>2021-05-20T12:45:52Z</time><name>PT8161</name></trkpt>
<trkpt lat="53.339503" lon="06.583111"><ele>0.6</ele><time>2021-05-20T12:45:53Z</time><name>PT8162</name></trkpt>
<trkpt lat="53.339510" lon="06.583100"><ele>0.5</ele><time>2021-05-20T12:45:54Z</time><name>PT8163</name></trkpt>
<trkpt lat="53.339519" lon="06.583089"><ele>0.1</ele><time>2021-05-20T12:45:55Z</time><name>PT8164</name></trkpt>
<trkpt lat="53.339526" lon="06.583077"><ele>0.1</ele><time>2021-05-20T12:45:56Z</time><name>PT8165</name></trkpt>
<trkpt lat="53.339534" lon="06.583064"><ele>0</ele><time>2021-05-20T12:45:57Z</time><name>PT8166</name></trkpt>
<trkpt lat="53.339541" lon="06.583052"><ele>0</ele><time>2021-05-20T12:45:58Z</time><name>PT8167</name></trkpt>
<trkpt lat="53.339547" lon="06.583043"><ele>0.1</ele><time>2021-05-20T12:45:59Z</time><name>PT8168</name></trkpt>
<trkpt lat="53.339553" lon="06.583033"><ele>0</ele><time>2021-05-20T12:46:00Z</time><name>PT8169</name></trkpt>
<trkpt lat="53.339561" lon="06.583024"><ele>0</ele><time>2021-05-20T12:46:01Z</time><name>PT8170</name></trkpt>
<trkpt lat="53.339568" lon="06.583014"><ele>0.1</ele><time>2021-05-20T12:46:02Z</time><name>PT8171</name></trkpt>
<trkpt lat="53.339574" lon="06.583001"><ele>0.1</ele><time>2021-05-20T12:46:03Z</time><name>PT8172</name></trkpt>
<trkpt lat="53.339581" lon="06.582988"><ele>0</ele><time>2021-05-20T12:46:04Z</time><name>PT8173</name></trkpt>
<trkpt lat="53.339587" lon="06.582979"><ele>0.1</ele><time>2021-05-20T12:46:05Z</time><name>PT8174</name></trkpt>
<trkpt lat="53.339593" lon="06.582971"><ele>0.2</ele><time>2021-05-20T12:46:06Z</time><name>PT8175</name></trkpt>
<trkpt lat="53.339600" lon="06.582961"><ele>0.1</ele><time>2021-05-20T12:46:07Z</time><name>PT8176</name></trkpt>
<trkpt lat="53.339607" lon="06.582951"><ele>0.2</ele><time>2021-05-20T12:46:08Z</time><name>PT8177</name></trkpt>
<trkpt lat="53.339614" lon="06.582938"><ele>0.3</ele><time>2021-05-20T12:46:09Z</time><name>PT8178</name></trkpt>
<trkpt lat="53.339619" lon="06.582925"><ele>0.4</ele><time>2021-05-20T12:46:10Z</time><name>PT8179</name></trkpt>
<trkpt lat="53.339623" lon="06.582912"><ele>0.3</ele><time>2021-05-20T12:46:11Z</time><name>PT8180</name></trkpt>
<trkpt lat="53.339630" lon="06.582901"><ele>0.2</ele><time>2021-05-20T12:46:12Z</time><name>PT8181</name></trkpt>
<trkpt lat="53.339637" lon="06.582890"><ele>0.3</ele><time>2021-05-20T12:46:13Z</time><name>PT8182</name></trkpt>
<trkpt lat="53.339644" lon="06.582880"><ele>0.1</ele><time>2021-05-20T12:46:14Z</time><name>PT8183</name></trkpt>
<trkpt lat="53.339651" lon="06.582868"><ele>0</ele><time>2021-05-20T12:46:15Z</time><name>PT8184</name></trkpt>
<trkpt lat="53.339657" lon="06.582856"><ele>0</ele><time>2021-05-20T12:46:16Z</time><name>PT8185</name></trkpt>
<trkpt lat="53.339663" lon="06.582845"><ele>0.1</ele><time>2021-05-20T12:46:17Z</time><name>PT8186</name></trkpt>
<trkpt lat="53.339670" lon="06.582836"><ele>0.2</ele><time>2021-05-20T12:46:18Z</time><name>PT8187</name></trkpt>
<trkpt lat="53.339676" lon="06.582824"><ele>0.2</ele><time>2021-05-20T12:46:19Z</time><name>PT8188</name></trkpt>
<trkpt lat="53.339682" lon="06.582812"><ele>0.1</ele><time>2021-05-20T12:46:20Z</time><name>PT8189</name></trkpt>
<trkpt lat="53.339687" lon="06.582801"><ele>0.2</ele><time>2021-05-20T12:46:21Z</time><name>PT8190</name></trkpt>
<trkpt lat="53.339693" lon="06.582790"><ele>0.1</ele><time>2021-05-20T12:46:22Z</time><name>PT8191</name></trkpt>
<trkpt lat="53.339700" lon="06.582780"><ele>0</ele><time>2021-05-20T12:46:23Z</time><name>PT8192</name></trkpt>
<trkpt lat="53.339707" lon="06.582768"><ele>0</ele><time>2021-05-20T12:46:24Z</time><name>PT8193</name></trkpt>
<trkpt lat="53.339715" lon="06.582755"><ele>0.1</ele><time>2021-05-20T12:46:25Z</time><name>PT8194</name></trkpt>
<trkpt lat="53.339721" lon="06.582743"><ele>0.1</ele><time>2021-05-20T12:46:26Z</time><name>PT8195</name></trkpt>
<trkpt lat="53.339727" lon="06.582733"><ele>0</ele><time>2021-05-20T12:46:27Z</time><name>PT8196</name></trkpt>
<trkpt lat="53.339734" lon="06.582721"><ele>0</ele><time>2021-05-20T12:46:28Z</time><name>PT8197</name></trkpt>
<trkpt lat="53.339741" lon="06.582712"><ele>0.1</ele><time>2021-05-20T12:46:29Z</time><name>PT8198</name></trkpt>
<trkpt lat="53.339748" lon="06.582701"><ele>0.2</ele><time>2021-05-20T12:46:30Z</time><name>PT8199</name></trkpt>
<trkpt lat="53.339756" lon="06.582689"><ele>0</ele><time>2021-05-20T12:46:31Z</time><name>PT8200</name></trkpt>
<trkpt lat="53.339762" lon="06.582679"><ele>0</ele><time>2021-05-20T12:46:32Z</time><name>PT8201</name></trkpt>
<trkpt lat="53.339769" lon="06.582668"><ele>0</ele><time>2021-05-20T12:46:33Z</time><name>PT8202</name></trkpt>
<trkpt lat="53.339776" lon="06.582659"><ele>0.2</ele><time>2021-05-20T12:46:34Z</time><name>PT8203</name></trkpt>
<trkpt lat="53.339784" lon="06.582649"><ele>0.2</ele><time>2021-05-20T12:46:35Z</time><name>PT8204</name></trkpt>
<trkpt lat="53.339790" lon="06.582640"><ele>0.2</ele><time>2021-05-20T12:46:36Z</time><name>PT8205</name></trkpt>
<trkpt lat="53.339796" lon="06.582627"><ele>0.2</ele><time>2021-05-20T12:46:37Z</time><name>PT8206</name></trkpt>
<trkpt lat="53.339802" lon="06.582615"><ele>0.5</ele><time>2021-05-20T12:46:38Z</time><name>PT8207</name></trkpt>
<trkpt lat="53.339807" lon="06.582603"><ele>0.6</ele><time>2021-05-20T12:46:39Z</time><name>PT8208</name></trkpt>
<trkpt lat="53.339815" lon="06.582592"><ele>0.7</ele><time>2021-05-20T12:46:40Z</time><name>PT8209</name></trkpt>
<trkpt lat="53.339823" lon="06.582581"><ele>0.7</ele><time>2021-05-20T12:46:41Z</time><name>PT8210</name></trkpt>
<trkpt lat="53.339831" lon="06.582571"><ele>0.6</ele><time>2021-05-20T12:46:42Z</time><name>PT8211</name></trkpt>
<trkpt lat="53.339838" lon="06.582559"><ele>0.3</ele><time>2021-05-20T12:46:43Z</time><name>PT8212</name></trkpt>
<trkpt lat="53.339845" lon="06.582548"><ele>0.3</ele><time>2021-05-20T12:46:44Z</time><name>PT8213</name></trkpt>
<trkpt lat="53.339852" lon="06.582537"><ele>0.2</ele><time>2021-05-20T12:46:45Z</time><name>PT8214</name></trkpt>
<trkpt lat="53.339860" lon="06.582527"><ele>0.3</ele><time>2021-05-20T12:46:46Z</time><name>PT8215</name></trkpt>
<trkpt lat="53.339867" lon="06.582519"><ele>0.4</ele><time>2021-05-20T12:46:47Z</time><name>PT8216</name></trkpt>
<trkpt lat="53.339875" lon="06.582508"><ele>0.5</ele><time>2021-05-20T12:46:48Z</time><name>PT8217</name></trkpt>
<trkpt lat="53.339883" lon="06.582498"><ele>0.3</ele><time>2021-05-20T12:46:49Z</time><name>PT8218</name></trkpt>
<trkpt lat="53.339890" lon="06.582488"><ele>0.3</ele><time>2021-05-20T12:46:50Z</time><name>PT8219</name></trkpt>
<trkpt lat="53.339896" lon="06.582479"><ele>0.2</ele><time>2021-05-20T12:46:51Z</time><name>PT8220</name></trkpt>
<trkpt lat="53.339903" lon="06.582469"><ele>0</ele><time>2021-05-20T12:46:52Z</time><name>PT8221</name></trkpt>
<trkpt lat="53.339912" lon="06.582459"><ele>0.1</ele><time>2021-05-20T12:46:53Z</time><name>PT8222</name></trkpt>
<trkpt lat="53.339920" lon="06.582450"><ele>0.1</ele><time>2021-05-20T12:46:54Z</time><name>PT8223</name></trkpt>
<trkpt lat="53.339928" lon="06.582441"><ele>0.2</ele><time>2021-05-20T12:46:55Z</time><name>PT8224</name></trkpt>
<trkpt lat="53.339936" lon="06.582431"><ele>0.2</ele><time>2021-05-20T12:46:56Z</time><name>PT8225</name></trkpt>
<trkpt lat="53.339944" lon="06.582422"><ele>0.3</ele><time>2021-05-20T12:46:57Z</time><name>PT8226</name></trkpt>
<trkpt lat="53.339953" lon="06.582415"><ele>0.3</ele><time>2021-05-20T12:46:58Z</time><name>PT8227</name></trkpt>
<trkpt lat="53.339962" lon="06.582409"><ele>0.3</ele><time>2021-05-20T12:46:59Z</time><name>PT8228</name></trkpt>
<trkpt lat="53.339972" lon="06.582402"><ele>0.3</ele><time>2021-05-20T12:47:00Z</time><name>PT8229</name></trkpt>
<trkpt lat="53.339981" lon="06.582394"><ele>0.2</ele><time>2021-05-20T12:47:01Z</time><name>PT8230</name></trkpt>
<trkpt lat="53.339988" lon="06.582386"><ele>0.2</ele><time>2021-05-20T12:47:02Z</time><name>PT8231</name></trkpt>
<trkpt lat="53.339996" lon="06.582380"><ele>0.2</ele><time>2021-05-20T12:47:03Z</time><name>PT8232</name></trkpt>
<trkpt lat="53.340005" lon="06.582374"><ele>0</ele><time>2021-05-20T12:47:04Z</time><name>PT8233</name></trkpt>
<trkpt lat="53.340015" lon="06.582370"><ele>0.2</ele><time>2021-05-20T12:47:05Z</time><name>PT8234</name></trkpt>
<trkpt lat="53.340024" lon="06.582365"><ele>0.2</ele><time>2021-05-20T12:47:06Z</time><name>PT8235</name></trkpt>
<trkpt lat="53.340034" lon="06.582361"><ele>0.4</ele><time>2021-05-20T12:47:07Z</time><name>PT8236</name></trkpt>
<trkpt lat="53.340042" lon="06.582356"><ele>0.3</ele><time>2021-05-20T12:47:08Z</time><name>PT8237</name></trkpt>
<trkpt lat="53.340051" lon="06.582349"><ele>0.1</ele><time>2021-05-20T12:47:09Z</time><name>PT8238</name></trkpt>
<trkpt lat="53.340060" lon="06.582345"><ele>0</ele><time>2021-05-20T12:47:10Z</time><name>PT8239</name></trkpt>
<trkpt lat="53.340069" lon="06.582341"><ele>0.1</ele><time>2021-05-20T12:47:11Z</time><name>PT8240</name></trkpt>
<trkpt lat="53.340080" lon="06.582338"><ele>0</ele><time>2021-05-20T12:47:12Z</time><name>PT8241</name></trkpt>
<trkpt lat="53.340089" lon="06.582335"><ele>0</ele><time>2021-05-20T12:47:13Z</time><name>PT8242</name></trkpt>
<trkpt lat="53.340098" lon="06.582332"><ele>0</ele><time>2021-05-20T12:47:14Z</time><name>PT8243</name></trkpt>
<trkpt lat="53.340108" lon="06.582329"><ele>0.1</ele><time>2021-05-20T12:47:15Z</time><name>PT8244</name></trkpt>
<trkpt lat="53.340118" lon="06.582327"><ele>0.2</ele><time>2021-05-20T12:47:16Z</time><name>PT8245</name></trkpt>
<trkpt lat="53.340128" lon="06.582327"><ele>0.1</ele><time>2021-05-20T12:47:17Z</time><name>PT8246</name></trkpt>
<trkpt lat="53.340140" lon="06.582327"><ele>0.3</ele><time>2021-05-20T12:47:18Z</time><name>PT8247</name></trkpt>
<trkpt lat="53.340149" lon="06.582326"><ele>0.2</ele><time>2021-05-20T12:47:19Z</time><name>PT8248</name></trkpt>
<trkpt lat="53.340157" lon="06.582324"><ele>0.2</ele><time>2021-05-20T12:47:20Z</time><name>PT8249</name></trkpt>
<trkpt lat="53.340166" lon="06.582327"><ele>0.2</ele><time>2021-05-20T12:47:21Z</time><name>PT8250</name></trkpt>
<trkpt lat="53.340174" lon="06.582326"><ele>0.3</ele><time>2021-05-20T12:47:22Z</time><name>PT8251</name></trkpt>
<trkpt lat="53.340183" lon="06.582325"><ele>0.3</ele><time>2021-05-20T12:47:23Z</time><name>PT8252</name></trkpt>
<trkpt lat="53.340191" lon="06.582323"><ele>0.1</ele><time>2021-05-20T12:47:24Z</time><name>PT8253</name></trkpt>
<trkpt lat="53.340199" lon="06.582324"><ele>0.1</ele><time>2021-05-20T12:47:25Z</time><name>PT8254</name></trkpt>
<trkpt lat="53.340208" lon="06.582327"><ele>0.1</ele><time>2021-05-20T12:47:26Z</time><name>PT8255</name></trkpt>
<trkpt lat="53.340216" lon="06.582327"><ele>0.1</ele><time>2021-05-20T12:47:27Z</time><name>PT8256</name></trkpt>
<trkpt lat="53.340222" lon="06.582329"><ele>0.1</ele><time>2021-05-20T12:47:28Z</time><name>PT8257</name></trkpt>
<trkpt lat="53.340230" lon="06.582330"><ele>0</ele><time>2021-05-20T12:47:29Z</time><name>PT8258</name></trkpt>
<trkpt lat="53.340237" lon="06.582330"><ele>0.1</ele><time>2021-05-20T12:47:30Z</time><name>PT8259</name></trkpt>
<trkpt lat="53.340243" lon="06.582332"><ele>0</ele><time>2021-05-20T12:47:31Z</time><name>PT8260</name></trkpt>
<trkpt lat="53.340250" lon="06.582336"><ele>0</ele><time>2021-05-20T12:47:32Z</time><name>PT8261</name></trkpt>
<trkpt lat="53.340257" lon="06.582336"><ele>0.1</ele><time>2021-05-20T12:47:33Z</time><name>PT8262</name></trkpt>
<trkpt lat="53.340261" lon="06.582339"><ele>0.2</ele><time>2021-05-20T12:47:34Z</time><name>PT8263</name></trkpt>
<trkpt lat="53.340265" lon="06.582340"><ele>0.3</ele><time>2021-05-20T12:47:35Z</time><name>PT8264</name></trkpt>
<trkpt lat="53.340270" lon="06.582340"><ele>0.2</ele><time>2021-05-20T12:47:36Z</time><name>PT8265</name></trkpt>
<trkpt lat="53.340268" lon="06.582342"><ele>0.2</ele><time>2021-05-20T12:47:38Z</time><name>PT8266</name></trkpt>
<trkpt lat="53.340269" lon="06.582344"><ele>0.2</ele><time>2021-05-20T12:47:39Z</time><name>PT8267</name></trkpt>
<trkpt lat="53.340270" lon="06.582343"><ele>0.3</ele><time>2021-05-20T12:47:40Z</time><name>PT8268</name></trkpt>
<trkpt lat="53.340271" lon="06.582343"><ele>0.3</ele><time>2021-05-20T12:47:44Z</time><name>PT8269</name></trkpt>
<trkpt lat="53.340278" lon="06.582346"><ele>0.2</ele><time>2021-05-20T12:47:45Z</time><name>PT8270</name></trkpt>
<trkpt lat="53.340288" lon="06.582345"><ele>0.2</ele><time>2021-05-20T12:47:46Z</time><name>PT8271</name></trkpt>
<trkpt lat="53.340297" lon="06.582343"><ele>0.1</ele><time>2021-05-20T12:47:47Z</time><name>PT8272</name></trkpt>
<trkpt lat="53.340305" lon="06.582343"><ele>0.1</ele><time>2021-05-20T12:47:48Z</time><name>PT8273</name></trkpt>
<trkpt lat="53.340314" lon="06.582346"><ele>0.3</ele><time>2021-05-20T12:47:49Z</time><name>PT8274</name></trkpt>
<trkpt lat="53.340325" lon="06.582351"><ele>0.3</ele><time>2021-05-20T12:47:50Z</time><name>PT8275</name></trkpt>
<trkpt lat="53.340333" lon="06.582355"><ele>0.2</ele><time>2021-05-20T12:47:51Z</time><name>PT8276</name></trkpt>
<trkpt lat="53.340342" lon="06.582355"><ele>0.4</ele><time>2021-05-20T12:47:52Z</time><name>PT8277</name></trkpt>
<trkpt lat="53.340350" lon="06.582357"><ele>0.3</ele><time>2021-05-20T12:47:53Z</time><name>PT8278</name></trkpt>
<trkpt lat="53.340357" lon="06.582360"><ele>0.2</ele><time>2021-05-20T12:47:54Z</time><name>PT8279</name></trkpt>
<trkpt lat="53.340365" lon="06.582363"><ele>0.3</ele><time>2021-05-20T12:47:55Z</time><name>PT8280</name></trkpt>
<trkpt lat="53.340372" lon="06.582362"><ele>0.2</ele><time>2021-05-20T12:47:56Z</time><name>PT8281</name></trkpt>
<trkpt lat="53.340379" lon="06.582363"><ele>0.3</ele><time>2021-05-20T12:47:57Z</time><name>PT8282</name></trkpt>
<trkpt lat="53.340388" lon="06.582365"><ele>0.6</ele><time>2021-05-20T12:47:58Z</time><name>PT8283</name></trkpt>
<trkpt lat="53.340397" lon="06.582367"><ele>0.6</ele><time>2021-05-20T12:47:59Z</time><name>PT8284</name></trkpt>
<trkpt lat="53.340405" lon="06.582368"><ele>0.6</ele><time>2021-05-20T12:48:00Z</time><name>PT8285</name></trkpt>
<trkpt lat="53.340413" lon="06.582370"><ele>0.6</ele><time>2021-05-20T12:48:01Z</time><name>PT8286</name></trkpt>
<trkpt lat="53.340421" lon="06.582373"><ele>0.7</ele><time>2021-05-20T12:48:02Z</time><name>PT8287</name></trkpt>
<trkpt lat="53.340428" lon="06.582375"><ele>0.6</ele><time>2021-05-20T12:48:03Z</time><name>PT8288</name></trkpt>
<trkpt lat="53.340435" lon="06.582377"><ele>0.5</ele><time>2021-05-20T12:48:04Z</time><name>PT8289</name></trkpt>
<trkpt lat="53.340440" lon="06.582379"><ele>0.6</ele><time>2021-05-20T12:48:05Z</time><name>PT8290</name></trkpt>
<trkpt lat="53.340444" lon="06.582382"><ele>0.6</ele><time>2021-05-20T12:48:06Z</time><name>PT8291</name></trkpt>
<trkpt lat="53.340447" lon="06.582391"><ele>0.4</ele><time>2021-05-20T12:48:07Z</time><name>PT8292</name></trkpt>
<trkpt lat="53.340451" lon="06.582395"><ele>0.6</ele><time>2021-05-20T12:48:08Z</time><name>PT8293</name></trkpt>
<trkpt lat="53.340454" lon="06.582399"><ele>0.6</ele><time>2021-05-20T12:48:09Z</time><name>PT8294</name></trkpt>
<trkpt lat="53.340457" lon="06.582405"><ele>0.6</ele><time>2021-05-20T12:48:10Z</time><name>PT8295</name></trkpt>
<trkpt lat="53.340459" lon="06.582407"><ele>0.6</ele><time>2021-05-20T12:48:11Z</time><name>PT8296</name></trkpt>
<trkpt lat="53.340462" lon="06.582410"><ele>0.4</ele><time>2021-05-20T12:48:15Z</time><name>PT8297</name></trkpt>
<trkpt lat="53.340462" lon="06.582419"><ele>0.1</ele><time>2021-05-20T12:48:16Z</time><name>PT8298</name></trkpt>
<trkpt lat="53.340461" lon="06.582421"><ele>0</ele><time>2021-05-20T12:48:17Z</time><name>PT8299</name></trkpt>
<trkpt lat="53.340461" lon="06.582423"><ele>0</ele><time>2021-05-20T12:48:18Z</time><name>PT8300</name></trkpt>
<trkpt lat="53.340462" lon="06.582425"><ele>0.2</ele><time>2021-05-20T12:48:19Z</time><name>PT8301</name></trkpt>
<trkpt lat="53.340463" lon="06.582431"><ele>0.2</ele><time>2021-05-20T12:48:20Z</time><name>PT8302</name></trkpt>
<trkpt lat="53.340464" lon="06.582436"><ele>0.1</ele><time>2021-05-20T12:48:21Z</time><name>PT8303</name></trkpt>
<trkpt lat="53.340467" lon="06.582438"><ele>0.3</ele><time>2021-05-20T12:48:22Z</time><name>PT8304</name></trkpt>
<trkpt lat="53.340466" lon="06.582441"><ele>0.3</ele><time>2021-05-20T12:48:23Z</time><name>PT8305</name></trkpt>
<trkpt lat="53.340467" lon="06.582446"><ele>0.3</ele><time>2021-05-20T12:48:24Z</time><name>PT8306</name></trkpt>
<trkpt lat="53.340467" lon="06.582451"><ele>0.2</ele><time>2021-05-20T12:48:25Z</time><name>PT8307</name></trkpt>
<trkpt lat="53.340464" lon="06.582463"><ele>0</ele><time>2021-05-20T12:48:41Z</time><name>PT8308</name></trkpt>
<trkpt lat="53.340462" lon="06.582486"><ele>0</ele><time>2021-05-20T12:48:42Z</time><name>PT8309</name></trkpt>
<trkpt lat="53.340462" lon="06.582509"><ele>0</ele><time>2021-05-20T12:48:43Z</time><name>PT8310</name></trkpt>
<trkpt lat="53.340460" lon="06.582529"><ele>0</ele><time>2021-05-20T12:48:44Z</time><name>PT8311</name></trkpt>
<trkpt lat="53.340457" lon="06.582549"><ele>0.1</ele><time>2021-05-20T12:48:45Z</time><name>PT8312</name></trkpt>
<trkpt lat="53.340456" lon="06.582568"><ele>0</ele><time>2021-05-20T12:48:46Z</time><name>PT8313</name></trkpt>
<trkpt lat="53.340455" lon="06.582587"><ele>0</ele><time>2021-05-20T12:48:47Z</time><name>PT8314</name></trkpt>
<trkpt lat="53.340454" lon="06.582606"><ele>0</ele><time>2021-05-20T12:48:48Z</time><name>PT8315</name></trkpt>
<trkpt lat="53.340451" lon="06.582622"><ele>0.2</ele><time>2021-05-20T12:48:49Z</time><name>PT8316</name></trkpt>
<trkpt lat="53.340451" lon="06.582634"><ele>0.1</ele><time>2021-05-20T12:48:50Z</time><name>PT8317</name></trkpt>
<trkpt lat="53.340450" lon="06.582648"><ele>0</ele><time>2021-05-20T12:48:51Z</time><name>PT8318</name></trkpt>
<trkpt lat="53.340450" lon="06.582666"><ele>0</ele><time>2021-05-20T12:48:52Z</time><name>PT8319</name></trkpt>
<trkpt lat="53.340449" lon="06.582683"><ele>0.1</ele><time>2021-05-20T12:48:53Z</time><name>PT8320</name></trkpt>
<trkpt lat="53.340448" lon="06.582698"><ele>0.1</ele><time>2021-05-20T12:48:54Z</time><name>PT8321</name></trkpt>
<trkpt lat="53.340448" lon="06.582714"><ele>0.1</ele><time>2021-05-20T12:48:55Z</time><name>PT8322</name></trkpt>
<trkpt lat="53.340450" lon="06.582731"><ele>0.1</ele><time>2021-05-20T12:48:56Z</time><name>PT8323</name></trkpt>
<trkpt lat="53.340451" lon="06.582746"><ele>0.2</ele><time>2021-05-20T12:48:57Z</time><name>PT8324</name></trkpt>
<trkpt lat="53.340451" lon="06.582760"><ele>0.2</ele><time>2021-05-20T12:48:58Z</time><name>PT8325</name></trkpt>
<trkpt lat="53.340450" lon="06.582775"><ele>0.3</ele><time>2021-05-20T12:48:59Z</time><name>PT8326</name></trkpt>
<trkpt lat="53.340450" lon="06.582791"><ele>0.3</ele><time>2021-05-20T12:49:00Z</time><name>PT8327</name></trkpt>
<trkpt lat="53.340450" lon="06.582806"><ele>0.3</ele><time>2021-05-20T12:49:01Z</time><name>PT8328</name></trkpt>
<trkpt lat="53.340449" lon="06.582822"><ele>0.2</ele><time>2021-05-20T12:49:02Z</time><name>PT8329</name></trkpt>
<trkpt lat="53.340449" lon="06.582836"><ele>0.1</ele><time>2021-05-20T12:49:03Z</time><name>PT8330</name></trkpt>
<trkpt lat="53.340450" lon="06.582850"><ele>0.1</ele><time>2021-05-20T12:49:04Z</time><name>PT8331</name></trkpt>
<trkpt lat="53.340451" lon="06.582863"><ele>0</ele><time>2021-05-20T12:49:05Z</time><name>PT8332</name></trkpt>
<trkpt lat="53.340451" lon="06.582876"><ele>0.1</ele><time>2021-05-20T12:49:06Z</time><name>PT8333</name></trkpt>
<trkpt lat="53.340453" lon="06.582890"><ele>0.1</ele><time>2021-05-20T12:49:07Z</time><name>PT8334</name></trkpt>
<trkpt lat="53.340456" lon="06.582904"><ele>0.2</ele><time>2021-05-20T12:49:08Z</time><name>PT8335</name></trkpt>
<trkpt lat="53.340459" lon="06.582919"><ele>0.2</ele><time>2021-05-20T12:49:09Z</time><name>PT8336</name></trkpt>
<trkpt lat="53.340460" lon="06.582933"><ele>0.4</ele><time>2021-05-20T12:49:10Z</time><name>PT8337</name></trkpt>
<trkpt lat="53.340462" lon="06.582946"><ele>0.3</ele><time>2021-05-20T12:49:11Z</time><name>PT8338</name></trkpt>
<trkpt lat="53.340466" lon="06.582960"><ele>0.4</ele><time>2021-05-20T12:49:12Z</time><name>PT8339</name></trkpt>
<trkpt lat="53.340470" lon="06.582975"><ele>0.5</ele><time>2021-05-20T12:49:13Z</time><name>PT8340</name></trkpt>
<trkpt lat="53.340473" lon="06.582988"><ele>0.5</ele><time>2021-05-20T12:49:14Z</time><name>PT8341</name></trkpt>
<trkpt lat="53.340476" lon="06.583005"><ele>0.6</ele><time>2021-05-20T12:49:15Z</time><name>PT8342</name></trkpt>
<trkpt lat="53.340477" lon="06.583021"><ele>0.6</ele><time>2021-05-20T12:49:16Z</time><name>PT8343</name></trkpt>
<trkpt lat="53.340478" lon="06.583038"><ele>0.7</ele><time>2021-05-20T12:49:17Z</time><name>PT8344</name></trkpt>
<trkpt lat="53.340479" lon="06.583055"><ele>0.6</ele><time>2021-05-20T12:49:18Z</time><name>PT8345</name></trkpt>
<trkpt lat="53.340482" lon="06.583071"><ele>0.6</ele><time>2021-05-20T12:49:19Z</time><name>PT8346</name></trkpt>
<trkpt lat="53.340484" lon="06.583086"><ele>0.5</ele><time>2021-05-20T12:49:20Z</time><name>PT8347</name></trkpt>
<trkpt lat="53.340486" lon="06.583102"><ele>0.3</ele><time>2021-05-20T12:49:21Z</time><name>PT8348</name></trkpt>
<trkpt lat="53.340488" lon="06.583119"><ele>0.4</ele><time>2021-05-20T12:49:22Z</time><name>PT8349</name></trkpt>
<trkpt lat="53.340489" lon="06.583134"><ele>0.2</ele><time>2021-05-20T12:49:23Z</time><name>PT8350</name></trkpt>
<trkpt lat="53.340491" lon="06.583149"><ele>0.3</ele><time>2021-05-20T12:49:24Z</time><name>PT8351</name></trkpt>
<trkpt lat="53.340493" lon="06.583163"><ele>0.3</ele><time>2021-05-20T12:49:25Z</time><name>PT8352</name></trkpt>
<trkpt lat="53.340495" lon="06.583179"><ele>0.3</ele><time>2021-05-20T12:49:26Z</time><name>PT8353</name></trkpt>
<trkpt lat="53.340496" lon="06.583198"><ele>0.3</ele><time>2021-05-20T12:49:27Z</time><name>PT8354</name></trkpt>
<trkpt lat="53.340498" lon="06.583215"><ele>0.1</ele><time>2021-05-20T12:49:28Z</time><name>PT8355</name></trkpt>
<trkpt lat="53.340499" lon="06.583231"><ele>0.1</ele><time>2021-05-20T12:49:29Z</time><name>PT8356</name></trkpt>
<trkpt lat="53.340503" lon="06.583248"><ele>0.1</ele><time>2021-05-20T12:49:30Z</time><name>PT8357</name></trkpt>
<trkpt lat="53.340507" lon="06.583265"><ele>0.1</ele><time>2021-05-20T12:49:31Z</time><name>PT8358</name></trkpt>
<trkpt lat="53.340509" lon="06.583278"><ele>0.1</ele><time>2021-05-20T12:49:32Z</time><name>PT8359</name></trkpt>
<trkpt lat="53.340507" lon="06.583288"><ele>0.2</ele><time>2021-05-20T12:49:33Z</time><name>PT8360</name></trkpt>
<trkpt lat="53.340506" lon="06.583302"><ele>0.2</ele><time>2021-05-20T12:49:34Z</time><name>PT8361</name></trkpt>
<trkpt lat="53.340508" lon="06.583320"><ele>0.3</ele><time>2021-05-20T12:49:35Z</time><name>PT8362</name></trkpt>
<trkpt lat="53.340510" lon="06.583339"><ele>0.3</ele><time>2021-05-20T12:49:36Z</time><name>PT8363</name></trkpt>
<trkpt lat="53.340511" lon="06.583356"><ele>0.3</ele><time>2021-05-20T12:49:37Z</time><name>PT8364</name></trkpt>
<trkpt lat="53.340513" lon="06.583374"><ele>0</ele><time>2021-05-20T12:49:38Z</time><name>PT8365</name></trkpt>
<trkpt lat="53.340515" lon="06.583393"><ele>0.1</ele><time>2021-05-20T12:49:39Z</time><name>PT8366</name></trkpt>
<trkpt lat="53.340516" lon="06.583410"><ele>0.1</ele><time>2021-05-20T12:49:40Z</time><name>PT8367</name></trkpt>
<trkpt lat="53.340517" lon="06.583428"><ele>0.1</ele><time>2021-05-20T12:49:41Z</time><name>PT8368</name></trkpt>
<trkpt lat="53.340518" lon="06.583446"><ele>0.3</ele><time>2021-05-20T12:49:42Z</time><name>PT8369</name></trkpt>
<trkpt lat="53.340520" lon="06.583464"><ele>0.4</ele><time>2021-05-20T12:49:43Z</time><name>PT8370</name></trkpt>
<trkpt lat="53.340520" lon="06.583480"><ele>0.3</ele><time>2021-05-20T12:49:44Z</time><name>PT8371</name></trkpt>
<trkpt lat="53.340518" lon="06.583496"><ele>0.4</ele><time>2021-05-20T12:49:45Z</time><name>PT8372</name></trkpt>
<trkpt lat="53.340516" lon="06.583510"><ele>0.3</ele><time>2021-05-20T12:49:46Z</time><name>PT8373</name></trkpt>
<trkpt lat="53.340515" lon="06.583523"><ele>0.3</ele><time>2021-05-20T12:49:47Z</time><name>PT8374</name></trkpt>
<trkpt lat="53.340514" lon="06.583539"><ele>0.2</ele><time>2021-05-20T12:49:48Z</time><name>PT8375</name></trkpt>
<trkpt lat="53.340515" lon="06.583552"><ele>0.4</ele><time>2021-05-20T12:49:49Z</time><name>PT8376</name></trkpt>
<trkpt lat="53.340513" lon="06.583566"><ele>0.4</ele><time>2021-05-20T12:49:50Z</time><name>PT8377</name></trkpt>
<trkpt lat="53.340510" lon="06.583580"><ele>0.5</ele><time>2021-05-20T12:49:51Z</time><name>PT8378</name></trkpt>
<trkpt lat="53.340508" lon="06.583592"><ele>0.6</ele><time>2021-05-20T12:49:52Z</time><name>PT8379</name></trkpt>
<trkpt lat="53.340507" lon="06.583606"><ele>0.6</ele><time>2021-05-20T12:49:53Z</time><name>PT8380</name></trkpt>
<trkpt lat="53.340505" lon="06.583622"><ele>0.5</ele><time>2021-05-20T12:49:54Z</time><name>PT8381</name></trkpt>
<trkpt lat="53.340502" lon="06.583635"><ele>0.4</ele><time>2021-05-20T12:49:55Z</time><name>PT8382</name></trkpt>
<trkpt lat="53.340500" lon="06.583649"><ele>0.5</ele><time>2021-05-20T12:49:56Z</time><name>PT8383</name></trkpt>
<trkpt lat="53.340498" lon="06.583660"><ele>0.5</ele><time>2021-05-20T12:49:57Z</time><name>PT8384</name></trkpt>
<trkpt lat="53.340496" lon="06.583675"><ele>0.4</ele><time>2021-05-20T12:49:58Z</time><name>PT8385</name></trkpt>
<trkpt lat="53.340493" lon="06.583692"><ele>0.5</ele><time>2021-05-20T12:49:59Z</time><name>PT8386</name></trkpt>
<trkpt lat="53.340491" lon="06.583708"><ele>0.4</ele><time>2021-05-20T12:50:00Z</time><name>PT8387</name></trkpt>
<trkpt lat="53.340489" lon="06.583721"><ele>0.4</ele><time>2021-05-20T12:50:01Z</time><name>PT8388</name></trkpt>
<trkpt lat="53.340488" lon="06.583731"><ele>0.5</ele><time>2021-05-20T12:50:02Z</time><name>PT8389</name></trkpt>
<trkpt lat="53.340486" lon="06.583740"><ele>0.6</ele><time>2021-05-20T12:50:03Z</time><name>PT8390</name></trkpt>
<trkpt lat="53.340485" lon="06.583746"><ele>0.6</ele><time>2021-05-20T12:50:04Z</time><name>PT8391</name></trkpt>
<trkpt lat="53.340485" lon="06.583749"><ele>0.9</ele><time>2021-05-20T12:50:05Z</time><name>PT8392</name></trkpt>
<trkpt lat="53.340484" lon="06.583750"><ele>1</ele><time>2021-05-20T12:50:06Z</time><name>PT8393</name></trkpt>
<trkpt lat="53.340482" lon="06.583753"><ele>0.9</ele><time>2021-05-20T12:50:07Z</time><name>PT8394</name></trkpt>
<trkpt lat="53.340484" lon="06.583753"><ele>0.6</ele><time>2021-05-20T12:50:11Z</time><name>PT8395</name></trkpt>
<trkpt lat="53.340483" lon="06.583759"><ele>0.7</ele><time>2021-05-20T12:50:12Z</time><name>PT8396</name></trkpt>
<trkpt lat="53.340478" lon="06.583765"><ele>0.7</ele><time>2021-05-20T12:50:13Z</time><name>PT8397</name></trkpt>
<trkpt lat="53.340477" lon="06.583765"><ele>0.9</ele><time>2021-05-20T12:50:14Z</time><name>PT8398</name></trkpt>
<trkpt lat="53.340478" lon="06.583768"><ele>0.9</ele><time>2021-05-20T12:50:15Z</time><name>PT8399</name></trkpt>
<trkpt lat="53.340480" lon="06.583765"><ele>1</ele><time>2021-05-20T12:50:21Z</time><name>PT8400</name></trkpt>
<trkpt lat="53.340478" lon="06.583765"><ele>1</ele><time>2021-05-20T12:50:22Z</time><name>PT8401</name></trkpt>
<trkpt lat="53.340479" lon="06.583766"><ele>1.1</ele><time>2021-05-20T12:50:23Z</time><name>PT8402</name></trkpt>
<trkpt lat="53.340478" lon="06.583764"><ele>1.3</ele><time>2021-05-20T12:50:28Z</time><name>PT8403</name></trkpt>
<trkpt lat="53.340477" lon="06.583759"><ele>1.2</ele><time>2021-05-20T12:50:29Z</time><name>PT8404</name></trkpt>
<trkpt lat="53.340477" lon="06.583755"><ele>1</ele><time>2021-05-20T12:50:30Z</time><name>PT8405</name></trkpt>
<trkpt lat="53.340477" lon="06.583756"><ele>1.1</ele><time>2021-05-20T12:50:31Z</time><name>PT8406</name></trkpt>
<trkpt lat="53.340476" lon="06.583757"><ele>1</ele><time>2021-05-20T12:50:32Z</time><name>PT8407</name></trkpt>
<trkpt lat="53.340476" lon="06.583757"><ele>1.1</ele><time>2021-05-20T12:50:33Z</time><name>PT8408</name></trkpt>
<trkpt lat="53.340476" lon="06.583758"><ele>1</ele><time>2021-05-20T12:50:49Z</time><name>PT8409</name></trkpt>
<trkpt lat="53.340477" lon="06.583761"><ele>1</ele><time>2021-05-20T12:50:50Z</time><name>PT8410</name></trkpt>
<trkpt lat="53.340476" lon="06.583764"><ele>0.9</ele><time>2021-05-20T12:50:51Z</time><name>PT8411</name></trkpt>
<trkpt lat="53.340476" lon="06.583767"><ele>0.9</ele><time>2021-05-20T12:50:52Z</time><name>PT8412</name></trkpt>
<trkpt lat="53.340475" lon="06.583769"><ele>1</ele><time>2021-05-20T12:51:55Z</time><name>PT8413</name></trkpt>
<trkpt lat="53.340470" lon="06.583777"><ele>1</ele><time>2021-05-20T12:51:56Z</time><name>PT8414</name></trkpt>
<trkpt lat="53.340470" lon="06.583780"><ele>1</ele><time>2021-05-20T12:51:57Z</time><name>PT8415</name></trkpt>
<trkpt lat="53.340467" lon="06.583781"><ele>1</ele><time>2021-05-20T12:52:02Z</time><name>PT8416</name></trkpt>
<trkpt lat="53.340467" lon="06.583784"><ele>0.9</ele><time>2021-05-20T12:52:03Z</time><name>PT8417</name></trkpt>
<trkpt lat="53.340466" lon="06.583786"><ele>0.8</ele><time>2021-05-20T12:52:04Z</time><name>PT8418</name></trkpt>
<trkpt lat="53.340466" lon="06.583788"><ele>0.7</ele><time>2021-05-20T12:52:05Z</time><name>PT8419</name></trkpt>
<trkpt lat="53.340467" lon="06.583782"><ele>0.5</ele><time>2021-05-20T12:52:14Z</time><name>PT8420</name></trkpt>
<trkpt lat="53.340470" lon="06.583783"><ele>0.6</ele><time>2021-05-20T12:52:15Z</time><name>PT8421</name></trkpt>
<trkpt lat="53.340472" lon="06.583790"><ele>0.8</ele><time>2021-05-20T12:52:16Z</time><name>PT8422</name></trkpt>
<trkpt lat="53.340474" lon="06.583794"><ele>0.7</ele><time>2021-05-20T12:52:17Z</time><name>PT8423</name></trkpt>
<trkpt lat="53.340478" lon="06.583796"><ele>0.6</ele><time>2021-05-20T12:52:18Z</time><name>PT8424</name></trkpt>
<trkpt lat="53.340480" lon="06.583791"><ele>0.4</ele><time>2021-05-20T12:52:21Z</time><name>PT8425</name></trkpt>
<trkpt lat="53.340484" lon="06.583792"><ele>0.4</ele><time>2021-05-20T12:52:22Z</time><name>PT8426</name></trkpt>
<trkpt lat="53.340487" lon="06.583796"><ele>0.4</ele><time>2021-05-20T12:52:23Z</time><name>PT8427</name></trkpt>
<trkpt lat="53.340490" lon="06.583798"><ele>0.3</ele><time>2021-05-20T12:52:24Z</time><name>PT8428</name></trkpt>
<trkpt lat="53.340492" lon="06.583799"><ele>0.4</ele><time>2021-05-20T12:52:25Z</time><name>PT8429</name></trkpt>
<trkpt lat="53.340496" lon="06.583802"><ele>0.4</ele><time>2021-05-20T12:52:26Z</time><name>PT8430</name></trkpt>
<trkpt lat="53.340502" lon="06.583809"><ele>0.4</ele><time>2021-05-20T12:52:27Z</time><name>PT8431</name></trkpt>
<trkpt lat="53.340507" lon="06.583814"><ele>0.6</ele><time>2021-05-20T12:52:28Z</time><name>PT8432</name></trkpt>
<trkpt lat="53.340519" lon="06.583831"><ele>0.7</ele><time>2021-05-20T12:52:29Z</time><name>PT8433</name></trkpt>
<trkpt lat="53.340528" lon="06.583823"><ele>0.6</ele><time>2021-05-20T12:52:30Z</time><name>PT8434</name></trkpt>
<trkpt lat="53.340530" lon="06.583812"><ele>0.6</ele><time>2021-05-20T12:52:31Z</time><name>PT8435</name></trkpt>
<trkpt lat="53.340533" lon="06.583809"><ele>0.7</ele><time>2021-05-20T12:52:32Z</time><name>PT8436</name></trkpt>
<trkpt lat="53.340528" lon="06.583817"><ele>0.6</ele><time>2021-05-20T12:52:33Z</time><name>PT8437</name></trkpt>
<trkpt lat="53.340527" lon="06.583826"><ele>0.5</ele><time>2021-05-20T12:52:34Z</time><name>PT8438</name></trkpt>
<trkpt lat="53.340530" lon="06.583827"><ele>0.6</ele><time>2021-05-20T12:52:40Z</time><name>PT8439</name></trkpt>
<trkpt lat="53.340521" lon="06.583829"><ele>0.6</ele><time>2021-05-20T12:52:41Z</time><name>PT8440</name></trkpt>
<trkpt lat="53.340518" lon="06.583839"><ele>0.6</ele><time>2021-05-20T12:52:42Z</time><name>PT8441</name></trkpt>
<trkpt lat="53.340520" lon="06.583838"><ele>0.4</ele><time>2021-05-20T12:52:43Z</time><name>PT8442</name></trkpt>
<trkpt lat="53.340513" lon="06.583827"><ele>2.4</ele><time>2021-05-20T13:14:49Z</time><name>PT8443</name></trkpt>
<trkpt lat="53.340508" lon="06.583825"><ele>2.5</ele><time>2021-05-20T13:14:54Z</time><name>PT8444</name></trkpt>
<trkpt lat="53.340500" lon="06.583815"><ele>2.5</ele><time>2021-05-20T13:14:55Z</time><name>PT8445</name></trkpt>
<trkpt lat="53.340495" lon="06.583804"><ele>2.4</ele><time>2021-05-20T13:14:56Z</time><name>PT8446</name></trkpt>
<trkpt lat="53.340492" lon="06.583797"><ele>2.5</ele><time>2021-05-20T13:14:57Z</time><name>PT8447</name></trkpt>
<trkpt lat="53.340490" lon="06.583791"><ele>2.5</ele><time>2021-05-20T13:14:58Z</time><name>PT8448</name></trkpt>
<trkpt lat="53.340485" lon="06.583788"><ele>2.6</ele><time>2021-05-20T13:14:59Z</time><name>PT8449</name></trkpt>
<trkpt lat="53.340483" lon="06.583788"><ele>2.7</ele><time>2021-05-20T13:15:00Z</time><name>PT8450</name></trkpt>
<trkpt lat="53.340483" lon="06.583786"><ele>2.7</ele><time>2021-05-20T13:15:01Z</time><name>PT8451</name></trkpt>
<trkpt lat="53.340484" lon="06.583784"><ele>2.9</ele><time>2021-05-20T13:15:18Z</time><name>PT8452</name></trkpt>
<trkpt lat="53.340484" lon="06.583776"><ele>2.9</ele><time>2021-05-20T13:15:19Z</time><name>PT8453</name></trkpt>
<trkpt lat="53.340484" lon="06.583776"><ele>2.9</ele><time>2021-05-20T13:15:20Z</time><name>PT8454</name></trkpt>
<trkpt lat="53.340484" lon="06.583776"><ele>2.9</ele><time>2021-05-20T13:15:21Z</time><name>PT8455</name></trkpt>
<trkpt lat="53.340484" lon="06.583775"><ele>2.8</ele><time>2021-05-20T13:15:22Z</time><name>PT8456</name></trkpt>
<trkpt lat="53.340485" lon="06.583773"><ele>2.5</ele><time>2021-05-20T13:16:11Z</time><name>PT8457</name></trkpt>
<trkpt lat="53.340483" lon="06.583782"><ele>2.5</ele><time>2021-05-20T13:16:12Z</time><name>PT8458</name></trkpt>
<trkpt lat="53.340481" lon="06.583786"><ele>2.5</ele><time>2021-05-20T13:16:13Z</time><name>PT8459</name></trkpt>
<trkpt lat="53.340478" lon="06.583795"><ele>2.5</ele><time>2021-05-20T13:16:14Z</time><name>PT8460</name></trkpt>
<trkpt lat="53.340477" lon="06.583779"><ele>2.5</ele><time>2021-05-20T13:16:22Z</time><name>PT8461</name></trkpt>
<trkpt lat="53.340477" lon="06.583765"><ele>2.5</ele><time>2021-05-20T13:16:23Z</time><name>PT8462</name></trkpt>
<trkpt lat="53.340478" lon="06.583752"><ele>2.6</ele><time>2021-05-20T13:16:24Z</time><name>PT8463</name></trkpt>
<trkpt lat="53.340480" lon="06.583739"><ele>2.6</ele><time>2021-05-20T13:16:25Z</time><name>PT8464</name></trkpt>
<trkpt lat="53.340482" lon="06.583728"><ele>2.6</ele><time>2021-05-20T13:16:26Z</time><name>PT8465</name></trkpt>
<trkpt lat="53.340483" lon="06.583715"><ele>2.5</ele><time>2021-05-20T13:16:27Z</time><name>PT8466</name></trkpt>
<trkpt lat="53.340484" lon="06.583704"><ele>2.6</ele><time>2021-05-20T13:16:28Z</time><name>PT8467</name></trkpt>
<trkpt lat="53.340485" lon="06.583692"><ele>2.6</ele><time>2021-05-20T13:16:29Z</time><name>PT8468</name></trkpt>
<trkpt lat="53.340485" lon="06.583679"><ele>2.6</ele><time>2021-05-20T13:16:30Z</time><name>PT8469</name></trkpt>
<trkpt lat="53.340485" lon="06.583664"><ele>2.6</ele><time>2021-05-20T13:16:31Z</time><name>PT8470</name></trkpt>
<trkpt lat="53.340489" lon="06.583649"><ele>2.5</ele><time>2021-05-20T13:16:32Z</time><name>PT8471</name></trkpt>
<trkpt lat="53.340491" lon="06.583637"><ele>2.5</ele><time>2021-05-20T13:16:33Z</time><name>PT8472</name></trkpt>
<trkpt lat="53.340492" lon="06.583622"><ele>2.7</ele><time>2021-05-20T13:16:34Z</time><name>PT8473</name></trkpt>
<trkpt lat="53.340493" lon="06.583609"><ele>2.7</ele><time>2021-05-20T13:16:35Z</time><name>PT8474</name></trkpt>
<trkpt lat="53.340493" lon="06.583592"><ele>2.7</ele><time>2021-05-20T13:16:36Z</time><name>PT8475</name></trkpt>
<trkpt lat="53.340492" lon="06.583575"><ele>2.7</ele><time>2021-05-20T13:16:37Z</time><name>PT8476</name></trkpt>
<trkpt lat="53.340492" lon="06.583560"><ele>2.7</ele><time>2021-05-20T13:16:38Z</time><name>PT8477</name></trkpt>
<trkpt lat="53.340493" lon="06.583546"><ele>2.5</ele><time>2021-05-20T13:16:39Z</time><name>PT8478</name></trkpt>
<trkpt lat="53.340495" lon="06.583531"><ele>2.5</ele><time>2021-05-20T13:16:40Z</time><name>PT8479</name></trkpt>
<trkpt lat="53.340498" lon="06.583517"><ele>2.5</ele><time>2021-05-20T13:16:41Z</time><name>PT8480</name></trkpt>
<trkpt lat="53.340500" lon="06.583503"><ele>2.5</ele><time>2021-05-20T13:16:42Z</time><name>PT8481</name></trkpt>
<trkpt lat="53.340501" lon="06.583491"><ele>2.5</ele><time>2021-05-20T13:16:43Z</time><name>PT8482</name></trkpt>
<trkpt lat="53.340502" lon="06.583478"><ele>2.4</ele><time>2021-05-20T13:16:44Z</time><name>PT8483</name></trkpt>
<trkpt lat="53.340503" lon="06.583464"><ele>2.4</ele><time>2021-05-20T13:16:45Z</time><name>PT8484</name></trkpt>
<trkpt lat="53.340504" lon="06.583449"><ele>2.5</ele><time>2021-05-20T13:16:46Z</time><name>PT8485</name></trkpt>
<trkpt lat="53.340506" lon="06.583433"><ele>2.3</ele><time>2021-05-20T13:16:47Z</time><name>PT8486</name></trkpt>
<trkpt lat="53.340507" lon="06.583416"><ele>2.1</ele><time>2021-05-20T13:16:48Z</time><name>PT8487</name></trkpt>
<trkpt lat="53.340508" lon="06.583399"><ele>2</ele><time>2021-05-20T13:16:49Z</time><name>PT8488</name></trkpt>
<trkpt lat="53.340508" lon="06.583385"><ele>2.1</ele><time>2021-05-20T13:16:50Z</time><name>PT8489</name></trkpt>
<trkpt lat="53.340509" lon="06.583370"><ele>2.2</ele><time>2021-05-20T13:16:51Z</time><name>PT8490</name></trkpt>
<trkpt lat="53.340509" lon="06.583354"><ele>2.2</ele><time>2021-05-20T13:16:52Z</time><name>PT8491</name></trkpt>
<trkpt lat="53.340511" lon="06.583338"><ele>2.2</ele><time>2021-05-20T13:16:53Z</time><name>PT8492</name></trkpt>
<trkpt lat="53.340511" lon="06.583324"><ele>2.2</ele><time>2021-05-20T13:16:54Z</time><name>PT8493</name></trkpt>
<trkpt lat="53.340511" lon="06.583309"><ele>2.3</ele><time>2021-05-20T13:16:55Z</time><name>PT8494</name></trkpt>
<trkpt lat="53.340510" lon="06.583292"><ele>2</ele><time>2021-05-20T13:16:56Z</time><name>PT8495</name></trkpt>
<trkpt lat="53.340508" lon="06.583276"><ele>2</ele><time>2021-05-20T13:16:57Z</time><name>PT8496</name></trkpt>
<trkpt lat="53.340506" lon="06.583262"><ele>2</ele><time>2021-05-20T13:16:58Z</time><name>PT8497</name></trkpt>
<trkpt lat="53.340503" lon="06.583248"><ele>2</ele><time>2021-05-20T13:16:59Z</time><name>PT8498</name></trkpt>
<trkpt lat="53.340500" lon="06.583233"><ele>2.1</ele><time>2021-05-20T13:17:00Z</time><name>PT8499</name></trkpt>
<trkpt lat="53.340498" lon="06.583217"><ele>2</ele><time>2021-05-20T13:17:01Z</time><name>PT8500</name></trkpt>
<trkpt lat="53.340495" lon="06.583200"><ele>2.3</ele><time>2021-05-20T13:17:02Z</time><name>PT8501</name></trkpt>
<trkpt lat="53.340492" lon="06.583184"><ele>2.2</ele><time>2021-05-20T13:17:03Z</time><name>PT8502</name></trkpt>
<trkpt lat="53.340491" lon="06.583168"><ele>2.3</ele><time>2021-05-20T13:17:04Z</time><name>PT8503</name></trkpt>
<trkpt lat="53.340490" lon="06.583153"><ele>2.3</ele><time>2021-05-20T13:17:05Z</time><name>PT8504</name></trkpt>
<trkpt lat="53.340489" lon="06.583138"><ele>2.4</ele><time>2021-05-20T13:17:06Z</time><name>PT8505</name></trkpt>
<trkpt lat="53.340486" lon="06.583124"><ele>2.4</ele><time>2021-05-20T13:17:07Z</time><name>PT8506</name></trkpt>
<trkpt lat="53.340484" lon="06.583109"><ele>2.4</ele><time>2021-05-20T13:17:08Z</time><name>PT8507</name></trkpt>
<trkpt lat="53.340480" lon="06.583095"><ele>2.4</ele><time>2021-05-20T13:17:09Z</time><name>PT8508</name></trkpt>
<trkpt lat="53.340477" lon="06.583079"><ele>2.5</ele><time>2021-05-20T13:17:10Z</time><name>PT8509</name></trkpt>
<trkpt lat="53.340474" lon="06.583064"><ele>2.2</ele><time>2021-05-20T13:17:11Z</time><name>PT8510</name></trkpt>
<trkpt lat="53.340472" lon="06.583051"><ele>2.3</ele><time>2021-05-20T13:17:12Z</time><name>PT8511</name></trkpt>
<trkpt lat="53.340470" lon="06.583038"><ele>2.1</ele><time>2021-05-20T13:17:13Z</time><name>PT8512</name></trkpt>
<trkpt lat="53.340468" lon="06.583024"><ele>2.1</ele><time>2021-05-20T13:17:14Z</time><name>PT8513</name></trkpt>
<trkpt lat="53.340465" lon="06.583009"><ele>2.3</ele><time>2021-05-20T13:17:15Z</time><name>PT8514</name></trkpt>
<trkpt lat="53.340463" lon="06.582996"><ele>2.5</ele><time>2021-05-20T13:17:16Z</time><name>PT8515</name></trkpt>
<trkpt lat="53.340462" lon="06.582981"><ele>2.6</ele><time>2021-05-20T13:17:17Z</time><name>PT8516</name></trkpt>
<trkpt lat="53.340460" lon="06.582967"><ele>2.7</ele><time>2021-05-20T13:17:18Z</time><name>PT8517</name></trkpt>
<trkpt lat="53.340458" lon="06.582952"><ele>2.6</ele><time>2021-05-20T13:17:19Z</time><name>PT8518</name></trkpt>
<trkpt lat="53.340456" lon="06.582934"><ele>2.5</ele><time>2021-05-20T13:17:20Z</time><name>PT8519</name></trkpt>
<trkpt lat="53.340454" lon="06.582917"><ele>2.2</ele><time>2021-05-20T13:17:21Z</time><name>PT8520</name></trkpt>
<trkpt lat="53.340452" lon="06.582900"><ele>2.2</ele><time>2021-05-20T13:17:22Z</time><name>PT8521</name></trkpt>
<trkpt lat="53.340453" lon="06.582888"><ele>2.3</ele><time>2021-05-20T13:17:23Z</time><name>PT8522</name></trkpt>
<trkpt lat="53.340451" lon="06.582873"><ele>2.4</ele><time>2021-05-20T13:17:24Z</time><name>PT8523</name></trkpt>
<trkpt lat="53.340450" lon="06.582858"><ele>2.5</ele><time>2021-05-20T13:17:25Z</time><name>PT8524</name></trkpt>
<trkpt lat="53.340450" lon="06.582842"><ele>2.7</ele><time>2021-05-20T13:17:26Z</time><name>PT8525</name></trkpt>
<trkpt lat="53.340449" lon="06.582825"><ele>2.8</ele><time>2021-05-20T13:17:27Z</time><name>PT8526</name></trkpt>
<trkpt lat="53.340448" lon="06.582808"><ele>2.6</ele><time>2021-05-20T13:17:28Z</time><name>PT8527</name></trkpt>
<trkpt lat="53.340449" lon="06.582791"><ele>2.8</ele><time>2021-05-20T13:17:29Z</time><name>PT8528</name></trkpt>
<trkpt lat="53.340448" lon="06.582774"><ele>2.6</ele><time>2021-05-20T13:17:30Z</time><name>PT8529</name></trkpt>
<trkpt lat="53.340447" lon="06.582758"><ele>2.5</ele><time>2021-05-20T13:17:31Z</time><name>PT8530</name></trkpt>
<trkpt lat="53.340447" lon="06.582740"><ele>2.5</ele><time>2021-05-20T13:17:32Z</time><name>PT8531</name></trkpt>
<trkpt lat="53.340447" lon="06.582724"><ele>2.7</ele><time>2021-05-20T13:17:33Z</time><name>PT8532</name></trkpt>
<trkpt lat="53.340447" lon="06.582707"><ele>2.7</ele><time>2021-05-20T13:17:34Z</time><name>PT8533</name></trkpt>
<trkpt lat="53.340446" lon="06.582689"><ele>2.8</ele><time>2021-05-20T13:17:35Z</time><name>PT8534</name></trkpt>
<trkpt lat="53.340447" lon="06.582671"><ele>2.8</ele><time>2021-05-20T13:17:36Z</time><name>PT8535</name></trkpt>
<trkpt lat="53.340448" lon="06.582654"><ele>2.7</ele><time>2021-05-20T13:17:37Z</time><name>PT8536</name></trkpt>
<trkpt lat="53.340450" lon="06.582638"><ele>2.7</ele><time>2021-05-20T13:17:38Z</time><name>PT8537</name></trkpt>
<trkpt lat="53.340452" lon="06.582622"><ele>2.5</ele><time>2021-05-20T13:17:39Z</time><name>PT8538</name></trkpt>
<trkpt lat="53.340453" lon="06.582607"><ele>2.4</ele><time>2021-05-20T13:17:40Z</time><name>PT8539</name></trkpt>
<trkpt lat="53.340455" lon="06.582590"><ele>2.3</ele><time>2021-05-20T13:17:41Z</time><name>PT8540</name></trkpt>
<trkpt lat="53.340458" lon="06.582574"><ele>2.3</ele><time>2021-05-20T13:17:42Z</time><name>PT8541</name></trkpt>
<trkpt lat="53.340460" lon="06.582560"><ele>2.3</ele><time>2021-05-20T13:17:43Z</time><name>PT8542</name></trkpt>
<trkpt lat="53.340459" lon="06.582550"><ele>2.2</ele><time>2021-05-20T13:17:44Z</time><name>PT8543</name></trkpt>
<trkpt lat="53.340458" lon="06.582547"><ele>2.4</ele><time>2021-05-20T13:17:45Z</time><name>PT8544</name></trkpt>
<trkpt lat="53.340460" lon="06.582540"><ele>2.3</ele><time>2021-05-20T13:17:46Z</time><name>PT8545</name></trkpt>
<trkpt lat="53.340460" lon="06.582534"><ele>2.3</ele><time>2021-05-20T13:17:47Z</time><name>PT8546</name></trkpt>
<trkpt lat="53.340460" lon="06.582532"><ele>2.2</ele><time>2021-05-20T13:17:48Z</time><name>PT8547</name></trkpt>
<trkpt lat="53.340461" lon="06.582526"><ele>2.1</ele><time>2021-05-20T13:17:49Z</time><name>PT8548</name></trkpt>
<trkpt lat="53.340461" lon="06.582521"><ele>2</ele><time>2021-05-20T13:17:50Z</time><name>PT8549</name></trkpt>
<trkpt lat="53.340459" lon="06.582513"><ele>2</ele><time>2021-05-20T13:17:51Z</time><name>PT8550</name></trkpt>
<trkpt lat="53.340459" lon="06.582510"><ele>1.9</ele><time>2021-05-20T13:17:52Z</time><name>PT8551</name></trkpt>
<trkpt lat="53.340457" lon="06.582505"><ele>2</ele><time>2021-05-20T13:17:53Z</time><name>PT8552</name></trkpt>
<trkpt lat="53.340457" lon="06.582481"><ele>2.1</ele><time>2021-05-20T13:18:04Z</time><name>PT8553</name></trkpt>
<trkpt lat="53.340453" lon="06.582465"><ele>2.1</ele><time>2021-05-20T13:18:05Z</time><name>PT8554</name></trkpt>
<trkpt lat="53.340446" lon="06.582456"><ele>2.1</ele><time>2021-05-20T13:18:06Z</time><name>PT8555</name></trkpt>
<trkpt lat="53.340436" lon="06.582445"><ele>2.4</ele><time>2021-05-20T13:18:07Z</time><name>PT8556</name></trkpt>
<trkpt lat="53.340427" lon="06.582435"><ele>2.7</ele><time>2021-05-20T13:18:08Z</time><name>PT8557</name></trkpt>
<trkpt lat="53.340416" lon="06.582430"><ele>2.7</ele><time>2021-05-20T13:18:09Z</time><name>PT8558</name></trkpt>
<trkpt lat="53.340404" lon="06.582425"><ele>2.9</ele><time>2021-05-20T13:18:10Z</time><name>PT8559</name></trkpt>
<trkpt lat="53.340392" lon="06.582419"><ele>2.9</ele><time>2021-05-20T13:18:11Z</time><name>PT8560</name></trkpt>
<trkpt lat="53.340382" lon="06.582414"><ele>2.9</ele><time>2021-05-20T13:18:12Z</time><name>PT8561</name></trkpt>
<trkpt lat="53.340374" lon="06.582412"><ele>2.9</ele><time>2021-05-20T13:18:13Z</time><name>PT8562</name></trkpt>
<trkpt lat="53.340374" lon="06.582408"><ele>3</ele><time>2021-05-20T13:18:14Z</time><name>PT8563</name></trkpt>
<trkpt lat="53.340371" lon="06.582405"><ele>3</ele><time>2021-05-20T13:18:15Z</time><name>PT8564</name></trkpt>
<trkpt lat="53.340360" lon="06.582402"><ele>3</ele><time>2021-05-20T13:18:16Z</time><name>PT8565</name></trkpt>
<trkpt lat="53.340348" lon="06.582396"><ele>2.9</ele><time>2021-05-20T13:18:17Z</time><name>PT8566</name></trkpt>
<trkpt lat="53.340337" lon="06.582393"><ele>2.7</ele><time>2021-05-20T13:18:18Z</time><name>PT8567</name></trkpt>
<trkpt lat="53.340328" lon="06.582391"><ele>2.8</ele><time>2021-05-20T13:18:19Z</time><name>PT8568</name></trkpt>
<trkpt lat="53.340318" lon="06.582388"><ele>2.7</ele><time>2021-05-20T13:18:20Z</time><name>PT8569</name></trkpt>
<trkpt lat="53.340308" lon="06.582385"><ele>2.7</ele><time>2021-05-20T13:18:21Z</time><name>PT8570</name></trkpt>
<trkpt lat="53.340299" lon="06.582381"><ele>2.6</ele><time>2021-05-20T13:18:22Z</time><name>PT8571</name></trkpt>
<trkpt lat="53.340290" lon="06.582374"><ele>2.5</ele><time>2021-05-20T13:18:23Z</time><name>PT8572</name></trkpt>
<trkpt lat="53.340280" lon="06.582369"><ele>2.5</ele><time>2021-05-20T13:18:24Z</time><name>PT8573</name></trkpt>
<trkpt lat="53.340269" lon="06.582366"><ele>2.5</ele><time>2021-05-20T13:18:25Z</time><name>PT8574</name></trkpt>
<trkpt lat="53.340259" lon="06.582366"><ele>2.6</ele><time>2021-05-20T13:18:26Z</time><name>PT8575</name></trkpt>
<trkpt lat="53.340247" lon="06.582365"><ele>2.6</ele><time>2021-05-20T13:18:27Z</time><name>PT8576</name></trkpt>
<trkpt lat="53.340236" lon="06.582364"><ele>2.7</ele><time>2021-05-20T13:18:28Z</time><name>PT8577</name></trkpt>
<trkpt lat="53.340224" lon="06.582364"><ele>2.8</ele><time>2021-05-20T13:18:29Z</time><name>PT8578</name></trkpt>
<trkpt lat="53.340215" lon="06.582362"><ele>3</ele><time>2021-05-20T13:18:30Z</time><name>PT8579</name></trkpt>
<trkpt lat="53.340206" lon="06.582360"><ele>3.1</ele><time>2021-05-20T13:18:31Z</time><name>PT8580</name></trkpt>
<trkpt lat="53.340196" lon="06.582357"><ele>3.1</ele><time>2021-05-20T13:18:32Z</time><name>PT8581</name></trkpt>
<trkpt lat="53.340187" lon="06.582357"><ele>3.3</ele><time>2021-05-20T13:18:33Z</time><name>PT8582</name></trkpt>
<trkpt lat="53.340177" lon="06.582359"><ele>3.2</ele><time>2021-05-20T13:18:34Z</time><name>PT8583</name></trkpt>
<trkpt lat="53.340167" lon="06.582357"><ele>3.3</ele><time>2021-05-20T13:18:35Z</time><name>PT8584</name></trkpt>
<trkpt lat="53.340155" lon="06.582354"><ele>3.2</ele><time>2021-05-20T13:18:36Z</time><name>PT8585</name></trkpt>
<trkpt lat="53.340145" lon="06.582352"><ele>3.3</ele><time>2021-05-20T13:18:37Z</time><name>PT8586</name></trkpt>
<trkpt lat="53.340133" lon="06.582353"><ele>3</ele><time>2021-05-20T13:18:38Z</time><name>PT8587</name></trkpt>
<trkpt lat="53.340122" lon="06.582355"><ele>2.9</ele><time>2021-05-20T13:18:39Z</time><name>PT8588</name></trkpt>
<trkpt lat="53.340110" lon="06.582358"><ele>2.9</ele><time>2021-05-20T13:18:40Z</time><name>PT8589</name></trkpt>
<trkpt lat="53.340099" lon="06.582363"><ele>2.8</ele><time>2021-05-20T13:18:41Z</time><name>PT8590</name></trkpt>
<trkpt lat="53.340090" lon="06.582364"><ele>2.8</ele><time>2021-05-20T13:18:42Z</time><name>PT8591</name></trkpt>
<trkpt lat="53.340080" lon="06.582365"><ele>2.7</ele><time>2021-05-20T13:18:43Z</time><name>PT8592</name></trkpt>
<trkpt lat="53.340070" lon="06.582368"><ele>2.9</ele><time>2021-05-20T13:18:44Z</time><name>PT8593</name></trkpt>
<trkpt lat="53.340061" lon="06.582373"><ele>3</ele><time>2021-05-20T13:18:45Z</time><name>PT8594</name></trkpt>
<trkpt lat="53.340052" lon="06.582378"><ele>3</ele><time>2021-05-20T13:18:46Z</time><name>PT8595</name></trkpt>
<trkpt lat="53.340041" lon="06.582381"><ele>3.4</ele><time>2021-05-20T13:18:47Z</time><name>PT8596</name></trkpt>
<trkpt lat="53.340030" lon="06.582386"><ele>3.4</ele><time>2021-05-20T13:18:48Z</time><name>PT8597</name></trkpt>
<trkpt lat="53.340019" lon="06.582393"><ele>3.4</ele><time>2021-05-20T13:18:49Z</time><name>PT8598</name></trkpt>
<trkpt lat="53.340009" lon="06.582400"><ele>3.4</ele><time>2021-05-20T13:18:50Z</time><name>PT8599</name></trkpt>
<trkpt lat="53.339998" lon="06.582404"><ele>3.3</ele><time>2021-05-20T13:18:51Z</time><name>PT8600</name></trkpt>
<trkpt lat="53.339986" lon="06.582411"><ele>3</ele><time>2021-05-20T13:18:52Z</time><name>PT8601</name></trkpt>
<trkpt lat="53.339974" lon="06.582421"><ele>2.9</ele><time>2021-05-20T13:18:53Z</time><name>PT8602</name></trkpt>
<trkpt lat="53.339964" lon="06.582431"><ele>2.9</ele><time>2021-05-20T13:18:54Z</time><name>PT8603</name></trkpt>
<trkpt lat="53.339955" lon="06.582440"><ele>2.9</ele><time>2021-05-20T13:18:55Z</time><name>PT8604</name></trkpt>
<trkpt lat="53.339946" lon="06.582450"><ele>2.8</ele><time>2021-05-20T13:18:56Z</time><name>PT8605</name></trkpt>
<trkpt lat="53.339937" lon="06.582456"><ele>2.6</ele><time>2021-05-20T13:18:57Z</time><name>PT8606</name></trkpt>
<trkpt lat="53.339929" lon="06.582467"><ele>2.6</ele><time>2021-05-20T13:18:58Z</time><name>PT8607</name></trkpt>
<trkpt lat="53.339920" lon="06.582476"><ele>2.8</ele><time>2021-05-20T13:18:59Z</time><name>PT8608</name></trkpt>
<trkpt lat="53.339912" lon="06.582483"><ele>2.9</ele><time>2021-05-20T13:19:00Z</time><name>PT8609</name></trkpt>
<trkpt lat="53.339903" lon="06.582492"><ele>3.1</ele><time>2021-05-20T13:19:01Z</time><name>PT8610</name></trkpt>
<trkpt lat="53.339893" lon="06.582499"><ele>3.2</ele><time>2021-05-20T13:19:02Z</time><name>PT8611</name></trkpt>
<trkpt lat="53.339885" lon="06.582510"><ele>3.1</ele><time>2021-05-20T13:19:03Z</time><name>PT8612</name></trkpt>
<trkpt lat="53.339876" lon="06.582523"><ele>3</ele><time>2021-05-20T13:19:04Z</time><name>PT8613</name></trkpt>
<trkpt lat="53.339867" lon="06.582537"><ele>2.8</ele><time>2021-05-20T13:19:05Z</time><name>PT8614</name></trkpt>
<trkpt lat="53.339858" lon="06.582551"><ele>2.8</ele><time>2021-05-20T13:19:06Z</time><name>PT8615</name></trkpt>
<trkpt lat="53.339848" lon="06.582564"><ele>2.9</ele><time>2021-05-20T13:19:07Z</time><name>PT8616</name></trkpt>
<trkpt lat="53.339838" lon="06.582575"><ele>2.9</ele><time>2021-05-20T13:19:08Z</time><name>PT8617</name></trkpt>
<trkpt lat="53.339829" lon="06.582589"><ele>2.9</ele><time>2021-05-20T13:19:09Z</time><name>PT8618</name></trkpt>
<trkpt lat="53.339822" lon="06.582602"><ele>2.8</ele><time>2021-05-20T13:19:10Z</time><name>PT8619</name></trkpt>
<trkpt lat="53.339815" lon="06.582614"><ele>2.7</ele><time>2021-05-20T13:19:11Z</time><name>PT8620</name></trkpt>
<trkpt lat="53.339809" lon="06.582626"><ele>2.5</ele><time>2021-05-20T13:19:12Z</time><name>PT8621</name></trkpt>
<trkpt lat="53.339801" lon="06.582640"><ele>2.5</ele><time>2021-05-20T13:19:13Z</time><name>PT8622</name></trkpt>
<trkpt lat="53.339794" lon="06.582651"><ele>2.4</ele><time>2021-05-20T13:19:14Z</time><name>PT8623</name></trkpt>
<trkpt lat="53.339785" lon="06.582663"><ele>2.5</ele><time>2021-05-20T13:19:15Z</time><name>PT8624</name></trkpt>
<trkpt lat="53.339778" lon="06.582675"><ele>2.5</ele><time>2021-05-20T13:19:16Z</time><name>PT8625</name></trkpt>
<trkpt lat="53.339769" lon="06.582687"><ele>2.7</ele><time>2021-05-20T13:19:17Z</time><name>PT8626</name></trkpt>
<trkpt lat="53.339761" lon="06.582699"><ele>2.8</ele><time>2021-05-20T13:19:18Z</time><name>PT8627</name></trkpt>
<trkpt lat="53.339754" lon="06.582712"><ele>2.9</ele><time>2021-05-20T13:19:19Z</time><name>PT8628</name></trkpt>
<trkpt lat="53.339745" lon="06.582724"><ele>2.9</ele><time>2021-05-20T13:19:20Z</time><name>PT8629</name></trkpt>
<trkpt lat="53.339737" lon="06.582738"><ele>2.8</ele><time>2021-05-20T13:19:21Z</time><name>PT8630</name></trkpt>
<trkpt lat="53.339729" lon="06.582753"><ele>2.8</ele><time>2021-05-20T13:19:22Z</time><name>PT8631</name></trkpt>
<trkpt lat="53.339722" lon="06.582768"><ele>2.9</ele><time>2021-05-20T13:19:23Z</time><name>PT8632</name></trkpt>
<trkpt lat="53.339714" lon="06.582783"><ele>3.1</ele><time>2021-05-20T13:19:24Z</time><name>PT8633</name></trkpt>
<trkpt lat="53.339708" lon="06.582794"><ele>3.2</ele><time>2021-05-20T13:19:25Z</time><name>PT8634</name></trkpt>
<trkpt lat="53.339702" lon="06.582807"><ele>3.1</ele><time>2021-05-20T13:19:26Z</time><name>PT8635</name></trkpt>
<trkpt lat="53.339695" lon="06.582820"><ele>2.9</ele><time>2021-05-20T13:19:27Z</time><name>PT8636</name></trkpt>
<trkpt lat="53.339689" lon="06.582833"><ele>2.9</ele><time>2021-05-20T13:19:28Z</time><name>PT8637</name></trkpt>
<trkpt lat="53.339683" lon="06.582844"><ele>2.8</ele><time>2021-05-20T13:19:29Z</time><name>PT8638</name></trkpt>
<trkpt lat="53.339674" lon="06.582854"><ele>2.9</ele><time>2021-05-20T13:19:30Z</time><name>PT8639</name></trkpt>
<trkpt lat="53.339667" lon="06.582866"><ele>2.9</ele><time>2021-05-20T13:19:31Z</time><name>PT8640</name></trkpt>
<trkpt lat="53.339659" lon="06.582879"><ele>3</ele><time>2021-05-20T13:19:32Z</time><name>PT8641</name></trkpt>
<trkpt lat="53.339653" lon="06.582894"><ele>3.1</ele><time>2021-05-20T13:19:33Z</time><name>PT8642</name></trkpt>
<trkpt lat="53.339646" lon="06.582907"><ele>3.3</ele><time>2021-05-20T13:19:34Z</time><name>PT8643</name></trkpt>
<trkpt lat="53.339636" lon="06.582921"><ele>3.1</ele><time>2021-05-20T13:19:35Z</time><name>PT8644</name></trkpt>
<trkpt lat="53.339628" lon="06.582938"><ele>3.1</ele><time>2021-05-20T13:19:36Z</time><name>PT8645</name></trkpt>
<trkpt lat="53.339621" lon="06.582953"><ele>3.1</ele><time>2021-05-20T13:19:37Z</time><name>PT8646</name></trkpt>
<trkpt lat="53.339614" lon="06.582967"><ele>2.8</ele><time>2021-05-20T13:19:38Z</time><name>PT8647</name></trkpt>
<trkpt lat="53.339607" lon="06.582979"><ele>2.8</ele><time>2021-05-20T13:19:39Z</time><name>PT8648</name></trkpt>
<trkpt lat="53.339600" lon="06.582989"><ele>2.8</ele><time>2021-05-20T13:19:40Z</time><name>PT8649</name></trkpt>
<trkpt lat="53.339593" lon="06.583002"><ele>2.8</ele><time>2021-05-20T13:19:41Z</time><name>PT8650</name></trkpt>
<trkpt lat="53.339586" lon="06.583017"><ele>2.8</ele><time>2021-05-20T13:19:42Z</time><name>PT8651</name></trkpt>
<trkpt lat="53.339578" lon="06.583029"><ele>2.9</ele><time>2021-05-20T13:19:43Z</time><name>PT8652</name></trkpt>
<trkpt lat="53.339572" lon="06.583042"><ele>3.1</ele><time>2021-05-20T13:19:44Z</time><name>PT8653</name></trkpt>
<trkpt lat="53.339564" lon="06.583054"><ele>3.1</ele><time>2021-05-20T13:19:45Z</time><name>PT8654</name></trkpt>
<trkpt lat="53.339556" lon="06.583064"><ele>3.2</ele><time>2021-05-20T13:19:46Z</time><name>PT8655</name></trkpt>
<trkpt lat="53.339546" lon="06.583076"><ele>3.3</ele><time>2021-05-20T13:19:47Z</time><name>PT8656</name></trkpt>
<trkpt lat="53.339536" lon="06.583089"><ele>3.2</ele><time>2021-05-20T13:19:48Z</time><name>PT8657</name></trkpt>
<trkpt lat="53.339527" lon="06.583103"><ele>3.1</ele><time>2021-05-20T13:19:49Z</time><name>PT8658</name></trkpt>
<trkpt lat="53.339517" lon="06.583117"><ele>3.1</ele><time>2021-05-20T13:19:50Z</time><name>PT8659</name></trkpt>
<trkpt lat="53.339509" lon="06.583130"><ele>3</ele><time>2021-05-20T13:19:51Z</time><name>PT8660</name></trkpt>
<trkpt lat="53.339502" lon="06.583144"><ele>3</ele><time>2021-05-20T13:19:52Z</time><name>PT8661</name></trkpt>
<trkpt lat="53.339494" lon="06.583157"><ele>3</ele><time>2021-05-20T13:19:53Z</time><name>PT8662</name></trkpt>
<trkpt lat="53.339487" lon="06.583169"><ele>3</ele><time>2021-05-20T13:19:54Z</time><name>PT8663</name></trkpt>
<trkpt lat="53.339480" lon="06.583180"><ele>3.2</ele><time>2021-05-20T13:19:55Z</time><name>PT8664</name></trkpt>
<trkpt lat="53.339472" lon="06.583190"><ele>3.4</ele><time>2021-05-20T13:19:56Z</time><name>PT8665</name></trkpt>
<trkpt lat="53.339465" lon="06.583200"><ele>3.6</ele><time>2021-05-20T13:19:57Z</time><name>PT8666</name></trkpt>
<trkpt lat="53.339456" lon="06.583211"><ele>3.4</ele><time>2021-05-20T13:19:58Z</time><name>PT8667</name></trkpt>
<trkpt lat="53.339448" lon="06.583222"><ele>3.5</ele><time>2021-05-20T13:19:59Z</time><name>PT8668</name></trkpt>
<trkpt lat="53.339439" lon="06.583235"><ele>3.5</ele><time>2021-05-20T13:20:00Z</time><name>PT8669</name></trkpt>
<trkpt lat="53.339429" lon="06.583246"><ele>3.4</ele><time>2021-05-20T13:20:01Z</time><name>PT8670</name></trkpt>
<trkpt lat="53.339419" lon="06.583257"><ele>3.4</ele><time>2021-05-20T13:20:02Z</time><name>PT8671</name></trkpt>
<trkpt lat="53.339412" lon="06.583270"><ele>3.4</ele><time>2021-05-20T13:20:03Z</time><name>PT8672</name></trkpt>
<trkpt lat="53.339402" lon="06.583284"><ele>3.4</ele><time>2021-05-20T13:20:04Z</time><name>PT8673</name></trkpt>
<trkpt lat="53.339394" lon="06.583297"><ele>3.3</ele><time>2021-05-20T13:20:05Z</time><name>PT8674</name></trkpt>
<trkpt lat="53.339387" lon="06.583311"><ele>3.2</ele><time>2021-05-20T13:20:06Z</time><name>PT8675</name></trkpt>
<trkpt lat="53.339380" lon="06.583322"><ele>3.2</ele><time>2021-05-20T13:20:07Z</time><name>PT8676</name></trkpt>
<trkpt lat="53.339374" lon="06.583334"><ele>3.3</ele><time>2021-05-20T13:20:08Z</time><name>PT8677</name></trkpt>
<trkpt lat="53.339368" lon="06.583345"><ele>3.2</ele><time>2021-05-20T13:20:09Z</time><name>PT8678</name></trkpt>
<trkpt lat="53.339362" lon="06.583359"><ele>3.4</ele><time>2021-05-20T13:20:10Z</time><name>PT8679</name></trkpt>
<trkpt lat="53.339355" lon="06.583372"><ele>3.4</ele><time>2021-05-20T13:20:11Z</time><name>PT8680</name></trkpt>
<trkpt lat="53.339347" lon="06.583383"><ele>3.5</ele><time>2021-05-20T13:20:12Z</time><name>PT8681</name></trkpt>
<trkpt lat="53.339339" lon="06.583391"><ele>3.5</ele><time>2021-05-20T13:20:13Z</time><name>PT8682</name></trkpt>
<trkpt lat="53.339332" lon="06.583398"><ele>3.6</ele><time>2021-05-20T13:20:14Z</time><name>PT8683</name></trkpt>
<trkpt lat="53.339327" lon="06.583396"><ele>3.4</ele><time>2021-05-20T13:20:15Z</time><name>PT8684</name></trkpt>
<trkpt lat="53.339325" lon="06.583395"><ele>3.6</ele><time>2021-05-20T13:20:16Z</time><name>PT8685</name></trkpt>
<trkpt lat="53.339325" lon="06.583400"><ele>3.4</ele><time>2021-05-20T13:20:17Z</time><name>PT8686</name></trkpt>
<trkpt lat="53.339325" lon="06.583403"><ele>3.5</ele><time>2021-05-20T13:20:18Z</time><name>PT8687</name></trkpt>
<trkpt lat="53.339324" lon="06.583405"><ele>3.5</ele><time>2021-05-20T13:20:21Z</time><name>PT8688</name></trkpt>
<trkpt lat="53.339314" lon="06.583409"><ele>3.5</ele><time>2021-05-20T13:20:22Z</time><name>PT8689</name></trkpt>
<trkpt lat="53.339304" lon="06.583414"><ele>3.5</ele><time>2021-05-20T13:20:23Z</time><name>PT8690</name></trkpt>
<trkpt lat="53.339294" lon="06.583424"><ele>3.5</ele><time>2021-05-20T13:20:24Z</time><name>PT8691</name></trkpt>
<trkpt lat="53.339283" lon="06.583436"><ele>3.6</ele><time>2021-05-20T13:20:25Z</time><name>PT8692</name></trkpt>
<trkpt lat="53.339271" lon="06.583443"><ele>3.5</ele><time>2021-05-20T13:20:26Z</time><name>PT8693</name></trkpt>
<trkpt lat="53.339260" lon="06.583449"><ele>3.6</ele><time>2021-05-20T13:20:27Z</time><name>PT8694</name></trkpt>
<trkpt lat="53.339249" lon="06.583458"><ele>3.5</ele><time>2021-05-20T13:20:28Z</time><name>PT8695</name></trkpt>
<trkpt lat="53.339238" lon="06.583467"><ele>3.4</ele><time>2021-05-20T13:20:29Z</time><name>PT8696</name></trkpt>
<trkpt lat="53.339225" lon="06.583474"><ele>3.3</ele><time>2021-05-20T13:20:30Z</time><name>PT8697</name></trkpt>
<trkpt lat="53.339217" lon="06.583476"><ele>3.4</ele><time>2021-05-20T13:20:31Z</time><name>PT8698</name></trkpt>
<trkpt lat="53.339214" lon="06.583482"><ele>3.6</ele><time>2021-05-20T13:20:32Z</time><name>PT8699</name></trkpt>
<trkpt lat="53.339207" lon="06.583488"><ele>3.8</ele><time>2021-05-20T13:20:33Z</time><name>PT8700</name></trkpt>
<trkpt lat="53.339197" lon="06.583494"><ele>3.7</ele><time>2021-05-20T13:20:34Z</time><name>PT8701</name></trkpt>
<trkpt lat="53.339185" lon="06.583499"><ele>3.5</ele><time>2021-05-20T13:20:35Z</time><name>PT8702</name></trkpt>
<trkpt lat="53.339175" lon="06.583502"><ele>3.3</ele><time>2021-05-20T13:20:36Z</time><name>PT8703</name></trkpt>
<trkpt lat="53.339164" lon="06.583505"><ele>3.1</ele><time>2021-05-20T13:20:37Z</time><name>PT8704</name></trkpt>
<trkpt lat="53.339154" lon="06.583512"><ele>3.2</ele><time>2021-05-20T13:20:38Z</time><name>PT8705</name></trkpt>
<trkpt lat="53.339146" lon="06.583518"><ele>3.3</ele><time>2021-05-20T13:20:39Z</time><name>PT8706</name></trkpt>
<trkpt lat="53.339140" lon="06.583525"><ele>3.4</ele><time>2021-05-20T13:20:40Z</time><name>PT8707</name></trkpt>
<trkpt lat="53.339138" lon="06.583528"><ele>3.4</ele><time>2021-05-20T13:20:41Z</time><name>PT8708</name></trkpt>
<trkpt lat="53.339135" lon="06.583535"><ele>3.5</ele><time>2021-05-20T13:20:42Z</time><name>PT8709</name></trkpt>
<trkpt lat="53.339134" lon="06.583536"><ele>3.6</ele><time>2021-05-20T13:20:43Z</time><name>PT8710</name></trkpt>
<trkpt lat="53.339134" lon="06.583536"><ele>3.8</ele><time>2021-05-20T13:20:44Z</time><name>PT8711</name></trkpt>
<trkpt lat="53.339130" lon="06.583540"><ele>3.6</ele><time>2021-05-20T13:21:02Z</time><name>PT8712</name></trkpt>
<trkpt lat="53.339123" lon="06.583542"><ele>3.7</ele><time>2021-05-20T13:21:03Z</time><name>PT8713</name></trkpt>
<trkpt lat="53.339114" lon="06.583547"><ele>3.7</ele><time>2021-05-20T13:21:04Z</time><name>PT8714</name></trkpt>
<trkpt lat="53.339102" lon="06.583552"><ele>3.8</ele><time>2021-05-20T13:21:05Z</time><name>PT8715</name></trkpt>
<trkpt lat="53.339090" lon="06.583554"><ele>3.8</ele><time>2021-05-20T13:21:06Z</time><name>PT8716</name></trkpt>
<trkpt lat="53.339078" lon="06.583559"><ele>3.8</ele><time>2021-05-20T13:21:07Z</time><name>PT8717</name></trkpt>
<trkpt lat="53.339066" lon="06.583563"><ele>3.6</ele><time>2021-05-20T13:21:08Z</time><name>PT8718</name></trkpt>
<trkpt lat="53.339055" lon="06.583565"><ele>3.5</ele><time>2021-05-20T13:21:09Z</time><name>PT8719</name></trkpt>
<trkpt lat="53.339043" lon="06.583569"><ele>3.5</ele><time>2021-05-20T13:21:10Z</time><name>PT8720</name></trkpt>
<trkpt lat="53.339032" lon="06.583574"><ele>3.5</ele><time>2021-05-20T13:21:11Z</time><name>PT8721</name></trkpt>
<trkpt lat="53.339021" lon="06.583580"><ele>3.7</ele><time>2021-05-20T13:21:12Z</time><name>PT8722</name></trkpt>
<trkpt lat="53.339013" lon="06.583584"><ele>3.7</ele><time>2021-05-20T13:21:13Z</time><name>PT8723</name></trkpt>
<trkpt lat="53.339004" lon="06.583587"><ele>3.8</ele><time>2021-05-20T13:21:14Z</time><name>PT8724</name></trkpt>
<trkpt lat="53.338996" lon="06.583590"><ele>3.7</ele><time>2021-05-20T13:21:15Z</time><name>PT8725</name></trkpt>
<trkpt lat="53.338987" lon="06.583591"><ele>3.7</ele><time>2021-05-20T13:21:16Z</time><name>PT8726</name></trkpt>
<trkpt lat="53.338978" lon="06.583594"><ele>3.8</ele><time>2021-05-20T13:21:17Z</time><name>PT8727</name></trkpt>
<trkpt lat="53.338971" lon="06.583598"><ele>3.7</ele><time>2021-05-20T13:21:18Z</time><name>PT8728</name></trkpt>
<trkpt lat="53.338966" lon="06.583600"><ele>3.7</ele><time>2021-05-20T13:21:19Z</time><name>PT8729</name></trkpt>
<trkpt lat="53.338963" lon="06.583602"><ele>3.9</ele><time>2021-05-20T13:21:20Z</time><name>PT8730</name></trkpt>
<trkpt lat="53.338962" lon="06.583602"><ele>3.9</ele><time>2021-05-20T13:21:21Z</time><name>PT8731</name></trkpt>
<trkpt lat="53.338962" lon="06.583602"><ele>3.8</ele><time>2021-05-20T13:21:22Z</time><name>PT8732</name></trkpt>
<trkpt lat="53.338959" lon="06.583604"><ele>3.7</ele><time>2021-05-20T13:21:24Z</time><name>PT8733</name></trkpt>
<trkpt lat="53.338950" lon="06.583607"><ele>3.5</ele><time>2021-05-20T13:21:25Z</time><name>PT8734</name></trkpt>
<trkpt lat="53.338939" lon="06.583611"><ele>3.5</ele><time>2021-05-20T13:21:26Z</time><name>PT8735</name></trkpt>
<trkpt lat="53.338929" lon="06.583615"><ele>3.4</ele><time>2021-05-20T13:21:27Z</time><name>PT8736</name></trkpt>
<trkpt lat="53.338921" lon="06.583619"><ele>3.4</ele><time>2021-05-20T13:21:28Z</time><name>PT8737</name></trkpt>
<trkpt lat="53.338912" lon="06.583623"><ele>3.6</ele><time>2021-05-20T13:21:29Z</time><name>PT8738</name></trkpt>
<trkpt lat="53.338904" lon="06.583627"><ele>3.6</ele><time>2021-05-20T13:21:30Z</time><name>PT8739</name></trkpt>
<trkpt lat="53.338895" lon="06.583634"><ele>3.8</ele><time>2021-05-20T13:21:31Z</time><name>PT8740</name></trkpt>
<trkpt lat="53.338887" lon="06.583643"><ele>3.9</ele><time>2021-05-20T13:21:32Z</time><name>PT8741</name></trkpt>
<trkpt lat="53.338877" lon="06.583648"><ele>3.9</ele><time>2021-05-20T13:21:33Z</time><name>PT8742</name></trkpt>
<trkpt lat="53.338864" lon="06.583654"><ele>4</ele><time>2021-05-20T13:21:34Z</time><name>PT8743</name></trkpt>
<trkpt lat="53.338853" lon="06.583662"><ele>3.9</ele><time>2021-05-20T13:21:35Z</time><name>PT8744</name></trkpt>
<trkpt lat="53.338843" lon="06.583670"><ele>3.9</ele><time>2021-05-20T13:21:36Z</time><name>PT8745</name></trkpt>
<trkpt lat="53.338833" lon="06.583676"><ele>3.9</ele><time>2021-05-20T13:21:37Z</time><name>PT8746</name></trkpt>
<trkpt lat="53.338821" lon="06.583681"><ele>4</ele><time>2021-05-20T13:21:38Z</time><name>PT8747</name></trkpt>
<trkpt lat="53.338809" lon="06.583685"><ele>4</ele><time>2021-05-20T13:21:39Z</time><name>PT8748</name></trkpt>
<trkpt lat="53.338796" lon="06.583689"><ele>4</ele><time>2021-05-20T13:21:40Z</time><name>PT8749</name></trkpt>
<trkpt lat="53.338783" lon="06.583694"><ele>3.9</ele><time>2021-05-20T13:21:41Z</time><name>PT8750</name></trkpt>
<trkpt lat="53.338773" lon="06.583702"><ele>3.9</ele><time>2021-05-20T13:21:42Z</time><name>PT8751</name></trkpt>
<trkpt lat="53.338763" lon="06.583708"><ele>3.9</ele><time>2021-05-20T13:21:43Z</time><name>PT8752</name></trkpt>
<trkpt lat="53.338752" lon="06.583713"><ele>3.9</ele><time>2021-05-20T13:21:44Z</time><name>PT8753</name></trkpt>
<trkpt lat="53.338739" lon="06.583716"><ele>4</ele><time>2021-05-20T13:21:45Z</time><name>PT8754</name></trkpt>
<trkpt lat="53.338726" lon="06.583718"><ele>4.1</ele><time>2021-05-20T13:21:46Z</time><name>PT8755</name></trkpt>
<trkpt lat="53.338714" lon="06.583724"><ele>4</ele><time>2021-05-20T13:21:47Z</time><name>PT8756</name></trkpt>
<trkpt lat="53.338702" lon="06.583733"><ele>4.2</ele><time>2021-05-20T13:21:48Z</time><name>PT8757</name></trkpt>
<trkpt lat="53.338694" lon="06.583743"><ele>4.3</ele><time>2021-05-20T13:21:49Z</time><name>PT8758</name></trkpt>
<trkpt lat="53.338684" lon="06.583750"><ele>4.2</ele><time>2021-05-20T13:21:50Z</time><name>PT8759</name></trkpt>
<trkpt lat="53.338673" lon="06.583755"><ele>4</ele><time>2021-05-20T13:21:51Z</time><name>PT8760</name></trkpt>
<trkpt lat="53.338662" lon="06.583760"><ele>4</ele><time>2021-05-20T13:21:52Z</time><name>PT8761</name></trkpt>
<trkpt lat="53.338650" lon="06.583767"><ele>3.9</ele><time>2021-05-20T13:21:53Z</time><name>PT8762</name></trkpt>
<trkpt lat="53.338639" lon="06.583775"><ele>4</ele><time>2021-05-20T13:21:54Z</time><name>PT8763</name></trkpt>
<trkpt lat="53.338630" lon="06.583781"><ele>4.1</ele><time>2021-05-20T13:21:55Z</time><name>PT8764</name></trkpt>
<trkpt lat="53.338619" lon="06.583786"><ele>4.2</ele><time>2021-05-20T13:21:56Z</time><name>PT8765</name></trkpt>
<trkpt lat="53.338608" lon="06.583789"><ele>4</ele><time>2021-05-20T13:21:57Z</time><name>PT8766</name></trkpt>
<trkpt lat="53.338597" lon="06.583795"><ele>4</ele><time>2021-05-20T13:21:58Z</time><name>PT8767</name></trkpt>
<trkpt lat="53.338587" lon="06.583805"><ele>3.9</ele><time>2021-05-20T13:21:59Z</time><name>PT8768</name></trkpt>
<trkpt lat="53.338578" lon="06.583814"><ele>3.9</ele><time>2021-05-20T13:22:00Z</time><name>PT8769</name></trkpt>
<trkpt lat="53.338569" lon="06.583822"><ele>4</ele><time>2021-05-20T13:22:01Z</time><name>PT8770</name></trkpt>
<trkpt lat="53.338557" lon="06.583828"><ele>4.1</ele><time>2021-05-20T13:22:02Z</time><name>PT8771</name></trkpt>
<trkpt lat="53.338546" lon="06.583835"><ele>4.1</ele><time>2021-05-20T13:22:03Z</time><name>PT8772</name></trkpt>
<trkpt lat="53.338534" lon="06.583842"><ele>4.2</ele><time>2021-05-20T13:22:04Z</time><name>PT8773</name></trkpt>
<trkpt lat="53.338525" lon="06.583851"><ele>4</ele><time>2021-05-20T13:22:05Z</time><name>PT8774</name></trkpt>
<trkpt lat="53.338516" lon="06.583859"><ele>4.1</ele><time>2021-05-20T13:22:06Z</time><name>PT8775</name></trkpt>
<trkpt lat="53.338506" lon="06.583865"><ele>4</ele><time>2021-05-20T13:22:07Z</time><name>PT8776</name></trkpt>
<trkpt lat="53.338495" lon="06.583870"><ele>4</ele><time>2021-05-20T13:22:08Z</time><name>PT8777</name></trkpt>
<trkpt lat="53.338484" lon="06.583876"><ele>4</ele><time>2021-05-20T13:22:09Z</time><name>PT8778</name></trkpt>
<trkpt lat="53.338473" lon="06.583885"><ele>4</ele><time>2021-05-20T13:22:10Z</time><name>PT8779</name></trkpt>
<trkpt lat="53.338465" lon="06.583893"><ele>4.1</ele><time>2021-05-20T13:22:11Z</time><name>PT8780</name></trkpt>
<trkpt lat="53.338455" lon="06.583899"><ele>4.3</ele><time>2021-05-20T13:22:12Z</time><name>PT8781</name></trkpt>
<trkpt lat="53.338443" lon="06.583905"><ele>4.3</ele><time>2021-05-20T13:22:13Z</time><name>PT8782</name></trkpt>
<trkpt lat="53.338433" lon="06.583912"><ele>4.4</ele><time>2021-05-20T13:22:14Z</time><name>PT8783</name></trkpt>
<trkpt lat="53.338423" lon="06.583920"><ele>4.5</ele><time>2021-05-20T13:22:15Z</time><name>PT8784</name></trkpt>
<trkpt lat="53.338414" lon="06.583926"><ele>4.3</ele><time>2021-05-20T13:22:16Z</time><name>PT8785</name></trkpt>
<trkpt lat="53.338406" lon="06.583929"><ele>4.3</ele><time>2021-05-20T13:22:17Z</time><name>PT8786</name></trkpt>
<trkpt lat="53.338401" lon="06.583931"><ele>4.2</ele><time>2021-05-20T13:22:18Z</time><name>PT8787</name></trkpt>
<trkpt lat="53.338401" lon="06.583933"><ele>4.2</ele><time>2021-05-20T13:22:19Z</time><name>PT8788</name></trkpt>
<trkpt lat="53.338398" lon="06.583935"><ele>4.2</ele><time>2021-05-20T13:22:20Z</time><name>PT8789</name></trkpt>
<trkpt lat="53.338392" lon="06.583943"><ele>4.3</ele><time>2021-05-20T13:22:21Z</time><name>PT8790</name></trkpt>
<trkpt lat="53.338384" lon="06.583946"><ele>4.4</ele><time>2021-05-20T13:22:22Z</time><name>PT8791</name></trkpt>
<trkpt lat="53.338376" lon="06.583947"><ele>4.3</ele><time>2021-05-20T13:22:23Z</time><name>PT8792</name></trkpt>
<trkpt lat="53.338369" lon="06.583947"><ele>4.2</ele><time>2021-05-20T13:22:24Z</time><name>PT8793</name></trkpt>
<trkpt lat="53.338361" lon="06.583947"><ele>4</ele><time>2021-05-20T13:22:25Z</time><name>PT8794</name></trkpt>
<trkpt lat="53.338354" lon="06.583943"><ele>3.8</ele><time>2021-05-20T13:22:26Z</time><name>PT8795</name></trkpt>
<trkpt lat="53.338347" lon="06.583941"><ele>3.8</ele><time>2021-05-20T13:22:27Z</time><name>PT8796</name></trkpt>
<trkpt lat="53.338337" lon="06.583940"><ele>3.9</ele><time>2021-05-20T13:22:28Z</time><name>PT8797</name></trkpt>
<trkpt lat="53.338330" lon="06.583941"><ele>4</ele><time>2021-05-20T13:22:29Z</time><name>PT8798</name></trkpt>
<trkpt lat="53.338323" lon="06.583942"><ele>3.9</ele><time>2021-05-20T13:22:30Z</time><name>PT8799</name></trkpt>
<trkpt lat="53.338317" lon="06.583944"><ele>3.9</ele><time>2021-05-20T13:22:31Z</time><name>PT8800</name></trkpt>
<trkpt lat="53.338310" lon="06.583948"><ele>3.9</ele><time>2021-05-20T13:22:32Z</time><name>PT8801</name></trkpt>
<trkpt lat="53.338303" lon="06.583945"><ele>4</ele><time>2021-05-20T13:22:33Z</time><name>PT8802</name></trkpt>
<trkpt lat="53.338299" lon="06.583940"><ele>4</ele><time>2021-05-20T13:22:34Z</time><name>PT8803</name></trkpt>
<trkpt lat="53.338297" lon="06.583936"><ele>4.1</ele><time>2021-05-20T13:22:35Z</time><name>PT8804</name></trkpt>
<trkpt lat="53.338296" lon="06.583929"><ele>3.9</ele><time>2021-05-20T13:22:36Z</time><name>PT8805</name></trkpt>
<trkpt lat="53.338293" lon="06.583919"><ele>3.9</ele><time>2021-05-20T13:22:37Z</time><name>PT8806</name></trkpt>
<trkpt lat="53.338291" lon="06.583907"><ele>3.9</ele><time>2021-05-20T13:22:38Z</time><name>PT8807</name></trkpt>
<trkpt lat="53.338288" lon="06.583894"><ele>3.8</ele><time>2021-05-20T13:22:39Z</time><name>PT8808</name></trkpt>
<trkpt lat="53.338285" lon="06.583879"><ele>3.8</ele><time>2021-05-20T13:22:40Z</time><name>PT8809</name></trkpt>
<trkpt lat="53.338280" lon="06.583863"><ele>3.9</ele><time>2021-05-20T13:22:41Z</time><name>PT8810</name></trkpt>
<trkpt lat="53.338276" lon="06.583849"><ele>3.9</ele><time>2021-05-20T13:22:42Z</time><name>PT8811</name></trkpt>
<trkpt lat="53.338275" lon="06.583835"><ele>3.9</ele><time>2021-05-20T13:22:43Z</time><name>PT8812</name></trkpt>
<trkpt lat="53.338274" lon="06.583820"><ele>3.9</ele><time>2021-05-20T13:22:44Z</time><name>PT8813</name></trkpt>
<trkpt lat="53.338271" lon="06.583805"><ele>3.8</ele><time>2021-05-20T13:22:45Z</time><name>PT8814</name></trkpt>
<trkpt lat="53.338266" lon="06.583788"><ele>3.8</ele><time>2021-05-20T13:22:46Z</time><name>PT8815</name></trkpt>
<trkpt lat="53.338262" lon="06.583773"><ele>3.9</ele><time>2021-05-20T13:22:47Z</time><name>PT8816</name></trkpt>
<trkpt lat="53.338260" lon="06.583758"><ele>3.5</ele><time>2021-05-20T13:22:48Z</time><name>PT8817</name></trkpt>
<trkpt lat="53.338257" lon="06.583743"><ele>3.6</ele><time>2021-05-20T13:22:49Z</time><name>PT8818</name></trkpt>
<trkpt lat="53.338253" lon="06.583728"><ele>3.6</ele><time>2021-05-20T13:22:50Z</time><name>PT8819</name></trkpt>
<trkpt lat="53.338250" lon="06.583709"><ele>3.6</ele><time>2021-05-20T13:22:51Z</time><name>PT8820</name></trkpt>
<trkpt lat="53.338249" lon="06.583694"><ele>3.7</ele><time>2021-05-20T13:22:52Z</time><name>PT8821</name></trkpt>
<trkpt lat="53.338249" lon="06.583678"><ele>3.7</ele><time>2021-05-20T13:22:53Z</time><name>PT8822</name></trkpt>
<trkpt lat="53.338247" lon="06.583661"><ele>3.6</ele><time>2021-05-20T13:22:54Z</time><name>PT8823</name></trkpt>
<trkpt lat="53.338243" lon="06.583645"><ele>3.6</ele><time>2021-05-20T13:22:55Z</time><name>PT8824</name></trkpt>
<trkpt lat="53.338238" lon="06.583629"><ele>3.6</ele><time>2021-05-20T13:22:56Z</time><name>PT8825</name></trkpt>
<trkpt lat="53.338234" lon="06.583616"><ele>3.4</ele><time>2021-05-20T13:22:57Z</time><name>PT8826</name></trkpt>
<trkpt lat="53.338232" lon="06.583603"><ele>3.4</ele><time>2021-05-20T13:22:58Z</time><name>PT8827</name></trkpt>
<trkpt lat="53.338230" lon="06.583589"><ele>3.4</ele><time>2021-05-20T13:22:59Z</time><name>PT8828</name></trkpt>
<trkpt lat="53.338227" lon="06.583575"><ele>3.3</ele><time>2021-05-20T13:23:00Z</time><name>PT8829</name></trkpt>
<trkpt lat="53.338222" lon="06.583562"><ele>3.4</ele><time>2021-05-20T13:23:01Z</time><name>PT8830</name></trkpt>
<trkpt lat="53.338220" lon="06.583546"><ele>3.3</ele><time>2021-05-20T13:23:02Z</time><name>PT8831</name></trkpt>
<trkpt lat="53.338216" lon="06.583528"><ele>3.3</ele><time>2021-05-20T13:23:03Z</time><name>PT8832</name></trkpt>
<trkpt lat="53.338208" lon="06.583516"><ele>3.3</ele><time>2021-05-20T13:23:04Z</time><name>PT8833</name></trkpt>
<trkpt lat="53.338202" lon="06.583510"><ele>3.3</ele><time>2021-05-20T13:23:05Z</time><name>PT8834</name></trkpt>
<trkpt lat="53.338195" lon="06.583509"><ele>3.3</ele><time>2021-05-20T13:23:06Z</time><name>PT8835</name></trkpt>
<trkpt lat="53.338187" lon="06.583513"><ele>3.2</ele><time>2021-05-20T13:23:07Z</time><name>PT8836</name></trkpt>
<trkpt lat="53.338177" lon="06.583516"><ele>3.3</ele><time>2021-05-20T13:23:08Z</time><name>PT8837</name></trkpt>
<trkpt lat="53.338167" lon="06.583520"><ele>3.3</ele><time>2021-05-20T13:23:09Z</time><name>PT8838</name></trkpt>
<trkpt lat="53.338158" lon="06.583526"><ele>3.4</ele><time>2021-05-20T13:23:10Z</time><name>PT8839</name></trkpt>
<trkpt lat="53.338149" lon="06.583534"><ele>3.5</ele><time>2021-05-20T13:23:11Z</time><name>PT8840</name></trkpt>
<trkpt lat="53.338140" lon="06.583544"><ele>3.6</ele><time>2021-05-20T13:23:12Z</time><name>PT8841</name></trkpt>
<trkpt lat="53.338132" lon="06.583554"><ele>3.4</ele><time>2021-05-20T13:23:13Z</time><name>PT8842</name></trkpt>
<trkpt lat="53.338127" lon="06.583564"><ele>3.4</ele><time>2021-05-20T13:23:14Z</time><name>PT8843</name></trkpt>
<trkpt lat="53.338121" lon="06.583574"><ele>3.4</ele><time>2021-05-20T13:23:15Z</time><name>PT8844</name></trkpt>
<trkpt lat="53.338112" lon="06.583587"><ele>3.4</ele><time>2021-05-20T13:23:16Z</time><name>PT8845</name></trkpt>
<trkpt lat="53.338105" lon="06.583599"><ele>3.3</ele><time>2021-05-20T13:23:17Z</time><name>PT8846</name></trkpt>
<trkpt lat="53.338098" lon="06.583613"><ele>3.4</ele><time>2021-05-20T13:23:18Z</time><name>PT8847</name></trkpt>
<trkpt lat="53.338094" lon="06.583627"><ele>3.5</ele><time>2021-05-20T13:23:19Z</time><name>PT8848</name></trkpt>
<trkpt lat="53.338093" lon="06.583634"><ele>3.7</ele><time>2021-05-20T13:23:20Z</time><name>PT8849</name></trkpt>
<trkpt lat="53.338092" lon="06.583637"><ele>3.8</ele><time>2021-05-20T13:23:21Z</time><name>PT8850</name></trkpt>
<trkpt lat="53.338090" lon="06.583637"><ele>3.8</ele><time>2021-05-20T13:23:22Z</time><name>PT8851</name></trkpt>
<trkpt lat="53.338088" lon="06.583636"><ele>3.7</ele><time>2021-05-20T13:23:23Z</time><name>PT8852</name></trkpt>
<trkpt lat="53.338089" lon="06.583636"><ele>3.8</ele><time>2021-05-20T13:23:24Z</time><name>PT8853</name></trkpt>
<trkpt lat="53.338085" lon="06.583639"><ele>3.8</ele><time>2021-05-20T13:23:25Z</time><name>PT8854</name></trkpt>
<trkpt lat="53.338083" lon="06.583647"><ele>3.8</ele><time>2021-05-20T13:23:26Z</time><name>PT8855</name></trkpt>
<trkpt lat="53.338082" lon="06.583652"><ele>3.9</ele><time>2021-05-20T13:23:27Z</time><name>PT8856</name></trkpt>
<trkpt lat="53.338083" lon="06.583659"><ele>3.8</ele><time>2021-05-20T13:23:28Z</time><name>PT8857</name></trkpt>
<trkpt lat="53.338080" lon="06.583665"><ele>3.5</ele><time>2021-05-20T13:23:29Z</time><name>PT8858</name></trkpt>
<trkpt lat="53.338078" lon="06.583671"><ele>3.5</ele><time>2021-05-20T13:23:30Z</time><name>PT8859</name></trkpt>
<trkpt lat="53.338077" lon="06.583675"><ele>3.5</ele><time>2021-05-20T13:23:31Z</time><name>PT8860</name></trkpt>
<trkpt lat="53.338075" lon="06.583679"><ele>3.5</ele><time>2021-05-20T13:23:32Z</time><name>PT8861</name></trkpt>
<trkpt lat="53.338075" lon="06.583681"><ele>3.7</ele><time>2021-05-20T13:23:35Z</time><name>PT8862</name></trkpt>
<trkpt lat="53.338075" lon="06.583680"><ele>3.7</ele><time>2021-05-20T13:23:36Z</time><name>PT8863</name></trkpt>
<trkpt lat="53.338076" lon="06.583677"><ele>4.2</ele><time>2021-05-20T13:23:42Z</time><name>PT8864</name></trkpt>
<trkpt lat="53.338080" lon="06.583675"><ele>4</ele><time>2021-05-20T13:23:43Z</time><name>PT8865</name></trkpt>
<trkpt lat="53.338083" lon="06.583673"><ele>3.8</ele><time>2021-05-20T13:23:44Z</time><name>PT8866</name></trkpt>
<trkpt lat="53.338082" lon="06.583671"><ele>3.9</ele><time>2021-05-20T13:23:45Z</time><name>PT8867</name></trkpt>
<trkpt lat="53.338078" lon="06.583673"><ele>3.7</ele><time>2021-05-20T13:23:46Z</time><name>PT8868</name></trkpt>
<trkpt lat="53.338073" lon="06.583678"><ele>3.7</ele><time>2021-05-20T13:23:47Z</time><name>PT8869</name></trkpt>
<trkpt lat="53.338073" lon="06.583683"><ele>3.4</ele><time>2021-05-20T13:23:48Z</time><name>PT8870</name></trkpt>
<trkpt lat="53.338070" lon="06.583689"><ele>3.4</ele><time>2021-05-20T13:23:49Z</time><name>PT8871</name></trkpt>
<trkpt lat="53.338067" lon="06.583697"><ele>3.4</ele><time>2021-05-20T13:23:50Z</time><name>PT8872</name></trkpt>
<trkpt lat="53.338062" lon="06.583706"><ele>3.7</ele><time>2021-05-20T13:23:51Z</time><name>PT8873</name></trkpt>
<trkpt lat="53.338057" lon="06.583713"><ele>3.9</ele><time>2021-05-20T13:23:52Z</time><name>PT8874</name></trkpt>
<trkpt lat="53.338053" lon="06.583721"><ele>4.1</ele><time>2021-05-20T13:23:53Z</time><name>PT8875</name></trkpt>
<trkpt lat="53.338052" lon="06.583719"><ele>4</ele><time>2021-05-20T13:23:54Z</time><name>PT8876</name></trkpt>
<trkpt lat="53.338050" lon="06.583720"><ele>3.9</ele><time>2021-05-20T13:23:55Z</time><name>PT8877</name></trkpt>
<trkpt lat="53.338050" lon="06.583726"><ele>3.8</ele><time>2021-05-20T13:23:56Z</time><name>PT8878</name></trkpt>
<trkpt lat="53.338049" lon="06.583734"><ele>3.8</ele><time>2021-05-20T13:23:57Z</time><name>PT8879</name></trkpt>
<trkpt lat="53.338045" lon="06.583743"><ele>3.9</ele><time>2021-05-20T13:23:58Z</time><name>PT8880</name></trkpt>
<trkpt lat="53.338039" lon="06.583751"><ele>3.9</ele><time>2021-05-20T13:23:59Z</time><name>PT8881</name></trkpt>
<trkpt lat="53.338032" lon="06.583760"><ele>3.9</ele><time>2021-05-20T13:24:00Z</time><name>PT8882</name></trkpt>
<trkpt lat="53.338027" lon="06.583771"><ele>4.1</ele><time>2021-05-20T13:24:01Z</time><name>PT8883</name></trkpt>
<trkpt lat="53.338021" lon="06.583781"><ele>4</ele><time>2021-05-20T13:24:02Z</time><name>PT8884</name></trkpt>
<trkpt lat="53.338014" lon="06.583793"><ele>3.9</ele><time>2021-05-20T13:24:03Z</time><name>PT8885</name></trkpt>
<trkpt lat="53.338008" lon="06.583806"><ele>3.9</ele><time>2021-05-20T13:24:04Z</time><name>PT8886</name></trkpt>
<trkpt lat="53.338002" lon="06.583818"><ele>3.9</ele><time>2021-05-20T13:24:05Z</time><name>PT8887</name></trkpt>
<trkpt lat="53.337995" lon="06.583832"><ele>3.9</ele><time>2021-05-20T13:24:06Z</time><name>PT8888</name></trkpt>
<trkpt lat="53.337989" lon="06.583843"><ele>3.8</ele><time>2021-05-20T13:24:07Z</time><name>PT8889</name></trkpt>
<trkpt lat="53.337983" lon="06.583851"><ele>3.5</ele><time>2021-05-20T13:24:08Z</time><name>PT8890</name></trkpt>
<trkpt lat="53.337975" lon="06.583860"><ele>3.6</ele><time>2021-05-20T13:24:09Z</time><name>PT8891</name></trkpt>
<trkpt lat="53.337967" lon="06.583872"><ele>3.7</ele><time>2021-05-20T13:24:10Z</time><name>PT8892</name></trkpt>
<trkpt lat="53.337957" lon="06.583882"><ele>3.5</ele><time>2021-05-20T13:24:11Z</time><name>PT8893</name></trkpt>
<trkpt lat="53.337948" lon="06.583895"><ele>3.6</ele><time>2021-05-20T13:24:12Z</time><name>PT8894</name></trkpt>
<trkpt lat="53.337942" lon="06.583909"><ele>3.8</ele><time>2021-05-20T13:24:13Z</time><name>PT8895</name></trkpt>
<trkpt lat="53.337936" lon="06.583918"><ele>3.7</ele><time>2021-05-20T13:24:14Z</time><name>PT8896</name></trkpt>
<trkpt lat="53.337931" lon="06.583927"><ele>3.9</ele><time>2021-05-20T13:24:15Z</time><name>PT8897</name></trkpt>
<trkpt lat="53.337923" lon="06.583938"><ele>3.9</ele><time>2021-05-20T13:24:16Z</time><name>PT8898</name></trkpt>
<trkpt lat="53.337916" lon="06.583948"><ele>3.9</ele><time>2021-05-20T13:24:17Z</time><name>PT8899</name></trkpt>
<trkpt lat="53.337911" lon="06.583957"><ele>3.9</ele><time>2021-05-20T13:24:18Z</time><name>PT8900</name></trkpt>
<trkpt lat="53.337906" lon="06.583965"><ele>3.9</ele><time>2021-05-20T13:24:19Z</time><name>PT8901</name></trkpt>
<trkpt lat="53.337902" lon="06.583965"><ele>3.9</ele><time>2021-05-20T13:24:20Z</time><name>PT8902</name></trkpt>
<trkpt lat="53.337902" lon="06.583966"><ele>3.9</ele><time>2021-05-20T13:24:21Z</time><name>PT8903</name></trkpt>
<trkpt lat="53.337901" lon="06.583966"><ele>4</ele><time>2021-05-20T13:24:22Z</time><name>PT8904</name></trkpt>
<trkpt lat="53.337901" lon="06.583967"><ele>4.1</ele><time>2021-05-20T13:24:23Z</time><name>PT8905</name></trkpt>
<trkpt lat="53.337899" lon="06.583973"><ele>4.3</ele><time>2021-05-20T13:24:26Z</time><name>PT8906</name></trkpt>
<trkpt lat="53.337893" lon="06.583976"><ele>4.3</ele><time>2021-05-20T13:24:27Z</time><name>PT8907</name></trkpt>
<trkpt lat="53.337887" lon="06.583981"><ele>4.3</ele><time>2021-05-20T13:24:28Z</time><name>PT8908</name></trkpt>
<trkpt lat="53.337880" lon="06.583989"><ele>4.3</ele><time>2021-05-20T13:24:29Z</time><name>PT8909</name></trkpt>
<trkpt lat="53.337873" lon="06.583998"><ele>4.3</ele><time>2021-05-20T13:24:30Z</time><name>PT8910</name></trkpt>
<trkpt lat="53.337867" lon="06.584012"><ele>4.3</ele><time>2021-05-20T13:24:31Z</time><name>PT8911</name></trkpt>
<trkpt lat="53.337859" lon="06.584025"><ele>4.2</ele><time>2021-05-20T13:24:32Z</time><name>PT8912</name></trkpt>
<trkpt lat="53.337853" lon="06.584039"><ele>4</ele><time>2021-05-20T13:24:33Z</time><name>PT8913</name></trkpt>
<trkpt lat="53.337849" lon="06.584047"><ele>4</ele><time>2021-05-20T13:24:34Z</time><name>PT8914</name></trkpt>
<trkpt lat="53.337843" lon="06.584054"><ele>3.8</ele><time>2021-05-20T13:24:35Z</time><name>PT8915</name></trkpt>
<trkpt lat="53.337834" lon="06.584063"><ele>3.6</ele><time>2021-05-20T13:24:36Z</time><name>PT8916</name></trkpt>
<trkpt lat="53.337824" lon="06.584077"><ele>3.5</ele><time>2021-05-20T13:24:37Z</time><name>PT8917</name></trkpt>
<trkpt lat="53.337814" lon="06.584091"><ele>3.5</ele><time>2021-05-20T13:24:38Z</time><name>PT8918</name></trkpt>
<trkpt lat="53.337807" lon="06.584101"><ele>3.6</ele><time>2021-05-20T13:24:39Z</time><name>PT8919</name></trkpt>
<trkpt lat="53.337804" lon="06.584111"><ele>3.6</ele><time>2021-05-20T13:24:40Z</time><name>PT8920</name></trkpt>
<trkpt lat="53.337800" lon="06.584118"><ele>3.6</ele><time>2021-05-20T13:24:41Z</time><name>PT8921</name></trkpt>
<trkpt lat="53.337790" lon="06.584125"><ele>3.5</ele><time>2021-05-20T13:24:42Z</time><name>PT8922</name></trkpt>
<trkpt lat="53.337776" lon="06.584134"><ele>3.6</ele><time>2021-05-20T13:24:43Z</time><name>PT8923</name></trkpt>
<trkpt lat="53.337763" lon="06.584148"><ele>3.5</ele><time>2021-05-20T13:24:44Z</time><name>PT8924</name></trkpt>
<trkpt lat="53.337754" lon="06.584163"><ele>3.7</ele><time>2021-05-20T13:24:45Z</time><name>PT8925</name></trkpt>
<trkpt lat="53.337747" lon="06.584173"><ele>3.7</ele><time>2021-05-20T13:24:46Z</time><name>PT8926</name></trkpt>
<trkpt lat="53.337740" lon="06.584180"><ele>3.6</ele><time>2021-05-20T13:24:47Z</time><name>PT8927</name></trkpt>
<trkpt lat="53.337731" lon="06.584185"><ele>3.6</ele><time>2021-05-20T13:24:48Z</time><name>PT8928</name></trkpt>
<trkpt lat="53.337719" lon="06.584193"><ele>3.7</ele><time>2021-05-20T13:24:49Z</time><name>PT8929</name></trkpt>
<trkpt lat="53.337713" lon="06.584198"><ele>3.8</ele><time>2021-05-20T13:24:50Z</time><name>PT8930</name></trkpt>
<trkpt lat="53.337708" lon="06.584200"><ele>3.7</ele><time>2021-05-20T13:24:51Z</time><name>PT8931</name></trkpt>
<trkpt lat="53.337702" lon="06.584206"><ele>3.8</ele><time>2021-05-20T13:24:52Z</time><name>PT8932</name></trkpt>
<trkpt lat="53.337695" lon="06.584213"><ele>3.9</ele><time>2021-05-20T13:24:53Z</time><name>PT8933</name></trkpt>
<trkpt lat="53.337688" lon="06.584223"><ele>3.9</ele><time>2021-05-20T13:24:54Z</time><name>PT8934</name></trkpt>
<trkpt lat="53.337681" lon="06.584233"><ele>3.9</ele><time>2021-05-20T13:24:55Z</time><name>PT8935</name></trkpt>
<trkpt lat="53.337673" lon="06.584242"><ele>3.9</ele><time>2021-05-20T13:24:56Z</time><name>PT8936</name></trkpt>
<trkpt lat="53.337660" lon="06.584256"><ele>3.6</ele><time>2021-05-20T13:24:57Z</time><name>PT8937</name></trkpt>
<trkpt lat="53.337647" lon="06.584269"><ele>3.5</ele><time>2021-05-20T13:24:58Z</time><name>PT8938</name></trkpt>
<trkpt lat="53.337634" lon="06.584283"><ele>3.4</ele><time>2021-05-20T13:24:59Z</time><name>PT8939</name></trkpt>
<trkpt lat="53.337624" lon="06.584297"><ele>3.6</ele><time>2021-05-20T13:25:00Z</time><name>PT8940</name></trkpt>
<trkpt lat="53.337616" lon="06.584306"><ele>3.7</ele><time>2021-05-20T13:25:01Z</time><name>PT8941</name></trkpt>
<trkpt lat="53.337609" lon="06.584313"><ele>3.9</ele><time>2021-05-20T13:25:02Z</time><name>PT8942</name></trkpt>
<trkpt lat="53.337601" lon="06.584324"><ele>4</ele><time>2021-05-20T13:25:03Z</time><name>PT8943</name></trkpt>
<trkpt lat="53.337592" lon="06.584334"><ele>3.9</ele><time>2021-05-20T13:25:04Z</time><name>PT8944</name></trkpt>
<trkpt lat="53.337581" lon="06.584343"><ele>3.9</ele><time>2021-05-20T13:25:05Z</time><name>PT8945</name></trkpt>
<trkpt lat="53.337571" lon="06.584352"><ele>3.8</ele><time>2021-05-20T13:25:06Z</time><name>PT8946</name></trkpt>
<trkpt lat="53.337562" lon="06.584363"><ele>3.8</ele><time>2021-05-20T13:25:07Z</time><name>PT8947</name></trkpt>
<trkpt lat="53.337550" lon="06.584374"><ele>3.8</ele><time>2021-05-20T13:25:08Z</time><name>PT8948</name></trkpt>
<trkpt lat="53.337537" lon="06.584386"><ele>3.9</ele><time>2021-05-20T13:25:09Z</time><name>PT8949</name></trkpt>
<trkpt lat="53.337526" lon="06.584397"><ele>3.9</ele><time>2021-05-20T13:25:10Z</time><name>PT8950</name></trkpt>
<trkpt lat="53.337517" lon="06.584405"><ele>3.9</ele><time>2021-05-20T13:25:11Z</time><name>PT8951</name></trkpt>
<trkpt lat="53.337510" lon="06.584418"><ele>4</ele><time>2021-05-20T13:25:12Z</time><name>PT8952</name></trkpt>
<trkpt lat="53.337501" lon="06.584430"><ele>4</ele><time>2021-05-20T13:25:13Z</time><name>PT8953</name></trkpt>
<trkpt lat="53.337493" lon="06.584438"><ele>3.9</ele><time>2021-05-20T13:25:14Z</time><name>PT8954</name></trkpt>
<trkpt lat="53.337485" lon="06.584447"><ele>3.9</ele><time>2021-05-20T13:25:15Z</time><name>PT8955</name></trkpt>
<trkpt lat="53.337474" lon="06.584457"><ele>3.9</ele><time>2021-05-20T13:25:16Z</time><name>PT8956</name></trkpt>
<trkpt lat="53.337465" lon="06.584468"><ele>3.9</ele><time>2021-05-20T13:25:17Z</time><name>PT8957</name></trkpt>
<trkpt lat="53.337459" lon="06.584478"><ele>4</ele><time>2021-05-20T13:25:18Z</time><name>PT8958</name></trkpt>
<trkpt lat="53.337454" lon="06.584481"><ele>4.1</ele><time>2021-05-20T13:25:19Z</time><name>PT8959</name></trkpt>
<trkpt lat="53.337446" lon="06.584484"><ele>4.1</ele><time>2021-05-20T13:25:20Z</time><name>PT8960</name></trkpt>
<trkpt lat="53.337431" lon="06.584491"><ele>4</ele><time>2021-05-20T13:25:21Z</time><name>PT8961</name></trkpt>
<trkpt lat="53.337415" lon="06.584501"><ele>3.9</ele><time>2021-05-20T13:25:22Z</time><name>PT8962</name></trkpt>
<trkpt lat="53.337406" lon="06.584510"><ele>3.9</ele><time>2021-05-20T13:25:23Z</time><name>PT8963</name></trkpt>
<trkpt lat="53.337400" lon="06.584519"><ele>3.9</ele><time>2021-05-20T13:25:24Z</time><name>PT8964</name></trkpt>
<trkpt lat="53.337395" lon="06.584528"><ele>3.9</ele><time>2021-05-20T13:25:25Z</time><name>PT8965</name></trkpt>
<trkpt lat="53.337389" lon="06.584536"><ele>3.9</ele><time>2021-05-20T13:25:26Z</time><name>PT8966</name></trkpt>
<trkpt lat="53.337380" lon="06.584543"><ele>3.8</ele><time>2021-05-20T13:25:27Z</time><name>PT8967</name></trkpt>
<trkpt lat="53.337369" lon="06.584549"><ele>3.7</ele><time>2021-05-20T13:25:28Z</time><name>PT8968</name></trkpt>
<trkpt lat="53.337358" lon="06.584553"><ele>3.7</ele><time>2021-05-20T13:25:29Z</time><name>PT8969</name></trkpt>
<trkpt lat="53.337349" lon="06.584559"><ele>3.6</ele><time>2021-05-20T13:25:30Z</time><name>PT8970</name></trkpt>
<trkpt lat="53.337342" lon="06.584566"><ele>3.7</ele><time>2021-05-20T13:25:31Z</time><name>PT8971</name></trkpt>
<trkpt lat="53.337336" lon="06.584574"><ele>4</ele><time>2021-05-20T13:25:32Z</time><name>PT8972</name></trkpt>
<trkpt lat="53.337331" lon="06.584582"><ele>4.1</ele><time>2021-05-20T13:25:33Z</time><name>PT8973</name></trkpt>
<trkpt lat="53.337324" lon="06.584587"><ele>4.1</ele><time>2021-05-20T13:25:34Z</time><name>PT8974</name></trkpt>
<trkpt lat="53.337316" lon="06.584591"><ele>3.9</ele><time>2021-05-20T13:25:35Z</time><name>PT8975</name></trkpt>
<trkpt lat="53.337313" lon="06.584592"><ele>3.4</ele><time>2021-05-20T13:25:36Z</time><name>PT8976</name></trkpt>
<trkpt lat="53.337311" lon="06.584593"><ele>3.4</ele><time>2021-05-20T13:25:37Z</time><name>PT8977</name></trkpt>
<trkpt lat="53.337310" lon="06.584595"><ele>3.5</ele><time>2021-05-20T13:25:38Z</time><name>PT8978</name></trkpt>
<trkpt lat="53.337304" lon="06.584590"><ele>3.9</ele><time>2021-05-20T13:25:42Z</time><name>PT8979</name></trkpt>
<trkpt lat="53.337298" lon="06.584592"><ele>3.9</ele><time>2021-05-20T13:25:43Z</time><name>PT8980</name></trkpt>
<trkpt lat="53.337292" lon="06.584602"><ele>3.9</ele><time>2021-05-20T13:25:44Z</time><name>PT8981</name></trkpt>
<trkpt lat="53.337284" lon="06.584616"><ele>3.8</ele><time>2021-05-20T13:25:45Z</time><name>PT8982</name></trkpt>
<trkpt lat="53.337276" lon="06.584623"><ele>3.6</ele><time>2021-05-20T13:25:46Z</time><name>PT8983</name></trkpt>
<trkpt lat="53.337274" lon="06.584624"><ele>3.6</ele><time>2021-05-20T13:25:47Z</time><name>PT8984</name></trkpt>
<trkpt lat="53.337274" lon="06.584626"><ele>3.6</ele><time>2021-05-20T13:25:48Z</time><name>PT8985</name></trkpt>
<trkpt lat="53.337274" lon="06.584625"><ele>3.5</ele><time>2021-05-20T13:25:49Z</time><name>PT8986</name></trkpt>
<trkpt lat="53.337270" lon="06.584632"><ele>3.8</ele><time>2021-05-20T13:25:50Z</time><name>PT8987</name></trkpt>
<trkpt lat="53.337269" lon="06.584636"><ele>3.6</ele><time>2021-05-20T13:25:51Z</time><name>PT8988</name></trkpt>
<trkpt lat="53.337269" lon="06.584639"><ele>3.7</ele><time>2021-05-20T13:25:52Z</time><name>PT8989</name></trkpt>
<trkpt lat="53.337270" lon="06.584645"><ele>3.7</ele><time>2021-05-20T13:25:53Z</time><name>PT8990</name></trkpt>
<trkpt lat="53.337267" lon="06.584640"><ele>3.9</ele><time>2021-05-20T13:25:56Z</time><name>PT8991</name></trkpt>
<trkpt lat="53.337259" lon="06.584646"><ele>4</ele><time>2021-05-20T13:25:57Z</time><name>PT8992</name></trkpt>
<trkpt lat="53.337253" lon="06.584651"><ele>3.9</ele><time>2021-05-20T13:25:58Z</time><name>PT8993</name></trkpt>
<trkpt lat="53.337249" lon="06.584656"><ele>4</ele><time>2021-05-20T13:25:59Z</time><name>PT8994</name></trkpt>
<trkpt lat="53.337245" lon="06.584666"><ele>4.1</ele><time>2021-05-20T13:26:00Z</time><name>PT8995</name></trkpt>
<trkpt lat="53.337240" lon="06.584672"><ele>4.1</ele><time>2021-05-20T13:26:01Z</time><name>PT8996</name></trkpt>
<trkpt lat="53.337239" lon="06.584679"><ele>4.1</ele><time>2021-05-20T13:26:02Z</time><name>PT8997</name></trkpt>
<trkpt lat="53.337236" lon="06.584688"><ele>4.1</ele><time>2021-05-20T13:26:03Z</time><name>PT8998</name></trkpt>
<trkpt lat="53.337232" lon="06.584685"><ele>3.9</ele><time>2021-05-20T13:26:04Z</time><name>PT8999</name></trkpt>
<trkpt lat="53.337227" lon="06.584693"><ele>3.9</ele><time>2021-05-20T13:26:05Z</time><name>PT9000</name></trkpt>
<trkpt lat="53.337221" lon="06.584697"><ele>3.9</ele><time>2021-05-20T13:26:06Z</time><name>PT9001</name></trkpt>
<trkpt lat="53.337225" lon="06.584713"><ele>3.8</ele><time>2021-05-20T13:26:08Z</time><name>PT9002</name></trkpt>
<trkpt lat="53.337225" lon="06.584730"><ele>3.8</ele><time>2021-05-20T13:26:09Z</time><name>PT9003</name></trkpt>
<trkpt lat="53.337228" lon="06.584743"><ele>3.7</ele><time>2021-05-20T13:26:10Z</time><name>PT9004</name></trkpt>
<trkpt lat="53.337234" lon="06.584753"><ele>3.5</ele><time>2021-05-20T13:26:11Z</time><name>PT9005</name></trkpt>
<trkpt lat="53.337243" lon="06.584761"><ele>3.4</ele><time>2021-05-20T13:26:12Z</time><name>PT9006</name></trkpt>
<trkpt lat="53.337244" lon="06.584768"><ele>3.4</ele><time>2021-05-20T13:26:13Z</time><name>PT9007</name></trkpt>
<trkpt lat="53.337248" lon="06.584780"><ele>3.5</ele><time>2021-05-20T13:26:14Z</time><name>PT9008</name></trkpt>
<trkpt lat="53.337252" lon="06.584790"><ele>3.6</ele><time>2021-05-20T13:26:15Z</time><name>PT9009</name></trkpt>
<trkpt lat="53.337255" lon="06.584796"><ele>3.7</ele><time>2021-05-20T13:26:16Z</time><name>PT9010</name></trkpt>
<trkpt lat="53.337255" lon="06.584806"><ele>3.7</ele><time>2021-05-20T13:26:17Z</time><name>PT9011</name></trkpt>
<trkpt lat="53.337263" lon="06.584818"><ele>3.8</ele><time>2021-05-20T13:26:18Z</time><name>PT9012</name></trkpt>
<trkpt lat="53.337269" lon="06.584827"><ele>3.9</ele><time>2021-05-20T13:26:19Z</time><name>PT9013</name></trkpt>
<trkpt lat="53.337272" lon="06.584834"><ele>4.1</ele><time>2021-05-20T13:26:20Z</time><name>PT9014</name></trkpt>
<trkpt lat="53.337277" lon="06.584843"><ele>4.1</ele><time>2021-05-20T13:26:21Z</time><name>PT9015</name></trkpt>
<trkpt lat="53.337285" lon="06.584855"><ele>4</ele><time>2021-05-20T13:26:22Z</time><name>PT9016</name></trkpt>
<trkpt lat="53.337290" lon="06.584876"><ele>4.2</ele><time>2021-05-20T13:26:23Z</time><name>PT9017</name></trkpt>
<trkpt lat="53.337293" lon="06.584886"><ele>4.1</ele><time>2021-05-20T13:26:24Z</time><name>PT9018</name></trkpt>
<trkpt lat="53.337295" lon="06.584895"><ele>4.2</ele><time>2021-05-20T13:26:25Z</time><name>PT9019</name></trkpt>
<trkpt lat="53.337297" lon="06.584905"><ele>4.1</ele><time>2021-05-20T13:26:26Z</time><name>PT9020</name></trkpt>
<trkpt lat="53.337298" lon="06.584916"><ele>4.1</ele><time>2021-05-20T13:26:27Z</time><name>PT9021</name></trkpt>
<trkpt lat="53.337305" lon="06.584931"><ele>4.1</ele><time>2021-05-20T13:26:28Z</time><name>PT9022</name></trkpt>
<trkpt lat="53.337312" lon="06.584944"><ele>4</ele><time>2021-05-20T13:26:29Z</time><name>PT9023</name></trkpt>
<trkpt lat="53.337317" lon="06.584951"><ele>3.9</ele><time>2021-05-20T13:26:30Z</time><name>PT9024</name></trkpt>
<trkpt lat="53.337323" lon="06.584955"><ele>3.9</ele><time>2021-05-20T13:26:31Z</time><name>PT9025</name></trkpt>
<trkpt lat="53.337327" lon="06.584967"><ele>3.9</ele><time>2021-05-20T13:26:32Z</time><name>PT9026</name></trkpt>
<trkpt lat="53.337336" lon="06.584981"><ele>4.1</ele><time>2021-05-20T13:26:33Z</time><name>PT9027</name></trkpt>
<trkpt lat="53.337347" lon="06.584998"><ele>4.2</ele><time>2021-05-20T13:26:34Z</time><name>PT9028</name></trkpt>
<trkpt lat="53.337354" lon="06.585010"><ele>4.3</ele><time>2021-05-20T13:26:35Z</time><name>PT9029</name></trkpt>
<trkpt lat="53.337363" lon="06.585017"><ele>4.3</ele><time>2021-05-20T13:26:36Z</time><name>PT9030</name></trkpt>
<trkpt lat="53.337365" lon="06.585023"><ele>4.3</ele><time>2021-05-20T13:26:37Z</time><name>PT9031</name></trkpt>
<trkpt lat="53.337369" lon="06.585025"><ele>4.1</ele><time>2021-05-20T13:26:38Z</time><name>PT9032</name></trkpt>
<trkpt lat="53.337372" lon="06.585030"><ele>4</ele><time>2021-05-20T13:26:39Z</time><name>PT9033</name></trkpt>
<trkpt lat="53.337374" lon="06.585034"><ele>4</ele><time>2021-05-20T13:26:40Z</time><name>PT9034</name></trkpt>
<trkpt lat="53.337375" lon="06.585043"><ele>4</ele><time>2021-05-20T13:26:41Z</time><name>PT9035</name></trkpt>
<trkpt lat="53.337377" lon="06.585056"><ele>4</ele><time>2021-05-20T13:26:42Z</time><name>PT9036</name></trkpt>
<trkpt lat="53.337378" lon="06.585070"><ele>4</ele><time>2021-05-20T13:26:43Z</time><name>PT9037</name></trkpt>
<trkpt lat="53.337376" lon="06.585082"><ele>4</ele><time>2021-05-20T13:26:44Z</time><name>PT9038</name></trkpt>
<trkpt lat="53.337378" lon="06.585089"><ele>4.2</ele><time>2021-05-20T13:26:45Z</time><name>PT9039</name></trkpt>
<trkpt lat="53.337382" lon="06.585096"><ele>4</ele><time>2021-05-20T13:26:46Z</time><name>PT9040</name></trkpt>
<trkpt lat="53.337383" lon="06.585110"><ele>4</ele><time>2021-05-20T13:26:47Z</time><name>PT9041</name></trkpt>
<trkpt lat="53.337384" lon="06.585123"><ele>3.9</ele><time>2021-05-20T13:26:48Z</time><name>PT9042</name></trkpt>
<trkpt lat="53.337383" lon="06.585137"><ele>3.9</ele><time>2021-05-20T13:26:49Z</time><name>PT9043</name></trkpt>
<trkpt lat="53.337382" lon="06.585151"><ele>4</ele><time>2021-05-20T13:26:50Z</time><name>PT9044</name></trkpt>
<trkpt lat="53.337380" lon="06.585165"><ele>4.1</ele><time>2021-05-20T13:26:51Z</time><name>PT9045</name></trkpt>
<trkpt lat="53.337380" lon="06.585183"><ele>4.2</ele><time>2021-05-20T13:26:52Z</time><name>PT9046</name></trkpt>
<trkpt lat="53.337380" lon="06.585195"><ele>4.5</ele><time>2021-05-20T13:26:53Z</time><name>PT9047</name></trkpt>
<trkpt lat="53.337376" lon="06.585202"><ele>4.5</ele><time>2021-05-20T13:26:54Z</time><name>PT9048</name></trkpt>
<trkpt lat="53.337376" lon="06.585205"><ele>4.7</ele><time>2021-05-20T13:26:55Z</time><name>PT9049</name></trkpt>
<trkpt lat="53.337375" lon="06.585213"><ele>4.8</ele><time>2021-05-20T13:26:56Z</time><name>PT9050</name></trkpt>
<trkpt lat="53.337376" lon="06.585223"><ele>4.8</ele><time>2021-05-20T13:26:57Z</time><name>PT9051</name></trkpt>
<trkpt lat="53.337378" lon="06.585228"><ele>4.7</ele><time>2021-05-20T13:26:58Z</time><name>PT9052</name></trkpt>
<trkpt lat="53.337377" lon="06.585229"><ele>4.7</ele><time>2021-05-20T13:26:59Z</time><name>PT9053</name></trkpt>
<trkpt lat="53.337378" lon="06.585232"><ele>4.4</ele><time>2021-05-20T13:27:00Z</time><name>PT9054</name></trkpt>
<trkpt lat="53.337376" lon="06.585234"><ele>4.5</ele><time>2021-05-20T13:27:01Z</time><name>PT9055</name></trkpt>
<trkpt lat="53.337375" lon="06.585253"><ele>4.4</ele><time>2021-05-20T13:27:02Z</time><name>PT9056</name></trkpt>
<trkpt lat="53.337372" lon="06.585268"><ele>4.3</ele><time>2021-05-20T13:27:03Z</time><name>PT9057</name></trkpt>
<trkpt lat="53.337367" lon="06.585286"><ele>4.3</ele><time>2021-05-20T13:27:04Z</time><name>PT9058</name></trkpt>
<trkpt lat="53.337367" lon="06.585308"><ele>4.4</ele><time>2021-05-20T13:27:05Z</time><name>PT9059</name></trkpt>
<trkpt lat="53.337364" lon="06.585319"><ele>4.4</ele><time>2021-05-20T13:27:06Z</time><name>PT9060</name></trkpt>
<trkpt lat="53.337362" lon="06.585331"><ele>4.3</ele><time>2021-05-20T13:27:07Z</time><name>PT9061</name></trkpt>
<trkpt lat="53.337360" lon="06.585344"><ele>4.3</ele><time>2021-05-20T13:27:08Z</time><name>PT9062</name></trkpt>
<trkpt lat="53.337358" lon="06.585356"><ele>4.3</ele><time>2021-05-20T13:27:09Z</time><name>PT9063</name></trkpt>
<trkpt lat="53.337349" lon="06.585372"><ele>4.3</ele><time>2021-05-20T13:27:10Z</time><name>PT9064</name></trkpt>
<trkpt lat="53.337343" lon="06.585389"><ele>4.4</ele><time>2021-05-20T13:27:11Z</time><name>PT9065</name></trkpt>
<trkpt lat="53.337339" lon="06.585404"><ele>4.4</ele><time>2021-05-20T13:27:12Z</time><name>PT9066</name></trkpt>
<trkpt lat="53.337337" lon="06.585429"><ele>4.5</ele><time>2021-05-20T13:27:13Z</time><name>PT9067</name></trkpt>
<trkpt lat="53.337336" lon="06.585445"><ele>4.4</ele><time>2021-05-20T13:27:14Z</time><name>PT9068</name></trkpt>
<trkpt lat="53.337332" lon="06.585461"><ele>4.5</ele><time>2021-05-20T13:27:15Z</time><name>PT9069</name></trkpt>
<trkpt lat="53.337325" lon="06.585488"><ele>4.6</ele><time>2021-05-20T13:27:16Z</time><name>PT9070</name></trkpt>
<trkpt lat="53.337321" lon="06.585497"><ele>4.7</ele><time>2021-05-20T13:27:17Z</time><name>PT9071</name></trkpt>
<trkpt lat="53.337318" lon="06.585518"><ele>4.7</ele><time>2021-05-20T13:27:18Z</time><name>PT9072</name></trkpt>
<trkpt lat="53.337314" lon="06.585529"><ele>4.7</ele><time>2021-05-20T13:27:19Z</time><name>PT9073</name></trkpt>
<trkpt lat="53.337309" lon="06.585541"><ele>4.7</ele><time>2021-05-20T13:27:20Z</time><name>PT9074</name></trkpt>
<trkpt lat="53.337301" lon="06.585566"><ele>4.6</ele><time>2021-05-20T13:27:21Z</time><name>PT9075</name></trkpt>
<trkpt lat="53.337291" lon="06.585588"><ele>4.6</ele><time>2021-05-20T13:27:22Z</time><name>PT9076</name></trkpt>
<trkpt lat="53.337285" lon="06.585605"><ele>4.4</ele><time>2021-05-20T13:27:23Z</time><name>PT9077</name></trkpt>
<trkpt lat="53.337277" lon="06.585622"><ele>4.1</ele><time>2021-05-20T13:27:24Z</time><name>PT9078</name></trkpt>
<trkpt lat="53.337270" lon="06.585642"><ele>3.9</ele><time>2021-05-20T13:27:25Z</time><name>PT9079</name></trkpt>
<trkpt lat="53.337264" lon="06.585655"><ele>4</ele><time>2021-05-20T13:27:26Z</time><name>PT9080</name></trkpt>
<trkpt lat="53.337260" lon="06.585670"><ele>4.2</ele><time>2021-05-20T13:27:27Z</time><name>PT9081</name></trkpt>
<trkpt lat="53.337254" lon="06.585685"><ele>4.2</ele><time>2021-05-20T13:27:28Z</time><name>PT9082</name></trkpt>
<trkpt lat="53.337251" lon="06.585700"><ele>4.3</ele><time>2021-05-20T13:27:29Z</time><name>PT9083</name></trkpt>
<trkpt lat="53.337246" lon="06.585712"><ele>4.2</ele><time>2021-05-20T13:27:30Z</time><name>PT9084</name></trkpt>
<trkpt lat="53.337241" lon="06.585727"><ele>4.2</ele><time>2021-05-20T13:27:31Z</time><name>PT9085</name></trkpt>
<trkpt lat="53.337236" lon="06.585744"><ele>4.3</ele><time>2021-05-20T13:27:32Z</time><name>PT9086</name></trkpt>
<trkpt lat="53.337228" lon="06.585759"><ele>4.3</ele><time>2021-05-20T13:27:33Z</time><name>PT9087</name></trkpt>
<trkpt lat="53.337218" lon="06.585770"><ele>4.2</ele><time>2021-05-20T13:27:34Z</time><name>PT9088</name></trkpt>
<trkpt lat="53.337214" lon="06.585779"><ele>4.3</ele><time>2021-05-20T13:27:35Z</time><name>PT9089</name></trkpt>
<trkpt lat="53.337207" lon="06.585788"><ele>4.3</ele><time>2021-05-20T13:27:36Z</time><name>PT9090</name></trkpt>
<trkpt lat="53.337199" lon="06.585799"><ele>4.3</ele><time>2021-05-20T13:27:37Z</time><name>PT9091</name></trkpt>
<trkpt lat="53.337190" lon="06.585814"><ele>4.2</ele><time>2021-05-20T13:27:38Z</time><name>PT9092</name></trkpt>
<trkpt lat="53.337181" lon="06.585829"><ele>4.1</ele><time>2021-05-20T13:27:39Z</time><name>PT9093</name></trkpt>
<trkpt lat="53.337171" lon="06.585843"><ele>4</ele><time>2021-05-20T13:27:40Z</time><name>PT9094</name></trkpt>
<trkpt lat="53.337167" lon="06.585856"><ele>4.2</ele><time>2021-05-20T13:27:41Z</time><name>PT9095</name></trkpt>
<trkpt lat="53.337160" lon="06.585869"><ele>4.3</ele><time>2021-05-20T13:27:42Z</time><name>PT9096</name></trkpt>
<trkpt lat="53.337149" lon="06.585881"><ele>4.3</ele><time>2021-05-20T13:27:43Z</time><name>PT9097</name></trkpt>
<trkpt lat="53.337131" lon="06.585891"><ele>4.5</ele><time>2021-05-20T13:27:44Z</time><name>PT9098</name></trkpt>
<trkpt lat="53.337122" lon="06.585904"><ele>4.5</ele><time>2021-05-20T13:27:45Z</time><name>PT9099</name></trkpt>
<trkpt lat="53.337116" lon="06.585916"><ele>4.4</ele><time>2021-05-20T13:27:46Z</time><name>PT9100</name></trkpt>
<trkpt lat="53.337110" lon="06.585930"><ele>4.6</ele><time>2021-05-20T13:27:47Z</time><name>PT9101</name></trkpt>
<trkpt lat="53.337105" lon="06.585941"><ele>4.5</ele><time>2021-05-20T13:27:48Z</time><name>PT9102</name></trkpt>
<trkpt lat="53.337099" lon="06.585951"><ele>4.6</ele><time>2021-05-20T13:27:49Z</time><name>PT9103</name></trkpt>
<trkpt lat="53.337098" lon="06.585960"><ele>4.5</ele><time>2021-05-20T13:27:50Z</time><name>PT9104</name></trkpt>
<trkpt lat="53.337096" lon="06.585966"><ele>4.6</ele><time>2021-05-20T13:27:51Z</time><name>PT9105</name></trkpt>
<trkpt lat="53.337095" lon="06.585969"><ele>4.5</ele><time>2021-05-20T13:27:52Z</time><name>PT9106</name></trkpt>
<trkpt lat="53.337092" lon="06.585971"><ele>4.6</ele><time>2021-05-20T13:27:53Z</time><name>PT9107</name></trkpt>
<trkpt lat="53.337089" lon="06.585972"><ele>4.4</ele><time>2021-05-20T13:27:54Z</time><name>PT9108</name></trkpt>
<trkpt lat="53.337084" lon="06.585978"><ele>4.3</ele><time>2021-05-20T13:27:55Z</time><name>PT9109</name></trkpt>
<trkpt lat="53.337078" lon="06.585989"><ele>4.3</ele><time>2021-05-20T13:27:56Z</time><name>PT9110</name></trkpt>
<trkpt lat="53.337073" lon="06.585994"><ele>4.2</ele><time>2021-05-20T13:27:57Z</time><name>PT9111</name></trkpt>
<trkpt lat="53.337063" lon="06.585997"><ele>4</ele><time>2021-05-20T13:27:58Z</time><name>PT9112</name></trkpt>
<trkpt lat="53.337060" lon="06.586005"><ele>3.9</ele><time>2021-05-20T13:27:59Z</time><name>PT9113</name></trkpt>
<trkpt lat="53.337056" lon="06.586010"><ele>4.1</ele><time>2021-05-20T13:28:00Z</time><name>PT9114</name></trkpt>
<trkpt lat="53.337057" lon="06.586012"><ele>4.1</ele><time>2021-05-20T13:28:01Z</time><name>PT9115</name></trkpt>
<trkpt lat="53.337056" lon="06.586014"><ele>4.1</ele><time>2021-05-20T13:28:02Z</time><name>PT9116</name></trkpt>
<trkpt lat="53.337056" lon="06.586017"><ele>3.9</ele><time>2021-05-20T13:28:03Z</time><name>PT9117</name></trkpt>
<trkpt lat="53.337051" lon="06.586021"><ele>3.9</ele><time>2021-05-20T13:28:04Z</time><name>PT9118</name></trkpt>
<trkpt lat="53.337048" lon="06.586026"><ele>3.9</ele><time>2021-05-20T13:28:05Z</time><name>PT9119</name></trkpt>
<trkpt lat="53.337046" lon="06.586033"><ele>3.9</ele><time>2021-05-20T13:28:06Z</time><name>PT9120</name></trkpt>
<trkpt lat="53.337048" lon="06.586035"><ele>3.9</ele><time>2021-05-20T13:28:07Z</time><name>PT9121</name></trkpt>
<trkpt lat="53.337048" lon="06.586036"><ele>4</ele><time>2021-05-20T13:28:08Z</time><name>PT9122</name></trkpt>
<trkpt lat="53.337046" lon="06.586037"><ele>3.9</ele><time>2021-05-20T13:28:09Z</time><name>PT9123</name></trkpt>
<trkpt lat="53.337047" lon="06.586037"><ele>3.9</ele><time>2021-05-20T13:28:10Z</time><name>PT9124</name></trkpt>
<trkpt lat="53.337047" lon="06.586034"><ele>4</ele><time>2021-05-20T13:28:11Z</time><name>PT9125</name></trkpt>
<trkpt lat="53.337048" lon="06.586035"><ele>4.2</ele><time>2021-05-20T13:28:12Z</time><name>PT9126</name></trkpt>
<trkpt lat="53.337047" lon="06.586036"><ele>4.3</ele><time>2021-05-20T13:28:13Z</time><name>PT9127</name></trkpt>
<trkpt lat="53.337046" lon="06.586034"><ele>4.3</ele><time>2021-05-20T13:28:14Z</time><name>PT9128</name></trkpt>
<trkpt lat="53.337045" lon="06.586033"><ele>4.3</ele><time>2021-05-20T13:28:15Z</time><name>PT9129</name></trkpt>
<trkpt lat="53.337043" lon="06.586036"><ele>4.2</ele><time>2021-05-20T13:28:16Z</time><name>PT9130</name></trkpt>
<trkpt lat="53.337043" lon="06.586031"><ele>4</ele><time>2021-05-20T13:28:21Z</time><name>PT9131</name></trkpt>
<trkpt lat="53.337043" lon="06.586026"><ele>3.9</ele><time>2021-05-20T13:28:22Z</time><name>PT9132</name></trkpt>
<trkpt lat="53.337043" lon="06.586028"><ele>3.9</ele><time>2021-05-20T13:28:23Z</time><name>PT9133</name></trkpt>
<trkpt lat="53.337043" lon="06.586030"><ele>4</ele><time>2021-05-20T13:28:24Z</time><name>PT9134</name></trkpt>
<trkpt lat="53.337040" lon="06.586030"><ele>3.9</ele><time>2021-05-20T13:28:25Z</time><name>PT9135</name></trkpt>
<trkpt lat="53.337040" lon="06.586026"><ele>4</ele><time>2021-05-20T13:28:26Z</time><name>PT9136</name></trkpt>
<trkpt lat="53.337038" lon="06.586026"><ele>3.9</ele><time>2021-05-20T13:28:27Z</time><name>PT9137</name></trkpt>
<trkpt lat="53.337038" lon="06.586026"><ele>3.9</ele><time>2021-05-20T13:28:28Z</time><name>PT9138</name></trkpt>
<trkpt lat="53.337037" lon="06.586022"><ele>3.8</ele><time>2021-05-20T13:28:29Z</time><name>PT9139</name></trkpt>
<trkpt lat="53.337035" lon="06.586031"><ele>4.1</ele><time>2021-05-20T13:28:42Z</time><name>PT9140</name></trkpt>
<trkpt lat="53.337034" lon="06.586036"><ele>4</ele><time>2021-05-20T13:28:43Z</time><name>PT9141</name></trkpt>
<trkpt lat="53.337033" lon="06.586041"><ele>3.9</ele><time>2021-05-20T13:28:44Z</time><name>PT9142</name></trkpt>
<trkpt lat="53.337028" lon="06.586051"><ele>4.3</ele><time>2021-05-20T13:28:45Z</time><name>PT9143</name></trkpt>
<trkpt lat="53.337026" lon="06.586060"><ele>4.3</ele><time>2021-05-20T13:28:46Z</time><name>PT9144</name></trkpt>
<trkpt lat="53.337025" lon="06.586065"><ele>4.3</ele><time>2021-05-20T13:28:47Z</time><name>PT9145</name></trkpt>
<trkpt lat="53.337024" lon="06.586066"><ele>4.2</ele><time>2021-05-20T13:28:48Z</time><name>PT9146</name></trkpt>
<trkpt lat="53.337022" lon="06.586065"><ele>4.1</ele><time>2021-05-20T13:28:49Z</time><name>PT9147</name></trkpt>
<trkpt lat="53.337022" lon="06.586067"><ele>3.9</ele><time>2021-05-20T13:28:50Z</time><name>PT9148</name></trkpt>
<trkpt lat="53.337021" lon="06.586072"><ele>3.9</ele><time>2021-05-20T13:28:51Z</time><name>PT9149</name></trkpt>
<trkpt lat="53.337023" lon="06.586077"><ele>3.9</ele><time>2021-05-20T13:28:52Z</time><name>PT9150</name></trkpt>
<trkpt lat="53.337023" lon="06.586083"><ele>4</ele><time>2021-05-20T13:28:53Z</time><name>PT9151</name></trkpt>
<trkpt lat="53.337022" lon="06.586083"><ele>4</ele><time>2021-05-20T13:28:54Z</time><name>PT9152</name></trkpt>
<trkpt lat="53.337019" lon="06.586087"><ele>4.3</ele><time>2021-05-20T13:29:43Z</time><name>PT9153</name></trkpt>
<trkpt lat="53.337017" lon="06.586084"><ele>4.2</ele><time>2021-05-20T13:29:44Z</time><name>PT9154</name></trkpt>
<trkpt lat="53.337021" lon="06.586073"><ele>4</ele><time>2021-05-20T13:29:45Z</time><name>PT9155</name></trkpt>
<trkpt lat="53.337024" lon="06.586067"><ele>4.1</ele><time>2021-05-20T13:29:46Z</time><name>PT9156</name></trkpt>
<trkpt lat="53.337025" lon="06.586061"><ele>4</ele><time>2021-05-20T13:29:47Z</time><name>PT9157</name></trkpt>
<trkpt lat="53.337026" lon="06.586058"><ele>3.9</ele><time>2021-05-20T13:29:48Z</time><name>PT9158</name></trkpt>
<trkpt lat="53.337027" lon="06.586053"><ele>4.1</ele><time>2021-05-20T13:29:49Z</time><name>PT9159</name></trkpt>
<trkpt lat="53.337028" lon="06.586052"><ele>4.2</ele><time>2021-05-20T13:29:50Z</time><name>PT9160</name></trkpt>
<trkpt lat="53.337029" lon="06.586049"><ele>4.2</ele><time>2021-05-20T13:29:51Z</time><name>PT9161</name></trkpt>
<trkpt lat="53.337029" lon="06.586048"><ele>4.3</ele><time>2021-05-20T13:29:52Z</time><name>PT9162</name></trkpt>
<trkpt lat="53.337029" lon="06.586047"><ele>4.2</ele><time>2021-05-20T13:29:53Z</time><name>PT9163</name></trkpt>
<trkpt lat="53.337027" lon="06.586035"><ele>4.3</ele><time>2021-05-20T13:30:07Z</time><name>PT9164</name></trkpt>
<trkpt lat="53.337019" lon="06.586038"><ele>4.5</ele><time>2021-05-20T13:30:08Z</time><name>PT9165</name></trkpt>
<trkpt lat="53.337023" lon="06.586037"><ele>4.7</ele><time>2021-05-20T13:30:09Z</time><name>PT9166</name></trkpt>
<trkpt lat="53.337023" lon="06.586038"><ele>4.8</ele><time>2021-05-20T13:30:10Z</time><name>PT9167</name></trkpt>
<trkpt lat="53.337021" lon="06.586045"><ele>4.8</ele><time>2021-05-20T13:30:11Z</time><name>PT9168</name></trkpt>
<trkpt lat="53.337016" lon="06.586054"><ele>4.7</ele><time>2021-05-20T13:30:12Z</time><name>PT9169</name></trkpt>
<trkpt lat="53.337012" lon="06.586066"><ele>4.7</ele><time>2021-05-20T13:30:13Z</time><name>PT9170</name></trkpt>
<trkpt lat="53.337009" lon="06.586073"><ele>4.6</ele><time>2021-05-20T13:30:14Z</time><name>PT9171</name></trkpt>
<trkpt lat="53.337007" lon="06.586082"><ele>4.3</ele><time>2021-05-20T13:30:15Z</time><name>PT9172</name></trkpt>
<trkpt lat="53.337005" lon="06.586093"><ele>4.4</ele><time>2021-05-20T13:30:16Z</time><name>PT9173</name></trkpt>
<trkpt lat="53.337004" lon="06.586102"><ele>4.4</ele><time>2021-05-20T13:30:17Z</time><name>PT9174</name></trkpt>
<trkpt lat="53.337002" lon="06.586114"><ele>4.7</ele><time>2021-05-20T13:30:18Z</time><name>PT9175</name></trkpt>
<trkpt lat="53.336998" lon="06.586126"><ele>4.8</ele><time>2021-05-20T13:30:19Z</time><name>PT9176</name></trkpt>
<trkpt lat="53.336996" lon="06.586137"><ele>4.5</ele><time>2021-05-20T13:30:20Z</time><name>PT9177</name></trkpt>
<trkpt lat="53.336992" lon="06.586147"><ele>4.4</ele><time>2021-05-20T13:30:21Z</time><name>PT9178</name></trkpt>
<trkpt lat="53.336989" lon="06.586160"><ele>4.4</ele><time>2021-05-20T13:30:22Z</time><name>PT9179</name></trkpt>
<trkpt lat="53.336984" lon="06.586172"><ele>4.3</ele><time>2021-05-20T13:30:23Z</time><name>PT9180</name></trkpt>
<trkpt lat="53.336981" lon="06.586182"><ele>4.5</ele><time>2021-05-20T13:30:24Z</time><name>PT9181</name></trkpt>
<trkpt lat="53.336977" lon="06.586194"><ele>4.5</ele><time>2021-05-20T13:30:25Z</time><name>PT9182</name></trkpt>
<trkpt lat="53.336972" lon="06.586211"><ele>4.6</ele><time>2021-05-20T13:30:26Z</time><name>PT9183</name></trkpt>
<trkpt lat="53.336963" lon="06.586220"><ele>4.6</ele><time>2021-05-20T13:30:27Z</time><name>PT9184</name></trkpt>
<trkpt lat="53.336957" lon="06.586243"><ele>4.7</ele><time>2021-05-20T13:30:28Z</time><name>PT9185</name></trkpt>
<trkpt lat="53.336948" lon="06.586255"><ele>4.7</ele><time>2021-05-20T13:30:29Z</time><name>PT9186</name></trkpt>
<trkpt lat="53.336941" lon="06.586268"><ele>4.5</ele><time>2021-05-20T13:30:30Z</time><name>PT9187</name></trkpt>
<trkpt lat="53.336935" lon="06.586285"><ele>4.6</ele><time>2021-05-20T13:30:31Z</time><name>PT9188</name></trkpt>
<trkpt lat="53.336930" lon="06.586299"><ele>4.3</ele><time>2021-05-20T13:30:32Z</time><name>PT9189</name></trkpt>
<trkpt lat="53.336924" lon="06.586308"><ele>4.3</ele><time>2021-05-20T13:30:33Z</time><name>PT9190</name></trkpt>
<trkpt lat="53.336915" lon="06.586318"><ele>4.4</ele><time>2021-05-20T13:30:34Z</time><name>PT9191</name></trkpt>
<trkpt lat="53.336905" lon="06.586336"><ele>4.4</ele><time>2021-05-20T13:30:35Z</time><name>PT9192</name></trkpt>
<trkpt lat="53.336898" lon="06.586347"><ele>4.7</ele><time>2021-05-20T13:30:36Z</time><name>PT9193</name></trkpt>
<trkpt lat="53.336889" lon="06.586359"><ele>4.7</ele><time>2021-05-20T13:30:37Z</time><name>PT9194</name></trkpt>
<trkpt lat="53.336880" lon="06.586367"><ele>4.7</ele><time>2021-05-20T13:30:38Z</time><name>PT9195</name></trkpt>
<trkpt lat="53.336873" lon="06.586379"><ele>4.7</ele><time>2021-05-20T13:30:39Z</time><name>PT9196</name></trkpt>
<trkpt lat="53.336868" lon="06.586389"><ele>4.7</ele><time>2021-05-20T13:30:40Z</time><name>PT9197</name></trkpt>
<trkpt lat="53.336858" lon="06.586396"><ele>4.6</ele><time>2021-05-20T13:30:41Z</time><name>PT9198</name></trkpt>
<trkpt lat="53.336849" lon="06.586399"><ele>4.5</ele><time>2021-05-20T13:30:42Z</time><name>PT9199</name></trkpt>
<trkpt lat="53.336841" lon="06.586406"><ele>4.5</ele><time>2021-05-20T13:30:43Z</time><name>PT9200</name></trkpt>
<trkpt lat="53.336832" lon="06.586414"><ele>4.5</ele><time>2021-05-20T13:30:44Z</time><name>PT9201</name></trkpt>
<trkpt lat="53.336820" lon="06.586420"><ele>4.4</ele><time>2021-05-20T13:30:45Z</time><name>PT9202</name></trkpt>
<trkpt lat="53.336811" lon="06.586425"><ele>4.5</ele><time>2021-05-20T13:30:46Z</time><name>PT9203</name></trkpt>
<trkpt lat="53.336803" lon="06.586431"><ele>4.7</ele><time>2021-05-20T13:30:47Z</time><name>PT9204</name></trkpt>
<trkpt lat="53.336796" lon="06.586437"><ele>4.7</ele><time>2021-05-20T13:30:48Z</time><name>PT9205</name></trkpt>
<trkpt lat="53.336791" lon="06.586446"><ele>4.8</ele><time>2021-05-20T13:30:49Z</time><name>PT9206</name></trkpt>
<trkpt lat="53.336788" lon="06.586453"><ele>4.8</ele><time>2021-05-20T13:30:50Z</time><name>PT9207</name></trkpt>
<trkpt lat="53.336787" lon="06.586461"><ele>4.9</ele><time>2021-05-20T13:30:51Z</time><name>PT9208</name></trkpt>
<trkpt lat="53.336788" lon="06.586467"><ele>5</ele><time>2021-05-20T13:30:52Z</time><name>PT9209</name></trkpt>
<trkpt lat="53.336788" lon="06.586473"><ele>4.9</ele><time>2021-05-20T13:30:53Z</time><name>PT9210</name></trkpt>
<trkpt lat="53.336786" lon="06.586484"><ele>4.7</ele><time>2021-05-20T13:30:54Z</time><name>PT9211</name></trkpt>
<trkpt lat="53.336782" lon="06.586494"><ele>4.6</ele><time>2021-05-20T13:30:55Z</time><name>PT9212</name></trkpt>
<trkpt lat="53.336772" lon="06.586497"><ele>4.5</ele><time>2021-05-20T13:30:56Z</time><name>PT9213</name></trkpt>
<trkpt lat="53.336772" lon="06.586511"><ele>4.4</ele><time>2021-05-20T13:30:57Z</time><name>PT9214</name></trkpt>
<trkpt lat="53.336777" lon="06.586521"><ele>4.5</ele><time>2021-05-20T13:30:58Z</time><name>PT9215</name></trkpt>
<trkpt lat="53.336777" lon="06.586532"><ele>4.5</ele><time>2021-05-20T13:30:59Z</time><name>PT9216</name></trkpt>
<trkpt lat="53.336771" lon="06.586551"><ele>4.6</ele><time>2021-05-20T13:31:00Z</time><name>PT9217</name></trkpt>
<trkpt lat="53.336771" lon="06.586562"><ele>4.6</ele><time>2021-05-20T13:31:01Z</time><name>PT9218</name></trkpt>
<trkpt lat="53.336767" lon="06.586576"><ele>4.7</ele><time>2021-05-20T13:31:02Z</time><name>PT9219</name></trkpt>
<trkpt lat="53.336765" lon="06.586592"><ele>4.8</ele><time>2021-05-20T13:31:03Z</time><name>PT9220</name></trkpt>
<trkpt lat="53.336758" lon="06.586608"><ele>4.9</ele><time>2021-05-20T13:31:04Z</time><name>PT9221</name></trkpt>
<trkpt lat="53.336755" lon="06.586633"><ele>4.8</ele><time>2021-05-20T13:31:05Z</time><name>PT9222</name></trkpt>
<trkpt lat="53.336751" lon="06.586646"><ele>4.7</ele><time>2021-05-20T13:31:06Z</time><name>PT9223</name></trkpt>
<trkpt lat="53.336747" lon="06.586656"><ele>4.6</ele><time>2021-05-20T13:31:07Z</time><name>PT9224</name></trkpt>
<trkpt lat="53.336742" lon="06.586669"><ele>4.4</ele><time>2021-05-20T13:31:08Z</time><name>PT9225</name></trkpt>
<trkpt lat="53.336738" lon="06.586687"><ele>4.4</ele><time>2021-05-20T13:31:09Z</time><name>PT9226</name></trkpt>
<trkpt lat="53.336734" lon="06.586707"><ele>4.5</ele><time>2021-05-20T13:31:10Z</time><name>PT9227</name></trkpt>
<trkpt lat="53.336729" lon="06.586722"><ele>4.6</ele><time>2021-05-20T13:31:11Z</time><name>PT9228</name></trkpt>
<trkpt lat="53.336726" lon="06.586733"><ele>4.6</ele><time>2021-05-20T13:31:12Z</time><name>PT9229</name></trkpt>
<trkpt lat="53.336721" lon="06.586748"><ele>4.5</ele><time>2021-05-20T13:31:13Z</time><name>PT9230</name></trkpt>
<trkpt lat="53.336717" lon="06.586762"><ele>4.7</ele><time>2021-05-20T13:31:14Z</time><name>PT9231</name></trkpt>
<trkpt lat="53.336710" lon="06.586780"><ele>4.8</ele><time>2021-05-20T13:31:15Z</time><name>PT9232</name></trkpt>
<trkpt lat="53.336704" lon="06.586804"><ele>4.9</ele><time>2021-05-20T13:31:16Z</time><name>PT9233</name></trkpt>
<trkpt lat="53.336699" lon="06.586819"><ele>4.8</ele><time>2021-05-20T13:31:17Z</time><name>PT9234</name></trkpt>
<trkpt lat="53.336695" lon="06.586833"><ele>4.7</ele><time>2021-05-20T13:31:18Z</time><name>PT9235</name></trkpt>
<trkpt lat="53.336692" lon="06.586840"><ele>4.8</ele><time>2021-05-20T13:31:19Z</time><name>PT9236</name></trkpt>
<trkpt lat="53.336692" lon="06.586850"><ele>4.8</ele><time>2021-05-20T13:31:20Z</time><name>PT9237</name></trkpt>
<trkpt lat="53.336690" lon="06.586869"><ele>4.8</ele><time>2021-05-20T13:31:21Z</time><name>PT9238</name></trkpt>
<trkpt lat="53.336692" lon="06.586886"><ele>4.8</ele><time>2021-05-20T13:31:22Z</time><name>PT9239</name></trkpt>
<trkpt lat="53.336692" lon="06.586900"><ele>5</ele><time>2021-05-20T13:31:23Z</time><name>PT9240</name></trkpt>
<trkpt lat="53.336695" lon="06.586912"><ele>4.8</ele><time>2021-05-20T13:31:24Z</time><name>PT9241</name></trkpt>
<trkpt lat="53.336697" lon="06.586920"><ele>4.9</ele><time>2021-05-20T13:31:25Z</time><name>PT9242</name></trkpt>
<trkpt lat="53.336699" lon="06.586926"><ele>5</ele><time>2021-05-20T13:31:26Z</time><name>PT9243</name></trkpt>
<trkpt lat="53.336700" lon="06.586933"><ele>4.8</ele><time>2021-05-20T13:31:27Z</time><name>PT9244</name></trkpt>
<trkpt lat="53.336703" lon="06.586945"><ele>4.8</ele><time>2021-05-20T13:31:38Z</time><name>PT9245</name></trkpt>
<trkpt lat="53.336707" lon="06.586969"><ele>4.7</ele><time>2021-05-20T13:31:39Z</time><name>PT9246</name></trkpt>
<trkpt lat="53.336705" lon="06.586977"><ele>4.8</ele><time>2021-05-20T13:31:40Z</time><name>PT9247</name></trkpt>
<trkpt lat="53.336704" lon="06.586978"><ele>4.8</ele><time>2021-05-20T13:31:41Z</time><name>PT9248</name></trkpt>
<trkpt lat="53.336702" lon="06.586984"><ele>4.6</ele><time>2021-05-20T13:31:42Z</time><name>PT9249</name></trkpt>
<trkpt lat="53.336713" lon="06.587011"><ele>4.6</ele><time>2021-05-20T13:31:55Z</time><name>PT9250</name></trkpt>
<trkpt lat="53.336716" lon="06.587034"><ele>4.6</ele><time>2021-05-20T13:31:56Z</time><name>PT9251</name></trkpt>
<trkpt lat="53.336718" lon="06.587049"><ele>4.5</ele><time>2021-05-20T13:31:57Z</time><name>PT9252</name></trkpt>
<trkpt lat="53.336720" lon="06.587061"><ele>4.7</ele><time>2021-05-20T13:31:58Z</time><name>PT9253</name></trkpt>
<trkpt lat="53.336725" lon="06.587088"><ele>4.9</ele><time>2021-05-20T13:31:59Z</time><name>PT9254</name></trkpt>
<trkpt lat="53.336723" lon="06.587102"><ele>5.1</ele><time>2021-05-20T13:32:00Z</time><name>PT9255</name></trkpt>
<trkpt lat="53.336727" lon="06.587127"><ele>5.1</ele><time>2021-05-20T13:32:01Z</time><name>PT9256</name></trkpt>
<trkpt lat="53.336727" lon="06.587147"><ele>0.7</ele><time>2021-05-20T13:32:02Z</time><name>PT9257</name></trkpt>
<trkpt lat="53.336729" lon="06.587160"><ele>0.7</ele><time>2021-05-20T13:32:03Z</time><name>PT9258</name></trkpt>
<trkpt lat="53.336731" lon="06.587178"><ele>0.8</ele><time>2021-05-20T13:32:04Z</time><name>PT9259</name></trkpt>
<trkpt lat="53.336736" lon="06.587194"><ele>0.7</ele><time>2021-05-20T13:32:05Z</time><name>PT9260</name></trkpt>
<trkpt lat="53.336736" lon="06.587209"><ele>0.8</ele><time>2021-05-20T13:32:06Z</time><name>PT9261</name></trkpt>
<trkpt lat="53.336735" lon="06.587221"><ele>0.9</ele><time>2021-05-20T13:32:07Z</time><name>PT9262</name></trkpt>
<trkpt lat="53.336736" lon="06.587237"><ele>0.7</ele><time>2021-05-20T13:32:08Z</time><name>PT9263</name></trkpt>
<trkpt lat="53.336739" lon="06.587249"><ele>0.9</ele><time>2021-05-20T13:32:09Z</time><name>PT9264</name></trkpt>
<trkpt lat="53.336739" lon="06.587258"><ele>0.8</ele><time>2021-05-20T13:32:10Z</time><name>PT9265</name></trkpt>
<trkpt lat="53.336739" lon="06.587262"><ele>1.1</ele><time>2021-05-20T13:32:11Z</time><name>PT9266</name></trkpt>
<trkpt lat="53.336739" lon="06.587264"><ele>1.1</ele><time>2021-05-20T13:32:12Z</time><name>PT9267</name></trkpt>
<trkpt lat="53.336742" lon="06.587262"><ele>1.2</ele><time>2021-05-20T13:32:13Z</time><name>PT9268</name></trkpt>
<trkpt lat="53.336742" lon="06.587265"><ele>1.1</ele><time>2021-05-20T13:32:14Z</time><name>PT9269</name></trkpt>
<trkpt lat="53.336740" lon="06.587267"><ele>1</ele><time>2021-05-20T13:32:15Z</time><name>PT9270</name></trkpt>
<trkpt lat="53.336740" lon="06.587267"><ele>1.2</ele><time>2021-05-20T13:32:16Z</time><name>PT9271</name></trkpt>
<trkpt lat="53.336740" lon="06.587267"><ele>0.8</ele><time>2021-05-20T13:32:17Z</time><name>PT9272</name></trkpt>
<trkpt lat="53.336742" lon="06.587260"><ele>0.8</ele><time>2021-05-20T13:32:23Z</time><name>PT9273</name></trkpt>
<trkpt lat="53.336742" lon="06.587260"><ele>0.8</ele><time>2021-05-20T13:32:24Z</time><name>PT9274</name></trkpt>
<trkpt lat="53.336740" lon="06.587261"><ele>0.8</ele><time>2021-05-20T13:32:25Z</time><name>PT9275</name></trkpt>
<trkpt lat="53.336736" lon="06.587266"><ele>0.7</ele><time>2021-05-20T13:32:26Z</time><name>PT9276</name></trkpt>
<trkpt lat="53.336734" lon="06.587269"><ele>0.7</ele><time>2021-05-20T13:32:27Z</time><name>PT9277</name></trkpt>
<trkpt lat="53.336731" lon="06.587277"><ele>0.7</ele><time>2021-05-20T13:32:28Z</time><name>PT9278</name></trkpt>
<trkpt lat="53.336728" lon="06.587291"><ele>0.6</ele><time>2021-05-20T13:32:29Z</time><name>PT9279</name></trkpt>
<trkpt lat="53.336723" lon="06.587307"><ele>0.5</ele><time>2021-05-20T13:32:30Z</time><name>PT9280</name></trkpt>
<trkpt lat="53.336715" lon="06.587326"><ele>0.7</ele><time>2021-05-20T13:32:31Z</time><name>PT9281</name></trkpt>
<trkpt lat="53.336708" lon="06.587344"><ele>0.7</ele><time>2021-05-20T13:32:32Z</time><name>PT9282</name></trkpt>
<trkpt lat="53.336700" lon="06.587363"><ele>0.8</ele><time>2021-05-20T13:32:33Z</time><name>PT9283</name></trkpt>
<trkpt lat="53.336692" lon="06.587380"><ele>1</ele><time>2021-05-20T13:32:34Z</time><name>PT9284</name></trkpt>
<trkpt lat="53.336684" lon="06.587397"><ele>1</ele><time>2021-05-20T13:32:35Z</time><name>PT9285</name></trkpt>
<trkpt lat="53.336675" lon="06.587413"><ele>0.8</ele><time>2021-05-20T13:32:36Z</time><name>PT9286</name></trkpt>
<trkpt lat="53.336666" lon="06.587428"><ele>0.6</ele><time>2021-05-20T13:32:37Z</time><name>PT9287</name></trkpt>
<trkpt lat="53.336658" lon="06.587442"><ele>0.4</ele><time>2021-05-20T13:32:38Z</time><name>PT9288</name></trkpt>
<trkpt lat="53.336651" lon="06.587456"><ele>0.5</ele><time>2021-05-20T13:32:39Z</time><name>PT9289</name></trkpt>
<trkpt lat="53.336644" lon="06.587468"><ele>0.6</ele><time>2021-05-20T13:32:40Z</time><name>PT9290</name></trkpt>
<trkpt lat="53.336637" lon="06.587483"><ele>0.7</ele><time>2021-05-20T13:32:41Z</time><name>PT9291</name></trkpt>
<trkpt lat="53.336630" lon="06.587499"><ele>0.9</ele><time>2021-05-20T13:32:42Z</time><name>PT9292</name></trkpt>
<trkpt lat="53.336622" lon="06.587516"><ele>0.8</ele><time>2021-05-20T13:32:43Z</time><name>PT9293</name></trkpt>
<trkpt lat="53.336615" lon="06.587532"><ele>1</ele><time>2021-05-20T13:32:44Z</time><name>PT9294</name></trkpt>
<trkpt lat="53.336607" lon="06.587548"><ele>1</ele><time>2021-05-20T13:32:45Z</time><name>PT9295</name></trkpt>
<trkpt lat="53.336600" lon="06.587564"><ele>0.9</ele><time>2021-05-20T13:32:46Z</time><name>PT9296</name></trkpt>
<trkpt lat="53.336594" lon="06.587580"><ele>1</ele><time>2021-05-20T13:32:47Z</time><name>PT9297</name></trkpt>
<trkpt lat="53.336586" lon="06.587592"><ele>1</ele><time>2021-05-20T13:32:48Z</time><name>PT9298</name></trkpt>
<trkpt lat="53.336579" lon="06.587605"><ele>0.9</ele><time>2021-05-20T13:32:49Z</time><name>PT9299</name></trkpt>
<trkpt lat="53.336570" lon="06.587617"><ele>0.7</ele><time>2021-05-20T13:32:50Z</time><name>PT9300</name></trkpt>
<trkpt lat="53.336563" lon="06.587625"><ele>0.8</ele><time>2021-05-20T13:32:51Z</time><name>PT9301</name></trkpt>
<trkpt lat="53.336558" lon="06.587631"><ele>0.8</ele><time>2021-05-20T13:32:52Z</time><name>PT9302</name></trkpt>
<trkpt lat="53.336555" lon="06.587636"><ele>0.7</ele><time>2021-05-20T13:32:53Z</time><name>PT9303</name></trkpt>
<trkpt lat="53.336550" lon="06.587644"><ele>0.9</ele><time>2021-05-20T13:32:54Z</time><name>PT9304</name></trkpt>
<trkpt lat="53.336543" lon="06.587653"><ele>0.9</ele><time>2021-05-20T13:32:55Z</time><name>PT9305</name></trkpt>
<trkpt lat="53.336535" lon="06.587661"><ele>0.9</ele><time>2021-05-20T13:32:56Z</time><name>PT9306</name></trkpt>
<trkpt lat="53.336526" lon="06.587672"><ele>0.7</ele><time>2021-05-20T13:32:57Z</time><name>PT9307</name></trkpt>
<trkpt lat="53.336517" lon="06.587680"><ele>1.1</ele><time>2021-05-20T13:32:58Z</time><name>PT9308</name></trkpt>
<trkpt lat="53.336507" lon="06.587687"><ele>1</ele><time>2021-05-20T13:32:59Z</time><name>PT9309</name></trkpt>
<trkpt lat="53.336498" lon="06.587695"><ele>1.1</ele><time>2021-05-20T13:33:00Z</time><name>PT9310</name></trkpt>
<trkpt lat="53.336489" lon="06.587705"><ele>1.2</ele><time>2021-05-20T13:33:01Z</time><name>PT9311</name></trkpt>
<trkpt lat="53.336483" lon="06.587714"><ele>1</ele><time>2021-05-20T13:33:02Z</time><name>PT9312</name></trkpt>
<trkpt lat="53.336480" lon="06.587721"><ele>0.9</ele><time>2021-05-20T13:33:03Z</time><name>PT9313</name></trkpt>
<trkpt lat="53.336477" lon="06.587727"><ele>0.7</ele><time>2021-05-20T13:33:04Z</time><name>PT9314</name></trkpt>
<trkpt lat="53.336477" lon="06.587728"><ele>0.7</ele><time>2021-05-20T13:33:05Z</time><name>PT9315</name></trkpt>
<trkpt lat="53.336477" lon="06.587729"><ele>0.6</ele><time>2021-05-20T13:33:06Z</time><name>PT9316</name></trkpt>
<trkpt lat="53.336477" lon="06.587729"><ele>0.7</ele><time>2021-05-20T13:33:07Z</time><name>PT9317</name></trkpt>
<trkpt lat="53.336476" lon="06.587733"><ele>1.2</ele><time>2021-05-20T13:33:13Z</time><name>PT9318</name></trkpt>
<trkpt lat="53.336477" lon="06.587736"><ele>1.2</ele><time>2021-05-20T13:33:14Z</time><name>PT9319</name></trkpt>
<trkpt lat="53.336470" lon="06.587740"><ele>1.1</ele><time>2021-05-20T13:33:25Z</time><name>PT9320</name></trkpt>
<trkpt lat="53.336463" lon="06.587748"><ele>1.1</ele><time>2021-05-20T13:33:26Z</time><name>PT9321</name></trkpt>
<trkpt lat="53.336459" lon="06.587757"><ele>1.2</ele><time>2021-05-20T13:33:27Z</time><name>PT9322</name></trkpt>
<trkpt lat="53.336453" lon="06.587769"><ele>1.2</ele><time>2021-05-20T13:33:28Z</time><name>PT9323</name></trkpt>
<trkpt lat="53.336447" lon="06.587783"><ele>1</ele><time>2021-05-20T13:33:29Z</time><name>PT9324</name></trkpt>
<trkpt lat="53.336439" lon="06.587794"><ele>1.1</ele><time>2021-05-20T13:33:30Z</time><name>PT9325</name></trkpt>
<trkpt lat="53.336433" lon="06.587808"><ele>0.9</ele><time>2021-05-20T13:33:31Z</time><name>PT9326</name></trkpt>
<trkpt lat="53.336427" lon="06.587825"><ele>0.9</ele><time>2021-05-20T13:33:32Z</time><name>PT9327</name></trkpt>
<trkpt lat="53.336422" lon="06.587843"><ele>1</ele><time>2021-05-20T13:33:33Z</time><name>PT9328</name></trkpt>
<trkpt lat="53.336417" lon="06.587859"><ele>1.2</ele><time>2021-05-20T13:33:34Z</time><name>PT9329</name></trkpt>
<trkpt lat="53.336413" lon="06.587876"><ele>1.4</ele><time>2021-05-20T13:33:35Z</time><name>PT9330</name></trkpt>
<trkpt lat="53.336409" lon="06.587894"><ele>1.4</ele><time>2021-05-20T13:33:36Z</time><name>PT9331</name></trkpt>
<trkpt lat="53.336404" lon="06.587912"><ele>1.4</ele><time>2021-05-20T13:33:37Z</time><name>PT9332</name></trkpt>
<trkpt lat="53.336400" lon="06.587928"><ele>1.3</ele><time>2021-05-20T13:33:38Z</time><name>PT9333</name></trkpt>
<trkpt lat="53.336394" lon="06.587942"><ele>1.2</ele><time>2021-05-20T13:33:39Z</time><name>PT9334</name></trkpt>
<trkpt lat="53.336389" lon="06.587957"><ele>1.1</ele><time>2021-05-20T13:33:40Z</time><name>PT9335</name></trkpt>
<trkpt lat="53.336382" lon="06.587971"><ele>1.3</ele><time>2021-05-20T13:33:41Z</time><name>PT9336</name></trkpt>
<trkpt lat="53.336374" lon="06.587984"><ele>1.4</ele><time>2021-05-20T13:33:42Z</time><name>PT9337</name></trkpt>
<trkpt lat="53.336366" lon="06.587998"><ele>1.3</ele><time>2021-05-20T13:33:43Z</time><name>PT9338</name></trkpt>
<trkpt lat="53.336358" lon="06.588009"><ele>1.3</ele><time>2021-05-20T13:33:44Z</time><name>PT9339</name></trkpt>
<trkpt lat="53.336352" lon="06.588021"><ele>1.2</ele><time>2021-05-20T13:33:45Z</time><name>PT9340</name></trkpt>
<trkpt lat="53.336348" lon="06.588032"><ele>1.1</ele><time>2021-05-20T13:33:46Z</time><name>PT9341</name></trkpt>
<trkpt lat="53.336343" lon="06.588037"><ele>1.2</ele><time>2021-05-20T13:33:47Z</time><name>PT9342</name></trkpt>
<trkpt lat="53.336338" lon="06.588042"><ele>1.2</ele><time>2021-05-20T13:33:48Z</time><name>PT9343</name></trkpt>
<trkpt lat="53.336334" lon="06.588046"><ele>1.4</ele><time>2021-05-20T13:33:49Z</time><name>PT9344</name></trkpt>
<trkpt lat="53.336330" lon="06.588052"><ele>1.4</ele><time>2021-05-20T13:33:50Z</time><name>PT9345</name></trkpt>
<trkpt lat="53.336329" lon="06.588059"><ele>1.3</ele><time>2021-05-20T13:33:51Z</time><name>PT9346</name></trkpt>
<trkpt lat="53.336326" lon="06.588063"><ele>1.4</ele><time>2021-05-20T13:33:52Z</time><name>PT9347</name></trkpt>
<trkpt lat="53.336324" lon="06.588068"><ele>1.4</ele><time>2021-05-20T13:33:53Z</time><name>PT9348</name></trkpt>
<trkpt lat="53.336320" lon="06.588080"><ele>1.5</ele><time>2021-05-20T13:33:58Z</time><name>PT9349</name></trkpt>
<trkpt lat="53.336312" lon="06.588094"><ele>1.5</ele><time>2021-05-20T13:33:59Z</time><name>PT9350</name></trkpt>
<trkpt lat="53.336303" lon="06.588108"><ele>1.4</ele><time>2021-05-20T13:34:00Z</time><name>PT9351</name></trkpt>
<trkpt lat="53.336294" lon="06.588123"><ele>1.5</ele><time>2021-05-20T13:34:01Z</time><name>PT9352</name></trkpt>
<trkpt lat="53.336285" lon="06.588135"><ele>1.3</ele><time>2021-05-20T13:34:02Z</time><name>PT9353</name></trkpt>
<trkpt lat="53.336276" lon="06.588145"><ele>1.3</ele><time>2021-05-20T13:34:03Z</time><name>PT9354</name></trkpt>
<trkpt lat="53.336268" lon="06.588155"><ele>1.4</ele><time>2021-05-20T13:34:04Z</time><name>PT9355</name></trkpt>
<trkpt lat="53.336259" lon="06.588167"><ele>1.4</ele><time>2021-05-20T13:34:05Z</time><name>PT9356</name></trkpt>
<trkpt lat="53.336249" lon="06.588180"><ele>1.5</ele><time>2021-05-20T13:34:06Z</time><name>PT9357</name></trkpt>
<trkpt lat="53.336240" lon="06.588192"><ele>1.3</ele><time>2021-05-20T13:34:07Z</time><name>PT9358</name></trkpt>
<trkpt lat="53.336230" lon="06.588206"><ele>1.5</ele><time>2021-05-20T13:34:08Z</time><name>PT9359</name></trkpt>
<trkpt lat="53.336221" lon="06.588220"><ele>1.4</ele><time>2021-05-20T13:34:09Z</time><name>PT9360</name></trkpt>
<trkpt lat="53.336212" lon="06.588231"><ele>1.3</ele><time>2021-05-20T13:34:10Z</time><name>PT9361</name></trkpt>
<trkpt lat="53.336204" lon="06.588241"><ele>1.5</ele><time>2021-05-20T13:34:11Z</time><name>PT9362</name></trkpt>
<trkpt lat="53.336197" lon="06.588251"><ele>1.3</ele><time>2021-05-20T13:34:12Z</time><name>PT9363</name></trkpt>
<trkpt lat="53.336190" lon="06.588262"><ele>1.2</ele><time>2021-05-20T13:34:13Z</time><name>PT9364</name></trkpt>
<trkpt lat="53.336184" lon="06.588277"><ele>1.1</ele><time>2021-05-20T13:34:14Z</time><name>PT9365</name></trkpt>
<trkpt lat="53.336180" lon="06.588293"><ele>1.2</ele><time>2021-05-20T13:34:15Z</time><name>PT9366</name></trkpt>
<trkpt lat="53.336174" lon="06.588309"><ele>1.3</ele><time>2021-05-20T13:34:16Z</time><name>PT9367</name></trkpt>
<trkpt lat="53.336168" lon="06.588323"><ele>1.7</ele><time>2021-05-20T13:34:17Z</time><name>PT9368</name></trkpt>
<trkpt lat="53.336164" lon="06.588336"><ele>1.8</ele><time>2021-05-20T13:34:18Z</time><name>PT9369</name></trkpt>
<trkpt lat="53.336157" lon="06.588346"><ele>1.7</ele><time>2021-05-20T13:34:19Z</time><name>PT9370</name></trkpt>
<trkpt lat="53.336148" lon="06.588352"><ele>1.3</ele><time>2021-05-20T13:34:20Z</time><name>PT9371</name></trkpt>
<trkpt lat="53.336141" lon="06.588364"><ele>1.6</ele><time>2021-05-20T13:34:21Z</time><name>PT9372</name></trkpt>
<trkpt lat="53.336132" lon="06.588376"><ele>1.4</ele><time>2021-05-20T13:34:22Z</time><name>PT9373</name></trkpt>
<trkpt lat="53.336124" lon="06.588389"><ele>1.6</ele><time>2021-05-20T13:34:23Z</time><name>PT9374</name></trkpt>
<trkpt lat="53.336115" lon="06.588400"><ele>1.7</ele><time>2021-05-20T13:34:24Z</time><name>PT9375</name></trkpt>
<trkpt lat="53.336105" lon="06.588411"><ele>1.6</ele><time>2021-05-20T13:34:25Z</time><name>PT9376</name></trkpt>
<trkpt lat="53.336096" lon="06.588421"><ele>1.6</ele><time>2021-05-20T13:34:26Z</time><name>PT9377</name></trkpt>
<trkpt lat="53.336088" lon="06.588429"><ele>1.7</ele><time>2021-05-20T13:34:27Z</time><name>PT9378</name></trkpt>
<trkpt lat="53.336079" lon="06.588433"><ele>1.7</ele><time>2021-05-20T13:34:28Z</time><name>PT9379</name></trkpt>
<trkpt lat="53.336072" lon="06.588435"><ele>1.7</ele><time>2021-05-20T13:34:29Z</time><name>PT9380</name></trkpt>
<trkpt lat="53.336068" lon="06.588432"><ele>1.7</ele><time>2021-05-20T13:34:30Z</time><name>PT9381</name></trkpt>
<trkpt lat="53.336067" lon="06.588431"><ele>1.6</ele><time>2021-05-20T13:34:31Z</time><name>PT9382</name></trkpt>
<trkpt lat="53.336063" lon="06.588431"><ele>1.5</ele><time>2021-05-20T13:34:32Z</time><name>PT9383</name></trkpt>
<trkpt lat="53.336061" lon="06.588430"><ele>1.3</ele><time>2021-05-20T13:34:33Z</time><name>PT9384</name></trkpt>
<trkpt lat="53.336057" lon="06.588425"><ele>1.2</ele><time>2021-05-20T13:34:34Z</time><name>PT9385</name></trkpt>
<trkpt lat="53.336050" lon="06.588422"><ele>1.1</ele><time>2021-05-20T13:34:35Z</time><name>PT9386</name></trkpt>
<trkpt lat="53.336040" lon="06.588421"><ele>1</ele><time>2021-05-20T13:34:36Z</time><name>PT9387</name></trkpt>
<trkpt lat="53.336028" lon="06.588420"><ele>1</ele><time>2021-05-20T13:34:37Z</time><name>PT9388</name></trkpt>
<trkpt lat="53.336018" lon="06.588415"><ele>1.2</ele><time>2021-05-20T13:34:38Z</time><name>PT9389</name></trkpt>
<trkpt lat="53.336009" lon="06.588409"><ele>1.2</ele><time>2021-05-20T13:34:39Z</time><name>PT9390</name></trkpt>
<trkpt lat="53.336000" lon="06.588404"><ele>1.3</ele><time>2021-05-20T13:34:40Z</time><name>PT9391</name></trkpt>
<trkpt lat="53.335991" lon="06.588399"><ele>1.4</ele><time>2021-05-20T13:34:41Z</time><name>PT9392</name></trkpt>
<trkpt lat="53.335982" lon="06.588393"><ele>1.7</ele><time>2021-05-20T13:34:42Z</time><name>PT9393</name></trkpt>
<trkpt lat="53.335972" lon="06.588385"><ele>1.8</ele><time>2021-05-20T13:34:43Z</time><name>PT9394</name></trkpt>
<trkpt lat="53.335964" lon="06.588376"><ele>2</ele><time>2021-05-20T13:34:44Z</time><name>PT9395</name></trkpt>
<trkpt lat="53.335956" lon="06.588366"><ele>2.1</ele><time>2021-05-20T13:34:45Z</time><name>PT9396</name></trkpt>
<trkpt lat="53.335949" lon="06.588360"><ele>2.1</ele><time>2021-05-20T13:34:46Z</time><name>PT9397</name></trkpt>
<trkpt lat="53.335944" lon="06.588357"><ele>1.8</ele><time>2021-05-20T13:34:47Z</time><name>PT9398</name></trkpt>
<trkpt lat="53.335940" lon="06.588352"><ele>1.7</ele><time>2021-05-20T13:34:48Z</time><name>PT9399</name></trkpt>
<trkpt lat="53.335936" lon="06.588348"><ele>1.8</ele><time>2021-05-20T13:34:49Z</time><name>PT9400</name></trkpt>
<trkpt lat="53.335933" lon="06.588346"><ele>1.7</ele><time>2021-05-20T13:34:50Z</time><name>PT9401</name></trkpt>
<trkpt lat="53.335931" lon="06.588343"><ele>1.6</ele><time>2021-05-20T13:34:51Z</time><name>PT9402</name></trkpt>
<trkpt lat="53.335932" lon="06.588345"><ele>1.4</ele><time>2021-05-20T13:34:52Z</time><name>PT9403</name></trkpt>
<trkpt lat="53.335930" lon="06.588348"><ele>1.5</ele><time>2021-05-20T13:34:53Z</time><name>PT9404</name></trkpt>
<trkpt lat="53.335930" lon="06.588347"><ele>1.4</ele><time>2021-05-20T13:34:54Z</time><name>PT9405</name></trkpt>
<trkpt lat="53.335930" lon="06.588345"><ele>1.6</ele><time>2021-05-20T13:34:55Z</time><name>PT9406</name></trkpt>
<trkpt lat="53.335928" lon="06.588338"><ele>1.7</ele><time>2021-05-20T13:34:56Z</time><name>PT9407</name></trkpt>
<trkpt lat="53.335926" lon="06.588329"><ele>1.7</ele><time>2021-05-20T13:34:57Z</time><name>PT9408</name></trkpt>
<trkpt lat="53.335921" lon="06.588320"><ele>1.7</ele><time>2021-05-20T13:34:58Z</time><name>PT9409</name></trkpt>
<trkpt lat="53.335915" lon="06.588315"><ele>1.7</ele><time>2021-05-20T13:34:59Z</time><name>PT9410</name></trkpt>
<trkpt lat="53.335907" lon="06.588309"><ele>1.5</ele><time>2021-05-20T13:35:00Z</time><name>PT9411</name></trkpt>
<trkpt lat="53.335897" lon="06.588300"><ele>1.6</ele><time>2021-05-20T13:35:01Z</time><name>PT9412</name></trkpt>
<trkpt lat="53.335887" lon="06.588288"><ele>1.6</ele><time>2021-05-20T13:35:02Z</time><name>PT9413</name></trkpt>
<trkpt lat="53.335878" lon="06.588278"><ele>1.3</ele><time>2021-05-20T13:35:03Z</time><name>PT9414</name></trkpt>
<trkpt lat="53.335870" lon="06.588268"><ele>1.4</ele><time>2021-05-20T13:35:04Z</time><name>PT9415</name></trkpt>
<trkpt lat="53.335862" lon="06.588260"><ele>1.3</ele><time>2021-05-20T13:35:05Z</time><name>PT9416</name></trkpt>
<trkpt lat="53.335853" lon="06.588254"><ele>1.2</ele><time>2021-05-20T13:35:06Z</time><name>PT9417</name></trkpt>
<trkpt lat="53.335844" lon="06.588254"><ele>1.1</ele><time>2021-05-20T13:35:07Z</time><name>PT9418</name></trkpt>
<trkpt lat="53.335837" lon="06.588254"><ele>1.1</ele><time>2021-05-20T13:35:08Z</time><name>PT9419</name></trkpt>
<trkpt lat="53.335830" lon="06.588251"><ele>1.2</ele><time>2021-05-20T13:35:09Z</time><name>PT9420</name></trkpt>
<trkpt lat="53.335822" lon="06.588250"><ele>1.3</ele><time>2021-05-20T13:35:10Z</time><name>PT9421</name></trkpt>
<trkpt lat="53.335814" lon="06.588249"><ele>1.3</ele><time>2021-05-20T13:35:11Z</time><name>PT9422</name></trkpt>
<trkpt lat="53.335805" lon="06.588247"><ele>1.6</ele><time>2021-05-20T13:35:12Z</time><name>PT9423</name></trkpt>
<trkpt lat="53.335796" lon="06.588246"><ele>1.6</ele><time>2021-05-20T13:35:13Z</time><name>PT9424</name></trkpt>
<trkpt lat="53.335787" lon="06.588243"><ele>1.5</ele><time>2021-05-20T13:35:14Z</time><name>PT9425</name></trkpt>
<trkpt lat="53.335778" lon="06.588240"><ele>1.4</ele><time>2021-05-20T13:35:15Z</time><name>PT9426</name></trkpt>
<trkpt lat="53.335769" lon="06.588239"><ele>1.5</ele><time>2021-05-20T13:35:16Z</time><name>PT9427</name></trkpt>
<trkpt lat="53.335760" lon="06.588238"><ele>1.4</ele><time>2021-05-20T13:35:17Z</time><name>PT9428</name></trkpt>
<trkpt lat="53.335750" lon="06.588237"><ele>1.5</ele><time>2021-05-20T13:35:18Z</time><name>PT9429</name></trkpt>
<trkpt lat="53.335740" lon="06.588237"><ele>1.5</ele><time>2021-05-20T13:35:19Z</time><name>PT9430</name></trkpt>
<trkpt lat="53.335730" lon="06.588239"><ele>1.6</ele><time>2021-05-20T13:35:20Z</time><name>PT9431</name></trkpt>
<trkpt lat="53.335721" lon="06.588241"><ele>1.5</ele><time>2021-05-20T13:35:21Z</time><name>PT9432</name></trkpt>
<trkpt lat="53.335711" lon="06.588244"><ele>1.4</ele><time>2021-05-20T13:35:22Z</time><name>PT9433</name></trkpt>
<trkpt lat="53.335700" lon="06.588250"><ele>1.6</ele><time>2021-05-20T13:35:23Z</time><name>PT9434</name></trkpt>
<trkpt lat="53.335694" lon="06.588256"><ele>1.5</ele><time>2021-05-20T13:35:24Z</time><name>PT9435</name></trkpt>
<trkpt lat="53.335683" lon="06.588259"><ele>1.6</ele><time>2021-05-20T13:35:25Z</time><name>PT9436</name></trkpt>
<trkpt lat="53.335673" lon="06.588261"><ele>1.9</ele><time>2021-05-20T13:35:26Z</time><name>PT9437</name></trkpt>
<trkpt lat="53.335664" lon="06.588263"><ele>1.7</ele><time>2021-05-20T13:35:27Z</time><name>PT9438</name></trkpt>
<trkpt lat="53.335657" lon="06.588267"><ele>1.8</ele><time>2021-05-20T13:35:28Z</time><name>PT9439</name></trkpt>
<trkpt lat="53.335650" lon="06.588272"><ele>1.8</ele><time>2021-05-20T13:35:29Z</time><name>PT9440</name></trkpt>
<trkpt lat="53.335642" lon="06.588277"><ele>1.9</ele><time>2021-05-20T13:35:30Z</time><name>PT9441</name></trkpt>
<trkpt lat="53.335632" lon="06.588284"><ele>2</ele><time>2021-05-20T13:35:31Z</time><name>PT9442</name></trkpt>
<trkpt lat="53.335621" lon="06.588290"><ele>2.3</ele><time>2021-05-20T13:35:32Z</time><name>PT9443</name></trkpt>
<trkpt lat="53.335611" lon="06.588296"><ele>2.1</ele><time>2021-05-20T13:35:33Z</time><name>PT9444</name></trkpt>
<trkpt lat="53.335601" lon="06.588304"><ele>2.1</ele><time>2021-05-20T13:35:34Z</time><name>PT9445</name></trkpt>
<trkpt lat="53.335595" lon="06.588313"><ele>2.1</ele><time>2021-05-20T13:35:35Z</time><name>PT9446</name></trkpt>
<trkpt lat="53.335592" lon="06.588325"><ele>2</ele><time>2021-05-20T13:35:36Z</time><name>PT9447</name></trkpt>
<trkpt lat="53.335590" lon="06.588337"><ele>2.1</ele><time>2021-05-20T13:35:37Z</time><name>PT9448</name></trkpt>
<trkpt lat="53.335592" lon="06.588347"><ele>2.1</ele><time>2021-05-20T13:35:38Z</time><name>PT9449</name></trkpt>
<trkpt lat="53.335596" lon="06.588356"><ele>2</ele><time>2021-05-20T13:35:39Z</time><name>PT9450</name></trkpt>
<trkpt lat="53.335600" lon="06.588361"><ele>2</ele><time>2021-05-20T13:35:40Z</time><name>PT9451</name></trkpt>
<trkpt lat="53.335603" lon="06.588367"><ele>1.9</ele><time>2021-05-20T13:35:41Z</time><name>PT9452</name></trkpt>
<trkpt lat="53.335602" lon="06.588372"><ele>2.1</ele><time>2021-05-20T13:35:44Z</time><name>PT9453</name></trkpt>
<trkpt lat="53.335603" lon="06.588372"><ele>2</ele><time>2021-05-20T13:35:45Z</time><name>PT9454</name></trkpt>
<trkpt lat="53.335602" lon="06.588368"><ele>2</ele><time>2021-05-20T13:35:46Z</time><name>PT9455</name></trkpt>
<trkpt lat="53.335604" lon="06.588372"><ele>1.9</ele><time>2021-05-20T13:35:47Z</time><name>PT9456</name></trkpt>
<trkpt lat="53.335607" lon="06.588380"><ele>1.8</ele><time>2021-05-20T13:35:48Z</time><name>PT9457</name></trkpt>
<trkpt lat="53.335609" lon="06.588393"><ele>1.7</ele><time>2021-05-20T13:35:49Z</time><name>PT9458</name></trkpt>
<trkpt lat="53.335611" lon="06.588400"><ele>1.8</ele><time>2021-05-20T13:35:50Z</time><name>PT9459</name></trkpt>
<trkpt lat="53.335613" lon="06.588402"><ele>1.7</ele><time>2021-05-20T13:35:51Z</time><name>PT9460</name></trkpt>
<trkpt lat="53.335613" lon="06.588396"><ele>1.7</ele><time>2021-05-20T13:35:52Z</time><name>PT9461</name></trkpt>
<trkpt lat="53.335614" lon="06.588394"><ele>1.6</ele><time>2021-05-20T13:35:53Z</time><name>PT9462</name></trkpt>
<trkpt lat="53.335612" lon="06.588395"><ele>1.5</ele><time>2021-05-20T13:35:54Z</time><name>PT9463</name></trkpt>
<trkpt lat="53.335612" lon="06.588399"><ele>1.5</ele><time>2021-05-20T13:35:55Z</time><name>PT9464</name></trkpt>
<trkpt lat="53.335614" lon="06.588408"><ele>1.6</ele><time>2021-05-20T13:35:56Z</time><name>PT9465</name></trkpt>
<trkpt lat="53.335618" lon="06.588421"><ele>1.5</ele><time>2021-05-20T13:35:57Z</time><name>PT9466</name></trkpt>
<trkpt lat="53.335621" lon="06.588435"><ele>1.7</ele><time>2021-05-20T13:35:58Z</time><name>PT9467</name></trkpt>
<trkpt lat="53.335623" lon="06.588449"><ele>1.7</ele><time>2021-05-20T13:35:59Z</time><name>PT9468</name></trkpt>
<trkpt lat="53.335624" lon="06.588466"><ele>1.7</ele><time>2021-05-20T13:36:00Z</time><name>PT9469</name></trkpt>
<trkpt lat="53.335629" lon="06.588483"><ele>1.7</ele><time>2021-05-20T13:36:01Z</time><name>PT9470</name></trkpt>
<trkpt lat="53.335634" lon="06.588500"><ele>1.6</ele><time>2021-05-20T13:36:02Z</time><name>PT9471</name></trkpt>
<trkpt lat="53.335638" lon="06.588518"><ele>1.3</ele><time>2021-05-20T13:36:03Z</time><name>PT9472</name></trkpt>
<trkpt lat="53.335640" lon="06.588538"><ele>1.2</ele><time>2021-05-20T13:36:04Z</time><name>PT9473</name></trkpt>
<trkpt lat="53.335641" lon="06.588558"><ele>1.2</ele><time>2021-05-20T13:36:05Z</time><name>PT9474</name></trkpt>
<trkpt lat="53.335643" lon="06.588578"><ele>1.2</ele><time>2021-05-20T13:36:06Z</time><name>PT9475</name></trkpt>
<trkpt lat="53.335645" lon="06.588598"><ele>1.2</ele><time>2021-05-20T13:36:07Z</time><name>PT9476</name></trkpt>
<trkpt lat="53.335648" lon="06.588615"><ele>1.2</ele><time>2021-05-20T13:36:08Z</time><name>PT9477</name></trkpt>
<trkpt lat="53.335651" lon="06.588632"><ele>1.2</ele><time>2021-05-20T13:36:09Z</time><name>PT9478</name></trkpt>
<trkpt lat="53.335654" lon="06.588648"><ele>1.2</ele><time>2021-05-20T13:36:10Z</time><name>PT9479</name></trkpt>
<trkpt lat="53.335656" lon="06.588663"><ele>1.2</ele><time>2021-05-20T13:36:11Z</time><name>PT9480</name></trkpt>
<trkpt lat="53.335659" lon="06.588678"><ele>1.2</ele><time>2021-05-20T13:36:12Z</time><name>PT9481</name></trkpt>
<trkpt lat="53.335661" lon="06.588695"><ele>1.2</ele><time>2021-05-20T13:36:13Z</time><name>PT9482</name></trkpt>
<trkpt lat="53.335662" lon="06.588712"><ele>1.2</ele><time>2021-05-20T13:36:14Z</time><name>PT9483</name></trkpt>
<trkpt lat="53.335662" lon="06.588728"><ele>1.3</ele><time>2021-05-20T13:36:15Z</time><name>PT9484</name></trkpt>
<trkpt lat="53.335663" lon="06.588745"><ele>1.3</ele><time>2021-05-20T13:36:16Z</time><name>PT9485</name></trkpt>
<trkpt lat="53.335665" lon="06.588760"><ele>1.3</ele><time>2021-05-20T13:36:17Z</time><name>PT9486</name></trkpt>
<trkpt lat="53.335667" lon="06.588776"><ele>1.3</ele><time>2021-05-20T13:36:18Z</time><name>PT9487</name></trkpt>
<trkpt lat="53.335670" lon="06.588791"><ele>1.2</ele><time>2021-05-20T13:36:19Z</time><name>PT9488</name></trkpt>
<trkpt lat="53.335674" lon="06.588805"><ele>1.2</ele><time>2021-05-20T13:36:20Z</time><name>PT9489</name></trkpt>
<trkpt lat="53.335676" lon="06.588821"><ele>1.3</ele><time>2021-05-20T13:36:21Z</time><name>PT9490</name></trkpt>
<trkpt lat="53.335678" lon="06.588834"><ele>1.3</ele><time>2021-05-20T13:36:22Z</time><name>PT9491</name></trkpt>
<trkpt lat="53.335680" lon="06.588848"><ele>1.4</ele><time>2021-05-20T13:36:23Z</time><name>PT9492</name></trkpt>
<trkpt lat="53.335682" lon="06.588863"><ele>1.6</ele><time>2021-05-20T13:36:24Z</time><name>PT9493</name></trkpt>
<trkpt lat="53.335684" lon="06.588879"><ele>1.5</ele><time>2021-05-20T13:36:25Z</time><name>PT9494</name></trkpt>
<trkpt lat="53.335687" lon="06.588895"><ele>1.3</ele><time>2021-05-20T13:36:26Z</time><name>PT9495</name></trkpt>
<trkpt lat="53.335690" lon="06.588912"><ele>1.5</ele><time>2021-05-20T13:36:27Z</time><name>PT9496</name></trkpt>
<trkpt lat="53.335693" lon="06.588931"><ele>1.3</ele><time>2021-05-20T13:36:28Z</time><name>PT9497</name></trkpt>
<trkpt lat="53.335696" lon="06.588948"><ele>1.3</ele><time>2021-05-20T13:36:29Z</time><name>PT9498</name></trkpt>
<trkpt lat="53.335699" lon="06.588967"><ele>1.2</ele><time>2021-05-20T13:36:30Z</time><name>PT9499</name></trkpt>
<trkpt lat="53.335703" lon="06.588985"><ele>1.1</ele><time>2021-05-20T13:36:31Z</time><name>PT9500</name></trkpt>
<trkpt lat="53.335708" lon="06.589002"><ele>1</ele><time>2021-05-20T13:36:32Z</time><name>PT9501</name></trkpt>
<trkpt lat="53.335712" lon="06.589020"><ele>1.1</ele><time>2021-05-20T13:36:33Z</time><name>PT9502</name></trkpt>
<trkpt lat="53.335716" lon="06.589037"><ele>1</ele><time>2021-05-20T13:36:34Z</time><name>PT9503</name></trkpt>
<trkpt lat="53.335719" lon="06.589055"><ele>1.2</ele><time>2021-05-20T13:36:35Z</time><name>PT9504</name></trkpt>
<trkpt lat="53.335722" lon="06.589073"><ele>1.3</ele><time>2021-05-20T13:36:36Z</time><name>PT9505</name></trkpt>
<trkpt lat="53.335724" lon="06.589093"><ele>1.2</ele><time>2021-05-20T13:36:37Z</time><name>PT9506</name></trkpt>
<trkpt lat="53.335726" lon="06.589112"><ele>1.2</ele><time>2021-05-20T13:36:38Z</time><name>PT9507</name></trkpt>
<trkpt lat="53.335730" lon="06.589131"><ele>1.1</ele><time>2021-05-20T13:36:39Z</time><name>PT9508</name></trkpt>
<trkpt lat="53.335732" lon="06.589150"><ele>1</ele><time>2021-05-20T13:36:40Z</time><name>PT9509</name></trkpt>
<trkpt lat="53.335732" lon="06.589167"><ele>0.8</ele><time>2021-05-20T13:36:41Z</time><name>PT9510</name></trkpt>
<trkpt lat="53.335733" lon="06.589186"><ele>0.9</ele><time>2021-05-20T13:36:42Z</time><name>PT9511</name></trkpt>
<trkpt lat="53.335734" lon="06.589204"><ele>0.8</ele><time>2021-05-20T13:36:43Z</time><name>PT9512</name></trkpt>
<trkpt lat="53.335735" lon="06.589221"><ele>1</ele><time>2021-05-20T13:36:44Z</time><name>PT9513</name></trkpt>
<trkpt lat="53.335735" lon="06.589238"><ele>1</ele><time>2021-05-20T13:36:45Z</time><name>PT9514</name></trkpt>
<trkpt lat="53.335736" lon="06.589256"><ele>1.1</ele><time>2021-05-20T13:36:46Z</time><name>PT9515</name></trkpt>
<trkpt lat="53.335738" lon="06.589273"><ele>1.2</ele><time>2021-05-20T13:36:47Z</time><name>PT9516</name></trkpt>
<trkpt lat="53.335740" lon="06.589291"><ele>1.2</ele><time>2021-05-20T13:36:48Z</time><name>PT9517</name></trkpt>
<trkpt lat="53.335740" lon="06.589309"><ele>1.2</ele><time>2021-05-20T13:36:49Z</time><name>PT9518</name></trkpt>
<trkpt lat="53.335739" lon="06.589329"><ele>1.1</ele><time>2021-05-20T13:36:50Z</time><name>PT9519</name></trkpt>
<trkpt lat="53.335738" lon="06.589351"><ele>1.1</ele><time>2021-05-20T13:36:51Z</time><name>PT9520</name></trkpt>
<trkpt lat="53.335739" lon="06.589372"><ele>1.2</ele><time>2021-05-20T13:36:52Z</time><name>PT9521</name></trkpt>
<trkpt lat="53.335737" lon="06.589390"><ele>1.2</ele><time>2021-05-20T13:36:53Z</time><name>PT9522</name></trkpt>
<trkpt lat="53.335735" lon="06.589409"><ele>1.2</ele><time>2021-05-20T13:36:54Z</time><name>PT9523</name></trkpt>
<trkpt lat="53.335734" lon="06.589424"><ele>1.1</ele><time>2021-05-20T13:36:55Z</time><name>PT9524</name></trkpt>
<trkpt lat="53.335732" lon="06.589439"><ele>1</ele><time>2021-05-20T13:36:56Z</time><name>PT9525</name></trkpt>
<trkpt lat="53.335730" lon="06.589458"><ele>1</ele><time>2021-05-20T13:36:57Z</time><name>PT9526</name></trkpt>
<trkpt lat="53.335727" lon="06.589475"><ele>0.9</ele><time>2021-05-20T13:36:58Z</time><name>PT9527</name></trkpt>
<trkpt lat="53.335728" lon="06.589485"><ele>1</ele><time>2021-05-20T13:36:59Z</time><name>PT9528</name></trkpt>
<trkpt lat="53.335726" lon="06.589493"><ele>0.9</ele><time>2021-05-20T13:37:00Z</time><name>PT9529</name></trkpt>
<trkpt lat="53.335724" lon="06.589506"><ele>0.9</ele><time>2021-05-20T13:37:01Z</time><name>PT9530</name></trkpt>
<trkpt lat="53.335721" lon="06.589524"><ele>0.8</ele><time>2021-05-20T13:37:02Z</time><name>PT9531</name></trkpt>
<trkpt lat="53.335718" lon="06.589545"><ele>0.7</ele><time>2021-05-20T13:37:03Z</time><name>PT9532</name></trkpt>
<trkpt lat="53.335714" lon="06.589566"><ele>0.7</ele><time>2021-05-20T13:37:04Z</time><name>PT9533</name></trkpt>
<trkpt lat="53.335711" lon="06.589582"><ele>0.7</ele><time>2021-05-20T13:37:05Z</time><name>PT9534</name></trkpt>
<trkpt lat="53.335708" lon="06.589595"><ele>0.7</ele><time>2021-05-20T13:37:06Z</time><name>PT9535</name></trkpt>
<trkpt lat="53.335707" lon="06.589608"><ele>0.7</ele><time>2021-05-20T13:37:07Z</time><name>PT9536</name></trkpt>
<trkpt lat="53.335705" lon="06.589623"><ele>0.7</ele><time>2021-05-20T13:37:08Z</time><name>PT9537</name></trkpt>
<trkpt lat="53.335702" lon="06.589635"><ele>0.6</ele><time>2021-05-20T13:37:09Z</time><name>PT9538</name></trkpt>
<trkpt lat="53.335696" lon="06.589652"><ele>0.6</ele><time>2021-05-20T13:37:10Z</time><name>PT9539</name></trkpt>
<trkpt lat="53.335691" lon="06.589670"><ele>0.6</ele><time>2021-05-20T13:37:11Z</time><name>PT9540</name></trkpt>
<trkpt lat="53.335687" lon="06.589688"><ele>0.7</ele><time>2021-05-20T13:37:12Z</time><name>PT9541</name></trkpt>
<trkpt lat="53.335685" lon="06.589703"><ele>0.6</ele><time>2021-05-20T13:37:13Z</time><name>PT9542</name></trkpt>
<trkpt lat="53.335685" lon="06.589717"><ele>0.5</ele><time>2021-05-20T13:37:14Z</time><name>PT9543</name></trkpt>
<trkpt lat="53.335685" lon="06.589730"><ele>0.4</ele><time>2021-05-20T13:37:15Z</time><name>PT9544</name></trkpt>
<trkpt lat="53.335682" lon="06.589743"><ele>0.3</ele><time>2021-05-20T13:37:16Z</time><name>PT9545</name></trkpt>
<trkpt lat="53.335679" lon="06.589754"><ele>0.3</ele><time>2021-05-20T13:37:17Z</time><name>PT9546</name></trkpt>
<trkpt lat="53.335676" lon="06.589771"><ele>0.4</ele><time>2021-05-20T13:37:18Z</time><name>PT9547</name></trkpt>
<trkpt lat="53.335673" lon="06.589787"><ele>0.7</ele><time>2021-05-20T13:37:19Z</time><name>PT9548</name></trkpt>
<trkpt lat="53.335670" lon="06.589805"><ele>0.7</ele><time>2021-05-20T13:37:20Z</time><name>PT9549</name></trkpt>
<trkpt lat="53.335667" lon="06.589818"><ele>0.7</ele><time>2021-05-20T13:37:21Z</time><name>PT9550</name></trkpt>
<trkpt lat="53.335664" lon="06.589832"><ele>0.7</ele><time>2021-05-20T13:37:22Z</time><name>PT9551</name></trkpt>
<trkpt lat="53.335658" lon="06.589847"><ele>0.7</ele><time>2021-05-20T13:37:23Z</time><name>PT9552</name></trkpt>
<trkpt lat="53.335650" lon="06.589866"><ele>0.7</ele><time>2021-05-20T13:37:24Z</time><name>PT9553</name></trkpt>
<trkpt lat="53.335646" lon="06.589880"><ele>0.7</ele><time>2021-05-20T13:37:25Z</time><name>PT9554</name></trkpt>
<trkpt lat="53.335642" lon="06.589888"><ele>0.6</ele><time>2021-05-20T13:37:26Z</time><name>PT9555</name></trkpt>
<trkpt lat="53.335638" lon="06.589895"><ele>0.7</ele><time>2021-05-20T13:37:27Z</time><name>PT9556</name></trkpt>
<trkpt lat="53.335634" lon="06.589905"><ele>0.7</ele><time>2021-05-20T13:37:28Z</time><name>PT9557</name></trkpt>
<trkpt lat="53.335631" lon="06.589916"><ele>0.7</ele><time>2021-05-20T13:37:29Z</time><name>PT9558</name></trkpt>
<trkpt lat="53.335626" lon="06.589921"><ele>0.7</ele><time>2021-05-20T13:37:30Z</time><name>PT9559</name></trkpt>
<trkpt lat="53.335624" lon="06.589926"><ele>0.5</ele><time>2021-05-20T13:37:31Z</time><name>PT9560</name></trkpt>
<trkpt lat="53.335621" lon="06.589929"><ele>0.4</ele><time>2021-05-20T13:37:32Z</time><name>PT9561</name></trkpt>
<trkpt lat="53.335618" lon="06.589935"><ele>0.5</ele><time>2021-05-20T13:37:33Z</time><name>PT9562</name></trkpt>
<trkpt lat="53.335617" lon="06.589939"><ele>0.4</ele><time>2021-05-20T13:37:34Z</time><name>PT9563</name></trkpt>
<trkpt lat="53.335617" lon="06.589943"><ele>0.6</ele><time>2021-05-20T13:37:35Z</time><name>PT9564</name></trkpt>
<trkpt lat="53.335617" lon="06.589947"><ele>0.8</ele><time>2021-05-20T13:37:36Z</time><name>PT9565</name></trkpt>
<trkpt lat="53.335617" lon="06.589957"><ele>0.7</ele><time>2021-05-20T13:37:39Z</time><name>PT9566</name></trkpt>
<trkpt lat="53.335614" lon="06.589988"><ele>0.7</ele><time>2021-05-20T13:37:40Z</time><name>PT9567</name></trkpt>
<trkpt lat="53.335608" lon="06.590004"><ele>0.5</ele><time>2021-05-20T13:37:41Z</time><name>PT9568</name></trkpt>
<trkpt lat="53.335606" lon="06.590025"><ele>0.6</ele><time>2021-05-20T13:37:42Z</time><name>PT9569</name></trkpt>
<trkpt lat="53.335603" lon="06.590041"><ele>0.5</ele><time>2021-05-20T13:37:43Z</time><name>PT9570</name></trkpt>
<trkpt lat="53.335601" lon="06.590057"><ele>0.5</ele><time>2021-05-20T13:37:44Z</time><name>PT9571</name></trkpt>
<trkpt lat="53.335597" lon="06.590074"><ele>0.6</ele><time>2021-05-20T13:37:45Z</time><name>PT9572</name></trkpt>
<trkpt lat="53.335593" lon="06.590088"><ele>0.7</ele><time>2021-05-20T13:37:46Z</time><name>PT9573</name></trkpt>
<trkpt lat="53.335592" lon="06.590106"><ele>0.7</ele><time>2021-05-20T13:37:47Z</time><name>PT9574</name></trkpt>
<trkpt lat="53.335588" lon="06.590121"><ele>1</ele><time>2021-05-20T13:37:48Z</time><name>PT9575</name></trkpt>
<trkpt lat="53.335583" lon="06.590136"><ele>0.9</ele><time>2021-05-20T13:37:49Z</time><name>PT9576</name></trkpt>
<trkpt lat="53.335577" lon="06.590152"><ele>0.9</ele><time>2021-05-20T13:37:50Z</time><name>PT9577</name></trkpt>
<trkpt lat="53.335568" lon="06.590170"><ele>1</ele><time>2021-05-20T13:37:51Z</time><name>PT9578</name></trkpt>
<trkpt lat="53.335561" lon="06.590190"><ele>1</ele><time>2021-05-20T13:37:52Z</time><name>PT9579</name></trkpt>
<trkpt lat="53.335560" lon="06.590202"><ele>0.8</ele><time>2021-05-20T13:37:53Z</time><name>PT9580</name></trkpt>
<trkpt lat="53.335560" lon="06.590211"><ele>0.8</ele><time>2021-05-20T13:37:54Z</time><name>PT9581</name></trkpt>
<trkpt lat="53.335556" lon="06.590220"><ele>1</ele><time>2021-05-20T13:37:55Z</time><name>PT9582</name></trkpt>
<trkpt lat="53.335555" lon="06.590220"><ele>0.9</ele><time>2021-05-20T13:37:56Z</time><name>PT9583</name></trkpt>
<trkpt lat="53.335556" lon="06.590225"><ele>0.8</ele><time>2021-05-20T13:37:57Z</time><name>PT9584</name></trkpt>
<trkpt lat="53.335557" lon="06.590233"><ele>0.8</ele><time>2021-05-20T13:37:58Z</time><name>PT9585</name></trkpt>
<trkpt lat="53.335557" lon="06.590245"><ele>0.7</ele><time>2021-05-20T13:37:59Z</time><name>PT9586</name></trkpt>
<trkpt lat="53.335555" lon="06.590255"><ele>0.7</ele><time>2021-05-20T13:38:00Z</time><name>PT9587</name></trkpt>
<trkpt lat="53.335548" lon="06.590270"><ele>0.7</ele><time>2021-05-20T13:38:01Z</time><name>PT9588</name></trkpt>
<trkpt lat="53.335543" lon="06.590289"><ele>0.7</ele><time>2021-05-20T13:38:02Z</time><name>PT9589</name></trkpt>
<trkpt lat="53.335540" lon="06.590300"><ele>0.8</ele><time>2021-05-20T13:38:03Z</time><name>PT9590</name></trkpt>
<trkpt lat="53.335537" lon="06.590310"><ele>0.8</ele><time>2021-05-20T13:38:04Z</time><name>PT9591</name></trkpt>
<trkpt lat="53.335535" lon="06.590319"><ele>0.8</ele><time>2021-05-20T13:38:05Z</time><name>PT9592</name></trkpt>
<trkpt lat="53.335531" lon="06.590331"><ele>0.9</ele><time>2021-05-20T13:38:06Z</time><name>PT9593</name></trkpt>
<trkpt lat="53.335529" lon="06.590349"><ele>0.8</ele><time>2021-05-20T13:38:07Z</time><name>PT9594</name></trkpt>
<trkpt lat="53.335529" lon="06.590369"><ele>0.9</ele><time>2021-05-20T13:38:08Z</time><name>PT9595</name></trkpt>
<trkpt lat="53.335527" lon="06.590387"><ele>0.9</ele><time>2021-05-20T13:38:09Z</time><name>PT9596</name></trkpt>
<trkpt lat="53.335524" lon="06.590398"><ele>0.9</ele><time>2021-05-20T13:38:10Z</time><name>PT9597</name></trkpt>
<trkpt lat="53.335522" lon="06.590409"><ele>0.9</ele><time>2021-05-20T13:38:11Z</time><name>PT9598</name></trkpt>
<trkpt lat="53.335520" lon="06.590421"><ele>0.9</ele><time>2021-05-20T13:38:12Z</time><name>PT9599</name></trkpt>
<trkpt lat="53.335521" lon="06.590434"><ele>0.8</ele><time>2021-05-20T13:38:13Z</time><name>PT9600</name></trkpt>
<trkpt lat="53.335523" lon="06.590447"><ele>0.7</ele><time>2021-05-20T13:38:14Z</time><name>PT9601</name></trkpt>
<trkpt lat="53.335525" lon="06.590464"><ele>0.7</ele><time>2021-05-20T13:38:15Z</time><name>PT9602</name></trkpt>
<trkpt lat="53.335526" lon="06.590475"><ele>0.6</ele><time>2021-05-20T13:38:16Z</time><name>PT9603</name></trkpt>
<trkpt lat="53.335523" lon="06.590482"><ele>0.4</ele><time>2021-05-20T13:38:17Z</time><name>PT9604</name></trkpt>
<trkpt lat="53.335522" lon="06.590487"><ele>0.5</ele><time>2021-05-20T13:38:18Z</time><name>PT9605</name></trkpt>
<trkpt lat="53.335522" lon="06.590488"><ele>0.6</ele><time>2021-05-20T13:38:19Z</time><name>PT9606</name></trkpt>
<trkpt lat="53.335522" lon="06.590491"><ele>0.5</ele><time>2021-05-20T13:38:20Z</time><name>PT9607</name></trkpt>
<trkpt lat="53.335520" lon="06.590496"><ele>0.6</ele><time>2021-05-20T13:38:21Z</time><name>PT9608</name></trkpt>
<trkpt lat="53.335517" lon="06.590504"><ele>0.9</ele><time>2021-05-20T13:38:29Z</time><name>PT9609</name></trkpt>
<trkpt lat="53.335513" lon="06.590517"><ele>1.2</ele><time>2021-05-20T13:38:30Z</time><name>PT9610</name></trkpt>
<trkpt lat="53.335509" lon="06.590530"><ele>1.2</ele><time>2021-05-20T13:38:31Z</time><name>PT9611</name></trkpt>
<trkpt lat="53.335510" lon="06.590527"><ele>1.2</ele><time>2021-05-20T13:38:32Z</time><name>PT9612</name></trkpt>
<trkpt lat="53.335511" lon="06.590521"><ele>1</ele><time>2021-05-20T13:38:33Z</time><name>PT9613</name></trkpt>
<trkpt lat="53.335514" lon="06.590521"><ele>0.8</ele><time>2021-05-20T13:38:34Z</time><name>PT9614</name></trkpt>
<trkpt lat="53.335518" lon="06.590529"><ele>0.7</ele><time>2021-05-20T13:38:35Z</time><name>PT9615</name></trkpt>
<trkpt lat="53.335521" lon="06.590530"><ele>0.7</ele><time>2021-05-20T13:38:36Z</time><name>PT9616</name></trkpt>
<trkpt lat="53.335519" lon="06.590530"><ele>0.7</ele><time>2021-05-20T13:38:37Z</time><name>PT9617</name></trkpt>
<trkpt lat="53.335519" lon="06.590530"><ele>0.7</ele><time>2021-05-20T13:38:38Z</time><name>PT9618</name></trkpt>
<trkpt lat="53.335515" lon="06.590552"><ele>1.2</ele><time>2021-05-20T13:38:56Z</time><name>PT9619</name></trkpt>
<trkpt lat="53.335508" lon="06.590569"><ele>1.1</ele><time>2021-05-20T13:38:57Z</time><name>PT9620</name></trkpt>
<trkpt lat="53.335505" lon="06.590571"><ele>1</ele><time>2021-05-20T13:38:58Z</time><name>PT9621</name></trkpt>
<trkpt lat="53.335507" lon="06.590571"><ele>1.1</ele><time>2021-05-20T13:38:59Z</time><name>PT9622</name></trkpt>
<trkpt lat="53.335507" lon="06.590575"><ele>1.2</ele><time>2021-05-20T13:39:00Z</time><name>PT9623</name></trkpt>
<trkpt lat="53.335512" lon="06.590580"><ele>1.2</ele><time>2021-05-20T13:39:01Z</time><name>PT9624</name></trkpt>
<trkpt lat="53.335514" lon="06.590585"><ele>1.4</ele><time>2021-05-20T13:39:02Z</time><name>PT9625</name></trkpt>
<trkpt lat="53.335518" lon="06.590587"><ele>1.4</ele><time>2021-05-20T13:39:03Z</time><name>PT9626</name></trkpt>
<trkpt lat="53.335520" lon="06.590589"><ele>1.4</ele><time>2021-05-20T13:39:04Z</time><name>PT9627</name></trkpt>
<trkpt lat="53.335514" lon="06.590597"><ele>1.2</ele><time>2021-05-20T13:39:05Z</time><name>PT9628</name></trkpt>
<trkpt lat="53.335509" lon="06.590604"><ele>1.2</ele><time>2021-05-20T13:39:06Z</time><name>PT9629</name></trkpt>
<trkpt lat="53.335503" lon="06.590611"><ele>1.2</ele><time>2021-05-20T13:39:07Z</time><name>PT9630</name></trkpt>
<trkpt lat="53.335498" lon="06.590618"><ele>1</ele><time>2021-05-20T13:39:08Z</time><name>PT9631</name></trkpt>
<trkpt lat="53.335496" lon="06.590622"><ele>1.1</ele><time>2021-05-20T13:39:09Z</time><name>PT9632</name></trkpt>
<trkpt lat="53.335496" lon="06.590630"><ele>1.2</ele><time>2021-05-20T13:39:10Z</time><name>PT9633</name></trkpt>
<trkpt lat="53.335492" lon="06.590633"><ele>1</ele><time>2021-05-20T13:39:11Z</time><name>PT9634</name></trkpt>
<trkpt lat="53.335486" lon="06.590644"><ele>1.2</ele><time>2021-05-20T13:39:12Z</time><name>PT9635</name></trkpt>
<trkpt lat="53.335481" lon="06.590651"><ele>1.2</ele><time>2021-05-20T13:39:13Z</time><name>PT9636</name></trkpt>
<trkpt lat="53.335475" lon="06.590655"><ele>1.2</ele><time>2021-05-20T13:39:14Z</time><name>PT9637</name></trkpt>
<trkpt lat="53.335471" lon="06.590658"><ele>1.2</ele><time>2021-05-20T13:39:15Z</time><name>PT9638</name></trkpt>
<trkpt lat="53.335470" lon="06.590657"><ele>1.3</ele><time>2021-05-20T13:39:16Z</time><name>PT9639</name></trkpt>
<trkpt lat="53.335472" lon="06.590657"><ele>1.3</ele><time>2021-05-20T13:39:17Z</time><name>PT9640</name></trkpt>
<trkpt lat="53.335470" lon="06.590660"><ele>1.3</ele><time>2021-05-20T13:39:18Z</time><name>PT9641</name></trkpt>
<trkpt lat="53.335470" lon="06.590662"><ele>1.4</ele><time>2021-05-20T13:39:19Z</time><name>PT9642</name></trkpt>
<trkpt lat="53.335471" lon="06.590663"><ele>1.3</ele><time>2021-05-20T13:39:20Z</time><name>PT9643</name></trkpt>
<trkpt lat="53.335470" lon="06.590665"><ele>1.4</ele><time>2021-05-20T13:39:21Z</time><name>PT9644</name></trkpt>
<trkpt lat="53.335470" lon="06.590667"><ele>1.5</ele><time>2021-05-20T13:39:22Z</time><name>PT9645</name></trkpt>
<trkpt lat="53.335469" lon="06.590670"><ele>1.2</ele><time>2021-05-20T13:39:23Z</time><name>PT9646</name></trkpt>
<trkpt lat="53.335469" lon="06.590668"><ele>1.2</ele><time>2021-05-20T13:39:25Z</time><name>PT9647</name></trkpt>
<trkpt lat="53.335470" lon="06.590667"><ele>1.1</ele><time>2021-05-20T13:39:26Z</time><name>PT9648</name></trkpt>
<trkpt lat="53.335470" lon="06.590667"><ele>1.1</ele><time>2021-05-20T13:39:27Z</time><name>PT9649</name></trkpt>
<trkpt lat="53.335465" lon="06.590673"><ele>1.4</ele><time>2021-05-20T13:39:40Z</time><name>PT9650</name></trkpt>
<trkpt lat="53.335463" lon="06.590672"><ele>1.3</ele><time>2021-05-20T13:39:41Z</time><name>PT9651</name></trkpt>
<trkpt lat="53.335466" lon="06.590674"><ele>1.2</ele><time>2021-05-20T13:39:42Z</time><name>PT9652</name></trkpt>
<trkpt lat="53.335466" lon="06.590675"><ele>1.2</ele><time>2021-05-20T13:39:43Z</time><name>PT9653</name></trkpt>
<trkpt lat="53.335471" lon="06.590678"><ele>1.4</ele><time>2021-05-20T13:39:53Z</time><name>PT9654</name></trkpt>
<trkpt lat="53.335468" lon="06.590689"><ele>1.5</ele><time>2021-05-20T13:39:54Z</time><name>PT9655</name></trkpt>
<trkpt lat="53.335465" lon="06.590701"><ele>1.6</ele><time>2021-05-20T13:39:55Z</time><name>PT9656</name></trkpt>
<trkpt lat="53.335470" lon="06.590717"><ele>1.8</ele><time>2021-05-20T13:39:56Z</time><name>PT9657</name></trkpt>
<trkpt lat="53.335472" lon="06.590726"><ele>1.9</ele><time>2021-05-20T13:39:57Z</time><name>PT9658</name></trkpt>
<trkpt lat="53.335473" lon="06.590721"><ele>1.9</ele><time>2021-05-20T13:39:58Z</time><name>PT9659</name></trkpt>
<trkpt lat="53.335472" lon="06.590720"><ele>1.8</ele><time>2021-05-20T13:39:59Z</time><name>PT9660</name></trkpt>
<trkpt lat="53.335475" lon="06.590720"><ele>1.7</ele><time>2021-05-20T13:40:00Z</time><name>PT9661</name></trkpt>
<trkpt lat="53.335473" lon="06.590724"><ele>1.6</ele><time>2021-05-20T13:40:11Z</time><name>PT9662</name></trkpt>
<trkpt lat="53.335477" lon="06.590719"><ele>1.5</ele><time>2021-05-20T13:40:12Z</time><name>PT9663</name></trkpt>
<trkpt lat="53.335481" lon="06.590724"><ele>1.4</ele><time>2021-05-20T13:40:13Z</time><name>PT9664</name></trkpt>
<trkpt lat="53.335481" lon="06.590731"><ele>1.2</ele><time>2021-05-20T13:40:14Z</time><name>PT9665</name></trkpt>
<trkpt lat="53.335481" lon="06.590732"><ele>1.1</ele><time>2021-05-20T13:40:15Z</time><name>PT9666</name></trkpt>
<trkpt lat="53.335482" lon="06.590728"><ele>1.2</ele><time>2021-05-20T13:40:16Z</time><name>PT9667</name></trkpt>
<trkpt lat="53.335486" lon="06.590726"><ele>1.2</ele><time>2021-05-20T13:40:17Z</time><name>PT9668</name></trkpt>
<trkpt lat="53.335489" lon="06.590726"><ele>1.4</ele><time>2021-05-20T13:40:18Z</time><name>PT9669</name></trkpt>
<trkpt lat="53.335496" lon="06.590728"><ele>1.5</ele><time>2021-05-20T13:40:19Z</time><name>PT9670</name></trkpt>
<trkpt lat="53.335504" lon="06.590732"><ele>1.6</ele><time>2021-05-20T13:40:20Z</time><name>PT9671</name></trkpt>
<trkpt lat="53.335518" lon="06.590734"><ele>1.7</ele><time>2021-05-20T13:40:21Z</time><name>PT9672</name></trkpt>
<trkpt lat="53.335532" lon="06.590736"><ele>1.7</ele><time>2021-05-20T13:40:22Z</time><name>PT9673</name></trkpt>
<trkpt lat="53.335543" lon="06.590738"><ele>1.6</ele><time>2021-05-20T13:40:23Z</time><name>PT9674</name></trkpt>
<trkpt lat="53.335550" lon="06.590741"><ele>1.7</ele><time>2021-05-20T13:40:24Z</time><name>PT9675</name></trkpt>
<trkpt lat="53.335550" lon="06.590746"><ele>1.7</ele><time>2021-05-20T13:40:25Z</time><name>PT9676</name></trkpt>
<trkpt lat="53.335552" lon="06.590747"><ele>1.8</ele><time>2021-05-20T13:40:26Z</time><name>PT9677</name></trkpt>
<trkpt lat="53.335555" lon="06.590746"><ele>1.7</ele><time>2021-05-20T13:40:27Z</time><name>PT9678</name></trkpt>
<trkpt lat="53.335558" lon="06.590745"><ele>1.6</ele><time>2021-05-20T13:40:28Z</time><name>PT9679</name></trkpt>
<trkpt lat="53.335565" lon="06.590751"><ele>1.7</ele><time>2021-05-20T13:40:29Z</time><name>PT9680</name></trkpt>
<trkpt lat="53.335573" lon="06.590757"><ele>1.5</ele><time>2021-05-20T13:40:30Z</time><name>PT9681</name></trkpt>
<trkpt lat="53.335580" lon="06.590762"><ele>1.5</ele><time>2021-05-20T13:40:31Z</time><name>PT9682</name></trkpt>
<trkpt lat="53.335586" lon="06.590764"><ele>1.6</ele><time>2021-05-20T13:40:32Z</time><name>PT9683</name></trkpt>
<trkpt lat="53.335592" lon="06.590765"><ele>1.6</ele><time>2021-05-20T13:40:33Z</time><name>PT9684</name></trkpt>
<trkpt lat="53.335599" lon="06.590765"><ele>1.5</ele><time>2021-05-20T13:40:34Z</time><name>PT9685</name></trkpt>
<trkpt lat="53.335604" lon="06.590766"><ele>1.5</ele><time>2021-05-20T13:40:35Z</time><name>PT9686</name></trkpt>
<trkpt lat="53.335609" lon="06.590769"><ele>1.7</ele><time>2021-05-20T13:40:36Z</time><name>PT9687</name></trkpt>
<trkpt lat="53.335609" lon="06.590770"><ele>1.8</ele><time>2021-05-20T13:40:37Z</time><name>PT9688</name></trkpt>
<trkpt lat="53.335612" lon="06.590771"><ele>1.8</ele><time>2021-05-20T13:40:38Z</time><name>PT9689</name></trkpt>
<trkpt lat="53.335611" lon="06.590770"><ele>1.9</ele><time>2021-05-20T13:40:39Z</time><name>PT9690</name></trkpt>
<trkpt lat="53.335616" lon="06.590770"><ele>2.3</ele><time>2021-05-20T13:40:44Z</time><name>PT9691</name></trkpt>
<trkpt lat="53.335617" lon="06.590767"><ele>2.3</ele><time>2021-05-20T13:40:45Z</time><name>PT9692</name></trkpt>
<trkpt lat="53.335615" lon="06.590764"><ele>2.2</ele><time>2021-05-20T13:40:46Z</time><name>PT9693</name></trkpt>
<trkpt lat="53.335614" lon="06.590763"><ele>2.1</ele><time>2021-05-20T13:40:47Z</time><name>PT9694</name></trkpt>
<trkpt lat="53.335614" lon="06.590766"><ele>2.1</ele><time>2021-05-20T13:40:48Z</time><name>PT9695</name></trkpt>
<trkpt lat="53.335614" lon="06.590764"><ele>2</ele><time>2021-05-20T13:40:49Z</time><name>PT9696</name></trkpt>
<trkpt lat="53.335613" lon="06.590761"><ele>2</ele><time>2021-05-20T13:40:50Z</time><name>PT9697</name></trkpt>
<trkpt lat="53.335613" lon="06.590758"><ele>1.8</ele><time>2021-05-20T13:40:51Z</time><name>PT9698</name></trkpt>
<trkpt lat="53.335617" lon="06.590756"><ele>1.7</ele><time>2021-05-20T13:40:52Z</time><name>PT9699</name></trkpt>
<trkpt lat="53.335624" lon="06.590763"><ele>1.6</ele><time>2021-05-20T13:40:53Z</time><name>PT9700</name></trkpt>
<trkpt lat="53.335632" lon="06.590765"><ele>1.6</ele><time>2021-05-20T13:40:54Z</time><name>PT9701</name></trkpt>
<trkpt lat="53.335638" lon="06.590768"><ele>1.7</ele><time>2021-05-20T13:40:55Z</time><name>PT9702</name></trkpt>
<trkpt lat="53.335644" lon="06.590772"><ele>1.7</ele><time>2021-05-20T13:40:56Z</time><name>PT9703</name></trkpt>
<trkpt lat="53.335651" lon="06.590779"><ele>1.6</ele><time>2021-05-20T13:40:57Z</time><name>PT9704</name></trkpt>
<trkpt lat="53.335659" lon="06.590781"><ele>1.7</ele><time>2021-05-20T13:40:58Z</time><name>PT9705</name></trkpt>
<trkpt lat="53.335670" lon="06.590787"><ele>1.7</ele><time>2021-05-20T13:40:59Z</time><name>PT9706</name></trkpt>
<trkpt lat="53.335678" lon="06.590793"><ele>1.6</ele><time>2021-05-20T13:41:00Z</time><name>PT9707</name></trkpt>
<trkpt lat="53.335680" lon="06.590798"><ele>1.7</ele><time>2021-05-20T13:41:01Z</time><name>PT9708</name></trkpt>
<trkpt lat="53.335683" lon="06.590800"><ele>1.8</ele><time>2021-05-20T13:41:02Z</time><name>PT9709</name></trkpt>
<trkpt lat="53.335691" lon="06.590807"><ele>1.8</ele><time>2021-05-20T13:41:03Z</time><name>PT9710</name></trkpt>
<trkpt lat="53.335703" lon="06.590818"><ele>1.8</ele><time>2021-05-20T13:41:04Z</time><name>PT9711</name></trkpt>
<trkpt lat="53.335716" lon="06.590831"><ele>1.9</ele><time>2021-05-20T13:41:05Z</time><name>PT9712</name></trkpt>
<trkpt lat="53.335726" lon="06.590844"><ele>1.8</ele><time>2021-05-20T13:41:06Z</time><name>PT9713</name></trkpt>
<trkpt lat="53.335736" lon="06.590851"><ele>1.7</ele><time>2021-05-20T13:41:07Z</time><name>PT9714</name></trkpt>
<trkpt lat="53.335743" lon="06.590859"><ele>1.6</ele><time>2021-05-20T13:41:08Z</time><name>PT9715</name></trkpt>
<trkpt lat="53.335748" lon="06.590868"><ele>1.4</ele><time>2021-05-20T13:41:09Z</time><name>PT9716</name></trkpt>
<trkpt lat="53.335753" lon="06.590880"><ele>1.5</ele><time>2021-05-20T13:41:10Z</time><name>PT9717</name></trkpt>
<trkpt lat="53.335757" lon="06.590895"><ele>1.6</ele><time>2021-05-20T13:41:11Z</time><name>PT9718</name></trkpt>
<trkpt lat="53.335763" lon="06.590913"><ele>1.6</ele><time>2021-05-20T13:41:12Z</time><name>PT9719</name></trkpt>
<trkpt lat="53.335767" lon="06.590927"><ele>1.8</ele><time>2021-05-20T13:41:13Z</time><name>PT9720</name></trkpt>
<trkpt lat="53.335770" lon="06.590937"><ele>1.9</ele><time>2021-05-20T13:41:14Z</time><name>PT9721</name></trkpt>
<trkpt lat="53.335770" lon="06.590938"><ele>1.9</ele><time>2021-05-20T13:41:15Z</time><name>PT9722</name></trkpt>
<trkpt lat="53.335768" lon="06.590939"><ele>2.1</ele><time>2021-05-20T13:41:16Z</time><name>PT9723</name></trkpt>
<trkpt lat="53.335769" lon="06.590942"><ele>2.1</ele><time>2021-05-20T13:41:17Z</time><name>PT9724</name></trkpt>
<trkpt lat="53.335770" lon="06.590947"><ele>2.5</ele><time>2021-05-20T13:41:26Z</time><name>PT9725</name></trkpt>
<trkpt lat="53.335773" lon="06.590963"><ele>2.5</ele><time>2021-05-20T13:41:27Z</time><name>PT9726</name></trkpt>
<trkpt lat="53.335776" lon="06.590977"><ele>2.5</ele><time>2021-05-20T13:41:28Z</time><name>PT9727</name></trkpt>
<trkpt lat="53.335779" lon="06.590986"><ele>2.5</ele><time>2021-05-20T13:41:29Z</time><name>PT9728</name></trkpt>
<trkpt lat="53.335780" lon="06.590987"><ele>2.3</ele><time>2021-05-20T13:41:30Z</time><name>PT9729</name></trkpt>
<trkpt lat="53.335782" lon="06.590986"><ele>2.4</ele><time>2021-05-20T13:41:31Z</time><name>PT9730</name></trkpt>
<trkpt lat="53.335783" lon="06.590986"><ele>2.3</ele><time>2021-05-20T13:41:32Z</time><name>PT9731</name></trkpt>
<trkpt lat="53.335784" lon="06.590994"><ele>2.3</ele><time>2021-05-20T13:41:41Z</time><name>PT9732</name></trkpt>
<trkpt lat="53.335784" lon="06.591006"><ele>2.3</ele><time>2021-05-20T13:41:42Z</time><name>PT9733</name></trkpt>
<trkpt lat="53.335783" lon="06.591023"><ele>2.3</ele><time>2021-05-20T13:41:43Z</time><name>PT9734</name></trkpt>
<trkpt lat="53.335786" lon="06.591043"><ele>2.2</ele><time>2021-05-20T13:41:44Z</time><name>PT9735</name></trkpt>
<trkpt lat="53.335786" lon="06.591069"><ele>2.3</ele><time>2021-05-20T13:41:45Z</time><name>PT9736</name></trkpt>
<trkpt lat="53.335787" lon="06.591096"><ele>2.1</ele><time>2021-05-20T13:41:46Z</time><name>PT9737</name></trkpt>
<trkpt lat="53.335789" lon="06.591120"><ele>2.2</ele><time>2021-05-20T13:41:47Z</time><name>PT9738</name></trkpt>
<trkpt lat="53.335790" lon="06.591136"><ele>2.2</ele><time>2021-05-20T13:41:48Z</time><name>PT9739</name></trkpt>
<trkpt lat="53.335792" lon="06.591151"><ele>2.3</ele><time>2021-05-20T13:41:49Z</time><name>PT9740</name></trkpt>
<trkpt lat="53.335793" lon="06.591164"><ele>2.3</ele><time>2021-05-20T13:41:50Z</time><name>PT9741</name></trkpt>
<trkpt lat="53.335794" lon="06.591181"><ele>2.4</ele><time>2021-05-20T13:41:51Z</time><name>PT9742</name></trkpt>
<trkpt lat="53.335793" lon="06.591200"><ele>2.3</ele><time>2021-05-20T13:41:52Z</time><name>PT9743</name></trkpt>
<trkpt lat="53.335793" lon="06.591222"><ele>2.2</ele><time>2021-05-20T13:41:53Z</time><name>PT9744</name></trkpt>
<trkpt lat="53.335795" lon="06.591242"><ele>2.1</ele><time>2021-05-20T13:41:54Z</time><name>PT9745</name></trkpt>
<trkpt lat="53.335798" lon="06.591257"><ele>2.1</ele><time>2021-05-20T13:41:55Z</time><name>PT9746</name></trkpt>
<trkpt lat="53.335802" lon="06.591269"><ele>2.1</ele><time>2021-05-20T13:41:56Z</time><name>PT9747</name></trkpt>
<trkpt lat="53.335805" lon="06.591282"><ele>2</ele><time>2021-05-20T13:41:57Z</time><name>PT9748</name></trkpt>
<trkpt lat="53.335807" lon="06.591296"><ele>2.2</ele><time>2021-05-20T13:41:58Z</time><name>PT9749</name></trkpt>
<trkpt lat="53.335807" lon="06.591312"><ele>2.1</ele><time>2021-05-20T13:41:59Z</time><name>PT9750</name></trkpt>
<trkpt lat="53.335805" lon="06.591334"><ele>2.3</ele><time>2021-05-20T13:42:00Z</time><name>PT9751</name></trkpt>
<trkpt lat="53.335808" lon="06.591357"><ele>2.2</ele><time>2021-05-20T13:42:01Z</time><name>PT9752</name></trkpt>
<trkpt lat="53.335809" lon="06.591374"><ele>2.4</ele><time>2021-05-20T13:42:02Z</time><name>PT9753</name></trkpt>
<trkpt lat="53.335812" lon="06.591390"><ele>2.4</ele><time>2021-05-20T13:42:03Z</time><name>PT9754</name></trkpt>
<trkpt lat="53.335813" lon="06.591405"><ele>2.2</ele><time>2021-05-20T13:42:04Z</time><name>PT9755</name></trkpt>
<trkpt lat="53.335814" lon="06.591420"><ele>2.2</ele><time>2021-05-20T13:42:05Z</time><name>PT9756</name></trkpt>
<trkpt lat="53.335817" lon="06.591438"><ele>2.1</ele><time>2021-05-20T13:42:06Z</time><name>PT9757</name></trkpt>
<trkpt lat="53.335818" lon="06.591456"><ele>2.2</ele><time>2021-05-20T13:42:07Z</time><name>PT9758</name></trkpt>
<trkpt lat="53.335815" lon="06.591480"><ele>2.2</ele><time>2021-05-20T13:42:08Z</time><name>PT9759</name></trkpt>
<trkpt lat="53.335813" lon="06.591507"><ele>2.1</ele><time>2021-05-20T13:42:09Z</time><name>PT9760</name></trkpt>
<trkpt lat="53.335811" lon="06.591527"><ele>2.1</ele><time>2021-05-20T13:42:10Z</time><name>PT9761</name></trkpt>
<trkpt lat="53.335813" lon="06.591540"><ele>2</ele><time>2021-05-20T13:42:11Z</time><name>PT9762</name></trkpt>
<trkpt lat="53.335811" lon="06.591557"><ele>2</ele><time>2021-05-20T13:42:12Z</time><name>PT9763</name></trkpt>
<trkpt lat="53.335813" lon="06.591570"><ele>2.1</ele><time>2021-05-20T13:42:13Z</time><name>PT9764</name></trkpt>
<trkpt lat="53.335812" lon="06.591585"><ele>2</ele><time>2021-05-20T13:42:14Z</time><name>PT9765</name></trkpt>
<trkpt lat="53.335810" lon="06.591606"><ele>2.1</ele><time>2021-05-20T13:42:15Z</time><name>PT9766</name></trkpt>
<trkpt lat="53.335810" lon="06.591633"><ele>2.1</ele><time>2021-05-20T13:42:16Z</time><name>PT9767</name></trkpt>
<trkpt lat="53.335809" lon="06.591658"><ele>1.9</ele><time>2021-05-20T13:42:17Z</time><name>PT9768</name></trkpt>
<trkpt lat="53.335807" lon="06.591683"><ele>1.9</ele><time>2021-05-20T13:42:18Z</time><name>PT9769</name></trkpt>
<trkpt lat="53.335807" lon="06.591701"><ele>2.1</ele><time>2021-05-20T13:42:19Z</time><name>PT9770</name></trkpt>
<trkpt lat="53.335807" lon="06.591713"><ele>2.1</ele><time>2021-05-20T13:42:20Z</time><name>PT9771</name></trkpt>
<trkpt lat="53.335807" lon="06.591726"><ele>2</ele><time>2021-05-20T13:42:21Z</time><name>PT9772</name></trkpt>
<trkpt lat="53.335806" lon="06.591740"><ele>2</ele><time>2021-05-20T13:42:22Z</time><name>PT9773</name></trkpt>
<trkpt lat="53.335804" lon="06.591755"><ele>1.9</ele><time>2021-05-20T13:42:23Z</time><name>PT9774</name></trkpt>
<trkpt lat="53.335803" lon="06.591774"><ele>1.7</ele><time>2021-05-20T13:42:24Z</time><name>PT9775</name></trkpt>
<trkpt lat="53.335798" lon="06.591800"><ele>1.7</ele><time>2021-05-20T13:42:25Z</time><name>PT9776</name></trkpt>
<trkpt lat="53.335796" lon="06.591824"><ele>1.7</ele><time>2021-05-20T13:42:26Z</time><name>PT9777</name></trkpt>
<trkpt lat="53.335793" lon="06.591846"><ele>1.7</ele><time>2021-05-20T13:42:27Z</time><name>PT9778</name></trkpt>
<trkpt lat="53.335791" lon="06.591863"><ele>1.7</ele><time>2021-05-20T13:42:28Z</time><name>PT9779</name></trkpt>
<trkpt lat="53.335794" lon="06.591874"><ele>1.8</ele><time>2021-05-20T13:42:29Z</time><name>PT9780</name></trkpt>
<trkpt lat="53.335794" lon="06.591885"><ele>1.9</ele><time>2021-05-20T13:42:30Z</time><name>PT9781</name></trkpt>
<trkpt lat="53.335792" lon="06.591899"><ele>1.9</ele><time>2021-05-20T13:42:31Z</time><name>PT9782</name></trkpt>
<trkpt lat="53.335791" lon="06.591919"><ele>1.8</ele><time>2021-05-20T13:42:32Z</time><name>PT9783</name></trkpt>
<trkpt lat="53.335795" lon="06.591944"><ele>1.7</ele><time>2021-05-20T13:42:33Z</time><name>PT9784</name></trkpt>
<trkpt lat="53.335793" lon="06.591966"><ele>1.7</ele><time>2021-05-20T13:42:34Z</time><name>PT9785</name></trkpt>
<trkpt lat="53.335791" lon="06.591982"><ele>1.9</ele><time>2021-05-20T13:42:35Z</time><name>PT9786</name></trkpt>
<trkpt lat="53.335792" lon="06.591995"><ele>1.9</ele><time>2021-05-20T13:42:36Z</time><name>PT9787</name></trkpt>
<trkpt lat="53.335791" lon="06.592008"><ele>1.8</ele><time>2021-05-20T13:42:37Z</time><name>PT9788</name></trkpt>
<trkpt lat="53.335789" lon="06.592022"><ele>1.8</ele><time>2021-05-20T13:42:38Z</time><name>PT9789</name></trkpt>
<trkpt lat="53.335786" lon="06.592037"><ele>1.7</ele><time>2021-05-20T13:42:39Z</time><name>PT9790</name></trkpt>
<trkpt lat="53.335782" lon="06.592056"><ele>1.7</ele><time>2021-05-20T13:42:40Z</time><name>PT9791</name></trkpt>
<trkpt lat="53.335776" lon="06.592078"><ele>1.7</ele><time>2021-05-20T13:42:41Z</time><name>PT9792</name></trkpt>
<trkpt lat="53.335773" lon="06.592102"><ele>1.7</ele><time>2021-05-20T13:42:42Z</time><name>PT9793</name></trkpt>
<trkpt lat="53.335770" lon="06.592124"><ele>1.7</ele><time>2021-05-20T13:42:43Z</time><name>PT9794</name></trkpt>
<trkpt lat="53.335765" lon="06.592145"><ele>1.9</ele><time>2021-05-20T13:42:44Z</time><name>PT9795</name></trkpt>
<trkpt lat="53.335760" lon="06.592167"><ele>1.9</ele><time>2021-05-20T13:42:45Z</time><name>PT9796</name></trkpt>
<trkpt lat="53.335758" lon="06.592184"><ele>1.8</ele><time>2021-05-20T13:42:46Z</time><name>PT9797</name></trkpt>
<trkpt lat="53.335758" lon="06.592196"><ele>1.8</ele><time>2021-05-20T13:42:47Z</time><name>PT9798</name></trkpt>
<trkpt lat="53.335756" lon="06.592210"><ele>1.7</ele><time>2021-05-20T13:42:48Z</time><name>PT9799</name></trkpt>
<trkpt lat="53.335751" lon="06.592224"><ele>1.6</ele><time>2021-05-20T13:42:49Z</time><name>PT9800</name></trkpt>
<trkpt lat="53.335746" lon="06.592240"><ele>1.6</ele><time>2021-05-20T13:42:50Z</time><name>PT9801</name></trkpt>
<trkpt lat="53.335740" lon="06.592259"><ele>1.5</ele><time>2021-05-20T13:42:51Z</time><name>PT9802</name></trkpt>
<trkpt lat="53.335733" lon="06.592278"><ele>1.5</ele><time>2021-05-20T13:42:52Z</time><name>PT9803</name></trkpt>
<trkpt lat="53.335727" lon="06.592301"><ele>1.6</ele><time>2021-05-20T13:42:53Z</time><name>PT9804</name></trkpt>
<trkpt lat="53.335721" lon="06.592322"><ele>1.5</ele><time>2021-05-20T13:42:54Z</time><name>PT9805</name></trkpt>
<trkpt lat="53.335717" lon="06.592337"><ele>1.6</ele><time>2021-05-20T13:42:55Z</time><name>PT9806</name></trkpt>
<trkpt lat="53.335716" lon="06.592352"><ele>1.6</ele><time>2021-05-20T13:42:56Z</time><name>PT9807</name></trkpt>
<trkpt lat="53.335712" lon="06.592368"><ele>1.6</ele><time>2021-05-20T13:42:57Z</time><name>PT9808</name></trkpt>
<trkpt lat="53.335707" lon="06.592384"><ele>1.7</ele><time>2021-05-20T13:42:58Z</time><name>PT9809</name></trkpt>
<trkpt lat="53.335699" lon="06.592399"><ele>1.7</ele><time>2021-05-20T13:42:59Z</time><name>PT9810</name></trkpt>
<trkpt lat="53.335692" lon="06.592415"><ele>1.7</ele><time>2021-05-20T13:43:00Z</time><name>PT9811</name></trkpt>
<trkpt lat="53.335687" lon="06.592431"><ele>1.7</ele><time>2021-05-20T13:43:01Z</time><name>PT9812</name></trkpt>
<trkpt lat="53.335679" lon="06.592451"><ele>1.7</ele><time>2021-05-20T13:43:02Z</time><name>PT9813</name></trkpt>
<trkpt lat="53.335669" lon="06.592473"><ele>1.9</ele><time>2021-05-20T13:43:03Z</time><name>PT9814</name></trkpt>
<trkpt lat="53.335662" lon="06.592490"><ele>2</ele><time>2021-05-20T13:43:04Z</time><name>PT9815</name></trkpt>
<trkpt lat="53.335658" lon="06.592507"><ele>2</ele><time>2021-05-20T13:43:05Z</time><name>PT9816</name></trkpt>
<trkpt lat="53.335653" lon="06.592522"><ele>2.2</ele><time>2021-05-20T13:43:06Z</time><name>PT9817</name></trkpt>
<trkpt lat="53.335650" lon="06.592540"><ele>2.2</ele><time>2021-05-20T13:43:07Z</time><name>PT9818</name></trkpt>
<trkpt lat="53.335646" lon="06.592558"><ele>2.3</ele><time>2021-05-20T13:43:08Z</time><name>PT9819</name></trkpt>
<trkpt lat="53.335644" lon="06.592568"><ele>2.3</ele><time>2021-05-20T13:43:09Z</time><name>PT9820</name></trkpt>
<trkpt lat="53.335640" lon="06.592578"><ele>2.2</ele><time>2021-05-20T13:43:10Z</time><name>PT9821</name></trkpt>
<trkpt lat="53.335633" lon="06.592589"><ele>1.9</ele><time>2021-05-20T13:43:11Z</time><name>PT9822</name></trkpt>
<trkpt lat="53.335624" lon="06.592601"><ele>1.7</ele><time>2021-05-20T13:43:12Z</time><name>PT9823</name></trkpt>
<trkpt lat="53.335616" lon="06.592616"><ele>1.6</ele><time>2021-05-20T13:43:13Z</time><name>PT9824</name></trkpt>
<trkpt lat="53.335609" lon="06.592632"><ele>1.7</ele><time>2021-05-20T13:43:14Z</time><name>PT9825</name></trkpt>
<trkpt lat="53.335601" lon="06.592650"><ele>1.8</ele><time>2021-05-20T13:43:15Z</time><name>PT9826</name></trkpt>
<trkpt lat="53.335595" lon="06.592667"><ele>2</ele><time>2021-05-20T13:43:16Z</time><name>PT9827</name></trkpt>
<trkpt lat="53.335593" lon="06.592683"><ele>1.8</ele><time>2021-05-20T13:43:17Z</time><name>PT9828</name></trkpt>
<trkpt lat="53.335590" lon="06.592698"><ele>1.9</ele><time>2021-05-20T13:43:18Z</time><name>PT9829</name></trkpt>
<trkpt lat="53.335584" lon="06.592712"><ele>1.8</ele><time>2021-05-20T13:43:19Z</time><name>PT9830</name></trkpt>
<trkpt lat="53.335578" lon="06.592726"><ele>1.6</ele><time>2021-05-20T13:43:20Z</time><name>PT9831</name></trkpt>
<trkpt lat="53.335570" lon="06.592743"><ele>1.6</ele><time>2021-05-20T13:43:21Z</time><name>PT9832</name></trkpt>
<trkpt lat="53.335564" lon="06.592765"><ele>1.6</ele><time>2021-05-20T13:43:22Z</time><name>PT9833</name></trkpt>
<trkpt lat="53.335557" lon="06.592790"><ele>1.6</ele><time>2021-05-20T13:43:23Z</time><name>PT9834</name></trkpt>
<trkpt lat="53.335554" lon="06.592808"><ele>1.5</ele><time>2021-05-20T13:43:24Z</time><name>PT9835</name></trkpt>
<trkpt lat="53.335551" lon="06.592825"><ele>1.4</ele><time>2021-05-20T13:43:25Z</time><name>PT9836</name></trkpt>
<trkpt lat="53.335548" lon="06.592841"><ele>1.6</ele><time>2021-05-20T13:43:26Z</time><name>PT9837</name></trkpt>
<trkpt lat="53.335545" lon="06.592856"><ele>1.6</ele><time>2021-05-20T13:43:27Z</time><name>PT9838</name></trkpt>
<trkpt lat="53.335541" lon="06.592873"><ele>1.7</ele><time>2021-05-20T13:43:28Z</time><name>PT9839</name></trkpt>
<trkpt lat="53.335536" lon="06.592893"><ele>1.7</ele><time>2021-05-20T13:43:29Z</time><name>PT9840</name></trkpt>
<trkpt lat="53.335532" lon="06.592913"><ele>1.4</ele><time>2021-05-20T13:43:30Z</time><name>PT9841</name></trkpt>
<trkpt lat="53.335529" lon="06.592934"><ele>1.3</ele><time>2021-05-20T13:43:31Z</time><name>PT9842</name></trkpt>
<trkpt lat="53.335526" lon="06.592952"><ele>1.3</ele><time>2021-05-20T13:43:32Z</time><name>PT9843</name></trkpt>
<trkpt lat="53.335526" lon="06.592967"><ele>1.3</ele><time>2021-05-20T13:43:33Z</time><name>PT9844</name></trkpt>
<trkpt lat="53.335528" lon="06.592981"><ele>1.6</ele><time>2021-05-20T13:43:34Z</time><name>PT9845</name></trkpt>
<trkpt lat="53.335529" lon="06.592995"><ele>1.6</ele><time>2021-05-20T13:43:35Z</time><name>PT9846</name></trkpt>
<trkpt lat="53.335527" lon="06.593008"><ele>1.4</ele><time>2021-05-20T13:43:36Z</time><name>PT9847</name></trkpt>
<trkpt lat="53.335525" lon="06.593022"><ele>1.4</ele><time>2021-05-20T13:43:37Z</time><name>PT9848</name></trkpt>
<trkpt lat="53.335521" lon="06.593044"><ele>1.4</ele><time>2021-05-20T13:43:38Z</time><name>PT9849</name></trkpt>
<trkpt lat="53.335517" lon="06.593071"><ele>1.2</ele><time>2021-05-20T13:43:39Z</time><name>PT9850</name></trkpt>
<trkpt lat="53.335515" lon="06.593099"><ele>1.2</ele><time>2021-05-20T13:43:40Z</time><name>PT9851</name></trkpt>
<trkpt lat="53.335514" lon="06.593120"><ele>1.2</ele><time>2021-05-20T13:43:41Z</time><name>PT9852</name></trkpt>
<trkpt lat="53.335514" lon="06.593135"><ele>1.2</ele><time>2021-05-20T13:43:42Z</time><name>PT9853</name></trkpt>
<trkpt lat="53.335516" lon="06.593147"><ele>1.2</ele><time>2021-05-20T13:43:43Z</time><name>PT9854</name></trkpt>
<trkpt lat="53.335517" lon="06.593162"><ele>1.4</ele><time>2021-05-20T13:43:44Z</time><name>PT9855</name></trkpt>
<trkpt lat="53.335517" lon="06.593182"><ele>1.5</ele><time>2021-05-20T13:43:45Z</time><name>PT9856</name></trkpt>
<trkpt lat="53.335515" lon="06.593199"><ele>1.5</ele><time>2021-05-20T13:43:46Z</time><name>PT9857</name></trkpt>
<trkpt lat="53.335511" lon="06.593221"><ele>1.7</ele><time>2021-05-20T13:43:47Z</time><name>PT9858</name></trkpt>
<trkpt lat="53.335509" lon="06.593246"><ele>1.7</ele><time>2021-05-20T13:43:48Z</time><name>PT9859</name></trkpt>
<trkpt lat="53.335506" lon="06.593273"><ele>1.6</ele><time>2021-05-20T13:43:49Z</time><name>PT9860</name></trkpt>
<trkpt lat="53.335507" lon="06.593297"><ele>1.7</ele><time>2021-05-20T13:43:50Z</time><name>PT9861</name></trkpt>
<trkpt lat="53.335509" lon="06.593319"><ele>1.6</ele><time>2021-05-20T13:43:51Z</time><name>PT9862</name></trkpt>
<trkpt lat="53.335512" lon="06.593336"><ele>1.4</ele><time>2021-05-20T13:43:52Z</time><name>PT9863</name></trkpt>
<trkpt lat="53.335516" lon="06.593349"><ele>1.6</ele><time>2021-05-20T13:43:53Z</time><name>PT9864</name></trkpt>
<trkpt lat="53.335518" lon="06.593360"><ele>1.7</ele><time>2021-05-20T13:43:54Z</time><name>PT9865</name></trkpt>
<trkpt lat="53.335516" lon="06.593377"><ele>1.7</ele><time>2021-05-20T13:43:55Z</time><name>PT9866</name></trkpt>
<trkpt lat="53.335516" lon="06.593395"><ele>1.7</ele><time>2021-05-20T13:43:56Z</time><name>PT9867</name></trkpt>
<trkpt lat="53.335516" lon="06.593420"><ele>1.7</ele><time>2021-05-20T13:43:57Z</time><name>PT9868</name></trkpt>
<trkpt lat="53.335517" lon="06.593446"><ele>1.5</ele><time>2021-05-20T13:43:58Z</time><name>PT9869</name></trkpt>
<trkpt lat="53.335518" lon="06.593466"><ele>1.6</ele><time>2021-05-20T13:43:59Z</time><name>PT9870</name></trkpt>
<trkpt lat="53.335519" lon="06.593480"><ele>1.5</ele><time>2021-05-20T13:44:00Z</time><name>PT9871</name></trkpt>
<trkpt lat="53.335522" lon="06.593493"><ele>1.6</ele><time>2021-05-20T13:44:01Z</time><name>PT9872</name></trkpt>
<trkpt lat="53.335524" lon="06.593506"><ele>1.7</ele><time>2021-05-20T13:44:02Z</time><name>PT9873</name></trkpt>
<trkpt lat="53.335524" lon="06.593521"><ele>1.9</ele><time>2021-05-20T13:44:03Z</time><name>PT9874</name></trkpt>
<trkpt lat="53.335524" lon="06.593538"><ele>1.8</ele><time>2021-05-20T13:44:04Z</time><name>PT9875</name></trkpt>
<trkpt lat="53.335524" lon="06.593559"><ele>1.8</ele><time>2021-05-20T13:44:05Z</time><name>PT9876</name></trkpt>
<trkpt lat="53.335524" lon="06.593583"><ele>1.9</ele><time>2021-05-20T13:44:06Z</time><name>PT9877</name></trkpt>
<trkpt lat="53.335524" lon="06.593602"><ele>2</ele><time>2021-05-20T13:44:07Z</time><name>PT9878</name></trkpt>
<trkpt lat="53.335526" lon="06.593617"><ele>2</ele><time>2021-05-20T13:44:08Z</time><name>PT9879</name></trkpt>
<trkpt lat="53.335529" lon="06.593631"><ele>2</ele><time>2021-05-20T13:44:09Z</time><name>PT9880</name></trkpt>
<trkpt lat="53.335530" lon="06.593648"><ele>2.1</ele><time>2021-05-20T13:44:10Z</time><name>PT9881</name></trkpt>
<trkpt lat="53.335531" lon="06.593661"><ele>2.1</ele><time>2021-05-20T13:44:11Z</time><name>PT9882</name></trkpt>
<trkpt lat="53.335531" lon="06.593677"><ele>2.1</ele><time>2021-05-20T13:44:12Z</time><name>PT9883</name></trkpt>
<trkpt lat="53.335532" lon="06.593697"><ele>2.1</ele><time>2021-05-20T13:44:13Z</time><name>PT9884</name></trkpt>
<trkpt lat="53.335532" lon="06.593720"><ele>2</ele><time>2021-05-20T13:44:14Z</time><name>PT9885</name></trkpt>
<trkpt lat="53.335531" lon="06.593742"><ele>1.8</ele><time>2021-05-20T13:44:15Z</time><name>PT9886</name></trkpt>
<trkpt lat="53.335532" lon="06.593763"><ele>1.8</ele><time>2021-05-20T13:44:16Z</time><name>PT9887</name></trkpt>
<trkpt lat="53.335535" lon="06.593779"><ele>1.7</ele><time>2021-05-20T13:44:17Z</time><name>PT9888</name></trkpt>
<trkpt lat="53.335537" lon="06.593794"><ele>1.9</ele><time>2021-05-20T13:44:18Z</time><name>PT9889</name></trkpt>
<trkpt lat="53.335538" lon="06.593810"><ele>2</ele><time>2021-05-20T13:44:19Z</time><name>PT9890</name></trkpt>
<trkpt lat="53.335539" lon="06.593827"><ele>2</ele><time>2021-05-20T13:44:20Z</time><name>PT9891</name></trkpt>
<trkpt lat="53.335539" lon="06.593849"><ele>2.1</ele><time>2021-05-20T13:44:21Z</time><name>PT9892</name></trkpt>
<trkpt lat="53.335539" lon="06.593875"><ele>2</ele><time>2021-05-20T13:44:22Z</time><name>PT9893</name></trkpt>
<trkpt lat="53.335539" lon="06.593901"><ele>1.9</ele><time>2021-05-20T13:44:23Z</time><name>PT9894</name></trkpt>
<trkpt lat="53.335540" lon="06.593925"><ele>1.9</ele><time>2021-05-20T13:44:24Z</time><name>PT9895</name></trkpt>
<trkpt lat="53.335541" lon="06.593945"><ele>1.9</ele><time>2021-05-20T13:44:25Z</time><name>PT9896</name></trkpt>
<trkpt lat="53.335544" lon="06.593961"><ele>2</ele><time>2021-05-20T13:44:26Z</time><name>PT9897</name></trkpt>
<trkpt lat="53.335546" lon="06.593976"><ele>2.1</ele><time>2021-05-20T13:44:27Z</time><name>PT9898</name></trkpt>
<trkpt lat="53.335549" lon="06.593992"><ele>2</ele><time>2021-05-20T13:44:28Z</time><name>PT9899</name></trkpt>
<trkpt lat="53.335551" lon="06.594008"><ele>2</ele><time>2021-05-20T13:44:29Z</time><name>PT9900</name></trkpt>
<trkpt lat="53.335552" lon="06.594020"><ele>2</ele><time>2021-05-20T13:44:30Z</time><name>PT9901</name></trkpt>
<trkpt lat="53.335552" lon="06.594036"><ele>1.7</ele><time>2021-05-20T13:44:31Z</time><name>PT9902</name></trkpt>
<trkpt lat="53.335550" lon="06.594055"><ele>1.7</ele><time>2021-05-20T13:44:32Z</time><name>PT9903</name></trkpt>
<trkpt lat="53.335549" lon="06.594078"><ele>1.7</ele><time>2021-05-20T13:44:33Z</time><name>PT9904</name></trkpt>
<trkpt lat="53.335550" lon="06.594105"><ele>1.7</ele><time>2021-05-20T13:44:34Z</time><name>PT9905</name></trkpt>
<trkpt lat="53.335552" lon="06.594127"><ele>1.6</ele><time>2021-05-20T13:44:35Z</time><name>PT9906</name></trkpt>
<trkpt lat="53.335553" lon="06.594142"><ele>1.7</ele><time>2021-05-20T13:44:36Z</time><name>PT9907</name></trkpt>
<trkpt lat="53.335556" lon="06.594155"><ele>1.7</ele><time>2021-05-20T13:44:37Z</time><name>PT9908</name></trkpt>
<trkpt lat="53.335559" lon="06.594167"><ele>1.8</ele><time>2021-05-20T13:44:38Z</time><name>PT9909</name></trkpt>
<trkpt lat="53.335560" lon="06.594180"><ele>2</ele><time>2021-05-20T13:44:39Z</time><name>PT9910</name></trkpt>
<trkpt lat="53.335562" lon="06.594195"><ele>2</ele><time>2021-05-20T13:44:40Z</time><name>PT9911</name></trkpt>
<trkpt lat="53.335562" lon="06.594212"><ele>1.9</ele><time>2021-05-20T13:44:41Z</time><name>PT9912</name></trkpt>
<trkpt lat="53.335562" lon="06.594231"><ele>1.7</ele><time>2021-05-20T13:44:42Z</time><name>PT9913</name></trkpt>
<trkpt lat="53.335563" lon="06.594252"><ele>1.6</ele><time>2021-05-20T13:44:43Z</time><name>PT9914</name></trkpt>
<trkpt lat="53.335564" lon="06.594276"><ele>1.6</ele><time>2021-05-20T13:44:44Z</time><name>PT9915</name></trkpt>
<trkpt lat="53.335565" lon="06.594301"><ele>1.6</ele><time>2021-05-20T13:44:45Z</time><name>PT9916</name></trkpt>
<trkpt lat="53.335566" lon="06.594324"><ele>1.7</ele><time>2021-05-20T13:44:46Z</time><name>PT9917</name></trkpt>
<trkpt lat="53.335567" lon="06.594346"><ele>1.7</ele><time>2021-05-20T13:44:47Z</time><name>PT9918</name></trkpt>
<trkpt lat="53.335569" lon="06.594364"><ele>1.7</ele><time>2021-05-20T13:44:48Z</time><name>PT9919</name></trkpt>
<trkpt lat="53.335572" lon="06.594380"><ele>1.7</ele><time>2021-05-20T13:44:49Z</time><name>PT9920</name></trkpt>
<trkpt lat="53.335574" lon="06.594394"><ele>1.7</ele><time>2021-05-20T13:44:50Z</time><name>PT9921</name></trkpt>
<trkpt lat="53.335576" lon="06.594410"><ele>2</ele><time>2021-05-20T13:44:51Z</time><name>PT9922</name></trkpt>
<trkpt lat="53.335576" lon="06.594427"><ele>2</ele><time>2021-05-20T13:44:52Z</time><name>PT9923</name></trkpt>
<trkpt lat="53.335576" lon="06.594443"><ele>2</ele><time>2021-05-20T13:44:53Z</time><name>PT9924</name></trkpt>
<trkpt lat="53.335576" lon="06.594460"><ele>2</ele><time>2021-05-20T13:44:54Z</time><name>PT9925</name></trkpt>
<trkpt lat="53.335578" lon="06.594482"><ele>1.8</ele><time>2021-05-20T13:44:55Z</time><name>PT9926</name></trkpt>
<trkpt lat="53.335579" lon="06.594504"><ele>1.7</ele><time>2021-05-20T13:44:56Z</time><name>PT9927</name></trkpt>
<trkpt lat="53.335581" lon="06.594519"><ele>1.6</ele><time>2021-05-20T13:44:57Z</time><name>PT9928</name></trkpt>
<trkpt lat="53.335584" lon="06.594533"><ele>1.5</ele><time>2021-05-20T13:44:58Z</time><name>PT9929</name></trkpt>
<trkpt lat="53.335587" lon="06.594546"><ele>1.5</ele><time>2021-05-20T13:44:59Z</time><name>PT9930</name></trkpt>
<trkpt lat="53.335587" lon="06.594563"><ele>1.6</ele><time>2021-05-20T13:45:00Z</time><name>PT9931</name></trkpt>
<trkpt lat="53.335588" lon="06.594581"><ele>1.6</ele><time>2021-05-20T13:45:01Z</time><name>PT9932</name></trkpt>
<trkpt lat="53.335588" lon="06.594600"><ele>1.7</ele><time>2021-05-20T13:45:02Z</time><name>PT9933</name></trkpt>
<trkpt lat="53.335590" lon="06.594623"><ele>1.5</ele><time>2021-05-20T13:45:03Z</time><name>PT9934</name></trkpt>
<trkpt lat="53.335591" lon="06.594646"><ele>1.3</ele><time>2021-05-20T13:45:04Z</time><name>PT9935</name></trkpt>
<trkpt lat="53.335592" lon="06.594665"><ele>1.2</ele><time>2021-05-20T13:45:05Z</time><name>PT9936</name></trkpt>
<trkpt lat="53.335594" lon="06.594680"><ele>1.1</ele><time>2021-05-20T13:45:06Z</time><name>PT9937</name></trkpt>
<trkpt lat="53.335596" lon="06.594695"><ele>1.2</ele><time>2021-05-20T13:45:07Z</time><name>PT9938</name></trkpt>
<trkpt lat="53.335599" lon="06.594709"><ele>1.2</ele><time>2021-05-20T13:45:08Z</time><name>PT9939</name></trkpt>
<trkpt lat="53.335599" lon="06.594726"><ele>1.4</ele><time>2021-05-20T13:45:09Z</time><name>PT9940</name></trkpt>
<trkpt lat="53.335598" lon="06.594746"><ele>1.5</ele><time>2021-05-20T13:45:10Z</time><name>PT9941</name></trkpt>
<trkpt lat="53.335599" lon="06.594765"><ele>1.3</ele><time>2021-05-20T13:45:11Z</time><name>PT9942</name></trkpt>
<trkpt lat="53.335602" lon="06.594787"><ele>1.3</ele><time>2021-05-20T13:45:12Z</time><name>PT9943</name></trkpt>
<trkpt lat="53.335605" lon="06.594808"><ele>1.4</ele><time>2021-05-20T13:45:13Z</time><name>PT9944</name></trkpt>
<trkpt lat="53.335608" lon="06.594824"><ele>1.6</ele><time>2021-05-20T13:45:14Z</time><name>PT9945</name></trkpt>
<trkpt lat="53.335612" lon="06.594837"><ele>1.7</ele><time>2021-05-20T13:45:15Z</time><name>PT9946</name></trkpt>
<trkpt lat="53.335614" lon="06.594851"><ele>1.6</ele><time>2021-05-20T13:45:16Z</time><name>PT9947</name></trkpt>
<trkpt lat="53.335615" lon="06.594866"><ele>1.5</ele><time>2021-05-20T13:45:17Z</time><name>PT9948</name></trkpt>
<trkpt lat="53.335615" lon="06.594883"><ele>1.6</ele><time>2021-05-20T13:45:18Z</time><name>PT9949</name></trkpt>
<trkpt lat="53.335616" lon="06.594905"><ele>1.5</ele><time>2021-05-20T13:45:19Z</time><name>PT9950</name></trkpt>
<trkpt lat="53.335618" lon="06.594930"><ele>1.5</ele><time>2021-05-20T13:45:20Z</time><name>PT9951</name></trkpt>
<trkpt lat="53.335620" lon="06.594956"><ele>1.6</ele><time>2021-05-20T13:45:21Z</time><name>PT9952</name></trkpt>
<trkpt lat="53.335622" lon="06.594984"><ele>1.6</ele><time>2021-05-20T13:45:22Z</time><name>PT9953</name></trkpt>
<trkpt lat="53.335625" lon="06.595010"><ele>1.5</ele><time>2021-05-20T13:45:23Z</time><name>PT9954</name></trkpt>
<trkpt lat="53.335628" lon="06.595025"><ele>1.6</ele><time>2021-05-20T13:45:24Z</time><name>PT9955</name></trkpt>
<trkpt lat="53.335631" lon="06.595035"><ele>1.5</ele><time>2021-05-20T13:45:25Z</time><name>PT9956</name></trkpt>
<trkpt lat="53.335633" lon="06.595044"><ele>1.4</ele><time>2021-05-20T13:45:26Z</time><name>PT9957</name></trkpt>
<trkpt lat="53.335636" lon="06.595059"><ele>1.6</ele><time>2021-05-20T13:45:27Z</time><name>PT9958</name></trkpt>
<trkpt lat="53.335636" lon="06.595076"><ele>1.9</ele><time>2021-05-20T13:45:28Z</time><name>PT9959</name></trkpt>
<trkpt lat="53.335637" lon="06.595094"><ele>2</ele><time>2021-05-20T13:45:29Z</time><name>PT9960</name></trkpt>
<trkpt lat="53.335639" lon="06.595109"><ele>2.1</ele><time>2021-05-20T13:45:30Z</time><name>PT9961</name></trkpt>
<trkpt lat="53.335644" lon="06.595127"><ele>2.3</ele><time>2021-05-20T13:45:31Z</time><name>PT9962</name></trkpt>
<trkpt lat="53.335647" lon="06.595142"><ele>2.3</ele><time>2021-05-20T13:45:32Z</time><name>PT9963</name></trkpt>
<trkpt lat="53.335650" lon="06.595155"><ele>1.9</ele><time>2021-05-20T13:45:33Z</time><name>PT9964</name></trkpt>
<trkpt lat="53.335653" lon="06.595167"><ele>1.8</ele><time>2021-05-20T13:45:34Z</time><name>PT9965</name></trkpt>
<trkpt lat="53.335657" lon="06.595180"><ele>1.7</ele><time>2021-05-20T13:45:35Z</time><name>PT9966</name></trkpt>
<trkpt lat="53.335658" lon="06.595195"><ele>1.3</ele><time>2021-05-20T13:45:36Z</time><name>PT9967</name></trkpt>
<trkpt lat="53.335658" lon="06.595215"><ele>1.2</ele><time>2021-05-20T13:45:37Z</time><name>PT9968</name></trkpt>
<trkpt lat="53.335659" lon="06.595238"><ele>1.2</ele><time>2021-05-20T13:45:38Z</time><name>PT9969</name></trkpt>
<trkpt lat="53.335663" lon="06.595260"><ele>1.2</ele><time>2021-05-20T13:45:39Z</time><name>PT9970</name></trkpt>
<trkpt lat="53.335667" lon="06.595278"><ele>1.3</ele><time>2021-05-20T13:45:40Z</time><name>PT9971</name></trkpt>
<trkpt lat="53.335670" lon="06.595291"><ele>1.5</ele><time>2021-05-20T13:45:41Z</time><name>PT9972</name></trkpt>
<trkpt lat="53.335674" lon="06.595302"><ele>1.6</ele><time>2021-05-20T13:45:42Z</time><name>PT9973</name></trkpt>
<trkpt lat="53.335676" lon="06.595316"><ele>1.5</ele><time>2021-05-20T13:45:43Z</time><name>PT9974</name></trkpt>
<trkpt lat="53.335678" lon="06.595332"><ele>1.6</ele><time>2021-05-20T13:45:44Z</time><name>PT9975</name></trkpt>
<trkpt lat="53.335680" lon="06.595350"><ele>1.6</ele><time>2021-05-20T13:45:45Z</time><name>PT9976</name></trkpt>
<trkpt lat="53.335682" lon="06.595370"><ele>1.6</ele><time>2021-05-20T13:45:46Z</time><name>PT9977</name></trkpt>
<trkpt lat="53.335685" lon="06.595394"><ele>1.6</ele><time>2021-05-20T13:45:47Z</time><name>PT9978</name></trkpt>
<trkpt lat="53.335688" lon="06.595417"><ele>1.5</ele><time>2021-05-20T13:45:48Z</time><name>PT9979</name></trkpt>
<trkpt lat="53.335691" lon="06.595436"><ele>1.6</ele><time>2021-05-20T13:45:49Z</time><name>PT9980</name></trkpt>
<trkpt lat="53.335695" lon="06.595449"><ele>1.5</ele><time>2021-05-20T13:45:50Z</time><name>PT9981</name></trkpt>
<trkpt lat="53.335700" lon="06.595460"><ele>1.5</ele><time>2021-05-20T13:45:51Z</time><name>PT9982</name></trkpt>
<trkpt lat="53.335702" lon="06.595471"><ele>1.6</ele><time>2021-05-20T13:45:52Z</time><name>PT9983</name></trkpt>
<trkpt lat="53.335703" lon="06.595486"><ele>1.7</ele><time>2021-05-20T13:45:53Z</time><name>PT9984</name></trkpt>
<trkpt lat="53.335706" lon="06.595505"><ele>1.7</ele><time>2021-05-20T13:45:54Z</time><name>PT9985</name></trkpt>
<trkpt lat="53.335708" lon="06.595528"><ele>1.7</ele><time>2021-05-20T13:45:55Z</time><name>PT9986</name></trkpt>
<trkpt lat="53.335714" lon="06.595555"><ele>1.8</ele><time>2021-05-20T13:45:56Z</time><name>PT9987</name></trkpt>
<trkpt lat="53.335720" lon="06.595577"><ele>1.9</ele><time>2021-05-20T13:45:57Z</time><name>PT9988</name></trkpt>
<trkpt lat="53.335726" lon="06.595595"><ele>1.8</ele><time>2021-05-20T13:45:58Z</time><name>PT9989</name></trkpt>
<trkpt lat="53.335731" lon="06.595609"><ele>2</ele><time>2021-05-20T13:45:59Z</time><name>PT9990</name></trkpt>
<trkpt lat="53.335735" lon="06.595619"><ele>2</ele><time>2021-05-20T13:46:00Z</time><name>PT9991</name></trkpt>
<trkpt lat="53.335739" lon="06.595631"><ele>2.1</ele><time>2021-05-20T13:46:01Z</time><name>PT9992</name></trkpt>
<trkpt lat="53.335743" lon="06.595644"><ele>2</ele><time>2021-05-20T13:46:02Z</time><name>PT9993</name></trkpt>
<trkpt lat="53.335745" lon="06.595661"><ele>1.9</ele><time>2021-05-20T13:46:03Z</time><name>PT9994</name></trkpt>
<trkpt lat="53.335747" lon="06.595679"><ele>1.8</ele><time>2021-05-20T13:46:04Z</time><name>PT9995</name></trkpt>
<trkpt lat="53.335750" lon="06.595701"><ele>1.7</ele><time>2021-05-20T13:46:05Z</time><name>PT9996</name></trkpt>
<trkpt lat="53.335755" lon="06.595726"><ele>1.9</ele><time>2021-05-20T13:46:06Z</time><name>PT9997</name></trkpt>
<trkpt lat="53.335761" lon="06.595750"><ele>1.9</ele><time>2021-05-20T13:46:07Z</time><name>PT9998</name></trkpt>
<trkpt lat="53.335766" lon="06.595768"><ele>1.9</ele><time>2021-05-20T13:46:08Z</time><name>PT9999</name></trkpt>
<trkpt lat="53.335772" lon="06.595782"><ele>1.9</ele><time>2021-05-20T13:46:09Z</time><name>PT10000</name></trkpt>
<trkpt lat="53.335778" lon="06.595794"><ele>1.8</ele><time>2021-05-20T13:46:10Z</time><name>PT10001</name></trkpt>
<trkpt lat="53.335781" lon="06.595804"><ele>1.6</ele><time>2021-05-20T13:46:11Z</time><name>PT10002</name></trkpt>
<trkpt lat="53.335784" lon="06.595814"><ele>1.5</ele><time>2021-05-20T13:46:12Z</time><name>PT10003</name></trkpt>
<trkpt lat="53.335788" lon="06.595828"><ele>1.6</ele><time>2021-05-20T13:46:13Z</time><name>PT10004</name></trkpt>
<trkpt lat="53.335791" lon="06.595845"><ele>1.7</ele><time>2021-05-20T13:46:14Z</time><name>PT10005</name></trkpt>
<trkpt lat="53.335794" lon="06.595868"><ele>1.7</ele><time>2021-05-20T13:46:15Z</time><name>PT10006</name></trkpt>
<trkpt lat="53.335800" lon="06.595891"><ele>1.8</ele><time>2021-05-20T13:46:16Z</time><name>PT10007</name></trkpt>
<trkpt lat="53.335805" lon="06.595916"><ele>1.8</ele><time>2021-05-20T13:46:17Z</time><name>PT10008</name></trkpt>
<trkpt lat="53.335809" lon="06.595937"><ele>1.7</ele><time>2021-05-20T13:46:18Z</time><name>PT10009</name></trkpt>
<trkpt lat="53.335816" lon="06.595951"><ele>1.7</ele><time>2021-05-20T13:46:19Z</time><name>PT10010</name></trkpt>
<trkpt lat="53.335820" lon="06.595962"><ele>2</ele><time>2021-05-20T13:46:20Z</time><name>PT10011</name></trkpt>
<trkpt lat="53.335824" lon="06.595976"><ele>2</ele><time>2021-05-20T13:46:21Z</time><name>PT10012</name></trkpt>
<trkpt lat="53.335827" lon="06.595991"><ele>2</ele><time>2021-05-20T13:46:22Z</time><name>PT10013</name></trkpt>
<trkpt lat="53.335830" lon="06.596007"><ele>2.1</ele><time>2021-05-20T13:46:23Z</time><name>PT10014</name></trkpt>
<trkpt lat="53.335834" lon="06.596028"><ele>2.1</ele><time>2021-05-20T13:46:24Z</time><name>PT10015</name></trkpt>
<trkpt lat="53.335839" lon="06.596050"><ele>2</ele><time>2021-05-20T13:46:25Z</time><name>PT10016</name></trkpt>
<trkpt lat="53.335845" lon="06.596071"><ele>1.8</ele><time>2021-05-20T13:46:26Z</time><name>PT10017</name></trkpt>
<trkpt lat="53.335851" lon="06.596087"><ele>1.6</ele><time>2021-05-20T13:46:27Z</time><name>PT10018</name></trkpt>
<trkpt lat="53.335856" lon="06.596099"><ele>1.6</ele><time>2021-05-20T13:46:28Z</time><name>PT10019</name></trkpt>
<trkpt lat="53.335861" lon="06.596108"><ele>1.7</ele><time>2021-05-20T13:46:29Z</time><name>PT10020</name></trkpt>
<trkpt lat="53.335866" lon="06.596120"><ele>1.7</ele><time>2021-05-20T13:46:30Z</time><name>PT10021</name></trkpt>
<trkpt lat="53.335870" lon="06.596135"><ele>1.9</ele><time>2021-05-20T13:46:31Z</time><name>PT10022</name></trkpt>
<trkpt lat="53.335874" lon="06.596152"><ele>2</ele><time>2021-05-20T13:46:32Z</time><name>PT10023</name></trkpt>
<trkpt lat="53.335878" lon="06.596173"><ele>1.9</ele><time>2021-05-20T13:46:33Z</time><name>PT10024</name></trkpt>
<trkpt lat="53.335884" lon="06.596196"><ele>1.9</ele><time>2021-05-20T13:46:34Z</time><name>PT10025</name></trkpt>
<trkpt lat="53.335890" lon="06.596217"><ele>1.9</ele><time>2021-05-20T13:46:35Z</time><name>PT10026</name></trkpt>
<trkpt lat="53.335894" lon="06.596235"><ele>1.9</ele><time>2021-05-20T13:46:36Z</time><name>PT10027</name></trkpt>
<trkpt lat="53.335899" lon="06.596249"><ele>1.9</ele><time>2021-05-20T13:46:37Z</time><name>PT10028</name></trkpt>
<trkpt lat="53.335904" lon="06.596261"><ele>1.8</ele><time>2021-05-20T13:46:38Z</time><name>PT10029</name></trkpt>
<trkpt lat="53.335909" lon="06.596276"><ele>1.8</ele><time>2021-05-20T13:46:39Z</time><name>PT10030</name></trkpt>
<trkpt lat="53.335912" lon="06.596292"><ele>1.7</ele><time>2021-05-20T13:46:40Z</time><name>PT10031</name></trkpt>
<trkpt lat="53.335915" lon="06.596309"><ele>1.6</ele><time>2021-05-20T13:46:41Z</time><name>PT10032</name></trkpt>
<trkpt lat="53.335917" lon="06.596329"><ele>1.7</ele><time>2021-05-20T13:46:42Z</time><name>PT10033</name></trkpt>
<trkpt lat="53.335921" lon="06.596351"><ele>1.7</ele><time>2021-05-20T13:46:43Z</time><name>PT10034</name></trkpt>
<trkpt lat="53.335926" lon="06.596377"><ele>1.6</ele><time>2021-05-20T13:46:44Z</time><name>PT10035</name></trkpt>
<trkpt lat="53.335929" lon="06.596402"><ele>1.6</ele><time>2021-05-20T13:46:45Z</time><name>PT10036</name></trkpt>
<trkpt lat="53.335933" lon="06.596422"><ele>1.7</ele><time>2021-05-20T13:46:46Z</time><name>PT10037</name></trkpt>
<trkpt lat="53.335938" lon="06.596436"><ele>1.7</ele><time>2021-05-20T13:46:47Z</time><name>PT10038</name></trkpt>
<trkpt lat="53.335941" lon="06.596446"><ele>1.7</ele><time>2021-05-20T13:46:48Z</time><name>PT10039</name></trkpt>
<trkpt lat="53.335944" lon="06.596456"><ele>1.7</ele><time>2021-05-20T13:46:49Z</time><name>PT10040</name></trkpt>
<trkpt lat="53.335946" lon="06.596468"><ele>2</ele><time>2021-05-20T13:46:50Z</time><name>PT10041</name></trkpt>
<trkpt lat="53.335948" lon="06.596486"><ele>1.9</ele><time>2021-05-20T13:46:51Z</time><name>PT10042</name></trkpt>
<trkpt lat="53.335950" lon="06.596508"><ele>2</ele><time>2021-05-20T13:46:52Z</time><name>PT10043</name></trkpt>
<trkpt lat="53.335954" lon="06.596533"><ele>2.1</ele><time>2021-05-20T13:46:53Z</time><name>PT10044</name></trkpt>
<trkpt lat="53.335958" lon="06.596555"><ele>2</ele><time>2021-05-20T13:46:54Z</time><name>PT10045</name></trkpt>
<trkpt lat="53.335961" lon="06.596572"><ele>2.1</ele><time>2021-05-20T13:46:55Z</time><name>PT10046</name></trkpt>
<trkpt lat="53.335965" lon="06.596583"><ele>2.1</ele><time>2021-05-20T13:46:56Z</time><name>PT10047</name></trkpt>
<trkpt lat="53.335968" lon="06.596594"><ele>2</ele><time>2021-05-20T13:46:57Z</time><name>PT10048</name></trkpt>
<trkpt lat="53.335969" lon="06.596609"><ele>2</ele><time>2021-05-20T13:46:58Z</time><name>PT10049</name></trkpt>
<trkpt lat="53.335971" lon="06.596625"><ele>2</ele><time>2021-05-20T13:46:59Z</time><name>PT10050</name></trkpt>
<trkpt lat="53.335973" lon="06.596644"><ele>2.1</ele><time>2021-05-20T13:47:00Z</time><name>PT10051</name></trkpt>
<trkpt lat="53.335975" lon="06.596669"><ele>2.1</ele><time>2021-05-20T13:47:01Z</time><name>PT10052</name></trkpt>
<trkpt lat="53.335977" lon="06.596695"><ele>2.1</ele><time>2021-05-20T13:47:02Z</time><name>PT10053</name></trkpt>
<trkpt lat="53.335979" lon="06.596723"><ele>2.1</ele><time>2021-05-20T13:47:03Z</time><name>PT10054</name></trkpt>
<trkpt lat="53.335983" lon="06.596750"><ele>2</ele><time>2021-05-20T13:47:04Z</time><name>PT10055</name></trkpt>
<trkpt lat="53.335985" lon="06.596769"><ele>2.2</ele><time>2021-05-20T13:47:05Z</time><name>PT10056</name></trkpt>
<trkpt lat="53.335988" lon="06.596782"><ele>2.1</ele><time>2021-05-20T13:47:06Z</time><name>PT10057</name></trkpt>
<trkpt lat="53.335992" lon="06.596792"><ele>2.1</ele><time>2021-05-20T13:47:07Z</time><name>PT10058</name></trkpt>
<trkpt lat="53.335995" lon="06.596802"><ele>2.1</ele><time>2021-05-20T13:47:08Z</time><name>PT10059</name></trkpt>
<trkpt lat="53.335997" lon="06.596813"><ele>2.1</ele><time>2021-05-20T13:47:09Z</time><name>PT10060</name></trkpt>
<trkpt lat="53.335997" lon="06.596828"><ele>2</ele><time>2021-05-20T13:47:10Z</time><name>PT10061</name></trkpt>
<trkpt lat="53.335998" lon="06.596848"><ele>2.2</ele><time>2021-05-20T13:47:11Z</time><name>PT10062</name></trkpt>
<trkpt lat="53.336000" lon="06.596868"><ele>2.4</ele><time>2021-05-20T13:47:12Z</time><name>PT10063</name></trkpt>
<trkpt lat="53.336002" lon="06.596885"><ele>2.3</ele><time>2021-05-20T13:47:13Z</time><name>PT10064</name></trkpt>
<trkpt lat="53.336006" lon="06.596899"><ele>2.1</ele><time>2021-05-20T13:47:14Z</time><name>PT10065</name></trkpt>
<trkpt lat="53.336009" lon="06.596911"><ele>2.2</ele><time>2021-05-20T13:47:15Z</time><name>PT10066</name></trkpt>
<trkpt lat="53.336011" lon="06.596923"><ele>2.1</ele><time>2021-05-20T13:47:16Z</time><name>PT10067</name></trkpt>
<trkpt lat="53.336011" lon="06.596937"><ele>2</ele><time>2021-05-20T13:47:17Z</time><name>PT10068</name></trkpt>
<trkpt lat="53.336011" lon="06.596954"><ele>2.1</ele><time>2021-05-20T13:47:18Z</time><name>PT10069</name></trkpt>
<trkpt lat="53.336012" lon="06.596978"><ele>2.2</ele><time>2021-05-20T13:47:19Z</time><name>PT10070</name></trkpt>
<trkpt lat="53.336016" lon="06.597004"><ele>2.2</ele><time>2021-05-20T13:47:20Z</time><name>PT10071</name></trkpt>
<trkpt lat="53.336019" lon="06.597025"><ele>2.1</ele><time>2021-05-20T13:47:21Z</time><name>PT10072</name></trkpt>
<trkpt lat="53.336020" lon="06.597042"><ele>2.3</ele><time>2021-05-20T13:47:22Z</time><name>PT10073</name></trkpt>
<trkpt lat="53.336023" lon="06.597056"><ele>2.3</ele><time>2021-05-20T13:47:23Z</time><name>PT10074</name></trkpt>
<trkpt lat="53.336025" lon="06.597068"><ele>2.4</ele><time>2021-05-20T13:47:24Z</time><name>PT10075</name></trkpt>
<trkpt lat="53.336026" lon="06.597079"><ele>2.4</ele><time>2021-05-20T13:47:25Z</time><name>PT10076</name></trkpt>
<trkpt lat="53.336026" lon="06.597096"><ele>2.4</ele><time>2021-05-20T13:47:26Z</time><name>PT10077</name></trkpt>
<trkpt lat="53.336026" lon="06.597116"><ele>2.3</ele><time>2021-05-20T13:47:27Z</time><name>PT10078</name></trkpt>
<trkpt lat="53.336027" lon="06.597139"><ele>2.4</ele><time>2021-05-20T13:47:28Z</time><name>PT10079</name></trkpt>
<trkpt lat="53.336029" lon="06.597164"><ele>2.4</ele><time>2021-05-20T13:47:29Z</time><name>PT10080</name></trkpt>
<trkpt lat="53.336032" lon="06.597184"><ele>2.2</ele><time>2021-05-20T13:47:30Z</time><name>PT10081</name></trkpt>
<trkpt lat="53.336035" lon="06.597198"><ele>2</ele><time>2021-05-20T13:47:31Z</time><name>PT10082</name></trkpt>
<trkpt lat="53.336036" lon="06.597210"><ele>1.9</ele><time>2021-05-20T13:47:32Z</time><name>PT10083</name></trkpt>
<trkpt lat="53.336037" lon="06.597221"><ele>1.9</ele><time>2021-05-20T13:47:33Z</time><name>PT10084</name></trkpt>
<trkpt lat="53.336037" lon="06.597237"><ele>2</ele><time>2021-05-20T13:47:34Z</time><name>PT10085</name></trkpt>
<trkpt lat="53.336038" lon="06.597259"><ele>2.2</ele><time>2021-05-20T13:47:35Z</time><name>PT10086</name></trkpt>
<trkpt lat="53.336039" lon="06.597284"><ele>2.3</ele><time>2021-05-20T13:47:36Z</time><name>PT10087</name></trkpt>
<trkpt lat="53.336040" lon="06.597305"><ele>2.1</ele><time>2021-05-20T13:47:37Z</time><name>PT10088</name></trkpt>
<trkpt lat="53.336042" lon="06.597321"><ele>2.2</ele><time>2021-05-20T13:47:38Z</time><name>PT10089</name></trkpt>
<trkpt lat="53.336045" lon="06.597333"><ele>2.2</ele><time>2021-05-20T13:47:39Z</time><name>PT10090</name></trkpt>
<trkpt lat="53.336047" lon="06.597345"><ele>2.1</ele><time>2021-05-20T13:47:40Z</time><name>PT10091</name></trkpt>
<trkpt lat="53.336048" lon="06.597358"><ele>2.3</ele><time>2021-05-20T13:47:41Z</time><name>PT10092</name></trkpt>
<trkpt lat="53.336048" lon="06.597373"><ele>2.2</ele><time>2021-05-20T13:47:42Z</time><name>PT10093</name></trkpt>
<trkpt lat="53.336049" lon="06.597392"><ele>2.3</ele><time>2021-05-20T13:47:43Z</time><name>PT10094</name></trkpt>
<trkpt lat="53.336051" lon="06.597418"><ele>2.3</ele><time>2021-05-20T13:47:44Z</time><name>PT10095</name></trkpt>
<trkpt lat="53.336052" lon="06.597442"><ele>2.2</ele><time>2021-05-20T13:47:45Z</time><name>PT10096</name></trkpt>
<trkpt lat="53.336053" lon="06.597459"><ele>2.1</ele><time>2021-05-20T13:47:46Z</time><name>PT10097</name></trkpt>
<trkpt lat="53.336055" lon="06.597472"><ele>2.1</ele><time>2021-05-20T13:47:47Z</time><name>PT10098</name></trkpt>
<trkpt lat="53.336057" lon="06.597482"><ele>2.1</ele><time>2021-05-20T13:47:48Z</time><name>PT10099</name></trkpt>
<trkpt lat="53.336057" lon="06.597495"><ele>2.2</ele><time>2021-05-20T13:47:49Z</time><name>PT10100</name></trkpt>
<trkpt lat="53.336058" lon="06.597514"><ele>2.3</ele><time>2021-05-20T13:47:50Z</time><name>PT10101</name></trkpt>
<trkpt lat="53.336059" lon="06.597538"><ele>2.2</ele><time>2021-05-20T13:47:51Z</time><name>PT10102</name></trkpt>
<trkpt lat="53.336061" lon="06.597564"><ele>2.3</ele><time>2021-05-20T13:47:52Z</time><name>PT10103</name></trkpt>
<trkpt lat="53.336063" lon="06.597585"><ele>2.2</ele><time>2021-05-20T13:47:53Z</time><name>PT10104</name></trkpt>
<trkpt lat="53.336065" lon="06.597598"><ele>2.1</ele><time>2021-05-20T13:47:54Z</time><name>PT10105</name></trkpt>
<trkpt lat="53.336066" lon="06.597612"><ele>2.2</ele><time>2021-05-20T13:47:55Z</time><name>PT10106</name></trkpt>
<trkpt lat="53.336068" lon="06.597625"><ele>2.4</ele><time>2021-05-20T13:47:56Z</time><name>PT10107</name></trkpt>
<trkpt lat="53.336069" lon="06.597639"><ele>2.5</ele><time>2021-05-20T13:47:57Z</time><name>PT10108</name></trkpt>
<trkpt lat="53.336069" lon="06.597665"><ele>2.6</ele><time>2021-05-20T13:47:58Z</time><name>PT10109</name></trkpt>
<trkpt lat="53.336069" lon="06.597687"><ele>2.6</ele><time>2021-05-20T13:47:59Z</time><name>PT10110</name></trkpt>
<trkpt lat="53.336069" lon="06.597705"><ele>2.6</ele><time>2021-05-20T13:48:00Z</time><name>PT10111</name></trkpt>
<trkpt lat="53.336071" lon="06.597723"><ele>2.4</ele><time>2021-05-20T13:48:01Z</time><name>PT10112</name></trkpt>
<trkpt lat="53.336074" lon="06.597743"><ele>2.5</ele><time>2021-05-20T13:48:02Z</time><name>PT10113</name></trkpt>
<trkpt lat="53.336076" lon="06.597763"><ele>2.4</ele><time>2021-05-20T13:48:03Z</time><name>PT10114</name></trkpt>
<trkpt lat="53.336080" lon="06.597779"><ele>2.3</ele><time>2021-05-20T13:48:04Z</time><name>PT10115</name></trkpt>
<trkpt lat="53.336082" lon="06.597796"><ele>2.6</ele><time>2021-05-20T13:48:05Z</time><name>PT10116</name></trkpt>
<trkpt lat="53.336083" lon="06.597811"><ele>2.7</ele><time>2021-05-20T13:48:06Z</time><name>PT10117</name></trkpt>
<trkpt lat="53.336090" lon="06.597818"><ele>2.6</ele><time>2021-05-20T13:48:07Z</time><name>PT10118</name></trkpt>
<trkpt lat="53.336093" lon="06.597832"><ele>2.7</ele><time>2021-05-20T13:48:08Z</time><name>PT10119</name></trkpt>
<trkpt lat="53.336094" lon="06.597857"><ele>2.7</ele><time>2021-05-20T13:48:09Z</time><name>PT10120</name></trkpt>
<trkpt lat="53.336095" lon="06.597889"><ele>2.4</ele><time>2021-05-20T13:48:10Z</time><name>PT10121</name></trkpt>
<trkpt lat="53.336098" lon="06.597917"><ele>2.3</ele><time>2021-05-20T13:48:11Z</time><name>PT10122</name></trkpt>
<trkpt lat="53.336100" lon="06.597941"><ele>2.3</ele><time>2021-05-20T13:48:12Z</time><name>PT10123</name></trkpt>
<trkpt lat="53.336099" lon="06.597958"><ele>2.4</ele><time>2021-05-20T13:48:13Z</time><name>PT10124</name></trkpt>
<trkpt lat="53.336100" lon="06.597976"><ele>2.6</ele><time>2021-05-20T13:48:14Z</time><name>PT10125</name></trkpt>
<trkpt lat="53.336102" lon="06.597993"><ele>2.6</ele><time>2021-05-20T13:48:15Z</time><name>PT10126</name></trkpt>
<trkpt lat="53.336106" lon="06.598007"><ele>2.7</ele><time>2021-05-20T13:48:16Z</time><name>PT10127</name></trkpt>
<trkpt lat="53.336111" lon="06.598022"><ele>2.8</ele><time>2021-05-20T13:48:17Z</time><name>PT10128</name></trkpt>
<trkpt lat="53.336114" lon="06.598040"><ele>2.9</ele><time>2021-05-20T13:48:18Z</time><name>PT10129</name></trkpt>
<trkpt lat="53.336117" lon="06.598059"><ele>2.9</ele><time>2021-05-20T13:48:19Z</time><name>PT10130</name></trkpt>
<trkpt lat="53.336119" lon="06.598077"><ele>2.8</ele><time>2021-05-20T13:48:20Z</time><name>PT10131</name></trkpt>
<trkpt lat="53.336121" lon="06.598096"><ele>2.8</ele><time>2021-05-20T13:48:21Z</time><name>PT10132</name></trkpt>
<trkpt lat="53.336122" lon="06.598114"><ele>2.8</ele><time>2021-05-20T13:48:22Z</time><name>PT10133</name></trkpt>
<trkpt lat="53.336124" lon="06.598133"><ele>2.8</ele><time>2021-05-20T13:48:23Z</time><name>PT10134</name></trkpt>
<trkpt lat="53.336127" lon="06.598151"><ele>2.8</ele><time>2021-05-20T13:48:24Z</time><name>PT10135</name></trkpt>
<trkpt lat="53.336132" lon="06.598168"><ele>2.7</ele><time>2021-05-20T13:48:25Z</time><name>PT10136</name></trkpt>
<trkpt lat="53.336136" lon="06.598187"><ele>2.6</ele><time>2021-05-20T13:48:26Z</time><name>PT10137</name></trkpt>
<trkpt lat="53.336141" lon="06.598202"><ele>2.5</ele><time>2021-05-20T13:48:27Z</time><name>PT10138</name></trkpt>
<trkpt lat="53.336145" lon="06.598216"><ele>2.5</ele><time>2021-05-20T13:48:28Z</time><name>PT10139</name></trkpt>
<trkpt lat="53.336149" lon="06.598231"><ele>2.6</ele><time>2021-05-20T13:48:29Z</time><name>PT10140</name></trkpt>
<trkpt lat="53.336153" lon="06.598246"><ele>2.6</ele><time>2021-05-20T13:48:30Z</time><name>PT10141</name></trkpt>
<trkpt lat="53.336155" lon="06.598260"><ele>2.6</ele><time>2021-05-20T13:48:31Z</time><name>PT10142</name></trkpt>
<trkpt lat="53.336158" lon="06.598274"><ele>2.5</ele><time>2021-05-20T13:48:32Z</time><name>PT10143</name></trkpt>
<trkpt lat="53.336160" lon="06.598288"><ele>2.6</ele><time>2021-05-20T13:48:33Z</time><name>PT10144</name></trkpt>
<trkpt lat="53.336162" lon="06.598304"><ele>2.4</ele><time>2021-05-20T13:48:34Z</time><name>PT10145</name></trkpt>
<trkpt lat="53.336168" lon="06.598353"><ele>2.3</ele><time>2021-05-20T13:48:36Z</time><name>PT10146</name></trkpt>
<trkpt lat="53.336171" lon="06.598378"><ele>2.1</ele><time>2021-05-20T13:48:37Z</time><name>PT10147</name></trkpt>
<trkpt lat="53.336176" lon="06.598403"><ele>2.1</ele><time>2021-05-20T13:48:38Z</time><name>PT10148</name></trkpt>
<trkpt lat="53.336182" lon="06.598432"><ele>2.1</ele><time>2021-05-20T13:48:39Z</time><name>PT10149</name></trkpt>
<trkpt lat="53.336186" lon="06.598458"><ele>2.1</ele><time>2021-05-20T13:48:40Z</time><name>PT10150</name></trkpt>
<trkpt lat="53.336191" lon="06.598482"><ele>2</ele><time>2021-05-20T13:48:41Z</time><name>PT10151</name></trkpt>
<trkpt lat="53.336195" lon="06.598503"><ele>2.1</ele><time>2021-05-20T13:48:42Z</time><name>PT10152</name></trkpt>
<trkpt lat="53.336200" lon="06.598520"><ele>2.1</ele><time>2021-05-20T13:48:43Z</time><name>PT10153</name></trkpt>
<trkpt lat="53.336205" lon="06.598535"><ele>2.2</ele><time>2021-05-20T13:48:44Z</time><name>PT10154</name></trkpt>
<trkpt lat="53.336210" lon="06.598547"><ele>2.3</ele><time>2021-05-20T13:48:45Z</time><name>PT10155</name></trkpt>
<trkpt lat="53.336215" lon="06.598555"><ele>2.4</ele><time>2021-05-20T13:48:46Z</time><name>PT10156</name></trkpt>
<trkpt lat="53.336219" lon="06.598564"><ele>2.2</ele><time>2021-05-20T13:48:47Z</time><name>PT10157</name></trkpt>
<trkpt lat="53.336222" lon="06.598578"><ele>2.5</ele><time>2021-05-20T13:48:48Z</time><name>PT10158</name></trkpt>
<trkpt lat="53.336225" lon="06.598593"><ele>2.4</ele><time>2021-05-20T13:48:49Z</time><name>PT10159</name></trkpt>
<trkpt lat="53.336227" lon="06.598609"><ele>2.4</ele><time>2021-05-20T13:48:50Z</time><name>PT10160</name></trkpt>
<trkpt lat="53.336229" lon="06.598626"><ele>2.5</ele><time>2021-05-20T13:48:51Z</time><name>PT10161</name></trkpt>
<trkpt lat="53.336232" lon="06.598646"><ele>2.6</ele><time>2021-05-20T13:48:52Z</time><name>PT10162</name></trkpt>
<trkpt lat="53.336236" lon="06.598670"><ele>2.4</ele><time>2021-05-20T13:48:53Z</time><name>PT10163</name></trkpt>
<trkpt lat="53.336239" lon="06.598697"><ele>2.3</ele><time>2021-05-20T13:48:54Z</time><name>PT10164</name></trkpt>
<trkpt lat="53.336244" lon="06.598727"><ele>2.3</ele><time>2021-05-20T13:48:55Z</time><name>PT10165</name></trkpt>
<trkpt lat="53.336249" lon="06.598754"><ele>2.4</ele><time>2021-05-20T13:48:56Z</time><name>PT10166</name></trkpt>
<trkpt lat="53.336256" lon="06.598781"><ele>2.2</ele><time>2021-05-20T13:48:57Z</time><name>PT10167</name></trkpt>
<trkpt lat="53.336262" lon="06.598809"><ele>2.1</ele><time>2021-05-20T13:48:58Z</time><name>PT10168</name></trkpt>
<trkpt lat="53.336268" lon="06.598836"><ele>2.1</ele><time>2021-05-20T13:48:59Z</time><name>PT10169</name></trkpt>
<trkpt lat="53.336274" lon="06.598859"><ele>1.9</ele><time>2021-05-20T13:49:00Z</time><name>PT10170</name></trkpt>
<trkpt lat="53.336279" lon="06.598883"><ele>1.7</ele><time>2021-05-20T13:49:01Z</time><name>PT10171</name></trkpt>
<trkpt lat="53.336284" lon="06.598907"><ele>2</ele><time>2021-05-20T13:49:02Z</time><name>PT10172</name></trkpt>
<trkpt lat="53.336290" lon="06.598921"><ele>2</ele><time>2021-05-20T13:49:03Z</time><name>PT10173</name></trkpt>
<trkpt lat="53.336293" lon="06.598930"><ele>2.1</ele><time>2021-05-20T13:49:04Z</time><name>PT10174</name></trkpt>
<trkpt lat="53.336298" lon="06.598938"><ele>2.2</ele><time>2021-05-20T13:49:05Z</time><name>PT10175</name></trkpt>
<trkpt lat="53.336302" lon="06.598952"><ele>2.2</ele><time>2021-05-20T13:49:06Z</time><name>PT10176</name></trkpt>
<trkpt lat="53.336305" lon="06.598965"><ele>2.2</ele><time>2021-05-20T13:49:07Z</time><name>PT10177</name></trkpt>
<trkpt lat="53.336307" lon="06.598981"><ele>2.2</ele><time>2021-05-20T13:49:08Z</time><name>PT10178</name></trkpt>
<trkpt lat="53.336308" lon="06.599001"><ele>2.4</ele><time>2021-05-20T13:49:09Z</time><name>PT10179</name></trkpt>
<trkpt lat="53.336310" lon="06.599021"><ele>2.5</ele><time>2021-05-20T13:49:10Z</time><name>PT10180</name></trkpt>
<trkpt lat="53.336314" lon="06.599042"><ele>2.4</ele><time>2021-05-20T13:49:11Z</time><name>PT10181</name></trkpt>
<trkpt lat="53.336318" lon="06.599062"><ele>2.5</ele><time>2021-05-20T13:49:12Z</time><name>PT10182</name></trkpt>
<trkpt lat="53.336323" lon="06.599083"><ele>2.3</ele><time>2021-05-20T13:49:13Z</time><name>PT10183</name></trkpt>
<trkpt lat="53.336328" lon="06.599108"><ele>2.1</ele><time>2021-05-20T13:49:14Z</time><name>PT10184</name></trkpt>
<trkpt lat="53.336333" lon="06.599127"><ele>2.1</ele><time>2021-05-20T13:49:15Z</time><name>PT10185</name></trkpt>
<trkpt lat="53.336338" lon="06.599143"><ele>2.1</ele><time>2021-05-20T13:49:16Z</time><name>PT10186</name></trkpt>
<trkpt lat="53.336343" lon="06.599154"><ele>2</ele><time>2021-05-20T13:49:17Z</time><name>PT10187</name></trkpt>
<trkpt lat="53.336349" lon="06.599167"><ele>2.1</ele><time>2021-05-20T13:49:18Z</time><name>PT10188</name></trkpt>
<trkpt lat="53.336353" lon="06.599182"><ele>2.1</ele><time>2021-05-20T13:49:19Z</time><name>PT10189</name></trkpt>
<trkpt lat="53.336357" lon="06.599196"><ele>2.2</ele><time>2021-05-20T13:49:20Z</time><name>PT10190</name></trkpt>
<trkpt lat="53.336359" lon="06.599211"><ele>2.2</ele><time>2021-05-20T13:49:21Z</time><name>PT10191</name></trkpt>
<trkpt lat="53.336361" lon="06.599228"><ele>2.1</ele><time>2021-05-20T13:49:22Z</time><name>PT10192</name></trkpt>
<trkpt lat="53.336362" lon="06.599248"><ele>1.8</ele><time>2021-05-20T13:49:23Z</time><name>PT10193</name></trkpt>
<trkpt lat="53.336364" lon="06.599269"><ele>1.9</ele><time>2021-05-20T13:49:24Z</time><name>PT10194</name></trkpt>
<trkpt lat="53.336368" lon="06.599290"><ele>1.5</ele><time>2021-05-20T13:49:25Z</time><name>PT10195</name></trkpt>
<trkpt lat="53.336372" lon="06.599313"><ele>1.4</ele><time>2021-05-20T13:49:26Z</time><name>PT10196</name></trkpt>
<trkpt lat="53.336377" lon="06.599338"><ele>1.3</ele><time>2021-05-20T13:49:27Z</time><name>PT10197</name></trkpt>
<trkpt lat="53.336382" lon="06.599361"><ele>1.6</ele><time>2021-05-20T13:49:28Z</time><name>PT10198</name></trkpt>
<trkpt lat="53.336387" lon="06.599383"><ele>1.7</ele><time>2021-05-20T13:49:29Z</time><name>PT10199</name></trkpt>
<trkpt lat="53.336392" lon="06.599403"><ele>1.7</ele><time>2021-05-20T13:49:30Z</time><name>PT10200</name></trkpt>
<trkpt lat="53.336398" lon="06.599420"><ele>1.7</ele><time>2021-05-20T13:49:31Z</time><name>PT10201</name></trkpt>
<trkpt lat="53.336402" lon="06.599435"><ele>1.8</ele><time>2021-05-20T13:49:32Z</time><name>PT10202</name></trkpt>
<trkpt lat="53.336406" lon="06.599450"><ele>1.7</ele><time>2021-05-20T13:49:33Z</time><name>PT10203</name></trkpt>
<trkpt lat="53.336410" lon="06.599462"><ele>1.7</ele><time>2021-05-20T13:49:34Z</time><name>PT10204</name></trkpt>
<trkpt lat="53.336414" lon="06.599470"><ele>1.8</ele><time>2021-05-20T13:49:35Z</time><name>PT10205</name></trkpt>
<trkpt lat="53.336416" lon="06.599481"><ele>1.8</ele><time>2021-05-20T13:49:36Z</time><name>PT10206</name></trkpt>
<trkpt lat="53.336419" lon="06.599495"><ele>1.9</ele><time>2021-05-20T13:49:37Z</time><name>PT10207</name></trkpt>
<trkpt lat="53.336421" lon="06.599508"><ele>2.1</ele><time>2021-05-20T13:49:38Z</time><name>PT10208</name></trkpt>
<trkpt lat="53.336424" lon="06.599526"><ele>2.2</ele><time>2021-05-20T13:49:39Z</time><name>PT10209</name></trkpt>
<trkpt lat="53.336426" lon="06.599555"><ele>2.2</ele><time>2021-05-20T13:49:40Z</time><name>PT10210</name></trkpt>
<trkpt lat="53.336429" lon="06.599576"><ele>2.3</ele><time>2021-05-20T13:49:41Z</time><name>PT10211</name></trkpt>
<trkpt lat="53.336433" lon="06.599593"><ele>2.4</ele><time>2021-05-20T13:49:42Z</time><name>PT10212</name></trkpt>
<trkpt lat="53.336436" lon="06.599610"><ele>2.4</ele><time>2021-05-20T13:49:43Z</time><name>PT10213</name></trkpt>
<trkpt lat="53.336441" lon="06.599627"><ele>2.5</ele><time>2021-05-20T13:49:44Z</time><name>PT10214</name></trkpt>
<trkpt lat="53.336446" lon="06.599646"><ele>2.6</ele><time>2021-05-20T13:49:45Z</time><name>PT10215</name></trkpt>
<trkpt lat="53.336451" lon="06.599665"><ele>2.6</ele><time>2021-05-20T13:49:46Z</time><name>PT10216</name></trkpt>
<trkpt lat="53.336455" lon="06.599685"><ele>2.5</ele><time>2021-05-20T13:49:47Z</time><name>PT10217</name></trkpt>
<trkpt lat="53.336459" lon="06.599703"><ele>2.6</ele><time>2021-05-20T13:49:48Z</time><name>PT10218</name></trkpt>
<trkpt lat="53.336464" lon="06.599720"><ele>2.6</ele><time>2021-05-20T13:49:49Z</time><name>PT10219</name></trkpt>
<trkpt lat="53.336468" lon="06.599737"><ele>2.5</ele><time>2021-05-20T13:49:50Z</time><name>PT10220</name></trkpt>
<trkpt lat="53.336471" lon="06.599752"><ele>2.6</ele><time>2021-05-20T13:49:51Z</time><name>PT10221</name></trkpt>
<trkpt lat="53.336474" lon="06.599768"><ele>2.7</ele><time>2021-05-20T13:49:52Z</time><name>PT10222</name></trkpt>
<trkpt lat="53.336478" lon="06.599787"><ele>2.6</ele><time>2021-05-20T13:49:53Z</time><name>PT10223</name></trkpt>
<trkpt lat="53.336482" lon="06.599806"><ele>2.7</ele><time>2021-05-20T13:49:54Z</time><name>PT10224</name></trkpt>
<trkpt lat="53.336485" lon="06.599826"><ele>2.7</ele><time>2021-05-20T13:49:55Z</time><name>PT10225</name></trkpt>
<trkpt lat="53.336489" lon="06.599846"><ele>2.6</ele><time>2021-05-20T13:49:56Z</time><name>PT10226</name></trkpt>
<trkpt lat="53.336494" lon="06.599866"><ele>2.6</ele><time>2021-05-20T13:49:57Z</time><name>PT10227</name></trkpt>
<trkpt lat="53.336498" lon="06.599882"><ele>2.6</ele><time>2021-05-20T13:49:58Z</time><name>PT10228</name></trkpt>
<trkpt lat="53.336501" lon="06.599898"><ele>2.6</ele><time>2021-05-20T13:49:59Z</time><name>PT10229</name></trkpt>
<trkpt lat="53.336506" lon="06.599917"><ele>2.6</ele><time>2021-05-20T13:50:00Z</time><name>PT10230</name></trkpt>
<trkpt lat="53.336510" lon="06.599933"><ele>2.6</ele><time>2021-05-20T13:50:01Z</time><name>PT10231</name></trkpt>
<trkpt lat="53.336517" lon="06.599950"><ele>2.6</ele><time>2021-05-20T13:50:02Z</time><name>PT10232</name></trkpt>
<trkpt lat="53.336525" lon="06.599969"><ele>2.4</ele><time>2021-05-20T13:50:03Z</time><name>PT10233</name></trkpt>
<trkpt lat="53.336531" lon="06.599983"><ele>2.1</ele><time>2021-05-20T13:50:04Z</time><name>PT10234</name></trkpt>
<trkpt lat="53.336535" lon="06.599994"><ele>1.8</ele><time>2021-05-20T13:50:05Z</time><name>PT10235</name></trkpt>
<trkpt lat="53.336536" lon="06.600007"><ele>1.9</ele><time>2021-05-20T13:50:06Z</time><name>PT10236</name></trkpt>
<trkpt lat="53.336539" lon="06.600023"><ele>2.2</ele><time>2021-05-20T13:50:07Z</time><name>PT10237</name></trkpt>
<trkpt lat="53.336540" lon="06.600042"><ele>2.5</ele><time>2021-05-20T13:50:08Z</time><name>PT10238</name></trkpt>
<trkpt lat="53.336543" lon="06.600062"><ele>2.6</ele><time>2021-05-20T13:50:09Z</time><name>PT10239</name></trkpt>
<trkpt lat="53.336547" lon="06.600082"><ele>2.6</ele><time>2021-05-20T13:50:10Z</time><name>PT10240</name></trkpt>
<trkpt lat="53.336553" lon="06.600108"><ele>2</ele><time>2021-05-20T13:50:11Z</time><name>PT10241</name></trkpt>
<trkpt lat="53.336560" lon="06.600137"><ele>1.8</ele><time>2021-05-20T13:50:12Z</time><name>PT10242</name></trkpt>
<trkpt lat="53.336564" lon="06.600165"><ele>1.5</ele><time>2021-05-20T13:50:13Z</time><name>PT10243</name></trkpt>
<trkpt lat="53.336566" lon="06.600184"><ele>1.7</ele><time>2021-05-20T13:50:14Z</time><name>PT10244</name></trkpt>
<trkpt lat="53.336568" lon="06.600203"><ele>1.9</ele><time>2021-05-20T13:50:15Z</time><name>PT10245</name></trkpt>
<trkpt lat="53.336573" lon="06.600219"><ele>2.4</ele><time>2021-05-20T13:50:16Z</time><name>PT10246</name></trkpt>
<trkpt lat="53.336577" lon="06.600236"><ele>2.6</ele><time>2021-05-20T13:50:17Z</time><name>PT10247</name></trkpt>
<trkpt lat="53.336580" lon="06.600254"><ele>2.7</ele><time>2021-05-20T13:50:18Z</time><name>PT10248</name></trkpt>
<trkpt lat="53.336582" lon="06.600271"><ele>2.8</ele><time>2021-05-20T13:50:19Z</time><name>PT10249</name></trkpt>
<trkpt lat="53.336586" lon="06.600289"><ele>2.7</ele><time>2021-05-20T13:50:20Z</time><name>PT10250</name></trkpt>
<trkpt lat="53.336589" lon="06.600308"><ele>2.6</ele><time>2021-05-20T13:50:21Z</time><name>PT10251</name></trkpt>
<trkpt lat="53.336591" lon="06.600332"><ele>2.4</ele><time>2021-05-20T13:50:22Z</time><name>PT10252</name></trkpt>
<trkpt lat="53.336592" lon="06.600357"><ele>2.1</ele><time>2021-05-20T13:50:23Z</time><name>PT10253</name></trkpt>
<trkpt lat="53.336595" lon="06.600378"><ele>1.9</ele><time>2021-05-20T13:50:24Z</time><name>PT10254</name></trkpt>
<trkpt lat="53.336598" lon="06.600398"><ele>1.7</ele><time>2021-05-20T13:50:25Z</time><name>PT10255</name></trkpt>
<trkpt lat="53.336601" lon="06.600415"><ele>1.7</ele><time>2021-05-20T13:50:26Z</time><name>PT10256</name></trkpt>
<trkpt lat="53.336604" lon="06.600429"><ele>1.7</ele><time>2021-05-20T13:50:27Z</time><name>PT10257</name></trkpt>
<trkpt lat="53.336607" lon="06.600444"><ele>1.6</ele><time>2021-05-20T13:50:28Z</time><name>PT10258</name></trkpt>
<trkpt lat="53.336608" lon="06.600459"><ele>1.7</ele><time>2021-05-20T13:50:29Z</time><name>PT10259</name></trkpt>
<trkpt lat="53.336609" lon="06.600475"><ele>1.9</ele><time>2021-05-20T13:50:30Z</time><name>PT10260</name></trkpt>
<trkpt lat="53.336611" lon="06.600490"><ele>2.1</ele><time>2021-05-20T13:50:31Z</time><name>PT10261</name></trkpt>
<trkpt lat="53.336613" lon="06.600507"><ele>2.5</ele><time>2021-05-20T13:50:32Z</time><name>PT10262</name></trkpt>
<trkpt lat="53.336615" lon="06.600523"><ele>2.6</ele><time>2021-05-20T13:50:33Z</time><name>PT10263</name></trkpt>
<trkpt lat="53.336617" lon="06.600541"><ele>2.3</ele><time>2021-05-20T13:50:34Z</time><name>PT10264</name></trkpt>
<trkpt lat="53.336621" lon="06.600557"><ele>2.1</ele><time>2021-05-20T13:50:35Z</time><name>PT10265</name></trkpt>
<trkpt lat="53.336624" lon="06.600572"><ele>2.1</ele><time>2021-05-20T13:50:36Z</time><name>PT10266</name></trkpt>
<trkpt lat="53.336627" lon="06.600588"><ele>2.1</ele><time>2021-05-20T13:50:37Z</time><name>PT10267</name></trkpt>
<trkpt lat="53.336628" lon="06.600603"><ele>2.1</ele><time>2021-05-20T13:50:38Z</time><name>PT10268</name></trkpt>
<trkpt lat="53.336629" lon="06.600620"><ele>2</ele><time>2021-05-20T13:50:39Z</time><name>PT10269</name></trkpt>
<trkpt lat="53.336629" lon="06.600638"><ele>1.8</ele><time>2021-05-20T13:50:40Z</time><name>PT10270</name></trkpt>
<trkpt lat="53.336630" lon="06.600658"><ele>1.8</ele><time>2021-05-20T13:50:41Z</time><name>PT10271</name></trkpt>
<trkpt lat="53.336630" lon="06.600680"><ele>1.8</ele><time>2021-05-20T13:50:42Z</time><name>PT10272</name></trkpt>
<trkpt lat="53.336631" lon="06.600702"><ele>1.9</ele><time>2021-05-20T13:50:43Z</time><name>PT10273</name></trkpt>
<trkpt lat="53.336633" lon="06.600725"><ele>2</ele><time>2021-05-20T13:50:44Z</time><name>PT10274</name></trkpt>
<trkpt lat="53.336637" lon="06.600743"><ele>2.1</ele><time>2021-05-20T13:50:45Z</time><name>PT10275</name></trkpt>
<trkpt lat="53.336641" lon="06.600760"><ele>2.1</ele><time>2021-05-20T13:50:46Z</time><name>PT10276</name></trkpt>
<trkpt lat="53.336645" lon="06.600773"><ele>2.1</ele><time>2021-05-20T13:50:47Z</time><name>PT10277</name></trkpt>
<trkpt lat="53.336646" lon="06.600785"><ele>2.1</ele><time>2021-05-20T13:50:48Z</time><name>PT10278</name></trkpt>
<trkpt lat="53.336644" lon="06.600790"><ele>2</ele><time>2021-05-20T13:50:49Z</time><name>PT10279</name></trkpt>
<trkpt lat="53.336644" lon="06.600796"><ele>1.9</ele><time>2021-05-20T13:50:50Z</time><name>PT10280</name></trkpt>
<trkpt lat="53.336643" lon="06.600807"><ele>1.9</ele><time>2021-05-20T13:50:51Z</time><name>PT10281</name></trkpt>
<trkpt lat="53.336645" lon="06.600812"><ele>1.9</ele><time>2021-05-20T13:50:52Z</time><name>PT10282</name></trkpt>
<trkpt lat="53.336647" lon="06.600821"><ele>2</ele><time>2021-05-20T13:50:53Z</time><name>PT10283</name></trkpt>
<trkpt lat="53.336649" lon="06.600835"><ele>2.1</ele><time>2021-05-20T13:50:54Z</time><name>PT10284</name></trkpt>
<trkpt lat="53.336649" lon="06.600842"><ele>2.5</ele><time>2021-05-20T13:50:55Z</time><name>PT10285</name></trkpt>
<trkpt lat="53.336648" lon="06.600847"><ele>2.7</ele><time>2021-05-20T13:50:56Z</time><name>PT10286</name></trkpt>
<trkpt lat="53.336648" lon="06.600848"><ele>2.8</ele><time>2021-05-20T13:50:57Z</time><name>PT10287</name></trkpt>
<trkpt lat="53.336649" lon="06.600849"><ele>2.9</ele><time>2021-05-20T13:50:58Z</time><name>PT10288</name></trkpt>
<trkpt lat="53.336651" lon="06.600852"><ele>2.6</ele><time>2021-05-20T13:51:10Z</time><name>PT10289</name></trkpt>
<trkpt lat="53.336655" lon="06.600864"><ele>2.7</ele><time>2021-05-20T13:51:11Z</time><name>PT10290</name></trkpt>
<trkpt lat="53.336657" lon="06.600878"><ele>2.7</ele><time>2021-05-20T13:51:12Z</time><name>PT10291</name></trkpt>
<trkpt lat="53.336658" lon="06.600895"><ele>2.6</ele><time>2021-05-20T13:51:13Z</time><name>PT10292</name></trkpt>
<trkpt lat="53.336660" lon="06.600912"><ele>2.6</ele><time>2021-05-20T13:51:14Z</time><name>PT10293</name></trkpt>
<trkpt lat="53.336662" lon="06.600930"><ele>2.6</ele><time>2021-05-20T13:51:15Z</time><name>PT10294</name></trkpt>
<trkpt lat="53.336666" lon="06.600948"><ele>2.6</ele><time>2021-05-20T13:51:16Z</time><name>PT10295</name></trkpt>
<trkpt lat="53.336670" lon="06.600964"><ele>2.6</ele><time>2021-05-20T13:51:17Z</time><name>PT10296</name></trkpt>
<trkpt lat="53.336675" lon="06.600981"><ele>2.3</ele><time>2021-05-20T13:51:18Z</time><name>PT10297</name></trkpt>
<trkpt lat="53.336678" lon="06.600999"><ele>2.4</ele><time>2021-05-20T13:51:19Z</time><name>PT10298</name></trkpt>
<trkpt lat="53.336679" lon="06.601018"><ele>2.3</ele><time>2021-05-20T13:51:20Z</time><name>PT10299</name></trkpt>
<trkpt lat="53.336679" lon="06.601037"><ele>2.2</ele><time>2021-05-20T13:51:21Z</time><name>PT10300</name></trkpt>
<trkpt lat="53.336680" lon="06.601057"><ele>2.5</ele><time>2021-05-20T13:51:22Z</time><name>PT10301</name></trkpt>
<trkpt lat="53.336681" lon="06.601074"><ele>2.5</ele><time>2021-05-20T13:51:23Z</time><name>PT10302</name></trkpt>
<trkpt lat="53.336682" lon="06.601088"><ele>2.5</ele><time>2021-05-20T13:51:24Z</time><name>PT10303</name></trkpt>
<trkpt lat="53.336684" lon="06.601096"><ele>2.6</ele><time>2021-05-20T13:51:25Z</time><name>PT10304</name></trkpt>
<trkpt lat="53.336685" lon="06.601098"><ele>2.8</ele><time>2021-05-20T13:51:26Z</time><name>PT10305</name></trkpt>
<trkpt lat="53.336686" lon="06.601102"><ele>2.8</ele><time>2021-05-20T13:51:27Z</time><name>PT10306</name></trkpt>
<trkpt lat="53.336687" lon="06.601114"><ele>3</ele><time>2021-05-20T13:51:28Z</time><name>PT10307</name></trkpt>
<trkpt lat="53.336689" lon="06.601130"><ele>3.1</ele><time>2021-05-20T13:51:29Z</time><name>PT10308</name></trkpt>
<trkpt lat="53.336691" lon="06.601146"><ele>3</ele><time>2021-05-20T13:51:30Z</time><name>PT10309</name></trkpt>
<trkpt lat="53.336692" lon="06.601160"><ele>3</ele><time>2021-05-20T13:51:31Z</time><name>PT10310</name></trkpt>
<trkpt lat="53.336693" lon="06.601165"><ele>3</ele><time>2021-05-20T13:51:32Z</time><name>PT10311</name></trkpt>
<trkpt lat="53.336694" lon="06.601166"><ele>2.9</ele><time>2021-05-20T13:51:33Z</time><name>PT10312</name></trkpt>
<trkpt lat="53.336695" lon="06.601167"><ele>2.7</ele><time>2021-05-20T13:51:34Z</time><name>PT10313</name></trkpt>
<trkpt lat="53.336694" lon="06.601174"><ele>2.5</ele><time>2021-05-20T13:52:26Z</time><name>PT10314</name></trkpt>
<trkpt lat="53.336693" lon="06.601193"><ele>2.3</ele><time>2021-05-20T13:52:27Z</time><name>PT10315</name></trkpt>
<trkpt lat="53.336694" lon="06.601213"><ele>2.2</ele><time>2021-05-20T13:52:28Z</time><name>PT10316</name></trkpt>
<trkpt lat="53.336696" lon="06.601229"><ele>2.2</ele><time>2021-05-20T13:52:29Z</time><name>PT10317</name></trkpt>
<trkpt lat="53.336701" lon="06.601244"><ele>2.1</ele><time>2021-05-20T13:52:30Z</time><name>PT10318</name></trkpt>
<trkpt lat="53.336705" lon="06.601260"><ele>2.1</ele><time>2021-05-20T13:52:31Z</time><name>PT10319</name></trkpt>
<trkpt lat="53.336708" lon="06.601276"><ele>2.1</ele><time>2021-05-20T13:52:32Z</time><name>PT10320</name></trkpt>
<trkpt lat="53.336709" lon="06.601291"><ele>2.1</ele><time>2021-05-20T13:52:33Z</time><name>PT10321</name></trkpt>
<trkpt lat="53.336710" lon="06.601311"><ele>2.1</ele><time>2021-05-20T13:52:34Z</time><name>PT10322</name></trkpt>
<trkpt lat="53.336710" lon="06.601338"><ele>2.1</ele><time>2021-05-20T13:52:35Z</time><name>PT10323</name></trkpt>
<trkpt lat="53.336714" lon="06.601364"><ele>2.1</ele><time>2021-05-20T13:52:36Z</time><name>PT10324</name></trkpt>
<trkpt lat="53.336716" lon="06.601389"><ele>2.1</ele><time>2021-05-20T13:52:37Z</time><name>PT10325</name></trkpt>
<trkpt lat="53.336719" lon="06.601411"><ele>2</ele><time>2021-05-20T13:52:38Z</time><name>PT10326</name></trkpt>
<trkpt lat="53.336722" lon="06.601430"><ele>1.9</ele><time>2021-05-20T13:52:39Z</time><name>PT10327</name></trkpt>
<trkpt lat="53.336724" lon="06.601452"><ele>1.9</ele><time>2021-05-20T13:52:40Z</time><name>PT10328</name></trkpt>
<trkpt lat="53.336727" lon="06.601471"><ele>1.9</ele><time>2021-05-20T13:52:41Z</time><name>PT10329</name></trkpt>
<trkpt lat="53.336729" lon="06.601488"><ele>2.1</ele><time>2021-05-20T13:52:42Z</time><name>PT10330</name></trkpt>
<trkpt lat="53.336732" lon="06.601505"><ele>2.4</ele><time>2021-05-20T13:52:43Z</time><name>PT10331</name></trkpt>
<trkpt lat="53.336737" lon="06.601518"><ele>2.6</ele><time>2021-05-20T13:52:44Z</time><name>PT10332</name></trkpt>
<trkpt lat="53.336740" lon="06.601533"><ele>2.5</ele><time>2021-05-20T13:52:45Z</time><name>PT10333</name></trkpt>
<trkpt lat="53.336742" lon="06.601547"><ele>2.5</ele><time>2021-05-20T13:52:46Z</time><name>PT10334</name></trkpt>
<trkpt lat="53.336742" lon="06.601563"><ele>2.1</ele><time>2021-05-20T13:52:47Z</time><name>PT10335</name></trkpt>
<trkpt lat="53.336743" lon="06.601579"><ele>2.1</ele><time>2021-05-20T13:52:48Z</time><name>PT10336</name></trkpt>
<trkpt lat="53.336743" lon="06.601595"><ele>1.9</ele><time>2021-05-20T13:52:49Z</time><name>PT10337</name></trkpt>
<trkpt lat="53.336744" lon="06.601615"><ele>1.9</ele><time>2021-05-20T13:52:50Z</time><name>PT10338</name></trkpt>
<trkpt lat="53.336746" lon="06.601640"><ele>2</ele><time>2021-05-20T13:52:51Z</time><name>PT10339</name></trkpt>
<trkpt lat="53.336748" lon="06.601668"><ele>2.1</ele><time>2021-05-20T13:52:52Z</time><name>PT10340</name></trkpt>
<trkpt lat="53.336750" lon="06.601697"><ele>2.1</ele><time>2021-05-20T13:52:53Z</time><name>PT10341</name></trkpt>
<trkpt lat="53.336752" lon="06.601728"><ele>2.1</ele><time>2021-05-20T13:52:54Z</time><name>PT10342</name></trkpt>
<trkpt lat="53.336754" lon="06.601761"><ele>2.3</ele><time>2021-05-20T13:52:55Z</time><name>PT10343</name></trkpt>
<trkpt lat="53.336757" lon="06.601792"><ele>2.4</ele><time>2021-05-20T13:52:56Z</time><name>PT10344</name></trkpt>
<trkpt lat="53.336760" lon="06.601814"><ele>2.3</ele><time>2021-05-20T13:52:57Z</time><name>PT10345</name></trkpt>
<trkpt lat="53.336763" lon="06.601832"><ele>2.3</ele><time>2021-05-20T13:52:58Z</time><name>PT10346</name></trkpt>
<trkpt lat="53.336768" lon="06.601843"><ele>2.2</ele><time>2021-05-20T13:52:59Z</time><name>PT10347</name></trkpt>
<trkpt lat="53.336772" lon="06.601851"><ele>2.1</ele><time>2021-05-20T13:53:00Z</time><name>PT10348</name></trkpt>
<trkpt lat="53.336774" lon="06.601861"><ele>2.1</ele><time>2021-05-20T13:53:01Z</time><name>PT10349</name></trkpt>
<trkpt lat="53.336776" lon="06.601875"><ele>1.9</ele><time>2021-05-20T13:53:02Z</time><name>PT10350</name></trkpt>
<trkpt lat="53.336777" lon="06.601895"><ele>1.8</ele><time>2021-05-20T13:53:03Z</time><name>PT10351</name></trkpt>
<trkpt lat="53.336779" lon="06.601940"><ele>1.8</ele><time>2021-05-20T13:53:05Z</time><name>PT10352</name></trkpt>
<trkpt lat="53.336780" lon="06.601965"><ele>1.8</ele><time>2021-05-20T13:53:06Z</time><name>PT10353</name></trkpt>
<trkpt lat="53.336783" lon="06.601991"><ele>1.9</ele><time>2021-05-20T13:53:07Z</time><name>PT10354</name></trkpt>
<trkpt lat="53.336784" lon="06.602019"><ele>2</ele><time>2021-05-20T13:53:08Z</time><name>PT10355</name></trkpt>
<trkpt lat="53.336787" lon="06.602040"><ele>2.1</ele><time>2021-05-20T13:53:09Z</time><name>PT10356</name></trkpt>
<trkpt lat="53.336790" lon="06.602056"><ele>2</ele><time>2021-05-20T13:53:10Z</time><name>PT10357</name></trkpt>
<trkpt lat="53.336794" lon="06.602071"><ele>2.1</ele><time>2021-05-20T13:53:11Z</time><name>PT10358</name></trkpt>
<trkpt lat="53.336796" lon="06.602083"><ele>2</ele><time>2021-05-20T13:53:12Z</time><name>PT10359</name></trkpt>
<trkpt lat="53.336799" lon="06.602096"><ele>2</ele><time>2021-05-20T13:53:13Z</time><name>PT10360</name></trkpt>
<trkpt lat="53.336801" lon="06.602110"><ele>1.9</ele><time>2021-05-20T13:53:14Z</time><name>PT10361</name></trkpt>
<trkpt lat="53.336802" lon="06.602124"><ele>1.8</ele><time>2021-05-20T13:53:15Z</time><name>PT10362</name></trkpt>
<trkpt lat="53.336803" lon="06.602141"><ele>1.8</ele><time>2021-05-20T13:53:16Z</time><name>PT10363</name></trkpt>
<trkpt lat="53.336806" lon="06.602161"><ele>1.9</ele><time>2021-05-20T13:53:17Z</time><name>PT10364</name></trkpt>
<trkpt lat="53.336808" lon="06.602184"><ele>2</ele><time>2021-05-20T13:53:18Z</time><name>PT10365</name></trkpt>
<trkpt lat="53.336810" lon="06.602202"><ele>1.9</ele><time>2021-05-20T13:53:19Z</time><name>PT10366</name></trkpt>
<trkpt lat="53.336813" lon="06.602216"><ele>2.1</ele><time>2021-05-20T13:53:20Z</time><name>PT10367</name></trkpt>
<trkpt lat="53.336817" lon="06.602227"><ele>1.9</ele><time>2021-05-20T13:53:21Z</time><name>PT10368</name></trkpt>
<trkpt lat="53.336819" lon="06.602242"><ele>2</ele><time>2021-05-20T13:53:22Z</time><name>PT10369</name></trkpt>
<trkpt lat="53.336821" lon="06.602259"><ele>2.1</ele><time>2021-05-20T13:53:23Z</time><name>PT10370</name></trkpt>
<trkpt lat="53.336822" lon="06.602275"><ele>2.1</ele><time>2021-05-20T13:53:24Z</time><name>PT10371</name></trkpt>
<trkpt lat="53.336823" lon="06.602292"><ele>2.1</ele><time>2021-05-20T13:53:25Z</time><name>PT10372</name></trkpt>
<trkpt lat="53.336823" lon="06.602312"><ele>2.1</ele><time>2021-05-20T13:53:26Z</time><name>PT10373</name></trkpt>
<trkpt lat="53.336823" lon="06.602332"><ele>2.1</ele><time>2021-05-20T13:53:27Z</time><name>PT10374</name></trkpt>
<trkpt lat="53.336824" lon="06.602355"><ele>2.1</ele><time>2021-05-20T13:53:28Z</time><name>PT10375</name></trkpt>
<trkpt lat="53.336824" lon="06.602387"><ele>2.1</ele><time>2021-05-20T13:53:29Z</time><name>PT10376</name></trkpt>
<trkpt lat="53.336826" lon="06.602410"><ele>2.4</ele><time>2021-05-20T13:53:30Z</time><name>PT10377</name></trkpt>
<trkpt lat="53.336826" lon="06.602429"><ele>2.6</ele><time>2021-05-20T13:53:31Z</time><name>PT10378</name></trkpt>
<trkpt lat="53.336831" lon="06.602444"><ele>2.8</ele><time>2021-05-20T13:53:32Z</time><name>PT10379</name></trkpt>
<trkpt lat="53.336834" lon="06.602460"><ele>2.8</ele><time>2021-05-20T13:53:33Z</time><name>PT10380</name></trkpt>
<trkpt lat="53.336835" lon="06.602482"><ele>2.8</ele><time>2021-05-20T13:53:34Z</time><name>PT10381</name></trkpt>
<trkpt lat="53.336837" lon="06.602503"><ele>2.6</ele><time>2021-05-20T13:53:35Z</time><name>PT10382</name></trkpt>
<trkpt lat="53.336840" lon="06.602524"><ele>2.6</ele><time>2021-05-20T13:53:36Z</time><name>PT10383</name></trkpt>
<trkpt lat="53.336844" lon="06.602542"><ele>2.7</ele><time>2021-05-20T13:53:37Z</time><name>PT10384</name></trkpt>
<trkpt lat="53.336847" lon="06.602561"><ele>2.9</ele><time>2021-05-20T13:53:38Z</time><name>PT10385</name></trkpt>
<trkpt lat="53.336850" lon="06.602579"><ele>2.9</ele><time>2021-05-20T13:53:39Z</time><name>PT10386</name></trkpt>
<trkpt lat="53.336854" lon="06.602598"><ele>2.8</ele><time>2021-05-20T13:53:40Z</time><name>PT10387</name></trkpt>
<trkpt lat="53.336858" lon="06.602617"><ele>2.6</ele><time>2021-05-20T13:53:41Z</time><name>PT10388</name></trkpt>
<trkpt lat="53.336860" lon="06.602638"><ele>2.5</ele><time>2021-05-20T13:53:42Z</time><name>PT10389</name></trkpt>
<trkpt lat="53.336862" lon="06.602659"><ele>2.5</ele><time>2021-05-20T13:53:43Z</time><name>PT10390</name></trkpt>
<trkpt lat="53.336866" lon="06.602676"><ele>2.5</ele><time>2021-05-20T13:53:44Z</time><name>PT10391</name></trkpt>
<trkpt lat="53.336869" lon="06.602692"><ele>2.6</ele><time>2021-05-20T13:53:45Z</time><name>PT10392</name></trkpt>
<trkpt lat="53.336872" lon="06.602718"><ele>2.6</ele><time>2021-05-20T13:53:46Z</time><name>PT10393</name></trkpt>
<trkpt lat="53.336875" lon="06.602747"><ele>2.6</ele><time>2021-05-20T13:53:47Z</time><name>PT10394</name></trkpt>
<trkpt lat="53.336877" lon="06.602776"><ele>2.6</ele><time>2021-05-20T13:53:48Z</time><name>PT10395</name></trkpt>
<trkpt lat="53.336880" lon="06.602804"><ele>2.4</ele><time>2021-05-20T13:53:49Z</time><name>PT10396</name></trkpt>
<trkpt lat="53.336883" lon="06.602829"><ele>2.3</ele><time>2021-05-20T13:53:50Z</time><name>PT10397</name></trkpt>
<trkpt lat="53.336884" lon="06.602852"><ele>2.4</ele><time>2021-05-20T13:53:51Z</time><name>PT10398</name></trkpt>
<trkpt lat="53.336887" lon="06.602867"><ele>2.1</ele><time>2021-05-20T13:53:52Z</time><name>PT10399</name></trkpt>
<trkpt lat="53.336890" lon="06.602881"><ele>2.1</ele><time>2021-05-20T13:53:53Z</time><name>PT10400</name></trkpt>
<trkpt lat="53.336893" lon="06.602894"><ele>2</ele><time>2021-05-20T13:53:54Z</time><name>PT10401</name></trkpt>
<trkpt lat="53.336895" lon="06.602908"><ele>2.1</ele><time>2021-05-20T13:53:55Z</time><name>PT10402</name></trkpt>
<trkpt lat="53.336896" lon="06.602924"><ele>2.1</ele><time>2021-05-20T13:53:56Z</time><name>PT10403</name></trkpt>
<trkpt lat="53.336897" lon="06.602934"><ele>2.1</ele><time>2021-05-20T13:53:57Z</time><name>PT10404</name></trkpt>
<trkpt lat="53.336900" lon="06.602944"><ele>2.1</ele><time>2021-05-20T13:53:58Z</time><name>PT10405</name></trkpt>
<trkpt lat="53.336902" lon="06.602957"><ele>2.1</ele><time>2021-05-20T13:53:59Z</time><name>PT10406</name></trkpt>
<trkpt lat="53.336903" lon="06.602973"><ele>1.8</ele><time>2021-05-20T13:54:00Z</time><name>PT10407</name></trkpt>
<trkpt lat="53.336903" lon="06.602993"><ele>1.9</ele><time>2021-05-20T13:54:01Z</time><name>PT10408</name></trkpt>
<trkpt lat="53.336904" lon="06.603017"><ele>1.8</ele><time>2021-05-20T13:54:02Z</time><name>PT10409</name></trkpt>
<trkpt lat="53.336906" lon="06.603041"><ele>1.9</ele><time>2021-05-20T13:54:03Z</time><name>PT10410</name></trkpt>
<trkpt lat="53.336909" lon="06.603064"><ele>2</ele><time>2021-05-20T13:54:04Z</time><name>PT10411</name></trkpt>
<trkpt lat="53.336911" lon="06.603089"><ele>2.1</ele><time>2021-05-20T13:54:05Z</time><name>PT10412</name></trkpt>
<trkpt lat="53.336915" lon="06.603106"><ele>2.1</ele><time>2021-05-20T13:54:06Z</time><name>PT10413</name></trkpt>
<trkpt lat="53.336919" lon="06.603121"><ele>2.1</ele><time>2021-05-20T13:54:07Z</time><name>PT10414</name></trkpt>
<trkpt lat="53.336923" lon="06.603137"><ele>2.3</ele><time>2021-05-20T13:54:08Z</time><name>PT10415</name></trkpt>
<trkpt lat="53.336927" lon="06.603151"><ele>2.7</ele><time>2021-05-20T13:54:09Z</time><name>PT10416</name></trkpt>
<trkpt lat="53.336931" lon="06.603167"><ele>2.7</ele><time>2021-05-20T13:54:10Z</time><name>PT10417</name></trkpt>
<trkpt lat="53.336933" lon="06.603186"><ele>2.8</ele><time>2021-05-20T13:54:11Z</time><name>PT10418</name></trkpt>
<trkpt lat="53.336935" lon="06.603203"><ele>2.8</ele><time>2021-05-20T13:54:12Z</time><name>PT10419</name></trkpt>
<trkpt lat="53.336936" lon="06.603220"><ele>2.6</ele><time>2021-05-20T13:54:13Z</time><name>PT10420</name></trkpt>
<trkpt lat="53.336938" lon="06.603239"><ele>2.6</ele><time>2021-05-20T13:54:14Z</time><name>PT10421</name></trkpt>
<trkpt lat="53.336941" lon="06.603255"><ele>2.5</ele><time>2021-05-20T13:54:15Z</time><name>PT10422</name></trkpt>
<trkpt lat="53.336942" lon="06.603277"><ele>2.3</ele><time>2021-05-20T13:54:16Z</time><name>PT10423</name></trkpt>
<trkpt lat="53.336943" lon="06.603305"><ele>2.1</ele><time>2021-05-20T13:54:17Z</time><name>PT10424</name></trkpt>
<trkpt lat="53.336944" lon="06.603333"><ele>2</ele><time>2021-05-20T13:54:18Z</time><name>PT10425</name></trkpt>
<trkpt lat="53.336947" lon="06.603360"><ele>2.1</ele><time>2021-05-20T13:54:19Z</time><name>PT10426</name></trkpt>
<trkpt lat="53.336949" lon="06.603382"><ele>2.1</ele><time>2021-05-20T13:54:20Z</time><name>PT10427</name></trkpt>
<trkpt lat="53.336950" lon="06.603405"><ele>2.1</ele><time>2021-05-20T13:54:21Z</time><name>PT10428</name></trkpt>
<trkpt lat="53.336952" lon="06.603423"><ele>2.1</ele><time>2021-05-20T13:54:22Z</time><name>PT10429</name></trkpt>
<trkpt lat="53.336955" lon="06.603436"><ele>2.1</ele><time>2021-05-20T13:54:23Z</time><name>PT10430</name></trkpt>
<trkpt lat="53.336957" lon="06.603446"><ele>2</ele><time>2021-05-20T13:54:24Z</time><name>PT10431</name></trkpt>
<trkpt lat="53.336960" lon="06.603460"><ele>1.9</ele><time>2021-05-20T13:54:25Z</time><name>PT10432</name></trkpt>
<trkpt lat="53.336962" lon="06.603476"><ele>1.9</ele><time>2021-05-20T13:54:26Z</time><name>PT10433</name></trkpt>
<trkpt lat="53.336964" lon="06.603489"><ele>2</ele><time>2021-05-20T13:54:27Z</time><name>PT10434</name></trkpt>
<trkpt lat="53.336966" lon="06.603505"><ele>1.8</ele><time>2021-05-20T13:54:28Z</time><name>PT10435</name></trkpt>
<trkpt lat="53.336966" lon="06.603523"><ele>1.8</ele><time>2021-05-20T13:54:29Z</time><name>PT10436</name></trkpt>
<trkpt lat="53.336968" lon="06.603541"><ele>1.9</ele><time>2021-05-20T13:54:30Z</time><name>PT10437</name></trkpt>
<trkpt lat="53.336969" lon="06.603563"><ele>1.9</ele><time>2021-05-20T13:54:31Z</time><name>PT10438</name></trkpt>
<trkpt lat="53.336970" lon="06.603586"><ele>1.9</ele><time>2021-05-20T13:54:32Z</time><name>PT10439</name></trkpt>
<trkpt lat="53.336973" lon="06.603606"><ele>1.7</ele><time>2021-05-20T13:54:33Z</time><name>PT10440</name></trkpt>
<trkpt lat="53.336975" lon="06.603621"><ele>1.7</ele><time>2021-05-20T13:54:34Z</time><name>PT10441</name></trkpt>
<trkpt lat="53.336978" lon="06.603635"><ele>1.8</ele><time>2021-05-20T13:54:35Z</time><name>PT10442</name></trkpt>
<trkpt lat="53.336980" lon="06.603651"><ele>1.9</ele><time>2021-05-20T13:54:36Z</time><name>PT10443</name></trkpt>
<trkpt lat="53.336980" lon="06.603667"><ele>2.1</ele><time>2021-05-20T13:54:37Z</time><name>PT10444</name></trkpt>
<trkpt lat="53.336980" lon="06.603684"><ele>2.1</ele><time>2021-05-20T13:54:38Z</time><name>PT10445</name></trkpt>
<trkpt lat="53.336980" lon="06.603705"><ele>2.1</ele><time>2021-05-20T13:54:39Z</time><name>PT10446</name></trkpt>
<trkpt lat="53.336981" lon="06.603730"><ele>2</ele><time>2021-05-20T13:54:40Z</time><name>PT10447</name></trkpt>
<trkpt lat="53.336983" lon="06.603754"><ele>1.9</ele><time>2021-05-20T13:54:41Z</time><name>PT10448</name></trkpt>
<trkpt lat="53.336984" lon="06.603776"><ele>1.9</ele><time>2021-05-20T13:54:42Z</time><name>PT10449</name></trkpt>
<trkpt lat="53.336986" lon="06.603793"><ele>1.9</ele><time>2021-05-20T13:54:43Z</time><name>PT10450</name></trkpt>
<trkpt lat="53.336987" lon="06.603807"><ele>1.8</ele><time>2021-05-20T13:54:44Z</time><name>PT10451</name></trkpt>
<trkpt lat="53.336988" lon="06.603820"><ele>1.7</ele><time>2021-05-20T13:54:45Z</time><name>PT10452</name></trkpt>
<trkpt lat="53.336988" lon="06.603835"><ele>1.9</ele><time>2021-05-20T13:54:46Z</time><name>PT10453</name></trkpt>
<trkpt lat="53.336988" lon="06.603852"><ele>1.7</ele><time>2021-05-20T13:54:47Z</time><name>PT10454</name></trkpt>
<trkpt lat="53.336988" lon="06.603874"><ele>1.8</ele><time>2021-05-20T13:54:48Z</time><name>PT10455</name></trkpt>
<trkpt lat="53.336989" lon="06.603897"><ele>1.8</ele><time>2021-05-20T13:54:49Z</time><name>PT10456</name></trkpt>
<trkpt lat="53.336990" lon="06.603918"><ele>1.7</ele><time>2021-05-20T13:54:50Z</time><name>PT10457</name></trkpt>
<trkpt lat="53.336991" lon="06.603936"><ele>1.9</ele><time>2021-05-20T13:54:51Z</time><name>PT10458</name></trkpt>
<trkpt lat="53.336993" lon="06.603949"><ele>1.9</ele><time>2021-05-20T13:54:52Z</time><name>PT10459</name></trkpt>
<trkpt lat="53.336995" lon="06.603961"><ele>1.9</ele><time>2021-05-20T13:54:53Z</time><name>PT10460</name></trkpt>
<trkpt lat="53.336996" lon="06.603976"><ele>2</ele><time>2021-05-20T13:54:54Z</time><name>PT10461</name></trkpt>
<trkpt lat="53.336995" lon="06.603995"><ele>2.1</ele><time>2021-05-20T13:54:55Z</time><name>PT10462</name></trkpt>
<trkpt lat="53.336994" lon="06.604016"><ele>2</ele><time>2021-05-20T13:54:56Z</time><name>PT10463</name></trkpt>
<trkpt lat="53.336993" lon="06.604039"><ele>2</ele><time>2021-05-20T13:54:57Z</time><name>PT10464</name></trkpt>
<trkpt lat="53.336993" lon="06.604063"><ele>2.1</ele><time>2021-05-20T13:54:58Z</time><name>PT10465</name></trkpt>
<trkpt lat="53.336993" lon="06.604082"><ele>2.1</ele><time>2021-05-20T13:54:59Z</time><name>PT10466</name></trkpt>
<trkpt lat="53.336994" lon="06.604095"><ele>1.9</ele><time>2021-05-20T13:55:00Z</time><name>PT10467</name></trkpt>
<trkpt lat="53.336995" lon="06.604109"><ele>1.9</ele><time>2021-05-20T13:55:01Z</time><name>PT10468</name></trkpt>
<trkpt lat="53.336996" lon="06.604125"><ele>1.9</ele><time>2021-05-20T13:55:02Z</time><name>PT10469</name></trkpt>
<trkpt lat="53.336995" lon="06.604143"><ele>2</ele><time>2021-05-20T13:55:03Z</time><name>PT10470</name></trkpt>
<trkpt lat="53.336993" lon="06.604162"><ele>2.1</ele><time>2021-05-20T13:55:04Z</time><name>PT10471</name></trkpt>
<trkpt lat="53.336991" lon="06.604183"><ele>2.2</ele><time>2021-05-20T13:55:05Z</time><name>PT10472</name></trkpt>
<trkpt lat="53.336989" lon="06.604206"><ele>2.3</ele><time>2021-05-20T13:55:06Z</time><name>PT10473</name></trkpt>
<trkpt lat="53.336988" lon="06.604226"><ele>2.1</ele><time>2021-05-20T13:55:07Z</time><name>PT10474</name></trkpt>
<trkpt lat="53.336988" lon="06.604242"><ele>2.1</ele><time>2021-05-20T13:55:08Z</time><name>PT10475</name></trkpt>
<trkpt lat="53.336990" lon="06.604257"><ele>2.2</ele><time>2021-05-20T13:55:09Z</time><name>PT10476</name></trkpt>
<trkpt lat="53.336991" lon="06.604272"><ele>2.1</ele><time>2021-05-20T13:55:10Z</time><name>PT10477</name></trkpt>
<trkpt lat="53.336991" lon="06.604286"><ele>2.1</ele><time>2021-05-20T13:55:11Z</time><name>PT10478</name></trkpt>
<trkpt lat="53.336990" lon="06.604302"><ele>2.1</ele><time>2021-05-20T13:55:12Z</time><name>PT10479</name></trkpt>
<trkpt lat="53.336987" lon="06.604322"><ele>2</ele><time>2021-05-20T13:55:13Z</time><name>PT10480</name></trkpt>
<trkpt lat="53.336983" lon="06.604344"><ele>2</ele><time>2021-05-20T13:55:14Z</time><name>PT10481</name></trkpt>
<trkpt lat="53.336981" lon="06.604367"><ele>1.7</ele><time>2021-05-20T13:55:15Z</time><name>PT10482</name></trkpt>
<trkpt lat="53.336982" lon="06.604383"><ele>1.7</ele><time>2021-05-20T13:55:16Z</time><name>PT10483</name></trkpt>
<trkpt lat="53.336982" lon="06.604400"><ele>1.8</ele><time>2021-05-20T13:55:17Z</time><name>PT10484</name></trkpt>
<trkpt lat="53.336980" lon="06.604416"><ele>1.8</ele><time>2021-05-20T13:55:18Z</time><name>PT10485</name></trkpt>
<trkpt lat="53.336979" lon="06.604431"><ele>1.7</ele><time>2021-05-20T13:55:19Z</time><name>PT10486</name></trkpt>
<trkpt lat="53.336975" lon="06.604452"><ele>1.7</ele><time>2021-05-20T13:55:20Z</time><name>PT10487</name></trkpt>
<trkpt lat="53.336973" lon="06.604470"><ele>1.7</ele><time>2021-05-20T13:55:21Z</time><name>PT10488</name></trkpt>
<trkpt lat="53.336970" lon="06.604490"><ele>1.7</ele><time>2021-05-20T13:55:22Z</time><name>PT10489</name></trkpt>
<trkpt lat="53.336970" lon="06.604503"><ele>1.8</ele><time>2021-05-20T13:55:23Z</time><name>PT10490</name></trkpt>
<trkpt lat="53.336970" lon="06.604517"><ele>2</ele><time>2021-05-20T13:55:24Z</time><name>PT10491</name></trkpt>
<trkpt lat="53.336969" lon="06.604527"><ele>2.1</ele><time>2021-05-20T13:55:25Z</time><name>PT10492</name></trkpt>
<trkpt lat="53.336967" lon="06.604541"><ele>2.1</ele><time>2021-05-20T13:55:26Z</time><name>PT10493</name></trkpt>
<trkpt lat="53.336964" lon="06.604559"><ele>2.2</ele><time>2021-05-20T13:55:27Z</time><name>PT10494</name></trkpt>
<trkpt lat="53.336961" lon="06.604581"><ele>2.2</ele><time>2021-05-20T13:55:28Z</time><name>PT10495</name></trkpt>
<trkpt lat="53.336957" lon="06.604602"><ele>2.2</ele><time>2021-05-20T13:55:29Z</time><name>PT10496</name></trkpt>
<trkpt lat="53.336955" lon="06.604621"><ele>2.2</ele><time>2021-05-20T13:55:30Z</time><name>PT10497</name></trkpt>
<trkpt lat="53.336956" lon="06.604637"><ele>2.2</ele><time>2021-05-20T13:55:31Z</time><name>PT10498</name></trkpt>
<trkpt lat="53.336956" lon="06.604647"><ele>2.1</ele><time>2021-05-20T13:55:32Z</time><name>PT10499</name></trkpt>
<trkpt lat="53.336956" lon="06.604658"><ele>2.2</ele><time>2021-05-20T13:55:33Z</time><name>PT10500</name></trkpt>
<trkpt lat="53.336954" lon="06.604672"><ele>2.1</ele><time>2021-05-20T13:55:34Z</time><name>PT10501</name></trkpt>
<trkpt lat="53.336950" lon="06.604688"><ele>2.1</ele><time>2021-05-20T13:55:35Z</time><name>PT10502</name></trkpt>
<trkpt lat="53.336946" lon="06.604709"><ele>2.3</ele><time>2021-05-20T13:55:36Z</time><name>PT10503</name></trkpt>
<trkpt lat="53.336943" lon="06.604732"><ele>2.3</ele><time>2021-05-20T13:55:37Z</time><name>PT10504</name></trkpt>
<trkpt lat="53.336942" lon="06.604750"><ele>2.2</ele><time>2021-05-20T13:55:38Z</time><name>PT10505</name></trkpt>
<trkpt lat="53.336940" lon="06.604766"><ele>2.3</ele><time>2021-05-20T13:55:39Z</time><name>PT10506</name></trkpt>
<trkpt lat="53.336939" lon="06.604779"><ele>2.3</ele><time>2021-05-20T13:55:40Z</time><name>PT10507</name></trkpt>
<trkpt lat="53.336939" lon="06.604795"><ele>2.3</ele><time>2021-05-20T13:55:41Z</time><name>PT10508</name></trkpt>
<trkpt lat="53.336936" lon="06.604812"><ele>2.4</ele><time>2021-05-20T13:55:42Z</time><name>PT10509</name></trkpt>
<trkpt lat="53.336931" lon="06.604832"><ele>2.4</ele><time>2021-05-20T13:55:43Z</time><name>PT10510</name></trkpt>
<trkpt lat="53.336926" lon="06.604858"><ele>2.4</ele><time>2021-05-20T13:55:44Z</time><name>PT10511</name></trkpt>
<trkpt lat="53.336924" lon="06.604881"><ele>2.4</ele><time>2021-05-20T13:55:45Z</time><name>PT10512</name></trkpt>
<trkpt lat="53.336923" lon="06.604899"><ele>2.2</ele><time>2021-05-20T13:55:46Z</time><name>PT10513</name></trkpt>
<trkpt lat="53.336922" lon="06.604912"><ele>2.1</ele><time>2021-05-20T13:55:47Z</time><name>PT10514</name></trkpt>
<trkpt lat="53.336921" lon="06.604924"><ele>2.3</ele><time>2021-05-20T13:55:48Z</time><name>PT10515</name></trkpt>
<trkpt lat="53.336919" lon="06.604936"><ele>2.2</ele><time>2021-05-20T13:55:49Z</time><name>PT10516</name></trkpt>
<trkpt lat="53.336916" lon="06.604951"><ele>2.1</ele><time>2021-05-20T13:55:50Z</time><name>PT10517</name></trkpt>
<trkpt lat="53.336912" lon="06.604970"><ele>2.2</ele><time>2021-05-20T13:55:51Z</time><name>PT10518</name></trkpt>
<trkpt lat="53.336908" lon="06.604993"><ele>2.1</ele><time>2021-05-20T13:55:52Z</time><name>PT10519</name></trkpt>
<trkpt lat="53.336906" lon="06.605013"><ele>2.1</ele><time>2021-05-20T13:55:53Z</time><name>PT10520</name></trkpt>
<trkpt lat="53.336904" lon="06.605028"><ele>2.1</ele><time>2021-05-20T13:55:54Z</time><name>PT10521</name></trkpt>
<trkpt lat="53.336903" lon="06.605041"><ele>2.2</ele><time>2021-05-20T13:55:55Z</time><name>PT10522</name></trkpt>
<trkpt lat="53.336903" lon="06.605052"><ele>2.1</ele><time>2021-05-20T13:55:56Z</time><name>PT10523</name></trkpt>
<trkpt lat="53.336901" lon="06.605061"><ele>2.3</ele><time>2021-05-20T13:55:57Z</time><name>PT10524</name></trkpt>
<trkpt lat="53.336898" lon="06.605074"><ele>2.1</ele><time>2021-05-20T13:55:58Z</time><name>PT10525</name></trkpt>
<trkpt lat="53.336893" lon="06.605089"><ele>2.1</ele><time>2021-05-20T13:55:59Z</time><name>PT10526</name></trkpt>
<trkpt lat="53.336890" lon="06.605108"><ele>2.1</ele><time>2021-05-20T13:56:00Z</time><name>PT10527</name></trkpt>
<trkpt lat="53.336886" lon="06.605127"><ele>2.1</ele><time>2021-05-20T13:56:01Z</time><name>PT10528</name></trkpt>
<trkpt lat="53.336885" lon="06.605143"><ele>2.1</ele><time>2021-05-20T13:56:02Z</time><name>PT10529</name></trkpt>
<trkpt lat="53.336885" lon="06.605154"><ele>2.4</ele><time>2021-05-20T13:56:03Z</time><name>PT10530</name></trkpt>
<trkpt lat="53.336883" lon="06.605165"><ele>2.5</ele><time>2021-05-20T13:56:04Z</time><name>PT10531</name></trkpt>
<trkpt lat="53.336880" lon="06.605178"><ele>2.7</ele><time>2021-05-20T13:56:05Z</time><name>PT10532</name></trkpt>
<trkpt lat="53.336875" lon="06.605197"><ele>2.8</ele><time>2021-05-20T13:56:06Z</time><name>PT10533</name></trkpt>
<trkpt lat="53.336870" lon="06.605222"><ele>2.8</ele><time>2021-05-20T13:56:07Z</time><name>PT10534</name></trkpt>
<trkpt lat="53.336866" lon="06.605246"><ele>2.8</ele><time>2021-05-20T13:56:08Z</time><name>PT10535</name></trkpt>
<trkpt lat="53.336864" lon="06.605265"><ele>2.8</ele><time>2021-05-20T13:56:09Z</time><name>PT10536</name></trkpt>
<trkpt lat="53.336863" lon="06.605278"><ele>2.7</ele><time>2021-05-20T13:56:10Z</time><name>PT10537</name></trkpt>
<trkpt lat="53.336862" lon="06.605290"><ele>2.6</ele><time>2021-05-20T13:56:11Z</time><name>PT10538</name></trkpt>
<trkpt lat="53.336860" lon="06.605303"><ele>2.5</ele><time>2021-05-20T13:56:12Z</time><name>PT10539</name></trkpt>
<trkpt lat="53.336857" lon="06.605318"><ele>2.6</ele><time>2021-05-20T13:56:13Z</time><name>PT10540</name></trkpt>
<trkpt lat="53.336852" lon="06.605337"><ele>2.4</ele><time>2021-05-20T13:56:14Z</time><name>PT10541</name></trkpt>
<trkpt lat="53.336846" lon="06.605360"><ele>2.3</ele><time>2021-05-20T13:56:15Z</time><name>PT10542</name></trkpt>
<trkpt lat="53.336843" lon="06.605386"><ele>2.5</ele><time>2021-05-20T13:56:16Z</time><name>PT10543</name></trkpt>
<trkpt lat="53.336839" lon="06.605407"><ele>2.6</ele><time>2021-05-20T13:56:17Z</time><name>PT10544</name></trkpt>
<trkpt lat="53.336838" lon="06.605425"><ele>2.8</ele><time>2021-05-20T13:56:18Z</time><name>PT10545</name></trkpt>
<trkpt lat="53.336836" lon="06.605437"><ele>2.9</ele><time>2021-05-20T13:56:19Z</time><name>PT10546</name></trkpt>
<trkpt lat="53.336834" lon="06.605447"><ele>2.8</ele><time>2021-05-20T13:56:20Z</time><name>PT10547</name></trkpt>
<trkpt lat="53.336832" lon="06.605462"><ele>3</ele><time>2021-05-20T13:56:21Z</time><name>PT10548</name></trkpt>
<trkpt lat="53.336827" lon="06.605482"><ele>3.1</ele><time>2021-05-20T13:56:22Z</time><name>PT10549</name></trkpt>
<trkpt lat="53.336823" lon="06.605503"><ele>3</ele><time>2021-05-20T13:56:23Z</time><name>PT10550</name></trkpt>
<trkpt lat="53.336820" lon="06.605530"><ele>2.9</ele><time>2021-05-20T13:56:24Z</time><name>PT10551</name></trkpt>
<trkpt lat="53.336820" lon="06.605551"><ele>3</ele><time>2021-05-20T13:56:25Z</time><name>PT10552</name></trkpt>
<trkpt lat="53.336821" lon="06.605566"><ele>2.6</ele><time>2021-05-20T13:56:26Z</time><name>PT10553</name></trkpt>
<trkpt lat="53.336821" lon="06.605577"><ele>2.6</ele><time>2021-05-20T13:56:27Z</time><name>PT10554</name></trkpt>
<trkpt lat="53.336820" lon="06.605586"><ele>2.7</ele><time>2021-05-20T13:56:28Z</time><name>PT10555</name></trkpt>
<trkpt lat="53.336819" lon="06.605597"><ele>2.9</ele><time>2021-05-20T13:56:29Z</time><name>PT10556</name></trkpt>
<trkpt lat="53.336817" lon="06.605610"><ele>2.9</ele><time>2021-05-20T13:56:30Z</time><name>PT10557</name></trkpt>
<trkpt lat="53.336814" lon="06.605627"><ele>2.8</ele><time>2021-05-20T13:56:31Z</time><name>PT10558</name></trkpt>
<trkpt lat="53.336811" lon="06.605648"><ele>2.8</ele><time>2021-05-20T13:56:32Z</time><name>PT10559</name></trkpt>
<trkpt lat="53.336809" lon="06.605664"><ele>2.6</ele><time>2021-05-20T13:56:33Z</time><name>PT10560</name></trkpt>
<trkpt lat="53.336808" lon="06.605681"><ele>2.5</ele><time>2021-05-20T13:56:34Z</time><name>PT10561</name></trkpt>
<trkpt lat="53.336807" lon="06.605697"><ele>2.5</ele><time>2021-05-20T13:56:35Z</time><name>PT10562</name></trkpt>
<trkpt lat="53.336807" lon="06.605710"><ele>2.6</ele><time>2021-05-20T13:56:36Z</time><name>PT10563</name></trkpt>
<trkpt lat="53.336807" lon="06.605720"><ele>2.6</ele><time>2021-05-20T13:56:37Z</time><name>PT10564</name></trkpt>
<trkpt lat="53.336805" lon="06.605731"><ele>2.5</ele><time>2021-05-20T13:56:38Z</time><name>PT10565</name></trkpt>
<trkpt lat="53.336803" lon="06.605748"><ele>2.7</ele><time>2021-05-20T13:56:39Z</time><name>PT10566</name></trkpt>
<trkpt lat="53.336802" lon="06.605768"><ele>2.7</ele><time>2021-05-20T13:56:40Z</time><name>PT10567</name></trkpt>
<trkpt lat="53.336800" lon="06.605790"><ele>2.6</ele><time>2021-05-20T13:56:41Z</time><name>PT10568</name></trkpt>
<trkpt lat="53.336800" lon="06.605807"><ele>2.7</ele><time>2021-05-20T13:56:42Z</time><name>PT10569</name></trkpt>
<trkpt lat="53.336800" lon="06.605821"><ele>2.7</ele><time>2021-05-20T13:56:43Z</time><name>PT10570</name></trkpt>
<trkpt lat="53.336800" lon="06.605831"><ele>2.6</ele><time>2021-05-20T13:56:44Z</time><name>PT10571</name></trkpt>
<trkpt lat="53.336798" lon="06.605841"><ele>2.6</ele><time>2021-05-20T13:56:45Z</time><name>PT10572</name></trkpt>
<trkpt lat="53.336795" lon="06.605861"><ele>2.6</ele><time>2021-05-20T13:56:46Z</time><name>PT10573</name></trkpt>
<trkpt lat="53.336795" lon="06.605882"><ele>2.7</ele><time>2021-05-20T13:56:47Z</time><name>PT10574</name></trkpt>
<trkpt lat="53.336796" lon="06.605902"><ele>2.7</ele><time>2021-05-20T13:56:48Z</time><name>PT10575</name></trkpt>
<trkpt lat="53.336797" lon="06.605920"><ele>2.8</ele><time>2021-05-20T13:56:49Z</time><name>PT10576</name></trkpt>
<trkpt lat="53.336797" lon="06.605934"><ele>2.8</ele><time>2021-05-20T13:56:50Z</time><name>PT10577</name></trkpt>
<trkpt lat="53.336797" lon="06.605946"><ele>2.7</ele><time>2021-05-20T13:56:51Z</time><name>PT10578</name></trkpt>
<trkpt lat="53.336795" lon="06.605960"><ele>2.6</ele><time>2021-05-20T13:56:52Z</time><name>PT10579</name></trkpt>
<trkpt lat="53.336793" lon="06.605979"><ele>2.6</ele><time>2021-05-20T13:56:53Z</time><name>PT10580</name></trkpt>
<trkpt lat="53.336791" lon="06.606000"><ele>2.6</ele><time>2021-05-20T13:56:54Z</time><name>PT10581</name></trkpt>
<trkpt lat="53.336790" lon="06.606017"><ele>2.6</ele><time>2021-05-20T13:56:55Z</time><name>PT10582</name></trkpt>
<trkpt lat="53.336790" lon="06.606030"><ele>2.7</ele><time>2021-05-20T13:56:56Z</time><name>PT10583</name></trkpt>
<trkpt lat="53.336789" lon="06.606040"><ele>2.7</ele><time>2021-05-20T13:56:57Z</time><name>PT10584</name></trkpt>
<trkpt lat="53.336789" lon="06.606053"><ele>2.7</ele><time>2021-05-20T13:56:58Z</time><name>PT10585</name></trkpt>
<trkpt lat="53.336789" lon="06.606073"><ele>2.6</ele><time>2021-05-20T13:56:59Z</time><name>PT10586</name></trkpt>
<trkpt lat="53.336789" lon="06.606096"><ele>2.7</ele><time>2021-05-20T13:57:00Z</time><name>PT10587</name></trkpt>
<trkpt lat="53.336789" lon="06.606114"><ele>2.7</ele><time>2021-05-20T13:57:01Z</time><name>PT10588</name></trkpt>
<trkpt lat="53.336789" lon="06.606125"><ele>2.8</ele><time>2021-05-20T13:57:02Z</time><name>PT10589</name></trkpt>
<trkpt lat="53.336787" lon="06.606137"><ele>2.8</ele><time>2021-05-20T13:57:03Z</time><name>PT10590</name></trkpt>
<trkpt lat="53.336784" lon="06.606154"><ele>2.7</ele><time>2021-05-20T13:57:04Z</time><name>PT10591</name></trkpt>
<trkpt lat="53.336783" lon="06.606174"><ele>2.6</ele><time>2021-05-20T13:57:05Z</time><name>PT10592</name></trkpt>
<trkpt lat="53.336783" lon="06.606189"><ele>2.6</ele><time>2021-05-20T13:57:06Z</time><name>PT10593</name></trkpt>
<trkpt lat="53.336784" lon="06.606198"><ele>2.4</ele><time>2021-05-20T13:57:07Z</time><name>PT10594</name></trkpt>
<trkpt lat="53.336785" lon="06.606206"><ele>2.5</ele><time>2021-05-20T13:57:08Z</time><name>PT10595</name></trkpt>
<trkpt lat="53.336784" lon="06.606221"><ele>2.5</ele><time>2021-05-20T13:57:09Z</time><name>PT10596</name></trkpt>
<trkpt lat="53.336783" lon="06.606242"><ele>2.6</ele><time>2021-05-20T13:57:10Z</time><name>PT10597</name></trkpt>
<trkpt lat="53.336783" lon="06.606263"><ele>2.6</ele><time>2021-05-20T13:57:11Z</time><name>PT10598</name></trkpt>
<trkpt lat="53.336783" lon="06.606278"><ele>2.6</ele><time>2021-05-20T13:57:12Z</time><name>PT10599</name></trkpt>
<trkpt lat="53.336783" lon="06.606289"><ele>2.6</ele><time>2021-05-20T13:57:13Z</time><name>PT10600</name></trkpt>
<trkpt lat="53.336783" lon="06.606304"><ele>2.6</ele><time>2021-05-20T13:57:14Z</time><name>PT10601</name></trkpt>
<trkpt lat="53.336781" lon="06.606321"><ele>2.6</ele><time>2021-05-20T13:57:15Z</time><name>PT10602</name></trkpt>
<trkpt lat="53.336780" lon="06.606343"><ele>2.5</ele><time>2021-05-20T13:57:16Z</time><name>PT10603</name></trkpt>
<trkpt lat="53.336780" lon="06.606364"><ele>2.6</ele><time>2021-05-20T13:57:17Z</time><name>PT10604</name></trkpt>
<trkpt lat="53.336780" lon="06.606386"><ele>2.6</ele><time>2021-05-20T13:57:18Z</time><name>PT10605</name></trkpt>
<trkpt lat="53.336781" lon="06.606404"><ele>2.7</ele><time>2021-05-20T13:57:19Z</time><name>PT10606</name></trkpt>
<trkpt lat="53.336781" lon="06.606419"><ele>2.8</ele><time>2021-05-20T13:57:20Z</time><name>PT10607</name></trkpt>
<trkpt lat="53.336781" lon="06.606431"><ele>3.1</ele><time>2021-05-20T13:57:21Z</time><name>PT10608</name></trkpt>
<trkpt lat="53.336780" lon="06.606446"><ele>3.1</ele><time>2021-05-20T13:57:22Z</time><name>PT10609</name></trkpt>
<trkpt lat="53.336779" lon="06.606463"><ele>3.1</ele><time>2021-05-20T13:57:23Z</time><name>PT10610</name></trkpt>
<trkpt lat="53.336777" lon="06.606486"><ele>3</ele><time>2021-05-20T13:57:24Z</time><name>PT10611</name></trkpt>
<trkpt lat="53.336776" lon="06.606509"><ele>2.8</ele><time>2021-05-20T13:57:25Z</time><name>PT10612</name></trkpt>
<trkpt lat="53.336776" lon="06.606527"><ele>2.7</ele><time>2021-05-20T13:57:26Z</time><name>PT10613</name></trkpt>
<trkpt lat="53.336778" lon="06.606543"><ele>2.9</ele><time>2021-05-20T13:57:27Z</time><name>PT10614</name></trkpt>
<trkpt lat="53.336779" lon="06.606557"><ele>3</ele><time>2021-05-20T13:57:28Z</time><name>PT10615</name></trkpt>
<trkpt lat="53.336779" lon="06.606572"><ele>2.8</ele><time>2021-05-20T13:57:29Z</time><name>PT10616</name></trkpt>
<trkpt lat="53.336777" lon="06.606589"><ele>2.8</ele><time>2021-05-20T13:57:30Z</time><name>PT10617</name></trkpt>
<trkpt lat="53.336776" lon="06.606612"><ele>2.7</ele><time>2021-05-20T13:57:31Z</time><name>PT10618</name></trkpt>
<trkpt lat="53.336775" lon="06.606639"><ele>2.4</ele><time>2021-05-20T13:57:32Z</time><name>PT10619</name></trkpt>
<trkpt lat="53.336777" lon="06.606660"><ele>2.2</ele><time>2021-05-20T13:57:33Z</time><name>PT10620</name></trkpt>
<trkpt lat="53.336777" lon="06.606682"><ele>2.3</ele><time>2021-05-20T13:57:34Z</time><name>PT10621</name></trkpt>
<trkpt lat="53.336779" lon="06.606700"><ele>2.5</ele><time>2021-05-20T13:57:35Z</time><name>PT10622</name></trkpt>
<trkpt lat="53.336781" lon="06.606715"><ele>2.5</ele><time>2021-05-20T13:57:36Z</time><name>PT10623</name></trkpt>
<trkpt lat="53.336782" lon="06.606727"><ele>2.7</ele><time>2021-05-20T13:57:37Z</time><name>PT10624</name></trkpt>
<trkpt lat="53.336783" lon="06.606740"><ele>2.6</ele><time>2021-05-20T13:57:38Z</time><name>PT10625</name></trkpt>
<trkpt lat="53.336783" lon="06.606754"><ele>2.5</ele><time>2021-05-20T13:57:39Z</time><name>PT10626</name></trkpt>
<trkpt lat="53.336782" lon="06.606773"><ele>2.4</ele><time>2021-05-20T13:57:40Z</time><name>PT10627</name></trkpt>
<trkpt lat="53.336781" lon="06.606798"><ele>2.5</ele><time>2021-05-20T13:57:41Z</time><name>PT10628</name></trkpt>
<trkpt lat="53.336781" lon="06.606825"><ele>2.4</ele><time>2021-05-20T13:57:42Z</time><name>PT10629</name></trkpt>
<trkpt lat="53.336781" lon="06.606848"><ele>2.4</ele><time>2021-05-20T13:57:43Z</time><name>PT10630</name></trkpt>
<trkpt lat="53.336781" lon="06.606869"><ele>2.6</ele><time>2021-05-20T13:57:44Z</time><name>PT10631</name></trkpt>
<trkpt lat="53.336782" lon="06.606884"><ele>2.4</ele><time>2021-05-20T13:57:45Z</time><name>PT10632</name></trkpt>
<trkpt lat="53.336784" lon="06.606898"><ele>2.2</ele><time>2021-05-20T13:57:46Z</time><name>PT10633</name></trkpt>
<trkpt lat="53.336786" lon="06.606913"><ele>2.3</ele><time>2021-05-20T13:57:47Z</time><name>PT10634</name></trkpt>
<trkpt lat="53.336787" lon="06.606927"><ele>2.1</ele><time>2021-05-20T13:57:48Z</time><name>PT10635</name></trkpt>
<trkpt lat="53.336786" lon="06.606939"><ele>2.1</ele><time>2021-05-20T13:57:49Z</time><name>PT10636</name></trkpt>
<trkpt lat="53.336786" lon="06.606954"><ele>2.1</ele><time>2021-05-20T13:57:50Z</time><name>PT10637</name></trkpt>
<trkpt lat="53.336786" lon="06.606974"><ele>2.1</ele><time>2021-05-20T13:57:51Z</time><name>PT10638</name></trkpt>
<trkpt lat="53.336787" lon="06.606990"><ele>2.1</ele><time>2021-05-20T13:57:52Z</time><name>PT10639</name></trkpt>
<trkpt lat="53.336788" lon="06.606996"><ele>2.1</ele><time>2021-05-20T13:57:53Z</time><name>PT10640</name></trkpt>
<trkpt lat="53.336789" lon="06.606998"><ele>1.9</ele><time>2021-05-20T13:57:54Z</time><name>PT10641</name></trkpt>
<trkpt lat="53.336789" lon="06.606999"><ele>1.9</ele><time>2021-05-20T13:57:55Z</time><name>PT10642</name></trkpt>
<trkpt lat="53.336789" lon="06.607005"><ele>1.9</ele><time>2021-05-20T13:58:02Z</time><name>PT10643</name></trkpt>
<trkpt lat="53.336788" lon="06.607019"><ele>2.1</ele><time>2021-05-20T13:58:03Z</time><name>PT10644</name></trkpt>
<trkpt lat="53.336787" lon="06.607036"><ele>2.3</ele><time>2021-05-20T13:58:04Z</time><name>PT10645</name></trkpt>
<trkpt lat="53.336787" lon="06.607059"><ele>2.1</ele><time>2021-05-20T13:58:05Z</time><name>PT10646</name></trkpt>
<trkpt lat="53.336789" lon="06.607081"><ele>2.3</ele><time>2021-05-20T13:58:06Z</time><name>PT10647</name></trkpt>
<trkpt lat="53.336791" lon="06.607098"><ele>2.4</ele><time>2021-05-20T13:58:07Z</time><name>PT10648</name></trkpt>
<trkpt lat="53.336793" lon="06.607113"><ele>2.4</ele><time>2021-05-20T13:58:08Z</time><name>PT10649</name></trkpt>
<trkpt lat="53.336795" lon="06.607126"><ele>2.5</ele><time>2021-05-20T13:58:09Z</time><name>PT10650</name></trkpt>
<trkpt lat="53.336797" lon="06.607140"><ele>2.4</ele><time>2021-05-20T13:58:10Z</time><name>PT10651</name></trkpt>
<trkpt lat="53.336796" lon="06.607155"><ele>2.1</ele><time>2021-05-20T13:58:11Z</time><name>PT10652</name></trkpt>
<trkpt lat="53.336795" lon="06.607173"><ele>2.1</ele><time>2021-05-20T13:58:12Z</time><name>PT10653</name></trkpt>
<trkpt lat="53.336795" lon="06.607195"><ele>2.2</ele><time>2021-05-20T13:58:13Z</time><name>PT10654</name></trkpt>
<trkpt lat="53.336796" lon="06.607219"><ele>2.1</ele><time>2021-05-20T13:58:14Z</time><name>PT10655</name></trkpt>
<trkpt lat="53.336797" lon="06.607241"><ele>2.2</ele><time>2021-05-20T13:58:15Z</time><name>PT10656</name></trkpt>
<trkpt lat="53.336798" lon="06.607261"><ele>2.3</ele><time>2021-05-20T13:58:16Z</time><name>PT10657</name></trkpt>
<trkpt lat="53.336800" lon="06.607272"><ele>2.4</ele><time>2021-05-20T13:58:17Z</time><name>PT10658</name></trkpt>
<trkpt lat="53.336799" lon="06.607273"><ele>2.2</ele><time>2021-05-20T13:58:18Z</time><name>PT10659</name></trkpt>
<trkpt lat="53.336799" lon="06.607271"><ele>2</ele><time>2021-05-20T13:58:19Z</time><name>PT10660</name></trkpt>
<trkpt lat="53.336798" lon="06.607273"><ele>1.7</ele><time>2021-05-20T13:58:20Z</time><name>PT10661</name></trkpt>
<trkpt lat="53.336800" lon="06.607280"><ele>1.8</ele><time>2021-05-20T13:58:21Z</time><name>PT10662</name></trkpt>
<trkpt lat="53.336803" lon="06.607294"><ele>1.9</ele><time>2021-05-20T13:58:22Z</time><name>PT10663</name></trkpt>
<trkpt lat="53.336805" lon="06.607307"><ele>2.1</ele><time>2021-05-20T13:58:23Z</time><name>PT10664</name></trkpt>
<trkpt lat="53.336807" lon="06.607319"><ele>2.1</ele><time>2021-05-20T13:58:24Z</time><name>PT10665</name></trkpt>
<trkpt lat="53.336808" lon="06.607334"><ele>2.3</ele><time>2021-05-20T13:58:25Z</time><name>PT10666</name></trkpt>
<trkpt lat="53.336807" lon="06.607354"><ele>2.2</ele><time>2021-05-20T13:58:26Z</time><name>PT10667</name></trkpt>
<trkpt lat="53.336806" lon="06.607375"><ele>2.1</ele><time>2021-05-20T13:58:27Z</time><name>PT10668</name></trkpt>
<trkpt lat="53.336807" lon="06.607400"><ele>2.2</ele><time>2021-05-20T13:58:28Z</time><name>PT10669</name></trkpt>
<trkpt lat="53.336807" lon="06.607421"><ele>2.2</ele><time>2021-05-20T13:58:29Z</time><name>PT10670</name></trkpt>
<trkpt lat="53.336808" lon="06.607439"><ele>2.1</ele><time>2021-05-20T13:58:30Z</time><name>PT10671</name></trkpt>
<trkpt lat="53.336810" lon="06.607452"><ele>2.2</ele><time>2021-05-20T13:58:31Z</time><name>PT10672</name></trkpt>
<trkpt lat="53.336812" lon="06.607465"><ele>2.3</ele><time>2021-05-20T13:58:32Z</time><name>PT10673</name></trkpt>
<trkpt lat="53.336812" lon="06.607479"><ele>2.4</ele><time>2021-05-20T13:58:33Z</time><name>PT10674</name></trkpt>
<trkpt lat="53.336811" lon="06.607496"><ele>2.5</ele><time>2021-05-20T13:58:34Z</time><name>PT10675</name></trkpt>
<trkpt lat="53.336812" lon="06.607518"><ele>2.6</ele><time>2021-05-20T13:58:35Z</time><name>PT10676</name></trkpt>
<trkpt lat="53.336812" lon="06.607541"><ele>2.6</ele><time>2021-05-20T13:58:36Z</time><name>PT10677</name></trkpt>
<trkpt lat="53.336815" lon="06.607565"><ele>2.6</ele><time>2021-05-20T13:58:37Z</time><name>PT10678</name></trkpt>
<trkpt lat="53.336817" lon="06.607589"><ele>2.5</ele><time>2021-05-20T13:58:38Z</time><name>PT10679</name></trkpt>
<trkpt lat="53.336818" lon="06.607608"><ele>2.3</ele><time>2021-05-20T13:58:39Z</time><name>PT10680</name></trkpt>
<trkpt lat="53.336821" lon="06.607622"><ele>2.1</ele><time>2021-05-20T13:58:40Z</time><name>PT10681</name></trkpt>
<trkpt lat="53.336820" lon="06.607641"><ele>2.1</ele><time>2021-05-20T13:58:41Z</time><name>PT10682</name></trkpt>
<trkpt lat="53.336820" lon="06.607657"><ele>2.3</ele><time>2021-05-20T13:58:42Z</time><name>PT10683</name></trkpt>
<trkpt lat="53.336821" lon="06.607673"><ele>2.6</ele><time>2021-05-20T13:58:43Z</time><name>PT10684</name></trkpt>
<trkpt lat="53.336823" lon="06.607691"><ele>2.6</ele><time>2021-05-20T13:58:44Z</time><name>PT10685</name></trkpt>
<trkpt lat="53.336826" lon="06.607710"><ele>2.8</ele><time>2021-05-20T13:58:45Z</time><name>PT10686</name></trkpt>
<trkpt lat="53.336827" lon="06.607731"><ele>2.9</ele><time>2021-05-20T13:58:46Z</time><name>PT10687</name></trkpt>
<trkpt lat="53.336829" lon="06.607752"><ele>3.1</ele><time>2021-05-20T13:58:47Z</time><name>PT10688</name></trkpt>
<trkpt lat="53.336831" lon="06.607769"><ele>3.1</ele><time>2021-05-20T13:58:48Z</time><name>PT10689</name></trkpt>
<trkpt lat="53.336833" lon="06.607780"><ele>3.2</ele><time>2021-05-20T13:58:49Z</time><name>PT10690</name></trkpt>
<trkpt lat="53.336834" lon="06.607782"><ele>3.2</ele><time>2021-05-20T13:58:50Z</time><name>PT10691</name></trkpt>
<trkpt lat="53.336834" lon="06.607787"><ele>3.1</ele><time>2021-05-20T13:58:51Z</time><name>PT10692</name></trkpt>
<trkpt lat="53.336834" lon="06.607789"><ele>2.8</ele><time>2021-05-20T13:58:52Z</time><name>PT10693</name></trkpt>
<trkpt lat="53.336835" lon="06.607790"><ele>2.8</ele><time>2021-05-20T13:58:53Z</time><name>PT10694</name></trkpt>
<trkpt lat="53.336836" lon="06.607797"><ele>2.7</ele><time>2021-05-20T13:58:54Z</time><name>PT10695</name></trkpt>
<trkpt lat="53.336836" lon="06.607812"><ele>2.7</ele><time>2021-05-20T13:58:55Z</time><name>PT10696</name></trkpt>
<trkpt lat="53.336838" lon="06.607830"><ele>3.1</ele><time>2021-05-20T13:58:56Z</time><name>PT10697</name></trkpt>
<trkpt lat="53.336840" lon="06.607853"><ele>2.9</ele><time>2021-05-20T13:58:57Z</time><name>PT10698</name></trkpt>
<trkpt lat="53.336841" lon="06.607881"><ele>2.6</ele><time>2021-05-20T13:58:58Z</time><name>PT10699</name></trkpt>
<trkpt lat="53.336843" lon="06.607902"><ele>2.5</ele><time>2021-05-20T13:58:59Z</time><name>PT10700</name></trkpt>
<trkpt lat="53.336846" lon="06.607919"><ele>2.6</ele><time>2021-05-20T13:59:00Z</time><name>PT10701</name></trkpt>
<trkpt lat="53.336849" lon="06.607935"><ele>2.5</ele><time>2021-05-20T13:59:01Z</time><name>PT10702</name></trkpt>
<trkpt lat="53.336851" lon="06.607951"><ele>2.6</ele><time>2021-05-20T13:59:02Z</time><name>PT10703</name></trkpt>
<trkpt lat="53.336853" lon="06.607962"><ele>2.6</ele><time>2021-05-20T13:59:03Z</time><name>PT10704</name></trkpt>
<trkpt lat="53.336854" lon="06.607977"><ele>2.6</ele><time>2021-05-20T13:59:04Z</time><name>PT10705</name></trkpt>
<trkpt lat="53.336855" lon="06.607996"><ele>2.7</ele><time>2021-05-20T13:59:05Z</time><name>PT10706</name></trkpt>
<trkpt lat="53.336858" lon="06.608010"><ele>2.6</ele><time>2021-05-20T13:59:06Z</time><name>PT10707</name></trkpt>
<trkpt lat="53.336860" lon="06.608030"><ele>2.3</ele><time>2021-05-20T13:59:07Z</time><name>PT10708</name></trkpt>
<trkpt lat="53.336862" lon="06.608052"><ele>2.2</ele><time>2021-05-20T13:59:08Z</time><name>PT10709</name></trkpt>
<trkpt lat="53.336865" lon="06.608073"><ele>2.2</ele><time>2021-05-20T13:59:09Z</time><name>PT10710</name></trkpt>
<trkpt lat="53.336867" lon="06.608090"><ele>2.2</ele><time>2021-05-20T13:59:10Z</time><name>PT10711</name></trkpt>
<trkpt lat="53.336870" lon="06.608103"><ele>2.3</ele><time>2021-05-20T13:59:11Z</time><name>PT10712</name></trkpt>
<trkpt lat="53.336872" lon="06.608116"><ele>2.6</ele><time>2021-05-20T13:59:12Z</time><name>PT10713</name></trkpt>
<trkpt lat="53.336874" lon="06.608132"><ele>2.6</ele><time>2021-05-20T13:59:13Z</time><name>PT10714</name></trkpt>
<trkpt lat="53.336873" lon="06.608150"><ele>2.5</ele><time>2021-05-20T13:59:14Z</time><name>PT10715</name></trkpt>
<trkpt lat="53.336873" lon="06.608170"><ele>2.6</ele><time>2021-05-20T13:59:15Z</time><name>PT10716</name></trkpt>
<trkpt lat="53.336874" lon="06.608193"><ele>2.4</ele><time>2021-05-20T13:59:16Z</time><name>PT10717</name></trkpt>
<trkpt lat="53.336875" lon="06.608216"><ele>2.4</ele><time>2021-05-20T13:59:17Z</time><name>PT10718</name></trkpt>
<trkpt lat="53.336875" lon="06.608241"><ele>2.3</ele><time>2021-05-20T13:59:18Z</time><name>PT10719</name></trkpt>
<trkpt lat="53.336877" lon="06.608260"><ele>2.4</ele><time>2021-05-20T13:59:19Z</time><name>PT10720</name></trkpt>
<trkpt lat="53.336879" lon="06.608271"><ele>2.4</ele><time>2021-05-20T13:59:20Z</time><name>PT10721</name></trkpt>
<trkpt lat="53.336882" lon="06.608279"><ele>2.3</ele><time>2021-05-20T13:59:21Z</time><name>PT10722</name></trkpt>
<trkpt lat="53.336885" lon="06.608292"><ele>2.4</ele><time>2021-05-20T13:59:22Z</time><name>PT10723</name></trkpt>
<trkpt lat="53.336886" lon="06.608305"><ele>2.2</ele><time>2021-05-20T13:59:23Z</time><name>PT10724</name></trkpt>
<trkpt lat="53.336887" lon="06.608322"><ele>2.2</ele><time>2021-05-20T13:59:24Z</time><name>PT10725</name></trkpt>
<trkpt lat="53.336888" lon="06.608344"><ele>2.3</ele><time>2021-05-20T13:59:25Z</time><name>PT10726</name></trkpt>
<trkpt lat="53.336891" lon="06.608367"><ele>2.3</ele><time>2021-05-20T13:59:26Z</time><name>PT10727</name></trkpt>
<trkpt lat="53.336895" lon="06.608391"><ele>2.3</ele><time>2021-05-20T13:59:27Z</time><name>PT10728</name></trkpt>
<trkpt lat="53.336898" lon="06.608411"><ele>2.4</ele><time>2021-05-20T13:59:28Z</time><name>PT10729</name></trkpt>
<trkpt lat="53.336901" lon="06.608426"><ele>2.4</ele><time>2021-05-20T13:59:29Z</time><name>PT10730</name></trkpt>
<trkpt lat="53.336905" lon="06.608438"><ele>2.4</ele><time>2021-05-20T13:59:30Z</time><name>PT10731</name></trkpt>
<trkpt lat="53.336909" lon="06.608449"><ele>2.6</ele><time>2021-05-20T13:59:31Z</time><name>PT10732</name></trkpt>
<trkpt lat="53.336911" lon="06.608460"><ele>2.6</ele><time>2021-05-20T13:59:32Z</time><name>PT10733</name></trkpt>
<trkpt lat="53.336908" lon="06.608479"><ele>2.6</ele><time>2021-05-20T13:59:33Z</time><name>PT10734</name></trkpt>
<trkpt lat="53.336909" lon="06.608495"><ele>2.7</ele><time>2021-05-20T13:59:34Z</time><name>PT10735</name></trkpt>
<trkpt lat="53.336911" lon="06.608511"><ele>2.9</ele><time>2021-05-20T13:59:35Z</time><name>PT10736</name></trkpt>
<trkpt lat="53.336912" lon="06.608531"><ele>2.7</ele><time>2021-05-20T13:59:36Z</time><name>PT10737</name></trkpt>
<trkpt lat="53.336916" lon="06.608551"><ele>2.6</ele><time>2021-05-20T13:59:37Z</time><name>PT10738</name></trkpt>
<trkpt lat="53.336920" lon="06.608578"><ele>2.5</ele><time>2021-05-20T13:59:38Z</time><name>PT10739</name></trkpt>
<trkpt lat="53.336924" lon="06.608597"><ele>2.6</ele><time>2021-05-20T13:59:39Z</time><name>PT10740</name></trkpt>
<trkpt lat="53.336926" lon="06.608611"><ele>2.4</ele><time>2021-05-20T13:59:40Z</time><name>PT10741</name></trkpt>
<trkpt lat="53.336927" lon="06.608624"><ele>2.6</ele><time>2021-05-20T13:59:41Z</time><name>PT10742</name></trkpt>
<trkpt lat="53.336928" lon="06.608638"><ele>2.6</ele><time>2021-05-20T13:59:42Z</time><name>PT10743</name></trkpt>
<trkpt lat="53.336929" lon="06.608655"><ele>2.8</ele><time>2021-05-20T13:59:43Z</time><name>PT10744</name></trkpt>
<trkpt lat="53.336931" lon="06.608671"><ele>2.8</ele><time>2021-05-20T13:59:44Z</time><name>PT10745</name></trkpt>
<trkpt lat="53.336934" lon="06.608686"><ele>2.9</ele><time>2021-05-20T13:59:45Z</time><name>PT10746</name></trkpt>
<trkpt lat="53.336937" lon="06.608702"><ele>2.8</ele><time>2021-05-20T13:59:46Z</time><name>PT10747</name></trkpt>
<trkpt lat="53.336939" lon="06.608718"><ele>2.7</ele><time>2021-05-20T13:59:47Z</time><name>PT10748</name></trkpt>
<trkpt lat="53.336941" lon="06.608733"><ele>2.8</ele><time>2021-05-20T13:59:48Z</time><name>PT10749</name></trkpt>
<trkpt lat="53.336942" lon="06.608741"><ele>2.9</ele><time>2021-05-20T13:59:49Z</time><name>PT10750</name></trkpt>
<trkpt lat="53.336942" lon="06.608742"><ele>2.9</ele><time>2021-05-20T13:59:50Z</time><name>PT10751</name></trkpt>
<trkpt lat="53.336942" lon="06.608743"><ele>2.9</ele><time>2021-05-20T13:59:51Z</time><name>PT10752</name></trkpt>
<trkpt lat="53.336942" lon="06.608755"><ele>3</ele><time>2021-05-20T13:59:52Z</time><name>PT10753</name></trkpt>
<trkpt lat="53.336946" lon="06.608772"><ele>2.9</ele><time>2021-05-20T13:59:53Z</time><name>PT10754</name></trkpt>
<trkpt lat="53.336949" lon="06.608796"><ele>2.8</ele><time>2021-05-20T13:59:54Z</time><name>PT10755</name></trkpt>
<trkpt lat="53.336954" lon="06.608821"><ele>2.6</ele><time>2021-05-20T13:59:55Z</time><name>PT10756</name></trkpt>
<trkpt lat="53.336958" lon="06.608841"><ele>2.5</ele><time>2021-05-20T13:59:56Z</time><name>PT10757</name></trkpt>
<trkpt lat="53.336962" lon="06.608857"><ele>2.5</ele><time>2021-05-20T13:59:57Z</time><name>PT10758</name></trkpt>
<trkpt lat="53.336966" lon="06.608870"><ele>2.6</ele><time>2021-05-20T13:59:58Z</time><name>PT10759</name></trkpt>
<trkpt lat="53.336969" lon="06.608884"><ele>2.5</ele><time>2021-05-20T13:59:59Z</time><name>PT10760</name></trkpt>
<trkpt lat="53.336972" lon="06.608896"><ele>2.5</ele><time>2021-05-20T14:00:00Z</time><name>PT10761</name></trkpt>
<trkpt lat="53.336974" lon="06.608907"><ele>2.4</ele><time>2021-05-20T14:00:01Z</time><name>PT10762</name></trkpt>
<trkpt lat="53.336974" lon="06.608922"><ele>2.2</ele><time>2021-05-20T14:00:02Z</time><name>PT10763</name></trkpt>
<trkpt lat="53.336974" lon="06.608939"><ele>2.3</ele><time>2021-05-20T14:00:03Z</time><name>PT10764</name></trkpt>
<trkpt lat="53.336975" lon="06.608959"><ele>2.2</ele><time>2021-05-20T14:00:04Z</time><name>PT10765</name></trkpt>
<trkpt lat="53.336976" lon="06.608982"><ele>2.3</ele><time>2021-05-20T14:00:05Z</time><name>PT10766</name></trkpt>
<trkpt lat="53.336978" lon="06.609007"><ele>2.3</ele><time>2021-05-20T14:00:06Z</time><name>PT10767</name></trkpt>
<trkpt lat="53.336982" lon="06.609034"><ele>2.3</ele><time>2021-05-20T14:00:07Z</time><name>PT10768</name></trkpt>
<trkpt lat="53.336985" lon="06.609058"><ele>2.4</ele><time>2021-05-20T14:00:08Z</time><name>PT10769</name></trkpt>
<trkpt lat="53.336988" lon="06.609077"><ele>2.5</ele><time>2021-05-20T14:00:09Z</time><name>PT10770</name></trkpt>
<trkpt lat="53.336992" lon="06.609091"><ele>2.3</ele><time>2021-05-20T14:00:10Z</time><name>PT10771</name></trkpt>
<trkpt lat="53.336995" lon="06.609103"><ele>2.3</ele><time>2021-05-20T14:00:11Z</time><name>PT10772</name></trkpt>
<trkpt lat="53.336997" lon="06.609119"><ele>2.3</ele><time>2021-05-20T14:00:12Z</time><name>PT10773</name></trkpt>
<trkpt lat="53.336999" lon="06.609136"><ele>2.4</ele><time>2021-05-20T14:00:13Z</time><name>PT10774</name></trkpt>
<trkpt lat="53.336998" lon="06.609157"><ele>2.4</ele><time>2021-05-20T14:00:14Z</time><name>PT10775</name></trkpt>
<trkpt lat="53.336998" lon="06.609179"><ele>2.5</ele><time>2021-05-20T14:00:15Z</time><name>PT10776</name></trkpt>
<trkpt lat="53.337002" lon="06.609204"><ele>2.4</ele><time>2021-05-20T14:00:16Z</time><name>PT10777</name></trkpt>
<trkpt lat="53.337008" lon="06.609230"><ele>2.4</ele><time>2021-05-20T14:00:17Z</time><name>PT10778</name></trkpt>
<trkpt lat="53.337012" lon="06.609257"><ele>2.2</ele><time>2021-05-20T14:00:18Z</time><name>PT10779</name></trkpt>
<trkpt lat="53.337017" lon="06.609285"><ele>2.3</ele><time>2021-05-20T14:00:19Z</time><name>PT10780</name></trkpt>
<trkpt lat="53.337021" lon="06.609312"><ele>2.4</ele><time>2021-05-20T14:00:20Z</time><name>PT10781</name></trkpt>
<trkpt lat="53.337024" lon="06.609334"><ele>2.5</ele><time>2021-05-20T14:00:21Z</time><name>PT10782</name></trkpt>
<trkpt lat="53.337026" lon="06.609348"><ele>2.3</ele><time>2021-05-20T14:00:22Z</time><name>PT10783</name></trkpt>
<trkpt lat="53.337032" lon="06.609363"><ele>2.4</ele><time>2021-05-20T14:00:23Z</time><name>PT10784</name></trkpt>
<trkpt lat="53.337038" lon="06.609375"><ele>2.5</ele><time>2021-05-20T14:00:24Z</time><name>PT10785</name></trkpt>
<trkpt lat="53.337042" lon="06.609390"><ele>2.6</ele><time>2021-05-20T14:00:25Z</time><name>PT10786</name></trkpt>
<trkpt lat="53.337044" lon="06.609405"><ele>2.6</ele><time>2021-05-20T14:00:26Z</time><name>PT10787</name></trkpt>
<trkpt lat="53.337049" lon="06.609422"><ele>2.8</ele><time>2021-05-20T14:00:27Z</time><name>PT10788</name></trkpt>
<trkpt lat="53.337053" lon="06.609435"><ele>2.7</ele><time>2021-05-20T14:00:28Z</time><name>PT10789</name></trkpt>
<trkpt lat="53.337058" lon="06.609446"><ele>2.8</ele><time>2021-05-20T14:00:29Z</time><name>PT10790</name></trkpt>
<trkpt lat="53.337062" lon="06.609457"><ele>2.7</ele><time>2021-05-20T14:00:30Z</time><name>PT10791</name></trkpt>
<trkpt lat="53.337065" lon="06.609479"><ele>2.6</ele><time>2021-05-20T14:00:31Z</time><name>PT10792</name></trkpt>
<trkpt lat="53.337069" lon="06.609501"><ele>2.6</ele><time>2021-05-20T14:00:32Z</time><name>PT10793</name></trkpt>
<trkpt lat="53.337072" lon="06.609521"><ele>2.6</ele><time>2021-05-20T14:00:33Z</time><name>PT10794</name></trkpt>
<trkpt lat="53.337078" lon="06.609539"><ele>2.6</ele><time>2021-05-20T14:00:34Z</time><name>PT10795</name></trkpt>
<trkpt lat="53.337084" lon="06.609562"><ele>2.6</ele><time>2021-05-20T14:00:35Z</time><name>PT10796</name></trkpt>
<trkpt lat="53.337090" lon="06.609585"><ele>2.4</ele><time>2021-05-20T14:00:36Z</time><name>PT10797</name></trkpt>
<trkpt lat="53.337095" lon="06.609605"><ele>2.5</ele><time>2021-05-20T14:00:37Z</time><name>PT10798</name></trkpt>
<trkpt lat="53.337101" lon="06.609619"><ele>2.3</ele><time>2021-05-20T14:00:38Z</time><name>PT10799</name></trkpt>
<trkpt lat="53.337107" lon="06.609629"><ele>2.3</ele><time>2021-05-20T14:00:39Z</time><name>PT10800</name></trkpt>
<trkpt lat="53.337113" lon="06.609639"><ele>2.2</ele><time>2021-05-20T14:00:40Z</time><name>PT10801</name></trkpt>
<trkpt lat="53.337117" lon="06.609651"><ele>2.1</ele><time>2021-05-20T14:00:41Z</time><name>PT10802</name></trkpt>
<trkpt lat="53.337119" lon="06.609664"><ele>2.1</ele><time>2021-05-20T14:00:42Z</time><name>PT10803</name></trkpt>
<trkpt lat="53.337121" lon="06.609676"><ele>2.1</ele><time>2021-05-20T14:00:43Z</time><name>PT10804</name></trkpt>
<trkpt lat="53.337125" lon="06.609693"><ele>2.2</ele><time>2021-05-20T14:00:44Z</time><name>PT10805</name></trkpt>
<trkpt lat="53.337131" lon="06.609717"><ele>2.2</ele><time>2021-05-20T14:00:45Z</time><name>PT10806</name></trkpt>
<trkpt lat="53.337138" lon="06.609739"><ele>2.4</ele><time>2021-05-20T14:00:46Z</time><name>PT10807</name></trkpt>
<trkpt lat="53.337143" lon="06.609764"><ele>2.3</ele><time>2021-05-20T14:00:47Z</time><name>PT10808</name></trkpt>
<trkpt lat="53.337148" lon="06.609787"><ele>2.3</ele><time>2021-05-20T14:00:48Z</time><name>PT10809</name></trkpt>
<trkpt lat="53.337153" lon="06.609801"><ele>2.3</ele><time>2021-05-20T14:00:49Z</time><name>PT10810</name></trkpt>
<trkpt lat="53.337156" lon="06.609811"><ele>2.4</ele><time>2021-05-20T14:00:50Z</time><name>PT10811</name></trkpt>
<trkpt lat="53.337161" lon="06.609821"><ele>2.4</ele><time>2021-05-20T14:00:51Z</time><name>PT10812</name></trkpt>
<trkpt lat="53.337164" lon="06.609834"><ele>2.4</ele><time>2021-05-20T14:00:52Z</time><name>PT10813</name></trkpt>
<trkpt lat="53.337169" lon="06.609849"><ele>2.2</ele><time>2021-05-20T14:00:53Z</time><name>PT10814</name></trkpt>
<trkpt lat="53.337173" lon="06.609865"><ele>2.2</ele><time>2021-05-20T14:00:54Z</time><name>PT10815</name></trkpt>
<trkpt lat="53.337178" lon="06.609887"><ele>2.1</ele><time>2021-05-20T14:00:55Z</time><name>PT10816</name></trkpt>
<trkpt lat="53.337184" lon="06.609908"><ele>2</ele><time>2021-05-20T14:00:56Z</time><name>PT10817</name></trkpt>
<trkpt lat="53.337189" lon="06.609931"><ele>2.1</ele><time>2021-05-20T14:00:57Z</time><name>PT10818</name></trkpt>
<trkpt lat="53.337194" lon="06.609951"><ele>2.1</ele><time>2021-05-20T14:00:58Z</time><name>PT10819</name></trkpt>
<trkpt lat="53.337198" lon="06.609966"><ele>2.1</ele><time>2021-05-20T14:00:59Z</time><name>PT10820</name></trkpt>
<trkpt lat="53.337203" lon="06.609977"><ele>2.2</ele><time>2021-05-20T14:01:00Z</time><name>PT10821</name></trkpt>
<trkpt lat="53.337208" lon="06.609988"><ele>2.2</ele><time>2021-05-20T14:01:01Z</time><name>PT10822</name></trkpt>
<trkpt lat="53.337211" lon="06.610000"><ele>2.4</ele><time>2021-05-20T14:01:02Z</time><name>PT10823</name></trkpt>
<trkpt lat="53.337214" lon="06.610012"><ele>2.6</ele><time>2021-05-20T14:01:03Z</time><name>PT10824</name></trkpt>
<trkpt lat="53.337218" lon="06.610029"><ele>2.6</ele><time>2021-05-20T14:01:04Z</time><name>PT10825</name></trkpt>
<trkpt lat="53.337223" lon="06.610049"><ele>2.8</ele><time>2021-05-20T14:01:05Z</time><name>PT10826</name></trkpt>
<trkpt lat="53.337229" lon="06.610071"><ele>2.7</ele><time>2021-05-20T14:01:06Z</time><name>PT10827</name></trkpt>
<trkpt lat="53.337236" lon="06.610088"><ele>2.6</ele><time>2021-05-20T14:01:07Z</time><name>PT10828</name></trkpt>
<trkpt lat="53.337244" lon="06.610109"><ele>2.6</ele><time>2021-05-20T14:01:08Z</time><name>PT10829</name></trkpt>
<trkpt lat="53.337251" lon="06.610126"><ele>2.5</ele><time>2021-05-20T14:01:09Z</time><name>PT10830</name></trkpt>
<trkpt lat="53.337257" lon="06.610139"><ele>2.4</ele><time>2021-05-20T14:01:10Z</time><name>PT10831</name></trkpt>
<trkpt lat="53.337261" lon="06.610152"><ele>2.6</ele><time>2021-05-20T14:01:11Z</time><name>PT10832</name></trkpt>
<trkpt lat="53.337266" lon="06.610159"><ele>2.6</ele><time>2021-05-20T14:01:12Z</time><name>PT10833</name></trkpt>
<trkpt lat="53.337270" lon="06.610165"><ele>2.7</ele><time>2021-05-20T14:01:13Z</time><name>PT10834</name></trkpt>
<trkpt lat="53.337274" lon="06.610177"><ele>2.7</ele><time>2021-05-20T14:01:14Z</time><name>PT10835</name></trkpt>
<trkpt lat="53.337279" lon="06.610197"><ele>2.6</ele><time>2021-05-20T14:01:15Z</time><name>PT10836</name></trkpt>
<trkpt lat="53.337285" lon="06.610215"><ele>2.6</ele><time>2021-05-20T14:01:16Z</time><name>PT10837</name></trkpt>
<trkpt lat="53.337292" lon="06.610237"><ele>2.7</ele><time>2021-05-20T14:01:17Z</time><name>PT10838</name></trkpt>
<trkpt lat="53.337300" lon="06.610257"><ele>2.6</ele><time>2021-05-20T14:01:18Z</time><name>PT10839</name></trkpt>
<trkpt lat="53.337307" lon="06.610272"><ele>2.6</ele><time>2021-05-20T14:01:19Z</time><name>PT10840</name></trkpt>
<trkpt lat="53.337314" lon="06.610281"><ele>2.6</ele><time>2021-05-20T14:01:20Z</time><name>PT10841</name></trkpt>
<trkpt lat="53.337320" lon="06.610292"><ele>2.5</ele><time>2021-05-20T14:01:21Z</time><name>PT10842</name></trkpt>
<trkpt lat="53.337325" lon="06.610302"><ele>2.5</ele><time>2021-05-20T14:01:22Z</time><name>PT10843</name></trkpt>
<trkpt lat="53.337329" lon="06.610316"><ele>2.6</ele><time>2021-05-20T14:01:23Z</time><name>PT10844</name></trkpt>
<trkpt lat="53.337336" lon="06.610327"><ele>2.7</ele><time>2021-05-20T14:01:24Z</time><name>PT10845</name></trkpt>
<trkpt lat="53.337342" lon="06.610340"><ele>2.6</ele><time>2021-05-20T14:01:25Z</time><name>PT10846</name></trkpt>
<trkpt lat="53.337349" lon="06.610358"><ele>2.6</ele><time>2021-05-20T14:01:26Z</time><name>PT10847</name></trkpt>
<trkpt lat="53.337358" lon="06.610379"><ele>2.6</ele><time>2021-05-20T14:01:27Z</time><name>PT10848</name></trkpt>
<trkpt lat="53.337365" lon="06.610396"><ele>2.5</ele><time>2021-05-20T14:01:28Z</time><name>PT10849</name></trkpt>
<trkpt lat="53.337372" lon="06.610411"><ele>2.4</ele><time>2021-05-20T14:01:29Z</time><name>PT10850</name></trkpt>
<trkpt lat="53.337379" lon="06.610422"><ele>2.4</ele><time>2021-05-20T14:01:30Z</time><name>PT10851</name></trkpt>
<trkpt lat="53.337385" lon="06.610431"><ele>2.5</ele><time>2021-05-20T14:01:31Z</time><name>PT10852</name></trkpt>
<trkpt lat="53.337391" lon="06.610437"><ele>2.6</ele><time>2021-05-20T14:01:32Z</time><name>PT10853</name></trkpt>
<trkpt lat="53.337397" lon="06.610449"><ele>2.7</ele><time>2021-05-20T14:01:33Z</time><name>PT10854</name></trkpt>
<trkpt lat="53.337402" lon="06.610464"><ele>2.7</ele><time>2021-05-20T14:01:34Z</time><name>PT10855</name></trkpt>
<trkpt lat="53.337409" lon="06.610483"><ele>2.7</ele><time>2021-05-20T14:01:35Z</time><name>PT10856</name></trkpt>
<trkpt lat="53.337417" lon="06.610499"><ele>2.6</ele><time>2021-05-20T14:01:36Z</time><name>PT10857</name></trkpt>
<trkpt lat="53.337425" lon="06.610517"><ele>2.6</ele><time>2021-05-20T14:01:37Z</time><name>PT10858</name></trkpt>
<trkpt lat="53.337433" lon="06.610531"><ele>2.3</ele><time>2021-05-20T14:01:38Z</time><name>PT10859</name></trkpt>
<trkpt lat="53.337439" lon="06.610545"><ele>2.4</ele><time>2021-05-20T14:01:39Z</time><name>PT10860</name></trkpt>
<trkpt lat="53.337446" lon="06.610558"><ele>2.4</ele><time>2021-05-20T14:01:40Z</time><name>PT10861</name></trkpt>
<trkpt lat="53.337450" lon="06.610569"><ele>2.5</ele><time>2021-05-20T14:01:41Z</time><name>PT10862</name></trkpt>
<trkpt lat="53.337455" lon="06.610586"><ele>2.6</ele><time>2021-05-20T14:01:42Z</time><name>PT10863</name></trkpt>
<trkpt lat="53.337459" lon="06.610598"><ele>2.6</ele><time>2021-05-20T14:01:43Z</time><name>PT10864</name></trkpt>
<trkpt lat="53.337468" lon="06.610619"><ele>2.6</ele><time>2021-05-20T14:01:44Z</time><name>PT10865</name></trkpt>
<trkpt lat="53.337477" lon="06.610641"><ele>2.6</ele><time>2021-05-20T14:01:45Z</time><name>PT10866</name></trkpt>
<trkpt lat="53.337484" lon="06.610657"><ele>2.6</ele><time>2021-05-20T14:01:46Z</time><name>PT10867</name></trkpt>
<trkpt lat="53.337493" lon="06.610665"><ele>2.7</ele><time>2021-05-20T14:01:47Z</time><name>PT10868</name></trkpt>
<trkpt lat="53.337497" lon="06.610677"><ele>2.8</ele><time>2021-05-20T14:01:48Z</time><name>PT10869</name></trkpt>
<trkpt lat="53.337502" lon="06.610688"><ele>3</ele><time>2021-05-20T14:01:49Z</time><name>PT10870</name></trkpt>
<trkpt lat="53.337507" lon="06.610703"><ele>3</ele><time>2021-05-20T14:01:50Z</time><name>PT10871</name></trkpt>
<trkpt lat="53.337512" lon="06.610723"><ele>2.8</ele><time>2021-05-20T14:01:51Z</time><name>PT10872</name></trkpt>
<trkpt lat="53.337518" lon="06.610744"><ele>2.8</ele><time>2021-05-20T14:01:52Z</time><name>PT10873</name></trkpt>
<trkpt lat="53.337526" lon="06.610764"><ele>2.7</ele><time>2021-05-20T14:01:53Z</time><name>PT10874</name></trkpt>
<trkpt lat="53.337534" lon="06.610782"><ele>2.7</ele><time>2021-05-20T14:01:54Z</time><name>PT10875</name></trkpt>
<trkpt lat="53.337540" lon="06.610793"><ele>2.9</ele><time>2021-05-20T14:01:55Z</time><name>PT10876</name></trkpt>
<trkpt lat="53.337545" lon="06.610800"><ele>2.8</ele><time>2021-05-20T14:01:56Z</time><name>PT10877</name></trkpt>
<trkpt lat="53.337550" lon="06.610811"><ele>2.9</ele><time>2021-05-20T14:01:57Z</time><name>PT10878</name></trkpt>
<trkpt lat="53.337553" lon="06.610826"><ele>2.6</ele><time>2021-05-20T14:01:58Z</time><name>PT10879</name></trkpt>
<trkpt lat="53.337556" lon="06.610845"><ele>2.6</ele><time>2021-05-20T14:01:59Z</time><name>PT10880</name></trkpt>
<trkpt lat="53.337558" lon="06.610871"><ele>2.6</ele><time>2021-05-20T14:02:00Z</time><name>PT10881</name></trkpt>
<trkpt lat="53.337565" lon="06.610899"><ele>2.6</ele><time>2021-05-20T14:02:01Z</time><name>PT10882</name></trkpt>
<trkpt lat="53.337572" lon="06.610925"><ele>2.6</ele><time>2021-05-20T14:02:02Z</time><name>PT10883</name></trkpt>
<trkpt lat="53.337577" lon="06.610943"><ele>2.8</ele><time>2021-05-20T14:02:03Z</time><name>PT10884</name></trkpt>
<trkpt lat="53.337579" lon="06.610954"><ele>2.6</ele><time>2021-05-20T14:02:04Z</time><name>PT10885</name></trkpt>
<trkpt lat="53.337582" lon="06.610960"><ele>2.7</ele><time>2021-05-20T14:02:05Z</time><name>PT10886</name></trkpt>
<trkpt lat="53.337581" lon="06.610976"><ele>2.9</ele><time>2021-05-20T14:02:06Z</time><name>PT10887</name></trkpt>
<trkpt lat="53.337580" lon="06.610996"><ele>3.1</ele><time>2021-05-20T14:02:07Z</time><name>PT10888</name></trkpt>
<trkpt lat="53.337585" lon="06.611008"><ele>3.1</ele><time>2021-05-20T14:02:08Z</time><name>PT10889</name></trkpt>
<trkpt lat="53.337586" lon="06.611025"><ele>3.1</ele><time>2021-05-20T14:02:09Z</time><name>PT10890</name></trkpt>
<trkpt lat="53.337587" lon="06.611045"><ele>2.8</ele><time>2021-05-20T14:02:10Z</time><name>PT10891</name></trkpt>
<trkpt lat="53.337589" lon="06.611069"><ele>2.7</ele><time>2021-05-20T14:02:11Z</time><name>PT10892</name></trkpt>
<trkpt lat="53.337592" lon="06.611095"><ele>2.7</ele><time>2021-05-20T14:02:12Z</time><name>PT10893</name></trkpt>
<trkpt lat="53.337594" lon="06.611119"><ele>3</ele><time>2021-05-20T14:02:13Z</time><name>PT10894</name></trkpt>
<trkpt lat="53.337597" lon="06.611139"><ele>3.1</ele><time>2021-05-20T14:02:14Z</time><name>PT10895</name></trkpt>
<trkpt lat="53.337600" lon="06.611156"><ele>3.1</ele><time>2021-05-20T14:02:15Z</time><name>PT10896</name></trkpt>
<trkpt lat="53.337603" lon="06.611171"><ele>3.1</ele><time>2021-05-20T14:02:16Z</time><name>PT10897</name></trkpt>
<trkpt lat="53.337606" lon="06.611183"><ele>3</ele><time>2021-05-20T14:02:17Z</time><name>PT10898</name></trkpt>
<trkpt lat="53.337607" lon="06.611197"><ele>3</ele><time>2021-05-20T14:02:18Z</time><name>PT10899</name></trkpt>
<trkpt lat="53.337607" lon="06.611213"><ele>3</ele><time>2021-05-20T14:02:19Z</time><name>PT10900</name></trkpt>
<trkpt lat="53.337607" lon="06.611229"><ele>3.1</ele><time>2021-05-20T14:02:20Z</time><name>PT10901</name></trkpt>
<trkpt lat="53.337608" lon="06.611248"><ele>3.1</ele><time>2021-05-20T14:02:21Z</time><name>PT10902</name></trkpt>
<trkpt lat="53.337609" lon="06.611273"><ele>3.2</ele><time>2021-05-20T14:02:22Z</time><name>PT10903</name></trkpt>
<trkpt lat="53.337609" lon="06.611303"><ele>3.3</ele><time>2021-05-20T14:02:23Z</time><name>PT10904</name></trkpt>
<trkpt lat="53.337610" lon="06.611330"><ele>3.5</ele><time>2021-05-20T14:02:24Z</time><name>PT10905</name></trkpt>
<trkpt lat="53.337612" lon="06.611348"><ele>3.6</ele><time>2021-05-20T14:02:25Z</time><name>PT10906</name></trkpt>
<trkpt lat="53.337614" lon="06.611362"><ele>3.6</ele><time>2021-05-20T14:02:26Z</time><name>PT10907</name></trkpt>
<trkpt lat="53.337616" lon="06.611372"><ele>3.6</ele><time>2021-05-20T14:02:27Z</time><name>PT10908</name></trkpt>
<trkpt lat="53.337617" lon="06.611385"><ele>3.6</ele><time>2021-05-20T14:02:28Z</time><name>PT10909</name></trkpt>
<trkpt lat="53.337616" lon="06.611398"><ele>3.4</ele><time>2021-05-20T14:02:29Z</time><name>PT10910</name></trkpt>
<trkpt lat="53.337615" lon="06.611416"><ele>3.4</ele><time>2021-05-20T14:02:30Z</time><name>PT10911</name></trkpt>
<trkpt lat="53.337614" lon="06.611433"><ele>3.4</ele><time>2021-05-20T14:02:31Z</time><name>PT10912</name></trkpt>
<trkpt lat="53.337612" lon="06.611454"><ele>3.5</ele><time>2021-05-20T14:02:32Z</time><name>PT10913</name></trkpt>
<trkpt lat="53.337611" lon="06.611479"><ele>3.6</ele><time>2021-05-20T14:02:33Z</time><name>PT10914</name></trkpt>
<trkpt lat="53.337612" lon="06.611505"><ele>3.5</ele><time>2021-05-20T14:02:34Z</time><name>PT10915</name></trkpt>
<trkpt lat="53.337613" lon="06.611530"><ele>3.5</ele><time>2021-05-20T14:02:35Z</time><name>PT10916</name></trkpt>
<trkpt lat="53.337615" lon="06.611550"><ele>3.5</ele><time>2021-05-20T14:02:36Z</time><name>PT10917</name></trkpt>
<trkpt lat="53.337616" lon="06.611565"><ele>3.5</ele><time>2021-05-20T14:02:37Z</time><name>PT10918</name></trkpt>
<trkpt lat="53.337617" lon="06.611577"><ele>3.3</ele><time>2021-05-20T14:02:38Z</time><name>PT10919</name></trkpt>
<trkpt lat="53.337617" lon="06.611592"><ele>3.3</ele><time>2021-05-20T14:02:39Z</time><name>PT10920</name></trkpt>
<trkpt lat="53.337614" lon="06.611613"><ele>3.3</ele><time>2021-05-20T14:02:40Z</time><name>PT10921</name></trkpt>
<trkpt lat="53.337612" lon="06.611639"><ele>3.4</ele><time>2021-05-20T14:02:41Z</time><name>PT10922</name></trkpt>
<trkpt lat="53.337609" lon="06.611664"><ele>3.6</ele><time>2021-05-20T14:02:42Z</time><name>PT10923</name></trkpt>
<trkpt lat="53.337608" lon="06.611685"><ele>3.7</ele><time>2021-05-20T14:02:43Z</time><name>PT10924</name></trkpt>
<trkpt lat="53.337609" lon="06.611702"><ele>3.6</ele><time>2021-05-20T14:02:44Z</time><name>PT10925</name></trkpt>
<trkpt lat="53.337610" lon="06.611714"><ele>3.5</ele><time>2021-05-20T14:02:45Z</time><name>PT10926</name></trkpt>
<trkpt lat="53.337611" lon="06.611726"><ele>3.4</ele><time>2021-05-20T14:02:46Z</time><name>PT10927</name></trkpt>
<trkpt lat="53.337612" lon="06.611747"><ele>3.3</ele><time>2021-05-20T14:02:47Z</time><name>PT10928</name></trkpt>
<trkpt lat="53.337611" lon="06.611775"><ele>3.5</ele><time>2021-05-20T14:02:48Z</time><name>PT10929</name></trkpt>
<trkpt lat="53.337611" lon="06.611803"><ele>3.5</ele><time>2021-05-20T14:02:49Z</time><name>PT10930</name></trkpt>
<trkpt lat="53.337610" lon="06.611824"><ele>3.5</ele><time>2021-05-20T14:02:50Z</time><name>PT10931</name></trkpt>
<trkpt lat="53.337611" lon="06.611841"><ele>3.6</ele><time>2021-05-20T14:02:51Z</time><name>PT10932</name></trkpt>
<trkpt lat="53.337613" lon="06.611852"><ele>3.6</ele><time>2021-05-20T14:02:52Z</time><name>PT10933</name></trkpt>
<trkpt lat="53.337613" lon="06.611862"><ele>3.6</ele><time>2021-05-20T14:02:53Z</time><name>PT10934</name></trkpt>
<trkpt lat="53.337613" lon="06.611875"><ele>3.6</ele><time>2021-05-20T14:02:54Z</time><name>PT10935</name></trkpt>
<trkpt lat="53.337611" lon="06.611894"><ele>3.6</ele><time>2021-05-20T14:02:55Z</time><name>PT10936</name></trkpt>
<trkpt lat="53.337609" lon="06.611918"><ele>3.6</ele><time>2021-05-20T14:02:56Z</time><name>PT10937</name></trkpt>
<trkpt lat="53.337607" lon="06.611948"><ele>3.5</ele><time>2021-05-20T14:02:57Z</time><name>PT10938</name></trkpt>
<trkpt lat="53.337604" lon="06.611978"><ele>3.5</ele><time>2021-05-20T14:02:58Z</time><name>PT10939</name></trkpt>
<trkpt lat="53.337604" lon="06.611998"><ele>3.4</ele><time>2021-05-20T14:02:59Z</time><name>PT10940</name></trkpt>
<trkpt lat="53.337606" lon="06.612012"><ele>3.4</ele><time>2021-05-20T14:03:00Z</time><name>PT10941</name></trkpt>
<trkpt lat="53.337607" lon="06.612026"><ele>3.3</ele><time>2021-05-20T14:03:01Z</time><name>PT10942</name></trkpt>
<trkpt lat="53.337609" lon="06.612041"><ele>3.4</ele><time>2021-05-20T14:03:02Z</time><name>PT10943</name></trkpt>
<trkpt lat="53.337608" lon="06.612056"><ele>3.3</ele><time>2021-05-20T14:03:03Z</time><name>PT10944</name></trkpt>
<trkpt lat="53.337607" lon="06.612076"><ele>3.4</ele><time>2021-05-20T14:03:04Z</time><name>PT10945</name></trkpt>
<trkpt lat="53.337605" lon="06.612099"><ele>3.4</ele><time>2021-05-20T14:03:05Z</time><name>PT10946</name></trkpt>
<trkpt lat="53.337600" lon="06.612128"><ele>3.4</ele><time>2021-05-20T14:03:06Z</time><name>PT10947</name></trkpt>
<trkpt lat="53.337598" lon="06.612149"><ele>3.5</ele><time>2021-05-20T14:03:07Z</time><name>PT10948</name></trkpt>
<trkpt lat="53.337599" lon="06.612160"><ele>3.6</ele><time>2021-05-20T14:03:08Z</time><name>PT10949</name></trkpt>
<trkpt lat="53.337599" lon="06.612172"><ele>3.6</ele><time>2021-05-20T14:03:09Z</time><name>PT10950</name></trkpt>
<trkpt lat="53.337598" lon="06.612186"><ele>3.6</ele><time>2021-05-20T14:03:10Z</time><name>PT10951</name></trkpt>
<trkpt lat="53.337597" lon="06.612198"><ele>3.7</ele><time>2021-05-20T14:03:11Z</time><name>PT10952</name></trkpt>
<trkpt lat="53.337594" lon="06.612213"><ele>3.6</ele><time>2021-05-20T14:03:12Z</time><name>PT10953</name></trkpt>
<trkpt lat="53.337592" lon="06.612234"><ele>3.5</ele><time>2021-05-20T14:03:13Z</time><name>PT10954</name></trkpt>
<trkpt lat="53.337587" lon="06.612262"><ele>3.5</ele><time>2021-05-20T14:03:14Z</time><name>PT10955</name></trkpt>
<trkpt lat="53.337585" lon="06.612290"><ele>3.4</ele><time>2021-05-20T14:03:15Z</time><name>PT10956</name></trkpt>
<trkpt lat="53.337583" lon="06.612312"><ele>3.5</ele><time>2021-05-20T14:03:16Z</time><name>PT10957</name></trkpt>
<trkpt lat="53.337584" lon="06.612326"><ele>3.5</ele><time>2021-05-20T14:03:17Z</time><name>PT10958</name></trkpt>
<trkpt lat="53.337585" lon="06.612338"><ele>3.5</ele><time>2021-05-20T14:03:18Z</time><name>PT10959</name></trkpt>
<trkpt lat="53.337583" lon="06.612355"><ele>3.6</ele><time>2021-05-20T14:03:19Z</time><name>PT10960</name></trkpt>
<trkpt lat="53.337581" lon="06.612372"><ele>3.7</ele><time>2021-05-20T14:03:20Z</time><name>PT10961</name></trkpt>
<trkpt lat="53.337580" lon="06.612387"><ele>3.8</ele><time>2021-05-20T14:03:21Z</time><name>PT10962</name></trkpt>
<trkpt lat="53.337580" lon="06.612403"><ele>3.9</ele><time>2021-05-20T14:03:22Z</time><name>PT10963</name></trkpt>
<trkpt lat="53.337579" lon="06.612420"><ele>4</ele><time>2021-05-20T14:03:23Z</time><name>PT10964</name></trkpt>
<trkpt lat="53.337578" lon="06.612438"><ele>4</ele><time>2021-05-20T14:03:24Z</time><name>PT10965</name></trkpt>
<trkpt lat="53.337578" lon="06.612456"><ele>3.8</ele><time>2021-05-20T14:03:25Z</time><name>PT10966</name></trkpt>
<trkpt lat="53.337578" lon="06.612476"><ele>3.7</ele><time>2021-05-20T14:03:26Z</time><name>PT10967</name></trkpt>
<trkpt lat="53.337577" lon="06.612496"><ele>3.7</ele><time>2021-05-20T14:03:27Z</time><name>PT10968</name></trkpt>
<trkpt lat="53.337578" lon="06.612513"><ele>3.6</ele><time>2021-05-20T14:03:28Z</time><name>PT10969</name></trkpt>
<trkpt lat="53.337578" lon="06.612530"><ele>3.7</ele><time>2021-05-20T14:03:29Z</time><name>PT10970</name></trkpt>
<trkpt lat="53.337577" lon="06.612543"><ele>3.6</ele><time>2021-05-20T14:03:30Z</time><name>PT10971</name></trkpt>
<trkpt lat="53.337576" lon="06.612557"><ele>3.6</ele><time>2021-05-20T14:03:31Z</time><name>PT10972</name></trkpt>
<trkpt lat="53.337574" lon="06.612576"><ele>3.6</ele><time>2021-05-20T14:03:32Z</time><name>PT10973</name></trkpt>
<trkpt lat="53.337572" lon="06.612601"><ele>3.5</ele><time>2021-05-20T14:03:33Z</time><name>PT10974</name></trkpt>
<trkpt lat="53.337572" lon="06.612627"><ele>3.5</ele><time>2021-05-20T14:03:34Z</time><name>PT10975</name></trkpt>
<trkpt lat="53.337571" lon="06.612650"><ele>3.5</ele><time>2021-05-20T14:03:35Z</time><name>PT10976</name></trkpt>
<trkpt lat="53.337571" lon="06.612670"><ele>3.6</ele><time>2021-05-20T14:03:36Z</time><name>PT10977</name></trkpt>
<trkpt lat="53.337570" lon="06.612688"><ele>3.6</ele><time>2021-05-20T14:03:37Z</time><name>PT10978</name></trkpt>
<trkpt lat="53.337571" lon="06.612706"><ele>3.6</ele><time>2021-05-20T14:03:38Z</time><name>PT10979</name></trkpt>
<trkpt lat="53.337570" lon="06.612724"><ele>3.6</ele><time>2021-05-20T14:03:39Z</time><name>PT10980</name></trkpt>
<trkpt lat="53.337571" lon="06.612740"><ele>3.6</ele><time>2021-05-20T14:03:40Z</time><name>PT10981</name></trkpt>
<trkpt lat="53.337572" lon="06.612751"><ele>3.6</ele><time>2021-05-20T14:03:41Z</time><name>PT10982</name></trkpt>
<trkpt lat="53.337572" lon="06.612759"><ele>3.6</ele><time>2021-05-20T14:03:42Z</time><name>PT10983</name></trkpt>
<trkpt lat="53.337570" lon="06.612772"><ele>3.6</ele><time>2021-05-20T14:03:43Z</time><name>PT10984</name></trkpt>
<trkpt lat="53.337567" lon="06.612793"><ele>3.6</ele><time>2021-05-20T14:03:44Z</time><name>PT10985</name></trkpt>
<trkpt lat="53.337565" lon="06.612821"><ele>3.6</ele><time>2021-05-20T14:03:45Z</time><name>PT10986</name></trkpt>
<trkpt lat="53.337561" lon="06.612852"><ele>3.5</ele><time>2021-05-20T14:03:46Z</time><name>PT10987</name></trkpt>
<trkpt lat="53.337558" lon="06.612876"><ele>3.5</ele><time>2021-05-20T14:03:47Z</time><name>PT10988</name></trkpt>
<trkpt lat="53.337558" lon="06.612886"><ele>3.5</ele><time>2021-05-20T14:03:48Z</time><name>PT10989</name></trkpt>
<trkpt lat="53.337559" lon="06.612890"><ele>3.4</ele><time>2021-05-20T14:03:49Z</time><name>PT10990</name></trkpt>
<trkpt lat="53.337559" lon="06.612896"><ele>3.4</ele><time>2021-05-20T14:03:50Z</time><name>PT10991</name></trkpt>
<trkpt lat="53.337558" lon="06.612905"><ele>3.5</ele><time>2021-05-20T14:03:51Z</time><name>PT10992</name></trkpt>
<trkpt lat="53.337556" lon="06.612914"><ele>3.5</ele><time>2021-05-20T14:03:52Z</time><name>PT10993</name></trkpt>
<trkpt lat="53.337550" lon="06.612926"><ele>3.5</ele><time>2021-05-20T14:03:53Z</time><name>PT10994</name></trkpt>
<trkpt lat="53.337547" lon="06.612943"><ele>3.5</ele><time>2021-05-20T14:03:54Z</time><name>PT10995</name></trkpt>
<trkpt lat="53.337544" lon="06.612967"><ele>3.4</ele><time>2021-05-20T14:03:55Z</time><name>PT10996</name></trkpt>
<trkpt lat="53.337542" lon="06.612991"><ele>3.4</ele><time>2021-05-20T14:03:56Z</time><name>PT10997</name></trkpt>
<trkpt lat="53.337540" lon="06.613011"><ele>3.4</ele><time>2021-05-20T14:03:57Z</time><name>PT10998</name></trkpt>
<trkpt lat="53.337539" lon="06.613024"><ele>3.3</ele><time>2021-05-20T14:03:58Z</time><name>PT10999</name></trkpt>
<trkpt lat="53.337538" lon="06.613035"><ele>3.4</ele><time>2021-05-20T14:03:59Z</time><name>PT11000</name></trkpt>
<trkpt lat="53.337535" lon="06.613048"><ele>3.5</ele><time>2021-05-20T14:04:00Z</time><name>PT11001</name></trkpt>
<trkpt lat="53.337532" lon="06.613069"><ele>3.5</ele><time>2021-05-20T14:04:01Z</time><name>PT11002</name></trkpt>
<trkpt lat="53.337530" lon="06.613095"><ele>3.5</ele><time>2021-05-20T14:04:02Z</time><name>PT11003</name></trkpt>
<trkpt lat="53.337529" lon="06.613123"><ele>3.6</ele><time>2021-05-20T14:04:03Z</time><name>PT11004</name></trkpt>
<trkpt lat="53.337525" lon="06.613143"><ele>3.6</ele><time>2021-05-20T14:04:04Z</time><name>PT11005</name></trkpt>
<trkpt lat="53.337524" lon="06.613157"><ele>3.6</ele><time>2021-05-20T14:04:05Z</time><name>PT11006</name></trkpt>
<trkpt lat="53.337524" lon="06.613169"><ele>3.6</ele><time>2021-05-20T14:04:06Z</time><name>PT11007</name></trkpt>
<trkpt lat="53.337523" lon="06.613183"><ele>3.8</ele><time>2021-05-20T14:04:07Z</time><name>PT11008</name></trkpt>
<trkpt lat="53.337520" lon="06.613199"><ele>3.8</ele><time>2021-05-20T14:04:08Z</time><name>PT11009</name></trkpt>
<trkpt lat="53.337515" lon="06.613216"><ele>3.6</ele><time>2021-05-20T14:04:09Z</time><name>PT11010</name></trkpt>
<trkpt lat="53.337512" lon="06.613238"><ele>3.5</ele><time>2021-05-20T14:04:10Z</time><name>PT11011</name></trkpt>
<trkpt lat="53.337509" lon="06.613260"><ele>3.6</ele><time>2021-05-20T14:04:11Z</time><name>PT11012</name></trkpt>
<trkpt lat="53.337507" lon="06.613281"><ele>3.7</ele><time>2021-05-20T14:04:12Z</time><name>PT11013</name></trkpt>
<trkpt lat="53.337505" lon="06.613296"><ele>3.6</ele><time>2021-05-20T14:04:13Z</time><name>PT11014</name></trkpt>
<trkpt lat="53.337504" lon="06.613307"><ele>3.7</ele><time>2021-05-20T14:04:14Z</time><name>PT11015</name></trkpt>
<trkpt lat="53.337503" lon="06.613321"><ele>3.7</ele><time>2021-05-20T14:04:15Z</time><name>PT11016</name></trkpt>
<trkpt lat="53.337502" lon="06.613335"><ele>3.8</ele><time>2021-05-20T14:04:16Z</time><name>PT11017</name></trkpt>
<trkpt lat="53.337499" lon="06.613350"><ele>3.7</ele><time>2021-05-20T14:04:17Z</time><name>PT11018</name></trkpt>
<trkpt lat="53.337494" lon="06.613365"><ele>3.7</ele><time>2021-05-20T14:04:18Z</time><name>PT11019</name></trkpt>
<trkpt lat="53.337489" lon="06.613383"><ele>3.6</ele><time>2021-05-20T14:04:19Z</time><name>PT11020</name></trkpt>
<trkpt lat="53.337483" lon="06.613407"><ele>3.7</ele><time>2021-05-20T14:04:20Z</time><name>PT11021</name></trkpt>
<trkpt lat="53.337477" lon="06.613432"><ele>3.7</ele><time>2021-05-20T14:04:21Z</time><name>PT11022</name></trkpt>
<trkpt lat="53.337473" lon="06.613454"><ele>3.8</ele><time>2021-05-20T14:04:22Z</time><name>PT11023</name></trkpt>
<trkpt lat="53.337471" lon="06.613472"><ele>4</ele><time>2021-05-20T14:04:23Z</time><name>PT11024</name></trkpt>
<trkpt lat="53.337470" lon="06.613488"><ele>4</ele><time>2021-05-20T14:04:24Z</time><name>PT11025</name></trkpt>
<trkpt lat="53.337469" lon="06.613500"><ele>3.9</ele><time>2021-05-20T14:04:25Z</time><name>PT11026</name></trkpt>
<trkpt lat="53.337469" lon="06.613511"><ele>3.9</ele><time>2021-05-20T14:04:26Z</time><name>PT11027</name></trkpt>
<trkpt lat="53.337467" lon="06.613519"><ele>3.7</ele><time>2021-05-20T14:04:27Z</time><name>PT11028</name></trkpt>
<trkpt lat="53.337463" lon="06.613529"><ele>3.6</ele><time>2021-05-20T14:04:28Z</time><name>PT11029</name></trkpt>
<trkpt lat="53.337458" lon="06.613543"><ele>3.6</ele><time>2021-05-20T14:04:29Z</time><name>PT11030</name></trkpt>
<trkpt lat="53.337452" lon="06.613565"><ele>3.5</ele><time>2021-05-20T14:04:30Z</time><name>PT11031</name></trkpt>
<trkpt lat="53.337446" lon="06.613591"><ele>3.5</ele><time>2021-05-20T14:04:31Z</time><name>PT11032</name></trkpt>
<trkpt lat="53.337440" lon="06.613616"><ele>3.4</ele><time>2021-05-20T14:04:32Z</time><name>PT11033</name></trkpt>
<trkpt lat="53.337435" lon="06.613635"><ele>3.4</ele><time>2021-05-20T14:04:33Z</time><name>PT11034</name></trkpt>
<trkpt lat="53.337432" lon="06.613650"><ele>3.4</ele><time>2021-05-20T14:04:34Z</time><name>PT11035</name></trkpt>
<trkpt lat="53.337429" lon="06.613663"><ele>3.6</ele><time>2021-05-20T14:04:35Z</time><name>PT11036</name></trkpt>
<trkpt lat="53.337426" lon="06.613677"><ele>3.6</ele><time>2021-05-20T14:04:36Z</time><name>PT11037</name></trkpt>
<trkpt lat="53.337421" lon="06.613694"><ele>3.6</ele><time>2021-05-20T14:04:37Z</time><name>PT11038</name></trkpt>
<trkpt lat="53.337414" lon="06.613712"><ele>3.6</ele><time>2021-05-20T14:04:38Z</time><name>PT11039</name></trkpt>
<trkpt lat="53.337407" lon="06.613732"><ele>3.5</ele><time>2021-05-20T14:04:39Z</time><name>PT11040</name></trkpt>
<trkpt lat="53.337402" lon="06.613750"><ele>3.4</ele><time>2021-05-20T14:04:40Z</time><name>PT11041</name></trkpt>
<trkpt lat="53.337400" lon="06.613764"><ele>3.6</ele><time>2021-05-20T14:04:41Z</time><name>PT11042</name></trkpt>
<trkpt lat="53.337397" lon="06.613778"><ele>3.6</ele><time>2021-05-20T14:04:42Z</time><name>PT11043</name></trkpt>
<trkpt lat="53.337395" lon="06.613789"><ele>3.6</ele><time>2021-05-20T14:04:43Z</time><name>PT11044</name></trkpt>
<trkpt lat="53.337391" lon="06.613801"><ele>3.6</ele><time>2021-05-20T14:04:44Z</time><name>PT11045</name></trkpt>
<trkpt lat="53.337387" lon="06.613813"><ele>3.6</ele><time>2021-05-20T14:04:45Z</time><name>PT11046</name></trkpt>
<trkpt lat="53.337379" lon="06.613830"><ele>3.6</ele><time>2021-05-20T14:04:46Z</time><name>PT11047</name></trkpt>
<trkpt lat="53.337371" lon="06.613850"><ele>3.6</ele><time>2021-05-20T14:04:47Z</time><name>PT11048</name></trkpt>
<trkpt lat="53.337364" lon="06.613871"><ele>3.6</ele><time>2021-05-20T14:04:48Z</time><name>PT11049</name></trkpt>
<trkpt lat="53.337360" lon="06.613886"><ele>3.7</ele><time>2021-05-20T14:04:49Z</time><name>PT11050</name></trkpt>
<trkpt lat="53.337358" lon="06.613895"><ele>3.7</ele><time>2021-05-20T14:04:50Z</time><name>PT11051</name></trkpt>
<trkpt lat="53.337354" lon="06.613905"><ele>3.7</ele><time>2021-05-20T14:04:51Z</time><name>PT11052</name></trkpt>
<trkpt lat="53.337348" lon="06.613917"><ele>3.9</ele><time>2021-05-20T14:04:52Z</time><name>PT11053</name></trkpt>
<trkpt lat="53.337341" lon="06.613932"><ele>3.7</ele><time>2021-05-20T14:04:53Z</time><name>PT11054</name></trkpt>
<trkpt lat="53.337333" lon="06.613953"><ele>3.8</ele><time>2021-05-20T14:04:54Z</time><name>PT11055</name></trkpt>
<trkpt lat="53.337323" lon="06.613974"><ele>4</ele><time>2021-05-20T14:04:55Z</time><name>PT11056</name></trkpt>
<trkpt lat="53.337315" lon="06.613991"><ele>4</ele><time>2021-05-20T14:04:56Z</time><name>PT11057</name></trkpt>
<trkpt lat="53.337312" lon="06.614006"><ele>3.8</ele><time>2021-05-20T14:04:57Z</time><name>PT11058</name></trkpt>
<trkpt lat="53.337311" lon="06.614015"><ele>3.9</ele><time>2021-05-20T14:04:58Z</time><name>PT11059</name></trkpt>
<trkpt lat="53.337309" lon="06.614023"><ele>4</ele><time>2021-05-20T14:04:59Z</time><name>PT11060</name></trkpt>
<trkpt lat="53.337306" lon="06.614034"><ele>4</ele><time>2021-05-20T14:05:00Z</time><name>PT11061</name></trkpt>
<trkpt lat="53.337299" lon="06.614049"><ele>3.9</ele><time>2021-05-20T14:05:01Z</time><name>PT11062</name></trkpt>
<trkpt lat="53.337291" lon="06.614068"><ele>4.1</ele><time>2021-05-20T14:05:02Z</time><name>PT11063</name></trkpt>
<trkpt lat="53.337282" lon="06.614090"><ele>4.3</ele><time>2021-05-20T14:05:03Z</time><name>PT11064</name></trkpt>
<trkpt lat="53.337276" lon="06.614109"><ele>4.2</ele><time>2021-05-20T14:05:04Z</time><name>PT11065</name></trkpt>
<trkpt lat="53.337274" lon="06.614123"><ele>4.1</ele><time>2021-05-20T14:05:05Z</time><name>PT11066</name></trkpt>
<trkpt lat="53.337272" lon="06.614133"><ele>4.2</ele><time>2021-05-20T14:05:06Z</time><name>PT11067</name></trkpt>
<trkpt lat="53.337268" lon="06.614143"><ele>4.1</ele><time>2021-05-20T14:05:07Z</time><name>PT11068</name></trkpt>
<trkpt lat="53.337263" lon="06.614153"><ele>4</ele><time>2021-05-20T14:05:08Z</time><name>PT11069</name></trkpt>
<trkpt lat="53.337255" lon="06.614165"><ele>4.1</ele><time>2021-05-20T14:05:09Z</time><name>PT11070</name></trkpt>
<trkpt lat="53.337248" lon="06.614180"><ele>4.1</ele><time>2021-05-20T14:05:10Z</time><name>PT11071</name></trkpt>
<trkpt lat="53.337239" lon="06.614199"><ele>4.2</ele><time>2021-05-20T14:05:11Z</time><name>PT11072</name></trkpt>
<trkpt lat="53.337235" lon="06.614215"><ele>4.2</ele><time>2021-05-20T14:05:12Z</time><name>PT11073</name></trkpt>
<trkpt lat="53.337234" lon="06.614227"><ele>4.1</ele><time>2021-05-20T14:05:13Z</time><name>PT11074</name></trkpt>
<trkpt lat="53.337232" lon="06.614238"><ele>4.3</ele><time>2021-05-20T14:05:14Z</time><name>PT11075</name></trkpt>
<trkpt lat="53.337227" lon="06.614250"><ele>4.3</ele><time>2021-05-20T14:05:15Z</time><name>PT11076</name></trkpt>
<trkpt lat="53.337221" lon="06.614265"><ele>4.2</ele><time>2021-05-20T14:05:16Z</time><name>PT11077</name></trkpt>
<trkpt lat="53.337214" lon="06.614290"><ele>4.1</ele><time>2021-05-20T14:05:17Z</time><name>PT11078</name></trkpt>
<trkpt lat="53.337206" lon="06.614316"><ele>4.1</ele><time>2021-05-20T14:05:18Z</time><name>PT11079</name></trkpt>
<trkpt lat="53.337200" lon="06.614338"><ele>4</ele><time>2021-05-20T14:05:19Z</time><name>PT11080</name></trkpt>
<trkpt lat="53.337198" lon="06.614356"><ele>4</ele><time>2021-05-20T14:05:20Z</time><name>PT11081</name></trkpt>
<trkpt lat="53.337197" lon="06.614369"><ele>3.9</ele><time>2021-05-20T14:05:21Z</time><name>PT11082</name></trkpt>
<trkpt lat="53.337196" lon="06.614381"><ele>3.7</ele><time>2021-05-20T14:05:22Z</time><name>PT11083</name></trkpt>
<trkpt lat="53.337192" lon="06.614393"><ele>3.8</ele><time>2021-05-20T14:05:23Z</time><name>PT11084</name></trkpt>
<trkpt lat="53.337188" lon="06.614407"><ele>3.8</ele><time>2021-05-20T14:05:24Z</time><name>PT11085</name></trkpt>
<trkpt lat="53.337182" lon="06.614425"><ele>3.6</ele><time>2021-05-20T14:05:25Z</time><name>PT11086</name></trkpt>
<trkpt lat="53.337176" lon="06.614445"><ele>3.9</ele><time>2021-05-20T14:05:26Z</time><name>PT11087</name></trkpt>
<trkpt lat="53.337170" lon="06.614471"><ele>4</ele><time>2021-05-20T14:05:27Z</time><name>PT11088</name></trkpt>
<trkpt lat="53.337167" lon="06.614490"><ele>4.2</ele><time>2021-05-20T14:05:28Z</time><name>PT11089</name></trkpt>
<trkpt lat="53.337165" lon="06.614505"><ele>4.3</ele><time>2021-05-20T14:05:29Z</time><name>PT11090</name></trkpt>
<trkpt lat="53.337164" lon="06.614519"><ele>4.3</ele><time>2021-05-20T14:05:30Z</time><name>PT11091</name></trkpt>
<trkpt lat="53.337163" lon="06.614533"><ele>4.1</ele><time>2021-05-20T14:05:31Z</time><name>PT11092</name></trkpt>
<trkpt lat="53.337159" lon="06.614551"><ele>4</ele><time>2021-05-20T14:05:32Z</time><name>PT11093</name></trkpt>
<trkpt lat="53.337154" lon="06.614570"><ele>4.1</ele><time>2021-05-20T14:05:33Z</time><name>PT11094</name></trkpt>
<trkpt lat="53.337148" lon="06.614594"><ele>4.2</ele><time>2021-05-20T14:05:34Z</time><name>PT11095</name></trkpt>
<trkpt lat="53.337143" lon="06.614620"><ele>4.2</ele><time>2021-05-20T14:05:35Z</time><name>PT11096</name></trkpt>
<trkpt lat="53.337139" lon="06.614643"><ele>4.3</ele><time>2021-05-20T14:05:36Z</time><name>PT11097</name></trkpt>
<trkpt lat="53.337137" lon="06.614657"><ele>4.1</ele><time>2021-05-20T14:05:37Z</time><name>PT11098</name></trkpt>
<trkpt lat="53.337137" lon="06.614666"><ele>4</ele><time>2021-05-20T14:05:38Z</time><name>PT11099</name></trkpt>
<trkpt lat="53.337136" lon="06.614676"><ele>4</ele><time>2021-05-20T14:05:39Z</time><name>PT11100</name></trkpt>
<trkpt lat="53.337132" lon="06.614690"><ele>4</ele><time>2021-05-20T14:05:40Z</time><name>PT11101</name></trkpt>
<trkpt lat="53.337127" lon="06.614707"><ele>3.9</ele><time>2021-05-20T14:05:41Z</time><name>PT11102</name></trkpt>
<trkpt lat="53.337122" lon="06.614732"><ele>4.2</ele><time>2021-05-20T14:05:42Z</time><name>PT11103</name></trkpt>
<trkpt lat="53.337119" lon="06.614754"><ele>4.2</ele><time>2021-05-20T14:05:43Z</time><name>PT11104</name></trkpt>
<trkpt lat="53.337116" lon="06.614771"><ele>4.1</ele><time>2021-05-20T14:05:44Z</time><name>PT11105</name></trkpt>
<trkpt lat="53.337115" lon="06.614785"><ele>4.1</ele><time>2021-05-20T14:05:45Z</time><name>PT11106</name></trkpt>
<trkpt lat="53.337117" lon="06.614798"><ele>4.1</ele><time>2021-05-20T14:05:46Z</time><name>PT11107</name></trkpt>
<trkpt lat="53.337117" lon="06.614812"><ele>4</ele><time>2021-05-20T14:05:47Z</time><name>PT11108</name></trkpt>
<trkpt lat="53.337114" lon="06.614824"><ele>4.2</ele><time>2021-05-20T14:05:48Z</time><name>PT11109</name></trkpt>
<trkpt lat="53.337111" lon="06.614840"><ele>4</ele><time>2021-05-20T14:05:49Z</time><name>PT11110</name></trkpt>
<trkpt lat="53.337107" lon="06.614861"><ele>4</ele><time>2021-05-20T14:05:50Z</time><name>PT11111</name></trkpt>
<trkpt lat="53.337105" lon="06.614885"><ele>4.2</ele><time>2021-05-20T14:05:51Z</time><name>PT11112</name></trkpt>
<trkpt lat="53.337103" lon="06.614907"><ele>4.3</ele><time>2021-05-20T14:05:52Z</time><name>PT11113</name></trkpt>
<trkpt lat="53.337101" lon="06.614923"><ele>4.2</ele><time>2021-05-20T14:05:53Z</time><name>PT11114</name></trkpt>
<trkpt lat="53.337099" lon="06.614936"><ele>4.2</ele><time>2021-05-20T14:05:54Z</time><name>PT11115</name></trkpt>
<trkpt lat="53.337098" lon="06.614949"><ele>4.1</ele><time>2021-05-20T14:05:55Z</time><name>PT11116</name></trkpt>
<trkpt lat="53.337093" lon="06.614966"><ele>4</ele><time>2021-05-20T14:05:56Z</time><name>PT11117</name></trkpt>
<trkpt lat="53.337088" lon="06.614982"><ele>4</ele><time>2021-05-20T14:05:57Z</time><name>PT11118</name></trkpt>
<trkpt lat="53.337084" lon="06.615001"><ele>4.2</ele><time>2021-05-20T14:05:58Z</time><name>PT11119</name></trkpt>
<trkpt lat="53.337081" lon="06.615023"><ele>4.2</ele><time>2021-05-20T14:05:59Z</time><name>PT11120</name></trkpt>
<trkpt lat="53.337080" lon="06.615044"><ele>4.2</ele><time>2021-05-20T14:06:00Z</time><name>PT11121</name></trkpt>
<trkpt lat="53.337077" lon="06.615060"><ele>4.4</ele><time>2021-05-20T14:06:01Z</time><name>PT11122</name></trkpt>
<trkpt lat="53.337076" lon="06.615074"><ele>4.3</ele><time>2021-05-20T14:06:02Z</time><name>PT11123</name></trkpt>
<trkpt lat="53.337077" lon="06.615086"><ele>4.2</ele><time>2021-05-20T14:06:03Z</time><name>PT11124</name></trkpt>
<trkpt lat="53.337077" lon="06.615101"><ele>4.2</ele><time>2021-05-20T14:06:04Z</time><name>PT11125</name></trkpt>
<trkpt lat="53.337076" lon="06.615114"><ele>4.2</ele><time>2021-05-20T14:06:05Z</time><name>PT11126</name></trkpt>
<trkpt lat="53.337074" lon="06.615127"><ele>4.2</ele><time>2021-05-20T14:06:06Z</time><name>PT11127</name></trkpt>
<trkpt lat="53.337070" lon="06.615136"><ele>4</ele><time>2021-05-20T14:06:07Z</time><name>PT11128</name></trkpt>
<trkpt lat="53.337067" lon="06.615146"><ele>4.1</ele><time>2021-05-20T14:06:08Z</time><name>PT11129</name></trkpt>
<trkpt lat="53.337063" lon="06.615166"><ele>4.1</ele><time>2021-05-20T14:06:10Z</time><name>PT11130</name></trkpt>
<trkpt lat="53.337060" lon="06.615178"><ele>4</ele><time>2021-05-20T14:06:11Z</time><name>PT11131</name></trkpt>
<trkpt lat="53.337056" lon="06.615197"><ele>4.2</ele><time>2021-05-20T14:06:12Z</time><name>PT11132</name></trkpt>
<trkpt lat="53.337053" lon="06.615212"><ele>4.2</ele><time>2021-05-20T14:06:13Z</time><name>PT11133</name></trkpt>
<trkpt lat="53.337052" lon="06.615224"><ele>4.2</ele><time>2021-05-20T14:06:14Z</time><name>PT11134</name></trkpt>
<trkpt lat="53.337051" lon="06.615235"><ele>4.3</ele><time>2021-05-20T14:06:15Z</time><name>PT11135</name></trkpt>
<trkpt lat="53.337047" lon="06.615251"><ele>4.4</ele><time>2021-05-20T14:06:16Z</time><name>PT11136</name></trkpt>
<trkpt lat="53.337043" lon="06.615266"><ele>4.3</ele><time>2021-05-20T14:06:17Z</time><name>PT11137</name></trkpt>
<trkpt lat="53.337041" lon="06.615277"><ele>4.4</ele><time>2021-05-20T14:06:18Z</time><name>PT11138</name></trkpt>
<trkpt lat="53.337039" lon="06.615287"><ele>4.4</ele><time>2021-05-20T14:06:19Z</time><name>PT11139</name></trkpt>
<trkpt lat="53.337035" lon="06.615298"><ele>4.5</ele><time>2021-05-20T14:06:20Z</time><name>PT11140</name></trkpt>
<trkpt lat="53.337033" lon="06.615311"><ele>4.4</ele><time>2021-05-20T14:06:21Z</time><name>PT11141</name></trkpt>
<trkpt lat="53.337031" lon="06.615321"><ele>4.4</ele><time>2021-05-20T14:06:22Z</time><name>PT11142</name></trkpt>
<trkpt lat="53.337026" lon="06.615331"><ele>4.3</ele><time>2021-05-20T14:06:23Z</time><name>PT11143</name></trkpt>
<trkpt lat="53.337025" lon="06.615343"><ele>4.2</ele><time>2021-05-20T14:06:24Z</time><name>PT11144</name></trkpt>
<trkpt lat="53.337022" lon="06.615348"><ele>4.2</ele><time>2021-05-20T14:06:25Z</time><name>PT11145</name></trkpt>
<trkpt lat="53.337021" lon="06.615350"><ele>4.3</ele><time>2021-05-20T14:06:26Z</time><name>PT11146</name></trkpt>
<trkpt lat="53.337021" lon="06.615350"><ele>4.5</ele><time>2021-05-20T14:06:27Z</time><name>PT11147</name></trkpt>
<trkpt lat="53.337020" lon="06.615349"><ele>4.6</ele><time>2021-05-20T14:06:28Z</time><name>PT11148</name></trkpt>
<trkpt lat="53.337022" lon="06.615347"><ele>4.4</ele><time>2021-05-20T14:06:40Z</time><name>PT11149</name></trkpt>
<trkpt lat="53.337021" lon="06.615357"><ele>4.4</ele><time>2021-05-20T14:06:41Z</time><name>PT11150</name></trkpt>
<trkpt lat="53.337019" lon="06.615361"><ele>4.5</ele><time>2021-05-20T14:06:42Z</time><name>PT11151</name></trkpt>
<trkpt lat="53.337021" lon="06.615366"><ele>4.7</ele><time>2021-05-20T14:06:43Z</time><name>PT11152</name></trkpt>
<trkpt lat="53.337020" lon="06.615371"><ele>4.5</ele><time>2021-05-20T14:06:49Z</time><name>PT11153</name></trkpt>
<trkpt lat="53.337024" lon="06.615379"><ele>4.3</ele><time>2021-05-20T14:06:50Z</time><name>PT11154</name></trkpt>
<trkpt lat="53.337026" lon="06.615386"><ele>4</ele><time>2021-05-20T14:06:51Z</time><name>PT11155</name></trkpt>
<trkpt lat="53.337028" lon="06.615386"><ele>4.1</ele><time>2021-05-20T14:06:52Z</time><name>PT11156</name></trkpt>
<trkpt lat="53.337031" lon="06.615383"><ele>4.2</ele><time>2021-05-20T14:06:53Z</time><name>PT11157</name></trkpt>
<trkpt lat="53.337027" lon="06.615392"><ele>4.3</ele><time>2021-05-20T14:06:54Z</time><name>PT11158</name></trkpt>
<trkpt lat="53.337023" lon="06.615395"><ele>4.6</ele><time>2021-05-20T14:06:59Z</time><name>PT11159</name></trkpt>
<trkpt lat="53.337021" lon="06.615392"><ele>4.8</ele><time>2021-05-20T14:07:00Z</time><name>PT11160</name></trkpt>
<trkpt lat="53.337020" lon="06.615393"><ele>4.9</ele><time>2021-05-20T14:07:01Z</time><name>PT11161</name></trkpt>
<trkpt lat="53.337021" lon="06.615391"><ele>4.7</ele><time>2021-05-20T14:07:02Z</time><name>PT11162</name></trkpt>
<trkpt lat="53.337025" lon="06.615379"><ele>4.5</ele><time>2021-05-20T14:08:22Z</time><name>PT11163</name></trkpt>
<trkpt lat="53.337029" lon="06.615381"><ele>4.3</ele><time>2021-05-20T14:08:23Z</time><name>PT11164</name></trkpt>
<trkpt lat="53.337027" lon="06.615380"><ele>4</ele><time>2021-05-20T14:08:24Z</time><name>PT11165</name></trkpt>
<trkpt lat="53.337025" lon="06.615380"><ele>4</ele><time>2021-05-20T14:08:25Z</time><name>PT11166</name></trkpt>
<trkpt lat="53.337025" lon="06.615383"><ele>3.9</ele><time>2021-05-20T14:08:26Z</time><name>PT11167</name></trkpt>
<trkpt lat="53.337026" lon="06.615385"><ele>4</ele><time>2021-05-20T14:08:27Z</time><name>PT11168</name></trkpt>
<trkpt lat="53.337028" lon="06.615395"><ele>4</ele><time>2021-05-20T14:09:01Z</time><name>PT11169</name></trkpt>
<trkpt lat="53.337036" lon="06.615394"><ele>4.1</ele><time>2021-05-20T14:09:02Z</time><name>PT11170</name></trkpt>
<trkpt lat="53.337041" lon="06.615398"><ele>4</ele><time>2021-05-20T14:09:03Z</time><name>PT11171</name></trkpt>
<trkpt lat="53.337043" lon="06.615403"><ele>4</ele><time>2021-05-20T14:09:04Z</time><name>PT11172</name></trkpt>
<trkpt lat="53.337042" lon="06.615408"><ele>4.1</ele><time>2021-05-20T14:09:05Z</time><name>PT11173</name></trkpt>
<trkpt lat="53.337046" lon="06.615412"><ele>4</ele><time>2021-05-20T14:09:06Z</time><name>PT11174</name></trkpt>
<trkpt lat="53.337047" lon="06.615419"><ele>4.5</ele><time>2021-05-20T14:09:13Z</time><name>PT11175</name></trkpt>
<trkpt lat="53.337045" lon="06.615415"><ele>4.4</ele><time>2021-05-20T14:09:14Z</time><name>PT11176</name></trkpt>
<trkpt lat="53.337043" lon="06.615415"><ele>4.4</ele><time>2021-05-20T14:09:15Z</time><name>PT11177</name></trkpt>
<trkpt lat="53.337042" lon="06.615412"><ele>4.5</ele><time>2021-05-20T14:09:19Z</time><name>PT11178</name></trkpt>
<trkpt lat="53.337043" lon="06.615412"><ele>4.8</ele><time>2021-05-20T14:09:20Z</time><name>PT11179</name></trkpt>
<trkpt lat="53.337044" lon="06.615411"><ele>4.9</ele><time>2021-05-20T14:09:21Z</time><name>PT11180</name></trkpt>
<trkpt lat="53.337042" lon="06.615408"><ele>5</ele><time>2021-05-20T14:09:22Z</time><name>PT11181</name></trkpt>
<trkpt lat="53.337047" lon="06.615403"><ele>4.8</ele><time>2021-05-20T14:10:14Z</time><name>PT11182</name></trkpt>
<trkpt lat="53.337050" lon="06.615405"><ele>4.9</ele><time>2021-05-20T14:10:15Z</time><name>PT11183</name></trkpt>
<trkpt lat="53.337053" lon="06.615412"><ele>4.9</ele><time>2021-05-20T14:10:16Z</time><name>PT11184</name></trkpt>
<trkpt lat="53.337055" lon="06.615417"><ele>4.7</ele><time>2021-05-20T14:10:17Z</time><name>PT11185</name></trkpt>
<trkpt lat="53.337052" lon="06.615417"><ele>4.7</ele><time>2021-05-20T14:10:18Z</time><name>PT11186</name></trkpt>
<trkpt lat="53.337054" lon="06.615416"><ele>4.7</ele><time>2021-05-20T14:10:19Z</time><name>PT11187</name></trkpt>
<trkpt lat="53.337058" lon="06.615417"><ele>4.5</ele><time>2021-05-20T14:10:20Z</time><name>PT11188</name></trkpt>
<trkpt lat="53.337060" lon="06.615427"><ele>4.2</ele><time>2021-05-20T14:10:21Z</time><name>PT11189</name></trkpt>
<trkpt lat="53.337062" lon="06.615438"><ele>4.1</ele><time>2021-05-20T14:10:22Z</time><name>PT11190</name></trkpt>
<trkpt lat="53.337066" lon="06.615449"><ele>4</ele><time>2021-05-20T14:10:23Z</time><name>PT11191</name></trkpt>
<trkpt lat="53.337071" lon="06.615460"><ele>4.3</ele><time>2021-05-20T14:10:24Z</time><name>PT11192</name></trkpt>
<trkpt lat="53.337075" lon="06.615475"><ele>4.5</ele><time>2021-05-20T14:10:25Z</time><name>PT11193</name></trkpt>
<trkpt lat="53.337078" lon="06.615494"><ele>4.7</ele><time>2021-05-20T14:10:26Z</time><name>PT11194</name></trkpt>
<trkpt lat="53.337080" lon="06.615511"><ele>4.5</ele><time>2021-05-20T14:10:27Z</time><name>PT11195</name></trkpt>
<trkpt lat="53.337081" lon="06.615526"><ele>4.5</ele><time>2021-05-20T14:10:28Z</time><name>PT11196</name></trkpt>
<trkpt lat="53.337082" lon="06.615542"><ele>4.4</ele><time>2021-05-20T14:10:29Z</time><name>PT11197</name></trkpt>
<trkpt lat="53.337083" lon="06.615557"><ele>4.4</ele><time>2021-05-20T14:10:30Z</time><name>PT11198</name></trkpt>
<trkpt lat="53.337084" lon="06.615573"><ele>4.3</ele><time>2021-05-20T14:10:31Z</time><name>PT11199</name></trkpt>
<trkpt lat="53.337083" lon="06.615589"><ele>4.4</ele><time>2021-05-20T14:10:32Z</time><name>PT11200</name></trkpt>
<trkpt lat="53.337080" lon="06.615606"><ele>4.2</ele><time>2021-05-20T14:10:33Z</time><name>PT11201</name></trkpt>
<trkpt lat="53.337081" lon="06.615623"><ele>4.1</ele><time>2021-05-20T14:10:34Z</time><name>PT11202</name></trkpt>
<trkpt lat="53.337082" lon="06.615641"><ele>4.3</ele><time>2021-05-20T14:10:35Z</time><name>PT11203</name></trkpt>
<trkpt lat="53.337082" lon="06.615658"><ele>4.5</ele><time>2021-05-20T14:10:36Z</time><name>PT11204</name></trkpt>
<trkpt lat="53.337082" lon="06.615673"><ele>4.5</ele><time>2021-05-20T14:10:37Z</time><name>PT11205</name></trkpt>
<trkpt lat="53.337080" lon="06.615689"><ele>4.8</ele><time>2021-05-20T14:10:38Z</time><name>PT11206</name></trkpt>
<trkpt lat="53.337078" lon="06.615708"><ele>4.7</ele><time>2021-05-20T14:10:39Z</time><name>PT11207</name></trkpt>
<trkpt lat="53.337078" lon="06.615726"><ele>4.6</ele><time>2021-05-20T14:10:40Z</time><name>PT11208</name></trkpt>
<trkpt lat="53.337079" lon="06.615744"><ele>4.6</ele><time>2021-05-20T14:10:41Z</time><name>PT11209</name></trkpt>
<trkpt lat="53.337081" lon="06.615761"><ele>4.6</ele><time>2021-05-20T14:10:42Z</time><name>PT11210</name></trkpt>
<trkpt lat="53.337078" lon="06.615773"><ele>4.5</ele><time>2021-05-20T14:10:43Z</time><name>PT11211</name></trkpt>
<trkpt lat="53.337075" lon="06.615785"><ele>4.4</ele><time>2021-05-20T14:10:44Z</time><name>PT11212</name></trkpt>
<trkpt lat="53.337073" lon="06.615800"><ele>4.2</ele><time>2021-05-20T14:10:45Z</time><name>PT11213</name></trkpt>
<trkpt lat="53.337071" lon="06.615818"><ele>4.1</ele><time>2021-05-20T14:10:46Z</time><name>PT11214</name></trkpt>
<trkpt lat="53.337072" lon="06.615835"><ele>4</ele><time>2021-05-20T14:10:47Z</time><name>PT11215</name></trkpt>
<trkpt lat="53.337074" lon="06.615851"><ele>4.3</ele><time>2021-05-20T14:10:48Z</time><name>PT11216</name></trkpt>
<trkpt lat="53.337075" lon="06.615867"><ele>4.2</ele><time>2021-05-20T14:10:49Z</time><name>PT11217</name></trkpt>
<trkpt lat="53.337075" lon="06.615885"><ele>4.1</ele><time>2021-05-20T14:10:50Z</time><name>PT11218</name></trkpt>
<trkpt lat="53.337076" lon="06.615904"><ele>4</ele><time>2021-05-20T14:10:51Z</time><name>PT11219</name></trkpt>
<trkpt lat="53.337077" lon="06.615920"><ele>4</ele><time>2021-05-20T14:10:52Z</time><name>PT11220</name></trkpt>
<trkpt lat="53.337079" lon="06.615938"><ele>3.9</ele><time>2021-05-20T14:10:53Z</time><name>PT11221</name></trkpt>
<trkpt lat="53.337080" lon="06.615954"><ele>4</ele><time>2021-05-20T14:10:54Z</time><name>PT11222</name></trkpt>
<trkpt lat="53.337083" lon="06.615972"><ele>4</ele><time>2021-05-20T14:10:55Z</time><name>PT11223</name></trkpt>
<trkpt lat="53.337085" lon="06.615988"><ele>4</ele><time>2021-05-20T14:10:56Z</time><name>PT11224</name></trkpt>
<trkpt lat="53.337085" lon="06.616004"><ele>4</ele><time>2021-05-20T14:10:57Z</time><name>PT11225</name></trkpt>
<trkpt lat="53.337084" lon="06.616019"><ele>4</ele><time>2021-05-20T14:10:58Z</time><name>PT11226</name></trkpt>
<trkpt lat="53.337084" lon="06.616035"><ele>3.9</ele><time>2021-05-20T14:10:59Z</time><name>PT11227</name></trkpt>
<trkpt lat="53.337085" lon="06.616053"><ele>3.7</ele><time>2021-05-20T14:11:00Z</time><name>PT11228</name></trkpt>
<trkpt lat="53.337086" lon="06.616073"><ele>3.6</ele><time>2021-05-20T14:11:01Z</time><name>PT11229</name></trkpt>
<trkpt lat="53.337087" lon="06.616089"><ele>3.6</ele><time>2021-05-20T14:11:02Z</time><name>PT11230</name></trkpt>
<trkpt lat="53.337086" lon="06.616105"><ele>3.3</ele><time>2021-05-20T14:11:03Z</time><name>PT11231</name></trkpt>
<trkpt lat="53.337086" lon="06.616123"><ele>3.3</ele><time>2021-05-20T14:11:04Z</time><name>PT11232</name></trkpt>
<trkpt lat="53.337086" lon="06.616141"><ele>3.5</ele><time>2021-05-20T14:11:05Z</time><name>PT11233</name></trkpt>
<trkpt lat="53.337087" lon="06.616158"><ele>3.6</ele><time>2021-05-20T14:11:06Z</time><name>PT11234</name></trkpt>
<trkpt lat="53.337089" lon="06.616175"><ele>3.6</ele><time>2021-05-20T14:11:07Z</time><name>PT11235</name></trkpt>
<trkpt lat="53.337092" lon="06.616192"><ele>3.6</ele><time>2021-05-20T14:11:08Z</time><name>PT11236</name></trkpt>
<trkpt lat="53.337092" lon="06.616209"><ele>3.5</ele><time>2021-05-20T14:11:09Z</time><name>PT11237</name></trkpt>
<trkpt lat="53.337094" lon="06.616227"><ele>3.5</ele><time>2021-05-20T14:11:10Z</time><name>PT11238</name></trkpt>
<trkpt lat="53.337092" lon="06.616244"><ele>3.6</ele><time>2021-05-20T14:11:11Z</time><name>PT11239</name></trkpt>
<trkpt lat="53.337092" lon="06.616260"><ele>3.6</ele><time>2021-05-20T14:11:12Z</time><name>PT11240</name></trkpt>
<trkpt lat="53.337092" lon="06.616278"><ele>3.6</ele><time>2021-05-20T14:11:13Z</time><name>PT11241</name></trkpt>
<trkpt lat="53.337095" lon="06.616296"><ele>3.6</ele><time>2021-05-20T14:11:14Z</time><name>PT11242</name></trkpt>
<trkpt lat="53.337098" lon="06.616313"><ele>3.8</ele><time>2021-05-20T14:11:15Z</time><name>PT11243</name></trkpt>
<trkpt lat="53.337100" lon="06.616328"><ele>3.9</ele><time>2021-05-20T14:11:16Z</time><name>PT11244</name></trkpt>
<trkpt lat="53.337100" lon="06.616345"><ele>3.9</ele><time>2021-05-20T14:11:17Z</time><name>PT11245</name></trkpt>
<trkpt lat="53.337100" lon="06.616364"><ele>3.9</ele><time>2021-05-20T14:11:18Z</time><name>PT11246</name></trkpt>
<trkpt lat="53.337100" lon="06.616382"><ele>4</ele><time>2021-05-20T14:11:19Z</time><name>PT11247</name></trkpt>
<trkpt lat="53.337100" lon="06.616400"><ele>3.8</ele><time>2021-05-20T14:11:20Z</time><name>PT11248</name></trkpt>
<trkpt lat="53.337101" lon="06.616418"><ele>3.6</ele><time>2021-05-20T14:11:21Z</time><name>PT11249</name></trkpt>
<trkpt lat="53.337102" lon="06.616437"><ele>3.6</ele><time>2021-05-20T14:11:22Z</time><name>PT11250</name></trkpt>
<trkpt lat="53.337105" lon="06.616453"><ele>3.6</ele><time>2021-05-20T14:11:23Z</time><name>PT11251</name></trkpt>
<trkpt lat="53.337104" lon="06.616470"><ele>3.6</ele><time>2021-05-20T14:11:24Z</time><name>PT11252</name></trkpt>
<trkpt lat="53.337103" lon="06.616484"><ele>3.8</ele><time>2021-05-20T14:11:25Z</time><name>PT11253</name></trkpt>
<trkpt lat="53.337104" lon="06.616503"><ele>3.7</ele><time>2021-05-20T14:11:26Z</time><name>PT11254</name></trkpt>
<trkpt lat="53.337105" lon="06.616521"><ele>3.8</ele><time>2021-05-20T14:11:27Z</time><name>PT11255</name></trkpt>
<trkpt lat="53.337108" lon="06.616540"><ele>3.8</ele><time>2021-05-20T14:11:28Z</time><name>PT11256</name></trkpt>
<trkpt lat="53.337110" lon="06.616560"><ele>3.7</ele><time>2021-05-20T14:11:29Z</time><name>PT11257</name></trkpt>
<trkpt lat="53.337112" lon="06.616579"><ele>3.8</ele><time>2021-05-20T14:11:30Z</time><name>PT11258</name></trkpt>
<trkpt lat="53.337112" lon="06.616598"><ele>3.8</ele><time>2021-05-20T14:11:31Z</time><name>PT11259</name></trkpt>
<trkpt lat="53.337113" lon="06.616616"><ele>3.8</ele><time>2021-05-20T14:11:32Z</time><name>PT11260</name></trkpt>
<trkpt lat="53.337114" lon="06.616636"><ele>3.9</ele><time>2021-05-20T14:11:33Z</time><name>PT11261</name></trkpt>
<trkpt lat="53.337116" lon="06.616653"><ele>3.9</ele><time>2021-05-20T14:11:34Z</time><name>PT11262</name></trkpt>
<trkpt lat="53.337117" lon="06.616670"><ele>3.8</ele><time>2021-05-20T14:11:35Z</time><name>PT11263</name></trkpt>
<trkpt lat="53.337118" lon="06.616684"><ele>4</ele><time>2021-05-20T14:11:36Z</time><name>PT11264</name></trkpt>
<trkpt lat="53.337119" lon="06.616699"><ele>4.1</ele><time>2021-05-20T14:11:37Z</time><name>PT11265</name></trkpt>
<trkpt lat="53.337122" lon="06.616714"><ele>4</ele><time>2021-05-20T14:11:38Z</time><name>PT11266</name></trkpt>
<trkpt lat="53.337124" lon="06.616732"><ele>4</ele><time>2021-05-20T14:11:39Z</time><name>PT11267</name></trkpt>
<trkpt lat="53.337125" lon="06.616751"><ele>4.1</ele><time>2021-05-20T14:11:40Z</time><name>PT11268</name></trkpt>
<trkpt lat="53.337126" lon="06.616773"><ele>4</ele><time>2021-05-20T14:11:41Z</time><name>PT11269</name></trkpt>
<trkpt lat="53.337127" lon="06.616791"><ele>4.2</ele><time>2021-05-20T14:11:42Z</time><name>PT11270</name></trkpt>
<trkpt lat="53.337131" lon="06.616811"><ele>4.2</ele><time>2021-05-20T14:11:43Z</time><name>PT11271</name></trkpt>
<trkpt lat="53.337134" lon="06.616829"><ele>4</ele><time>2021-05-20T14:11:44Z</time><name>PT11272</name></trkpt>
<trkpt lat="53.337134" lon="06.616847"><ele>4</ele><time>2021-05-20T14:11:45Z</time><name>PT11273</name></trkpt>
<trkpt lat="53.337137" lon="06.616863"><ele>4</ele><time>2021-05-20T14:11:46Z</time><name>PT11274</name></trkpt>
<trkpt lat="53.337141" lon="06.616881"><ele>3.7</ele><time>2021-05-20T14:11:47Z</time><name>PT11275</name></trkpt>
<trkpt lat="53.337145" lon="06.616898"><ele>3.9</ele><time>2021-05-20T14:11:48Z</time><name>PT11276</name></trkpt>
<trkpt lat="53.337147" lon="06.616917"><ele>3.8</ele><time>2021-05-20T14:11:49Z</time><name>PT11277</name></trkpt>
<trkpt lat="53.337147" lon="06.616932"><ele>3.8</ele><time>2021-05-20T14:11:50Z</time><name>PT11278</name></trkpt>
<trkpt lat="53.337149" lon="06.616948"><ele>3.8</ele><time>2021-05-20T14:11:51Z</time><name>PT11279</name></trkpt>
<trkpt lat="53.337151" lon="06.616966"><ele>3.8</ele><time>2021-05-20T14:11:52Z</time><name>PT11280</name></trkpt>
<trkpt lat="53.337153" lon="06.616984"><ele>3.8</ele><time>2021-05-20T14:11:53Z</time><name>PT11281</name></trkpt>
<trkpt lat="53.337155" lon="06.617004"><ele>3.9</ele><time>2021-05-20T14:11:54Z</time><name>PT11282</name></trkpt>
<trkpt lat="53.337158" lon="06.617022"><ele>3.9</ele><time>2021-05-20T14:11:55Z</time><name>PT11283</name></trkpt>
<trkpt lat="53.337161" lon="06.617040"><ele>4</ele><time>2021-05-20T14:11:56Z</time><name>PT11284</name></trkpt>
<trkpt lat="53.337165" lon="06.617058"><ele>4</ele><time>2021-05-20T14:11:57Z</time><name>PT11285</name></trkpt>
<trkpt lat="53.337169" lon="06.617075"><ele>4.1</ele><time>2021-05-20T14:11:58Z</time><name>PT11286</name></trkpt>
<trkpt lat="53.337174" lon="06.617093"><ele>4</ele><time>2021-05-20T14:11:59Z</time><name>PT11287</name></trkpt>
<trkpt lat="53.337178" lon="06.617110"><ele>3.9</ele><time>2021-05-20T14:12:00Z</time><name>PT11288</name></trkpt>
<trkpt lat="53.337182" lon="06.617127"><ele>4</ele><time>2021-05-20T14:12:01Z</time><name>PT11289</name></trkpt>
<trkpt lat="53.337185" lon="06.617144"><ele>4.2</ele><time>2021-05-20T14:12:02Z</time><name>PT11290</name></trkpt>
<trkpt lat="53.337190" lon="06.617163"><ele>4.3</ele><time>2021-05-20T14:12:03Z</time><name>PT11291</name></trkpt>
<trkpt lat="53.337194" lon="06.617181"><ele>4.3</ele><time>2021-05-20T14:12:04Z</time><name>PT11292</name></trkpt>
<trkpt lat="53.337198" lon="06.617200"><ele>4.5</ele><time>2021-05-20T14:12:05Z</time><name>PT11293</name></trkpt>
<trkpt lat="53.337201" lon="06.617219"><ele>4.5</ele><time>2021-05-20T14:12:06Z</time><name>PT11294</name></trkpt>
<trkpt lat="53.337205" lon="06.617239"><ele>4.5</ele><time>2021-05-20T14:12:07Z</time><name>PT11295</name></trkpt>
<trkpt lat="53.337209" lon="06.617258"><ele>4.5</ele><time>2021-05-20T14:12:08Z</time><name>PT11296</name></trkpt>
<trkpt lat="53.337213" lon="06.617276"><ele>4.5</ele><time>2021-05-20T14:12:09Z</time><name>PT11297</name></trkpt>
<trkpt lat="53.337217" lon="06.617292"><ele>4.6</ele><time>2021-05-20T14:12:10Z</time><name>PT11298</name></trkpt>
<trkpt lat="53.337222" lon="06.617307"><ele>4.6</ele><time>2021-05-20T14:12:11Z</time><name>PT11299</name></trkpt>
<trkpt lat="53.337228" lon="06.617320"><ele>4.7</ele><time>2021-05-20T14:12:12Z</time><name>PT11300</name></trkpt>
<trkpt lat="53.337233" lon="06.617333"><ele>4.7</ele><time>2021-05-20T14:12:13Z</time><name>PT11301</name></trkpt>
<trkpt lat="53.337237" lon="06.617346"><ele>4.5</ele><time>2021-05-20T14:12:14Z</time><name>PT11302</name></trkpt>
<trkpt lat="53.337242" lon="06.617361"><ele>4.5</ele><time>2021-05-20T14:12:15Z</time><name>PT11303</name></trkpt>
<trkpt lat="53.337247" lon="06.617377"><ele>4.4</ele><time>2021-05-20T14:12:16Z</time><name>PT11304</name></trkpt>
<trkpt lat="53.337250" lon="06.617394"><ele>4.4</ele><time>2021-05-20T14:12:17Z</time><name>PT11305</name></trkpt>
<trkpt lat="53.337256" lon="06.617411"><ele>4.3</ele><time>2021-05-20T14:12:18Z</time><name>PT11306</name></trkpt>
<trkpt lat="53.337261" lon="06.617427"><ele>4.5</ele><time>2021-05-20T14:12:19Z</time><name>PT11307</name></trkpt>
<trkpt lat="53.337266" lon="06.617443"><ele>4.3</ele><time>2021-05-20T14:12:20Z</time><name>PT11308</name></trkpt>
<trkpt lat="53.337271" lon="06.617460"><ele>4.3</ele><time>2021-05-20T14:12:21Z</time><name>PT11309</name></trkpt>
<trkpt lat="53.337276" lon="06.617476"><ele>4.3</ele><time>2021-05-20T14:12:22Z</time><name>PT11310</name></trkpt>
<trkpt lat="53.337281" lon="06.617493"><ele>4.3</ele><time>2021-05-20T14:12:23Z</time><name>PT11311</name></trkpt>
<trkpt lat="53.337286" lon="06.617509"><ele>4.2</ele><time>2021-05-20T14:12:24Z</time><name>PT11312</name></trkpt>
<trkpt lat="53.337292" lon="06.617525"><ele>4.1</ele><time>2021-05-20T14:12:25Z</time><name>PT11313</name></trkpt>
<trkpt lat="53.337297" lon="06.617540"><ele>4</ele><time>2021-05-20T14:12:26Z</time><name>PT11314</name></trkpt>
<trkpt lat="53.337302" lon="06.617556"><ele>3.8</ele><time>2021-05-20T14:12:27Z</time><name>PT11315</name></trkpt>
<trkpt lat="53.337306" lon="06.617573"><ele>3.8</ele><time>2021-05-20T14:12:28Z</time><name>PT11316</name></trkpt>
<trkpt lat="53.337312" lon="06.617587"><ele>3.9</ele><time>2021-05-20T14:12:29Z</time><name>PT11317</name></trkpt>
<trkpt lat="53.337316" lon="06.617598"><ele>4</ele><time>2021-05-20T14:12:30Z</time><name>PT11318</name></trkpt>
<trkpt lat="53.337320" lon="06.617605"><ele>4.2</ele><time>2021-05-20T14:12:31Z</time><name>PT11319</name></trkpt>
<trkpt lat="53.337323" lon="06.617607"><ele>4.5</ele><time>2021-05-20T14:12:32Z</time><name>PT11320</name></trkpt>
<trkpt lat="53.337323" lon="06.617608"><ele>4.3</ele><time>2021-05-20T14:12:33Z</time><name>PT11321</name></trkpt>
<trkpt lat="53.337324" lon="06.617609"><ele>4.4</ele><time>2021-05-20T14:12:34Z</time><name>PT11322</name></trkpt>
<trkpt lat="53.337325" lon="06.617610"><ele>4.5</ele><time>2021-05-20T14:12:35Z</time><name>PT11323</name></trkpt>
<trkpt lat="53.337326" lon="06.617619"><ele>4.2</ele><time>2021-05-20T14:12:37Z</time><name>PT11324</name></trkpt>
<trkpt lat="53.337327" lon="06.617635"><ele>4.2</ele><time>2021-05-20T14:12:38Z</time><name>PT11325</name></trkpt>
<trkpt lat="53.337330" lon="06.617650"><ele>3.9</ele><time>2021-05-20T14:12:39Z</time><name>PT11326</name></trkpt>
<trkpt lat="53.337333" lon="06.617668"><ele>4</ele><time>2021-05-20T14:12:40Z</time><name>PT11327</name></trkpt>
<trkpt lat="53.337334" lon="06.617684"><ele>4</ele><time>2021-05-20T14:12:41Z</time><name>PT11328</name></trkpt>
<trkpt lat="53.337336" lon="06.617698"><ele>4.1</ele><time>2021-05-20T14:12:42Z</time><name>PT11329</name></trkpt>
<trkpt lat="53.337340" lon="06.617713"><ele>4</ele><time>2021-05-20T14:12:43Z</time><name>PT11330</name></trkpt>
<trkpt lat="53.337343" lon="06.617729"><ele>4.2</ele><time>2021-05-20T14:12:44Z</time><name>PT11331</name></trkpt>
<trkpt lat="53.337347" lon="06.617745"><ele>4.3</ele><time>2021-05-20T14:12:45Z</time><name>PT11332</name></trkpt>
<trkpt lat="53.337349" lon="06.617761"><ele>4.3</ele><time>2021-05-20T14:12:46Z</time><name>PT11333</name></trkpt>
<trkpt lat="53.337351" lon="06.617779"><ele>4.3</ele><time>2021-05-20T14:12:47Z</time><name>PT11334</name></trkpt>
<trkpt lat="53.337353" lon="06.617799"><ele>4.2</ele><time>2021-05-20T14:12:48Z</time><name>PT11335</name></trkpt>
<trkpt lat="53.337355" lon="06.617818"><ele>4.4</ele><time>2021-05-20T14:12:49Z</time><name>PT11336</name></trkpt>
<trkpt lat="53.337356" lon="06.617838"><ele>4.5</ele><time>2021-05-20T14:12:50Z</time><name>PT11337</name></trkpt>
<trkpt lat="53.337358" lon="06.617858"><ele>4.3</ele><time>2021-05-20T14:12:51Z</time><name>PT11338</name></trkpt>
<trkpt lat="53.337359" lon="06.617876"><ele>4.7</ele><time>2021-05-20T14:12:52Z</time><name>PT11339</name></trkpt>
<trkpt lat="53.337360" lon="06.617893"><ele>4.7</ele><time>2021-05-20T14:12:53Z</time><name>PT11340</name></trkpt>
<trkpt lat="53.337363" lon="06.617911"><ele>4.6</ele><time>2021-05-20T14:12:54Z</time><name>PT11341</name></trkpt>
<trkpt lat="53.337365" lon="06.617929"><ele>4.6</ele><time>2021-05-20T14:12:55Z</time><name>PT11342</name></trkpt>
<trkpt lat="53.337366" lon="06.617946"><ele>4.4</ele><time>2021-05-20T14:12:56Z</time><name>PT11343</name></trkpt>
<trkpt lat="53.337368" lon="06.617961"><ele>4.4</ele><time>2021-05-20T14:12:57Z</time><name>PT11344</name></trkpt>
<trkpt lat="53.337368" lon="06.617979"><ele>4.4</ele><time>2021-05-20T14:12:58Z</time><name>PT11345</name></trkpt>
<trkpt lat="53.337369" lon="06.617997"><ele>4.4</ele><time>2021-05-20T14:12:59Z</time><name>PT11346</name></trkpt>
<trkpt lat="53.337370" lon="06.618015"><ele>4.5</ele><time>2021-05-20T14:13:00Z</time><name>PT11347</name></trkpt>
<trkpt lat="53.337370" lon="06.618031"><ele>4.5</ele><time>2021-05-20T14:13:01Z</time><name>PT11348</name></trkpt>
<trkpt lat="53.337371" lon="06.618046"><ele>4.5</ele><time>2021-05-20T14:13:02Z</time><name>PT11349</name></trkpt>
<trkpt lat="53.337372" lon="06.618061"><ele>4.5</ele><time>2021-05-20T14:13:03Z</time><name>PT11350</name></trkpt>
<trkpt lat="53.337374" lon="06.618077"><ele>4.4</ele><time>2021-05-20T14:13:04Z</time><name>PT11351</name></trkpt>
<trkpt lat="53.337376" lon="06.618094"><ele>4.3</ele><time>2021-05-20T14:13:05Z</time><name>PT11352</name></trkpt>
<trkpt lat="53.337378" lon="06.618109"><ele>4.3</ele><time>2021-05-20T14:13:06Z</time><name>PT11353</name></trkpt>
<trkpt lat="53.337380" lon="06.618125"><ele>4.3</ele><time>2021-05-20T14:13:07Z</time><name>PT11354</name></trkpt>
<trkpt lat="53.337382" lon="06.618142"><ele>4.3</ele><time>2021-05-20T14:13:08Z</time><name>PT11355</name></trkpt>
<trkpt lat="53.337383" lon="06.618161"><ele>4.5</ele><time>2021-05-20T14:13:09Z</time><name>PT11356</name></trkpt>
<trkpt lat="53.337384" lon="06.618179"><ele>4.3</ele><time>2021-05-20T14:13:10Z</time><name>PT11357</name></trkpt>
<trkpt lat="53.337389" lon="06.618197"><ele>4.2</ele><time>2021-05-20T14:13:11Z</time><name>PT11358</name></trkpt>
<trkpt lat="53.337391" lon="06.618215"><ele>4.3</ele><time>2021-05-20T14:13:12Z</time><name>PT11359</name></trkpt>
<trkpt lat="53.337394" lon="06.618232"><ele>4.3</ele><time>2021-05-20T14:13:13Z</time><name>PT11360</name></trkpt>
<trkpt lat="53.337396" lon="06.618248"><ele>4.5</ele><time>2021-05-20T14:13:14Z</time><name>PT11361</name></trkpt>
<trkpt lat="53.337398" lon="06.618264"><ele>4.5</ele><time>2021-05-20T14:13:15Z</time><name>PT11362</name></trkpt>
<trkpt lat="53.337399" lon="06.618280"><ele>4.5</ele><time>2021-05-20T14:13:16Z</time><name>PT11363</name></trkpt>
<trkpt lat="53.337400" lon="06.618297"><ele>4.5</ele><time>2021-05-20T14:13:17Z</time><name>PT11364</name></trkpt>
<trkpt lat="53.337401" lon="06.618314"><ele>4.5</ele><time>2021-05-20T14:13:18Z</time><name>PT11365</name></trkpt>
<trkpt lat="53.337402" lon="06.618329"><ele>4.6</ele><time>2021-05-20T14:13:19Z</time><name>PT11366</name></trkpt>
<trkpt lat="53.337406" lon="06.618344"><ele>4.6</ele><time>2021-05-20T14:13:20Z</time><name>PT11367</name></trkpt>
<trkpt lat="53.337408" lon="06.618357"><ele>4.5</ele><time>2021-05-20T14:13:21Z</time><name>PT11368</name></trkpt>
<trkpt lat="53.337412" lon="06.618369"><ele>4.4</ele><time>2021-05-20T14:13:22Z</time><name>PT11369</name></trkpt>
<trkpt lat="53.337414" lon="06.618384"><ele>4.3</ele><time>2021-05-20T14:13:23Z</time><name>PT11370</name></trkpt>
<trkpt lat="53.337416" lon="06.618400"><ele>4.2</ele><time>2021-05-20T14:13:24Z</time><name>PT11371</name></trkpt>
<trkpt lat="53.337417" lon="06.618414"><ele>4.3</ele><time>2021-05-20T14:13:25Z</time><name>PT11372</name></trkpt>
<trkpt lat="53.337420" lon="06.618430"><ele>4.2</ele><time>2021-05-20T14:13:26Z</time><name>PT11373</name></trkpt>
<trkpt lat="53.337422" lon="06.618444"><ele>4.5</ele><time>2021-05-20T14:13:27Z</time><name>PT11374</name></trkpt>
<trkpt lat="53.337424" lon="06.618458"><ele>4.5</ele><time>2021-05-20T14:13:28Z</time><name>PT11375</name></trkpt>
<trkpt lat="53.337426" lon="06.618472"><ele>4.6</ele><time>2021-05-20T14:13:29Z</time><name>PT11376</name></trkpt>
<trkpt lat="53.337427" lon="06.618488"><ele>4.6</ele><time>2021-05-20T14:13:30Z</time><name>PT11377</name></trkpt>
<trkpt lat="53.337429" lon="06.618505"><ele>4.6</ele><time>2021-05-20T14:13:31Z</time><name>PT11378</name></trkpt>
<trkpt lat="53.337431" lon="06.618516"><ele>4.5</ele><time>2021-05-20T14:13:32Z</time><name>PT11379</name></trkpt>
<trkpt lat="53.337431" lon="06.618520"><ele>4.5</ele><time>2021-05-20T14:13:33Z</time><name>PT11380</name></trkpt>
<trkpt lat="53.337431" lon="06.618522"><ele>4.5</ele><time>2021-05-20T14:13:34Z</time><name>PT11381</name></trkpt>
<trkpt lat="53.337430" lon="06.618524"><ele>4.6</ele><time>2021-05-20T14:13:35Z</time><name>PT11382</name></trkpt>
<trkpt lat="53.337432" lon="06.618533"><ele>4.7</ele><time>2021-05-20T14:13:45Z</time><name>PT11383</name></trkpt>
<trkpt lat="53.337437" lon="06.618550"><ele>4.6</ele><time>2021-05-20T14:13:46Z</time><name>PT11384</name></trkpt>
<trkpt lat="53.337441" lon="06.618568"><ele>4.6</ele><time>2021-05-20T14:13:47Z</time><name>PT11385</name></trkpt>
<trkpt lat="53.337445" lon="06.618586"><ele>4.5</ele><time>2021-05-20T14:13:48Z</time><name>PT11386</name></trkpt>
<trkpt lat="53.337449" lon="06.618605"><ele>4.5</ele><time>2021-05-20T14:13:49Z</time><name>PT11387</name></trkpt>
<trkpt lat="53.337452" lon="06.618624"><ele>4.5</ele><time>2021-05-20T14:13:50Z</time><name>PT11388</name></trkpt>
<trkpt lat="53.337454" lon="06.618643"><ele>4.3</ele><time>2021-05-20T14:13:51Z</time><name>PT11389</name></trkpt>
<trkpt lat="53.337456" lon="06.618660"><ele>4.3</ele><time>2021-05-20T14:13:52Z</time><name>PT11390</name></trkpt>
<trkpt lat="53.337458" lon="06.618677"><ele>4.2</ele><time>2021-05-20T14:13:53Z</time><name>PT11391</name></trkpt>
<trkpt lat="53.337461" lon="06.618694"><ele>4.3</ele><time>2021-05-20T14:13:54Z</time><name>PT11392</name></trkpt>
<trkpt lat="53.337465" lon="06.618712"><ele>4.4</ele><time>2021-05-20T14:13:55Z</time><name>PT11393</name></trkpt>
<trkpt lat="53.337469" lon="06.618730"><ele>4.3</ele><time>2021-05-20T14:13:56Z</time><name>PT11394</name></trkpt>
<trkpt lat="53.337474" lon="06.618747"><ele>4.4</ele><time>2021-05-20T14:13:57Z</time><name>PT11395</name></trkpt>
<trkpt lat="53.337477" lon="06.618764"><ele>4.5</ele><time>2021-05-20T14:13:58Z</time><name>PT11396</name></trkpt>
<trkpt lat="53.337479" lon="06.618783"><ele>4.5</ele><time>2021-05-20T14:13:59Z</time><name>PT11397</name></trkpt>
<trkpt lat="53.337480" lon="06.618803"><ele>4.5</ele><time>2021-05-20T14:14:00Z</time><name>PT11398</name></trkpt>
<trkpt lat="53.337482" lon="06.618822"><ele>4.5</ele><time>2021-05-20T14:14:01Z</time><name>PT11399</name></trkpt>
<trkpt lat="53.337484" lon="06.618842"><ele>4.5</ele><time>2021-05-20T14:14:02Z</time><name>PT11400</name></trkpt>
<trkpt lat="53.337485" lon="06.618863"><ele>4.5</ele><time>2021-05-20T14:14:03Z</time><name>PT11401</name></trkpt>
<trkpt lat="53.337487" lon="06.618883"><ele>4.6</ele><time>2021-05-20T14:14:04Z</time><name>PT11402</name></trkpt>
<trkpt lat="53.337490" lon="06.618902"><ele>4.6</ele><time>2021-05-20T14:14:05Z</time><name>PT11403</name></trkpt>
<trkpt lat="53.337493" lon="06.618923"><ele>4.7</ele><time>2021-05-20T14:14:06Z</time><name>PT11404</name></trkpt>
<trkpt lat="53.337496" lon="06.618941"><ele>4.8</ele><time>2021-05-20T14:14:07Z</time><name>PT11405</name></trkpt>
<trkpt lat="53.337498" lon="06.618956"><ele>4.7</ele><time>2021-05-20T14:14:08Z</time><name>PT11406</name></trkpt>
<trkpt lat="53.337500" lon="06.618971"><ele>4.7</ele><time>2021-05-20T14:14:09Z</time><name>PT11407</name></trkpt>
<trkpt lat="53.337501" lon="06.618988"><ele>4.5</ele><time>2021-05-20T14:14:10Z</time><name>PT11408</name></trkpt>
<trkpt lat="53.337502" lon="06.619007"><ele>4.4</ele><time>2021-05-20T14:14:11Z</time><name>PT11409</name></trkpt>
<trkpt lat="53.337502" lon="06.619026"><ele>4.2</ele><time>2021-05-20T14:14:12Z</time><name>PT11410</name></trkpt>
<trkpt lat="53.337503" lon="06.619044"><ele>4.2</ele><time>2021-05-20T14:14:13Z</time><name>PT11411</name></trkpt>
<trkpt lat="53.337504" lon="06.619061"><ele>4.2</ele><time>2021-05-20T14:14:14Z</time><name>PT11412</name></trkpt>
<trkpt lat="53.337507" lon="06.619075"><ele>4.3</ele><time>2021-05-20T14:14:15Z</time><name>PT11413</name></trkpt>
<trkpt lat="53.337510" lon="06.619085"><ele>4.5</ele><time>2021-05-20T14:14:16Z</time><name>PT11414</name></trkpt>
<trkpt lat="53.337512" lon="06.619097"><ele>4.5</ele><time>2021-05-20T14:14:17Z</time><name>PT11415</name></trkpt>
<trkpt lat="53.337513" lon="06.619108"><ele>4.4</ele><time>2021-05-20T14:14:18Z</time><name>PT11416</name></trkpt>
<trkpt lat="53.337514" lon="06.619117"><ele>4.3</ele><time>2021-05-20T14:14:19Z</time><name>PT11417</name></trkpt>
<trkpt lat="53.337514" lon="06.619127"><ele>4.2</ele><time>2021-05-20T14:14:20Z</time><name>PT11418</name></trkpt>
<trkpt lat="53.337515" lon="06.619133"><ele>4.3</ele><time>2021-05-20T14:14:21Z</time><name>PT11419</name></trkpt>
<trkpt lat="53.337516" lon="06.619134"><ele>4.4</ele><time>2021-05-20T14:14:22Z</time><name>PT11420</name></trkpt>
<trkpt lat="53.337516" lon="06.619134"><ele>4.5</ele><time>2021-05-20T14:14:23Z</time><name>PT11421</name></trkpt>
<trkpt lat="53.337516" lon="06.619141"><ele>4.4</ele><time>2021-05-20T14:14:24Z</time><name>PT11422</name></trkpt>
<trkpt lat="53.337515" lon="06.619153"><ele>4.4</ele><time>2021-05-20T14:14:25Z</time><name>PT11423</name></trkpt>
<trkpt lat="53.337517" lon="06.619166"><ele>4</ele><time>2021-05-20T14:14:26Z</time><name>PT11424</name></trkpt>
<trkpt lat="53.337520" lon="06.619180"><ele>4</ele><time>2021-05-20T14:14:27Z</time><name>PT11425</name></trkpt>
<trkpt lat="53.337523" lon="06.619196"><ele>4</ele><time>2021-05-20T14:14:28Z</time><name>PT11426</name></trkpt>
<trkpt lat="53.337524" lon="06.619213"><ele>4</ele><time>2021-05-20T14:14:29Z</time><name>PT11427</name></trkpt>
<trkpt lat="53.337525" lon="06.619229"><ele>4.1</ele><time>2021-05-20T14:14:30Z</time><name>PT11428</name></trkpt>
<trkpt lat="53.337527" lon="06.619244"><ele>4.3</ele><time>2021-05-20T14:14:31Z</time><name>PT11429</name></trkpt>
<trkpt lat="53.337529" lon="06.619262"><ele>4.3</ele><time>2021-05-20T14:14:32Z</time><name>PT11430</name></trkpt>
<trkpt lat="53.337530" lon="06.619282"><ele>4.3</ele><time>2021-05-20T14:14:33Z</time><name>PT11431</name></trkpt>
<trkpt lat="53.337532" lon="06.619301"><ele>4.1</ele><time>2021-05-20T14:14:34Z</time><name>PT11432</name></trkpt>
<trkpt lat="53.337534" lon="06.619317"><ele>4.2</ele><time>2021-05-20T14:14:35Z</time><name>PT11433</name></trkpt>
<trkpt lat="53.337535" lon="06.619333"><ele>4.2</ele><time>2021-05-20T14:14:36Z</time><name>PT11434</name></trkpt>
<trkpt lat="53.337536" lon="06.619349"><ele>4.2</ele><time>2021-05-20T14:14:37Z</time><name>PT11435</name></trkpt>
<trkpt lat="53.337537" lon="06.619366"><ele>4.3</ele><time>2021-05-20T14:14:38Z</time><name>PT11436</name></trkpt>
<trkpt lat="53.337538" lon="06.619384"><ele>4.4</ele><time>2021-05-20T14:14:39Z</time><name>PT11437</name></trkpt>
<trkpt lat="53.337539" lon="06.619404"><ele>4.5</ele><time>2021-05-20T14:14:40Z</time><name>PT11438</name></trkpt>
<trkpt lat="53.337540" lon="06.619423"><ele>4.3</ele><time>2021-05-20T14:14:41Z</time><name>PT11439</name></trkpt>
<trkpt lat="53.337542" lon="06.619443"><ele>4.5</ele><time>2021-05-20T14:14:42Z</time><name>PT11440</name></trkpt>
<trkpt lat="53.337545" lon="06.619460"><ele>4.5</ele><time>2021-05-20T14:14:43Z</time><name>PT11441</name></trkpt>
<trkpt lat="53.337545" lon="06.619476"><ele>4.5</ele><time>2021-05-20T14:14:44Z</time><name>PT11442</name></trkpt>
<trkpt lat="53.337545" lon="06.619493"><ele>4.5</ele><time>2021-05-20T14:14:45Z</time><name>PT11443</name></trkpt>
<trkpt lat="53.337545" lon="06.619511"><ele>4.6</ele><time>2021-05-20T14:14:46Z</time><name>PT11444</name></trkpt>
<trkpt lat="53.337545" lon="06.619529"><ele>4.6</ele><time>2021-05-20T14:14:47Z</time><name>PT11445</name></trkpt>
<trkpt lat="53.337544" lon="06.619547"><ele>4.5</ele><time>2021-05-20T14:14:48Z</time><name>PT11446</name></trkpt>
<trkpt lat="53.337543" lon="06.619566"><ele>4.7</ele><time>2021-05-20T14:14:49Z</time><name>PT11447</name></trkpt>
<trkpt lat="53.337545" lon="06.619585"><ele>4.5</ele><time>2021-05-20T14:14:50Z</time><name>PT11448</name></trkpt>
<trkpt lat="53.337547" lon="06.619602"><ele>4.5</ele><time>2021-05-20T14:14:51Z</time><name>PT11449</name></trkpt>
<trkpt lat="53.337548" lon="06.619619"><ele>4.5</ele><time>2021-05-20T14:14:52Z</time><name>PT11450</name></trkpt>
<trkpt lat="53.337546" lon="06.619638"><ele>4.6</ele><time>2021-05-20T14:14:53Z</time><name>PT11451</name></trkpt>
<trkpt lat="53.337546" lon="06.619658"><ele>4.5</ele><time>2021-05-20T14:14:54Z</time><name>PT11452</name></trkpt>
<trkpt lat="53.337548" lon="06.619678"><ele>4.7</ele><time>2021-05-20T14:14:55Z</time><name>PT11453</name></trkpt>
<trkpt lat="53.337549" lon="06.619698"><ele>4.7</ele><time>2021-05-20T14:14:56Z</time><name>PT11454</name></trkpt>
<trkpt lat="53.337550" lon="06.619718"><ele>4.6</ele><time>2021-05-20T14:14:57Z</time><name>PT11455</name></trkpt>
<trkpt lat="53.337552" lon="06.619737"><ele>4.5</ele><time>2021-05-20T14:14:58Z</time><name>PT11456</name></trkpt>
<trkpt lat="53.337556" lon="06.619758"><ele>4.5</ele><time>2021-05-20T14:14:59Z</time><name>PT11457</name></trkpt>
<trkpt lat="53.337557" lon="06.619780"><ele>4.4</ele><time>2021-05-20T14:15:00Z</time><name>PT11458</name></trkpt>
<trkpt lat="53.337561" lon="06.619801"><ele>4.3</ele><time>2021-05-20T14:15:01Z</time><name>PT11459</name></trkpt>
<trkpt lat="53.337565" lon="06.619820"><ele>4.3</ele><time>2021-05-20T14:15:02Z</time><name>PT11460</name></trkpt>
<trkpt lat="53.337568" lon="06.619837"><ele>4.5</ele><time>2021-05-20T14:15:03Z</time><name>PT11461</name></trkpt>
<trkpt lat="53.337570" lon="06.619853"><ele>4.5</ele><time>2021-05-20T14:15:04Z</time><name>PT11462</name></trkpt>
<trkpt lat="53.337572" lon="06.619870"><ele>4.7</ele><time>2021-05-20T14:15:05Z</time><name>PT11463</name></trkpt>
<trkpt lat="53.337572" lon="06.619890"><ele>4.5</ele><time>2021-05-20T14:15:06Z</time><name>PT11464</name></trkpt>
<trkpt lat="53.337573" lon="06.619910"><ele>4.4</ele><time>2021-05-20T14:15:07Z</time><name>PT11465</name></trkpt>
<trkpt lat="53.337574" lon="06.619929"><ele>4.3</ele><time>2021-05-20T14:15:08Z</time><name>PT11466</name></trkpt>
<trkpt lat="53.337576" lon="06.619946"><ele>4.3</ele><time>2021-05-20T14:15:09Z</time><name>PT11467</name></trkpt>
<trkpt lat="53.337578" lon="06.619963"><ele>4.2</ele><time>2021-05-20T14:15:10Z</time><name>PT11468</name></trkpt>
<trkpt lat="53.337581" lon="06.619978"><ele>4.4</ele><time>2021-05-20T14:15:11Z</time><name>PT11469</name></trkpt>
<trkpt lat="53.337583" lon="06.619993"><ele>4.4</ele><time>2021-05-20T14:15:12Z</time><name>PT11470</name></trkpt>
<trkpt lat="53.337585" lon="06.620010"><ele>4.4</ele><time>2021-05-20T14:15:13Z</time><name>PT11471</name></trkpt>
<trkpt lat="53.337586" lon="06.620026"><ele>4.4</ele><time>2021-05-20T14:15:14Z</time><name>PT11472</name></trkpt>
<trkpt lat="53.337586" lon="06.620046"><ele>4.3</ele><time>2021-05-20T14:15:15Z</time><name>PT11473</name></trkpt>
<trkpt lat="53.337586" lon="06.620065"><ele>4.4</ele><time>2021-05-20T14:15:16Z</time><name>PT11474</name></trkpt>
<trkpt lat="53.337587" lon="06.620081"><ele>4.5</ele><time>2021-05-20T14:15:17Z</time><name>PT11475</name></trkpt>
<trkpt lat="53.337590" lon="06.620097"><ele>4.5</ele><time>2021-05-20T14:15:18Z</time><name>PT11476</name></trkpt>
<trkpt lat="53.337593" lon="06.620115"><ele>4.5</ele><time>2021-05-20T14:15:19Z</time><name>PT11477</name></trkpt>
<trkpt lat="53.337596" lon="06.620129"><ele>4.5</ele><time>2021-05-20T14:15:20Z</time><name>PT11478</name></trkpt>
<trkpt lat="53.337599" lon="06.620140"><ele>4.4</ele><time>2021-05-20T14:15:21Z</time><name>PT11479</name></trkpt>
<trkpt lat="53.337601" lon="06.620152"><ele>4.5</ele><time>2021-05-20T14:15:22Z</time><name>PT11480</name></trkpt>
<trkpt lat="53.337602" lon="06.620168"><ele>4.5</ele><time>2021-05-20T14:15:23Z</time><name>PT11481</name></trkpt>
<trkpt lat="53.337603" lon="06.620187"><ele>4.5</ele><time>2021-05-20T14:15:24Z</time><name>PT11482</name></trkpt>
<trkpt lat="53.337601" lon="06.620217"><ele>4.4</ele><time>2021-05-20T14:15:25Z</time><name>PT11483</name></trkpt>
<trkpt lat="53.337599" lon="06.620240"><ele>4.5</ele><time>2021-05-20T14:15:26Z</time><name>PT11484</name></trkpt>
<trkpt lat="53.337599" lon="06.620257"><ele>4.5</ele><time>2021-05-20T14:15:27Z</time><name>PT11485</name></trkpt>
<trkpt lat="53.337601" lon="06.620276"><ele>4.5</ele><time>2021-05-20T14:15:28Z</time><name>PT11486</name></trkpt>
<trkpt lat="53.337604" lon="06.620295"><ele>4.7</ele><time>2021-05-20T14:15:29Z</time><name>PT11487</name></trkpt>
<trkpt lat="53.337606" lon="06.620315"><ele>4.8</ele><time>2021-05-20T14:15:30Z</time><name>PT11488</name></trkpt>
<trkpt lat="53.337610" lon="06.620333"><ele>4.6</ele><time>2021-05-20T14:15:31Z</time><name>PT11489</name></trkpt>
<trkpt lat="53.337615" lon="06.620351"><ele>4.5</ele><time>2021-05-20T14:15:32Z</time><name>PT11490</name></trkpt>
<trkpt lat="53.337617" lon="06.620362"><ele>4.3</ele><time>2021-05-20T14:15:33Z</time><name>PT11491</name></trkpt>
<trkpt lat="53.337620" lon="06.620374"><ele>4.1</ele><time>2021-05-20T14:15:34Z</time><name>PT11492</name></trkpt>
<trkpt lat="53.337621" lon="06.620386"><ele>4.1</ele><time>2021-05-20T14:15:35Z</time><name>PT11493</name></trkpt>
<trkpt lat="53.337623" lon="06.620399"><ele>4</ele><time>2021-05-20T14:15:36Z</time><name>PT11494</name></trkpt>
<trkpt lat="53.337624" lon="06.620414"><ele>4</ele><time>2021-05-20T14:15:37Z</time><name>PT11495</name></trkpt>
<trkpt lat="53.337624" lon="06.620432"><ele>4</ele><time>2021-05-20T14:15:38Z</time><name>PT11496</name></trkpt>
<trkpt lat="53.337624" lon="06.620453"><ele>4</ele><time>2021-05-20T14:15:39Z</time><name>PT11497</name></trkpt>
<trkpt lat="53.337623" lon="06.620477"><ele>3.7</ele><time>2021-05-20T14:15:40Z</time><name>PT11498</name></trkpt>
<trkpt lat="53.337625" lon="06.620501"><ele>3.6</ele><time>2021-05-20T14:15:41Z</time><name>PT11499</name></trkpt>
<trkpt lat="53.337629" lon="06.620528"><ele>3.5</ele><time>2021-05-20T14:15:42Z</time><name>PT11500</name></trkpt>
<trkpt lat="53.337630" lon="06.620557"><ele>3.4</ele><time>2021-05-20T14:15:43Z</time><name>PT11501</name></trkpt>
<trkpt lat="53.337632" lon="06.620589"><ele>3.4</ele><time>2021-05-20T14:15:44Z</time><name>PT11502</name></trkpt>
<trkpt lat="53.337635" lon="06.620619"><ele>3.6</ele><time>2021-05-20T14:15:45Z</time><name>PT11503</name></trkpt>
<trkpt lat="53.337638" lon="06.620648"><ele>3.7</ele><time>2021-05-20T14:15:46Z</time><name>PT11504</name></trkpt>
<trkpt lat="53.337639" lon="06.620675"><ele>3.6</ele><time>2021-05-20T14:15:47Z</time><name>PT11505</name></trkpt>
<trkpt lat="53.337642" lon="06.620698"><ele>3.7</ele><time>2021-05-20T14:15:48Z</time><name>PT11506</name></trkpt>
<trkpt lat="53.337644" lon="06.620717"><ele>3.8</ele><time>2021-05-20T14:15:49Z</time><name>PT11507</name></trkpt>
<trkpt lat="53.337647" lon="06.620731"><ele>3.9</ele><time>2021-05-20T14:15:50Z</time><name>PT11508</name></trkpt>
<trkpt lat="53.337650" lon="06.620744"><ele>4.2</ele><time>2021-05-20T14:15:51Z</time><name>PT11509</name></trkpt>
<trkpt lat="53.337652" lon="06.620756"><ele>4.3</ele><time>2021-05-20T14:15:52Z</time><name>PT11510</name></trkpt>
<trkpt lat="53.337654" lon="06.620768"><ele>4.4</ele><time>2021-05-20T14:15:53Z</time><name>PT11511</name></trkpt>
<trkpt lat="53.337656" lon="06.620783"><ele>4.1</ele><time>2021-05-20T14:15:54Z</time><name>PT11512</name></trkpt>
<trkpt lat="53.337658" lon="06.620797"><ele>4</ele><time>2021-05-20T14:15:55Z</time><name>PT11513</name></trkpt>
<trkpt lat="53.337660" lon="06.620817"><ele>3.8</ele><time>2021-05-20T14:15:56Z</time><name>PT11514</name></trkpt>
<trkpt lat="53.337661" lon="06.620835"><ele>3.8</ele><time>2021-05-20T14:15:57Z</time><name>PT11515</name></trkpt>
<trkpt lat="53.337662" lon="06.620857"><ele>3.8</ele><time>2021-05-20T14:15:58Z</time><name>PT11516</name></trkpt>
<trkpt lat="53.337664" lon="06.620880"><ele>3.8</ele><time>2021-05-20T14:15:59Z</time><name>PT11517</name></trkpt>
<trkpt lat="53.337666" lon="06.620904"><ele>4</ele><time>2021-05-20T14:16:00Z</time><name>PT11518</name></trkpt>
<trkpt lat="53.337669" lon="06.620929"><ele>3.9</ele><time>2021-05-20T14:16:01Z</time><name>PT11519</name></trkpt>
<trkpt lat="53.337672" lon="06.620954"><ele>3.9</ele><time>2021-05-20T14:16:02Z</time><name>PT11520</name></trkpt>
<trkpt lat="53.337672" lon="06.620977"><ele>4</ele><time>2021-05-20T14:16:03Z</time><name>PT11521</name></trkpt>
<trkpt lat="53.337675" lon="06.620998"><ele>4</ele><time>2021-05-20T14:16:04Z</time><name>PT11522</name></trkpt>
<trkpt lat="53.337678" lon="06.621016"><ele>4.1</ele><time>2021-05-20T14:16:05Z</time><name>PT11523</name></trkpt>
<trkpt lat="53.337682" lon="06.621031"><ele>4.3</ele><time>2021-05-20T14:16:06Z</time><name>PT11524</name></trkpt>
<trkpt lat="53.337687" lon="06.621047"><ele>4.3</ele><time>2021-05-20T14:16:07Z</time><name>PT11525</name></trkpt>
<trkpt lat="53.337692" lon="06.621061"><ele>4.5</ele><time>2021-05-20T14:16:08Z</time><name>PT11526</name></trkpt>
<trkpt lat="53.337695" lon="06.621077"><ele>4.4</ele><time>2021-05-20T14:16:09Z</time><name>PT11527</name></trkpt>
<trkpt lat="53.337698" lon="06.621091"><ele>4.3</ele><time>2021-05-20T14:16:10Z</time><name>PT11528</name></trkpt>
<trkpt lat="53.337702" lon="06.621107"><ele>4.2</ele><time>2021-05-20T14:16:11Z</time><name>PT11529</name></trkpt>
<trkpt lat="53.337704" lon="06.621123"><ele>4.2</ele><time>2021-05-20T14:16:12Z</time><name>PT11530</name></trkpt>
<trkpt lat="53.337705" lon="06.621139"><ele>4.2</ele><time>2021-05-20T14:16:13Z</time><name>PT11531</name></trkpt>
<trkpt lat="53.337707" lon="06.621159"><ele>4.1</ele><time>2021-05-20T14:16:14Z</time><name>PT11532</name></trkpt>
<trkpt lat="53.337709" lon="06.621180"><ele>4.2</ele><time>2021-05-20T14:16:15Z</time><name>PT11533</name></trkpt>
<trkpt lat="53.337713" lon="06.621200"><ele>4.1</ele><time>2021-05-20T14:16:16Z</time><name>PT11534</name></trkpt>
<trkpt lat="53.337716" lon="06.621222"><ele>4</ele><time>2021-05-20T14:16:17Z</time><name>PT11535</name></trkpt>
<trkpt lat="53.337721" lon="06.621242"><ele>3.9</ele><time>2021-05-20T14:16:18Z</time><name>PT11536</name></trkpt>
<trkpt lat="53.337722" lon="06.621261"><ele>3.8</ele><time>2021-05-20T14:16:19Z</time><name>PT11537</name></trkpt>
<trkpt lat="53.337726" lon="06.621274"><ele>3.8</ele><time>2021-05-20T14:16:20Z</time><name>PT11538</name></trkpt>
<trkpt lat="53.337730" lon="06.621288"><ele>4</ele><time>2021-05-20T14:16:21Z</time><name>PT11539</name></trkpt>
<trkpt lat="53.337733" lon="06.621305"><ele>4</ele><time>2021-05-20T14:16:22Z</time><name>PT11540</name></trkpt>
<trkpt lat="53.337734" lon="06.621320"><ele>4.2</ele><time>2021-05-20T14:16:23Z</time><name>PT11541</name></trkpt>
<trkpt lat="53.337735" lon="06.621338"><ele>4.2</ele><time>2021-05-20T14:16:24Z</time><name>PT11542</name></trkpt>
<trkpt lat="53.337736" lon="06.621358"><ele>4.3</ele><time>2021-05-20T14:16:25Z</time><name>PT11543</name></trkpt>
<trkpt lat="53.337738" lon="06.621381"><ele>4.4</ele><time>2021-05-20T14:16:26Z</time><name>PT11544</name></trkpt>
<trkpt lat="53.337741" lon="06.621407"><ele>4.2</ele><time>2021-05-20T14:16:27Z</time><name>PT11545</name></trkpt>
<trkpt lat="53.337745" lon="06.621433"><ele>4.3</ele><time>2021-05-20T14:16:28Z</time><name>PT11546</name></trkpt>
<trkpt lat="53.337749" lon="06.621458"><ele>4.4</ele><time>2021-05-20T14:16:29Z</time><name>PT11547</name></trkpt>
<trkpt lat="53.337753" lon="06.621478"><ele>4.7</ele><time>2021-05-20T14:16:30Z</time><name>PT11548</name></trkpt>
<trkpt lat="53.337758" lon="06.621494"><ele>4.8</ele><time>2021-05-20T14:16:31Z</time><name>PT11549</name></trkpt>
<trkpt lat="53.337762" lon="06.621511"><ele>4.9</ele><time>2021-05-20T14:16:32Z</time><name>PT11550</name></trkpt>
<trkpt lat="53.337766" lon="06.621527"><ele>4.8</ele><time>2021-05-20T14:16:33Z</time><name>PT11551</name></trkpt>
<trkpt lat="53.337769" lon="06.621544"><ele>4.7</ele><time>2021-05-20T14:16:34Z</time><name>PT11552</name></trkpt>
<trkpt lat="53.337769" lon="06.621564"><ele>4.5</ele><time>2021-05-20T14:16:35Z</time><name>PT11553</name></trkpt>
<trkpt lat="53.337771" lon="06.621585"><ele>4.3</ele><time>2021-05-20T14:16:36Z</time><name>PT11554</name></trkpt>
<trkpt lat="53.337774" lon="06.621607"><ele>4</ele><time>2021-05-20T14:16:37Z</time><name>PT11555</name></trkpt>
<trkpt lat="53.337779" lon="06.621630"><ele>3.8</ele><time>2021-05-20T14:16:38Z</time><name>PT11556</name></trkpt>
<trkpt lat="53.337784" lon="06.621653"><ele>3.3</ele><time>2021-05-20T14:16:39Z</time><name>PT11557</name></trkpt>
<trkpt lat="53.337789" lon="06.621671"><ele>3.4</ele><time>2021-05-20T14:16:40Z</time><name>PT11558</name></trkpt>
<trkpt lat="53.337793" lon="06.621687"><ele>3.4</ele><time>2021-05-20T14:16:41Z</time><name>PT11559</name></trkpt>
<trkpt lat="53.337796" lon="06.621701"><ele>3.6</ele><time>2021-05-20T14:16:42Z</time><name>PT11560</name></trkpt>
<trkpt lat="53.337800" lon="06.621717"><ele>3.7</ele><time>2021-05-20T14:16:43Z</time><name>PT11561</name></trkpt>
<trkpt lat="53.337804" lon="06.621733"><ele>3.6</ele><time>2021-05-20T14:16:44Z</time><name>PT11562</name></trkpt>
<trkpt lat="53.337806" lon="06.621746"><ele>3.6</ele><time>2021-05-20T14:16:45Z</time><name>PT11563</name></trkpt>
<trkpt lat="53.337807" lon="06.621760"><ele>3.5</ele><time>2021-05-20T14:16:46Z</time><name>PT11564</name></trkpt>
<trkpt lat="53.337809" lon="06.621779"><ele>3.5</ele><time>2021-05-20T14:16:47Z</time><name>PT11565</name></trkpt>
<trkpt lat="53.337812" lon="06.621800"><ele>3.5</ele><time>2021-05-20T14:16:48Z</time><name>PT11566</name></trkpt>
<trkpt lat="53.337816" lon="06.621822"><ele>3.5</ele><time>2021-05-20T14:16:49Z</time><name>PT11567</name></trkpt>
<trkpt lat="53.337819" lon="06.621845"><ele>3.6</ele><time>2021-05-20T14:16:50Z</time><name>PT11568</name></trkpt>
<trkpt lat="53.337822" lon="06.621864"><ele>3.6</ele><time>2021-05-20T14:16:51Z</time><name>PT11569</name></trkpt>
<trkpt lat="53.337824" lon="06.621880"><ele>3.6</ele><time>2021-05-20T14:16:52Z</time><name>PT11570</name></trkpt>
<trkpt lat="53.337826" lon="06.621894"><ele>3.7</ele><time>2021-05-20T14:16:53Z</time><name>PT11571</name></trkpt>
<trkpt lat="53.337830" lon="06.621906"><ele>3.9</ele><time>2021-05-20T14:16:54Z</time><name>PT11572</name></trkpt>
<trkpt lat="53.337832" lon="06.621920"><ele>4</ele><time>2021-05-20T14:16:55Z</time><name>PT11573</name></trkpt>
<trkpt lat="53.337836" lon="06.621936"><ele>4</ele><time>2021-05-20T14:16:56Z</time><name>PT11574</name></trkpt>
<trkpt lat="53.337838" lon="06.621951"><ele>4</ele><time>2021-05-20T14:16:57Z</time><name>PT11575</name></trkpt>
<trkpt lat="53.337838" lon="06.621972"><ele>4.2</ele><time>2021-05-20T14:16:58Z</time><name>PT11576</name></trkpt>
<trkpt lat="53.337838" lon="06.621993"><ele>4.3</ele><time>2021-05-20T14:16:59Z</time><name>PT11577</name></trkpt>
<trkpt lat="53.337841" lon="06.622012"><ele>4.5</ele><time>2021-05-20T14:17:00Z</time><name>PT11578</name></trkpt>
<trkpt lat="53.337844" lon="06.622036"><ele>4.7</ele><time>2021-05-20T14:17:01Z</time><name>PT11579</name></trkpt>
<trkpt lat="53.337845" lon="06.622065"><ele>4.7</ele><time>2021-05-20T14:17:02Z</time><name>PT11580</name></trkpt>
<trkpt lat="53.337848" lon="06.622091"><ele>4.5</ele><time>2021-05-20T14:17:03Z</time><name>PT11581</name></trkpt>
<trkpt lat="53.337852" lon="06.622111"><ele>4.5</ele><time>2021-05-20T14:17:04Z</time><name>PT11582</name></trkpt>
<trkpt lat="53.337855" lon="06.622127"><ele>4.5</ele><time>2021-05-20T14:17:05Z</time><name>PT11583</name></trkpt>
<trkpt lat="53.337859" lon="06.622141"><ele>4.5</ele><time>2021-05-20T14:17:06Z</time><name>PT11584</name></trkpt>
<trkpt lat="53.337863" lon="06.622157"><ele>4.5</ele><time>2021-05-20T14:17:07Z</time><name>PT11585</name></trkpt>
<trkpt lat="53.337866" lon="06.622175"><ele>4.5</ele><time>2021-05-20T14:17:08Z</time><name>PT11586</name></trkpt>
<trkpt lat="53.337867" lon="06.622195"><ele>4.3</ele><time>2021-05-20T14:17:09Z</time><name>PT11587</name></trkpt>
<trkpt lat="53.337866" lon="06.622217"><ele>4</ele><time>2021-05-20T14:17:10Z</time><name>PT11588</name></trkpt>
<trkpt lat="53.337867" lon="06.622238"><ele>4.1</ele><time>2021-05-20T14:17:11Z</time><name>PT11589</name></trkpt>
<trkpt lat="53.337869" lon="06.622261"><ele>4</ele><time>2021-05-20T14:17:12Z</time><name>PT11590</name></trkpt>
<trkpt lat="53.337874" lon="06.622285"><ele>4.1</ele><time>2021-05-20T14:17:13Z</time><name>PT11591</name></trkpt>
<trkpt lat="53.337881" lon="06.622305"><ele>3.9</ele><time>2021-05-20T14:17:14Z</time><name>PT11592</name></trkpt>
<trkpt lat="53.337886" lon="06.622327"><ele>4</ele><time>2021-05-20T14:17:15Z</time><name>PT11593</name></trkpt>
<trkpt lat="53.337889" lon="06.622346"><ele>4.1</ele><time>2021-05-20T14:17:16Z</time><name>PT11594</name></trkpt>
<trkpt lat="53.337893" lon="06.622361"><ele>4</ele><time>2021-05-20T14:17:17Z</time><name>PT11595</name></trkpt>
<trkpt lat="53.337898" lon="06.622375"><ele>4.1</ele><time>2021-05-20T14:17:18Z</time><name>PT11596</name></trkpt>
<trkpt lat="53.337901" lon="06.622389"><ele>4</ele><time>2021-05-20T14:17:19Z</time><name>PT11597</name></trkpt>
<trkpt lat="53.337903" lon="06.622405"><ele>4.1</ele><time>2021-05-20T14:17:20Z</time><name>PT11598</name></trkpt>
<trkpt lat="53.337906" lon="06.622422"><ele>4</ele><time>2021-05-20T14:17:21Z</time><name>PT11599</name></trkpt>
<trkpt lat="53.337908" lon="06.622441"><ele>4.1</ele><time>2021-05-20T14:17:22Z</time><name>PT11600</name></trkpt>
<trkpt lat="53.337910" lon="06.622462"><ele>4</ele><time>2021-05-20T14:17:23Z</time><name>PT11601</name></trkpt>
<trkpt lat="53.337914" lon="06.622486"><ele>4</ele><time>2021-05-20T14:17:24Z</time><name>PT11602</name></trkpt>
<trkpt lat="53.337916" lon="06.622509"><ele>4</ele><time>2021-05-20T14:17:25Z</time><name>PT11603</name></trkpt>
<trkpt lat="53.337920" lon="06.622527"><ele>3.9</ele><time>2021-05-20T14:17:26Z</time><name>PT11604</name></trkpt>
<trkpt lat="53.337925" lon="06.622542"><ele>3.8</ele><time>2021-05-20T14:17:27Z</time><name>PT11605</name></trkpt>
<trkpt lat="53.337928" lon="06.622556"><ele>4</ele><time>2021-05-20T14:17:28Z</time><name>PT11606</name></trkpt>
<trkpt lat="53.337932" lon="06.622569"><ele>4</ele><time>2021-05-20T14:17:29Z</time><name>PT11607</name></trkpt>
<trkpt lat="53.337934" lon="06.622586"><ele>4</ele><time>2021-05-20T14:17:30Z</time><name>PT11608</name></trkpt>
<trkpt lat="53.337934" lon="06.622605"><ele>4.3</ele><time>2021-05-20T14:17:31Z</time><name>PT11609</name></trkpt>
<trkpt lat="53.337937" lon="06.622623"><ele>4.4</ele><time>2021-05-20T14:17:32Z</time><name>PT11610</name></trkpt>
<trkpt lat="53.337940" lon="06.622642"><ele>4.5</ele><time>2021-05-20T14:17:33Z</time><name>PT11611</name></trkpt>
<trkpt lat="53.337943" lon="06.622663"><ele>4.3</ele><time>2021-05-20T14:17:34Z</time><name>PT11612</name></trkpt>
<trkpt lat="53.337945" lon="06.622682"><ele>4.1</ele><time>2021-05-20T14:17:35Z</time><name>PT11613</name></trkpt>
<trkpt lat="53.337947" lon="06.622698"><ele>4.2</ele><time>2021-05-20T14:17:36Z</time><name>PT11614</name></trkpt>
<trkpt lat="53.337951" lon="06.622712"><ele>4.1</ele><time>2021-05-20T14:17:37Z</time><name>PT11615</name></trkpt>
<trkpt lat="53.337954" lon="06.622726"><ele>4.1</ele><time>2021-05-20T14:17:38Z</time><name>PT11616</name></trkpt>
<trkpt lat="53.337956" lon="06.622740"><ele>4.3</ele><time>2021-05-20T14:17:39Z</time><name>PT11617</name></trkpt>
<trkpt lat="53.337959" lon="06.622757"><ele>4.5</ele><time>2021-05-20T14:17:40Z</time><name>PT11618</name></trkpt>
<trkpt lat="53.337962" lon="06.622778"><ele>4.5</ele><time>2021-05-20T14:17:41Z</time><name>PT11619</name></trkpt>
<trkpt lat="53.337965" lon="06.622799"><ele>4.5</ele><time>2021-05-20T14:17:42Z</time><name>PT11620</name></trkpt>
<trkpt lat="53.337969" lon="06.622815"><ele>4.5</ele><time>2021-05-20T14:17:43Z</time><name>PT11621</name></trkpt>
<trkpt lat="53.337971" lon="06.622827"><ele>4.4</ele><time>2021-05-20T14:17:44Z</time><name>PT11622</name></trkpt>
<trkpt lat="53.337973" lon="06.622840"><ele>4.4</ele><time>2021-05-20T14:17:45Z</time><name>PT11623</name></trkpt>
<trkpt lat="53.337975" lon="06.622854"><ele>4.5</ele><time>2021-05-20T14:17:46Z</time><name>PT11624</name></trkpt>
<trkpt lat="53.337979" lon="06.622871"><ele>4.5</ele><time>2021-05-20T14:17:47Z</time><name>PT11625</name></trkpt>
<trkpt lat="53.337983" lon="06.622891"><ele>4.7</ele><time>2021-05-20T14:17:48Z</time><name>PT11626</name></trkpt>
<trkpt lat="53.337987" lon="06.622909"><ele>4.8</ele><time>2021-05-20T14:17:49Z</time><name>PT11627</name></trkpt>
<trkpt lat="53.337989" lon="06.622922"><ele>4.7</ele><time>2021-05-20T14:17:50Z</time><name>PT11628</name></trkpt>
<trkpt lat="53.337993" lon="06.622931"><ele>4.6</ele><time>2021-05-20T14:17:51Z</time><name>PT11629</name></trkpt>
<trkpt lat="53.337994" lon="06.622944"><ele>4.5</ele><time>2021-05-20T14:17:52Z</time><name>PT11630</name></trkpt>
<trkpt lat="53.337994" lon="06.622959"><ele>4.5</ele><time>2021-05-20T14:17:53Z</time><name>PT11631</name></trkpt>
<trkpt lat="53.337995" lon="06.622976"><ele>4.7</ele><time>2021-05-20T14:17:54Z</time><name>PT11632</name></trkpt>
<trkpt lat="53.337996" lon="06.622993"><ele>4.7</ele><time>2021-05-20T14:17:55Z</time><name>PT11633</name></trkpt>
<trkpt lat="53.337999" lon="06.623005"><ele>4.9</ele><time>2021-05-20T14:17:56Z</time><name>PT11634</name></trkpt>
<trkpt lat="53.338003" lon="06.623017"><ele>4.9</ele><time>2021-05-20T14:17:57Z</time><name>PT11635</name></trkpt>
<trkpt lat="53.338005" lon="06.623033"><ele>4.8</ele><time>2021-05-20T14:17:58Z</time><name>PT11636</name></trkpt>
<trkpt lat="53.338005" lon="06.623049"><ele>4.7</ele><time>2021-05-20T14:17:59Z</time><name>PT11637</name></trkpt>
<trkpt lat="53.338006" lon="06.623069"><ele>4.6</ele><time>2021-05-20T14:18:00Z</time><name>PT11638</name></trkpt>
<trkpt lat="53.338008" lon="06.623093"><ele>4.6</ele><time>2021-05-20T14:18:01Z</time><name>PT11639</name></trkpt>
<trkpt lat="53.338011" lon="06.623117"><ele>4.3</ele><time>2021-05-20T14:18:02Z</time><name>PT11640</name></trkpt>
<trkpt lat="53.338013" lon="06.623135"><ele>4.3</ele><time>2021-05-20T14:18:03Z</time><name>PT11641</name></trkpt>
<trkpt lat="53.338014" lon="06.623147"><ele>4.4</ele><time>2021-05-20T14:18:04Z</time><name>PT11642</name></trkpt>
<trkpt lat="53.338017" lon="06.623160"><ele>4.3</ele><time>2021-05-20T14:18:05Z</time><name>PT11643</name></trkpt>
<trkpt lat="53.338018" lon="06.623176"><ele>4.5</ele><time>2021-05-20T14:18:06Z</time><name>PT11644</name></trkpt>
<trkpt lat="53.338018" lon="06.623198"><ele>4.5</ele><time>2021-05-20T14:18:07Z</time><name>PT11645</name></trkpt>
<trkpt lat="53.338027" lon="06.623221"><ele>4.5</ele><time>2021-05-20T14:18:08Z</time><name>PT11646</name></trkpt>
<trkpt lat="53.338033" lon="06.623239"><ele>4.5</ele><time>2021-05-20T14:18:09Z</time><name>PT11647</name></trkpt>
<trkpt lat="53.338037" lon="06.623252"><ele>4.4</ele><time>2021-05-20T14:18:10Z</time><name>PT11648</name></trkpt>
<trkpt lat="53.338041" lon="06.623262"><ele>4.3</ele><time>2021-05-20T14:18:11Z</time><name>PT11649</name></trkpt>
<trkpt lat="53.338043" lon="06.623274"><ele>4.3</ele><time>2021-05-20T14:18:12Z</time><name>PT11650</name></trkpt>
<trkpt lat="53.338044" lon="06.623293"><ele>4.3</ele><time>2021-05-20T14:18:13Z</time><name>PT11651</name></trkpt>
<trkpt lat="53.338047" lon="06.623310"><ele>4.4</ele><time>2021-05-20T14:18:14Z</time><name>PT11652</name></trkpt>
<trkpt lat="53.338053" lon="06.623317"><ele>4.2</ele><time>2021-05-20T14:18:15Z</time><name>PT11653</name></trkpt>
<trkpt lat="53.338054" lon="06.623322"><ele>4.4</ele><time>2021-05-20T14:18:16Z</time><name>PT11654</name></trkpt>
<trkpt lat="53.338055" lon="06.623329"><ele>4.4</ele><time>2021-05-20T14:18:17Z</time><name>PT11655</name></trkpt>
<trkpt lat="53.338056" lon="06.623334"><ele>4.3</ele><time>2021-05-20T14:18:18Z</time><name>PT11656</name></trkpt>
<trkpt lat="53.338057" lon="06.623337"><ele>4.4</ele><time>2021-05-20T14:18:19Z</time><name>PT11657</name></trkpt>
<trkpt lat="53.338057" lon="06.623347"><ele>4.3</ele><time>2021-05-20T14:18:20Z</time><name>PT11658</name></trkpt>
<trkpt lat="53.338058" lon="06.623358"><ele>4.2</ele><time>2021-05-20T14:18:21Z</time><name>PT11659</name></trkpt>
<trkpt lat="53.338061" lon="06.623368"><ele>4.3</ele><time>2021-05-20T14:18:22Z</time><name>PT11660</name></trkpt>
<trkpt lat="53.338062" lon="06.623380"><ele>4.4</ele><time>2021-05-20T14:18:23Z</time><name>PT11661</name></trkpt>
<trkpt lat="53.338061" lon="06.623397"><ele>4.4</ele><time>2021-05-20T14:18:24Z</time><name>PT11662</name></trkpt>
<trkpt lat="53.338064" lon="06.623421"><ele>4.4</ele><time>2021-05-20T14:18:25Z</time><name>PT11663</name></trkpt>
<trkpt lat="53.338065" lon="06.623443"><ele>4.2</ele><time>2021-05-20T14:18:26Z</time><name>PT11664</name></trkpt>
<trkpt lat="53.338070" lon="06.623460"><ele>4.1</ele><time>2021-05-20T14:18:27Z</time><name>PT11665</name></trkpt>
<trkpt lat="53.338073" lon="06.623472"><ele>4.3</ele><time>2021-05-20T14:18:28Z</time><name>PT11666</name></trkpt>
<trkpt lat="53.338077" lon="06.623485"><ele>4.3</ele><time>2021-05-20T14:18:29Z</time><name>PT11667</name></trkpt>
<trkpt lat="53.338080" lon="06.623499"><ele>4.2</ele><time>2021-05-20T14:18:30Z</time><name>PT11668</name></trkpt>
<trkpt lat="53.338080" lon="06.623513"><ele>4.3</ele><time>2021-05-20T14:18:31Z</time><name>PT11669</name></trkpt>
<trkpt lat="53.338080" lon="06.623534"><ele>4.4</ele><time>2021-05-20T14:18:32Z</time><name>PT11670</name></trkpt>
<trkpt lat="53.338084" lon="06.623558"><ele>4.3</ele><time>2021-05-20T14:18:33Z</time><name>PT11671</name></trkpt>
<trkpt lat="53.338087" lon="06.623585"><ele>4.3</ele><time>2021-05-20T14:18:34Z</time><name>PT11672</name></trkpt>
<trkpt lat="53.338088" lon="06.623612"><ele>4.3</ele><time>2021-05-20T14:18:35Z</time><name>PT11673</name></trkpt>
<trkpt lat="53.338089" lon="06.623632"><ele>4.3</ele><time>2021-05-20T14:18:36Z</time><name>PT11674</name></trkpt>
<trkpt lat="53.338090" lon="06.623645"><ele>4.4</ele><time>2021-05-20T14:18:37Z</time><name>PT11675</name></trkpt>
<trkpt lat="53.338093" lon="06.623657"><ele>4.3</ele><time>2021-05-20T14:18:38Z</time><name>PT11676</name></trkpt>
<trkpt lat="53.338096" lon="06.623670"><ele>4.4</ele><time>2021-05-20T14:18:39Z</time><name>PT11677</name></trkpt>
<trkpt lat="53.338097" lon="06.623685"><ele>4.4</ele><time>2021-05-20T14:18:40Z</time><name>PT11678</name></trkpt>
<trkpt lat="53.338097" lon="06.623708"><ele>4.4</ele><time>2021-05-20T14:18:41Z</time><name>PT11679</name></trkpt>
<trkpt lat="53.338099" lon="06.623726"><ele>4.5</ele><time>2021-05-20T14:18:42Z</time><name>PT11680</name></trkpt>
<trkpt lat="53.338103" lon="06.623741"><ele>4.4</ele><time>2021-05-20T14:18:43Z</time><name>PT11681</name></trkpt>
<trkpt lat="53.338108" lon="06.623757"><ele>4.5</ele><time>2021-05-20T14:18:44Z</time><name>PT11682</name></trkpt>
<trkpt lat="53.338108" lon="06.623782"><ele>4.5</ele><time>2021-05-20T14:18:45Z</time><name>PT11683</name></trkpt>
<trkpt lat="53.338109" lon="06.623803"><ele>4.5</ele><time>2021-05-20T14:18:46Z</time><name>PT11684</name></trkpt>
<trkpt lat="53.338111" lon="06.623822"><ele>4.5</ele><time>2021-05-20T14:18:47Z</time><name>PT11685</name></trkpt>
<trkpt lat="53.338113" lon="06.623839"><ele>4.6</ele><time>2021-05-20T14:18:48Z</time><name>PT11686</name></trkpt>
<trkpt lat="53.338114" lon="06.623854"><ele>4.5</ele><time>2021-05-20T14:18:49Z</time><name>PT11687</name></trkpt>
<trkpt lat="53.338116" lon="06.623870"><ele>4.6</ele><time>2021-05-20T14:18:50Z</time><name>PT11688</name></trkpt>
<trkpt lat="53.338117" lon="06.623887"><ele>4.7</ele><time>2021-05-20T14:18:51Z</time><name>PT11689</name></trkpt>
<trkpt lat="53.338118" lon="06.623906"><ele>4.6</ele><time>2021-05-20T14:18:52Z</time><name>PT11690</name></trkpt>
<trkpt lat="53.338119" lon="06.623923"><ele>4.7</ele><time>2021-05-20T14:18:53Z</time><name>PT11691</name></trkpt>
<trkpt lat="53.338120" lon="06.623939"><ele>4.7</ele><time>2021-05-20T14:18:54Z</time><name>PT11692</name></trkpt>
<trkpt lat="53.338123" lon="06.623955"><ele>4.6</ele><time>2021-05-20T14:18:55Z</time><name>PT11693</name></trkpt>
<trkpt lat="53.338126" lon="06.623970"><ele>4.6</ele><time>2021-05-20T14:18:56Z</time><name>PT11694</name></trkpt>
<trkpt lat="53.338129" lon="06.623984"><ele>4.6</ele><time>2021-05-20T14:18:57Z</time><name>PT11695</name></trkpt>
<trkpt lat="53.338131" lon="06.623997"><ele>4.6</ele><time>2021-05-20T14:18:58Z</time><name>PT11696</name></trkpt>
<trkpt lat="53.338133" lon="06.624011"><ele>4.7</ele><time>2021-05-20T14:18:59Z</time><name>PT11697</name></trkpt>
<trkpt lat="53.338133" lon="06.624025"><ele>4.9</ele><time>2021-05-20T14:19:00Z</time><name>PT11698</name></trkpt>
<trkpt lat="53.338136" lon="06.624039"><ele>4.9</ele><time>2021-05-20T14:19:01Z</time><name>PT11699</name></trkpt>
<trkpt lat="53.338139" lon="06.624053"><ele>5</ele><time>2021-05-20T14:19:02Z</time><name>PT11700</name></trkpt>
<trkpt lat="53.338142" lon="06.624065"><ele>5</ele><time>2021-05-20T14:19:03Z</time><name>PT11701</name></trkpt>
<trkpt lat="53.338143" lon="06.624078"><ele>5</ele><time>2021-05-20T14:19:04Z</time><name>PT11702</name></trkpt>
<trkpt lat="53.338146" lon="06.624094"><ele>5</ele><time>2021-05-20T14:19:05Z</time><name>PT11703</name></trkpt>
<trkpt lat="53.338146" lon="06.624113"><ele>5</ele><time>2021-05-20T14:19:06Z</time><name>PT11704</name></trkpt>
<trkpt lat="53.338147" lon="06.624138"><ele>4.7</ele><time>2021-05-20T14:19:07Z</time><name>PT11705</name></trkpt>
<trkpt lat="53.338149" lon="06.624160"><ele>4.6</ele><time>2021-05-20T14:19:08Z</time><name>PT11706</name></trkpt>
<trkpt lat="53.338156" lon="06.624182"><ele>4.5</ele><time>2021-05-20T14:19:09Z</time><name>PT11707</name></trkpt>
<trkpt lat="53.338159" lon="06.624199"><ele>4.5</ele><time>2021-05-20T14:19:10Z</time><name>PT11708</name></trkpt>
<trkpt lat="53.338162" lon="06.624210"><ele>4.5</ele><time>2021-05-20T14:19:11Z</time><name>PT11709</name></trkpt>
<trkpt lat="53.338165" lon="06.624221"><ele>4.6</ele><time>2021-05-20T14:19:12Z</time><name>PT11710</name></trkpt>
<trkpt lat="53.338166" lon="06.624233"><ele>4.6</ele><time>2021-05-20T14:19:13Z</time><name>PT11711</name></trkpt>
<trkpt lat="53.338166" lon="06.624251"><ele>4.5</ele><time>2021-05-20T14:19:14Z</time><name>PT11712</name></trkpt>
<trkpt lat="53.338167" lon="06.624275"><ele>4.5</ele><time>2021-05-20T14:19:15Z</time><name>PT11713</name></trkpt>
<trkpt lat="53.338168" lon="06.624294"><ele>4.5</ele><time>2021-05-20T14:19:16Z</time><name>PT11714</name></trkpt>
<trkpt lat="53.338171" lon="06.624317"><ele>4.2</ele><time>2021-05-20T14:19:17Z</time><name>PT11715</name></trkpt>
<trkpt lat="53.338174" lon="06.624335"><ele>4.3</ele><time>2021-05-20T14:19:18Z</time><name>PT11716</name></trkpt>
<trkpt lat="53.338176" lon="06.624350"><ele>4.3</ele><time>2021-05-20T14:19:19Z</time><name>PT11717</name></trkpt>
<trkpt lat="53.338178" lon="06.624368"><ele>4.1</ele><time>2021-05-20T14:19:20Z</time><name>PT11718</name></trkpt>
<trkpt lat="53.338179" lon="06.624386"><ele>4.2</ele><time>2021-05-20T14:19:21Z</time><name>PT11719</name></trkpt>
<trkpt lat="53.338180" lon="06.624402"><ele>4.2</ele><time>2021-05-20T14:19:22Z</time><name>PT11720</name></trkpt>
<trkpt lat="53.338183" lon="06.624419"><ele>4.3</ele><time>2021-05-20T14:19:23Z</time><name>PT11721</name></trkpt>
<trkpt lat="53.338184" lon="06.624435"><ele>4.4</ele><time>2021-05-20T14:19:24Z</time><name>PT11722</name></trkpt>
<trkpt lat="53.338184" lon="06.624454"><ele>4.5</ele><time>2021-05-20T14:19:25Z</time><name>PT11723</name></trkpt>
<trkpt lat="53.338187" lon="06.624471"><ele>4.6</ele><time>2021-05-20T14:19:26Z</time><name>PT11724</name></trkpt>
<trkpt lat="53.338189" lon="06.624488"><ele>4.6</ele><time>2021-05-20T14:19:27Z</time><name>PT11725</name></trkpt>
<trkpt lat="53.338191" lon="06.624505"><ele>4.7</ele><time>2021-05-20T14:19:28Z</time><name>PT11726</name></trkpt>
<trkpt lat="53.338196" lon="06.624524"><ele>4.7</ele><time>2021-05-20T14:19:29Z</time><name>PT11727</name></trkpt>
<trkpt lat="53.338201" lon="06.624537"><ele>4.5</ele><time>2021-05-20T14:19:30Z</time><name>PT11728</name></trkpt>
<trkpt lat="53.338206" lon="06.624550"><ele>4.6</ele><time>2021-05-20T14:19:31Z</time><name>PT11729</name></trkpt>
<trkpt lat="53.338209" lon="06.624565"><ele>4.5</ele><time>2021-05-20T14:19:32Z</time><name>PT11730</name></trkpt>
<trkpt lat="53.338213" lon="06.624580"><ele>4.3</ele><time>2021-05-20T14:19:33Z</time><name>PT11731</name></trkpt>
<trkpt lat="53.338215" lon="06.624596"><ele>4.3</ele><time>2021-05-20T14:19:34Z</time><name>PT11732</name></trkpt>
<trkpt lat="53.338213" lon="06.624617"><ele>4.4</ele><time>2021-05-20T14:19:35Z</time><name>PT11733</name></trkpt>
<trkpt lat="53.338210" lon="06.624637"><ele>4.4</ele><time>2021-05-20T14:19:36Z</time><name>PT11734</name></trkpt>
<trkpt lat="53.338214" lon="06.624659"><ele>4.4</ele><time>2021-05-20T14:19:37Z</time><name>PT11735</name></trkpt>
<trkpt lat="53.338217" lon="06.624677"><ele>4.5</ele><time>2021-05-20T14:19:38Z</time><name>PT11736</name></trkpt>
<trkpt lat="53.338219" lon="06.624692"><ele>4.6</ele><time>2021-05-20T14:19:39Z</time><name>PT11737</name></trkpt>
<trkpt lat="53.338224" lon="06.624706"><ele>4.7</ele><time>2021-05-20T14:19:40Z</time><name>PT11738</name></trkpt>
<trkpt lat="53.338227" lon="06.624724"><ele>4.6</ele><time>2021-05-20T14:19:41Z</time><name>PT11739</name></trkpt>
<trkpt lat="53.338227" lon="06.624743"><ele>4.6</ele><time>2021-05-20T14:19:42Z</time><name>PT11740</name></trkpt>
<trkpt lat="53.338227" lon="06.624765"><ele>4.6</ele><time>2021-05-20T14:19:43Z</time><name>PT11741</name></trkpt>
<trkpt lat="53.338227" lon="06.624787"><ele>4.5</ele><time>2021-05-20T14:19:44Z</time><name>PT11742</name></trkpt>
<trkpt lat="53.338230" lon="06.624809"><ele>4.4</ele><time>2021-05-20T14:19:45Z</time><name>PT11743</name></trkpt>
<trkpt lat="53.338232" lon="06.624827"><ele>4.4</ele><time>2021-05-20T14:19:46Z</time><name>PT11744</name></trkpt>
<trkpt lat="53.338235" lon="06.624841"><ele>4.4</ele><time>2021-05-20T14:19:47Z</time><name>PT11745</name></trkpt>
<trkpt lat="53.338238" lon="06.624854"><ele>4.3</ele><time>2021-05-20T14:19:48Z</time><name>PT11746</name></trkpt>
<trkpt lat="53.338240" lon="06.624867"><ele>4.2</ele><time>2021-05-20T14:19:49Z</time><name>PT11747</name></trkpt>
<trkpt lat="53.338240" lon="06.624882"><ele>4.3</ele><time>2021-05-20T14:19:50Z</time><name>PT11748</name></trkpt>
<trkpt lat="53.338241" lon="06.624901"><ele>4.5</ele><time>2021-05-20T14:19:51Z</time><name>PT11749</name></trkpt>
<trkpt lat="53.338244" lon="06.624924"><ele>4.3</ele><time>2021-05-20T14:19:52Z</time><name>PT11750</name></trkpt>
<trkpt lat="53.338245" lon="06.624947"><ele>4.4</ele><time>2021-05-20T14:19:53Z</time><name>PT11751</name></trkpt>
<trkpt lat="53.338246" lon="06.624970"><ele>4.4</ele><time>2021-05-20T14:19:54Z</time><name>PT11752</name></trkpt>
<trkpt lat="53.338248" lon="06.624988"><ele>4.5</ele><time>2021-05-20T14:19:55Z</time><name>PT11753</name></trkpt>
<trkpt lat="53.338252" lon="06.625004"><ele>4.5</ele><time>2021-05-20T14:19:56Z</time><name>PT11754</name></trkpt>
<trkpt lat="53.338256" lon="06.625021"><ele>4.6</ele><time>2021-05-20T14:19:57Z</time><name>PT11755</name></trkpt>
<trkpt lat="53.338257" lon="06.625037"><ele>4.7</ele><time>2021-05-20T14:19:58Z</time><name>PT11756</name></trkpt>
<trkpt lat="53.338258" lon="06.625055"><ele>4.8</ele><time>2021-05-20T14:19:59Z</time><name>PT11757</name></trkpt>
<trkpt lat="53.338258" lon="06.625075"><ele>4.8</ele><time>2021-05-20T14:20:00Z</time><name>PT11758</name></trkpt>
<trkpt lat="53.338260" lon="06.625094"><ele>4.6</ele><time>2021-05-20T14:20:01Z</time><name>PT11759</name></trkpt>
<trkpt lat="53.338262" lon="06.625116"><ele>4.7</ele><time>2021-05-20T14:20:02Z</time><name>PT11760</name></trkpt>
<trkpt lat="53.338264" lon="06.625131"><ele>4.6</ele><time>2021-05-20T14:20:03Z</time><name>PT11761</name></trkpt>
<trkpt lat="53.338267" lon="06.625143"><ele>4.5</ele><time>2021-05-20T14:20:04Z</time><name>PT11762</name></trkpt>
<trkpt lat="53.338270" lon="06.625155"><ele>4.5</ele><time>2021-05-20T14:20:05Z</time><name>PT11763</name></trkpt>
<trkpt lat="53.338272" lon="06.625170"><ele>4.7</ele><time>2021-05-20T14:20:06Z</time><name>PT11764</name></trkpt>
<trkpt lat="53.338273" lon="06.625186"><ele>4.7</ele><time>2021-05-20T14:20:07Z</time><name>PT11765</name></trkpt>
<trkpt lat="53.338272" lon="06.625208"><ele>5</ele><time>2021-05-20T14:20:08Z</time><name>PT11766</name></trkpt>
<trkpt lat="53.338275" lon="06.625233"><ele>5</ele><time>2021-05-20T14:20:09Z</time><name>PT11767</name></trkpt>
<trkpt lat="53.338277" lon="06.625254"><ele>5.1</ele><time>2021-05-20T14:20:10Z</time><name>PT11768</name></trkpt>
<trkpt lat="53.338277" lon="06.625268"><ele>5</ele><time>2021-05-20T14:20:11Z</time><name>PT11769</name></trkpt>
<trkpt lat="53.338281" lon="06.625282"><ele>5.1</ele><time>2021-05-20T14:20:12Z</time><name>PT11770</name></trkpt>
<trkpt lat="53.338284" lon="06.625296"><ele>5</ele><time>2021-05-20T14:20:13Z</time><name>PT11771</name></trkpt>
<trkpt lat="53.338285" lon="06.625311"><ele>4.9</ele><time>2021-05-20T14:20:14Z</time><name>PT11772</name></trkpt>
<trkpt lat="53.338286" lon="06.625334"><ele>4.9</ele><time>2021-05-20T14:20:15Z</time><name>PT11773</name></trkpt>
<trkpt lat="53.338287" lon="06.625355"><ele>4.8</ele><time>2021-05-20T14:20:16Z</time><name>PT11774</name></trkpt>
<trkpt lat="53.338289" lon="06.625375"><ele>4.9</ele><time>2021-05-20T14:20:17Z</time><name>PT11775</name></trkpt>
<trkpt lat="53.338292" lon="06.625392"><ele>5</ele><time>2021-05-20T14:20:18Z</time><name>PT11776</name></trkpt>
<trkpt lat="53.338295" lon="06.625409"><ele>5</ele><time>2021-05-20T14:20:19Z</time><name>PT11777</name></trkpt>
<trkpt lat="53.338296" lon="06.625424"><ele>5</ele><time>2021-05-20T14:20:20Z</time><name>PT11778</name></trkpt>
<trkpt lat="53.338299" lon="06.625440"><ele>5.3</ele><time>2021-05-20T14:20:21Z</time><name>PT11779</name></trkpt>
<trkpt lat="53.338302" lon="06.625455"><ele>5.3</ele><time>2021-05-20T14:20:22Z</time><name>PT11780</name></trkpt>
<trkpt lat="53.338304" lon="06.625470"><ele>5.2</ele><time>2021-05-20T14:20:23Z</time><name>PT11781</name></trkpt>
<trkpt lat="53.338306" lon="06.625487"><ele>5.3</ele><time>2021-05-20T14:20:24Z</time><name>PT11782</name></trkpt>
<trkpt lat="53.338307" lon="06.625505"><ele>5.4</ele><time>2021-05-20T14:20:25Z</time><name>PT11783</name></trkpt>
<trkpt lat="53.338308" lon="06.625524"><ele>5.2</ele><time>2021-05-20T14:20:26Z</time><name>PT11784</name></trkpt>
<trkpt lat="53.338310" lon="06.625543"><ele>5.1</ele><time>2021-05-20T14:20:27Z</time><name>PT11785</name></trkpt>
<trkpt lat="53.338312" lon="06.625564"><ele>5.1</ele><time>2021-05-20T14:20:28Z</time><name>PT11786</name></trkpt>
<trkpt lat="53.338315" lon="06.625589"><ele>5</ele><time>2021-05-20T14:20:29Z</time><name>PT11787</name></trkpt>
<trkpt lat="53.338319" lon="06.625607"><ele>5</ele><time>2021-05-20T14:20:30Z</time><name>PT11788</name></trkpt>
<trkpt lat="53.338324" lon="06.625620"><ele>5</ele><time>2021-05-20T14:20:31Z</time><name>PT11789</name></trkpt>
<trkpt lat="53.338328" lon="06.625635"><ele>4.9</ele><time>2021-05-20T14:20:32Z</time><name>PT11790</name></trkpt>
<trkpt lat="53.338332" lon="06.625650"><ele>4.8</ele><time>2021-05-20T14:20:33Z</time><name>PT11791</name></trkpt>
<trkpt lat="53.338333" lon="06.625666"><ele>4.8</ele><time>2021-05-20T14:20:34Z</time><name>PT11792</name></trkpt>
<trkpt lat="53.338334" lon="06.625684"><ele>4.7</ele><time>2021-05-20T14:20:35Z</time><name>PT11793</name></trkpt>
<trkpt lat="53.338334" lon="06.625703"><ele>4.7</ele><time>2021-05-20T14:20:36Z</time><name>PT11794</name></trkpt>
<trkpt lat="53.338337" lon="06.625726"><ele>4.8</ele><time>2021-05-20T14:20:37Z</time><name>PT11795</name></trkpt>
<trkpt lat="53.338337" lon="06.625747"><ele>4.8</ele><time>2021-05-20T14:20:38Z</time><name>PT11796</name></trkpt>
<trkpt lat="53.338340" lon="06.625764"><ele>4.8</ele><time>2021-05-20T14:20:39Z</time><name>PT11797</name></trkpt>
<trkpt lat="53.338344" lon="06.625777"><ele>4.9</ele><time>2021-05-20T14:20:40Z</time><name>PT11798</name></trkpt>
<trkpt lat="53.338344" lon="06.625789"><ele>4.8</ele><time>2021-05-20T14:20:41Z</time><name>PT11799</name></trkpt>
<trkpt lat="53.338347" lon="06.625806"><ele>4.7</ele><time>2021-05-20T14:20:42Z</time><name>PT11800</name></trkpt>
<trkpt lat="53.338349" lon="06.625824"><ele>4.8</ele><time>2021-05-20T14:20:43Z</time><name>PT11801</name></trkpt>
<trkpt lat="53.338351" lon="06.625843"><ele>4.7</ele><time>2021-05-20T14:20:44Z</time><name>PT11802</name></trkpt>
<trkpt lat="53.338357" lon="06.625867"><ele>4.8</ele><time>2021-05-20T14:20:45Z</time><name>PT11803</name></trkpt>
<trkpt lat="53.338360" lon="06.625893"><ele>4.7</ele><time>2021-05-20T14:20:46Z</time><name>PT11804</name></trkpt>
<trkpt lat="53.338362" lon="06.625922"><ele>4.8</ele><time>2021-05-20T14:20:47Z</time><name>PT11805</name></trkpt>
<trkpt lat="53.338365" lon="06.625942"><ele>4.8</ele><time>2021-05-20T14:20:48Z</time><name>PT11806</name></trkpt>
<trkpt lat="53.338370" lon="06.625956"><ele>4.9</ele><time>2021-05-20T14:20:49Z</time><name>PT11807</name></trkpt>
<trkpt lat="53.338372" lon="06.625967"><ele>4.9</ele><time>2021-05-20T14:20:50Z</time><name>PT11808</name></trkpt>
<trkpt lat="53.338374" lon="06.625976"><ele>4.9</ele><time>2021-05-20T14:20:51Z</time><name>PT11809</name></trkpt>
<trkpt lat="53.338375" lon="06.625992"><ele>4.7</ele><time>2021-05-20T14:20:52Z</time><name>PT11810</name></trkpt>
<trkpt lat="53.338377" lon="06.626012"><ele>4.7</ele><time>2021-05-20T14:20:53Z</time><name>PT11811</name></trkpt>
<trkpt lat="53.338379" lon="06.626033"><ele>4.5</ele><time>2021-05-20T14:20:54Z</time><name>PT11812</name></trkpt>
<trkpt lat="53.338382" lon="06.626051"><ele>4.5</ele><time>2021-05-20T14:20:55Z</time><name>PT11813</name></trkpt>
<trkpt lat="53.338385" lon="06.626065"><ele>4.5</ele><time>2021-05-20T14:20:56Z</time><name>PT11814</name></trkpt>
<trkpt lat="53.338390" lon="06.626077"><ele>4.5</ele><time>2021-05-20T14:20:57Z</time><name>PT11815</name></trkpt>
<trkpt lat="53.338392" lon="06.626089"><ele>4.5</ele><time>2021-05-20T14:20:58Z</time><name>PT11816</name></trkpt>
<trkpt lat="53.338395" lon="06.626102"><ele>4.7</ele><time>2021-05-20T14:20:59Z</time><name>PT11817</name></trkpt>
<trkpt lat="53.338395" lon="06.626116"><ele>4.9</ele><time>2021-05-20T14:21:00Z</time><name>PT11818</name></trkpt>
<trkpt lat="53.338396" lon="06.626137"><ele>5</ele><time>2021-05-20T14:21:01Z</time><name>PT11819</name></trkpt>
<trkpt lat="53.338398" lon="06.626159"><ele>5</ele><time>2021-05-20T14:21:02Z</time><name>PT11820</name></trkpt>
<trkpt lat="53.338400" lon="06.626178"><ele>5</ele><time>2021-05-20T14:21:03Z</time><name>PT11821</name></trkpt>
<trkpt lat="53.338402" lon="06.626194"><ele>5.1</ele><time>2021-05-20T14:21:04Z</time><name>PT11822</name></trkpt>
<trkpt lat="53.338406" lon="06.626207"><ele>5.4</ele><time>2021-05-20T14:21:05Z</time><name>PT11823</name></trkpt>
<trkpt lat="53.338410" lon="06.626222"><ele>5.4</ele><time>2021-05-20T14:21:06Z</time><name>PT11824</name></trkpt>
<trkpt lat="53.338413" lon="06.626239"><ele>5.5</ele><time>2021-05-20T14:21:07Z</time><name>PT11825</name></trkpt>
<trkpt lat="53.338413" lon="06.626255"><ele>5.5</ele><time>2021-05-20T14:21:08Z</time><name>PT11826</name></trkpt>
<trkpt lat="53.338418" lon="06.626269"><ele>5.3</ele><time>2021-05-20T14:21:09Z</time><name>PT11827</name></trkpt>
<trkpt lat="53.338422" lon="06.626279"><ele>5.1</ele><time>2021-05-20T14:21:10Z</time><name>PT11828</name></trkpt>
<trkpt lat="53.338423" lon="06.626290"><ele>4.9</ele><time>2021-05-20T14:21:11Z</time><name>PT11829</name></trkpt>
<trkpt lat="53.338421" lon="06.626303"><ele>5</ele><time>2021-05-20T14:21:12Z</time><name>PT11830</name></trkpt>
<trkpt lat="53.338422" lon="06.626321"><ele>4.8</ele><time>2021-05-20T14:21:13Z</time><name>PT11831</name></trkpt>
<trkpt lat="53.338422" lon="06.626333"><ele>5</ele><time>2021-05-20T14:21:14Z</time><name>PT11832</name></trkpt>
<trkpt lat="53.338422" lon="06.626340"><ele>4.9</ele><time>2021-05-20T14:21:15Z</time><name>PT11833</name></trkpt>
<trkpt lat="53.338420" lon="06.626355"><ele>5</ele><time>2021-05-20T14:21:16Z</time><name>PT11834</name></trkpt>
<trkpt lat="53.338420" lon="06.626373"><ele>5</ele><time>2021-05-20T14:21:17Z</time><name>PT11835</name></trkpt>
<trkpt lat="53.338422" lon="06.626392"><ele>5</ele><time>2021-05-20T14:21:18Z</time><name>PT11836</name></trkpt>
<trkpt lat="53.338424" lon="06.626407"><ele>5</ele><time>2021-05-20T14:21:19Z</time><name>PT11837</name></trkpt>
<trkpt lat="53.338428" lon="06.626420"><ele>5.2</ele><time>2021-05-20T14:21:20Z</time><name>PT11838</name></trkpt>
<trkpt lat="53.338430" lon="06.626432"><ele>5.3</ele><time>2021-05-20T14:21:21Z</time><name>PT11839</name></trkpt>
<trkpt lat="53.338430" lon="06.626448"><ele>5.4</ele><time>2021-05-20T14:21:22Z</time><name>PT11840</name></trkpt>
<trkpt lat="53.338430" lon="06.626471"><ele>5.3</ele><time>2021-05-20T14:21:23Z</time><name>PT11841</name></trkpt>
<trkpt lat="53.338431" lon="06.626492"><ele>5.4</ele><time>2021-05-20T14:21:24Z</time><name>PT11842</name></trkpt>
<trkpt lat="53.338431" lon="06.626507"><ele>5.4</ele><time>2021-05-20T14:21:25Z</time><name>PT11843</name></trkpt>
<trkpt lat="53.338433" lon="06.626521"><ele>5.3</ele><time>2021-05-20T14:21:26Z</time><name>PT11844</name></trkpt>
<trkpt lat="53.338432" lon="06.626534"><ele>5.2</ele><time>2021-05-20T14:21:27Z</time><name>PT11845</name></trkpt>
<trkpt lat="53.338430" lon="06.626551"><ele>5.2</ele><time>2021-05-20T14:21:28Z</time><name>PT11846</name></trkpt>
<trkpt lat="53.338426" lon="06.626573"><ele>5.3</ele><time>2021-05-20T14:21:29Z</time><name>PT11847</name></trkpt>
<trkpt lat="53.338426" lon="06.626592"><ele>5.2</ele><time>2021-05-20T14:21:30Z</time><name>PT11848</name></trkpt>
<trkpt lat="53.338425" lon="06.626608"><ele>5.2</ele><time>2021-05-20T14:21:31Z</time><name>PT11849</name></trkpt>
<trkpt lat="53.338426" lon="06.626622"><ele>5.4</ele><time>2021-05-20T14:21:32Z</time><name>PT11850</name></trkpt>
<trkpt lat="53.338426" lon="06.626635"><ele>5.2</ele><time>2021-05-20T14:21:33Z</time><name>PT11851</name></trkpt>
<trkpt lat="53.338426" lon="06.626648"><ele>5.3</ele><time>2021-05-20T14:21:34Z</time><name>PT11852</name></trkpt>
<trkpt lat="53.338425" lon="06.626665"><ele>5.4</ele><time>2021-05-20T14:21:35Z</time><name>PT11853</name></trkpt>
<trkpt lat="53.338425" lon="06.626685"><ele>5.4</ele><time>2021-05-20T14:21:36Z</time><name>PT11854</name></trkpt>
<trkpt lat="53.338423" lon="06.626701"><ele>5.3</ele><time>2021-05-20T14:21:37Z</time><name>PT11855</name></trkpt>
<trkpt lat="53.338421" lon="06.626713"><ele>5.3</ele><time>2021-05-20T14:21:38Z</time><name>PT11856</name></trkpt>
<trkpt lat="53.338418" lon="06.626728"><ele>5.4</ele><time>2021-05-20T14:21:39Z</time><name>PT11857</name></trkpt>
<trkpt lat="53.338417" lon="06.626739"><ele>5.5</ele><time>2021-05-20T14:21:40Z</time><name>PT11858</name></trkpt>
<trkpt lat="53.338419" lon="06.626746"><ele>5.6</ele><time>2021-05-20T14:21:41Z</time><name>PT11859</name></trkpt>
<trkpt lat="53.338423" lon="06.626748"><ele>5.9</ele><time>2021-05-20T14:21:42Z</time><name>PT11860</name></trkpt>
<trkpt lat="53.338426" lon="06.626751"><ele>5.9</ele><time>2021-05-20T14:21:43Z</time><name>PT11861</name></trkpt>
<trkpt lat="53.338424" lon="06.626766"><ele>5.8</ele><time>2021-05-20T14:21:44Z</time><name>PT11862</name></trkpt>
<trkpt lat="53.338424" lon="06.626772"><ele>5.7</ele><time>2021-05-20T14:21:45Z</time><name>PT11863</name></trkpt>
<trkpt lat="53.338424" lon="06.626780"><ele>5.4</ele><time>2021-05-20T14:21:46Z</time><name>PT11864</name></trkpt>
<trkpt lat="53.338423" lon="06.626792"><ele>5.1</ele><time>2021-05-20T14:21:47Z</time><name>PT11865</name></trkpt>
<trkpt lat="53.338421" lon="06.626805"><ele>5.1</ele><time>2021-05-20T14:21:48Z</time><name>PT11866</name></trkpt>
<trkpt lat="53.338420" lon="06.626816"><ele>5</ele><time>2021-05-20T14:21:49Z</time><name>PT11867</name></trkpt>
<trkpt lat="53.338418" lon="06.626823"><ele>5</ele><time>2021-05-20T14:21:50Z</time><name>PT11868</name></trkpt>
<trkpt lat="53.338419" lon="06.626827"><ele>5.1</ele><time>2021-05-20T14:21:51Z</time><name>PT11869</name></trkpt>
<trkpt lat="53.338418" lon="06.626831"><ele>5</ele><time>2021-05-20T14:21:52Z</time><name>PT11870</name></trkpt>
<trkpt lat="53.338417" lon="06.626834"><ele>4.8</ele><time>2021-05-20T14:21:53Z</time><name>PT11871</name></trkpt>
<trkpt lat="53.338417" lon="06.626835"><ele>4.9</ele><time>2021-05-20T14:21:54Z</time><name>PT11872</name></trkpt>
<trkpt lat="53.338409" lon="06.626838"><ele>5.2</ele><time>2021-05-20T14:22:18Z</time><name>PT11873</name></trkpt>
<trkpt lat="53.338403" lon="06.626845"><ele>5.1</ele><time>2021-05-20T14:22:19Z</time><name>PT11874</name></trkpt>
<trkpt lat="53.338400" lon="06.626862"><ele>5.1</ele><time>2021-05-20T14:22:20Z</time><name>PT11875</name></trkpt>
<trkpt lat="53.338397" lon="06.626872"><ele>5</ele><time>2021-05-20T14:22:21Z</time><name>PT11876</name></trkpt>
<trkpt lat="53.338392" lon="06.626882"><ele>5.1</ele><time>2021-05-20T14:22:22Z</time><name>PT11877</name></trkpt>
<trkpt lat="53.338391" lon="06.626894"><ele>5.2</ele><time>2021-05-20T14:22:23Z</time><name>PT11878</name></trkpt>
<trkpt lat="53.338391" lon="06.626914"><ele>5.1</ele><time>2021-05-20T14:22:24Z</time><name>PT11879</name></trkpt>
<trkpt lat="53.338389" lon="06.626928"><ele>5.3</ele><time>2021-05-20T14:22:25Z</time><name>PT11880</name></trkpt>
<trkpt lat="53.338385" lon="06.626937"><ele>5.4</ele><time>2021-05-20T14:22:26Z</time><name>PT11881</name></trkpt>
<trkpt lat="53.338384" lon="06.626953"><ele>5.4</ele><time>2021-05-20T14:22:27Z</time><name>PT11882</name></trkpt>
<trkpt lat="53.338380" lon="06.626968"><ele>5.5</ele><time>2021-05-20T14:22:28Z</time><name>PT11883</name></trkpt>
<trkpt lat="53.338378" lon="06.626981"><ele>5.4</ele><time>2021-05-20T14:22:29Z</time><name>PT11884</name></trkpt>
<trkpt lat="53.338375" lon="06.626987"><ele>5.4</ele><time>2021-05-20T14:22:30Z</time><name>PT11885</name></trkpt>
<trkpt lat="53.338374" lon="06.626993"><ele>5.2</ele><time>2021-05-20T14:22:31Z</time><name>PT11886</name></trkpt>
<trkpt lat="53.338373" lon="06.627003"><ele>5.2</ele><time>2021-05-20T14:22:32Z</time><name>PT11887</name></trkpt>
<trkpt lat="53.338372" lon="06.627010"><ele>5.3</ele><time>2021-05-20T14:22:33Z</time><name>PT11888</name></trkpt>
<trkpt lat="53.338371" lon="06.627019"><ele>5.3</ele><time>2021-05-20T14:22:34Z</time><name>PT11889</name></trkpt>
<trkpt lat="53.338370" lon="06.627028"><ele>5.3</ele><time>2021-05-20T14:22:35Z</time><name>PT11890</name></trkpt>
<trkpt lat="53.338369" lon="06.627030"><ele>5.4</ele><time>2021-05-20T14:22:36Z</time><name>PT11891</name></trkpt>
<trkpt lat="53.338370" lon="06.627028"><ele>5.4</ele><time>2021-05-20T14:22:37Z</time><name>PT11892</name></trkpt>
<trkpt lat="53.338370" lon="06.627027"><ele>5.2</ele><time>2021-05-20T14:22:38Z</time><name>PT11893</name></trkpt>
<trkpt lat="53.338371" lon="06.627030"><ele>5.2</ele><time>2021-05-20T14:22:39Z</time><name>PT11894</name></trkpt>
<trkpt lat="53.338371" lon="06.627032"><ele>5.2</ele><time>2021-05-20T14:22:40Z</time><name>PT11895</name></trkpt>
<trkpt lat="53.338371" lon="06.627033"><ele>5</ele><time>2021-05-20T14:22:41Z</time><name>PT11896</name></trkpt>
<trkpt lat="53.338373" lon="06.627038"><ele>5.1</ele><time>2021-05-20T14:22:43Z</time><name>PT11897</name></trkpt>
<trkpt lat="53.338373" lon="06.627043"><ele>5.2</ele><time>2021-05-20T14:22:44Z</time><name>PT11898</name></trkpt>
<trkpt lat="53.338370" lon="06.627051"><ele>5.1</ele><time>2021-05-20T14:22:45Z</time><name>PT11899</name></trkpt>
<trkpt lat="53.338368" lon="06.627061"><ele>5.2</ele><time>2021-05-20T14:22:46Z</time><name>PT11900</name></trkpt>
<trkpt lat="53.338364" lon="06.627066"><ele>5.4</ele><time>2021-05-20T14:22:47Z</time><name>PT11901</name></trkpt>
<trkpt lat="53.338361" lon="06.627067"><ele>5.4</ele><time>2021-05-20T14:22:48Z</time><name>PT11902</name></trkpt>
<trkpt lat="53.338358" lon="06.627072"><ele>5.4</ele><time>2021-05-20T14:22:49Z</time><name>PT11903</name></trkpt>
<trkpt lat="53.338356" lon="06.627072"><ele>5.4</ele><time>2021-05-20T14:22:50Z</time><name>PT11904</name></trkpt>
<trkpt lat="53.338356" lon="06.627069"><ele>5.4</ele><time>2021-05-20T14:22:51Z</time><name>PT11905</name></trkpt>
<trkpt lat="53.338353" lon="06.627063"><ele>5.3</ele><time>2021-05-20T14:22:56Z</time><name>PT11906</name></trkpt>
<trkpt lat="53.338350" lon="06.627065"><ele>5.4</ele><time>2021-05-20T14:22:57Z</time><name>PT11907</name></trkpt>
<trkpt lat="53.338350" lon="06.627067"><ele>5.3</ele><time>2021-05-20T14:22:58Z</time><name>PT11908</name></trkpt>
<trkpt lat="53.338345" lon="06.627073"><ele>5.4</ele><time>2021-05-20T14:23:03Z</time><name>PT11909</name></trkpt>
<trkpt lat="53.338337" lon="06.627077"><ele>5.5</ele><time>2021-05-20T14:23:04Z</time><name>PT11910</name></trkpt>
<trkpt lat="53.338329" lon="06.627082"><ele>5.6</ele><time>2021-05-20T14:23:05Z</time><name>PT11911</name></trkpt>
<trkpt lat="53.338321" lon="06.627088"><ele>5.4</ele><time>2021-05-20T14:23:06Z</time><name>PT11912</name></trkpt>
<trkpt lat="53.338315" lon="06.627092"><ele>5.4</ele><time>2021-05-20T14:23:07Z</time><name>PT11913</name></trkpt>
<trkpt lat="53.338311" lon="06.627095"><ele>5.4</ele><time>2021-05-20T14:23:08Z</time><name>PT11914</name></trkpt>
<trkpt lat="53.338302" lon="06.627091"><ele>5.4</ele><time>2021-05-20T14:23:09Z</time><name>PT11915</name></trkpt>
<trkpt lat="53.338294" lon="06.627086"><ele>5.2</ele><time>2021-05-20T14:23:10Z</time><name>PT11916</name></trkpt>
<trkpt lat="53.338281" lon="06.627078"><ele>5.4</ele><time>2021-05-20T14:23:11Z</time><name>PT11917</name></trkpt>
<trkpt lat="53.338269" lon="06.627071"><ele>5.4</ele><time>2021-05-20T14:23:12Z</time><name>PT11918</name></trkpt>
<trkpt lat="53.338260" lon="06.627070"><ele>5.4</ele><time>2021-05-20T14:23:13Z</time><name>PT11919</name></trkpt>
<trkpt lat="53.338252" lon="06.627069"><ele>5.4</ele><time>2021-05-20T14:23:14Z</time><name>PT11920</name></trkpt>
<trkpt lat="53.338241" lon="06.627064"><ele>5.5</ele><time>2021-05-20T14:23:15Z</time><name>PT11921</name></trkpt>
<trkpt lat="53.338235" lon="06.627056"><ele>5.4</ele><time>2021-05-20T14:23:16Z</time><name>PT11922</name></trkpt>
<trkpt lat="53.338224" lon="06.627045"><ele>5.4</ele><time>2021-05-20T14:23:17Z</time><name>PT11923</name></trkpt>
<trkpt lat="53.338211" lon="06.627035"><ele>5.5</ele><time>2021-05-20T14:23:18Z</time><name>PT11924</name></trkpt>
<trkpt lat="53.338198" lon="06.627025"><ele>5.6</ele><time>2021-05-20T14:23:19Z</time><name>PT11925</name></trkpt>
<trkpt lat="53.338185" lon="06.627018"><ele>5.6</ele><time>2021-05-20T14:23:20Z</time><name>PT11926</name></trkpt>
<trkpt lat="53.338173" lon="06.627015"><ele>5.7</ele><time>2021-05-20T14:23:21Z</time><name>PT11927</name></trkpt>
<trkpt lat="53.338164" lon="06.627015"><ele>5.6</ele><time>2021-05-20T14:23:22Z</time><name>PT11928</name></trkpt>
<trkpt lat="53.338155" lon="06.627015"><ele>5.5</ele><time>2021-05-20T14:23:23Z</time><name>PT11929</name></trkpt>
<trkpt lat="53.338149" lon="06.627009"><ele>5.4</ele><time>2021-05-20T14:23:24Z</time><name>PT11930</name></trkpt>
<trkpt lat="53.338139" lon="06.627002"><ele>5.3</ele><time>2021-05-20T14:23:25Z</time><name>PT11931</name></trkpt>
<trkpt lat="53.338123" lon="06.626994"><ele>5.1</ele><time>2021-05-20T14:23:26Z</time><name>PT11932</name></trkpt>
<trkpt lat="53.338109" lon="06.626989"><ele>5</ele><time>2021-05-20T14:23:27Z</time><name>PT11933</name></trkpt>
<trkpt lat="53.338099" lon="06.626986"><ele>5.1</ele><time>2021-05-20T14:23:28Z</time><name>PT11934</name></trkpt>
<trkpt lat="53.338091" lon="06.626985"><ele>5.2</ele><time>2021-05-20T14:23:29Z</time><name>PT11935</name></trkpt>
<trkpt lat="53.338084" lon="06.626980"><ele>5</ele><time>2021-05-20T14:23:30Z</time><name>PT11936</name></trkpt>
<trkpt lat="53.338077" lon="06.626974"><ele>5.2</ele><time>2021-05-20T14:23:31Z</time><name>PT11937</name></trkpt>
<trkpt lat="53.338070" lon="06.626966"><ele>5</ele><time>2021-05-20T14:23:32Z</time><name>PT11938</name></trkpt>
<trkpt lat="53.338059" lon="06.626957"><ele>5</ele><time>2021-05-20T14:23:33Z</time><name>PT11939</name></trkpt>
<trkpt lat="53.338047" lon="06.626949"><ele>5.2</ele><time>2021-05-20T14:23:34Z</time><name>PT11940</name></trkpt>
<trkpt lat="53.338036" lon="06.626943"><ele>5.1</ele><time>2021-05-20T14:23:35Z</time><name>PT11941</name></trkpt>
<trkpt lat="53.338027" lon="06.626939"><ele>5</ele><time>2021-05-20T14:23:36Z</time><name>PT11942</name></trkpt>
<trkpt lat="53.338019" lon="06.626936"><ele>5.1</ele><time>2021-05-20T14:23:37Z</time><name>PT11943</name></trkpt>
<trkpt lat="53.338014" lon="06.626933"><ele>5</ele><time>2021-05-20T14:23:38Z</time><name>PT11944</name></trkpt>
<trkpt lat="53.338006" lon="06.626927"><ele>5</ele><time>2021-05-20T14:23:39Z</time><name>PT11945</name></trkpt>
<trkpt lat="53.337992" lon="06.626917"><ele>5</ele><time>2021-05-20T14:23:40Z</time><name>PT11946</name></trkpt>
<trkpt lat="53.337976" lon="06.626904"><ele>4.9</ele><time>2021-05-20T14:23:41Z</time><name>PT11947</name></trkpt>
<trkpt lat="53.337961" lon="06.626896"><ele>4.7</ele><time>2021-05-20T14:23:42Z</time><name>PT11948</name></trkpt>
<trkpt lat="53.337948" lon="06.626891"><ele>4.7</ele><time>2021-05-20T14:23:43Z</time><name>PT11949</name></trkpt>
<trkpt lat="53.337937" lon="06.626888"><ele>4.5</ele><time>2021-05-20T14:23:44Z</time><name>PT11950</name></trkpt>
<trkpt lat="53.337930" lon="06.626884"><ele>4.4</ele><time>2021-05-20T14:23:45Z</time><name>PT11951</name></trkpt>
<trkpt lat="53.337923" lon="06.626878"><ele>4.4</ele><time>2021-05-20T14:23:46Z</time><name>PT11952</name></trkpt>
<trkpt lat="53.337915" lon="06.626874"><ele>4.5</ele><time>2021-05-20T14:23:47Z</time><name>PT11953</name></trkpt>
<trkpt lat="53.337903" lon="06.626870"><ele>4.6</ele><time>2021-05-20T14:23:48Z</time><name>PT11954</name></trkpt>
<trkpt lat="53.337890" lon="06.626859"><ele>4.5</ele><time>2021-05-20T14:23:49Z</time><name>PT11955</name></trkpt>
<trkpt lat="53.337874" lon="06.626849"><ele>4.8</ele><time>2021-05-20T14:23:50Z</time><name>PT11956</name></trkpt>
<trkpt lat="53.337860" lon="06.626837"><ele>4.6</ele><time>2021-05-20T14:23:51Z</time><name>PT11957</name></trkpt>
<trkpt lat="53.337844" lon="06.626830"><ele>4.6</ele><time>2021-05-20T14:23:52Z</time><name>PT11958</name></trkpt>
<trkpt lat="53.337831" lon="06.626823"><ele>4.7</ele><time>2021-05-20T14:23:53Z</time><name>PT11959</name></trkpt>
<trkpt lat="53.337822" lon="06.626819"><ele>4.8</ele><time>2021-05-20T14:23:54Z</time><name>PT11960</name></trkpt>
<trkpt lat="53.337815" lon="06.626819"><ele>4.7</ele><time>2021-05-20T14:23:55Z</time><name>PT11961</name></trkpt>
<trkpt lat="53.337809" lon="06.626819"><ele>4.6</ele><time>2021-05-20T14:23:56Z</time><name>PT11962</name></trkpt>
<trkpt lat="53.337803" lon="06.626817"><ele>4.7</ele><time>2021-05-20T14:23:57Z</time><name>PT11963</name></trkpt>
<trkpt lat="53.337797" lon="06.626812"><ele>4.6</ele><time>2021-05-20T14:23:58Z</time><name>PT11964</name></trkpt>
<trkpt lat="53.337790" lon="06.626800"><ele>4.5</ele><time>2021-05-20T14:23:59Z</time><name>PT11965</name></trkpt>
<trkpt lat="53.337781" lon="06.626781"><ele>4.6</ele><time>2021-05-20T14:24:00Z</time><name>PT11966</name></trkpt>
<trkpt lat="53.337772" lon="06.626764"><ele>4.5</ele><time>2021-05-20T14:24:01Z</time><name>PT11967</name></trkpt>
<trkpt lat="53.337766" lon="06.626755"><ele>4.5</ele><time>2021-05-20T14:24:02Z</time><name>PT11968</name></trkpt>
<trkpt lat="53.337763" lon="06.626747"><ele>4.5</ele><time>2021-05-20T14:24:03Z</time><name>PT11969</name></trkpt>
<trkpt lat="53.337758" lon="06.626744"><ele>4.5</ele><time>2021-05-20T14:24:04Z</time><name>PT11970</name></trkpt>
<trkpt lat="53.337753" lon="06.626736"><ele>4.5</ele><time>2021-05-20T14:24:05Z</time><name>PT11971</name></trkpt>
<trkpt lat="53.337753" lon="06.626727"><ele>4.5</ele><time>2021-05-20T14:24:06Z</time><name>PT11972</name></trkpt>
<trkpt lat="53.337754" lon="06.626725"><ele>4.4</ele><time>2021-05-20T14:24:07Z</time><name>PT11973</name></trkpt>
<trkpt lat="53.337756" lon="06.626727"><ele>4.4</ele><time>2021-05-20T14:24:08Z</time><name>PT11974</name></trkpt>
<trkpt lat="53.337754" lon="06.626726"><ele>4.4</ele><time>2021-05-20T14:24:09Z</time><name>PT11975</name></trkpt>
<trkpt lat="53.337749" lon="06.626720"><ele>4.4</ele><time>2021-05-20T14:24:10Z</time><name>PT11976</name></trkpt>
<trkpt lat="53.337743" lon="06.626715"><ele>4.5</ele><time>2021-05-20T14:24:11Z</time><name>PT11977</name></trkpt>
<trkpt lat="53.337738" lon="06.626711"><ele>4.6</ele><time>2021-05-20T14:24:12Z</time><name>PT11978</name></trkpt>
<trkpt lat="53.337733" lon="06.626707"><ele>4.9</ele><time>2021-05-20T14:24:13Z</time><name>PT11979</name></trkpt>
<trkpt lat="53.337731" lon="06.626699"><ele>4.9</ele><time>2021-05-20T14:24:14Z</time><name>PT11980</name></trkpt>
<trkpt lat="53.337727" lon="06.626692"><ele>5</ele><time>2021-05-20T14:24:15Z</time><name>PT11981</name></trkpt>
<trkpt lat="53.337725" lon="06.626690"><ele>5.1</ele><time>2021-05-20T14:24:16Z</time><name>PT11982</name></trkpt>
<trkpt lat="53.337725" lon="06.626690"><ele>5.1</ele><time>2021-05-20T14:24:17Z</time><name>PT11983</name></trkpt>
<trkpt lat="53.337717" lon="06.626698"><ele>5</ele><time>2021-05-20T14:24:18Z</time><name>PT11984</name></trkpt>
<trkpt lat="53.337705" lon="06.626699"><ele>5</ele><time>2021-05-20T14:24:19Z</time><name>PT11985</name></trkpt>
<trkpt lat="53.337691" lon="06.626693"><ele>5</ele><time>2021-05-20T14:24:20Z</time><name>PT11986</name></trkpt>
<trkpt lat="53.337685" lon="06.626692"><ele>5</ele><time>2021-05-20T14:24:21Z</time><name>PT11987</name></trkpt>
<trkpt lat="53.337680" lon="06.626690"><ele>5</ele><time>2021-05-20T14:24:22Z</time><name>PT11988</name></trkpt>
<trkpt lat="53.337672" lon="06.626684"><ele>5</ele><time>2021-05-20T14:24:23Z</time><name>PT11989</name></trkpt>
<trkpt lat="53.337659" lon="06.626675"><ele>5.1</ele><time>2021-05-20T14:24:24Z</time><name>PT11990</name></trkpt>
<trkpt lat="53.337646" lon="06.626660"><ele>5.1</ele><time>2021-05-20T14:24:25Z</time><name>PT11991</name></trkpt>
<trkpt lat="53.337636" lon="06.626649"><ele>5.2</ele><time>2021-05-20T14:24:26Z</time><name>PT11992</name></trkpt>
<trkpt lat="53.337629" lon="06.626642"><ele>5.2</ele><time>2021-05-20T14:24:27Z</time><name>PT11993</name></trkpt>
<trkpt lat="53.337622" lon="06.626639"><ele>5.2</ele><time>2021-05-20T14:24:28Z</time><name>PT11994</name></trkpt>
<trkpt lat="53.337616" lon="06.626631"><ele>5.2</ele><time>2021-05-20T14:24:29Z</time><name>PT11995</name></trkpt>
<trkpt lat="53.337612" lon="06.626623"><ele>5.4</ele><time>2021-05-20T14:24:30Z</time><name>PT11996</name></trkpt>
<trkpt lat="53.337608" lon="06.626620"><ele>5.4</ele><time>2021-05-20T14:24:31Z</time><name>PT11997</name></trkpt>
<trkpt lat="53.337606" lon="06.626621"><ele>5.4</ele><time>2021-05-20T14:24:32Z</time><name>PT11998</name></trkpt>
<trkpt lat="53.337605" lon="06.626623"><ele>5.1</ele><time>2021-05-20T14:24:33Z</time><name>PT11999</name></trkpt>
<trkpt lat="53.337602" lon="06.626623"><ele>4.8</ele><time>2021-05-20T14:24:38Z</time><name>PT12000</name></trkpt>
<trkpt lat="53.337589" lon="06.626611"><ele>4.7</ele><time>2021-05-20T14:24:39Z</time><name>PT12001</name></trkpt>
<trkpt lat="53.337577" lon="06.626600"><ele>4.9</ele><time>2021-05-20T14:24:40Z</time><name>PT12002</name></trkpt>
<trkpt lat="53.337566" lon="06.626590"><ele>5</ele><time>2021-05-20T14:24:41Z</time><name>PT12003</name></trkpt>
<trkpt lat="53.337559" lon="06.626584"><ele>5.1</ele><time>2021-05-20T14:24:42Z</time><name>PT12004</name></trkpt>
<trkpt lat="53.337552" lon="06.626579"><ele>5.2</ele><time>2021-05-20T14:24:43Z</time><name>PT12005</name></trkpt>
<trkpt lat="53.337547" lon="06.626577"><ele>5.2</ele><time>2021-05-20T14:24:44Z</time><name>PT12006</name></trkpt>
<trkpt lat="53.337540" lon="06.626568"><ele>5.1</ele><time>2021-05-20T14:24:45Z</time><name>PT12007</name></trkpt>
<trkpt lat="53.337532" lon="06.626555"><ele>5</ele><time>2021-05-20T14:24:46Z</time><name>PT12008</name></trkpt>
<trkpt lat="53.337519" lon="06.626550"><ele>4.8</ele><time>2021-05-20T14:24:47Z</time><name>PT12009</name></trkpt>
<trkpt lat="53.337515" lon="06.626542"><ele>4.7</ele><time>2021-05-20T14:24:48Z</time><name>PT12010</name></trkpt>
<trkpt lat="53.337511" lon="06.626537"><ele>4.5</ele><time>2021-05-20T14:24:49Z</time><name>PT12011</name></trkpt>
<trkpt lat="53.337501" lon="06.626531"><ele>4.6</ele><time>2021-05-20T14:24:50Z</time><name>PT12012</name></trkpt>
<trkpt lat="53.337492" lon="06.626526"><ele>4.8</ele><time>2021-05-20T14:24:51Z</time><name>PT12013</name></trkpt>
<trkpt lat="53.337484" lon="06.626521"><ele>4.9</ele><time>2021-05-20T14:24:52Z</time><name>PT12014</name></trkpt>
<trkpt lat="53.337477" lon="06.626517"><ele>5</ele><time>2021-05-20T14:24:53Z</time><name>PT12015</name></trkpt>
<trkpt lat="53.337471" lon="06.626514"><ele>5</ele><time>2021-05-20T14:24:54Z</time><name>PT12016</name></trkpt>
<trkpt lat="53.337466" lon="06.626507"><ele>5</ele><time>2021-05-20T14:24:55Z</time><name>PT12017</name></trkpt>
<trkpt lat="53.337457" lon="06.626496"><ele>5.1</ele><time>2021-05-20T14:24:56Z</time><name>PT12018</name></trkpt>
<trkpt lat="53.337445" lon="06.626481"><ele>5.1</ele><time>2021-05-20T14:24:57Z</time><name>PT12019</name></trkpt>
<trkpt lat="53.337432" lon="06.626468"><ele>5.2</ele><time>2021-05-20T14:24:58Z</time><name>PT12020</name></trkpt>
<trkpt lat="53.337419" lon="06.626451"><ele>5.3</ele><time>2021-05-20T14:24:59Z</time><name>PT12021</name></trkpt>
<trkpt lat="53.337406" lon="06.626439"><ele>5</ele><time>2021-05-20T14:25:00Z</time><name>PT12022</name></trkpt>
<trkpt lat="53.337396" lon="06.626432"><ele>5</ele><time>2021-05-20T14:25:01Z</time><name>PT12023</name></trkpt>
<trkpt lat="53.337388" lon="06.626429"><ele>5</ele><time>2021-05-20T14:25:02Z</time><name>PT12024</name></trkpt>
<trkpt lat="53.337381" lon="06.626424"><ele>5</ele><time>2021-05-20T14:25:03Z</time><name>PT12025</name></trkpt>
<trkpt lat="53.337374" lon="06.626416"><ele>5</ele><time>2021-05-20T14:25:04Z</time><name>PT12026</name></trkpt>
<trkpt lat="53.337367" lon="06.626405"><ele>5.1</ele><time>2021-05-20T14:25:05Z</time><name>PT12027</name></trkpt>
<trkpt lat="53.337358" lon="06.626390"><ele>5</ele><time>2021-05-20T14:25:06Z</time><name>PT12028</name></trkpt>
<trkpt lat="53.337350" lon="06.626378"><ele>5.1</ele><time>2021-05-20T14:25:07Z</time><name>PT12029</name></trkpt>
<trkpt lat="53.337339" lon="06.626367"><ele>5.1</ele><time>2021-05-20T14:25:08Z</time><name>PT12030</name></trkpt>
<trkpt lat="53.337327" lon="06.626355"><ele>5.1</ele><time>2021-05-20T14:25:09Z</time><name>PT12031</name></trkpt>
<trkpt lat="53.337317" lon="06.626345"><ele>5.2</ele><time>2021-05-20T14:25:10Z</time><name>PT12032</name></trkpt>
<trkpt lat="53.337307" lon="06.626340"><ele>5.2</ele><time>2021-05-20T14:25:11Z</time><name>PT12033</name></trkpt>
<trkpt lat="53.337300" lon="06.626334"><ele>5.3</ele><time>2021-05-20T14:25:12Z</time><name>PT12034</name></trkpt>
<trkpt lat="53.337293" lon="06.626328"><ele>5.4</ele><time>2021-05-20T14:25:13Z</time><name>PT12035</name></trkpt>
<trkpt lat="53.337287" lon="06.626318"><ele>5.4</ele><time>2021-05-20T14:25:14Z</time><name>PT12036</name></trkpt>
<trkpt lat="53.337280" lon="06.626308"><ele>5.5</ele><time>2021-05-20T14:25:15Z</time><name>PT12037</name></trkpt>
<trkpt lat="53.337268" lon="06.626296"><ele>5.4</ele><time>2021-05-20T14:25:16Z</time><name>PT12038</name></trkpt>
<trkpt lat="53.337252" lon="06.626281"><ele>5.4</ele><time>2021-05-20T14:25:17Z</time><name>PT12039</name></trkpt>
<trkpt lat="53.337236" lon="06.626264"><ele>5.4</ele><time>2021-05-20T14:25:18Z</time><name>PT12040</name></trkpt>
<trkpt lat="53.337221" lon="06.626250"><ele>5.4</ele><time>2021-05-20T14:25:19Z</time><name>PT12041</name></trkpt>
<trkpt lat="53.337209" lon="06.626240"><ele>5.4</ele><time>2021-05-20T14:25:20Z</time><name>PT12042</name></trkpt>
<trkpt lat="53.337197" lon="06.626229"><ele>5.7</ele><time>2021-05-20T14:25:21Z</time><name>PT12043</name></trkpt>
<trkpt lat="53.337184" lon="06.626221"><ele>5.9</ele><time>2021-05-20T14:25:22Z</time><name>PT12044</name></trkpt>
<trkpt lat="53.337173" lon="06.626213"><ele>5.9</ele><time>2021-05-20T14:25:23Z</time><name>PT12045</name></trkpt>
<trkpt lat="53.337164" lon="06.626207"><ele>6</ele><time>2021-05-20T14:25:24Z</time><name>PT12046</name></trkpt>
<trkpt lat="53.337156" lon="06.626204"><ele>6</ele><time>2021-05-20T14:25:25Z</time><name>PT12047</name></trkpt>
<trkpt lat="53.337149" lon="06.626202"><ele>5.9</ele><time>2021-05-20T14:25:26Z</time><name>PT12048</name></trkpt>
<trkpt lat="53.337141" lon="06.626197"><ele>5.8</ele><time>2021-05-20T14:25:27Z</time><name>PT12049</name></trkpt>
<trkpt lat="53.337134" lon="06.626190"><ele>5.7</ele><time>2021-05-20T14:25:28Z</time><name>PT12050</name></trkpt>
<trkpt lat="53.337127" lon="06.626183"><ele>5.7</ele><time>2021-05-20T14:25:29Z</time><name>PT12051</name></trkpt>
<trkpt lat="53.337121" lon="06.626168"><ele>5.5</ele><time>2021-05-20T14:25:30Z</time><name>PT12052</name></trkpt>
<trkpt lat="53.337113" lon="06.626156"><ele>5.4</ele><time>2021-05-20T14:25:31Z</time><name>PT12053</name></trkpt>
<trkpt lat="53.337104" lon="06.626145"><ele>5.1</ele><time>2021-05-20T14:25:32Z</time><name>PT12054</name></trkpt>
<trkpt lat="53.337096" lon="06.626133"><ele>4.8</ele><time>2021-05-20T14:25:33Z</time><name>PT12055</name></trkpt>
<trkpt lat="53.337088" lon="06.626123"><ele>4.8</ele><time>2021-05-20T14:25:34Z</time><name>PT12056</name></trkpt>
<trkpt lat="53.337079" lon="06.626112"><ele>4.9</ele><time>2021-05-20T14:25:35Z</time><name>PT12057</name></trkpt>
<trkpt lat="53.337070" lon="06.626100"><ele>5</ele><time>2021-05-20T14:25:36Z</time><name>PT12058</name></trkpt>
<trkpt lat="53.337062" lon="06.626088"><ele>5</ele><time>2021-05-20T14:25:37Z</time><name>PT12059</name></trkpt>
<trkpt lat="53.337054" lon="06.626077"><ele>5</ele><time>2021-05-20T14:25:38Z</time><name>PT12060</name></trkpt>
<trkpt lat="53.337044" lon="06.626067"><ele>5</ele><time>2021-05-20T14:25:39Z</time><name>PT12061</name></trkpt>
<trkpt lat="53.337033" lon="06.626056"><ele>4.7</ele><time>2021-05-20T14:25:40Z</time><name>PT12062</name></trkpt>
<trkpt lat="53.337023" lon="06.626047"><ele>4.7</ele><time>2021-05-20T14:25:41Z</time><name>PT12063</name></trkpt>
<trkpt lat="53.337012" lon="06.626038"><ele>4.6</ele><time>2021-05-20T14:25:42Z</time><name>PT12064</name></trkpt>
<trkpt lat="53.337002" lon="06.626029"><ele>4.6</ele><time>2021-05-20T14:25:43Z</time><name>PT12065</name></trkpt>
<trkpt lat="53.336992" lon="06.626018"><ele>4.7</ele><time>2021-05-20T14:25:44Z</time><name>PT12066</name></trkpt>
<trkpt lat="53.336981" lon="06.626008"><ele>5</ele><time>2021-05-20T14:25:45Z</time><name>PT12067</name></trkpt>
<trkpt lat="53.336971" lon="06.626006"><ele>5</ele><time>2021-05-20T14:25:46Z</time><name>PT12068</name></trkpt>
<trkpt lat="53.336964" lon="06.626000"><ele>5</ele><time>2021-05-20T14:25:47Z</time><name>PT12069</name></trkpt>
<trkpt lat="53.336956" lon="06.625990"><ele>5</ele><time>2021-05-20T14:25:48Z</time><name>PT12070</name></trkpt>
<trkpt lat="53.336948" lon="06.625978"><ele>4.9</ele><time>2021-05-20T14:25:49Z</time><name>PT12071</name></trkpt>
<trkpt lat="53.336942" lon="06.625967"><ele>4.6</ele><time>2021-05-20T14:25:50Z</time><name>PT12072</name></trkpt>
<trkpt lat="53.336939" lon="06.625962"><ele>4.6</ele><time>2021-05-20T14:25:51Z</time><name>PT12073</name></trkpt>
<trkpt lat="53.336937" lon="06.625962"><ele>4.7</ele><time>2021-05-20T14:25:52Z</time><name>PT12074</name></trkpt>
<trkpt lat="53.336937" lon="06.625963"><ele>4.6</ele><time>2021-05-20T14:25:53Z</time><name>PT12075</name></trkpt>
<trkpt lat="53.336934" lon="06.625959"><ele>4.6</ele><time>2021-05-20T14:25:54Z</time><name>PT12076</name></trkpt>
<trkpt lat="53.336928" lon="06.625950"><ele>4.5</ele><time>2021-05-20T14:25:55Z</time><name>PT12077</name></trkpt>
<trkpt lat="53.336920" lon="06.625940"><ele>4.5</ele><time>2021-05-20T14:25:56Z</time><name>PT12078</name></trkpt>
<trkpt lat="53.336911" lon="06.625929"><ele>4.4</ele><time>2021-05-20T14:25:57Z</time><name>PT12079</name></trkpt>
<trkpt lat="53.336901" lon="06.625919"><ele>4.5</ele><time>2021-05-20T14:25:58Z</time><name>PT12080</name></trkpt>
<trkpt lat="53.336891" lon="06.625910"><ele>4.4</ele><time>2021-05-20T14:25:59Z</time><name>PT12081</name></trkpt>
<trkpt lat="53.336882" lon="06.625903"><ele>4.7</ele><time>2021-05-20T14:26:00Z</time><name>PT12082</name></trkpt>
<trkpt lat="53.336873" lon="06.625897"><ele>4.5</ele><time>2021-05-20T14:26:01Z</time><name>PT12083</name></trkpt>
<trkpt lat="53.336864" lon="06.625889"><ele>4.4</ele><time>2021-05-20T14:26:02Z</time><name>PT12084</name></trkpt>
<trkpt lat="53.336855" lon="06.625880"><ele>4.4</ele><time>2021-05-20T14:26:03Z</time><name>PT12085</name></trkpt>
<trkpt lat="53.336847" lon="06.625868"><ele>4.3</ele><time>2021-05-20T14:26:04Z</time><name>PT12086</name></trkpt>
<trkpt lat="53.336837" lon="06.625857"><ele>4.1</ele><time>2021-05-20T14:26:05Z</time><name>PT12087</name></trkpt>
<trkpt lat="53.336829" lon="06.625845"><ele>4.3</ele><time>2021-05-20T14:26:06Z</time><name>PT12088</name></trkpt>
<trkpt lat="53.336819" lon="06.625837"><ele>4.4</ele><time>2021-05-20T14:26:07Z</time><name>PT12089</name></trkpt>
<trkpt lat="53.336808" lon="06.625829"><ele>4.6</ele><time>2021-05-20T14:26:08Z</time><name>PT12090</name></trkpt>
<trkpt lat="53.336797" lon="06.625821"><ele>4.7</ele><time>2021-05-20T14:26:09Z</time><name>PT12091</name></trkpt>
<trkpt lat="53.336787" lon="06.625811"><ele>4.7</ele><time>2021-05-20T14:26:10Z</time><name>PT12092</name></trkpt>
<trkpt lat="53.336781" lon="06.625807"><ele>4.9</ele><time>2021-05-20T14:26:11Z</time><name>PT12093</name></trkpt>
<trkpt lat="53.336773" lon="06.625800"><ele>4.9</ele><time>2021-05-20T14:26:12Z</time><name>PT12094</name></trkpt>
<trkpt lat="53.336766" lon="06.625792"><ele>5</ele><time>2021-05-20T14:26:13Z</time><name>PT12095</name></trkpt>
<trkpt lat="53.336757" lon="06.625783"><ele>5.1</ele><time>2021-05-20T14:26:14Z</time><name>PT12096</name></trkpt>
<trkpt lat="53.336747" lon="06.625774"><ele>5.2</ele><time>2021-05-20T14:26:15Z</time><name>PT12097</name></trkpt>
<trkpt lat="53.336737" lon="06.625768"><ele>4.8</ele><time>2021-05-20T14:26:16Z</time><name>PT12098</name></trkpt>
<trkpt lat="53.336726" lon="06.625760"><ele>4.6</ele><time>2021-05-20T14:26:17Z</time><name>PT12099</name></trkpt>
<trkpt lat="53.336717" lon="06.625754"><ele>4.5</ele><time>2021-05-20T14:26:18Z</time><name>PT12100</name></trkpt>
<trkpt lat="53.336708" lon="06.625745"><ele>4.4</ele><time>2021-05-20T14:26:19Z</time><name>PT12101</name></trkpt>
<trkpt lat="53.336699" lon="06.625734"><ele>4.7</ele><time>2021-05-20T14:26:20Z</time><name>PT12102</name></trkpt>
<trkpt lat="53.336689" lon="06.625723"><ele>4.8</ele><time>2021-05-20T14:26:21Z</time><name>PT12103</name></trkpt>
<trkpt lat="53.336680" lon="06.625710"><ele>5</ele><time>2021-05-20T14:26:22Z</time><name>PT12104</name></trkpt>
<trkpt lat="53.336670" lon="06.625699"><ele>5</ele><time>2021-05-20T14:26:23Z</time><name>PT12105</name></trkpt>
<trkpt lat="53.336660" lon="06.625689"><ele>4.9</ele><time>2021-05-20T14:26:24Z</time><name>PT12106</name></trkpt>
<trkpt lat="53.336650" lon="06.625682"><ele>4.9</ele><time>2021-05-20T14:26:25Z</time><name>PT12107</name></trkpt>
<trkpt lat="53.336640" lon="06.625674"><ele>4.9</ele><time>2021-05-20T14:26:26Z</time><name>PT12108</name></trkpt>
<trkpt lat="53.336630" lon="06.625667"><ele>4.9</ele><time>2021-05-20T14:26:27Z</time><name>PT12109</name></trkpt>
<trkpt lat="53.336620" lon="06.625660"><ele>4.8</ele><time>2021-05-20T14:26:28Z</time><name>PT12110</name></trkpt>
<trkpt lat="53.336611" lon="06.625652"><ele>4.7</ele><time>2021-05-20T14:26:29Z</time><name>PT12111</name></trkpt>
<trkpt lat="53.336602" lon="06.625643"><ele>4.6</ele><time>2021-05-20T14:26:30Z</time><name>PT12112</name></trkpt>
<trkpt lat="53.336593" lon="06.625633"><ele>4.5</ele><time>2021-05-20T14:26:31Z</time><name>PT12113</name></trkpt>
<trkpt lat="53.336584" lon="06.625622"><ele>4.6</ele><time>2021-05-20T14:26:32Z</time><name>PT12114</name></trkpt>
<trkpt lat="53.336575" lon="06.625610"><ele>4.7</ele><time>2021-05-20T14:26:33Z</time><name>PT12115</name></trkpt>
<trkpt lat="53.336565" lon="06.625599"><ele>4.8</ele><time>2021-05-20T14:26:34Z</time><name>PT12116</name></trkpt>
<trkpt lat="53.336555" lon="06.625590"><ele>5</ele><time>2021-05-20T14:26:35Z</time><name>PT12117</name></trkpt>
<trkpt lat="53.336546" lon="06.625582"><ele>5.1</ele><time>2021-05-20T14:26:36Z</time><name>PT12118</name></trkpt>
<trkpt lat="53.336536" lon="06.625575"><ele>5.1</ele><time>2021-05-20T14:26:37Z</time><name>PT12119</name></trkpt>
<trkpt lat="53.336526" lon="06.625567"><ele>5.1</ele><time>2021-05-20T14:26:38Z</time><name>PT12120</name></trkpt>
<trkpt lat="53.336516" lon="06.625559"><ele>5</ele><time>2021-05-20T14:26:39Z</time><name>PT12121</name></trkpt>
<trkpt lat="53.336507" lon="06.625551"><ele>4.9</ele><time>2021-05-20T14:26:40Z</time><name>PT12122</name></trkpt>
<trkpt lat="53.336498" lon="06.625542"><ele>4.7</ele><time>2021-05-20T14:26:41Z</time><name>PT12123</name></trkpt>
<trkpt lat="53.336489" lon="06.625533"><ele>4.5</ele><time>2021-05-20T14:26:42Z</time><name>PT12124</name></trkpt>
<trkpt lat="53.336480" lon="06.625523"><ele>4.5</ele><time>2021-05-20T14:26:43Z</time><name>PT12125</name></trkpt>
<trkpt lat="53.336472" lon="06.625512"><ele>4.5</ele><time>2021-05-20T14:26:44Z</time><name>PT12126</name></trkpt>
<trkpt lat="53.336465" lon="06.625501"><ele>4.5</ele><time>2021-05-20T14:26:45Z</time><name>PT12127</name></trkpt>
<trkpt lat="53.336457" lon="06.625493"><ele>4.5</ele><time>2021-05-20T14:26:46Z</time><name>PT12128</name></trkpt>
<trkpt lat="53.336448" lon="06.625486"><ele>4.7</ele><time>2021-05-20T14:26:47Z</time><name>PT12129</name></trkpt>
<trkpt lat="53.336437" lon="06.625479"><ele>4.7</ele><time>2021-05-20T14:26:48Z</time><name>PT12130</name></trkpt>
<trkpt lat="53.336428" lon="06.625471"><ele>5</ele><time>2021-05-20T14:26:49Z</time><name>PT12131</name></trkpt>
<trkpt lat="53.336418" lon="06.625464"><ele>5.1</ele><time>2021-05-20T14:26:50Z</time><name>PT12132</name></trkpt>
<trkpt lat="53.336409" lon="06.625456"><ele>5.1</ele><time>2021-05-20T14:26:51Z</time><name>PT12133</name></trkpt>
<trkpt lat="53.336401" lon="06.625447"><ele>5.1</ele><time>2021-05-20T14:26:52Z</time><name>PT12134</name></trkpt>
<trkpt lat="53.336392" lon="06.625438"><ele>5</ele><time>2021-05-20T14:26:53Z</time><name>PT12135</name></trkpt>
<trkpt lat="53.336383" lon="06.625427"><ele>5</ele><time>2021-05-20T14:26:54Z</time><name>PT12136</name></trkpt>
<trkpt lat="53.336374" lon="06.625416"><ele>5.1</ele><time>2021-05-20T14:26:55Z</time><name>PT12137</name></trkpt>
<trkpt lat="53.336365" lon="06.625407"><ele>5</ele><time>2021-05-20T14:26:56Z</time><name>PT12138</name></trkpt>
<trkpt lat="53.336356" lon="06.625398"><ele>5</ele><time>2021-05-20T14:26:57Z</time><name>PT12139</name></trkpt>
<trkpt lat="53.336346" lon="06.625390"><ele>5</ele><time>2021-05-20T14:26:58Z</time><name>PT12140</name></trkpt>
<trkpt lat="53.336335" lon="06.625382"><ele>4.9</ele><time>2021-05-20T14:26:59Z</time><name>PT12141</name></trkpt>
<trkpt lat="53.336323" lon="06.625374"><ele>4.7</ele><time>2021-05-20T14:27:00Z</time><name>PT12142</name></trkpt>
<trkpt lat="53.336312" lon="06.625364"><ele>4.9</ele><time>2021-05-20T14:27:01Z</time><name>PT12143</name></trkpt>
<trkpt lat="53.336303" lon="06.625355"><ele>4.9</ele><time>2021-05-20T14:27:02Z</time><name>PT12144</name></trkpt>
<trkpt lat="53.336294" lon="06.625346"><ele>4.9</ele><time>2021-05-20T14:27:03Z</time><name>PT12145</name></trkpt>
<trkpt lat="53.336286" lon="06.625339"><ele>5</ele><time>2021-05-20T14:27:04Z</time><name>PT12146</name></trkpt>
<trkpt lat="53.336278" lon="06.625333"><ele>5</ele><time>2021-05-20T14:27:05Z</time><name>PT12147</name></trkpt>
<trkpt lat="53.336271" lon="06.625324"><ele>5</ele><time>2021-05-20T14:27:06Z</time><name>PT12148</name></trkpt>
<trkpt lat="53.336261" lon="06.625315"><ele>5</ele><time>2021-05-20T14:27:07Z</time><name>PT12149</name></trkpt>
<trkpt lat="53.336251" lon="06.625306"><ele>4.9</ele><time>2021-05-20T14:27:08Z</time><name>PT12150</name></trkpt>
<trkpt lat="53.336240" lon="06.625296"><ele>4.8</ele><time>2021-05-20T14:27:09Z</time><name>PT12151</name></trkpt>
<trkpt lat="53.336229" lon="06.625287"><ele>4.7</ele><time>2021-05-20T14:27:10Z</time><name>PT12152</name></trkpt>
<trkpt lat="53.336219" lon="06.625279"><ele>4.7</ele><time>2021-05-20T14:27:11Z</time><name>PT12153</name></trkpt>
<trkpt lat="53.336209" lon="06.625272"><ele>5</ele><time>2021-05-20T14:27:12Z</time><name>PT12154</name></trkpt>
<trkpt lat="53.336199" lon="06.625263"><ele>5</ele><time>2021-05-20T14:27:13Z</time><name>PT12155</name></trkpt>
<trkpt lat="53.336191" lon="06.625255"><ele>5.1</ele><time>2021-05-20T14:27:14Z</time><name>PT12156</name></trkpt>
<trkpt lat="53.336182" lon="06.625247"><ele>5</ele><time>2021-05-20T14:27:15Z</time><name>PT12157</name></trkpt>
<trkpt lat="53.336173" lon="06.625238"><ele>5</ele><time>2021-05-20T14:27:16Z</time><name>PT12158</name></trkpt>
<trkpt lat="53.336165" lon="06.625229"><ele>5</ele><time>2021-05-20T14:27:17Z</time><name>PT12159</name></trkpt>
<trkpt lat="53.336155" lon="06.625219"><ele>5.1</ele><time>2021-05-20T14:27:18Z</time><name>PT12160</name></trkpt>
<trkpt lat="53.336145" lon="06.625208"><ele>5.1</ele><time>2021-05-20T14:27:19Z</time><name>PT12161</name></trkpt>
<trkpt lat="53.336135" lon="06.625196"><ele>5.3</ele><time>2021-05-20T14:27:20Z</time><name>PT12162</name></trkpt>
<trkpt lat="53.336125" lon="06.625185"><ele>5.2</ele><time>2021-05-20T14:27:21Z</time><name>PT12163</name></trkpt>
<trkpt lat="53.336114" lon="06.625176"><ele>5.1</ele><time>2021-05-20T14:27:22Z</time><name>PT12164</name></trkpt>
<trkpt lat="53.336103" lon="06.625167"><ele>5.1</ele><time>2021-05-20T14:27:23Z</time><name>PT12165</name></trkpt>
<trkpt lat="53.336094" lon="06.625162"><ele>5</ele><time>2021-05-20T14:27:24Z</time><name>PT12166</name></trkpt>
<trkpt lat="53.336086" lon="06.625160"><ele>5</ele><time>2021-05-20T14:27:25Z</time><name>PT12167</name></trkpt>
<trkpt lat="53.336080" lon="06.625156"><ele>5</ele><time>2021-05-20T14:27:26Z</time><name>PT12168</name></trkpt>
<trkpt lat="53.336074" lon="06.625150"><ele>5</ele><time>2021-05-20T14:27:27Z</time><name>PT12169</name></trkpt>
<trkpt lat="53.336068" lon="06.625141"><ele>5</ele><time>2021-05-20T14:27:28Z</time><name>PT12170</name></trkpt>
<trkpt lat="53.336059" lon="06.625133"><ele>5</ele><time>2021-05-20T14:27:29Z</time><name>PT12171</name></trkpt>
<trkpt lat="53.336051" lon="06.625128"><ele>5</ele><time>2021-05-20T14:27:30Z</time><name>PT12172</name></trkpt>
<trkpt lat="53.336044" lon="06.625123"><ele>4.7</ele><time>2021-05-20T14:27:31Z</time><name>PT12173</name></trkpt>
<trkpt lat="53.336036" lon="06.625117"><ele>4.6</ele><time>2021-05-20T14:27:32Z</time><name>PT12174</name></trkpt>
<trkpt lat="53.336028" lon="06.625108"><ele>4.7</ele><time>2021-05-20T14:27:33Z</time><name>PT12175</name></trkpt>
<trkpt lat="53.336020" lon="06.625097"><ele>4.7</ele><time>2021-05-20T14:27:34Z</time><name>PT12176</name></trkpt>
<trkpt lat="53.336012" lon="06.625089"><ele>4.5</ele><time>2021-05-20T14:27:35Z</time><name>PT12177</name></trkpt>
<trkpt lat="53.336002" lon="06.625080"><ele>4.6</ele><time>2021-05-20T14:27:36Z</time><name>PT12178</name></trkpt>
<trkpt lat="53.335993" lon="06.625073"><ele>5</ele><time>2021-05-20T14:27:37Z</time><name>PT12179</name></trkpt>
<trkpt lat="53.335985" lon="06.625065"><ele>5</ele><time>2021-05-20T14:27:38Z</time><name>PT12180</name></trkpt>
<trkpt lat="53.335978" lon="06.625055"><ele>5.2</ele><time>2021-05-20T14:27:39Z</time><name>PT12181</name></trkpt>
<trkpt lat="53.335972" lon="06.625046"><ele>5.4</ele><time>2021-05-20T14:27:40Z</time><name>PT12182</name></trkpt>
<trkpt lat="53.335963" lon="06.625036"><ele>5.4</ele><time>2021-05-20T14:27:41Z</time><name>PT12183</name></trkpt>
<trkpt lat="53.335954" lon="06.625027"><ele>5.1</ele><time>2021-05-20T14:27:42Z</time><name>PT12184</name></trkpt>
<trkpt lat="53.335945" lon="06.625018"><ele>5.1</ele><time>2021-05-20T14:27:43Z</time><name>PT12185</name></trkpt>
<trkpt lat="53.335935" lon="06.625011"><ele>5.1</ele><time>2021-05-20T14:27:44Z</time><name>PT12186</name></trkpt>
<trkpt lat="53.335927" lon="06.625004"><ele>5.1</ele><time>2021-05-20T14:27:45Z</time><name>PT12187</name></trkpt>
<trkpt lat="53.335918" lon="06.624996"><ele>5.2</ele><time>2021-05-20T14:27:46Z</time><name>PT12188</name></trkpt>
<trkpt lat="53.335910" lon="06.624989"><ele>5.2</ele><time>2021-05-20T14:27:47Z</time><name>PT12189</name></trkpt>
<trkpt lat="53.335900" lon="06.624982"><ele>5.4</ele><time>2021-05-20T14:27:48Z</time><name>PT12190</name></trkpt>
<trkpt lat="53.335891" lon="06.624972"><ele>5.3</ele><time>2021-05-20T14:27:49Z</time><name>PT12191</name></trkpt>
<trkpt lat="53.335882" lon="06.624960"><ele>5.3</ele><time>2021-05-20T14:27:50Z</time><name>PT12192</name></trkpt>
<trkpt lat="53.335873" lon="06.624948"><ele>5.3</ele><time>2021-05-20T14:27:51Z</time><name>PT12193</name></trkpt>
<trkpt lat="53.335864" lon="06.624938"><ele>5.1</ele><time>2021-05-20T14:27:52Z</time><name>PT12194</name></trkpt>
<trkpt lat="53.335854" lon="06.624930"><ele>5.1</ele><time>2021-05-20T14:27:53Z</time><name>PT12195</name></trkpt>
<trkpt lat="53.335844" lon="06.624922"><ele>5.2</ele><time>2021-05-20T14:27:54Z</time><name>PT12196</name></trkpt>
<trkpt lat="53.335833" lon="06.624916"><ele>5.2</ele><time>2021-05-20T14:27:55Z</time><name>PT12197</name></trkpt>
<trkpt lat="53.335823" lon="06.624910"><ele>5.3</ele><time>2021-05-20T14:27:56Z</time><name>PT12198</name></trkpt>
<trkpt lat="53.335814" lon="06.624903"><ele>5.2</ele><time>2021-05-20T14:27:57Z</time><name>PT12199</name></trkpt>
<trkpt lat="53.335806" lon="06.624894"><ele>5.2</ele><time>2021-05-20T14:27:58Z</time><name>PT12200</name></trkpt>
<trkpt lat="53.335798" lon="06.624885"><ele>5.3</ele><time>2021-05-20T14:27:59Z</time><name>PT12201</name></trkpt>
<trkpt lat="53.335789" lon="06.624876"><ele>5.2</ele><time>2021-05-20T14:28:00Z</time><name>PT12202</name></trkpt>
<trkpt lat="53.335780" lon="06.624866"><ele>5.3</ele><time>2021-05-20T14:28:01Z</time><name>PT12203</name></trkpt>
<trkpt lat="53.335770" lon="06.624856"><ele>5.3</ele><time>2021-05-20T14:28:02Z</time><name>PT12204</name></trkpt>
<trkpt lat="53.335761" lon="06.624850"><ele>5.4</ele><time>2021-05-20T14:28:03Z</time><name>PT12205</name></trkpt>
<trkpt lat="53.335751" lon="06.624845"><ele>5.1</ele><time>2021-05-20T14:28:04Z</time><name>PT12206</name></trkpt>
<trkpt lat="53.335740" lon="06.624837"><ele>5.1</ele><time>2021-05-20T14:28:05Z</time><name>PT12207</name></trkpt>
<trkpt lat="53.335730" lon="06.624828"><ele>5</ele><time>2021-05-20T14:28:06Z</time><name>PT12208</name></trkpt>
<trkpt lat="53.335720" lon="06.624821"><ele>5</ele><time>2021-05-20T14:28:07Z</time><name>PT12209</name></trkpt>
<trkpt lat="53.335711" lon="06.624815"><ele>5</ele><time>2021-05-20T14:28:08Z</time><name>PT12210</name></trkpt>
<trkpt lat="53.335704" lon="06.624808"><ele>5.1</ele><time>2021-05-20T14:28:09Z</time><name>PT12211</name></trkpt>
<trkpt lat="53.335697" lon="06.624800"><ele>5</ele><time>2021-05-20T14:28:10Z</time><name>PT12212</name></trkpt>
<trkpt lat="53.335689" lon="06.624790"><ele>5</ele><time>2021-05-20T14:28:11Z</time><name>PT12213</name></trkpt>
<trkpt lat="53.335682" lon="06.624780"><ele>5.3</ele><time>2021-05-20T14:28:12Z</time><name>PT12214</name></trkpt>
<trkpt lat="53.335674" lon="06.624771"><ele>5.3</ele><time>2021-05-20T14:28:13Z</time><name>PT12215</name></trkpt>
<trkpt lat="53.335665" lon="06.624763"><ele>5.3</ele><time>2021-05-20T14:28:14Z</time><name>PT12216</name></trkpt>
<trkpt lat="53.335658" lon="06.624754"><ele>5.2</ele><time>2021-05-20T14:28:15Z</time><name>PT12217</name></trkpt>
<trkpt lat="53.335652" lon="06.624744"><ele>5.2</ele><time>2021-05-20T14:28:16Z</time><name>PT12218</name></trkpt>
<trkpt lat="53.335646" lon="06.624732"><ele>5.1</ele><time>2021-05-20T14:28:17Z</time><name>PT12219</name></trkpt>
<trkpt lat="53.335639" lon="06.624721"><ele>5.3</ele><time>2021-05-20T14:28:18Z</time><name>PT12220</name></trkpt>
<trkpt lat="53.335630" lon="06.624712"><ele>5.3</ele><time>2021-05-20T14:28:19Z</time><name>PT12221</name></trkpt>
<trkpt lat="53.335621" lon="06.624702"><ele>5.2</ele><time>2021-05-20T14:28:20Z</time><name>PT12222</name></trkpt>
<trkpt lat="53.335612" lon="06.624693"><ele>5.4</ele><time>2021-05-20T14:28:21Z</time><name>PT12223</name></trkpt>
<trkpt lat="53.335604" lon="06.624686"><ele>5.4</ele><time>2021-05-20T14:28:22Z</time><name>PT12224</name></trkpt>
<trkpt lat="53.335596" lon="06.624679"><ele>5.4</ele><time>2021-05-20T14:28:23Z</time><name>PT12225</name></trkpt>
<trkpt lat="53.335588" lon="06.624671"><ele>5.6</ele><time>2021-05-20T14:28:24Z</time><name>PT12226</name></trkpt>
<trkpt lat="53.335578" lon="06.624660"><ele>5.6</ele><time>2021-05-20T14:28:25Z</time><name>PT12227</name></trkpt>
<trkpt lat="53.335569" lon="06.624650"><ele>5.6</ele><time>2021-05-20T14:28:26Z</time><name>PT12228</name></trkpt>
<trkpt lat="53.335559" lon="06.624641"><ele>5.6</ele><time>2021-05-20T14:28:27Z</time><name>PT12229</name></trkpt>
<trkpt lat="53.335550" lon="06.624634"><ele>5.5</ele><time>2021-05-20T14:28:28Z</time><name>PT12230</name></trkpt>
<trkpt lat="53.335540" lon="06.624627"><ele>5.4</ele><time>2021-05-20T14:28:29Z</time><name>PT12231</name></trkpt>
<trkpt lat="53.335532" lon="06.624620"><ele>5.6</ele><time>2021-05-20T14:28:30Z</time><name>PT12232</name></trkpt>
<trkpt lat="53.335523" lon="06.624613"><ele>5.6</ele><time>2021-05-20T14:28:31Z</time><name>PT12233</name></trkpt>
<trkpt lat="53.335513" lon="06.624604"><ele>5.5</ele><time>2021-05-20T14:28:32Z</time><name>PT12234</name></trkpt>
<trkpt lat="53.335504" lon="06.624595"><ele>5.6</ele><time>2021-05-20T14:28:33Z</time><name>PT12235</name></trkpt>
<trkpt lat="53.335495" lon="06.624583"><ele>5.9</ele><time>2021-05-20T14:28:34Z</time><name>PT12236</name></trkpt>
<trkpt lat="53.335487" lon="06.624571"><ele>5.9</ele><time>2021-05-20T14:28:35Z</time><name>PT12237</name></trkpt>
<trkpt lat="53.335477" lon="06.624562"><ele>6</ele><time>2021-05-20T14:28:36Z</time><name>PT12238</name></trkpt>
<trkpt lat="53.335466" lon="06.624552"><ele>6</ele><time>2021-05-20T14:28:37Z</time><name>PT12239</name></trkpt>
<trkpt lat="53.335456" lon="06.624544"><ele>6</ele><time>2021-05-20T14:28:38Z</time><name>PT12240</name></trkpt>
<trkpt lat="53.335446" lon="06.624535"><ele>5.7</ele><time>2021-05-20T14:28:39Z</time><name>PT12241</name></trkpt>
<trkpt lat="53.335436" lon="06.624529"><ele>5.7</ele><time>2021-05-20T14:28:40Z</time><name>PT12242</name></trkpt>
<trkpt lat="53.335427" lon="06.624522"><ele>5.6</ele><time>2021-05-20T14:28:41Z</time><name>PT12243</name></trkpt>
<trkpt lat="53.335418" lon="06.624514"><ele>5.4</ele><time>2021-05-20T14:28:42Z</time><name>PT12244</name></trkpt>
<trkpt lat="53.335409" lon="06.624504"><ele>5.5</ele><time>2021-05-20T14:28:43Z</time><name>PT12245</name></trkpt>
<trkpt lat="53.335401" lon="06.624493"><ele>5.5</ele><time>2021-05-20T14:28:44Z</time><name>PT12246</name></trkpt>
<trkpt lat="53.335391" lon="06.624483"><ele>5.6</ele><time>2021-05-20T14:28:45Z</time><name>PT12247</name></trkpt>
<trkpt lat="53.335381" lon="06.624474"><ele>5.6</ele><time>2021-05-20T14:28:46Z</time><name>PT12248</name></trkpt>
<trkpt lat="53.335370" lon="06.624467"><ele>5.6</ele><time>2021-05-20T14:28:47Z</time><name>PT12249</name></trkpt>
<trkpt lat="53.335361" lon="06.624461"><ele>5.4</ele><time>2021-05-20T14:28:48Z</time><name>PT12250</name></trkpt>
<trkpt lat="53.335354" lon="06.624453"><ele>5.4</ele><time>2021-05-20T14:28:49Z</time><name>PT12251</name></trkpt>
<trkpt lat="53.335347" lon="06.624443"><ele>5.4</ele><time>2021-05-20T14:28:50Z</time><name>PT12252</name></trkpt>
<trkpt lat="53.335339" lon="06.624433"><ele>5.3</ele><time>2021-05-20T14:28:51Z</time><name>PT12253</name></trkpt>
<trkpt lat="53.335330" lon="06.624422"><ele>5.4</ele><time>2021-05-20T14:28:52Z</time><name>PT12254</name></trkpt>
<trkpt lat="53.335321" lon="06.624413"><ele>5.4</ele><time>2021-05-20T14:28:53Z</time><name>PT12255</name></trkpt>
<trkpt lat="53.335312" lon="06.624406"><ele>5.3</ele><time>2021-05-20T14:28:54Z</time><name>PT12256</name></trkpt>
<trkpt lat="53.335303" lon="06.624402"><ele>5.6</ele><time>2021-05-20T14:28:55Z</time><name>PT12257</name></trkpt>
<trkpt lat="53.335295" lon="06.624394"><ele>5.7</ele><time>2021-05-20T14:28:56Z</time><name>PT12258</name></trkpt>
<trkpt lat="53.335286" lon="06.624385"><ele>5.8</ele><time>2021-05-20T14:28:57Z</time><name>PT12259</name></trkpt>
<trkpt lat="53.335276" lon="06.624374"><ele>5.9</ele><time>2021-05-20T14:28:58Z</time><name>PT12260</name></trkpt>
<trkpt lat="53.335265" lon="06.624365"><ele>6</ele><time>2021-05-20T14:28:59Z</time><name>PT12261</name></trkpt>
<trkpt lat="53.335256" lon="06.624356"><ele>5.9</ele><time>2021-05-20T14:29:00Z</time><name>PT12262</name></trkpt>
<trkpt lat="53.335245" lon="06.624346"><ele>5.7</ele><time>2021-05-20T14:29:01Z</time><name>PT12263</name></trkpt>
<trkpt lat="53.335235" lon="06.624337"><ele>5.7</ele><time>2021-05-20T14:29:02Z</time><name>PT12264</name></trkpt>
<trkpt lat="53.335227" lon="06.624329"><ele>5.5</ele><time>2021-05-20T14:29:03Z</time><name>PT12265</name></trkpt>
<trkpt lat="53.335220" lon="06.624320"><ele>5.6</ele><time>2021-05-20T14:29:04Z</time><name>PT12266</name></trkpt>
<trkpt lat="53.335211" lon="06.624310"><ele>5.5</ele><time>2021-05-20T14:29:05Z</time><name>PT12267</name></trkpt>
<trkpt lat="53.335203" lon="06.624299"><ele>5.3</ele><time>2021-05-20T14:29:06Z</time><name>PT12268</name></trkpt>
<trkpt lat="53.335194" lon="06.624290"><ele>5.1</ele><time>2021-05-20T14:29:07Z</time><name>PT12269</name></trkpt>
<trkpt lat="53.335184" lon="06.624282"><ele>5.2</ele><time>2021-05-20T14:29:08Z</time><name>PT12270</name></trkpt>
<trkpt lat="53.335175" lon="06.624274"><ele>5.2</ele><time>2021-05-20T14:29:09Z</time><name>PT12271</name></trkpt>
<trkpt lat="53.335166" lon="06.624267"><ele>5.3</ele><time>2021-05-20T14:29:10Z</time><name>PT12272</name></trkpt>
<trkpt lat="53.335158" lon="06.624260"><ele>5.5</ele><time>2021-05-20T14:29:11Z</time><name>PT12273</name></trkpt>
<trkpt lat="53.335149" lon="06.624252"><ele>5.6</ele><time>2021-05-20T14:29:12Z</time><name>PT12274</name></trkpt>
<trkpt lat="53.335142" lon="06.624244"><ele>5.4</ele><time>2021-05-20T14:29:13Z</time><name>PT12275</name></trkpt>
<trkpt lat="53.335133" lon="06.624234"><ele>5.5</ele><time>2021-05-20T14:29:14Z</time><name>PT12276</name></trkpt>
<trkpt lat="53.335124" lon="06.624225"><ele>5.4</ele><time>2021-05-20T14:29:15Z</time><name>PT12277</name></trkpt>
<trkpt lat="53.335113" lon="06.624215"><ele>5.4</ele><time>2021-05-20T14:29:16Z</time><name>PT12278</name></trkpt>
<trkpt lat="53.335103" lon="06.624204"><ele>5.3</ele><time>2021-05-20T14:29:17Z</time><name>PT12279</name></trkpt>
<trkpt lat="53.335092" lon="06.624193"><ele>5.3</ele><time>2021-05-20T14:29:18Z</time><name>PT12280</name></trkpt>
<trkpt lat="53.335083" lon="06.624183"><ele>5.3</ele><time>2021-05-20T14:29:19Z</time><name>PT12281</name></trkpt>
<trkpt lat="53.335073" lon="06.624173"><ele>5</ele><time>2021-05-20T14:29:20Z</time><name>PT12282</name></trkpt>
<trkpt lat="53.335064" lon="06.624165"><ele>5</ele><time>2021-05-20T14:29:21Z</time><name>PT12283</name></trkpt>
<trkpt lat="53.335057" lon="06.624157"><ele>5</ele><time>2021-05-20T14:29:22Z</time><name>PT12284</name></trkpt>
<trkpt lat="53.335049" lon="06.624151"><ele>5</ele><time>2021-05-20T14:29:23Z</time><name>PT12285</name></trkpt>
<trkpt lat="53.335039" lon="06.624141"><ele>5.3</ele><time>2021-05-20T14:29:24Z</time><name>PT12286</name></trkpt>
<trkpt lat="53.335030" lon="06.624130"><ele>5.3</ele><time>2021-05-20T14:29:25Z</time><name>PT12287</name></trkpt>
<trkpt lat="53.335021" lon="06.624118"><ele>5.5</ele><time>2021-05-20T14:29:26Z</time><name>PT12288</name></trkpt>
<trkpt lat="53.335012" lon="06.624106"><ele>5.7</ele><time>2021-05-20T14:29:27Z</time><name>PT12289</name></trkpt>
<trkpt lat="53.335002" lon="06.624096"><ele>5.7</ele><time>2021-05-20T14:29:28Z</time><name>PT12290</name></trkpt>
<trkpt lat="53.334991" lon="06.624088"><ele>5.9</ele><time>2021-05-20T14:29:29Z</time><name>PT12291</name></trkpt>
<trkpt lat="53.334982" lon="06.624081"><ele>5.8</ele><time>2021-05-20T14:29:30Z</time><name>PT12292</name></trkpt>
<trkpt lat="53.334973" lon="06.624074"><ele>5.8</ele><time>2021-05-20T14:29:31Z</time><name>PT12293</name></trkpt>
<trkpt lat="53.334964" lon="06.624067"><ele>5.6</ele><time>2021-05-20T14:29:32Z</time><name>PT12294</name></trkpt>
<trkpt lat="53.334955" lon="06.624058"><ele>5.6</ele><time>2021-05-20T14:29:33Z</time><name>PT12295</name></trkpt>
<trkpt lat="53.334946" lon="06.624047"><ele>5.6</ele><time>2021-05-20T14:29:34Z</time><name>PT12296</name></trkpt>
<trkpt lat="53.334936" lon="06.624036"><ele>5.4</ele><time>2021-05-20T14:29:35Z</time><name>PT12297</name></trkpt>
<trkpt lat="53.334927" lon="06.624023"><ele>5.4</ele><time>2021-05-20T14:29:36Z</time><name>PT12298</name></trkpt>
<trkpt lat="53.334918" lon="06.624012"><ele>5.5</ele><time>2021-05-20T14:29:37Z</time><name>PT12299</name></trkpt>
<trkpt lat="53.334908" lon="06.624003"><ele>5.6</ele><time>2021-05-20T14:29:38Z</time><name>PT12300</name></trkpt>
<trkpt lat="53.334898" lon="06.623995"><ele>5.7</ele><time>2021-05-20T14:29:39Z</time><name>PT12301</name></trkpt>
<trkpt lat="53.334888" lon="06.623986"><ele>5.8</ele><time>2021-05-20T14:29:40Z</time><name>PT12302</name></trkpt>
<trkpt lat="53.334878" lon="06.623978"><ele>5.7</ele><time>2021-05-20T14:29:41Z</time><name>PT12303</name></trkpt>
<trkpt lat="53.334868" lon="06.623970"><ele>5.5</ele><time>2021-05-20T14:29:42Z</time><name>PT12304</name></trkpt>
<trkpt lat="53.334858" lon="06.623962"><ele>5.4</ele><time>2021-05-20T14:29:43Z</time><name>PT12305</name></trkpt>
<trkpt lat="53.334848" lon="06.623953"><ele>5.3</ele><time>2021-05-20T14:29:44Z</time><name>PT12306</name></trkpt>
<trkpt lat="53.334837" lon="06.623943"><ele>5.3</ele><time>2021-05-20T14:29:45Z</time><name>PT12307</name></trkpt>
<trkpt lat="53.334825" lon="06.623933"><ele>5.4</ele><time>2021-05-20T14:29:46Z</time><name>PT12308</name></trkpt>
<trkpt lat="53.334814" lon="06.623922"><ele>5.5</ele><time>2021-05-20T14:29:47Z</time><name>PT12309</name></trkpt>
<trkpt lat="53.334803" lon="06.623910"><ele>5.5</ele><time>2021-05-20T14:29:48Z</time><name>PT12310</name></trkpt>
<trkpt lat="53.334792" lon="06.623899"><ele>5.5</ele><time>2021-05-20T14:29:49Z</time><name>PT12311</name></trkpt>
<trkpt lat="53.334781" lon="06.623886"><ele>5.5</ele><time>2021-05-20T14:29:50Z</time><name>PT12312</name></trkpt>
<trkpt lat="53.334769" lon="06.623874"><ele>5.6</ele><time>2021-05-20T14:29:51Z</time><name>PT12313</name></trkpt>
<trkpt lat="53.334758" lon="06.623861"><ele>5.5</ele><time>2021-05-20T14:29:52Z</time><name>PT12314</name></trkpt>
<trkpt lat="53.334746" lon="06.623847"><ele>5.8</ele><time>2021-05-20T14:29:53Z</time><name>PT12315</name></trkpt>
<trkpt lat="53.334734" lon="06.623837"><ele>5.9</ele><time>2021-05-20T14:29:54Z</time><name>PT12316</name></trkpt>
<trkpt lat="53.334724" lon="06.623826"><ele>6</ele><time>2021-05-20T14:29:55Z</time><name>PT12317</name></trkpt>
<trkpt lat="53.334713" lon="06.623813"><ele>6.1</ele><time>2021-05-20T14:29:56Z</time><name>PT12318</name></trkpt>
<trkpt lat="53.334703" lon="06.623801"><ele>5.9</ele><time>2021-05-20T14:29:57Z</time><name>PT12319</name></trkpt>
<trkpt lat="53.334691" lon="06.623786"><ele>5.7</ele><time>2021-05-20T14:29:58Z</time><name>PT12320</name></trkpt>
<trkpt lat="53.334678" lon="06.623770"><ele>5.6</ele><time>2021-05-20T14:29:59Z</time><name>PT12321</name></trkpt>
<trkpt lat="53.334665" lon="06.623752"><ele>5.7</ele><time>2021-05-20T14:30:00Z</time><name>PT12322</name></trkpt>
<trkpt lat="53.334652" lon="06.623735"><ele>5.6</ele><time>2021-05-20T14:30:01Z</time><name>PT12323</name></trkpt>
<trkpt lat="53.334640" lon="06.623721"><ele>5.5</ele><time>2021-05-20T14:30:02Z</time><name>PT12324</name></trkpt>
<trkpt lat="53.334629" lon="06.623708"><ele>5.6</ele><time>2021-05-20T14:30:03Z</time><name>PT12325</name></trkpt>
<trkpt lat="53.334617" lon="06.623694"><ele>5.6</ele><time>2021-05-20T14:30:04Z</time><name>PT12326</name></trkpt>
<trkpt lat="53.334605" lon="06.623679"><ele>5.5</ele><time>2021-05-20T14:30:05Z</time><name>PT12327</name></trkpt>
<trkpt lat="53.334594" lon="06.623666"><ele>5.8</ele><time>2021-05-20T14:30:06Z</time><name>PT12328</name></trkpt>
<trkpt lat="53.334582" lon="06.623653"><ele>5.9</ele><time>2021-05-20T14:30:07Z</time><name>PT12329</name></trkpt>
<trkpt lat="53.334571" lon="06.623639"><ele>5.9</ele><time>2021-05-20T14:30:08Z</time><name>PT12330</name></trkpt>
<trkpt lat="53.334560" lon="06.623625"><ele>5.9</ele><time>2021-05-20T14:30:09Z</time><name>PT12331</name></trkpt>
<trkpt lat="53.334548" lon="06.623611"><ele>5.9</ele><time>2021-05-20T14:30:10Z</time><name>PT12332</name></trkpt>
<trkpt lat="53.334536" lon="06.623598"><ele>5.9</ele><time>2021-05-20T14:30:11Z</time><name>PT12333</name></trkpt>
<trkpt lat="53.334523" lon="06.623585"><ele>5.9</ele><time>2021-05-20T14:30:12Z</time><name>PT12334</name></trkpt>
<trkpt lat="53.334510" lon="06.623570"><ele>6</ele><time>2021-05-20T14:30:13Z</time><name>PT12335</name></trkpt>
<trkpt lat="53.334497" lon="06.623557"><ele>6.1</ele><time>2021-05-20T14:30:14Z</time><name>PT12336</name></trkpt>
<trkpt lat="53.334484" lon="06.623545"><ele>6</ele><time>2021-05-20T14:30:15Z</time><name>PT12337</name></trkpt>
<trkpt lat="53.334473" lon="06.623538"><ele>5.9</ele><time>2021-05-20T14:30:16Z</time><name>PT12338</name></trkpt>
<trkpt lat="53.334466" lon="06.623537"><ele>6</ele><time>2021-05-20T14:30:17Z</time><name>PT12339</name></trkpt>
<trkpt lat="53.334464" lon="06.623535"><ele>5.7</ele><time>2021-05-20T14:30:18Z</time><name>PT12340</name></trkpt>
<trkpt lat="53.334463" lon="06.623535"><ele>5.8</ele><time>2021-05-20T14:30:19Z</time><name>PT12341</name></trkpt>
<trkpt lat="53.334461" lon="06.623535"><ele>5.8</ele><time>2021-05-20T14:30:20Z</time><name>PT12342</name></trkpt>
<trkpt lat="53.334461" lon="06.623548"><ele>5.9</ele><time>2021-05-20T14:30:23Z</time><name>PT12343</name></trkpt>
<trkpt lat="53.334451" lon="06.623544"><ele>5.9</ele><time>2021-05-20T14:30:24Z</time><name>PT12344</name></trkpt>
<trkpt lat="53.334443" lon="06.623533"><ele>5.8</ele><time>2021-05-20T14:30:25Z</time><name>PT12345</name></trkpt>
<trkpt lat="53.334435" lon="06.623523"><ele>5.8</ele><time>2021-05-20T14:30:26Z</time><name>PT12346</name></trkpt>
<trkpt lat="53.334427" lon="06.623518"><ele>5.9</ele><time>2021-05-20T14:30:27Z</time><name>PT12347</name></trkpt>
<trkpt lat="53.334418" lon="06.623515"><ele>5.8</ele><time>2021-05-20T14:30:28Z</time><name>PT12348</name></trkpt>
<trkpt lat="53.334413" lon="06.623506"><ele>6</ele><time>2021-05-20T14:30:29Z</time><name>PT12349</name></trkpt>
<trkpt lat="53.334405" lon="06.623496"><ele>6.1</ele><time>2021-05-20T14:30:30Z</time><name>PT12350</name></trkpt>
<trkpt lat="53.334396" lon="06.623484"><ele>6</ele><time>2021-05-20T14:30:31Z</time><name>PT12351</name></trkpt>
<trkpt lat="53.334386" lon="06.623472"><ele>6</ele><time>2021-05-20T14:30:32Z</time><name>PT12352</name></trkpt>
<trkpt lat="53.334376" lon="06.623460"><ele>6.2</ele><time>2021-05-20T14:30:33Z</time><name>PT12353</name></trkpt>
<trkpt lat="53.334365" lon="06.623452"><ele>6.1</ele><time>2021-05-20T14:30:34Z</time><name>PT12354</name></trkpt>
<trkpt lat="53.334357" lon="06.623443"><ele>6</ele><time>2021-05-20T14:30:35Z</time><name>PT12355</name></trkpt>
<trkpt lat="53.334349" lon="06.623438"><ele>6.4</ele><time>2021-05-20T14:30:36Z</time><name>PT12356</name></trkpt>
<trkpt lat="53.334341" lon="06.623431"><ele>6.2</ele><time>2021-05-20T14:30:37Z</time><name>PT12357</name></trkpt>
<trkpt lat="53.334333" lon="06.623420"><ele>6.1</ele><time>2021-05-20T14:30:38Z</time><name>PT12358</name></trkpt>
<trkpt lat="53.334323" lon="06.623407"><ele>6</ele><time>2021-05-20T14:30:39Z</time><name>PT12359</name></trkpt>
<trkpt lat="53.334314" lon="06.623395"><ele>5.9</ele><time>2021-05-20T14:30:40Z</time><name>PT12360</name></trkpt>
<trkpt lat="53.334304" lon="06.623387"><ele>5.9</ele><time>2021-05-20T14:30:41Z</time><name>PT12361</name></trkpt>
<trkpt lat="53.334293" lon="06.623383"><ele>6</ele><time>2021-05-20T14:30:42Z</time><name>PT12362</name></trkpt>
<trkpt lat="53.334284" lon="06.623379"><ele>6</ele><time>2021-05-20T14:30:43Z</time><name>PT12363</name></trkpt>
<trkpt lat="53.334274" lon="06.623373"><ele>5.9</ele><time>2021-05-20T14:30:44Z</time><name>PT12364</name></trkpt>
<trkpt lat="53.334266" lon="06.623367"><ele>5.9</ele><time>2021-05-20T14:30:45Z</time><name>PT12365</name></trkpt>
<trkpt lat="53.334257" lon="06.623354"><ele>5.9</ele><time>2021-05-20T14:30:46Z</time><name>PT12366</name></trkpt>
<trkpt lat="53.334248" lon="06.623343"><ele>5.9</ele><time>2021-05-20T14:30:47Z</time><name>PT12367</name></trkpt>
<trkpt lat="53.334238" lon="06.623334"><ele>5.9</ele><time>2021-05-20T14:30:48Z</time><name>PT12368</name></trkpt>
<trkpt lat="53.334228" lon="06.623327"><ele>6</ele><time>2021-05-20T14:30:49Z</time><name>PT12369</name></trkpt>
<trkpt lat="53.334220" lon="06.623321"><ele>5.8</ele><time>2021-05-20T14:30:50Z</time><name>PT12370</name></trkpt>
<trkpt lat="53.334212" lon="06.623316"><ele>5.9</ele><time>2021-05-20T14:30:51Z</time><name>PT12371</name></trkpt>
<trkpt lat="53.334204" lon="06.623308"><ele>5.9</ele><time>2021-05-20T14:30:52Z</time><name>PT12372</name></trkpt>
<trkpt lat="53.334197" lon="06.623297"><ele>5.9</ele><time>2021-05-20T14:30:53Z</time><name>PT12373</name></trkpt>
<trkpt lat="53.334188" lon="06.623287"><ele>6</ele><time>2021-05-20T14:30:54Z</time><name>PT12374</name></trkpt>
<trkpt lat="53.334178" lon="06.623278"><ele>6.1</ele><time>2021-05-20T14:30:55Z</time><name>PT12375</name></trkpt>
<trkpt lat="53.334169" lon="06.623271"><ele>6</ele><time>2021-05-20T14:30:56Z</time><name>PT12376</name></trkpt>
<trkpt lat="53.334161" lon="06.623267"><ele>5.9</ele><time>2021-05-20T14:30:57Z</time><name>PT12377</name></trkpt>
<trkpt lat="53.334156" lon="06.623264"><ele>5.9</ele><time>2021-05-20T14:30:58Z</time><name>PT12378</name></trkpt>
<trkpt lat="53.334150" lon="06.623260"><ele>5.9</ele><time>2021-05-20T14:30:59Z</time><name>PT12379</name></trkpt>
<trkpt lat="53.334144" lon="06.623256"><ele>5.8</ele><time>2021-05-20T14:31:00Z</time><name>PT12380</name></trkpt>
<trkpt lat="53.334138" lon="06.623250"><ele>5.9</ele><time>2021-05-20T14:31:01Z</time><name>PT12381</name></trkpt>
<trkpt lat="53.334133" lon="06.623238"><ele>5.8</ele><time>2021-05-20T14:31:02Z</time><name>PT12382</name></trkpt>
<trkpt lat="53.334126" lon="06.623226"><ele>5.8</ele><time>2021-05-20T14:31:03Z</time><name>PT12383</name></trkpt>
<trkpt lat="53.334117" lon="06.623216"><ele>5.9</ele><time>2021-05-20T14:31:04Z</time><name>PT12384</name></trkpt>
<trkpt lat="53.334109" lon="06.623208"><ele>6</ele><time>2021-05-20T14:31:05Z</time><name>PT12385</name></trkpt>
<trkpt lat="53.334101" lon="06.623201"><ele>6</ele><time>2021-05-20T14:31:06Z</time><name>PT12386</name></trkpt>
<trkpt lat="53.334093" lon="06.623196"><ele>6</ele><time>2021-05-20T14:31:07Z</time><name>PT12387</name></trkpt>
<trkpt lat="53.334085" lon="06.623187"><ele>6.2</ele><time>2021-05-20T14:31:08Z</time><name>PT12388</name></trkpt>
<trkpt lat="53.334077" lon="06.623178"><ele>6.1</ele><time>2021-05-20T14:31:09Z</time><name>PT12389</name></trkpt>
<trkpt lat="53.334068" lon="06.623168"><ele>6.1</ele><time>2021-05-20T14:31:10Z</time><name>PT12390</name></trkpt>
<trkpt lat="53.334058" lon="06.623162"><ele>6.1</ele><time>2021-05-20T14:31:11Z</time><name>PT12391</name></trkpt>
<trkpt lat="53.334050" lon="06.623158"><ele>6.1</ele><time>2021-05-20T14:31:12Z</time><name>PT12392</name></trkpt>
<trkpt lat="53.334042" lon="06.623152"><ele>6</ele><time>2021-05-20T14:31:13Z</time><name>PT12393</name></trkpt>
<trkpt lat="53.334033" lon="06.623144"><ele>6.1</ele><time>2021-05-20T14:31:14Z</time><name>PT12394</name></trkpt>
<trkpt lat="53.334023" lon="06.623136"><ele>6.1</ele><time>2021-05-20T14:31:15Z</time><name>PT12395</name></trkpt>
<trkpt lat="53.334014" lon="06.623126"><ele>6</ele><time>2021-05-20T14:31:16Z</time><name>PT12396</name></trkpt>
<trkpt lat="53.334004" lon="06.623117"><ele>6.1</ele><time>2021-05-20T14:31:17Z</time><name>PT12397</name></trkpt>
<trkpt lat="53.333995" lon="06.623110"><ele>6.1</ele><time>2021-05-20T14:31:18Z</time><name>PT12398</name></trkpt>
<trkpt lat="53.333985" lon="06.623106"><ele>6.2</ele><time>2021-05-20T14:31:19Z</time><name>PT12399</name></trkpt>
<trkpt lat="53.333977" lon="06.623099"><ele>6.2</ele><time>2021-05-20T14:31:20Z</time><name>PT12400</name></trkpt>
<trkpt lat="53.333968" lon="06.623090"><ele>6.1</ele><time>2021-05-20T14:31:21Z</time><name>PT12401</name></trkpt>
<trkpt lat="53.333959" lon="06.623082"><ele>6</ele><time>2021-05-20T14:31:22Z</time><name>PT12402</name></trkpt>
<trkpt lat="53.333949" lon="06.623075"><ele>5.9</ele><time>2021-05-20T14:31:23Z</time><name>PT12403</name></trkpt>
<trkpt lat="53.333939" lon="06.623066"><ele>5.9</ele><time>2021-05-20T14:31:24Z</time><name>PT12404</name></trkpt>
<trkpt lat="53.333931" lon="06.623059"><ele>5.9</ele><time>2021-05-20T14:31:25Z</time><name>PT12405</name></trkpt>
<trkpt lat="53.333925" lon="06.623051"><ele>5.9</ele><time>2021-05-20T14:31:26Z</time><name>PT12406</name></trkpt>
<trkpt lat="53.333918" lon="06.623040"><ele>6</ele><time>2021-05-20T14:31:27Z</time><name>PT12407</name></trkpt>
<trkpt lat="53.333910" lon="06.623030"><ele>5.9</ele><time>2021-05-20T14:31:28Z</time><name>PT12408</name></trkpt>
<trkpt lat="53.333900" lon="06.623020"><ele>6</ele><time>2021-05-20T14:31:29Z</time><name>PT12409</name></trkpt>
<trkpt lat="53.333888" lon="06.623022"><ele>5.9</ele><time>2021-05-20T14:31:30Z</time><name>PT12410</name></trkpt>
<trkpt lat="53.333879" lon="06.623014"><ele>6.1</ele><time>2021-05-20T14:31:31Z</time><name>PT12411</name></trkpt>
<trkpt lat="53.333870" lon="06.623008"><ele>6</ele><time>2021-05-20T14:31:32Z</time><name>PT12412</name></trkpt>
<trkpt lat="53.333862" lon="06.623001"><ele>6</ele><time>2021-05-20T14:31:33Z</time><name>PT12413</name></trkpt>
<trkpt lat="53.333855" lon="06.622991"><ele>6.1</ele><time>2021-05-20T14:31:34Z</time><name>PT12414</name></trkpt>
<trkpt lat="53.333848" lon="06.622979"><ele>6.3</ele><time>2021-05-20T14:31:35Z</time><name>PT12415</name></trkpt>
<trkpt lat="53.333839" lon="06.622970"><ele>6.2</ele><time>2021-05-20T14:31:36Z</time><name>PT12416</name></trkpt>
<trkpt lat="53.333830" lon="06.622961"><ele>6.1</ele><time>2021-05-20T14:31:37Z</time><name>PT12417</name></trkpt>
<trkpt lat="53.333821" lon="06.622954"><ele>5.9</ele><time>2021-05-20T14:31:38Z</time><name>PT12418</name></trkpt>
<trkpt lat="53.333813" lon="06.622948"><ele>5.7</ele><time>2021-05-20T14:31:39Z</time><name>PT12419</name></trkpt>
<trkpt lat="53.333804" lon="06.622943"><ele>5.5</ele><time>2021-05-20T14:31:40Z</time><name>PT12420</name></trkpt>
<trkpt lat="53.333797" lon="06.622934"><ele>5.5</ele><time>2021-05-20T14:31:41Z</time><name>PT12421</name></trkpt>
<trkpt lat="53.333788" lon="06.622927"><ele>5.7</ele><time>2021-05-20T14:31:42Z</time><name>PT12422</name></trkpt>
<trkpt lat="53.333779" lon="06.622923"><ele>5.9</ele><time>2021-05-20T14:31:43Z</time><name>PT12423</name></trkpt>
<trkpt lat="53.333776" lon="06.622919"><ele>6</ele><time>2021-05-20T14:31:44Z</time><name>PT12424</name></trkpt>
<trkpt lat="53.333776" lon="06.622919"><ele>6.3</ele><time>2021-05-20T14:31:45Z</time><name>PT12425</name></trkpt>
<trkpt lat="53.333775" lon="06.622919"><ele>6.3</ele><time>2021-05-20T14:31:46Z</time><name>PT12426</name></trkpt>
<trkpt lat="53.333775" lon="06.622917"><ele>6.3</ele><time>2021-05-20T14:31:47Z</time><name>PT12427</name></trkpt>
<trkpt lat="53.333772" lon="06.622916"><ele>6</ele><time>2021-05-20T14:31:49Z</time><name>PT12428</name></trkpt>
<trkpt lat="53.333764" lon="06.622907"><ele>6</ele><time>2021-05-20T14:31:50Z</time><name>PT12429</name></trkpt>
<trkpt lat="53.333754" lon="06.622896"><ele>6.1</ele><time>2021-05-20T14:31:51Z</time><name>PT12430</name></trkpt>
<trkpt lat="53.333746" lon="06.622887"><ele>6</ele><time>2021-05-20T14:31:52Z</time><name>PT12431</name></trkpt>
<trkpt lat="53.333736" lon="06.622879"><ele>6.2</ele><time>2021-05-20T14:31:53Z</time><name>PT12432</name></trkpt>
<trkpt lat="53.333725" lon="06.622871"><ele>6.2</ele><time>2021-05-20T14:31:54Z</time><name>PT12433</name></trkpt>
<trkpt lat="53.333716" lon="06.622865"><ele>5.9</ele><time>2021-05-20T14:31:55Z</time><name>PT12434</name></trkpt>
<trkpt lat="53.333707" lon="06.622860"><ele>6.1</ele><time>2021-05-20T14:31:56Z</time><name>PT12435</name></trkpt>
<trkpt lat="53.333698" lon="06.622853"><ele>6</ele><time>2021-05-20T14:31:57Z</time><name>PT12436</name></trkpt>
<trkpt lat="53.333688" lon="06.622845"><ele>5.9</ele><time>2021-05-20T14:31:58Z</time><name>PT12437</name></trkpt>
<trkpt lat="53.333678" lon="06.622836"><ele>5.9</ele><time>2021-05-20T14:31:59Z</time><name>PT12438</name></trkpt>
<trkpt lat="53.333668" lon="06.622829"><ele>5.9</ele><time>2021-05-20T14:32:00Z</time><name>PT12439</name></trkpt>
<trkpt lat="53.333658" lon="06.622824"><ele>5.8</ele><time>2021-05-20T14:32:01Z</time><name>PT12440</name></trkpt>
<trkpt lat="53.333647" lon="06.622822"><ele>6</ele><time>2021-05-20T14:32:02Z</time><name>PT12441</name></trkpt>
<trkpt lat="53.333638" lon="06.622818"><ele>6.1</ele><time>2021-05-20T14:32:03Z</time><name>PT12442</name></trkpt>
<trkpt lat="53.333629" lon="06.622814"><ele>6.1</ele><time>2021-05-20T14:32:04Z</time><name>PT12443</name></trkpt>
<trkpt lat="53.333619" lon="06.622811"><ele>6.1</ele><time>2021-05-20T14:32:05Z</time><name>PT12444</name></trkpt>
<trkpt lat="53.333609" lon="06.622807"><ele>6.1</ele><time>2021-05-20T14:32:06Z</time><name>PT12445</name></trkpt>
<trkpt lat="53.333598" lon="06.622803"><ele>6</ele><time>2021-05-20T14:32:07Z</time><name>PT12446</name></trkpt>
<trkpt lat="53.333588" lon="06.622798"><ele>5.9</ele><time>2021-05-20T14:32:08Z</time><name>PT12447</name></trkpt>
<trkpt lat="53.333578" lon="06.622797"><ele>6</ele><time>2021-05-20T14:32:09Z</time><name>PT12448</name></trkpt>
<trkpt lat="53.333567" lon="06.622796"><ele>6</ele><time>2021-05-20T14:32:10Z</time><name>PT12449</name></trkpt>
<trkpt lat="53.333556" lon="06.622798"><ele>6</ele><time>2021-05-20T14:32:11Z</time><name>PT12450</name></trkpt>
<trkpt lat="53.333547" lon="06.622800"><ele>6.2</ele><time>2021-05-20T14:32:12Z</time><name>PT12451</name></trkpt>
<trkpt lat="53.333538" lon="06.622802"><ele>6.1</ele><time>2021-05-20T14:32:13Z</time><name>PT12452</name></trkpt>
<trkpt lat="53.333527" lon="06.622802"><ele>6.1</ele><time>2021-05-20T14:32:14Z</time><name>PT12453</name></trkpt>
<trkpt lat="53.333515" lon="06.622802"><ele>6.1</ele><time>2021-05-20T14:32:15Z</time><name>PT12454</name></trkpt>
<trkpt lat="53.333503" lon="06.622800"><ele>6</ele><time>2021-05-20T14:32:16Z</time><name>PT12455</name></trkpt>
<trkpt lat="53.333491" lon="06.622801"><ele>6</ele><time>2021-05-20T14:32:17Z</time><name>PT12456</name></trkpt>
<trkpt lat="53.333480" lon="06.622800"><ele>6</ele><time>2021-05-20T14:32:18Z</time><name>PT12457</name></trkpt>
<trkpt lat="53.333469" lon="06.622802"><ele>6</ele><time>2021-05-20T14:32:19Z</time><name>PT12458</name></trkpt>
<trkpt lat="53.333459" lon="06.622809"><ele>6</ele><time>2021-05-20T14:32:20Z</time><name>PT12459</name></trkpt>
<trkpt lat="53.333451" lon="06.622817"><ele>6</ele><time>2021-05-20T14:32:21Z</time><name>PT12460</name></trkpt>
<trkpt lat="53.333442" lon="06.622822"><ele>6.2</ele><time>2021-05-20T14:32:22Z</time><name>PT12461</name></trkpt>
<trkpt lat="53.333433" lon="06.622824"><ele>6</ele><time>2021-05-20T14:32:23Z</time><name>PT12462</name></trkpt>
<trkpt lat="53.333423" lon="06.622827"><ele>6.3</ele><time>2021-05-20T14:32:24Z</time><name>PT12463</name></trkpt>
<trkpt lat="53.333412" lon="06.622833"><ele>6.4</ele><time>2021-05-20T14:32:25Z</time><name>PT12464</name></trkpt>
<trkpt lat="53.333401" lon="06.622839"><ele>6.3</ele><time>2021-05-20T14:32:26Z</time><name>PT12465</name></trkpt>
<trkpt lat="53.333390" lon="06.622846"><ele>6.3</ele><time>2021-05-20T14:32:27Z</time><name>PT12466</name></trkpt>
<trkpt lat="53.333380" lon="06.622856"><ele>6.3</ele><time>2021-05-20T14:32:28Z</time><name>PT12467</name></trkpt>
<trkpt lat="53.333371" lon="06.622864"><ele>6.1</ele><time>2021-05-20T14:32:29Z</time><name>PT12468</name></trkpt>
<trkpt lat="53.333363" lon="06.622869"><ele>6</ele><time>2021-05-20T14:32:30Z</time><name>PT12469</name></trkpt>
<trkpt lat="53.333353" lon="06.622875"><ele>6</ele><time>2021-05-20T14:32:31Z</time><name>PT12470</name></trkpt>
<trkpt lat="53.333343" lon="06.622881"><ele>6</ele><time>2021-05-20T14:32:32Z</time><name>PT12471</name></trkpt>
<trkpt lat="53.333332" lon="06.622887"><ele>6.1</ele><time>2021-05-20T14:32:33Z</time><name>PT12472</name></trkpt>
<trkpt lat="53.333322" lon="06.622893"><ele>6</ele><time>2021-05-20T14:32:34Z</time><name>PT12473</name></trkpt>
<trkpt lat="53.333311" lon="06.622900"><ele>6</ele><time>2021-05-20T14:32:35Z</time><name>PT12474</name></trkpt>
<trkpt lat="53.333301" lon="06.622909"><ele>6</ele><time>2021-05-20T14:32:36Z</time><name>PT12475</name></trkpt>
<trkpt lat="53.333291" lon="06.622919"><ele>6.1</ele><time>2021-05-20T14:32:37Z</time><name>PT12476</name></trkpt>
<trkpt lat="53.333282" lon="06.622928"><ele>5.9</ele><time>2021-05-20T14:32:38Z</time><name>PT12477</name></trkpt>
<trkpt lat="53.333273" lon="06.622935"><ele>6.1</ele><time>2021-05-20T14:32:39Z</time><name>PT12478</name></trkpt>
<trkpt lat="53.333264" lon="06.622940"><ele>6.2</ele><time>2021-05-20T14:32:40Z</time><name>PT12479</name></trkpt>
<trkpt lat="53.333254" lon="06.622947"><ele>6.3</ele><time>2021-05-20T14:32:41Z</time><name>PT12480</name></trkpt>
<trkpt lat="53.333244" lon="06.622954"><ele>6.2</ele><time>2021-05-20T14:32:42Z</time><name>PT12481</name></trkpt>
<trkpt lat="53.333234" lon="06.622962"><ele>6.2</ele><time>2021-05-20T14:32:43Z</time><name>PT12482</name></trkpt>
<trkpt lat="53.333223" lon="06.622969"><ele>6.3</ele><time>2021-05-20T14:32:44Z</time><name>PT12483</name></trkpt>
<trkpt lat="53.333212" lon="06.622979"><ele>6.3</ele><time>2021-05-20T14:32:45Z</time><name>PT12484</name></trkpt>
<trkpt lat="53.333203" lon="06.622988"><ele>6.3</ele><time>2021-05-20T14:32:46Z</time><name>PT12485</name></trkpt>
<trkpt lat="53.333195" lon="06.622996"><ele>6.3</ele><time>2021-05-20T14:32:47Z</time><name>PT12486</name></trkpt>
<trkpt lat="53.333186" lon="06.623003"><ele>6.2</ele><time>2021-05-20T14:32:48Z</time><name>PT12487</name></trkpt>
<trkpt lat="53.333176" lon="06.623010"><ele>6</ele><time>2021-05-20T14:32:49Z</time><name>PT12488</name></trkpt>
<trkpt lat="53.333165" lon="06.623018"><ele>6.3</ele><time>2021-05-20T14:32:50Z</time><name>PT12489</name></trkpt>
<trkpt lat="53.333154" lon="06.623024"><ele>6.3</ele><time>2021-05-20T14:32:51Z</time><name>PT12490</name></trkpt>
<trkpt lat="53.333144" lon="06.623032"><ele>6.4</ele><time>2021-05-20T14:32:52Z</time><name>PT12491</name></trkpt>
<trkpt lat="53.333134" lon="06.623041"><ele>6.2</ele><time>2021-05-20T14:32:53Z</time><name>PT12492</name></trkpt>
<trkpt lat="53.333125" lon="06.623049"><ele>6.4</ele><time>2021-05-20T14:32:54Z</time><name>PT12493</name></trkpt>
<trkpt lat="53.333117" lon="06.623056"><ele>6.4</ele><time>2021-05-20T14:32:55Z</time><name>PT12494</name></trkpt>
<trkpt lat="53.333110" lon="06.623062"><ele>6.3</ele><time>2021-05-20T14:32:56Z</time><name>PT12495</name></trkpt>
<trkpt lat="53.333102" lon="06.623069"><ele>6.3</ele><time>2021-05-20T14:32:57Z</time><name>PT12496</name></trkpt>
<trkpt lat="53.333093" lon="06.623075"><ele>6.5</ele><time>2021-05-20T14:32:58Z</time><name>PT12497</name></trkpt>
<trkpt lat="53.333084" lon="06.623082"><ele>6.4</ele><time>2021-05-20T14:32:59Z</time><name>PT12498</name></trkpt>
<trkpt lat="53.333075" lon="06.623089"><ele>6.4</ele><time>2021-05-20T14:33:00Z</time><name>PT12499</name></trkpt>
<trkpt lat="53.333067" lon="06.623097"><ele>6.4</ele><time>2021-05-20T14:33:01Z</time><name>PT12500</name></trkpt>
<trkpt lat="53.333059" lon="06.623105"><ele>6.4</ele><time>2021-05-20T14:33:02Z</time><name>PT12501</name></trkpt>
<trkpt lat="53.333049" lon="06.623113"><ele>6.4</ele><time>2021-05-20T14:33:03Z</time><name>PT12502</name></trkpt>
<trkpt lat="53.333038" lon="06.623119"><ele>6.1</ele><time>2021-05-20T14:33:04Z</time><name>PT12503</name></trkpt>
<trkpt lat="53.333029" lon="06.623125"><ele>6.1</ele><time>2021-05-20T14:33:05Z</time><name>PT12504</name></trkpt>
<trkpt lat="53.333019" lon="06.623133"><ele>6</ele><time>2021-05-20T14:33:06Z</time><name>PT12505</name></trkpt>
<trkpt lat="53.333010" lon="06.623141"><ele>5.9</ele><time>2021-05-20T14:33:07Z</time><name>PT12506</name></trkpt>
<trkpt lat="53.333000" lon="06.623149"><ele>5.9</ele><time>2021-05-20T14:33:08Z</time><name>PT12507</name></trkpt>
<trkpt lat="53.332992" lon="06.623157"><ele>6</ele><time>2021-05-20T14:33:09Z</time><name>PT12508</name></trkpt>
<trkpt lat="53.332982" lon="06.623165"><ele>6.2</ele><time>2021-05-20T14:33:10Z</time><name>PT12509</name></trkpt>
<trkpt lat="53.332972" lon="06.623172"><ele>5.9</ele><time>2021-05-20T14:33:11Z</time><name>PT12510</name></trkpt>
<trkpt lat="53.332963" lon="06.623178"><ele>6</ele><time>2021-05-20T14:33:12Z</time><name>PT12511</name></trkpt>
<trkpt lat="53.332953" lon="06.623185"><ele>5.9</ele><time>2021-05-20T14:33:13Z</time><name>PT12512</name></trkpt>
<trkpt lat="53.332944" lon="06.623194"><ele>5.9</ele><time>2021-05-20T14:33:14Z</time><name>PT12513</name></trkpt>
<trkpt lat="53.332936" lon="06.623203"><ele>5.9</ele><time>2021-05-20T14:33:15Z</time><name>PT12514</name></trkpt>
<trkpt lat="53.332928" lon="06.623212"><ele>6</ele><time>2021-05-20T14:33:16Z</time><name>PT12515</name></trkpt>
<trkpt lat="53.332918" lon="06.623219"><ele>6.2</ele><time>2021-05-20T14:33:17Z</time><name>PT12516</name></trkpt>
<trkpt lat="53.332908" lon="06.623225"><ele>6.1</ele><time>2021-05-20T14:33:18Z</time><name>PT12517</name></trkpt>
<trkpt lat="53.332899" lon="06.623232"><ele>6.1</ele><time>2021-05-20T14:33:19Z</time><name>PT12518</name></trkpt>
<trkpt lat="53.332888" lon="06.623240"><ele>6.2</ele><time>2021-05-20T14:33:20Z</time><name>PT12519</name></trkpt>
<trkpt lat="53.332877" lon="06.623249"><ele>6.2</ele><time>2021-05-20T14:33:21Z</time><name>PT12520</name></trkpt>
<trkpt lat="53.332869" lon="06.623256"><ele>6.3</ele><time>2021-05-20T14:33:22Z</time><name>PT12521</name></trkpt>
<trkpt lat="53.332862" lon="06.623262"><ele>6.3</ele><time>2021-05-20T14:33:23Z</time><name>PT12522</name></trkpt>
<trkpt lat="53.332855" lon="06.623267"><ele>6.4</ele><time>2021-05-20T14:33:24Z</time><name>PT12523</name></trkpt>
<trkpt lat="53.332846" lon="06.623274"><ele>6.4</ele><time>2021-05-20T14:33:25Z</time><name>PT12524</name></trkpt>
<trkpt lat="53.332835" lon="06.623281"><ele>6.4</ele><time>2021-05-20T14:33:26Z</time><name>PT12525</name></trkpt>
<trkpt lat="53.332825" lon="06.623290"><ele>6.5</ele><time>2021-05-20T14:33:27Z</time><name>PT12526</name></trkpt>
<trkpt lat="53.332815" lon="06.623298"><ele>6.5</ele><time>2021-05-20T14:33:28Z</time><name>PT12527</name></trkpt>
<trkpt lat="53.332806" lon="06.623306"><ele>6.6</ele><time>2021-05-20T14:33:29Z</time><name>PT12528</name></trkpt>
<trkpt lat="53.332798" lon="06.623314"><ele>6.4</ele><time>2021-05-20T14:33:30Z</time><name>PT12529</name></trkpt>
<trkpt lat="53.332789" lon="06.623319"><ele>6.2</ele><time>2021-05-20T14:33:31Z</time><name>PT12530</name></trkpt>
<trkpt lat="53.332778" lon="06.623325"><ele>6.2</ele><time>2021-05-20T14:33:32Z</time><name>PT12531</name></trkpt>
<trkpt lat="53.332767" lon="06.623331"><ele>6.3</ele><time>2021-05-20T14:33:33Z</time><name>PT12532</name></trkpt>
<trkpt lat="53.332758" lon="06.623337"><ele>6.4</ele><time>2021-05-20T14:33:34Z</time><name>PT12533</name></trkpt>
<trkpt lat="53.332749" lon="06.623346"><ele>6.5</ele><time>2021-05-20T14:33:35Z</time><name>PT12534</name></trkpt>
<trkpt lat="53.332742" lon="06.623354"><ele>6.5</ele><time>2021-05-20T14:33:36Z</time><name>PT12535</name></trkpt>
<trkpt lat="53.332735" lon="06.623359"><ele>6.4</ele><time>2021-05-20T14:33:37Z</time><name>PT12536</name></trkpt>
<trkpt lat="53.332725" lon="06.623364"><ele>6.4</ele><time>2021-05-20T14:33:38Z</time><name>PT12537</name></trkpt>
<trkpt lat="53.332715" lon="06.623370"><ele>6.4</ele><time>2021-05-20T14:33:39Z</time><name>PT12538</name></trkpt>
<trkpt lat="53.332705" lon="06.623378"><ele>6.3</ele><time>2021-05-20T14:33:40Z</time><name>PT12539</name></trkpt>
<trkpt lat="53.332696" lon="06.623386"><ele>6.4</ele><time>2021-05-20T14:33:41Z</time><name>PT12540</name></trkpt>
<trkpt lat="53.332687" lon="06.623394"><ele>6.4</ele><time>2021-05-20T14:33:42Z</time><name>PT12541</name></trkpt>
<trkpt lat="53.332678" lon="06.623401"><ele>6.4</ele><time>2021-05-20T14:33:43Z</time><name>PT12542</name></trkpt>
<trkpt lat="53.332669" lon="06.623406"><ele>6.4</ele><time>2021-05-20T14:33:44Z</time><name>PT12543</name></trkpt>
<trkpt lat="53.332659" lon="06.623409"><ele>6.3</ele><time>2021-05-20T14:33:45Z</time><name>PT12544</name></trkpt>
<trkpt lat="53.332649" lon="06.623413"><ele>6.4</ele><time>2021-05-20T14:33:46Z</time><name>PT12545</name></trkpt>
<trkpt lat="53.332638" lon="06.623420"><ele>6.2</ele><time>2021-05-20T14:33:47Z</time><name>PT12546</name></trkpt>
<trkpt lat="53.332627" lon="06.623428"><ele>6.3</ele><time>2021-05-20T14:33:48Z</time><name>PT12547</name></trkpt>
<trkpt lat="53.332619" lon="06.623436"><ele>6.3</ele><time>2021-05-20T14:33:49Z</time><name>PT12548</name></trkpt>
<trkpt lat="53.332611" lon="06.623445"><ele>6.4</ele><time>2021-05-20T14:33:50Z</time><name>PT12549</name></trkpt>
<trkpt lat="53.332604" lon="06.623453"><ele>6.4</ele><time>2021-05-20T14:33:51Z</time><name>PT12550</name></trkpt>
<trkpt lat="53.332594" lon="06.623458"><ele>6.4</ele><time>2021-05-20T14:33:52Z</time><name>PT12551</name></trkpt>
<trkpt lat="53.332584" lon="06.623463"><ele>6.2</ele><time>2021-05-20T14:33:53Z</time><name>PT12552</name></trkpt>
<trkpt lat="53.332574" lon="06.623470"><ele>6.1</ele><time>2021-05-20T14:33:54Z</time><name>PT12553</name></trkpt>
<trkpt lat="53.332564" lon="06.623476"><ele>6.1</ele><time>2021-05-20T14:33:55Z</time><name>PT12554</name></trkpt>
<trkpt lat="53.332553" lon="06.623483"><ele>5.9</ele><time>2021-05-20T14:33:56Z</time><name>PT12555</name></trkpt>
<trkpt lat="53.332543" lon="06.623490"><ele>5.8</ele><time>2021-05-20T14:33:57Z</time><name>PT12556</name></trkpt>
<trkpt lat="53.332536" lon="06.623498"><ele>6</ele><time>2021-05-20T14:33:58Z</time><name>PT12557</name></trkpt>
<trkpt lat="53.332528" lon="06.623504"><ele>6.1</ele><time>2021-05-20T14:33:59Z</time><name>PT12558</name></trkpt>
<trkpt lat="53.332519" lon="06.623509"><ele>5.9</ele><time>2021-05-20T14:34:00Z</time><name>PT12559</name></trkpt>
<trkpt lat="53.332509" lon="06.623515"><ele>6</ele><time>2021-05-20T14:34:01Z</time><name>PT12560</name></trkpt>
<trkpt lat="53.332498" lon="06.623522"><ele>5.9</ele><time>2021-05-20T14:34:02Z</time><name>PT12561</name></trkpt>
<trkpt lat="53.332488" lon="06.623529"><ele>5.9</ele><time>2021-05-20T14:34:03Z</time><name>PT12562</name></trkpt>
<trkpt lat="53.332477" lon="06.623536"><ele>5.8</ele><time>2021-05-20T14:34:04Z</time><name>PT12563</name></trkpt>
<trkpt lat="53.332469" lon="06.623544"><ele>5.9</ele><time>2021-05-20T14:34:05Z</time><name>PT12564</name></trkpt>
<trkpt lat="53.332461" lon="06.623550"><ele>5.9</ele><time>2021-05-20T14:34:06Z</time><name>PT12565</name></trkpt>
<trkpt lat="53.332452" lon="06.623555"><ele>6.1</ele><time>2021-05-20T14:34:07Z</time><name>PT12566</name></trkpt>
<trkpt lat="53.332443" lon="06.623558"><ele>6.4</ele><time>2021-05-20T14:34:08Z</time><name>PT12567</name></trkpt>
<trkpt lat="53.332434" lon="06.623563"><ele>6.4</ele><time>2021-05-20T14:34:09Z</time><name>PT12568</name></trkpt>
<trkpt lat="53.332424" lon="06.623569"><ele>6.8</ele><time>2021-05-20T14:34:10Z</time><name>PT12569</name></trkpt>
<trkpt lat="53.332415" lon="06.623574"><ele>6.7</ele><time>2021-05-20T14:34:11Z</time><name>PT12570</name></trkpt>
<trkpt lat="53.332407" lon="06.623579"><ele>6.5</ele><time>2021-05-20T14:34:12Z</time><name>PT12571</name></trkpt>
<trkpt lat="53.332400" lon="06.623582"><ele>6.7</ele><time>2021-05-20T14:34:13Z</time><name>PT12572</name></trkpt>
<trkpt lat="53.332391" lon="06.623586"><ele>6.6</ele><time>2021-05-20T14:34:14Z</time><name>PT12573</name></trkpt>
<trkpt lat="53.332383" lon="06.623590"><ele>6.7</ele><time>2021-05-20T14:34:15Z</time><name>PT12574</name></trkpt>
<trkpt lat="53.332375" lon="06.623593"><ele>6.9</ele><time>2021-05-20T14:34:16Z</time><name>PT12575</name></trkpt>
<trkpt lat="53.332368" lon="06.623594"><ele>6.9</ele><time>2021-05-20T14:34:17Z</time><name>PT12576</name></trkpt>
<trkpt lat="53.332360" lon="06.623598"><ele>6.9</ele><time>2021-05-20T14:34:18Z</time><name>PT12577</name></trkpt>
<trkpt lat="53.332353" lon="06.623601"><ele>6.9</ele><time>2021-05-20T14:34:19Z</time><name>PT12578</name></trkpt>
<trkpt lat="53.332345" lon="06.623605"><ele>6.7</ele><time>2021-05-20T14:34:20Z</time><name>PT12579</name></trkpt>
<trkpt lat="53.332336" lon="06.623607"><ele>6.7</ele><time>2021-05-20T14:34:21Z</time><name>PT12580</name></trkpt>
<trkpt lat="53.332328" lon="06.623610"><ele>6.5</ele><time>2021-05-20T14:34:22Z</time><name>PT12581</name></trkpt>
<trkpt lat="53.332322" lon="06.623612"><ele>6.6</ele><time>2021-05-20T14:34:23Z</time><name>PT12582</name></trkpt>
<trkpt lat="53.332317" lon="06.623614"><ele>6.7</ele><time>2021-05-20T14:34:24Z</time><name>PT12583</name></trkpt>
<trkpt lat="53.332313" lon="06.623617"><ele>6.9</ele><time>2021-05-20T14:34:25Z</time><name>PT12584</name></trkpt>
<trkpt lat="53.332307" lon="06.623617"><ele>6.9</ele><time>2021-05-20T14:34:26Z</time><name>PT12585</name></trkpt>
<trkpt lat="53.332298" lon="06.623617"><ele>7</ele><time>2021-05-20T14:34:27Z</time><name>PT12586</name></trkpt>
<trkpt lat="53.332290" lon="06.623620"><ele>7</ele><time>2021-05-20T14:34:28Z</time><name>PT12587</name></trkpt>
<trkpt lat="53.332282" lon="06.623621"><ele>7</ele><time>2021-05-20T14:34:29Z</time><name>PT12588</name></trkpt>
<trkpt lat="53.332272" lon="06.623624"><ele>6.9</ele><time>2021-05-20T14:34:30Z</time><name>PT12589</name></trkpt>
<trkpt lat="53.332263" lon="06.623623"><ele>6.9</ele><time>2021-05-20T14:34:31Z</time><name>PT12590</name></trkpt>
<trkpt lat="53.332253" lon="06.623623"><ele>7.1</ele><time>2021-05-20T14:34:32Z</time><name>PT12591</name></trkpt>
<trkpt lat="53.332245" lon="06.623621"><ele>7.2</ele><time>2021-05-20T14:34:33Z</time><name>PT12592</name></trkpt>
<trkpt lat="53.332236" lon="06.623617"><ele>7.2</ele><time>2021-05-20T14:34:34Z</time><name>PT12593</name></trkpt>
<trkpt lat="53.332227" lon="06.623613"><ele>7.3</ele><time>2021-05-20T14:34:35Z</time><name>PT12594</name></trkpt>
<trkpt lat="53.332218" lon="06.623610"><ele>7.3</ele><time>2021-05-20T14:34:36Z</time><name>PT12595</name></trkpt>
<trkpt lat="53.332210" lon="06.623606"><ele>7.3</ele><time>2021-05-20T14:34:37Z</time><name>PT12596</name></trkpt>
<trkpt lat="53.332202" lon="06.623598"><ele>7.1</ele><time>2021-05-20T14:34:38Z</time><name>PT12597</name></trkpt>
<trkpt lat="53.332195" lon="06.623585"><ele>7</ele><time>2021-05-20T14:34:39Z</time><name>PT12598</name></trkpt>
<trkpt lat="53.332188" lon="06.623572"><ele>7</ele><time>2021-05-20T14:34:40Z</time><name>PT12599</name></trkpt>
<trkpt lat="53.332180" lon="06.623561"><ele>6.9</ele><time>2021-05-20T14:34:41Z</time><name>PT12600</name></trkpt>
<trkpt lat="53.332173" lon="06.623551"><ele>7</ele><time>2021-05-20T14:34:42Z</time><name>PT12601</name></trkpt>
<trkpt lat="53.332167" lon="06.623542"><ele>7.1</ele><time>2021-05-20T14:34:43Z</time><name>PT12602</name></trkpt>
<trkpt lat="53.332160" lon="06.623529"><ele>7.2</ele><time>2021-05-20T14:34:44Z</time><name>PT12603</name></trkpt>
<trkpt lat="53.332154" lon="06.623515"><ele>7.4</ele><time>2021-05-20T14:34:45Z</time><name>PT12604</name></trkpt>
<trkpt lat="53.332145" lon="06.623503"><ele>7.6</ele><time>2021-05-20T14:34:46Z</time><name>PT12605</name></trkpt>
<trkpt lat="53.332139" lon="06.623491"><ele>7.6</ele><time>2021-05-20T14:34:47Z</time><name>PT12606</name></trkpt>
<trkpt lat="53.332132" lon="06.623481"><ele>7.4</ele><time>2021-05-20T14:34:48Z</time><name>PT12607</name></trkpt>
<trkpt lat="53.332126" lon="06.623470"><ele>7.4</ele><time>2021-05-20T14:34:49Z</time><name>PT12608</name></trkpt>
<trkpt lat="53.332119" lon="06.623458"><ele>7.5</ele><time>2021-05-20T14:34:50Z</time><name>PT12609</name></trkpt>
<trkpt lat="53.332114" lon="06.623443"><ele>7.4</ele><time>2021-05-20T14:34:51Z</time><name>PT12610</name></trkpt>
<trkpt lat="53.332108" lon="06.623431"><ele>7.3</ele><time>2021-05-20T14:34:52Z</time><name>PT12611</name></trkpt>
<trkpt lat="53.332101" lon="06.623416"><ele>7.3</ele><time>2021-05-20T14:34:53Z</time><name>PT12612</name></trkpt>
<trkpt lat="53.332096" lon="06.623406"><ele>7.2</ele><time>2021-05-20T14:34:54Z</time><name>PT12613</name></trkpt>
<trkpt lat="53.332094" lon="06.623398"><ele>7.1</ele><time>2021-05-20T14:34:55Z</time><name>PT12614</name></trkpt>
<trkpt lat="53.332092" lon="06.623394"><ele>7.3</ele><time>2021-05-20T14:34:56Z</time><name>PT12615</name></trkpt>
<trkpt lat="53.332092" lon="06.623395"><ele>7.1</ele><time>2021-05-20T14:34:57Z</time><name>PT12616</name></trkpt>
<trkpt lat="53.332091" lon="06.623397"><ele>7</ele><time>2021-05-20T14:34:58Z</time><name>PT12617</name></trkpt>
<trkpt lat="53.332090" lon="06.623398"><ele>6.9</ele><time>2021-05-20T14:34:59Z</time><name>PT12618</name></trkpt>
<trkpt lat="53.332087" lon="06.623394"><ele>7.4</ele><time>2021-05-20T14:35:49Z</time><name>PT12619</name></trkpt>
<trkpt lat="53.332081" lon="06.623384"><ele>7.4</ele><time>2021-05-20T14:35:50Z</time><name>PT12620</name></trkpt>
<trkpt lat="53.332075" lon="06.623371"><ele>7.2</ele><time>2021-05-20T14:35:51Z</time><name>PT12621</name></trkpt>
<trkpt lat="53.332073" lon="06.623356"><ele>7.2</ele><time>2021-05-20T14:35:52Z</time><name>PT12622</name></trkpt>
<trkpt lat="53.332071" lon="06.623342"><ele>7</ele><time>2021-05-20T14:35:53Z</time><name>PT12623</name></trkpt>
<trkpt lat="53.332067" lon="06.623326"><ele>7</ele><time>2021-05-20T14:35:54Z</time><name>PT12624</name></trkpt>
<trkpt lat="53.332063" lon="06.623310"><ele>6.9</ele><time>2021-05-20T14:35:55Z</time><name>PT12625</name></trkpt>
<trkpt lat="53.332058" lon="06.623297"><ele>6.8</ele><time>2021-05-20T14:35:56Z</time><name>PT12626</name></trkpt>
<trkpt lat="53.332055" lon="06.623279"><ele>6.9</ele><time>2021-05-20T14:35:57Z</time><name>PT12627</name></trkpt>
<trkpt lat="53.332052" lon="06.623264"><ele>6.9</ele><time>2021-05-20T14:35:58Z</time><name>PT12628</name></trkpt>
<trkpt lat="53.332049" lon="06.623250"><ele>7</ele><time>2021-05-20T14:35:59Z</time><name>PT12629</name></trkpt>
<trkpt lat="53.332047" lon="06.623230"><ele>7.2</ele><time>2021-05-20T14:36:00Z</time><name>PT12630</name></trkpt>
<trkpt lat="53.332042" lon="06.623212"><ele>7.2</ele><time>2021-05-20T14:36:01Z</time><name>PT12631</name></trkpt>
<trkpt lat="53.332039" lon="06.623201"><ele>7.1</ele><time>2021-05-20T14:36:02Z</time><name>PT12632</name></trkpt>
<trkpt lat="53.332037" lon="06.623192"><ele>7.1</ele><time>2021-05-20T14:36:03Z</time><name>PT12633</name></trkpt>
<trkpt lat="53.332036" lon="06.623178"><ele>7</ele><time>2021-05-20T14:36:04Z</time><name>PT12634</name></trkpt>
<trkpt lat="53.332035" lon="06.623158"><ele>6.8</ele><time>2021-05-20T14:36:05Z</time><name>PT12635</name></trkpt>
<trkpt lat="53.332031" lon="06.623135"><ele>6.8</ele><time>2021-05-20T14:36:06Z</time><name>PT12636</name></trkpt>
<trkpt lat="53.332027" lon="06.623113"><ele>6.8</ele><time>2021-05-20T14:36:07Z</time><name>PT12637</name></trkpt>
<trkpt lat="53.332024" lon="06.623096"><ele>6.7</ele><time>2021-05-20T14:36:08Z</time><name>PT12638</name></trkpt>
<trkpt lat="53.332020" lon="06.623084"><ele>6.7</ele><time>2021-05-20T14:36:09Z</time><name>PT12639</name></trkpt>
<trkpt lat="53.332018" lon="06.623072"><ele>6.4</ele><time>2021-05-20T14:36:10Z</time><name>PT12640</name></trkpt>
<trkpt lat="53.332021" lon="06.623058"><ele>6.4</ele><time>2021-05-20T14:36:11Z</time><name>PT12641</name></trkpt>
<trkpt lat="53.332022" lon="06.623038"><ele>6.3</ele><time>2021-05-20T14:36:12Z</time><name>PT12642</name></trkpt>
<trkpt lat="53.332019" lon="06.623019"><ele>6.3</ele><time>2021-05-20T14:36:13Z</time><name>PT12643</name></trkpt>
<trkpt lat="53.332014" lon="06.623003"><ele>6.2</ele><time>2021-05-20T14:36:14Z</time><name>PT12644</name></trkpt>
<trkpt lat="53.332011" lon="06.622989"><ele>6.4</ele><time>2021-05-20T14:36:15Z</time><name>PT12645</name></trkpt>
<trkpt lat="53.332008" lon="06.622975"><ele>6.5</ele><time>2021-05-20T14:36:16Z</time><name>PT12646</name></trkpt>
<trkpt lat="53.332006" lon="06.622964"><ele>6.5</ele><time>2021-05-20T14:36:17Z</time><name>PT12647</name></trkpt>
<trkpt lat="53.332006" lon="06.622948"><ele>6.5</ele><time>2021-05-20T14:36:18Z</time><name>PT12648</name></trkpt>
<trkpt lat="53.332005" lon="06.622930"><ele>6.7</ele><time>2021-05-20T14:36:19Z</time><name>PT12649</name></trkpt>
<trkpt lat="53.332003" lon="06.622911"><ele>6.7</ele><time>2021-05-20T14:36:20Z</time><name>PT12650</name></trkpt>
<trkpt lat="53.331998" lon="06.622891"><ele>6.6</ele><time>2021-05-20T14:36:21Z</time><name>PT12651</name></trkpt>
<trkpt lat="53.331993" lon="06.622877"><ele>6.5</ele><time>2021-05-20T14:36:22Z</time><name>PT12652</name></trkpt>
<trkpt lat="53.331990" lon="06.622864"><ele>6.4</ele><time>2021-05-20T14:36:23Z</time><name>PT12653</name></trkpt>
<trkpt lat="53.331988" lon="06.622850"><ele>6.1</ele><time>2021-05-20T14:36:24Z</time><name>PT12654</name></trkpt>
<trkpt lat="53.331985" lon="06.622834"><ele>6.1</ele><time>2021-05-20T14:36:25Z</time><name>PT12655</name></trkpt>
<trkpt lat="53.331982" lon="06.622815"><ele>6.1</ele><time>2021-05-20T14:36:26Z</time><name>PT12656</name></trkpt>
<trkpt lat="53.331980" lon="06.622789"><ele>6.2</ele><time>2021-05-20T14:36:27Z</time><name>PT12657</name></trkpt>
<trkpt lat="53.331975" lon="06.622768"><ele>6.3</ele><time>2021-05-20T14:36:28Z</time><name>PT12658</name></trkpt>
<trkpt lat="53.331971" lon="06.622753"><ele>6.4</ele><time>2021-05-20T14:36:29Z</time><name>PT12659</name></trkpt>
<trkpt lat="53.331967" lon="06.622748"><ele>6.4</ele><time>2021-05-20T14:36:30Z</time><name>PT12660</name></trkpt>
<trkpt lat="53.331965" lon="06.622747"><ele>6.3</ele><time>2021-05-20T14:36:31Z</time><name>PT12661</name></trkpt>
<trkpt lat="53.331961" lon="06.622740"><ele>6.4</ele><time>2021-05-20T14:36:32Z</time><name>PT12662</name></trkpt>
<trkpt lat="53.331959" lon="06.622737"><ele>6.2</ele><time>2021-05-20T14:36:33Z</time><name>PT12663</name></trkpt>
<trkpt lat="53.331956" lon="06.622733"><ele>6</ele><time>2021-05-20T14:36:34Z</time><name>PT12664</name></trkpt>
<trkpt lat="53.331955" lon="06.622727"><ele>6.3</ele><time>2021-05-20T14:36:35Z</time><name>PT12665</name></trkpt>
<trkpt lat="53.331955" lon="06.622712"><ele>6.5</ele><time>2021-05-20T14:36:37Z</time><name>PT12666</name></trkpt>
<trkpt lat="53.331953" lon="06.622693"><ele>6.8</ele><time>2021-05-20T14:36:38Z</time><name>PT12667</name></trkpt>
<trkpt lat="53.331952" lon="06.622670"><ele>6.9</ele><time>2021-05-20T14:36:39Z</time><name>PT12668</name></trkpt>
<trkpt lat="53.331956" lon="06.622653"><ele>6.9</ele><time>2021-05-20T14:36:40Z</time><name>PT12669</name></trkpt>
<trkpt lat="53.331963" lon="06.622634"><ele>6.9</ele><time>2021-05-20T14:36:41Z</time><name>PT12670</name></trkpt>
<trkpt lat="53.331964" lon="06.622615"><ele>6.9</ele><time>2021-05-20T14:36:42Z</time><name>PT12671</name></trkpt>
<trkpt lat="53.331963" lon="06.622599"><ele>6.9</ele><time>2021-05-20T14:36:43Z</time><name>PT12672</name></trkpt>
<trkpt lat="53.331961" lon="06.622586"><ele>6.9</ele><time>2021-05-20T14:36:44Z</time><name>PT12673</name></trkpt>
<trkpt lat="53.331957" lon="06.622571"><ele>6.9</ele><time>2021-05-20T14:36:45Z</time><name>PT12674</name></trkpt>
<trkpt lat="53.331955" lon="06.622554"><ele>6.8</ele><time>2021-05-20T14:36:46Z</time><name>PT12675</name></trkpt>
<trkpt lat="53.331949" lon="06.622529"><ele>6.7</ele><time>2021-05-20T14:36:47Z</time><name>PT12676</name></trkpt>
<trkpt lat="53.331946" lon="06.622507"><ele>6.6</ele><time>2021-05-20T14:36:48Z</time><name>PT12677</name></trkpt>
<trkpt lat="53.331943" lon="06.622492"><ele>6.6</ele><time>2021-05-20T14:36:49Z</time><name>PT12678</name></trkpt>
<trkpt lat="53.331940" lon="06.622481"><ele>6.7</ele><time>2021-05-20T14:36:50Z</time><name>PT12679</name></trkpt>
<trkpt lat="53.331937" lon="06.622468"><ele>6.6</ele><time>2021-05-20T14:36:51Z</time><name>PT12680</name></trkpt>
<trkpt lat="53.331935" lon="06.622454"><ele>6.6</ele><time>2021-05-20T14:36:52Z</time><name>PT12681</name></trkpt>
<trkpt lat="53.331934" lon="06.622436"><ele>6.7</ele><time>2021-05-20T14:36:53Z</time><name>PT12682</name></trkpt>
<trkpt lat="53.331931" lon="06.622415"><ele>6.7</ele><time>2021-05-20T14:36:54Z</time><name>PT12683</name></trkpt>
<trkpt lat="53.331927" lon="06.622394"><ele>6.6</ele><time>2021-05-20T14:36:55Z</time><name>PT12684</name></trkpt>
<trkpt lat="53.331923" lon="06.622381"><ele>6.6</ele><time>2021-05-20T14:36:56Z</time><name>PT12685</name></trkpt>
<trkpt lat="53.331920" lon="06.622371"><ele>6.7</ele><time>2021-05-20T14:36:57Z</time><name>PT12686</name></trkpt>
<trkpt lat="53.331918" lon="06.622360"><ele>6.7</ele><time>2021-05-20T14:36:58Z</time><name>PT12687</name></trkpt>
<trkpt lat="53.331915" lon="06.622342"><ele>6.9</ele><time>2021-05-20T14:36:59Z</time><name>PT12688</name></trkpt>
<trkpt lat="53.331914" lon="06.622322"><ele>6.9</ele><time>2021-05-20T14:37:00Z</time><name>PT12689</name></trkpt>
<trkpt lat="53.331911" lon="06.622301"><ele>6.9</ele><time>2021-05-20T14:37:01Z</time><name>PT12690</name></trkpt>
<trkpt lat="53.331908" lon="06.622273"><ele>6.9</ele><time>2021-05-20T14:37:02Z</time><name>PT12691</name></trkpt>
<trkpt lat="53.331906" lon="06.622252"><ele>6.9</ele><time>2021-05-20T14:37:03Z</time><name>PT12692</name></trkpt>
<trkpt lat="53.331902" lon="06.622235"><ele>6.9</ele><time>2021-05-20T14:37:04Z</time><name>PT12693</name></trkpt>
<trkpt lat="53.331899" lon="06.622221"><ele>6.8</ele><time>2021-05-20T14:37:05Z</time><name>PT12694</name></trkpt>
<trkpt lat="53.331896" lon="06.622206"><ele>6.7</ele><time>2021-05-20T14:37:06Z</time><name>PT12695</name></trkpt>
<trkpt lat="53.331894" lon="06.622189"><ele>6.7</ele><time>2021-05-20T14:37:07Z</time><name>PT12696</name></trkpt>
<trkpt lat="53.331890" lon="06.622170"><ele>6.5</ele><time>2021-05-20T14:37:08Z</time><name>PT12697</name></trkpt>
<trkpt lat="53.331887" lon="06.622152"><ele>6.4</ele><time>2021-05-20T14:37:09Z</time><name>PT12698</name></trkpt>
<trkpt lat="53.331882" lon="06.622134"><ele>6.4</ele><time>2021-05-20T14:37:10Z</time><name>PT12699</name></trkpt>
<trkpt lat="53.331879" lon="06.622118"><ele>6.4</ele><time>2021-05-20T14:37:11Z</time><name>PT12700</name></trkpt>
<trkpt lat="53.331877" lon="06.622096"><ele>6.5</ele><time>2021-05-20T14:37:12Z</time><name>PT12701</name></trkpt>
<trkpt lat="53.331874" lon="06.622073"><ele>6.7</ele><time>2021-05-20T14:37:13Z</time><name>PT12702</name></trkpt>
<trkpt lat="53.331871" lon="06.622055"><ele>6.7</ele><time>2021-05-20T14:37:14Z</time><name>PT12703</name></trkpt>
<trkpt lat="53.331867" lon="06.622041"><ele>6.5</ele><time>2021-05-20T14:37:15Z</time><name>PT12704</name></trkpt>
<trkpt lat="53.331863" lon="06.622029"><ele>6.7</ele><time>2021-05-20T14:37:16Z</time><name>PT12705</name></trkpt>
<trkpt lat="53.331860" lon="06.622017"><ele>6.4</ele><time>2021-05-20T14:37:17Z</time><name>PT12706</name></trkpt>
<trkpt lat="53.331859" lon="06.622003"><ele>6.4</ele><time>2021-05-20T14:37:18Z</time><name>PT12707</name></trkpt>
<trkpt lat="53.331857" lon="06.621984"><ele>6.4</ele><time>2021-05-20T14:37:19Z</time><name>PT12708</name></trkpt>
<trkpt lat="53.331855" lon="06.621961"><ele>6.4</ele><time>2021-05-20T14:37:20Z</time><name>PT12709</name></trkpt>
<trkpt lat="53.331850" lon="06.621943"><ele>6.4</ele><time>2021-05-20T14:37:21Z</time><name>PT12710</name></trkpt>
<trkpt lat="53.331845" lon="06.621928"><ele>6.5</ele><time>2021-05-20T14:37:22Z</time><name>PT12711</name></trkpt>
<trkpt lat="53.331841" lon="06.621915"><ele>6.4</ele><time>2021-05-20T14:37:23Z</time><name>PT12712</name></trkpt>
<trkpt lat="53.331839" lon="06.621905"><ele>6.4</ele><time>2021-05-20T14:37:24Z</time><name>PT12713</name></trkpt>
<trkpt lat="53.331839" lon="06.621892"><ele>6.4</ele><time>2021-05-20T14:37:25Z</time><name>PT12714</name></trkpt>
<trkpt lat="53.331836" lon="06.621873"><ele>6.5</ele><time>2021-05-20T14:37:26Z</time><name>PT12715</name></trkpt>
<trkpt lat="53.331834" lon="06.621854"><ele>6.4</ele><time>2021-05-20T14:37:27Z</time><name>PT12716</name></trkpt>
<trkpt lat="53.331830" lon="06.621835"><ele>6.6</ele><time>2021-05-20T14:37:28Z</time><name>PT12717</name></trkpt>
<trkpt lat="53.331827" lon="06.621823"><ele>6.5</ele><time>2021-05-20T14:37:29Z</time><name>PT12718</name></trkpt>
<trkpt lat="53.331824" lon="06.621813"><ele>6.4</ele><time>2021-05-20T14:37:30Z</time><name>PT12719</name></trkpt>
<trkpt lat="53.331821" lon="06.621802"><ele>6.4</ele><time>2021-05-20T14:37:31Z</time><name>PT12720</name></trkpt>
<trkpt lat="53.331819" lon="06.621786"><ele>6.4</ele><time>2021-05-20T14:37:32Z</time><name>PT12721</name></trkpt>
<trkpt lat="53.331818" lon="06.621764"><ele>6.5</ele><time>2021-05-20T14:37:33Z</time><name>PT12722</name></trkpt>
<trkpt lat="53.331815" lon="06.621739"><ele>6.5</ele><time>2021-05-20T14:37:34Z</time><name>PT12723</name></trkpt>
<trkpt lat="53.331811" lon="06.621719"><ele>6.5</ele><time>2021-05-20T14:37:35Z</time><name>PT12724</name></trkpt>
<trkpt lat="53.331806" lon="06.621709"><ele>6.4</ele><time>2021-05-20T14:37:36Z</time><name>PT12725</name></trkpt>
<trkpt lat="53.331803" lon="06.621700"><ele>6.4</ele><time>2021-05-20T14:37:37Z</time><name>PT12726</name></trkpt>
<trkpt lat="53.331801" lon="06.621689"><ele>6.4</ele><time>2021-05-20T14:37:38Z</time><name>PT12727</name></trkpt>
<trkpt lat="53.331803" lon="06.621671"><ele>6.4</ele><time>2021-05-20T14:37:39Z</time><name>PT12728</name></trkpt>
<trkpt lat="53.331800" lon="06.621647"><ele>6.5</ele><time>2021-05-20T14:37:40Z</time><name>PT12729</name></trkpt>
<trkpt lat="53.331798" lon="06.621628"><ele>6.6</ele><time>2021-05-20T14:37:41Z</time><name>PT12730</name></trkpt>
<trkpt lat="53.331795" lon="06.621617"><ele>6.6</ele><time>2021-05-20T14:37:42Z</time><name>PT12731</name></trkpt>
<trkpt lat="53.331792" lon="06.621608"><ele>6.5</ele><time>2021-05-20T14:37:43Z</time><name>PT12732</name></trkpt>
<trkpt lat="53.331790" lon="06.621596"><ele>6.4</ele><time>2021-05-20T14:37:44Z</time><name>PT12733</name></trkpt>
<trkpt lat="53.331790" lon="06.621578"><ele>6.4</ele><time>2021-05-20T14:37:45Z</time><name>PT12734</name></trkpt>
<trkpt lat="53.331788" lon="06.621556"><ele>6.6</ele><time>2021-05-20T14:37:46Z</time><name>PT12735</name></trkpt>
<trkpt lat="53.331785" lon="06.621534"><ele>6.5</ele><time>2021-05-20T14:37:47Z</time><name>PT12736</name></trkpt>
<trkpt lat="53.331780" lon="06.621519"><ele>6.5</ele><time>2021-05-20T14:37:48Z</time><name>PT12737</name></trkpt>
<trkpt lat="53.331777" lon="06.621506"><ele>6.4</ele><time>2021-05-20T14:37:49Z</time><name>PT12738</name></trkpt>
<trkpt lat="53.331775" lon="06.621498"><ele>6.3</ele><time>2021-05-20T14:37:50Z</time><name>PT12739</name></trkpt>
<trkpt lat="53.331774" lon="06.621482"><ele>6.3</ele><time>2021-05-20T14:37:51Z</time><name>PT12740</name></trkpt>
<trkpt lat="53.331772" lon="06.621462"><ele>6.4</ele><time>2021-05-20T14:37:52Z</time><name>PT12741</name></trkpt>
<trkpt lat="53.331769" lon="06.621443"><ele>6.4</ele><time>2021-05-20T14:37:53Z</time><name>PT12742</name></trkpt>
<trkpt lat="53.331765" lon="06.621429"><ele>6.5</ele><time>2021-05-20T14:37:54Z</time><name>PT12743</name></trkpt>
<trkpt lat="53.331763" lon="06.621424"><ele>6.5</ele><time>2021-05-20T14:37:55Z</time><name>PT12744</name></trkpt>
<trkpt lat="53.331762" lon="06.621421"><ele>6.5</ele><time>2021-05-20T14:37:56Z</time><name>PT12745</name></trkpt>
<trkpt lat="53.331760" lon="06.621417"><ele>6.4</ele><time>2021-05-20T14:37:57Z</time><name>PT12746</name></trkpt>
<trkpt lat="53.331763" lon="06.621409"><ele>6.4</ele><time>2021-05-20T14:38:02Z</time><name>PT12747</name></trkpt>
<trkpt lat="53.331762" lon="06.621389"><ele>6.4</ele><time>2021-05-20T14:38:03Z</time><name>PT12748</name></trkpt>
<trkpt lat="53.331758" lon="06.621373"><ele>6.4</ele><time>2021-05-20T14:38:04Z</time><name>PT12749</name></trkpt>
<trkpt lat="53.331755" lon="06.621360"><ele>6.5</ele><time>2021-05-20T14:38:05Z</time><name>PT12750</name></trkpt>
<trkpt lat="53.331752" lon="06.621345"><ele>6.4</ele><time>2021-05-20T14:38:06Z</time><name>PT12751</name></trkpt>
<trkpt lat="53.331752" lon="06.621328"><ele>6.6</ele><time>2021-05-20T14:38:07Z</time><name>PT12752</name></trkpt>
<trkpt lat="53.331752" lon="06.621310"><ele>6.7</ele><time>2021-05-20T14:38:08Z</time><name>PT12753</name></trkpt>
<trkpt lat="53.331749" lon="06.621288"><ele>6.8</ele><time>2021-05-20T14:38:09Z</time><name>PT12754</name></trkpt>
<trkpt lat="53.331746" lon="06.621269"><ele>6.7</ele><time>2021-05-20T14:38:10Z</time><name>PT12755</name></trkpt>
<trkpt lat="53.331744" lon="06.621257"><ele>6.7</ele><time>2021-05-20T14:38:11Z</time><name>PT12756</name></trkpt>
<trkpt lat="53.331741" lon="06.621245"><ele>6.7</ele><time>2021-05-20T14:38:12Z</time><name>PT12757</name></trkpt>
<trkpt lat="53.331741" lon="06.621233"><ele>6.8</ele><time>2021-05-20T14:38:13Z</time><name>PT12758</name></trkpt>
<trkpt lat="53.331739" lon="06.621215"><ele>6.9</ele><time>2021-05-20T14:38:14Z</time><name>PT12759</name></trkpt>
<trkpt lat="53.331736" lon="06.621192"><ele>7</ele><time>2021-05-20T14:38:15Z</time><name>PT12760</name></trkpt>
<trkpt lat="53.331734" lon="06.621173"><ele>7.1</ele><time>2021-05-20T14:38:16Z</time><name>PT12761</name></trkpt>
<trkpt lat="53.331730" lon="06.621159"><ele>6.9</ele><time>2021-05-20T14:38:17Z</time><name>PT12762</name></trkpt>
<trkpt lat="53.331728" lon="06.621148"><ele>6.9</ele><time>2021-05-20T14:38:18Z</time><name>PT12763</name></trkpt>
<trkpt lat="53.331726" lon="06.621136"><ele>6.9</ele><time>2021-05-20T14:38:19Z</time><name>PT12764</name></trkpt>
<trkpt lat="53.331725" lon="06.621120"><ele>7.1</ele><time>2021-05-20T14:38:20Z</time><name>PT12765</name></trkpt>
<trkpt lat="53.331722" lon="06.621097"><ele>7.2</ele><time>2021-05-20T14:38:21Z</time><name>PT12766</name></trkpt>
<trkpt lat="53.331719" lon="06.621072"><ele>7.1</ele><time>2021-05-20T14:38:22Z</time><name>PT12767</name></trkpt>
<trkpt lat="53.331716" lon="06.621050"><ele>7.3</ele><time>2021-05-20T14:38:23Z</time><name>PT12768</name></trkpt>
<trkpt lat="53.331713" lon="06.621032"><ele>7.1</ele><time>2021-05-20T14:38:24Z</time><name>PT12769</name></trkpt>
<trkpt lat="53.331709" lon="06.621018"><ele>7.2</ele><time>2021-05-20T14:38:25Z</time><name>PT12770</name></trkpt>
<trkpt lat="53.331706" lon="06.621006"><ele>7</ele><time>2021-05-20T14:38:26Z</time><name>PT12771</name></trkpt>
<trkpt lat="53.331702" lon="06.620993"><ele>6.9</ele><time>2021-05-20T14:38:27Z</time><name>PT12772</name></trkpt>
<trkpt lat="53.331699" lon="06.620980"><ele>6.7</ele><time>2021-05-20T14:38:28Z</time><name>PT12773</name></trkpt>
<trkpt lat="53.331697" lon="06.620962"><ele>6.8</ele><time>2021-05-20T14:38:29Z</time><name>PT12774</name></trkpt>
<trkpt lat="53.331697" lon="06.620944"><ele>6.9</ele><time>2021-05-20T14:38:30Z</time><name>PT12775</name></trkpt>
<trkpt lat="53.331696" lon="06.620922"><ele>6.9</ele><time>2021-05-20T14:38:31Z</time><name>PT12776</name></trkpt>
<trkpt lat="53.331693" lon="06.620898"><ele>6.9</ele><time>2021-05-20T14:38:32Z</time><name>PT12777</name></trkpt>
<trkpt lat="53.331689" lon="06.620878"><ele>6.7</ele><time>2021-05-20T14:38:33Z</time><name>PT12778</name></trkpt>
<trkpt lat="53.331685" lon="06.620863"><ele>6.8</ele><time>2021-05-20T14:38:34Z</time><name>PT12779</name></trkpt>
<trkpt lat="53.331681" lon="06.620851"><ele>6.6</ele><time>2021-05-20T14:38:35Z</time><name>PT12780</name></trkpt>
<trkpt lat="53.331677" lon="06.620840"><ele>6.7</ele><time>2021-05-20T14:38:36Z</time><name>PT12781</name></trkpt>
<trkpt lat="53.331675" lon="06.620827"><ele>6.8</ele><time>2021-05-20T14:38:37Z</time><name>PT12782</name></trkpt>
<trkpt lat="53.331674" lon="06.620811"><ele>6.9</ele><time>2021-05-20T14:38:38Z</time><name>PT12783</name></trkpt>
<trkpt lat="53.331671" lon="06.620789"><ele>7</ele><time>2021-05-20T14:38:39Z</time><name>PT12784</name></trkpt>
<trkpt lat="53.331669" lon="06.620765"><ele>7</ele><time>2021-05-20T14:38:40Z</time><name>PT12785</name></trkpt>
<trkpt lat="53.331666" lon="06.620745"><ele>7</ele><time>2021-05-20T14:38:41Z</time><name>PT12786</name></trkpt>
<trkpt lat="53.331662" lon="06.620731"><ele>7</ele><time>2021-05-20T14:38:42Z</time><name>PT12787</name></trkpt>
<trkpt lat="53.331661" lon="06.620720"><ele>7</ele><time>2021-05-20T14:38:43Z</time><name>PT12788</name></trkpt>
<trkpt lat="53.331660" lon="06.620707"><ele>7</ele><time>2021-05-20T14:38:44Z</time><name>PT12789</name></trkpt>
<trkpt lat="53.331658" lon="06.620689"><ele>7</ele><time>2021-05-20T14:38:45Z</time><name>PT12790</name></trkpt>
<trkpt lat="53.331657" lon="06.620667"><ele>7.1</ele><time>2021-05-20T14:38:46Z</time><name>PT12791</name></trkpt>
<trkpt lat="53.331654" lon="06.620647"><ele>6.9</ele><time>2021-05-20T14:38:47Z</time><name>PT12792</name></trkpt>
<trkpt lat="53.331649" lon="06.620630"><ele>6.9</ele><time>2021-05-20T14:38:48Z</time><name>PT12793</name></trkpt>
<trkpt lat="53.331646" lon="06.620618"><ele>6.9</ele><time>2021-05-20T14:38:49Z</time><name>PT12794</name></trkpt>
<trkpt lat="53.331643" lon="06.620608"><ele>6.9</ele><time>2021-05-20T14:38:50Z</time><name>PT12795</name></trkpt>
<trkpt lat="53.331642" lon="06.620597"><ele>7</ele><time>2021-05-20T14:38:51Z</time><name>PT12796</name></trkpt>
<trkpt lat="53.331643" lon="06.620581"><ele>7.2</ele><time>2021-05-20T14:38:52Z</time><name>PT12797</name></trkpt>
<trkpt lat="53.331643" lon="06.620559"><ele>7.3</ele><time>2021-05-20T14:38:53Z</time><name>PT12798</name></trkpt>
<trkpt lat="53.331640" lon="06.620536"><ele>7.3</ele><time>2021-05-20T14:38:54Z</time><name>PT12799</name></trkpt>
<trkpt lat="53.331636" lon="06.620524"><ele>7.3</ele><time>2021-05-20T14:38:55Z</time><name>PT12800</name></trkpt>
<trkpt lat="53.331633" lon="06.620517"><ele>7.2</ele><time>2021-05-20T14:38:56Z</time><name>PT12801</name></trkpt>
<trkpt lat="53.331633" lon="06.620516"><ele>7.1</ele><time>2021-05-20T14:38:57Z</time><name>PT12802</name></trkpt>
<trkpt lat="53.331633" lon="06.620516"><ele>7.1</ele><time>2021-05-20T14:38:58Z</time><name>PT12803</name></trkpt>
<trkpt lat="53.331633" lon="06.620516"><ele>6.9</ele><time>2021-05-20T14:38:59Z</time><name>PT12804</name></trkpt>
<trkpt lat="53.331633" lon="06.620517"><ele>6.9</ele><time>2021-05-20T14:39:01Z</time><name>PT12805</name></trkpt>
<trkpt lat="53.331631" lon="06.620493"><ele>6.9</ele><time>2021-05-20T14:39:02Z</time><name>PT12806</name></trkpt>
<trkpt lat="53.331633" lon="06.620472"><ele>6.8</ele><time>2021-05-20T14:39:03Z</time><name>PT12807</name></trkpt>
<trkpt lat="53.331632" lon="06.620453"><ele>6.8</ele><time>2021-05-20T14:39:04Z</time><name>PT12808</name></trkpt>
<trkpt lat="53.331630" lon="06.620438"><ele>6.7</ele><time>2021-05-20T14:39:05Z</time><name>PT12809</name></trkpt>
<trkpt lat="53.331627" lon="06.620420"><ele>6.6</ele><time>2021-05-20T14:39:06Z</time><name>PT12810</name></trkpt>
<trkpt lat="53.331624" lon="06.620402"><ele>6.4</ele><time>2021-05-20T14:39:07Z</time><name>PT12811</name></trkpt>
<trkpt lat="53.331620" lon="06.620386"><ele>6.5</ele><time>2021-05-20T14:39:08Z</time><name>PT12812</name></trkpt>
<trkpt lat="53.331618" lon="06.620371"><ele>6.5</ele><time>2021-05-20T14:39:09Z</time><name>PT12813</name></trkpt>
<trkpt lat="53.331615" lon="06.620356"><ele>6.7</ele><time>2021-05-20T14:39:10Z</time><name>PT12814</name></trkpt>
<trkpt lat="53.331613" lon="06.620342"><ele>6.9</ele><time>2021-05-20T14:39:11Z</time><name>PT12815</name></trkpt>
<trkpt lat="53.331610" lon="06.620323"><ele>6.8</ele><time>2021-05-20T14:39:12Z</time><name>PT12816</name></trkpt>
<trkpt lat="53.331606" lon="06.620304"><ele>6.9</ele><time>2021-05-20T14:39:13Z</time><name>PT12817</name></trkpt>
<trkpt lat="53.331604" lon="06.620288"><ele>6.9</ele><time>2021-05-20T14:39:14Z</time><name>PT12818</name></trkpt>
<trkpt lat="53.331602" lon="06.620269"><ele>6.8</ele><time>2021-05-20T14:39:15Z</time><name>PT12819</name></trkpt>
<trkpt lat="53.331599" lon="06.620249"><ele>6.8</ele><time>2021-05-20T14:39:16Z</time><name>PT12820</name></trkpt>
<trkpt lat="53.331597" lon="06.620229"><ele>6.7</ele><time>2021-05-20T14:39:17Z</time><name>PT12821</name></trkpt>
<trkpt lat="53.331593" lon="06.620210"><ele>6.7</ele><time>2021-05-20T14:39:18Z</time><name>PT12822</name></trkpt>
<trkpt lat="53.331587" lon="06.620193"><ele>6.9</ele><time>2021-05-20T14:39:19Z</time><name>PT12823</name></trkpt>
<trkpt lat="53.331582" lon="06.620181"><ele>7</ele><time>2021-05-20T14:39:20Z</time><name>PT12824</name></trkpt>
<trkpt lat="53.331577" lon="06.620168"><ele>7.2</ele><time>2021-05-20T14:39:21Z</time><name>PT12825</name></trkpt>
<trkpt lat="53.331575" lon="06.620156"><ele>7.3</ele><time>2021-05-20T14:39:22Z</time><name>PT12826</name></trkpt>
<trkpt lat="53.331573" lon="06.620139"><ele>7.4</ele><time>2021-05-20T14:39:23Z</time><name>PT12827</name></trkpt>
<trkpt lat="53.331569" lon="06.620114"><ele>7.3</ele><time>2021-05-20T14:39:24Z</time><name>PT12828</name></trkpt>
<trkpt lat="53.331566" lon="06.620088"><ele>7.3</ele><time>2021-05-20T14:39:25Z</time><name>PT12829</name></trkpt>
<trkpt lat="53.331563" lon="06.620068"><ele>7.2</ele><time>2021-05-20T14:39:26Z</time><name>PT12830</name></trkpt>
<trkpt lat="53.331560" lon="06.620055"><ele>7.1</ele><time>2021-05-20T14:39:27Z</time><name>PT12831</name></trkpt>
<trkpt lat="53.331556" lon="06.620044"><ele>6.9</ele><time>2021-05-20T14:39:28Z</time><name>PT12832</name></trkpt>
<trkpt lat="53.331552" lon="06.620032"><ele>7</ele><time>2021-05-20T14:39:29Z</time><name>PT12833</name></trkpt>
<trkpt lat="53.331552" lon="06.620018"><ele>6.9</ele><time>2021-05-20T14:39:30Z</time><name>PT12834</name></trkpt>
<trkpt lat="53.331551" lon="06.620002"><ele>7</ele><time>2021-05-20T14:39:31Z</time><name>PT12835</name></trkpt>
<trkpt lat="53.331553" lon="06.619980"><ele>7.2</ele><time>2021-05-20T14:39:32Z</time><name>PT12836</name></trkpt>
<trkpt lat="53.331550" lon="06.619958"><ele>7.2</ele><time>2021-05-20T14:39:33Z</time><name>PT12837</name></trkpt>
<trkpt lat="53.331546" lon="06.619943"><ele>7.3</ele><time>2021-05-20T14:39:34Z</time><name>PT12838</name></trkpt>
<trkpt lat="53.331542" lon="06.619931"><ele>7.3</ele><time>2021-05-20T14:39:35Z</time><name>PT12839</name></trkpt>
<trkpt lat="53.331539" lon="06.619919"><ele>7.3</ele><time>2021-05-20T14:39:36Z</time><name>PT12840</name></trkpt>
<trkpt lat="53.331537" lon="06.619905"><ele>7.3</ele><time>2021-05-20T14:39:37Z</time><name>PT12841</name></trkpt>
<trkpt lat="53.331538" lon="06.619888"><ele>7.2</ele><time>2021-05-20T14:39:38Z</time><name>PT12842</name></trkpt>
<trkpt lat="53.331539" lon="06.619867"><ele>7.1</ele><time>2021-05-20T14:39:39Z</time><name>PT12843</name></trkpt>
<trkpt lat="53.331536" lon="06.619843"><ele>7</ele><time>2021-05-20T14:39:40Z</time><name>PT12844</name></trkpt>
<trkpt lat="53.331533" lon="06.619823"><ele>7.1</ele><time>2021-05-20T14:39:41Z</time><name>PT12845</name></trkpt>
<trkpt lat="53.331529" lon="06.619808"><ele>6.9</ele><time>2021-05-20T14:39:42Z</time><name>PT12846</name></trkpt>
<trkpt lat="53.331525" lon="06.619798"><ele>6.9</ele><time>2021-05-20T14:39:43Z</time><name>PT12847</name></trkpt>
<trkpt lat="53.331522" lon="06.619789"><ele>7</ele><time>2021-05-20T14:39:44Z</time><name>PT12848</name></trkpt>
<trkpt lat="53.331520" lon="06.619776"><ele>7</ele><time>2021-05-20T14:39:45Z</time><name>PT12849</name></trkpt>
<trkpt lat="53.331520" lon="06.619759"><ele>7</ele><time>2021-05-20T14:39:46Z</time><name>PT12850</name></trkpt>
<trkpt lat="53.331518" lon="06.619737"><ele>7.3</ele><time>2021-05-20T14:39:47Z</time><name>PT12851</name></trkpt>
<trkpt lat="53.331514" lon="06.619716"><ele>7.3</ele><time>2021-05-20T14:39:48Z</time><name>PT12852</name></trkpt>
<trkpt lat="53.331511" lon="06.619701"><ele>7.3</ele><time>2021-05-20T14:39:49Z</time><name>PT12853</name></trkpt>
<trkpt lat="53.331507" lon="06.619690"><ele>7.5</ele><time>2021-05-20T14:39:50Z</time><name>PT12854</name></trkpt>
<trkpt lat="53.331503" lon="06.619678"><ele>7.5</ele><time>2021-05-20T14:39:51Z</time><name>PT12855</name></trkpt>
<trkpt lat="53.331503" lon="06.619664"><ele>7.4</ele><time>2021-05-20T14:39:52Z</time><name>PT12856</name></trkpt>
<trkpt lat="53.331503" lon="06.619645"><ele>7.3</ele><time>2021-05-20T14:39:53Z</time><name>PT12857</name></trkpt>
<trkpt lat="53.331503" lon="06.619621"><ele>7.4</ele><time>2021-05-20T14:39:54Z</time><name>PT12858</name></trkpt>
<trkpt lat="53.331500" lon="06.619596"><ele>7.2</ele><time>2021-05-20T14:39:55Z</time><name>PT12859</name></trkpt>
<trkpt lat="53.331497" lon="06.619581"><ele>7.1</ele><time>2021-05-20T14:39:56Z</time><name>PT12860</name></trkpt>
<trkpt lat="53.331493" lon="06.619571"><ele>7.1</ele><time>2021-05-20T14:39:57Z</time><name>PT12861</name></trkpt>
<trkpt lat="53.331489" lon="06.619560"><ele>7.3</ele><time>2021-05-20T14:39:58Z</time><name>PT12862</name></trkpt>
<trkpt lat="53.331487" lon="06.619546"><ele>7.3</ele><time>2021-05-20T14:39:59Z</time><name>PT12863</name></trkpt>
<trkpt lat="53.331486" lon="06.619528"><ele>7.3</ele><time>2021-05-20T14:40:00Z</time><name>PT12864</name></trkpt>
<trkpt lat="53.331485" lon="06.619504"><ele>7.2</ele><time>2021-05-20T14:40:01Z</time><name>PT12865</name></trkpt>
<trkpt lat="53.331483" lon="06.619481"><ele>7.2</ele><time>2021-05-20T14:40:02Z</time><name>PT12866</name></trkpt>
<trkpt lat="53.331481" lon="06.619457"><ele>7.2</ele><time>2021-05-20T14:40:03Z</time><name>PT12867</name></trkpt>
<trkpt lat="53.331478" lon="06.619439"><ele>7</ele><time>2021-05-20T14:40:04Z</time><name>PT12868</name></trkpt>
<trkpt lat="53.331474" lon="06.619425"><ele>7.1</ele><time>2021-05-20T14:40:05Z</time><name>PT12869</name></trkpt>
<trkpt lat="53.331471" lon="06.619413"><ele>7.1</ele><time>2021-05-20T14:40:06Z</time><name>PT12870</name></trkpt>
<trkpt lat="53.331469" lon="06.619400"><ele>7.1</ele><time>2021-05-20T14:40:07Z</time><name>PT12871</name></trkpt>
<trkpt lat="53.331467" lon="06.619385"><ele>7.3</ele><time>2021-05-20T14:40:08Z</time><name>PT12872</name></trkpt>
<trkpt lat="53.331463" lon="06.619362"><ele>7.3</ele><time>2021-05-20T14:40:09Z</time><name>PT12873</name></trkpt>
<trkpt lat="53.331459" lon="06.619337"><ele>7.2</ele><time>2021-05-20T14:40:10Z</time><name>PT12874</name></trkpt>
<trkpt lat="53.331454" lon="06.619314"><ele>7.3</ele><time>2021-05-20T14:40:11Z</time><name>PT12875</name></trkpt>
<trkpt lat="53.331450" lon="06.619299"><ele>7.2</ele><time>2021-05-20T14:40:12Z</time><name>PT12876</name></trkpt>
<trkpt lat="53.331448" lon="06.619288"><ele>7.1</ele><time>2021-05-20T14:40:13Z</time><name>PT12877</name></trkpt>
<trkpt lat="53.331445" lon="06.619275"><ele>6.9</ele><time>2021-05-20T14:40:14Z</time><name>PT12878</name></trkpt>
<trkpt lat="53.331442" lon="06.619262"><ele>6.9</ele><time>2021-05-20T14:40:15Z</time><name>PT12879</name></trkpt>
<trkpt lat="53.331439" lon="06.619242"><ele>6.9</ele><time>2021-05-20T14:40:16Z</time><name>PT12880</name></trkpt>
<trkpt lat="53.331437" lon="06.619220"><ele>6.9</ele><time>2021-05-20T14:40:17Z</time><name>PT12881</name></trkpt>
<trkpt lat="53.331434" lon="06.619205"><ele>7</ele><time>2021-05-20T14:40:18Z</time><name>PT12882</name></trkpt>
<trkpt lat="53.331430" lon="06.619193"><ele>7.2</ele><time>2021-05-20T14:40:19Z</time><name>PT12883</name></trkpt>
<trkpt lat="53.331427" lon="06.619182"><ele>7.3</ele><time>2021-05-20T14:40:20Z</time><name>PT12884</name></trkpt>
<trkpt lat="53.331428" lon="06.619170"><ele>7.3</ele><time>2021-05-20T14:40:21Z</time><name>PT12885</name></trkpt>
<trkpt lat="53.331427" lon="06.619152"><ele>7.3</ele><time>2021-05-20T14:40:22Z</time><name>PT12886</name></trkpt>
<trkpt lat="53.331424" lon="06.619133"><ele>7.1</ele><time>2021-05-20T14:40:23Z</time><name>PT12887</name></trkpt>
<trkpt lat="53.331421" lon="06.619119"><ele>7.2</ele><time>2021-05-20T14:40:24Z</time><name>PT12888</name></trkpt>
<trkpt lat="53.331418" lon="06.619109"><ele>7.2</ele><time>2021-05-20T14:40:25Z</time><name>PT12889</name></trkpt>
<trkpt lat="53.331415" lon="06.619098"><ele>7.1</ele><time>2021-05-20T14:40:26Z</time><name>PT12890</name></trkpt>
<trkpt lat="53.331414" lon="06.619085"><ele>7.1</ele><time>2021-05-20T14:40:27Z</time><name>PT12891</name></trkpt>
<trkpt lat="53.331414" lon="06.619070"><ele>7</ele><time>2021-05-20T14:40:28Z</time><name>PT12892</name></trkpt>
<trkpt lat="53.331414" lon="06.619051"><ele>6.9</ele><time>2021-05-20T14:40:29Z</time><name>PT12893</name></trkpt>
<trkpt lat="53.331413" lon="06.619029"><ele>6.9</ele><time>2021-05-20T14:40:30Z</time><name>PT12894</name></trkpt>
<trkpt lat="53.331410" lon="06.619011"><ele>7</ele><time>2021-05-20T14:40:31Z</time><name>PT12895</name></trkpt>
<trkpt lat="53.331408" lon="06.618999"><ele>6.9</ele><time>2021-05-20T14:40:32Z</time><name>PT12896</name></trkpt>
<trkpt lat="53.331405" lon="06.618988"><ele>7</ele><time>2021-05-20T14:40:33Z</time><name>PT12897</name></trkpt>
<trkpt lat="53.331404" lon="06.618977"><ele>7</ele><time>2021-05-20T14:40:34Z</time><name>PT12898</name></trkpt>
<trkpt lat="53.331402" lon="06.618963"><ele>7.1</ele><time>2021-05-20T14:40:35Z</time><name>PT12899</name></trkpt>
<trkpt lat="53.331400" lon="06.618945"><ele>7.3</ele><time>2021-05-20T14:40:36Z</time><name>PT12900</name></trkpt>
<trkpt lat="53.331398" lon="06.618922"><ele>7.3</ele><time>2021-05-20T14:40:37Z</time><name>PT12901</name></trkpt>
<trkpt lat="53.331395" lon="06.618902"><ele>7.5</ele><time>2021-05-20T14:40:38Z</time><name>PT12902</name></trkpt>
<trkpt lat="53.331392" lon="06.618889"><ele>7.4</ele><time>2021-05-20T14:40:39Z</time><name>PT12903</name></trkpt>
<trkpt lat="53.331388" lon="06.618878"><ele>7.3</ele><time>2021-05-20T14:40:40Z</time><name>PT12904</name></trkpt>
<trkpt lat="53.331384" lon="06.618860"><ele>7.3</ele><time>2021-05-20T14:40:41Z</time><name>PT12905</name></trkpt>
<trkpt lat="53.331382" lon="06.618846"><ele>7.4</ele><time>2021-05-20T14:40:42Z</time><name>PT12906</name></trkpt>
<trkpt lat="53.331381" lon="06.618827"><ele>7.3</ele><time>2021-05-20T14:40:43Z</time><name>PT12907</name></trkpt>
<trkpt lat="53.331377" lon="06.618804"><ele>7.3</ele><time>2021-05-20T14:40:44Z</time><name>PT12908</name></trkpt>
<trkpt lat="53.331374" lon="06.618791"><ele>7.3</ele><time>2021-05-20T14:40:45Z</time><name>PT12909</name></trkpt>
<trkpt lat="53.331370" lon="06.618777"><ele>7</ele><time>2021-05-20T14:40:46Z</time><name>PT12910</name></trkpt>
<trkpt lat="53.331368" lon="06.618767"><ele>6.9</ele><time>2021-05-20T14:40:47Z</time><name>PT12911</name></trkpt>
<trkpt lat="53.331367" lon="06.618755"><ele>6.7</ele><time>2021-05-20T14:40:48Z</time><name>PT12912</name></trkpt>
<trkpt lat="53.331365" lon="06.618736"><ele>6.7</ele><time>2021-05-20T14:40:49Z</time><name>PT12913</name></trkpt>
<trkpt lat="53.331362" lon="06.618723"><ele>6.8</ele><time>2021-05-20T14:40:50Z</time><name>PT12914</name></trkpt>
<trkpt lat="53.331360" lon="06.618714"><ele>6.7</ele><time>2021-05-20T14:40:51Z</time><name>PT12915</name></trkpt>
<trkpt lat="53.331358" lon="06.618708"><ele>6.8</ele><time>2021-05-20T14:40:52Z</time><name>PT12916</name></trkpt>
<trkpt lat="53.331356" lon="06.618709"><ele>6.9</ele><time>2021-05-20T14:40:54Z</time><name>PT12917</name></trkpt>
<trkpt lat="53.331353" lon="06.618696"><ele>6.9</ele><time>2021-05-20T14:40:55Z</time><name>PT12918</name></trkpt>
<trkpt lat="53.331352" lon="06.618682"><ele>6.9</ele><time>2021-05-20T14:40:56Z</time><name>PT12919</name></trkpt>
<trkpt lat="53.331349" lon="06.618667"><ele>7</ele><time>2021-05-20T14:40:57Z</time><name>PT12920</name></trkpt>
<trkpt lat="53.331347" lon="06.618648"><ele>6.9</ele><time>2021-05-20T14:40:58Z</time><name>PT12921</name></trkpt>
<trkpt lat="53.331344" lon="06.618634"><ele>7</ele><time>2021-05-20T14:40:59Z</time><name>PT12922</name></trkpt>
<trkpt lat="53.331342" lon="06.618619"><ele>7</ele><time>2021-05-20T14:41:00Z</time><name>PT12923</name></trkpt>
<trkpt lat="53.331342" lon="06.618607"><ele>6.9</ele><time>2021-05-20T14:41:01Z</time><name>PT12924</name></trkpt>
<trkpt lat="53.331339" lon="06.618597"><ele>6.9</ele><time>2021-05-20T14:41:02Z</time><name>PT12925</name></trkpt>
<trkpt lat="53.331339" lon="06.618590"><ele>6.8</ele><time>2021-05-20T14:41:03Z</time><name>PT12926</name></trkpt>
<trkpt lat="53.331340" lon="06.618585"><ele>6.7</ele><time>2021-05-20T14:41:04Z</time><name>PT12927</name></trkpt>
<trkpt lat="53.331340" lon="06.618582"><ele>6.5</ele><time>2021-05-20T14:41:05Z</time><name>PT12928</name></trkpt>
<trkpt lat="53.331340" lon="06.618580"><ele>6.5</ele><time>2021-05-20T14:41:06Z</time><name>PT12929</name></trkpt>
<trkpt lat="53.331339" lon="06.618570"><ele>6.9</ele><time>2021-05-20T14:41:09Z</time><name>PT12930</name></trkpt>
<trkpt lat="53.331336" lon="06.618551"><ele>6.9</ele><time>2021-05-20T14:41:10Z</time><name>PT12931</name></trkpt>
<trkpt lat="53.331332" lon="06.618538"><ele>6.8</ele><time>2021-05-20T14:41:11Z</time><name>PT12932</name></trkpt>
<trkpt lat="53.331329" lon="06.618524"><ele>6.7</ele><time>2021-05-20T14:41:12Z</time><name>PT12933</name></trkpt>
<trkpt lat="53.331326" lon="06.618507"><ele>6.9</ele><time>2021-05-20T14:41:13Z</time><name>PT12934</name></trkpt>
<trkpt lat="53.331325" lon="06.618486"><ele>6.9</ele><time>2021-05-20T14:41:14Z</time><name>PT12935</name></trkpt>
<trkpt lat="53.331322" lon="06.618463"><ele>7</ele><time>2021-05-20T14:41:15Z</time><name>PT12936</name></trkpt>
<trkpt lat="53.331319" lon="06.618446"><ele>6.9</ele><time>2021-05-20T14:41:16Z</time><name>PT12937</name></trkpt>
<trkpt lat="53.331317" lon="06.618434"><ele>6.9</ele><time>2021-05-20T14:41:17Z</time><name>PT12938</name></trkpt>
<trkpt lat="53.331315" lon="06.618423"><ele>6.8</ele><time>2021-05-20T14:41:18Z</time><name>PT12939</name></trkpt>
<trkpt lat="53.331314" lon="06.618406"><ele>6.7</ele><time>2021-05-20T14:41:19Z</time><name>PT12940</name></trkpt>
<trkpt lat="53.331311" lon="06.618382"><ele>6.7</ele><time>2021-05-20T14:41:20Z</time><name>PT12941</name></trkpt>
<trkpt lat="53.331307" lon="06.618364"><ele>6.7</ele><time>2021-05-20T14:41:21Z</time><name>PT12942</name></trkpt>
<trkpt lat="53.331303" lon="06.618350"><ele>6.7</ele><time>2021-05-20T14:41:22Z</time><name>PT12943</name></trkpt>
<trkpt lat="53.331300" lon="06.618337"><ele>6.6</ele><time>2021-05-20T14:41:23Z</time><name>PT12944</name></trkpt>
<trkpt lat="53.331298" lon="06.618323"><ele>6.5</ele><time>2021-05-20T14:41:24Z</time><name>PT12945</name></trkpt>
<trkpt lat="53.331296" lon="06.618302"><ele>6.5</ele><time>2021-05-20T14:41:25Z</time><name>PT12946</name></trkpt>
<trkpt lat="53.331292" lon="06.618280"><ele>6.5</ele><time>2021-05-20T14:41:26Z</time><name>PT12947</name></trkpt>
<trkpt lat="53.331287" lon="06.618264"><ele>6.7</ele><time>2021-05-20T14:41:27Z</time><name>PT12948</name></trkpt>
<trkpt lat="53.331283" lon="06.618251"><ele>6.9</ele><time>2021-05-20T14:41:28Z</time><name>PT12949</name></trkpt>
<trkpt lat="53.331281" lon="06.618240"><ele>6.8</ele><time>2021-05-20T14:41:29Z</time><name>PT12950</name></trkpt>
<trkpt lat="53.331278" lon="06.618225"><ele>6.7</ele><time>2021-05-20T14:41:30Z</time><name>PT12951</name></trkpt>
<trkpt lat="53.331272" lon="06.618211"><ele>6.8</ele><time>2021-05-20T14:41:31Z</time><name>PT12952</name></trkpt>
<trkpt lat="53.331268" lon="06.618204"><ele>6.7</ele><time>2021-05-20T14:41:32Z</time><name>PT12953</name></trkpt>
<trkpt lat="53.331267" lon="06.618197"><ele>6.7</ele><time>2021-05-20T14:41:33Z</time><name>PT12954</name></trkpt>
<trkpt lat="53.331263" lon="06.618189"><ele>6.6</ele><time>2021-05-20T14:41:34Z</time><name>PT12955</name></trkpt>
<trkpt lat="53.331259" lon="06.618179"><ele>6.8</ele><time>2021-05-20T14:41:35Z</time><name>PT12956</name></trkpt>
<trkpt lat="53.331254" lon="06.618166"><ele>6.7</ele><time>2021-05-20T14:41:36Z</time><name>PT12957</name></trkpt>
<trkpt lat="53.331249" lon="06.618150"><ele>6.8</ele><time>2021-05-20T14:41:37Z</time><name>PT12958</name></trkpt>
<trkpt lat="53.331243" lon="06.618135"><ele>6.9</ele><time>2021-05-20T14:41:38Z</time><name>PT12959</name></trkpt>
<trkpt lat="53.331237" lon="06.618121"><ele>6.8</ele><time>2021-05-20T14:41:39Z</time><name>PT12960</name></trkpt>
<trkpt lat="53.331229" lon="06.618108"><ele>6.7</ele><time>2021-05-20T14:41:40Z</time><name>PT12961</name></trkpt>
<trkpt lat="53.331224" lon="06.618100"><ele>6.7</ele><time>2021-05-20T14:41:41Z</time><name>PT12962</name></trkpt>
<trkpt lat="53.331218" lon="06.618090"><ele>6.6</ele><time>2021-05-20T14:41:42Z</time><name>PT12963</name></trkpt>
<trkpt lat="53.331211" lon="06.618083"><ele>6.6</ele><time>2021-05-20T14:41:43Z</time><name>PT12964</name></trkpt>
<trkpt lat="53.331213" lon="06.618081"><ele>6.7</ele><time>2021-05-20T14:41:44Z</time><name>PT12965</name></trkpt>
<trkpt lat="53.331215" lon="06.618078"><ele>6.7</ele><time>2021-05-20T14:41:45Z</time><name>PT12966</name></trkpt>
<trkpt lat="53.331215" lon="06.618079"><ele>6.7</ele><time>2021-05-20T14:41:46Z</time><name>PT12967</name></trkpt>
<trkpt lat="53.331214" lon="06.618081"><ele>6.9</ele><time>2021-05-20T14:41:47Z</time><name>PT12968</name></trkpt>
<trkpt lat="53.331214" lon="06.618082"><ele>6.8</ele><time>2021-05-20T14:41:48Z</time><name>PT12969</name></trkpt>
<trkpt lat="53.331213" lon="06.618082"><ele>6.9</ele><time>2021-05-20T14:41:49Z</time><name>PT12970</name></trkpt>
<trkpt lat="53.331214" lon="06.618080"><ele>7.3</ele><time>2021-05-20T14:41:53Z</time><name>PT12971</name></trkpt>
<trkpt lat="53.331209" lon="06.618073"><ele>7.1</ele><time>2021-05-20T14:41:54Z</time><name>PT12972</name></trkpt>
<trkpt lat="53.331202" lon="06.618064"><ele>7.1</ele><time>2021-05-20T14:41:55Z</time><name>PT12973</name></trkpt>
<trkpt lat="53.331194" lon="06.618055"><ele>7.1</ele><time>2021-05-20T14:41:56Z</time><name>PT12974</name></trkpt>
<trkpt lat="53.331184" lon="06.618047"><ele>6.9</ele><time>2021-05-20T14:41:57Z</time><name>PT12975</name></trkpt>
<trkpt lat="53.331178" lon="06.618040"><ele>7</ele><time>2021-05-20T14:41:58Z</time><name>PT12976</name></trkpt>
<trkpt lat="53.331171" lon="06.618032"><ele>7</ele><time>2021-05-20T14:41:59Z</time><name>PT12977</name></trkpt>
<trkpt lat="53.331162" lon="06.618023"><ele>6.9</ele><time>2021-05-20T14:42:00Z</time><name>PT12978</name></trkpt>
<trkpt lat="53.331153" lon="06.618016"><ele>6.9</ele><time>2021-05-20T14:42:01Z</time><name>PT12979</name></trkpt>
<trkpt lat="53.331144" lon="06.618012"><ele>6.9</ele><time>2021-05-20T14:42:02Z</time><name>PT12980</name></trkpt>
<trkpt lat="53.331136" lon="06.618009"><ele>7</ele><time>2021-05-20T14:42:03Z</time><name>PT12981</name></trkpt>
<trkpt lat="53.331126" lon="06.618004"><ele>6.9</ele><time>2021-05-20T14:42:04Z</time><name>PT12982</name></trkpt>
<trkpt lat="53.331115" lon="06.617999"><ele>6.9</ele><time>2021-05-20T14:42:05Z</time><name>PT12983</name></trkpt>
<trkpt lat="53.331104" lon="06.617995"><ele>7.2</ele><time>2021-05-20T14:42:06Z</time><name>PT12984</name></trkpt>
<trkpt lat="53.331093" lon="06.617993"><ele>7.2</ele><time>2021-05-20T14:42:07Z</time><name>PT12985</name></trkpt>
<trkpt lat="53.331081" lon="06.617994"><ele>7.2</ele><time>2021-05-20T14:42:08Z</time><name>PT12986</name></trkpt>
<trkpt lat="53.331071" lon="06.617995"><ele>7.3</ele><time>2021-05-20T14:42:09Z</time><name>PT12987</name></trkpt>
<trkpt lat="53.331060" lon="06.617998"><ele>7.3</ele><time>2021-05-20T14:42:10Z</time><name>PT12988</name></trkpt>
<trkpt lat="53.331047" lon="06.618000"><ele>7.3</ele><time>2021-05-20T14:42:11Z</time><name>PT12989</name></trkpt>
<trkpt lat="53.331036" lon="06.617997"><ele>7.2</ele><time>2021-05-20T14:42:12Z</time><name>PT12990</name></trkpt>
<trkpt lat="53.331024" lon="06.617998"><ele>7.1</ele><time>2021-05-20T14:42:13Z</time><name>PT12991</name></trkpt>
<trkpt lat="53.331012" lon="06.618002"><ele>7</ele><time>2021-05-20T14:42:14Z</time><name>PT12992</name></trkpt>
<trkpt lat="53.331000" lon="06.618007"><ele>7</ele><time>2021-05-20T14:42:15Z</time><name>PT12993</name></trkpt>
<trkpt lat="53.330991" lon="06.618011"><ele>7.1</ele><time>2021-05-20T14:42:16Z</time><name>PT12994</name></trkpt>
<trkpt lat="53.330983" lon="06.618015"><ele>7.1</ele><time>2021-05-20T14:42:17Z</time><name>PT12995</name></trkpt>
<trkpt lat="53.330975" lon="06.618014"><ele>7</ele><time>2021-05-20T14:42:18Z</time><name>PT12996</name></trkpt>
<trkpt lat="53.330968" lon="06.618015"><ele>7.1</ele><time>2021-05-20T14:42:19Z</time><name>PT12997</name></trkpt>
<trkpt lat="53.330965" lon="06.618014"><ele>7.1</ele><time>2021-05-20T14:42:20Z</time><name>PT12998</name></trkpt>
<trkpt lat="53.330961" lon="06.618016"><ele>7.1</ele><time>2021-05-20T14:42:21Z</time><name>PT12999</name></trkpt>
<trkpt lat="53.330956" lon="06.618019"><ele>7</ele><time>2021-05-20T14:42:22Z</time><name>PT13000</name></trkpt>
<trkpt lat="53.330951" lon="06.618020"><ele>7</ele><time>2021-05-20T14:42:23Z</time><name>PT13001</name></trkpt>
<trkpt lat="53.330948" lon="06.618022"><ele>7</ele><time>2021-05-20T14:42:24Z</time><name>PT13002</name></trkpt>
<trkpt lat="53.330946" lon="06.618023"><ele>7</ele><time>2021-05-20T14:42:25Z</time><name>PT13003</name></trkpt>
<trkpt lat="53.330946" lon="06.618022"><ele>7.2</ele><time>2021-05-20T14:42:26Z</time><name>PT13004</name></trkpt>
<trkpt lat="53.330946" lon="06.618021"><ele>7.2</ele><time>2021-05-20T14:42:27Z</time><name>PT13005</name></trkpt>
<trkpt lat="53.330944" lon="06.618022"><ele>7.3</ele><time>2021-05-20T14:42:28Z</time><name>PT13006</name></trkpt>
<trkpt lat="53.330944" lon="06.618022"><ele>7.4</ele><time>2021-05-20T14:42:29Z</time><name>PT13007</name></trkpt>
<trkpt lat="53.330941" lon="06.618019"><ele>7.3</ele><time>2021-05-20T14:42:31Z</time><name>PT13008</name></trkpt>
<trkpt lat="53.330937" lon="06.618023"><ele>7.2</ele><time>2021-05-20T14:42:32Z</time><name>PT13009</name></trkpt>
<trkpt lat="53.330933" lon="06.618025"><ele>7.3</ele><time>2021-05-20T14:42:33Z</time><name>PT13010</name></trkpt>
<trkpt lat="53.330928" lon="06.618029"><ele>7.3</ele><time>2021-05-20T14:42:34Z</time><name>PT13011</name></trkpt>
<trkpt lat="53.330922" lon="06.618034"><ele>7.2</ele><time>2021-05-20T14:42:35Z</time><name>PT13012</name></trkpt>
<trkpt lat="53.330917" lon="06.618038"><ele>7.3</ele><time>2021-05-20T14:42:36Z</time><name>PT13013</name></trkpt>
<trkpt lat="53.330912" lon="06.618044"><ele>7.1</ele><time>2021-05-20T14:42:37Z</time><name>PT13014</name></trkpt>
<trkpt lat="53.330910" lon="06.618046"><ele>7.2</ele><time>2021-05-20T14:42:38Z</time><name>PT13015</name></trkpt>
<trkpt lat="53.330911" lon="06.618043"><ele>7.3</ele><time>2021-05-20T14:42:39Z</time><name>PT13016</name></trkpt>
<trkpt lat="53.330911" lon="06.618042"><ele>7.5</ele><time>2021-05-20T14:42:40Z</time><name>PT13017</name></trkpt>
<trkpt lat="53.330910" lon="06.618041"><ele>7.7</ele><time>2021-05-20T14:42:41Z</time><name>PT13018</name></trkpt>
<trkpt lat="53.330908" lon="06.618046"><ele>7.6</ele><time>2021-05-20T14:42:42Z</time><name>PT13019</name></trkpt>
<trkpt lat="53.330901" lon="06.618049"><ele>7.5</ele><time>2021-05-20T14:42:43Z</time><name>PT13020</name></trkpt>
<trkpt lat="53.330895" lon="06.618052"><ele>7.3</ele><time>2021-05-20T14:42:44Z</time><name>PT13021</name></trkpt>
<trkpt lat="53.330888" lon="06.618057"><ele>7.4</ele><time>2021-05-20T14:42:45Z</time><name>PT13022</name></trkpt>
<trkpt lat="53.330880" lon="06.618060"><ele>7.5</ele><time>2021-05-20T14:42:46Z</time><name>PT13023</name></trkpt>
<trkpt lat="53.330872" lon="06.618064"><ele>7.4</ele><time>2021-05-20T14:42:47Z</time><name>PT13024</name></trkpt>
<trkpt lat="53.330865" lon="06.618072"><ele>7.5</ele><time>2021-05-20T14:42:48Z</time><name>PT13025</name></trkpt>
<trkpt lat="53.330858" lon="06.618079"><ele>7.5</ele><time>2021-05-20T14:42:49Z</time><name>PT13026</name></trkpt>
<trkpt lat="53.330851" lon="06.618085"><ele>7.4</ele><time>2021-05-20T14:42:50Z</time><name>PT13027</name></trkpt>
<trkpt lat="53.330843" lon="06.618091"><ele>7.4</ele><time>2021-05-20T14:42:51Z</time><name>PT13028</name></trkpt>
<trkpt lat="53.330834" lon="06.618099"><ele>7.4</ele><time>2021-05-20T14:42:52Z</time><name>PT13029</name></trkpt>
<trkpt lat="53.330826" lon="06.618109"><ele>7.3</ele><time>2021-05-20T14:42:53Z</time><name>PT13030</name></trkpt>
<trkpt lat="53.330821" lon="06.618113"><ele>7.3</ele><time>2021-05-20T14:42:54Z</time><name>PT13031</name></trkpt>
<trkpt lat="53.330817" lon="06.618116"><ele>7.3</ele><time>2021-05-20T14:42:55Z</time><name>PT13032</name></trkpt>
<trkpt lat="53.330813" lon="06.618120"><ele>7.3</ele><time>2021-05-20T14:42:56Z</time><name>PT13033</name></trkpt>
<trkpt lat="53.330805" lon="06.618125"><ele>7.6</ele><time>2021-05-20T14:43:02Z</time><name>PT13034</name></trkpt>
<trkpt lat="53.330792" lon="06.618131"><ele>7.8</ele><time>2021-05-20T14:43:03Z</time><name>PT13035</name></trkpt>
<trkpt lat="53.330777" lon="06.618142"><ele>7.8</ele><time>2021-05-20T14:43:04Z</time><name>PT13036</name></trkpt>
<trkpt lat="53.330765" lon="06.618152"><ele>7.6</ele><time>2021-05-20T14:43:05Z</time><name>PT13037</name></trkpt>
<trkpt lat="53.330754" lon="06.618160"><ele>7.5</ele><time>2021-05-20T14:43:06Z</time><name>PT13038</name></trkpt>
<trkpt lat="53.330743" lon="06.618168"><ele>7.3</ele><time>2021-05-20T14:43:07Z</time><name>PT13039</name></trkpt>
<trkpt lat="53.330732" lon="06.618177"><ele>7.4</ele><time>2021-05-20T14:43:08Z</time><name>PT13040</name></trkpt>
<trkpt lat="53.330721" lon="06.618188"><ele>7.5</ele><time>2021-05-20T14:43:09Z</time><name>PT13041</name></trkpt>
<trkpt lat="53.330710" lon="06.618199"><ele>7.7</ele><time>2021-05-20T14:43:10Z</time><name>PT13042</name></trkpt>
<trkpt lat="53.330701" lon="06.618208"><ele>7.8</ele><time>2021-05-20T14:43:11Z</time><name>PT13043</name></trkpt>
<trkpt lat="53.330693" lon="06.618215"><ele>7.8</ele><time>2021-05-20T14:43:12Z</time><name>PT13044</name></trkpt>
<trkpt lat="53.330682" lon="06.618219"><ele>7.7</ele><time>2021-05-20T14:43:13Z</time><name>PT13045</name></trkpt>
<trkpt lat="53.330671" lon="06.618225"><ele>7.5</ele><time>2021-05-20T14:43:14Z</time><name>PT13046</name></trkpt>
<trkpt lat="53.330660" lon="06.618234"><ele>7.5</ele><time>2021-05-20T14:43:15Z</time><name>PT13047</name></trkpt>
<trkpt lat="53.330648" lon="06.618244"><ele>7.3</ele><time>2021-05-20T14:43:16Z</time><name>PT13048</name></trkpt>
<trkpt lat="53.330638" lon="06.618255"><ele>7.5</ele><time>2021-05-20T14:43:17Z</time><name>PT13049</name></trkpt>
<trkpt lat="53.330627" lon="06.618266"><ele>7.7</ele><time>2021-05-20T14:43:18Z</time><name>PT13050</name></trkpt>
<trkpt lat="53.330619" lon="06.618276"><ele>7.8</ele><time>2021-05-20T14:43:19Z</time><name>PT13051</name></trkpt>
<trkpt lat="53.330610" lon="06.618284"><ele>7.8</ele><time>2021-05-20T14:43:20Z</time><name>PT13052</name></trkpt>
<trkpt lat="53.330601" lon="06.618291"><ele>7.8</ele><time>2021-05-20T14:43:21Z</time><name>PT13053</name></trkpt>
<trkpt lat="53.330591" lon="06.618297"><ele>7.6</ele><time>2021-05-20T14:43:22Z</time><name>PT13054</name></trkpt>
<trkpt lat="53.330579" lon="06.618306"><ele>7.3</ele><time>2021-05-20T14:43:23Z</time><name>PT13055</name></trkpt>
<trkpt lat="53.330570" lon="06.618315"><ele>7.3</ele><time>2021-05-20T14:43:24Z</time><name>PT13056</name></trkpt>
<trkpt lat="53.330562" lon="06.618325"><ele>7.3</ele><time>2021-05-20T14:43:25Z</time><name>PT13057</name></trkpt>
<trkpt lat="53.330554" lon="06.618338"><ele>7.2</ele><time>2021-05-20T14:43:26Z</time><name>PT13058</name></trkpt>
<trkpt lat="53.330546" lon="06.618349"><ele>7.2</ele><time>2021-05-20T14:43:27Z</time><name>PT13059</name></trkpt>
<trkpt lat="53.330539" lon="06.618355"><ele>7.1</ele><time>2021-05-20T14:43:28Z</time><name>PT13060</name></trkpt>
<trkpt lat="53.330529" lon="06.618364"><ele>7.2</ele><time>2021-05-20T14:43:29Z</time><name>PT13061</name></trkpt>
<trkpt lat="53.330521" lon="06.618372"><ele>7.2</ele><time>2021-05-20T14:43:30Z</time><name>PT13062</name></trkpt>
<trkpt lat="53.330514" lon="06.618382"><ele>7.3</ele><time>2021-05-20T14:43:31Z</time><name>PT13063</name></trkpt>
<trkpt lat="53.330505" lon="06.618392"><ele>7.3</ele><time>2021-05-20T14:43:32Z</time><name>PT13064</name></trkpt>
<trkpt lat="53.330497" lon="06.618402"><ele>7.1</ele><time>2021-05-20T14:43:33Z</time><name>PT13065</name></trkpt>
<trkpt lat="53.330488" lon="06.618410"><ele>7.1</ele><time>2021-05-20T14:43:34Z</time><name>PT13066</name></trkpt>
<trkpt lat="53.330477" lon="06.618417"><ele>7.1</ele><time>2021-05-20T14:43:35Z</time><name>PT13067</name></trkpt>
<trkpt lat="53.330466" lon="06.618425"><ele>7.1</ele><time>2021-05-20T14:43:36Z</time><name>PT13068</name></trkpt>
<trkpt lat="53.330455" lon="06.618432"><ele>7.1</ele><time>2021-05-20T14:43:37Z</time><name>PT13069</name></trkpt>
<trkpt lat="53.330445" lon="06.618439"><ele>7.3</ele><time>2021-05-20T14:43:38Z</time><name>PT13070</name></trkpt>
<trkpt lat="53.330436" lon="06.618448"><ele>7.3</ele><time>2021-05-20T14:43:39Z</time><name>PT13071</name></trkpt>
<trkpt lat="53.330426" lon="06.618458"><ele>7.3</ele><time>2021-05-20T14:43:40Z</time><name>PT13072</name></trkpt>
<trkpt lat="53.330417" lon="06.618468"><ele>7.2</ele><time>2021-05-20T14:43:41Z</time><name>PT13073</name></trkpt>
<trkpt lat="53.330408" lon="06.618476"><ele>7.3</ele><time>2021-05-20T14:43:42Z</time><name>PT13074</name></trkpt>
<trkpt lat="53.330399" lon="06.618483"><ele>7.2</ele><time>2021-05-20T14:43:43Z</time><name>PT13075</name></trkpt>
<trkpt lat="53.330388" lon="06.618490"><ele>7.1</ele><time>2021-05-20T14:43:44Z</time><name>PT13076</name></trkpt>
<trkpt lat="53.330378" lon="06.618497"><ele>7</ele><time>2021-05-20T14:43:45Z</time><name>PT13077</name></trkpt>
<trkpt lat="53.330368" lon="06.618506"><ele>7.1</ele><time>2021-05-20T14:43:46Z</time><name>PT13078</name></trkpt>
<trkpt lat="53.330359" lon="06.618513"><ele>7</ele><time>2021-05-20T14:43:47Z</time><name>PT13079</name></trkpt>
<trkpt lat="53.330349" lon="06.618520"><ele>7.2</ele><time>2021-05-20T14:43:48Z</time><name>PT13080</name></trkpt>
<trkpt lat="53.330339" lon="06.618529"><ele>7.1</ele><time>2021-05-20T14:43:49Z</time><name>PT13081</name></trkpt>
<trkpt lat="53.330330" lon="06.618540"><ele>7.3</ele><time>2021-05-20T14:43:50Z</time><name>PT13082</name></trkpt>
<trkpt lat="53.330321" lon="06.618550"><ele>7.3</ele><time>2021-05-20T14:43:51Z</time><name>PT13083</name></trkpt>
<trkpt lat="53.330313" lon="06.618559"><ele>7.3</ele><time>2021-05-20T14:43:52Z</time><name>PT13084</name></trkpt>
<trkpt lat="53.330303" lon="06.618566"><ele>7.3</ele><time>2021-05-20T14:43:53Z</time><name>PT13085</name></trkpt>
<trkpt lat="53.330293" lon="06.618572"><ele>7.1</ele><time>2021-05-20T14:43:54Z</time><name>PT13086</name></trkpt>
<trkpt lat="53.330283" lon="06.618578"><ele>7.2</ele><time>2021-05-20T14:43:55Z</time><name>PT13087</name></trkpt>
<trkpt lat="53.330272" lon="06.618585"><ele>7.1</ele><time>2021-05-20T14:43:56Z</time><name>PT13088</name></trkpt>
<trkpt lat="53.330262" lon="06.618594"><ele>7</ele><time>2021-05-20T14:43:57Z</time><name>PT13089</name></trkpt>
<trkpt lat="53.330253" lon="06.618604"><ele>7</ele><time>2021-05-20T14:43:58Z</time><name>PT13090</name></trkpt>
<trkpt lat="53.330245" lon="06.618611"><ele>7</ele><time>2021-05-20T14:43:59Z</time><name>PT13091</name></trkpt>
<trkpt lat="53.330237" lon="06.618619"><ele>6.9</ele><time>2021-05-20T14:44:00Z</time><name>PT13092</name></trkpt>
<trkpt lat="53.330228" lon="06.618627"><ele>7</ele><time>2021-05-20T14:44:01Z</time><name>PT13093</name></trkpt>
<trkpt lat="53.330218" lon="06.618632"><ele>7.1</ele><time>2021-05-20T14:44:02Z</time><name>PT13094</name></trkpt>
<trkpt lat="53.330209" lon="06.618636"><ele>7.1</ele><time>2021-05-20T14:44:03Z</time><name>PT13095</name></trkpt>
<trkpt lat="53.330199" lon="06.618642"><ele>7.1</ele><time>2021-05-20T14:44:04Z</time><name>PT13096</name></trkpt>
<trkpt lat="53.330189" lon="06.618651"><ele>7</ele><time>2021-05-20T14:44:05Z</time><name>PT13097</name></trkpt>
<trkpt lat="53.330178" lon="06.618659"><ele>6.9</ele><time>2021-05-20T14:44:06Z</time><name>PT13098</name></trkpt>
<trkpt lat="53.330170" lon="06.618667"><ele>6.9</ele><time>2021-05-20T14:44:07Z</time><name>PT13099</name></trkpt>
<trkpt lat="53.330160" lon="06.618673"><ele>6.9</ele><time>2021-05-20T14:44:08Z</time><name>PT13100</name></trkpt>
<trkpt lat="53.330152" lon="06.618676"><ele>7</ele><time>2021-05-20T14:44:09Z</time><name>PT13101</name></trkpt>
<trkpt lat="53.330144" lon="06.618684"><ele>7</ele><time>2021-05-20T14:44:10Z</time><name>PT13102</name></trkpt>
<trkpt lat="53.330135" lon="06.618691"><ele>6.9</ele><time>2021-05-20T14:44:11Z</time><name>PT13103</name></trkpt>
<trkpt lat="53.330126" lon="06.618700"><ele>6.9</ele><time>2021-05-20T14:44:12Z</time><name>PT13104</name></trkpt>
<trkpt lat="53.330116" lon="06.618709"><ele>6.8</ele><time>2021-05-20T14:44:13Z</time><name>PT13105</name></trkpt>
<trkpt lat="53.330107" lon="06.618721"><ele>6.7</ele><time>2021-05-20T14:44:14Z</time><name>PT13106</name></trkpt>
<trkpt lat="53.330097" lon="06.618731"><ele>6.6</ele><time>2021-05-20T14:44:15Z</time><name>PT13107</name></trkpt>
<trkpt lat="53.330088" lon="06.618741"><ele>6.7</ele><time>2021-05-20T14:44:16Z</time><name>PT13108</name></trkpt>
<trkpt lat="53.330079" lon="06.618748"><ele>6.5</ele><time>2021-05-20T14:44:17Z</time><name>PT13109</name></trkpt>
<trkpt lat="53.330071" lon="06.618755"><ele>6.5</ele><time>2021-05-20T14:44:18Z</time><name>PT13110</name></trkpt>
<trkpt lat="53.330061" lon="06.618762"><ele>6.6</ele><time>2021-05-20T14:44:19Z</time><name>PT13111</name></trkpt>
<trkpt lat="53.330050" lon="06.618767"><ele>6.6</ele><time>2021-05-20T14:44:20Z</time><name>PT13112</name></trkpt>
<trkpt lat="53.330038" lon="06.618777"><ele>7</ele><time>2021-05-20T14:44:21Z</time><name>PT13113</name></trkpt>
<trkpt lat="53.330028" lon="06.618785"><ele>7.3</ele><time>2021-05-20T14:44:22Z</time><name>PT13114</name></trkpt>
<trkpt lat="53.330018" lon="06.618794"><ele>7.4</ele><time>2021-05-20T14:44:23Z</time><name>PT13115</name></trkpt>
<trkpt lat="53.330010" lon="06.618802"><ele>7.3</ele><time>2021-05-20T14:44:24Z</time><name>PT13116</name></trkpt>
<trkpt lat="53.330002" lon="06.618810"><ele>7.1</ele><time>2021-05-20T14:44:25Z</time><name>PT13117</name></trkpt>
<trkpt lat="53.329993" lon="06.618818"><ele>6.9</ele><time>2021-05-20T14:44:26Z</time><name>PT13118</name></trkpt>
<trkpt lat="53.329983" lon="06.618824"><ele>6.9</ele><time>2021-05-20T14:44:27Z</time><name>PT13119</name></trkpt>
<trkpt lat="53.329973" lon="06.618830"><ele>6.7</ele><time>2021-05-20T14:44:28Z</time><name>PT13120</name></trkpt>
<trkpt lat="53.329964" lon="06.618837"><ele>6.8</ele><time>2021-05-20T14:44:29Z</time><name>PT13121</name></trkpt>
<trkpt lat="53.329955" lon="06.618846"><ele>6.9</ele><time>2021-05-20T14:44:30Z</time><name>PT13122</name></trkpt>
<trkpt lat="53.329945" lon="06.618854"><ele>6.7</ele><time>2021-05-20T14:44:31Z</time><name>PT13123</name></trkpt>
<trkpt lat="53.329937" lon="06.618862"><ele>6.8</ele><time>2021-05-20T14:44:32Z</time><name>PT13124</name></trkpt>
<trkpt lat="53.329928" lon="06.618869"><ele>6.8</ele><time>2021-05-20T14:44:33Z</time><name>PT13125</name></trkpt>
<trkpt lat="53.329918" lon="06.618876"><ele>6.9</ele><time>2021-05-20T14:44:34Z</time><name>PT13126</name></trkpt>
<trkpt lat="53.329907" lon="06.618883"><ele>6.9</ele><time>2021-05-20T14:44:35Z</time><name>PT13127</name></trkpt>
<trkpt lat="53.329896" lon="06.618890"><ele>6.9</ele><time>2021-05-20T14:44:36Z</time><name>PT13128</name></trkpt>
<trkpt lat="53.329886" lon="06.618898"><ele>7</ele><time>2021-05-20T14:44:37Z</time><name>PT13129</name></trkpt>
<trkpt lat="53.329876" lon="06.618906"><ele>7.1</ele><time>2021-05-20T14:44:38Z</time><name>PT13130</name></trkpt>
<trkpt lat="53.329866" lon="06.618916"><ele>7.1</ele><time>2021-05-20T14:44:39Z</time><name>PT13131</name></trkpt>
<trkpt lat="53.329857" lon="06.618926"><ele>7</ele><time>2021-05-20T14:44:40Z</time><name>PT13132</name></trkpt>
<trkpt lat="53.329849" lon="06.618935"><ele>7</ele><time>2021-05-20T14:44:41Z</time><name>PT13133</name></trkpt>
<trkpt lat="53.329840" lon="06.618944"><ele>7.1</ele><time>2021-05-20T14:44:42Z</time><name>PT13134</name></trkpt>
<trkpt lat="53.329830" lon="06.618952"><ele>6.9</ele><time>2021-05-20T14:44:43Z</time><name>PT13135</name></trkpt>
<trkpt lat="53.329820" lon="06.618959"><ele>6.9</ele><time>2021-05-20T14:44:44Z</time><name>PT13136</name></trkpt>
<trkpt lat="53.329809" lon="06.618965"><ele>6.9</ele><time>2021-05-20T14:44:45Z</time><name>PT13137</name></trkpt>
<trkpt lat="53.329798" lon="06.618972"><ele>7.1</ele><time>2021-05-20T14:44:46Z</time><name>PT13138</name></trkpt>
<trkpt lat="53.329787" lon="06.618979"><ele>7.2</ele><time>2021-05-20T14:44:47Z</time><name>PT13139</name></trkpt>
<trkpt lat="53.329778" lon="06.618988"><ele>7.2</ele><time>2021-05-20T14:44:48Z</time><name>PT13140</name></trkpt>
<trkpt lat="53.329766" lon="06.618992"><ele>7.1</ele><time>2021-05-20T14:44:49Z</time><name>PT13141</name></trkpt>
<trkpt lat="53.329756" lon="06.618996"><ele>6.9</ele><time>2021-05-20T14:44:50Z</time><name>PT13142</name></trkpt>
<trkpt lat="53.329746" lon="06.619007"><ele>6.9</ele><time>2021-05-20T14:44:51Z</time><name>PT13143</name></trkpt>
<trkpt lat="53.329737" lon="06.619016"><ele>6.9</ele><time>2021-05-20T14:44:52Z</time><name>PT13144</name></trkpt>
<trkpt lat="53.329727" lon="06.619026"><ele>7</ele><time>2021-05-20T14:44:53Z</time><name>PT13145</name></trkpt>
<trkpt lat="53.329717" lon="06.619031"><ele>7.1</ele><time>2021-05-20T14:44:54Z</time><name>PT13146</name></trkpt>
<trkpt lat="53.329707" lon="06.619039"><ele>7.1</ele><time>2021-05-20T14:44:55Z</time><name>PT13147</name></trkpt>
<trkpt lat="53.329698" lon="06.619046"><ele>7.2</ele><time>2021-05-20T14:44:56Z</time><name>PT13148</name></trkpt>
<trkpt lat="53.329688" lon="06.619054"><ele>7.3</ele><time>2021-05-20T14:44:57Z</time><name>PT13149</name></trkpt>
<trkpt lat="53.329679" lon="06.619065"><ele>7</ele><time>2021-05-20T14:44:58Z</time><name>PT13150</name></trkpt>
<trkpt lat="53.329671" lon="06.619075"><ele>7.1</ele><time>2021-05-20T14:44:59Z</time><name>PT13151</name></trkpt>
<trkpt lat="53.329666" lon="06.619082"><ele>7.2</ele><time>2021-05-20T14:45:00Z</time><name>PT13152</name></trkpt>
<trkpt lat="53.329662" lon="06.619089"><ele>7.1</ele><time>2021-05-20T14:45:01Z</time><name>PT13153</name></trkpt>
<trkpt lat="53.329655" lon="06.619094"><ele>6.8</ele><time>2021-05-20T14:45:02Z</time><name>PT13154</name></trkpt>
<trkpt lat="53.329646" lon="06.619100"><ele>6.8</ele><time>2021-05-20T14:45:03Z</time><name>PT13155</name></trkpt>
<trkpt lat="53.329633" lon="06.619107"><ele>6.8</ele><time>2021-05-20T14:45:04Z</time><name>PT13156</name></trkpt>
<trkpt lat="53.329618" lon="06.619116"><ele>6.8</ele><time>2021-05-20T14:45:05Z</time><name>PT13157</name></trkpt>
<trkpt lat="53.329603" lon="06.619126"><ele>6.8</ele><time>2021-05-20T14:45:06Z</time><name>PT13158</name></trkpt>
<trkpt lat="53.329590" lon="06.619137"><ele>6.8</ele><time>2021-05-20T14:45:07Z</time><name>PT13159</name></trkpt>
<trkpt lat="53.329579" lon="06.619143"><ele>6.8</ele><time>2021-05-20T14:45:08Z</time><name>PT13160</name></trkpt>
<trkpt lat="53.329574" lon="06.619138"><ele>6.8</ele><time>2021-05-20T14:45:09Z</time><name>PT13161</name></trkpt>
<trkpt lat="53.329569" lon="06.619139"><ele>6.7</ele><time>2021-05-20T14:45:10Z</time><name>PT13162</name></trkpt>
<trkpt lat="53.329565" lon="06.619143"><ele>6.6</ele><time>2021-05-20T14:45:11Z</time><name>PT13163</name></trkpt>
<trkpt lat="53.329557" lon="06.619147"><ele>6.4</ele><time>2021-05-20T14:45:12Z</time><name>PT13164</name></trkpt>
<trkpt lat="53.329546" lon="06.619154"><ele>6.4</ele><time>2021-05-20T14:45:13Z</time><name>PT13165</name></trkpt>
<trkpt lat="53.329533" lon="06.619166"><ele>6.5</ele><time>2021-05-20T14:45:14Z</time><name>PT13166</name></trkpt>
<trkpt lat="53.329519" lon="06.619178"><ele>6.4</ele><time>2021-05-20T14:45:15Z</time><name>PT13167</name></trkpt>
<trkpt lat="53.329512" lon="06.619189"><ele>6.7</ele><time>2021-05-20T14:45:16Z</time><name>PT13168</name></trkpt>
<trkpt lat="53.329507" lon="06.619197"><ele>6.9</ele><time>2021-05-20T14:45:17Z</time><name>PT13169</name></trkpt>
<trkpt lat="53.329501" lon="06.619206"><ele>6.8</ele><time>2021-05-20T14:45:18Z</time><name>PT13170</name></trkpt>
<trkpt lat="53.329492" lon="06.619210"><ele>6.8</ele><time>2021-05-20T14:45:19Z</time><name>PT13171</name></trkpt>
<trkpt lat="53.329482" lon="06.619216"><ele>6.8</ele><time>2021-05-20T14:45:20Z</time><name>PT13172</name></trkpt>
<trkpt lat="53.329458" lon="06.619230"><ele>6.7</ele><time>2021-05-20T14:45:22Z</time><name>PT13173</name></trkpt>
<trkpt lat="53.329451" lon="06.619235"><ele>6.7</ele><time>2021-05-20T14:45:23Z</time><name>PT13174</name></trkpt>
<trkpt lat="53.329446" lon="06.619243"><ele>6.6</ele><time>2021-05-20T14:45:24Z</time><name>PT13175</name></trkpt>
<trkpt lat="53.329440" lon="06.619253"><ele>6.4</ele><time>2021-05-20T14:45:25Z</time><name>PT13176</name></trkpt>
<trkpt lat="53.329429" lon="06.619258"><ele>6.4</ele><time>2021-05-20T14:45:26Z</time><name>PT13177</name></trkpt>
<trkpt lat="53.329416" lon="06.619268"><ele>6.4</ele><time>2021-05-20T14:45:27Z</time><name>PT13178</name></trkpt>
<trkpt lat="53.329403" lon="06.619279"><ele>6.6</ele><time>2021-05-20T14:45:28Z</time><name>PT13179</name></trkpt>
<trkpt lat="53.329395" lon="06.619286"><ele>6.5</ele><time>2021-05-20T14:45:29Z</time><name>PT13180</name></trkpt>
<trkpt lat="53.329389" lon="06.619290"><ele>6.5</ele><time>2021-05-20T14:45:30Z</time><name>PT13181</name></trkpt>
<trkpt lat="53.329382" lon="06.619294"><ele>6.5</ele><time>2021-05-20T14:45:31Z</time><name>PT13182</name></trkpt>
<trkpt lat="53.329371" lon="06.619298"><ele>6.5</ele><time>2021-05-20T14:45:32Z</time><name>PT13183</name></trkpt>
<trkpt lat="53.329361" lon="06.619307"><ele>6.5</ele><time>2021-05-20T14:45:33Z</time><name>PT13184</name></trkpt>
<trkpt lat="53.329352" lon="06.619316"><ele>6.5</ele><time>2021-05-20T14:45:34Z</time><name>PT13185</name></trkpt>
<trkpt lat="53.329346" lon="06.619325"><ele>6.5</ele><time>2021-05-20T14:45:35Z</time><name>PT13186</name></trkpt>
<trkpt lat="53.329340" lon="06.619329"><ele>6.4</ele><time>2021-05-20T14:45:36Z</time><name>PT13187</name></trkpt>
<trkpt lat="53.329332" lon="06.619336"><ele>6.3</ele><time>2021-05-20T14:45:37Z</time><name>PT13188</name></trkpt>
<trkpt lat="53.329321" lon="06.619342"><ele>6.4</ele><time>2021-05-20T14:45:38Z</time><name>PT13189</name></trkpt>
<trkpt lat="53.329309" lon="06.619354"><ele>6.4</ele><time>2021-05-20T14:45:39Z</time><name>PT13190</name></trkpt>
<trkpt lat="53.329301" lon="06.619362"><ele>6.2</ele><time>2021-05-20T14:45:40Z</time><name>PT13191</name></trkpt>
<trkpt lat="53.329298" lon="06.619370"><ele>6.4</ele><time>2021-05-20T14:45:41Z</time><name>PT13192</name></trkpt>
<trkpt lat="53.329291" lon="06.619373"><ele>6.3</ele><time>2021-05-20T14:45:42Z</time><name>PT13193</name></trkpt>
<trkpt lat="53.329281" lon="06.619378"><ele>6.3</ele><time>2021-05-20T14:45:43Z</time><name>PT13194</name></trkpt>
<trkpt lat="53.329271" lon="06.619385"><ele>6.2</ele><time>2021-05-20T14:45:44Z</time><name>PT13195</name></trkpt>
<trkpt lat="53.329265" lon="06.619391"><ele>6.2</ele><time>2021-05-20T14:45:45Z</time><name>PT13196</name></trkpt>
<trkpt lat="53.329261" lon="06.619396"><ele>6.4</ele><time>2021-05-20T14:45:46Z</time><name>PT13197</name></trkpt>
<trkpt lat="53.329254" lon="06.619399"><ele>6.5</ele><time>2021-05-20T14:45:47Z</time><name>PT13198</name></trkpt>
<trkpt lat="53.329243" lon="06.619408"><ele>6.4</ele><time>2021-05-20T14:45:48Z</time><name>PT13199</name></trkpt>
<trkpt lat="53.329234" lon="06.619413"><ele>6.6</ele><time>2021-05-20T14:45:49Z</time><name>PT13200</name></trkpt>
<trkpt lat="53.329226" lon="06.619417"><ele>6.6</ele><time>2021-05-20T14:45:50Z</time><name>PT13201</name></trkpt>
<trkpt lat="53.329220" lon="06.619418"><ele>6.4</ele><time>2021-05-20T14:45:51Z</time><name>PT13202</name></trkpt>
<trkpt lat="53.329214" lon="06.619428"><ele>6.7</ele><time>2021-05-20T14:45:52Z</time><name>PT13203</name></trkpt>
<trkpt lat="53.329208" lon="06.619435"><ele>6.7</ele><time>2021-05-20T14:45:53Z</time><name>PT13204</name></trkpt>
<trkpt lat="53.329205" lon="06.619439"><ele>6.6</ele><time>2021-05-20T14:45:54Z</time><name>PT13205</name></trkpt>
<trkpt lat="53.329201" lon="06.619443"><ele>6.5</ele><time>2021-05-20T14:45:55Z</time><name>PT13206</name></trkpt>
<trkpt lat="53.329195" lon="06.619447"><ele>6.6</ele><time>2021-05-20T14:45:56Z</time><name>PT13207</name></trkpt>
<trkpt lat="53.329194" lon="06.619451"><ele>6.5</ele><time>2021-05-20T14:45:57Z</time><name>PT13208</name></trkpt>
<trkpt lat="53.329195" lon="06.619454"><ele>6.6</ele><time>2021-05-20T14:45:58Z</time><name>PT13209</name></trkpt>
<trkpt lat="53.329196" lon="06.619453"><ele>6.5</ele><time>2021-05-20T14:45:59Z</time><name>PT13210</name></trkpt>
<trkpt lat="53.329196" lon="06.619451"><ele>6.6</ele><time>2021-05-20T14:46:00Z</time><name>PT13211</name></trkpt>
<trkpt lat="53.329197" lon="06.619450"><ele>6.5</ele><time>2021-05-20T14:46:01Z</time><name>PT13212</name></trkpt>
<trkpt lat="53.329201" lon="06.619451"><ele>6.4</ele><time>2021-05-20T14:46:05Z</time><name>PT13213</name></trkpt>
<trkpt lat="53.329201" lon="06.619451"><ele>6.4</ele><time>2021-05-20T14:46:06Z</time><name>PT13214</name></trkpt>
<trkpt lat="53.329202" lon="06.619450"><ele>6.4</ele><time>2021-05-20T14:46:07Z</time><name>PT13215</name></trkpt>
<trkpt lat="53.329201" lon="06.619448"><ele>6.5</ele><time>2021-05-20T14:46:08Z</time><name>PT13216</name></trkpt>
<trkpt lat="53.329196" lon="06.619456"><ele>6.9</ele><time>2021-05-20T14:46:27Z</time><name>PT13217</name></trkpt>
<trkpt lat="53.329195" lon="06.619456"><ele>6.9</ele><time>2021-05-20T14:46:28Z</time><name>PT13218</name></trkpt>
<trkpt lat="53.329189" lon="06.619457"><ele>7</ele><time>2021-05-20T14:46:29Z</time><name>PT13219</name></trkpt>
<trkpt lat="53.329187" lon="06.619455"><ele>6.9</ele><time>2021-05-20T14:46:30Z</time><name>PT13220</name></trkpt>
<trkpt lat="53.329185" lon="06.619453"><ele>6.9</ele><time>2021-05-20T14:46:31Z</time><name>PT13221</name></trkpt>
<trkpt lat="53.329185" lon="06.619456"><ele>6.9</ele><time>2021-05-20T14:46:32Z</time><name>PT13222</name></trkpt>
<trkpt lat="53.329182" lon="06.619455"><ele>7</ele><time>2021-05-20T14:46:33Z</time><name>PT13223</name></trkpt>
<trkpt lat="53.329178" lon="06.619452"><ele>7.1</ele><time>2021-05-20T14:46:36Z</time><name>PT13224</name></trkpt>
<trkpt lat="53.329166" lon="06.619446"><ele>7.3</ele><time>2021-05-20T14:46:37Z</time><name>PT13225</name></trkpt>
<trkpt lat="53.329153" lon="06.619446"><ele>7.3</ele><time>2021-05-20T14:46:38Z</time><name>PT13226</name></trkpt>
<trkpt lat="53.329145" lon="06.619444"><ele>7.4</ele><time>2021-05-20T14:46:39Z</time><name>PT13227</name></trkpt>
<trkpt lat="53.329135" lon="06.619438"><ele>7.3</ele><time>2021-05-20T14:46:40Z</time><name>PT13228</name></trkpt>
<trkpt lat="53.329125" lon="06.619436"><ele>7.3</ele><time>2021-05-20T14:46:41Z</time><name>PT13229</name></trkpt>
<trkpt lat="53.329113" lon="06.619428"><ele>7.2</ele><time>2021-05-20T14:46:42Z</time><name>PT13230</name></trkpt>
<trkpt lat="53.329102" lon="06.619420"><ele>7.2</ele><time>2021-05-20T14:46:43Z</time><name>PT13231</name></trkpt>
<trkpt lat="53.329094" lon="06.619409"><ele>7</ele><time>2021-05-20T14:46:44Z</time><name>PT13232</name></trkpt>
<trkpt lat="53.329090" lon="06.619398"><ele>6.8</ele><time>2021-05-20T14:46:45Z</time><name>PT13233</name></trkpt>
<trkpt lat="53.329086" lon="06.619395"><ele>6.5</ele><time>2021-05-20T14:46:46Z</time><name>PT13234</name></trkpt>
<trkpt lat="53.329083" lon="06.619390"><ele>6.4</ele><time>2021-05-20T14:46:47Z</time><name>PT13235</name></trkpt>
<trkpt lat="53.329080" lon="06.619381"><ele>6.4</ele><time>2021-05-20T14:46:48Z</time><name>PT13236</name></trkpt>
<trkpt lat="53.329080" lon="06.619370"><ele>6.4</ele><time>2021-05-20T14:46:49Z</time><name>PT13237</name></trkpt>
<trkpt lat="53.329079" lon="06.619370"><ele>6.6</ele><time>2021-05-20T14:46:50Z</time><name>PT13238</name></trkpt>
<trkpt lat="53.329080" lon="06.619372"><ele>6.7</ele><time>2021-05-20T14:46:51Z</time><name>PT13239</name></trkpt>
<trkpt lat="53.329080" lon="06.619372"><ele>6.5</ele><time>2021-05-20T14:46:52Z</time><name>PT13240</name></trkpt>
<trkpt lat="53.329079" lon="06.619366"><ele>6.5</ele><time>2021-05-20T14:46:55Z</time><name>PT13241</name></trkpt>
<trkpt lat="53.329076" lon="06.619345"><ele>6.6</ele><time>2021-05-20T14:46:56Z</time><name>PT13242</name></trkpt>
<trkpt lat="53.329072" lon="06.619320"><ele>6.8</ele><time>2021-05-20T14:46:57Z</time><name>PT13243</name></trkpt>
<trkpt lat="53.329067" lon="06.619300"><ele>7.1</ele><time>2021-05-20T14:46:58Z</time><name>PT13244</name></trkpt>
<trkpt lat="53.329061" lon="06.619286"><ele>7.2</ele><time>2021-05-20T14:46:59Z</time><name>PT13245</name></trkpt>
<trkpt lat="53.329057" lon="06.619271"><ele>7.3</ele><time>2021-05-20T14:47:00Z</time><name>PT13246</name></trkpt>
<trkpt lat="53.329056" lon="06.619256"><ele>7.3</ele><time>2021-05-20T14:47:01Z</time><name>PT13247</name></trkpt>
<trkpt lat="53.329056" lon="06.619238"><ele>7.3</ele><time>2021-05-20T14:47:02Z</time><name>PT13248</name></trkpt>
<trkpt lat="53.329055" lon="06.619217"><ele>7.4</ele><time>2021-05-20T14:47:03Z</time><name>PT13249</name></trkpt>
<trkpt lat="53.329051" lon="06.619194"><ele>7.3</ele><time>2021-05-20T14:47:04Z</time><name>PT13250</name></trkpt>
<trkpt lat="53.329046" lon="06.619175"><ele>6.9</ele><time>2021-05-20T14:47:05Z</time><name>PT13251</name></trkpt>
<trkpt lat="53.329042" lon="06.619161"><ele>7</ele><time>2021-05-20T14:47:06Z</time><name>PT13252</name></trkpt>
<trkpt lat="53.329038" lon="06.619150"><ele>6.8</ele><time>2021-05-20T14:47:07Z</time><name>PT13253</name></trkpt>
<trkpt lat="53.329036" lon="06.619140"><ele>6.8</ele><time>2021-05-20T14:47:08Z</time><name>PT13254</name></trkpt>
<trkpt lat="53.329034" lon="06.619129"><ele>6.9</ele><time>2021-05-20T14:47:09Z</time><name>PT13255</name></trkpt>
<trkpt lat="53.329032" lon="06.619114"><ele>6.9</ele><time>2021-05-20T14:47:10Z</time><name>PT13256</name></trkpt>
<trkpt lat="53.329028" lon="06.619087"><ele>6.8</ele><time>2021-05-20T14:47:11Z</time><name>PT13257</name></trkpt>
<trkpt lat="53.329026" lon="06.619068"><ele>6.8</ele><time>2021-05-20T14:47:12Z</time><name>PT13258</name></trkpt>
<trkpt lat="53.329024" lon="06.619051"><ele>6.4</ele><time>2021-05-20T14:47:13Z</time><name>PT13259</name></trkpt>
<trkpt lat="53.329021" lon="06.619037"><ele>6.2</ele><time>2021-05-20T14:47:14Z</time><name>PT13260</name></trkpt>
<trkpt lat="53.329017" lon="06.619025"><ele>5.9</ele><time>2021-05-20T14:47:15Z</time><name>PT13261</name></trkpt>
<trkpt lat="53.329014" lon="06.619012"><ele>6</ele><time>2021-05-20T14:47:16Z</time><name>PT13262</name></trkpt>
<trkpt lat="53.329012" lon="06.618997"><ele>5.9</ele><time>2021-05-20T14:47:17Z</time><name>PT13263</name></trkpt>
<trkpt lat="53.329010" lon="06.618985"><ele>5.8</ele><time>2021-05-20T14:47:18Z</time><name>PT13264</name></trkpt>
<trkpt lat="53.329007" lon="06.618975"><ele>5.6</ele><time>2021-05-20T14:47:19Z</time><name>PT13265</name></trkpt>
<trkpt lat="53.329003" lon="06.618964"><ele>5.6</ele><time>2021-05-20T14:47:20Z</time><name>PT13266</name></trkpt>
<trkpt lat="53.328999" lon="06.618951"><ele>5.5</ele><time>2021-05-20T14:47:21Z</time><name>PT13267</name></trkpt>
<trkpt lat="53.328996" lon="06.618937"><ele>5.4</ele><time>2021-05-20T14:47:22Z</time><name>PT13268</name></trkpt>
<trkpt lat="53.328994" lon="06.618922"><ele>5.6</ele><time>2021-05-20T14:47:23Z</time><name>PT13269</name></trkpt>
<trkpt lat="53.328992" lon="06.618907"><ele>5.7</ele><time>2021-05-20T14:47:24Z</time><name>PT13270</name></trkpt>
<trkpt lat="53.328989" lon="06.618896"><ele>5.7</ele><time>2021-05-20T14:47:25Z</time><name>PT13271</name></trkpt>
<trkpt lat="53.328987" lon="06.618886"><ele>5.8</ele><time>2021-05-20T14:47:26Z</time><name>PT13272</name></trkpt>
<trkpt lat="53.328985" lon="06.618876"><ele>5.8</ele><time>2021-05-20T14:47:27Z</time><name>PT13273</name></trkpt>
<trkpt lat="53.328982" lon="06.618863"><ele>5.8</ele><time>2021-05-20T14:47:28Z</time><name>PT13274</name></trkpt>
<trkpt lat="53.328981" lon="06.618846"><ele>5.6</ele><time>2021-05-20T14:47:29Z</time><name>PT13275</name></trkpt>
<trkpt lat="53.328979" lon="06.618831"><ele>5.4</ele><time>2021-05-20T14:47:30Z</time><name>PT13276</name></trkpt>
<trkpt lat="53.328976" lon="06.618817"><ele>5.5</ele><time>2021-05-20T14:47:31Z</time><name>PT13277</name></trkpt>
<trkpt lat="53.328973" lon="06.618801"><ele>5.5</ele><time>2021-05-20T14:47:32Z</time><name>PT13278</name></trkpt>
<trkpt lat="53.328968" lon="06.618786"><ele>5.8</ele><time>2021-05-20T14:47:33Z</time><name>PT13279</name></trkpt>
<trkpt lat="53.328964" lon="06.618771"><ele>5.9</ele><time>2021-05-20T14:47:34Z</time><name>PT13280</name></trkpt>
<trkpt lat="53.328961" lon="06.618757"><ele>5.8</ele><time>2021-05-20T14:47:35Z</time><name>PT13281</name></trkpt>
<trkpt lat="53.328960" lon="06.618742"><ele>5.7</ele><time>2021-05-20T14:47:36Z</time><name>PT13282</name></trkpt>
<trkpt lat="53.328958" lon="06.618729"><ele>5.9</ele><time>2021-05-20T14:47:37Z</time><name>PT13283</name></trkpt>
<trkpt lat="53.328956" lon="06.618718"><ele>5.6</ele><time>2021-05-20T14:47:38Z</time><name>PT13284</name></trkpt>
<trkpt lat="53.328953" lon="06.618706"><ele>5.6</ele><time>2021-05-20T14:47:39Z</time><name>PT13285</name></trkpt>
<trkpt lat="53.328950" lon="06.618694"><ele>5.5</ele><time>2021-05-20T14:47:40Z</time><name>PT13286</name></trkpt>
<trkpt lat="53.328949" lon="06.618684"><ele>5.5</ele><time>2021-05-20T14:47:41Z</time><name>PT13287</name></trkpt>
<trkpt lat="53.328946" lon="06.618677"><ele>5.4</ele><time>2021-05-20T14:47:42Z</time><name>PT13288</name></trkpt>
<trkpt lat="53.328944" lon="06.618666"><ele>5.4</ele><time>2021-05-20T14:47:43Z</time><name>PT13289</name></trkpt>
<trkpt lat="53.328941" lon="06.618655"><ele>5.5</ele><time>2021-05-20T14:47:44Z</time><name>PT13290</name></trkpt>
<trkpt lat="53.328939" lon="06.618642"><ele>5.3</ele><time>2021-05-20T14:47:45Z</time><name>PT13291</name></trkpt>
<trkpt lat="53.328937" lon="06.618630"><ele>5.4</ele><time>2021-05-20T14:47:46Z</time><name>PT13292</name></trkpt>
<trkpt lat="53.328935" lon="06.618619"><ele>5.3</ele><time>2021-05-20T14:47:47Z</time><name>PT13293</name></trkpt>
<trkpt lat="53.328932" lon="06.618609"><ele>5.2</ele><time>2021-05-20T14:47:48Z</time><name>PT13294</name></trkpt>
<trkpt lat="53.328929" lon="06.618598"><ele>5.3</ele><time>2021-05-20T14:47:49Z</time><name>PT13295</name></trkpt>
<trkpt lat="53.328927" lon="06.618583"><ele>5.6</ele><time>2021-05-20T14:47:50Z</time><name>PT13296</name></trkpt>
<trkpt lat="53.328924" lon="06.618569"><ele>5.7</ele><time>2021-05-20T14:47:51Z</time><name>PT13297</name></trkpt>
<trkpt lat="53.328921" lon="06.618554"><ele>5.6</ele><time>2021-05-20T14:47:52Z</time><name>PT13298</name></trkpt>
<trkpt lat="53.328918" lon="06.618538"><ele>5.8</ele><time>2021-05-20T14:47:53Z</time><name>PT13299</name></trkpt>
<trkpt lat="53.328913" lon="06.618522"><ele>5.5</ele><time>2021-05-20T14:47:54Z</time><name>PT13300</name></trkpt>
<trkpt lat="53.328908" lon="06.618506"><ele>5.4</ele><time>2021-05-20T14:47:55Z</time><name>PT13301</name></trkpt>
<trkpt lat="53.328904" lon="06.618491"><ele>5.5</ele><time>2021-05-20T14:47:56Z</time><name>PT13302</name></trkpt>
<trkpt lat="53.328900" lon="06.618476"><ele>5.5</ele><time>2021-05-20T14:47:57Z</time><name>PT13303</name></trkpt>
<trkpt lat="53.328896" lon="06.618460"><ele>5.6</ele><time>2021-05-20T14:47:58Z</time><name>PT13304</name></trkpt>
<trkpt lat="53.328894" lon="06.618442"><ele>5.5</ele><time>2021-05-20T14:47:59Z</time><name>PT13305</name></trkpt>
<trkpt lat="53.328892" lon="06.618423"><ele>5.6</ele><time>2021-05-20T14:48:00Z</time><name>PT13306</name></trkpt>
<trkpt lat="53.328888" lon="06.618403"><ele>5.4</ele><time>2021-05-20T14:48:01Z</time><name>PT13307</name></trkpt>
<trkpt lat="53.328884" lon="06.618385"><ele>5.4</ele><time>2021-05-20T14:48:02Z</time><name>PT13308</name></trkpt>
<trkpt lat="53.328879" lon="06.618367"><ele>5.4</ele><time>2021-05-20T14:48:03Z</time><name>PT13309</name></trkpt>
<trkpt lat="53.328873" lon="06.618352"><ele>5.5</ele><time>2021-05-20T14:48:04Z</time><name>PT13310</name></trkpt>
<trkpt lat="53.328870" lon="06.618348"><ele>5.6</ele><time>2021-05-20T14:48:05Z</time><name>PT13311</name></trkpt>
<trkpt lat="53.328867" lon="06.618340"><ele>6</ele><time>2021-05-20T14:48:06Z</time><name>PT13312</name></trkpt>
<trkpt lat="53.328864" lon="06.618325"><ele>6.6</ele><time>2021-05-20T14:48:07Z</time><name>PT13313</name></trkpt>
<trkpt lat="53.328862" lon="06.618305"><ele>6.9</ele><time>2021-05-20T14:48:08Z</time><name>PT13314</name></trkpt>
<trkpt lat="53.328859" lon="06.618279"><ele>7.2</ele><time>2021-05-20T14:48:09Z</time><name>PT13315</name></trkpt>
<trkpt lat="53.328855" lon="06.618253"><ele>7</ele><time>2021-05-20T14:48:10Z</time><name>PT13316</name></trkpt>
<trkpt lat="53.328850" lon="06.618229"><ele>7.1</ele><time>2021-05-20T14:48:11Z</time><name>PT13317</name></trkpt>
<trkpt lat="53.328843" lon="06.618213"><ele>6.9</ele><time>2021-05-20T14:48:12Z</time><name>PT13318</name></trkpt>
<trkpt lat="53.328839" lon="06.618201"><ele>6.8</ele><time>2021-05-20T14:48:13Z</time><name>PT13319</name></trkpt>
<trkpt lat="53.328836" lon="06.618190"><ele>6.7</ele><time>2021-05-20T14:48:14Z</time><name>PT13320</name></trkpt>
<trkpt lat="53.328835" lon="06.618180"><ele>6.9</ele><time>2021-05-20T14:48:15Z</time><name>PT13321</name></trkpt>
<trkpt lat="53.328832" lon="06.618163"><ele>6.9</ele><time>2021-05-20T14:48:16Z</time><name>PT13322</name></trkpt>
<trkpt lat="53.328826" lon="06.618138"><ele>7</ele><time>2021-05-20T14:48:17Z</time><name>PT13323</name></trkpt>
<trkpt lat="53.328821" lon="06.618113"><ele>7.1</ele><time>2021-05-20T14:48:18Z</time><name>PT13324</name></trkpt>
<trkpt lat="53.328816" lon="06.618093"><ele>7</ele><time>2021-05-20T14:48:19Z</time><name>PT13325</name></trkpt>
<trkpt lat="53.328810" lon="06.618076"><ele>6.9</ele><time>2021-05-20T14:48:20Z</time><name>PT13326</name></trkpt>
<trkpt lat="53.328807" lon="06.618064"><ele>6.9</ele><time>2021-05-20T14:48:21Z</time><name>PT13327</name></trkpt>
<trkpt lat="53.328804" lon="06.618055"><ele>6.9</ele><time>2021-05-20T14:48:22Z</time><name>PT13328</name></trkpt>
<trkpt lat="53.328806" lon="06.618036"><ele>6.9</ele><time>2021-05-20T14:48:23Z</time><name>PT13329</name></trkpt>
<trkpt lat="53.328806" lon="06.618017"><ele>6.7</ele><time>2021-05-20T14:48:24Z</time><name>PT13330</name></trkpt>
<trkpt lat="53.328804" lon="06.618000"><ele>6.4</ele><time>2021-05-20T14:48:25Z</time><name>PT13331</name></trkpt>
<trkpt lat="53.328800" lon="06.617989"><ele>6.3</ele><time>2021-05-20T14:48:26Z</time><name>PT13332</name></trkpt>
<trkpt lat="53.328797" lon="06.617981"><ele>6.4</ele><time>2021-05-20T14:48:27Z</time><name>PT13333</name></trkpt>
<trkpt lat="53.328791" lon="06.617973"><ele>6.8</ele><time>2021-05-20T14:48:28Z</time><name>PT13334</name></trkpt>
<trkpt lat="53.328786" lon="06.617964"><ele>7.1</ele><time>2021-05-20T14:48:29Z</time><name>PT13335</name></trkpt>
<trkpt lat="53.328783" lon="06.617955"><ele>7.2</ele><time>2021-05-20T14:48:30Z</time><name>PT13336</name></trkpt>
<trkpt lat="53.328781" lon="06.617942"><ele>7.2</ele><time>2021-05-20T14:48:31Z</time><name>PT13337</name></trkpt>
<trkpt lat="53.328778" lon="06.617917"><ele>7.1</ele><time>2021-05-20T14:48:32Z</time><name>PT13338</name></trkpt>
<trkpt lat="53.328774" lon="06.617887"><ele>7.2</ele><time>2021-05-20T14:48:33Z</time><name>PT13339</name></trkpt>
<trkpt lat="53.328771" lon="06.617862"><ele>7.3</ele><time>2021-05-20T14:48:34Z</time><name>PT13340</name></trkpt>
<trkpt lat="53.328768" lon="06.617849"><ele>7.3</ele><time>2021-05-20T14:48:35Z</time><name>PT13341</name></trkpt>
<trkpt lat="53.328764" lon="06.617840"><ele>7.3</ele><time>2021-05-20T14:48:36Z</time><name>PT13342</name></trkpt>
<trkpt lat="53.328761" lon="06.617827"><ele>7.3</ele><time>2021-05-20T14:48:37Z</time><name>PT13343</name></trkpt>
<trkpt lat="53.328758" lon="06.617814"><ele>7.2</ele><time>2021-05-20T14:48:38Z</time><name>PT13344</name></trkpt>
<trkpt lat="53.328756" lon="06.617794"><ele>7.2</ele><time>2021-05-20T14:48:39Z</time><name>PT13345</name></trkpt>
<trkpt lat="53.328753" lon="06.617770"><ele>7.3</ele><time>2021-05-20T14:48:40Z</time><name>PT13346</name></trkpt>
<trkpt lat="53.328747" lon="06.617743"><ele>7.3</ele><time>2021-05-20T14:48:41Z</time><name>PT13347</name></trkpt>
<trkpt lat="53.328743" lon="06.617722"><ele>7.3</ele><time>2021-05-20T14:48:42Z</time><name>PT13348</name></trkpt>
<trkpt lat="53.328738" lon="06.617707"><ele>7.2</ele><time>2021-05-20T14:48:43Z</time><name>PT13349</name></trkpt>
<trkpt lat="53.328734" lon="06.617697"><ele>7.2</ele><time>2021-05-20T14:48:44Z</time><name>PT13350</name></trkpt>
<trkpt lat="53.328732" lon="06.617686"><ele>7.1</ele><time>2021-05-20T14:48:45Z</time><name>PT13351</name></trkpt>
<trkpt lat="53.328731" lon="06.617674"><ele>7.1</ele><time>2021-05-20T14:48:46Z</time><name>PT13352</name></trkpt>
<trkpt lat="53.328728" lon="06.617653"><ele>7.1</ele><time>2021-05-20T14:48:47Z</time><name>PT13353</name></trkpt>
<trkpt lat="53.328723" lon="06.617625"><ele>7.1</ele><time>2021-05-20T14:48:48Z</time><name>PT13354</name></trkpt>
<trkpt lat="53.328719" lon="06.617599"><ele>7</ele><time>2021-05-20T14:48:49Z</time><name>PT13355</name></trkpt>
<trkpt lat="53.328716" lon="06.617588"><ele>7.2</ele><time>2021-05-20T14:48:50Z</time><name>PT13356</name></trkpt>
<trkpt lat="53.328711" lon="06.617579"><ele>7.1</ele><time>2021-05-20T14:48:51Z</time><name>PT13357</name></trkpt>
<trkpt lat="53.328706" lon="06.617568"><ele>7.2</ele><time>2021-05-20T14:48:52Z</time><name>PT13358</name></trkpt>
<trkpt lat="53.328704" lon="06.617555"><ele>7.1</ele><time>2021-05-20T14:48:53Z</time><name>PT13359</name></trkpt>
<trkpt lat="53.328701" lon="06.617536"><ele>7</ele><time>2021-05-20T14:48:54Z</time><name>PT13360</name></trkpt>
<trkpt lat="53.328698" lon="06.617509"><ele>6.9</ele><time>2021-05-20T14:48:55Z</time><name>PT13361</name></trkpt>
<trkpt lat="53.328692" lon="06.617484"><ele>6.9</ele><time>2021-05-20T14:48:56Z</time><name>PT13362</name></trkpt>
<trkpt lat="53.328689" lon="06.617465"><ele>6.7</ele><time>2021-05-20T14:48:57Z</time><name>PT13363</name></trkpt>
<trkpt lat="53.328686" lon="06.617454"><ele>6.8</ele><time>2021-05-20T14:48:58Z</time><name>PT13364</name></trkpt>
<trkpt lat="53.328683" lon="06.617448"><ele>6.8</ele><time>2021-05-20T14:48:59Z</time><name>PT13365</name></trkpt>
<trkpt lat="53.328682" lon="06.617440"><ele>6.9</ele><time>2021-05-20T14:49:00Z</time><name>PT13366</name></trkpt>
<trkpt lat="53.328681" lon="06.617426"><ele>6.9</ele><time>2021-05-20T14:49:01Z</time><name>PT13367</name></trkpt>
<trkpt lat="53.328678" lon="06.617405"><ele>6.8</ele><time>2021-05-20T14:49:02Z</time><name>PT13368</name></trkpt>
<trkpt lat="53.328674" lon="06.617381"><ele>6.6</ele><time>2021-05-20T14:49:03Z</time><name>PT13369</name></trkpt>
<trkpt lat="53.328669" lon="06.617357"><ele>6.5</ele><time>2021-05-20T14:49:04Z</time><name>PT13370</name></trkpt>
<trkpt lat="53.328665" lon="06.617342"><ele>6.6</ele><time>2021-05-20T14:49:05Z</time><name>PT13371</name></trkpt>
<trkpt lat="53.328662" lon="06.617333"><ele>6.8</ele><time>2021-05-20T14:49:06Z</time><name>PT13372</name></trkpt>
<trkpt lat="53.328662" lon="06.617330"><ele>6.9</ele><time>2021-05-20T14:49:07Z</time><name>PT13373</name></trkpt>
<trkpt lat="53.328661" lon="06.617317"><ele>7</ele><time>2021-05-20T14:49:08Z</time><name>PT13374</name></trkpt>
<trkpt lat="53.328656" lon="06.617303"><ele>7.1</ele><time>2021-05-20T14:49:09Z</time><name>PT13375</name></trkpt>
<trkpt lat="53.328651" lon="06.617294"><ele>7.1</ele><time>2021-05-20T14:49:10Z</time><name>PT13376</name></trkpt>
<trkpt lat="53.328649" lon="06.617284"><ele>7.1</ele><time>2021-05-20T14:49:11Z</time><name>PT13377</name></trkpt>
<trkpt lat="53.328647" lon="06.617272"><ele>7</ele><time>2021-05-20T14:49:12Z</time><name>PT13378</name></trkpt>
<trkpt lat="53.328645" lon="06.617252"><ele>7</ele><time>2021-05-20T14:49:13Z</time><name>PT13379</name></trkpt>
<trkpt lat="53.328641" lon="06.617233"><ele>7.2</ele><time>2021-05-20T14:49:14Z</time><name>PT13380</name></trkpt>
<trkpt lat="53.328636" lon="06.617223"><ele>7.3</ele><time>2021-05-20T14:49:15Z</time><name>PT13381</name></trkpt>
<trkpt lat="53.328633" lon="06.617215"><ele>7.3</ele><time>2021-05-20T14:49:16Z</time><name>PT13382</name></trkpt>
<trkpt lat="53.328632" lon="06.617208"><ele>7.3</ele><time>2021-05-20T14:49:17Z</time><name>PT13383</name></trkpt>
<trkpt lat="53.328629" lon="06.617195"><ele>7.3</ele><time>2021-05-20T14:49:18Z</time><name>PT13384</name></trkpt>
<trkpt lat="53.328625" lon="06.617174"><ele>7.2</ele><time>2021-05-20T14:49:19Z</time><name>PT13385</name></trkpt>
<trkpt lat="53.328619" lon="06.617156"><ele>7.3</ele><time>2021-05-20T14:49:20Z</time><name>PT13386</name></trkpt>
<trkpt lat="53.328614" lon="06.617146"><ele>7.3</ele><time>2021-05-20T14:49:21Z</time><name>PT13387</name></trkpt>
<trkpt lat="53.328611" lon="06.617138"><ele>7.3</ele><time>2021-05-20T14:49:22Z</time><name>PT13388</name></trkpt>
<trkpt lat="53.328610" lon="06.617126"><ele>7.2</ele><time>2021-05-20T14:49:23Z</time><name>PT13389</name></trkpt>
<trkpt lat="53.328608" lon="06.617108"><ele>7</ele><time>2021-05-20T14:49:24Z</time><name>PT13390</name></trkpt>
<trkpt lat="53.328606" lon="06.617086"><ele>7</ele><time>2021-05-20T14:49:25Z</time><name>PT13391</name></trkpt>
<trkpt lat="53.328603" lon="06.617061"><ele>7.1</ele><time>2021-05-20T14:49:26Z</time><name>PT13392</name></trkpt>
<trkpt lat="53.328597" lon="06.617046"><ele>7.3</ele><time>2021-05-20T14:49:27Z</time><name>PT13393</name></trkpt>
<trkpt lat="53.328593" lon="06.617038"><ele>7.5</ele><time>2021-05-20T14:49:28Z</time><name>PT13394</name></trkpt>
<trkpt lat="53.328590" lon="06.617030"><ele>7.6</ele><time>2021-05-20T14:49:29Z</time><name>PT13395</name></trkpt>
<trkpt lat="53.328587" lon="06.617016"><ele>7.8</ele><time>2021-05-20T14:49:30Z</time><name>PT13396</name></trkpt>
<trkpt lat="53.328582" lon="06.616997"><ele>7.9</ele><time>2021-05-20T14:49:31Z</time><name>PT13397</name></trkpt>
<trkpt lat="53.328577" lon="06.616984"><ele>8</ele><time>2021-05-20T14:49:32Z</time><name>PT13398</name></trkpt>
<trkpt lat="53.328572" lon="06.616975"><ele>7.9</ele><time>2021-05-20T14:49:33Z</time><name>PT13399</name></trkpt>
<trkpt lat="53.328567" lon="06.616966"><ele>7.8</ele><time>2021-05-20T14:49:34Z</time><name>PT13400</name></trkpt>
<trkpt lat="53.328565" lon="06.616954"><ele>7.3</ele><time>2021-05-20T14:49:35Z</time><name>PT13401</name></trkpt>
<trkpt lat="53.328561" lon="06.616937"><ele>7.3</ele><time>2021-05-20T14:49:36Z</time><name>PT13402</name></trkpt>
<trkpt lat="53.328553" lon="06.616919"><ele>7.1</ele><time>2021-05-20T14:49:37Z</time><name>PT13403</name></trkpt>
<trkpt lat="53.328543" lon="06.616907"><ele>7.1</ele><time>2021-05-20T14:49:38Z</time><name>PT13404</name></trkpt>
<trkpt lat="53.328535" lon="06.616901"><ele>7.1</ele><time>2021-05-20T14:49:39Z</time><name>PT13405</name></trkpt>
<trkpt lat="53.328530" lon="06.616898"><ele>7.2</ele><time>2021-05-20T14:49:40Z</time><name>PT13406</name></trkpt>
<trkpt lat="53.328524" lon="06.616892"><ele>7.3</ele><time>2021-05-20T14:49:41Z</time><name>PT13407</name></trkpt>
<trkpt lat="53.328517" lon="06.616885"><ele>7.4</ele><time>2021-05-20T14:49:42Z</time><name>PT13408</name></trkpt>
<trkpt lat="53.328506" lon="06.616876"><ele>7.7</ele><time>2021-05-20T14:49:43Z</time><name>PT13409</name></trkpt>
<trkpt lat="53.328495" lon="06.616873"><ele>7.8</ele><time>2021-05-20T14:49:44Z</time><name>PT13410</name></trkpt>
<trkpt lat="53.328488" lon="06.616870"><ele>7.8</ele><time>2021-05-20T14:49:45Z</time><name>PT13411</name></trkpt>
<trkpt lat="53.328480" lon="06.616867"><ele>7.8</ele><time>2021-05-20T14:49:46Z</time><name>PT13412</name></trkpt>
<trkpt lat="53.328473" lon="06.616862"><ele>7.6</ele><time>2021-05-20T14:49:47Z</time><name>PT13413</name></trkpt>
<trkpt lat="53.328464" lon="06.616854"><ele>7.7</ele><time>2021-05-20T14:49:48Z</time><name>PT13414</name></trkpt>
<trkpt lat="53.328453" lon="06.616850"><ele>7.8</ele><time>2021-05-20T14:49:49Z</time><name>PT13415</name></trkpt>
<trkpt lat="53.328439" lon="06.616846"><ele>8.2</ele><time>2021-05-20T14:49:50Z</time><name>PT13416</name></trkpt>
<trkpt lat="53.328425" lon="06.616843"><ele>8.3</ele><time>2021-05-20T14:49:51Z</time><name>PT13417</name></trkpt>
<trkpt lat="53.328414" lon="06.616842"><ele>8.2</ele><time>2021-05-20T14:49:52Z</time><name>PT13418</name></trkpt>
<trkpt lat="53.328405" lon="06.616840"><ele>7.8</ele><time>2021-05-20T14:49:53Z</time><name>PT13419</name></trkpt>
<trkpt lat="53.328399" lon="06.616839"><ele>7.8</ele><time>2021-05-20T14:49:54Z</time><name>PT13420</name></trkpt>
<trkpt lat="53.328389" lon="06.616835"><ele>7.6</ele><time>2021-05-20T14:49:55Z</time><name>PT13421</name></trkpt>
<trkpt lat="53.328374" lon="06.616832"><ele>7.7</ele><time>2021-05-20T14:49:56Z</time><name>PT13422</name></trkpt>
<trkpt lat="53.328358" lon="06.616828"><ele>7.8</ele><time>2021-05-20T14:49:57Z</time><name>PT13423</name></trkpt>
<trkpt lat="53.328347" lon="06.616827"><ele>7.7</ele><time>2021-05-20T14:49:58Z</time><name>PT13424</name></trkpt>
<trkpt lat="53.328340" lon="06.616825"><ele>7.5</ele><time>2021-05-20T14:49:59Z</time><name>PT13425</name></trkpt>
<trkpt lat="53.328333" lon="06.616824"><ele>7.3</ele><time>2021-05-20T14:50:00Z</time><name>PT13426</name></trkpt>
<trkpt lat="53.328326" lon="06.616827"><ele>7.3</ele><time>2021-05-20T14:50:01Z</time><name>PT13427</name></trkpt>
<trkpt lat="53.328319" lon="06.616829"><ele>7.2</ele><time>2021-05-20T14:50:02Z</time><name>PT13428</name></trkpt>
<trkpt lat="53.328311" lon="06.616827"><ele>7.2</ele><time>2021-05-20T14:50:03Z</time><name>PT13429</name></trkpt>
<trkpt lat="53.328302" lon="06.616824"><ele>7.2</ele><time>2021-05-20T14:50:04Z</time><name>PT13430</name></trkpt>
<trkpt lat="53.328289" lon="06.616817"><ele>7.2</ele><time>2021-05-20T14:50:05Z</time><name>PT13431</name></trkpt>
<trkpt lat="53.328272" lon="06.616807"><ele>7.3</ele><time>2021-05-20T14:50:06Z</time><name>PT13432</name></trkpt>
<trkpt lat="53.328252" lon="06.616797"><ele>7.5</ele><time>2021-05-20T14:50:07Z</time><name>PT13433</name></trkpt>
<trkpt lat="53.328231" lon="06.616785"><ele>7.6</ele><time>2021-05-20T14:50:08Z</time><name>PT13434</name></trkpt>
<trkpt lat="53.328208" lon="06.616768"><ele>7.8</ele><time>2021-05-20T14:50:09Z</time><name>PT13435</name></trkpt>
<trkpt lat="53.328187" lon="06.616755"><ele>7.8</ele><time>2021-05-20T14:50:10Z</time><name>PT13436</name></trkpt>
<trkpt lat="53.328172" lon="06.616747"><ele>7.8</ele><time>2021-05-20T14:50:11Z</time><name>PT13437</name></trkpt>
<trkpt lat="53.328159" lon="06.616738"><ele>7.6</ele><time>2021-05-20T14:50:12Z</time><name>PT13438</name></trkpt>
<trkpt lat="53.328150" lon="06.616730"><ele>7.5</ele><time>2021-05-20T14:50:13Z</time><name>PT13439</name></trkpt>
<trkpt lat="53.328144" lon="06.616728"><ele>7.3</ele><time>2021-05-20T14:50:14Z</time><name>PT13440</name></trkpt>
<trkpt lat="53.328139" lon="06.616728"><ele>7.3</ele><time>2021-05-20T14:50:15Z</time><name>PT13441</name></trkpt>
<trkpt lat="53.328131" lon="06.616727"><ele>7.3</ele><time>2021-05-20T14:50:16Z</time><name>PT13442</name></trkpt>
<trkpt lat="53.328123" lon="06.616722"><ele>7.6</ele><time>2021-05-20T14:50:17Z</time><name>PT13443</name></trkpt>
<trkpt lat="53.328111" lon="06.616714"><ele>7.8</ele><time>2021-05-20T14:50:18Z</time><name>PT13444</name></trkpt>
<trkpt lat="53.328098" lon="06.616702"><ele>7.9</ele><time>2021-05-20T14:50:19Z</time><name>PT13445</name></trkpt>
<trkpt lat="53.328083" lon="06.616693"><ele>8.1</ele><time>2021-05-20T14:50:20Z</time><name>PT13446</name></trkpt>
<trkpt lat="53.328070" lon="06.616688"><ele>7.8</ele><time>2021-05-20T14:50:21Z</time><name>PT13447</name></trkpt>
<trkpt lat="53.328059" lon="06.616686"><ele>7.7</ele><time>2021-05-20T14:50:22Z</time><name>PT13448</name></trkpt>
<trkpt lat="53.328052" lon="06.616683"><ele>7.6</ele><time>2021-05-20T14:50:23Z</time><name>PT13449</name></trkpt>
<trkpt lat="53.328047" lon="06.616680"><ele>7.5</ele><time>2021-05-20T14:50:24Z</time><name>PT13450</name></trkpt>
<trkpt lat="53.328040" lon="06.616677"><ele>7.5</ele><time>2021-05-20T14:50:25Z</time><name>PT13451</name></trkpt>
<trkpt lat="53.328034" lon="06.616670"><ele>7.4</ele><time>2021-05-20T14:50:26Z</time><name>PT13452</name></trkpt>
<trkpt lat="53.328027" lon="06.616663"><ele>7.5</ele><time>2021-05-20T14:50:27Z</time><name>PT13453</name></trkpt>
<trkpt lat="53.328015" lon="06.616652"><ele>7.3</ele><time>2021-05-20T14:50:28Z</time><name>PT13454</name></trkpt>
<trkpt lat="53.328002" lon="06.616643"><ele>7.1</ele><time>2021-05-20T14:50:29Z</time><name>PT13455</name></trkpt>
<trkpt lat="53.327988" lon="06.616635"><ele>6.9</ele><time>2021-05-20T14:50:30Z</time><name>PT13456</name></trkpt>
<trkpt lat="53.327975" lon="06.616628"><ele>6.8</ele><time>2021-05-20T14:50:31Z</time><name>PT13457</name></trkpt>
<trkpt lat="53.327967" lon="06.616625"><ele>6.8</ele><time>2021-05-20T14:50:32Z</time><name>PT13458</name></trkpt>
<trkpt lat="53.327960" lon="06.616621"><ele>6.9</ele><time>2021-05-20T14:50:33Z</time><name>PT13459</name></trkpt>
<trkpt lat="53.327954" lon="06.616616"><ele>7</ele><time>2021-05-20T14:50:34Z</time><name>PT13460</name></trkpt>
<trkpt lat="53.327948" lon="06.616609"><ele>7.3</ele><time>2021-05-20T14:50:35Z</time><name>PT13461</name></trkpt>
<trkpt lat="53.327937" lon="06.616600"><ele>7.3</ele><time>2021-05-20T14:50:36Z</time><name>PT13462</name></trkpt>
<trkpt lat="53.327921" lon="06.616589"><ele>7.4</ele><time>2021-05-20T14:50:37Z</time><name>PT13463</name></trkpt>
<trkpt lat="53.327906" lon="06.616581"><ele>7.5</ele><time>2021-05-20T14:50:38Z</time><name>PT13464</name></trkpt>
<trkpt lat="53.327894" lon="06.616577"><ele>7.3</ele><time>2021-05-20T14:50:39Z</time><name>PT13465</name></trkpt>
<trkpt lat="53.327886" lon="06.616575"><ele>7.4</ele><time>2021-05-20T14:50:40Z</time><name>PT13466</name></trkpt>
<trkpt lat="53.327879" lon="06.616573"><ele>7.3</ele><time>2021-05-20T14:50:41Z</time><name>PT13467</name></trkpt>
<trkpt lat="53.327872" lon="06.616570"><ele>7.5</ele><time>2021-05-20T14:50:42Z</time><name>PT13468</name></trkpt>
<trkpt lat="53.327866" lon="06.616567"><ele>7.4</ele><time>2021-05-20T14:50:43Z</time><name>PT13469</name></trkpt>
<trkpt lat="53.327860" lon="06.616562"><ele>7.4</ele><time>2021-05-20T14:50:44Z</time><name>PT13470</name></trkpt>
<trkpt lat="53.327848" lon="06.616552"><ele>7.3</ele><time>2021-05-20T14:50:45Z</time><name>PT13471</name></trkpt>
<trkpt lat="53.327835" lon="06.616543"><ele>7.3</ele><time>2021-05-20T14:50:46Z</time><name>PT13472</name></trkpt>
<trkpt lat="53.327825" lon="06.616531"><ele>7.2</ele><time>2021-05-20T14:50:47Z</time><name>PT13473</name></trkpt>
<trkpt lat="53.327818" lon="06.616527"><ele>7.3</ele><time>2021-05-20T14:50:48Z</time><name>PT13474</name></trkpt>
<trkpt lat="53.327812" lon="06.616522"><ele>7.3</ele><time>2021-05-20T14:50:49Z</time><name>PT13475</name></trkpt>
<trkpt lat="53.327806" lon="06.616517"><ele>7.5</ele><time>2021-05-20T14:50:50Z</time><name>PT13476</name></trkpt>
<trkpt lat="53.327795" lon="06.616511"><ele>7.8</ele><time>2021-05-20T14:50:51Z</time><name>PT13477</name></trkpt>
<trkpt lat="53.327785" lon="06.616503"><ele>7.8</ele><time>2021-05-20T14:50:52Z</time><name>PT13478</name></trkpt>
<trkpt lat="53.327776" lon="06.616496"><ele>7.8</ele><time>2021-05-20T14:50:53Z</time><name>PT13479</name></trkpt>
<trkpt lat="53.327767" lon="06.616491"><ele>7.9</ele><time>2021-05-20T14:50:54Z</time><name>PT13480</name></trkpt>
<trkpt lat="53.327759" lon="06.616485"><ele>7.9</ele><time>2021-05-20T14:50:55Z</time><name>PT13481</name></trkpt>
<trkpt lat="53.327750" lon="06.616479"><ele>7.8</ele><time>2021-05-20T14:50:56Z</time><name>PT13482</name></trkpt>
<trkpt lat="53.327743" lon="06.616473"><ele>7.9</ele><time>2021-05-20T14:50:57Z</time><name>PT13483</name></trkpt>
<trkpt lat="53.327736" lon="06.616466"><ele>7.8</ele><time>2021-05-20T14:50:58Z</time><name>PT13484</name></trkpt>
<trkpt lat="53.327729" lon="06.616459"><ele>7.6</ele><time>2021-05-20T14:50:59Z</time><name>PT13485</name></trkpt>
<trkpt lat="53.327722" lon="06.616454"><ele>7.6</ele><time>2021-05-20T14:51:00Z</time><name>PT13486</name></trkpt>
<trkpt lat="53.327714" lon="06.616449"><ele>7.7</ele><time>2021-05-20T14:51:01Z</time><name>PT13487</name></trkpt>
<trkpt lat="53.327703" lon="06.616443"><ele>7.4</ele><time>2021-05-20T14:51:02Z</time><name>PT13488</name></trkpt>
<trkpt lat="53.327693" lon="06.616438"><ele>7.5</ele><time>2021-05-20T14:51:03Z</time><name>PT13489</name></trkpt>
<trkpt lat="53.327684" lon="06.616434"><ele>7.4</ele><time>2021-05-20T14:51:04Z</time><name>PT13490</name></trkpt>
<trkpt lat="53.327676" lon="06.616434"><ele>7.3</ele><time>2021-05-20T14:51:05Z</time><name>PT13491</name></trkpt>
<trkpt lat="53.327668" lon="06.616430"><ele>7.5</ele><time>2021-05-20T14:51:06Z</time><name>PT13492</name></trkpt>
<trkpt lat="53.327660" lon="06.616422"><ele>7.3</ele><time>2021-05-20T14:51:07Z</time><name>PT13493</name></trkpt>
<trkpt lat="53.327649" lon="06.616414"><ele>7.3</ele><time>2021-05-20T14:51:08Z</time><name>PT13494</name></trkpt>
<trkpt lat="53.327633" lon="06.616407"><ele>7.3</ele><time>2021-05-20T14:51:09Z</time><name>PT13495</name></trkpt>
<trkpt lat="53.327620" lon="06.616397"><ele>7.3</ele><time>2021-05-20T14:51:10Z</time><name>PT13496</name></trkpt>
<trkpt lat="53.327609" lon="06.616392"><ele>7.3</ele><time>2021-05-20T14:51:11Z</time><name>PT13497</name></trkpt>
<trkpt lat="53.327600" lon="06.616390"><ele>7.5</ele><time>2021-05-20T14:51:12Z</time><name>PT13498</name></trkpt>
<trkpt lat="53.327593" lon="06.616388"><ele>7.4</ele><time>2021-05-20T14:51:13Z</time><name>PT13499</name></trkpt>
<trkpt lat="53.327586" lon="06.616383"><ele>7.3</ele><time>2021-05-20T14:51:14Z</time><name>PT13500</name></trkpt>
<trkpt lat="53.327577" lon="06.616374"><ele>7.4</ele><time>2021-05-20T14:51:15Z</time><name>PT13501</name></trkpt>
<trkpt lat="53.327565" lon="06.616363"><ele>7.5</ele><time>2021-05-20T14:51:16Z</time><name>PT13502</name></trkpt>
<trkpt lat="53.327549" lon="06.616354"><ele>7.6</ele><time>2021-05-20T14:51:17Z</time><name>PT13503</name></trkpt>
<trkpt lat="53.327536" lon="06.616348"><ele>7.7</ele><time>2021-05-20T14:51:18Z</time><name>PT13504</name></trkpt>
<trkpt lat="53.327527" lon="06.616344"><ele>7.8</ele><time>2021-05-20T14:51:19Z</time><name>PT13505</name></trkpt>
<trkpt lat="53.327519" lon="06.616339"><ele>7.7</ele><time>2021-05-20T14:51:20Z</time><name>PT13506</name></trkpt>
<trkpt lat="53.327513" lon="06.616336"><ele>7.4</ele><time>2021-05-20T14:51:21Z</time><name>PT13507</name></trkpt>
<trkpt lat="53.327506" lon="06.616328"><ele>7.6</ele><time>2021-05-20T14:51:22Z</time><name>PT13508</name></trkpt>
<trkpt lat="53.327496" lon="06.616318"><ele>7.6</ele><time>2021-05-20T14:51:23Z</time><name>PT13509</name></trkpt>
<trkpt lat="53.327482" lon="06.616306"><ele>7.5</ele><time>2021-05-20T14:51:24Z</time><name>PT13510</name></trkpt>
<trkpt lat="53.327467" lon="06.616297"><ele>7.6</ele><time>2021-05-20T14:51:25Z</time><name>PT13511</name></trkpt>
<trkpt lat="53.327458" lon="06.616294"><ele>7.5</ele><time>2021-05-20T14:51:26Z</time><name>PT13512</name></trkpt>
<trkpt lat="53.327450" lon="06.616292"><ele>7.3</ele><time>2021-05-20T14:51:27Z</time><name>PT13513</name></trkpt>
<trkpt lat="53.327443" lon="06.616290"><ele>7.3</ele><time>2021-05-20T14:51:28Z</time><name>PT13514</name></trkpt>
<trkpt lat="53.327436" lon="06.616283"><ele>7.3</ele><time>2021-05-20T14:51:29Z</time><name>PT13515</name></trkpt>
<trkpt lat="53.327427" lon="06.616275"><ele>7.3</ele><time>2021-05-20T14:51:30Z</time><name>PT13516</name></trkpt>
<trkpt lat="53.327415" lon="06.616264"><ele>7.5</ele><time>2021-05-20T14:51:31Z</time><name>PT13517</name></trkpt>
<trkpt lat="53.327401" lon="06.616256"><ele>7.4</ele><time>2021-05-20T14:51:32Z</time><name>PT13518</name></trkpt>
<trkpt lat="53.327389" lon="06.616250"><ele>7.5</ele><time>2021-05-20T14:51:33Z</time><name>PT13519</name></trkpt>
<trkpt lat="53.327382" lon="06.616246"><ele>7.3</ele><time>2021-05-20T14:51:34Z</time><name>PT13520</name></trkpt>
<trkpt lat="53.327375" lon="06.616242"><ele>7.4</ele><time>2021-05-20T14:51:35Z</time><name>PT13521</name></trkpt>
<trkpt lat="53.327368" lon="06.616235"><ele>7.6</ele><time>2021-05-20T14:51:36Z</time><name>PT13522</name></trkpt>
<trkpt lat="53.327359" lon="06.616225"><ele>7.9</ele><time>2021-05-20T14:51:37Z</time><name>PT13523</name></trkpt>
<trkpt lat="53.327345" lon="06.616212"><ele>8.1</ele><time>2021-05-20T14:51:38Z</time><name>PT13524</name></trkpt>
<trkpt lat="53.327329" lon="06.616202"><ele>7.9</ele><time>2021-05-20T14:51:39Z</time><name>PT13525</name></trkpt>
<trkpt lat="53.327317" lon="06.616193"><ele>7.8</ele><time>2021-05-20T14:51:40Z</time><name>PT13526</name></trkpt>
<trkpt lat="53.327309" lon="06.616191"><ele>7.8</ele><time>2021-05-20T14:51:41Z</time><name>PT13527</name></trkpt>
<trkpt lat="53.327302" lon="06.616191"><ele>7.8</ele><time>2021-05-20T14:51:42Z</time><name>PT13528</name></trkpt>
<trkpt lat="53.327293" lon="06.616186"><ele>7.6</ele><time>2021-05-20T14:51:43Z</time><name>PT13529</name></trkpt>
<trkpt lat="53.327286" lon="06.616177"><ele>7.8</ele><time>2021-05-20T14:51:44Z</time><name>PT13530</name></trkpt>
<trkpt lat="53.327276" lon="06.616166"><ele>7.7</ele><time>2021-05-20T14:51:45Z</time><name>PT13531</name></trkpt>
<trkpt lat="53.327264" lon="06.616159"><ele>7.7</ele><time>2021-05-20T14:51:46Z</time><name>PT13532</name></trkpt>
<trkpt lat="53.327250" lon="06.616150"><ele>7.5</ele><time>2021-05-20T14:51:47Z</time><name>PT13533</name></trkpt>
<trkpt lat="53.327240" lon="06.616145"><ele>7.4</ele><time>2021-05-20T14:51:48Z</time><name>PT13534</name></trkpt>
<trkpt lat="53.327233" lon="06.616143"><ele>7.5</ele><time>2021-05-20T14:51:49Z</time><name>PT13535</name></trkpt>
<trkpt lat="53.327227" lon="06.616140"><ele>7.6</ele><time>2021-05-20T14:51:50Z</time><name>PT13536</name></trkpt>
<trkpt lat="53.327220" lon="06.616135"><ele>7.6</ele><time>2021-05-20T14:51:51Z</time><name>PT13537</name></trkpt>
<trkpt lat="53.327210" lon="06.616126"><ele>7.7</ele><time>2021-05-20T14:51:52Z</time><name>PT13538</name></trkpt>
<trkpt lat="53.327196" lon="06.616115"><ele>7.8</ele><time>2021-05-20T14:51:53Z</time><name>PT13539</name></trkpt>
<trkpt lat="53.327183" lon="06.616106"><ele>7.8</ele><time>2021-05-20T14:51:54Z</time><name>PT13540</name></trkpt>
<trkpt lat="53.327174" lon="06.616098"><ele>7.7</ele><time>2021-05-20T14:51:55Z</time><name>PT13541</name></trkpt>
<trkpt lat="53.327167" lon="06.616093"><ele>7.7</ele><time>2021-05-20T14:51:56Z</time><name>PT13542</name></trkpt>
<trkpt lat="53.327162" lon="06.616092"><ele>7.7</ele><time>2021-05-20T14:51:57Z</time><name>PT13543</name></trkpt>
<trkpt lat="53.327155" lon="06.616087"><ele>7.5</ele><time>2021-05-20T14:51:58Z</time><name>PT13544</name></trkpt>
<trkpt lat="53.327146" lon="06.616079"><ele>7.5</ele><time>2021-05-20T14:51:59Z</time><name>PT13545</name></trkpt>
<trkpt lat="53.327134" lon="06.616069"><ele>7.6</ele><time>2021-05-20T14:52:00Z</time><name>PT13546</name></trkpt>
<trkpt lat="53.327119" lon="06.616059"><ele>7.7</ele><time>2021-05-20T14:52:01Z</time><name>PT13547</name></trkpt>
<trkpt lat="53.327106" lon="06.616051"><ele>7.8</ele><time>2021-05-20T14:52:02Z</time><name>PT13548</name></trkpt>
<trkpt lat="53.327097" lon="06.616047"><ele>7.9</ele><time>2021-05-20T14:52:03Z</time><name>PT13549</name></trkpt>
<trkpt lat="53.327090" lon="06.616044"><ele>8</ele><time>2021-05-20T14:52:04Z</time><name>PT13550</name></trkpt>
<trkpt lat="53.327083" lon="06.616042"><ele>7.8</ele><time>2021-05-20T14:52:05Z</time><name>PT13551</name></trkpt>
<trkpt lat="53.327076" lon="06.616033"><ele>7.7</ele><time>2021-05-20T14:52:06Z</time><name>PT13552</name></trkpt>
<trkpt lat="53.327067" lon="06.616024"><ele>7.6</ele><time>2021-05-20T14:52:07Z</time><name>PT13553</name></trkpt>
<trkpt lat="53.327056" lon="06.616013"><ele>7.4</ele><time>2021-05-20T14:52:08Z</time><name>PT13554</name></trkpt>
<trkpt lat="53.327044" lon="06.616002"><ele>7.6</ele><time>2021-05-20T14:52:09Z</time><name>PT13555</name></trkpt>
<trkpt lat="53.327033" lon="06.615996"><ele>7.7</ele><time>2021-05-20T14:52:10Z</time><name>PT13556</name></trkpt>
<trkpt lat="53.327027" lon="06.615993"><ele>7.9</ele><time>2021-05-20T14:52:11Z</time><name>PT13557</name></trkpt>
<trkpt lat="53.327022" lon="06.615993"><ele>8</ele><time>2021-05-20T14:52:12Z</time><name>PT13558</name></trkpt>
<trkpt lat="53.327016" lon="06.615991"><ele>8.1</ele><time>2021-05-20T14:52:13Z</time><name>PT13559</name></trkpt>
<trkpt lat="53.327009" lon="06.615988"><ele>7.9</ele><time>2021-05-20T14:52:14Z</time><name>PT13560</name></trkpt>
<trkpt lat="53.326996" lon="06.615981"><ele>7.8</ele><time>2021-05-20T14:52:15Z</time><name>PT13561</name></trkpt>
<trkpt lat="53.326982" lon="06.615972"><ele>7.8</ele><time>2021-05-20T14:52:16Z</time><name>PT13562</name></trkpt>
<trkpt lat="53.326971" lon="06.615967"><ele>7.9</ele><time>2021-05-20T14:52:17Z</time><name>PT13563</name></trkpt>
<trkpt lat="53.326963" lon="06.615962"><ele>8.1</ele><time>2021-05-20T14:52:18Z</time><name>PT13564</name></trkpt>
<trkpt lat="53.326956" lon="06.615959"><ele>8.1</ele><time>2021-05-20T14:52:19Z</time><name>PT13565</name></trkpt>
<trkpt lat="53.326948" lon="06.615956"><ele>8</ele><time>2021-05-20T14:52:20Z</time><name>PT13566</name></trkpt>
<trkpt lat="53.326940" lon="06.615950"><ele>8.2</ele><time>2021-05-20T14:52:21Z</time><name>PT13567</name></trkpt>
<trkpt lat="53.326934" lon="06.615942"><ele>7.8</ele><time>2021-05-20T14:52:22Z</time><name>PT13568</name></trkpt>
<trkpt lat="53.326923" lon="06.615933"><ele>7.9</ele><time>2021-05-20T14:52:23Z</time><name>PT13569</name></trkpt>
<trkpt lat="53.326908" lon="06.615927"><ele>7.8</ele><time>2021-05-20T14:52:24Z</time><name>PT13570</name></trkpt>
<trkpt lat="53.326895" lon="06.615923"><ele>7.8</ele><time>2021-05-20T14:52:25Z</time><name>PT13571</name></trkpt>
<trkpt lat="53.326886" lon="06.615921"><ele>7.8</ele><time>2021-05-20T14:52:26Z</time><name>PT13572</name></trkpt>
<trkpt lat="53.326878" lon="06.615918"><ele>8</ele><time>2021-05-20T14:52:27Z</time><name>PT13573</name></trkpt>
<trkpt lat="53.326870" lon="06.615912"><ele>7.8</ele><time>2021-05-20T14:52:28Z</time><name>PT13574</name></trkpt>
<trkpt lat="53.326862" lon="06.615901"><ele>7.6</ele><time>2021-05-20T14:52:29Z</time><name>PT13575</name></trkpt>
<trkpt lat="53.326851" lon="06.615889"><ele>7.6</ele><time>2021-05-20T14:52:30Z</time><name>PT13576</name></trkpt>
<trkpt lat="53.326838" lon="06.615875"><ele>7.7</ele><time>2021-05-20T14:52:31Z</time><name>PT13577</name></trkpt>
<trkpt lat="53.326824" lon="06.615865"><ele>7.9</ele><time>2021-05-20T14:52:32Z</time><name>PT13578</name></trkpt>
<trkpt lat="53.326811" lon="06.615859"><ele>8.1</ele><time>2021-05-20T14:52:33Z</time><name>PT13579</name></trkpt>
<trkpt lat="53.326803" lon="06.615856"><ele>8.2</ele><time>2021-05-20T14:52:34Z</time><name>PT13580</name></trkpt>
<trkpt lat="53.326797" lon="06.615852"><ele>8.2</ele><time>2021-05-20T14:52:35Z</time><name>PT13581</name></trkpt>
<trkpt lat="53.326789" lon="06.615846"><ele>7.8</ele><time>2021-05-20T14:52:36Z</time><name>PT13582</name></trkpt>
<trkpt lat="53.326781" lon="06.615835"><ele>7.6</ele><time>2021-05-20T14:52:37Z</time><name>PT13583</name></trkpt>
<trkpt lat="53.326770" lon="06.615817"><ele>7.7</ele><time>2021-05-20T14:52:38Z</time><name>PT13584</name></trkpt>
<trkpt lat="53.326758" lon="06.615802"><ele>7.6</ele><time>2021-05-20T14:52:39Z</time><name>PT13585</name></trkpt>
<trkpt lat="53.326748" lon="06.615792"><ele>7.5</ele><time>2021-05-20T14:52:40Z</time><name>PT13586</name></trkpt>
<trkpt lat="53.326741" lon="06.615786"><ele>7.5</ele><time>2021-05-20T14:52:41Z</time><name>PT13587</name></trkpt>
<trkpt lat="53.326735" lon="06.615782"><ele>7.3</ele><time>2021-05-20T14:52:42Z</time><name>PT13588</name></trkpt>
<trkpt lat="53.326728" lon="06.615773"><ele>7.3</ele><time>2021-05-20T14:52:43Z</time><name>PT13589</name></trkpt>
<trkpt lat="53.326720" lon="06.615762"><ele>7.3</ele><time>2021-05-20T14:52:44Z</time><name>PT13590</name></trkpt>
<trkpt lat="53.326708" lon="06.615749"><ele>7.3</ele><time>2021-05-20T14:52:45Z</time><name>PT13591</name></trkpt>
<trkpt lat="53.326699" lon="06.615743"><ele>7.4</ele><time>2021-05-20T14:52:46Z</time><name>PT13592</name></trkpt>
<trkpt lat="53.326693" lon="06.615740"><ele>7.6</ele><time>2021-05-20T14:52:47Z</time><name>PT13593</name></trkpt>
<trkpt lat="53.326685" lon="06.615735"><ele>7.5</ele><time>2021-05-20T14:52:48Z</time><name>PT13594</name></trkpt>
<trkpt lat="53.326678" lon="06.615723"><ele>7.7</ele><time>2021-05-20T14:52:49Z</time><name>PT13595</name></trkpt>
<trkpt lat="53.326665" lon="06.615718"><ele>7.8</ele><time>2021-05-20T14:52:50Z</time><name>PT13596</name></trkpt>
<trkpt lat="53.326647" lon="06.615711"><ele>7.8</ele><time>2021-05-20T14:52:51Z</time><name>PT13597</name></trkpt>
<trkpt lat="53.326639" lon="06.615701"><ele>7.8</ele><time>2021-05-20T14:52:52Z</time><name>PT13598</name></trkpt>
<trkpt lat="53.326631" lon="06.615697"><ele>7.8</ele><time>2021-05-20T14:52:53Z</time><name>PT13599</name></trkpt>
<trkpt lat="53.326626" lon="06.615690"><ele>7.6</ele><time>2021-05-20T14:52:54Z</time><name>PT13600</name></trkpt>
<trkpt lat="53.326622" lon="06.615683"><ele>7.7</ele><time>2021-05-20T14:52:55Z</time><name>PT13601</name></trkpt>
<trkpt lat="53.326614" lon="06.615677"><ele>7.7</ele><time>2021-05-20T14:52:56Z</time><name>PT13602</name></trkpt>
<trkpt lat="53.326609" lon="06.615668"><ele>7.8</ele><time>2021-05-20T14:52:57Z</time><name>PT13603</name></trkpt>
<trkpt lat="53.326601" lon="06.615658"><ele>7.8</ele><time>2021-05-20T14:52:58Z</time><name>PT13604</name></trkpt>
<trkpt lat="53.326593" lon="06.615649"><ele>7.6</ele><time>2021-05-20T14:52:59Z</time><name>PT13605</name></trkpt>
<trkpt lat="53.326584" lon="06.615640"><ele>7.3</ele><time>2021-05-20T14:53:00Z</time><name>PT13606</name></trkpt>
<trkpt lat="53.326574" lon="06.615632"><ele>7.2</ele><time>2021-05-20T14:53:01Z</time><name>PT13607</name></trkpt>
<trkpt lat="53.326563" lon="06.615626"><ele>7.2</ele><time>2021-05-20T14:53:02Z</time><name>PT13608</name></trkpt>
<trkpt lat="53.326554" lon="06.615620"><ele>7.2</ele><time>2021-05-20T14:53:03Z</time><name>PT13609</name></trkpt>
<trkpt lat="53.326542" lon="06.615611"><ele>7.3</ele><time>2021-05-20T14:53:04Z</time><name>PT13610</name></trkpt>
<trkpt lat="53.326532" lon="06.615603"><ele>7.3</ele><time>2021-05-20T14:53:05Z</time><name>PT13611</name></trkpt>
<trkpt lat="53.326523" lon="06.615593"><ele>7.3</ele><time>2021-05-20T14:53:06Z</time><name>PT13612</name></trkpt>
<trkpt lat="53.326513" lon="06.615585"><ele>7.3</ele><time>2021-05-20T14:53:07Z</time><name>PT13613</name></trkpt>
<trkpt lat="53.326504" lon="06.615576"><ele>7.2</ele><time>2021-05-20T14:53:08Z</time><name>PT13614</name></trkpt>
<trkpt lat="53.326494" lon="06.615572"><ele>7.3</ele><time>2021-05-20T14:53:09Z</time><name>PT13615</name></trkpt>
<trkpt lat="53.326485" lon="06.615560"><ele>7.4</ele><time>2021-05-20T14:53:10Z</time><name>PT13616</name></trkpt>
<trkpt lat="53.326477" lon="06.615549"><ele>7.6</ele><time>2021-05-20T14:53:11Z</time><name>PT13617</name></trkpt>
<trkpt lat="53.326469" lon="06.615542"><ele>7.5</ele><time>2021-05-20T14:53:12Z</time><name>PT13618</name></trkpt>
<trkpt lat="53.326460" lon="06.615535"><ele>7.5</ele><time>2021-05-20T14:53:13Z</time><name>PT13619</name></trkpt>
<trkpt lat="53.326451" lon="06.615532"><ele>7.4</ele><time>2021-05-20T14:53:14Z</time><name>PT13620</name></trkpt>
<trkpt lat="53.326444" lon="06.615528"><ele>7.3</ele><time>2021-05-20T14:53:15Z</time><name>PT13621</name></trkpt>
<trkpt lat="53.326434" lon="06.615520"><ele>7.3</ele><time>2021-05-20T14:53:16Z</time><name>PT13622</name></trkpt>
<trkpt lat="53.326424" lon="06.615515"><ele>7.3</ele><time>2021-05-20T14:53:17Z</time><name>PT13623</name></trkpt>
<trkpt lat="53.326414" lon="06.615509"><ele>7.3</ele><time>2021-05-20T14:53:18Z</time><name>PT13624</name></trkpt>
<trkpt lat="53.326404" lon="06.615502"><ele>7.3</ele><time>2021-05-20T14:53:19Z</time><name>PT13625</name></trkpt>
<trkpt lat="53.326393" lon="06.615494"><ele>7.5</ele><time>2021-05-20T14:53:20Z</time><name>PT13626</name></trkpt>
<trkpt lat="53.326384" lon="06.615484"><ele>7.4</ele><time>2021-05-20T14:53:21Z</time><name>PT13627</name></trkpt>
<trkpt lat="53.326376" lon="06.615478"><ele>7.4</ele><time>2021-05-20T14:53:22Z</time><name>PT13628</name></trkpt>
<trkpt lat="53.326375" lon="06.615476"><ele>7.5</ele><time>2021-05-20T14:53:23Z</time><name>PT13629</name></trkpt>
<trkpt lat="53.326375" lon="06.615477"><ele>7.4</ele><time>2021-05-20T14:53:24Z</time><name>PT13630</name></trkpt>
<trkpt lat="53.326375" lon="06.615476"><ele>7.4</ele><time>2021-05-20T14:53:25Z</time><name>PT13631</name></trkpt>
<trkpt lat="53.326371" lon="06.615473"><ele>7.3</ele><time>2021-05-20T14:53:31Z</time><name>PT13632</name></trkpt>
<trkpt lat="53.326361" lon="06.615468"><ele>7.3</ele><time>2021-05-20T14:53:32Z</time><name>PT13633</name></trkpt>
<trkpt lat="53.326349" lon="06.615461"><ele>7.2</ele><time>2021-05-20T14:53:33Z</time><name>PT13634</name></trkpt>
<trkpt lat="53.326339" lon="06.615450"><ele>7.3</ele><time>2021-05-20T14:53:34Z</time><name>PT13635</name></trkpt>
<trkpt lat="53.326326" lon="06.615440"><ele>7.3</ele><time>2021-05-20T14:53:35Z</time><name>PT13636</name></trkpt>
<trkpt lat="53.326317" lon="06.615433"><ele>7.3</ele><time>2021-05-20T14:53:36Z</time><name>PT13637</name></trkpt>
<trkpt lat="53.326306" lon="06.615424"><ele>7.5</ele><time>2021-05-20T14:53:37Z</time><name>PT13638</name></trkpt>
<trkpt lat="53.326289" lon="06.615406"><ele>7.6</ele><time>2021-05-20T14:53:38Z</time><name>PT13639</name></trkpt>
<trkpt lat="53.326277" lon="06.615392"><ele>7.5</ele><time>2021-05-20T14:53:39Z</time><name>PT13640</name></trkpt>
<trkpt lat="53.326265" lon="06.615382"><ele>7.6</ele><time>2021-05-20T14:53:40Z</time><name>PT13641</name></trkpt>
<trkpt lat="53.326255" lon="06.615372"><ele>7.6</ele><time>2021-05-20T14:53:41Z</time><name>PT13642</name></trkpt>
<trkpt lat="53.326247" lon="06.615363"><ele>7.5</ele><time>2021-05-20T14:53:42Z</time><name>PT13643</name></trkpt>
<trkpt lat="53.326237" lon="06.615354"><ele>7.4</ele><time>2021-05-20T14:53:43Z</time><name>PT13644</name></trkpt>
<trkpt lat="53.326226" lon="06.615345"><ele>7.3</ele><time>2021-05-20T14:53:44Z</time><name>PT13645</name></trkpt>
<trkpt lat="53.326215" lon="06.615337"><ele>7.4</ele><time>2021-05-20T14:53:45Z</time><name>PT13646</name></trkpt>
<trkpt lat="53.326205" lon="06.615328"><ele>7.4</ele><time>2021-05-20T14:53:46Z</time><name>PT13647</name></trkpt>
<trkpt lat="53.326195" lon="06.615319"><ele>7.4</ele><time>2021-05-20T14:53:47Z</time><name>PT13648</name></trkpt>
<trkpt lat="53.326184" lon="06.615309"><ele>7.5</ele><time>2021-05-20T14:53:48Z</time><name>PT13649</name></trkpt>
<trkpt lat="53.326173" lon="06.615301"><ele>7.7</ele><time>2021-05-20T14:53:49Z</time><name>PT13650</name></trkpt>
<trkpt lat="53.326163" lon="06.615296"><ele>7.6</ele><time>2021-05-20T14:53:50Z</time><name>PT13651</name></trkpt>
<trkpt lat="53.326154" lon="06.615286"><ele>7.6</ele><time>2021-05-20T14:53:51Z</time><name>PT13652</name></trkpt>
<trkpt lat="53.326144" lon="06.615273"><ele>7.5</ele><time>2021-05-20T14:53:52Z</time><name>PT13653</name></trkpt>
<trkpt lat="53.326132" lon="06.615259"><ele>7.8</ele><time>2021-05-20T14:53:53Z</time><name>PT13654</name></trkpt>
<trkpt lat="53.326118" lon="06.615245"><ele>7.6</ele><time>2021-05-20T14:53:54Z</time><name>PT13655</name></trkpt>
<trkpt lat="53.326104" lon="06.615230"><ele>7.6</ele><time>2021-05-20T14:53:55Z</time><name>PT13656</name></trkpt>
<trkpt lat="53.326094" lon="06.615221"><ele>7.5</ele><time>2021-05-20T14:53:56Z</time><name>PT13657</name></trkpt>
<trkpt lat="53.326085" lon="06.615214"><ele>7.5</ele><time>2021-05-20T14:53:57Z</time><name>PT13658</name></trkpt>
<trkpt lat="53.326077" lon="06.615210"><ele>7.6</ele><time>2021-05-20T14:53:58Z</time><name>PT13659</name></trkpt>
<trkpt lat="53.326070" lon="06.615206"><ele>7.7</ele><time>2021-05-20T14:53:59Z</time><name>PT13660</name></trkpt>
<trkpt lat="53.326062" lon="06.615201"><ele>7.8</ele><time>2021-05-20T14:54:00Z</time><name>PT13661</name></trkpt>
<trkpt lat="53.326054" lon="06.615192"><ele>7.7</ele><time>2021-05-20T14:54:01Z</time><name>PT13662</name></trkpt>
<trkpt lat="53.326046" lon="06.615181"><ele>7.5</ele><time>2021-05-20T14:54:02Z</time><name>PT13663</name></trkpt>
<trkpt lat="53.326037" lon="06.615166"><ele>7.4</ele><time>2021-05-20T14:54:03Z</time><name>PT13664</name></trkpt>
<trkpt lat="53.326026" lon="06.615152"><ele>7.3</ele><time>2021-05-20T14:54:04Z</time><name>PT13665</name></trkpt>
<trkpt lat="53.326014" lon="06.615145"><ele>7.3</ele><time>2021-05-20T14:54:05Z</time><name>PT13666</name></trkpt>
<trkpt lat="53.326003" lon="06.615139"><ele>7.3</ele><time>2021-05-20T14:54:06Z</time><name>PT13667</name></trkpt>
<trkpt lat="53.325993" lon="06.615131"><ele>7.7</ele><time>2021-05-20T14:54:07Z</time><name>PT13668</name></trkpt>
<trkpt lat="53.325984" lon="06.615123"><ele>7.8</ele><time>2021-05-20T14:54:08Z</time><name>PT13669</name></trkpt>
<trkpt lat="53.325974" lon="06.615115"><ele>7.9</ele><time>2021-05-20T14:54:09Z</time><name>PT13670</name></trkpt>
<trkpt lat="53.325966" lon="06.615104"><ele>8</ele><time>2021-05-20T14:54:10Z</time><name>PT13671</name></trkpt>
<trkpt lat="53.325957" lon="06.615090"><ele>8.1</ele><time>2021-05-20T14:54:11Z</time><name>PT13672</name></trkpt>
<trkpt lat="53.325942" lon="06.615068"><ele>8</ele><time>2021-05-20T14:54:12Z</time><name>PT13673</name></trkpt>
<trkpt lat="53.325933" lon="06.615054"><ele>8</ele><time>2021-05-20T14:54:13Z</time><name>PT13674</name></trkpt>
<trkpt lat="53.325925" lon="06.615046"><ele>7.8</ele><time>2021-05-20T14:54:14Z</time><name>PT13675</name></trkpt>
<trkpt lat="53.325913" lon="06.615045"><ele>7.9</ele><time>2021-05-20T14:54:15Z</time><name>PT13676</name></trkpt>
<trkpt lat="53.325904" lon="06.615041"><ele>7.8</ele><time>2021-05-20T14:54:16Z</time><name>PT13677</name></trkpt>
<trkpt lat="53.325898" lon="06.615038"><ele>7.8</ele><time>2021-05-20T14:54:17Z</time><name>PT13678</name></trkpt>
<trkpt lat="53.325891" lon="06.615033"><ele>8</ele><time>2021-05-20T14:54:18Z</time><name>PT13679</name></trkpt>
<trkpt lat="53.325884" lon="06.615026"><ele>8.2</ele><time>2021-05-20T14:54:19Z</time><name>PT13680</name></trkpt>
<trkpt lat="53.325876" lon="06.615017"><ele>8</ele><time>2021-05-20T14:54:20Z</time><name>PT13681</name></trkpt>
<trkpt lat="53.325868" lon="06.615006"><ele>8.1</ele><time>2021-05-20T14:54:21Z</time><name>PT13682</name></trkpt>
<trkpt lat="53.325857" lon="06.614994"><ele>8</ele><time>2021-05-20T14:54:22Z</time><name>PT13683</name></trkpt>
<trkpt lat="53.325845" lon="06.614982"><ele>7.9</ele><time>2021-05-20T14:54:23Z</time><name>PT13684</name></trkpt>
<trkpt lat="53.325833" lon="06.614969"><ele>7.8</ele><time>2021-05-20T14:54:24Z</time><name>PT13685</name></trkpt>
<trkpt lat="53.325823" lon="06.614962"><ele>7.9</ele><time>2021-05-20T14:54:25Z</time><name>PT13686</name></trkpt>
<trkpt lat="53.325814" lon="06.614954"><ele>8.2</ele><time>2021-05-20T14:54:26Z</time><name>PT13687</name></trkpt>
<trkpt lat="53.325805" lon="06.614947"><ele>8.1</ele><time>2021-05-20T14:54:27Z</time><name>PT13688</name></trkpt>
<trkpt lat="53.325799" lon="06.614942"><ele>8.4</ele><time>2021-05-20T14:54:28Z</time><name>PT13689</name></trkpt>
<trkpt lat="53.325790" lon="06.614936"><ele>8.7</ele><time>2021-05-20T14:54:29Z</time><name>PT13690</name></trkpt>
<trkpt lat="53.325782" lon="06.614926"><ele>8.7</ele><time>2021-05-20T14:54:30Z</time><name>PT13691</name></trkpt>
<trkpt lat="53.325773" lon="06.614914"><ele>8.6</ele><time>2021-05-20T14:54:31Z</time><name>PT13692</name></trkpt>
<trkpt lat="53.325762" lon="06.614899"><ele>8.3</ele><time>2021-05-20T14:54:32Z</time><name>PT13693</name></trkpt>
<trkpt lat="53.325749" lon="06.614886"><ele>8.3</ele><time>2021-05-20T14:54:33Z</time><name>PT13694</name></trkpt>
<trkpt lat="53.325740" lon="06.614878"><ele>7.8</ele><time>2021-05-20T14:54:34Z</time><name>PT13695</name></trkpt>
<trkpt lat="53.325732" lon="06.614871"><ele>7.6</ele><time>2021-05-20T14:54:35Z</time><name>PT13696</name></trkpt>
<trkpt lat="53.325725" lon="06.614868"><ele>7.5</ele><time>2021-05-20T14:54:36Z</time><name>PT13697</name></trkpt>
<trkpt lat="53.325719" lon="06.614859"><ele>7.6</ele><time>2021-05-20T14:54:37Z</time><name>PT13698</name></trkpt>
<trkpt lat="53.325711" lon="06.614852"><ele>7.5</ele><time>2021-05-20T14:54:38Z</time><name>PT13699</name></trkpt>
<trkpt lat="53.325702" lon="06.614842"><ele>7.6</ele><time>2021-05-20T14:54:39Z</time><name>PT13700</name></trkpt>
<trkpt lat="53.325693" lon="06.614832"><ele>7.7</ele><time>2021-05-20T14:54:40Z</time><name>PT13701</name></trkpt>
<trkpt lat="53.325683" lon="06.614820"><ele>7.7</ele><time>2021-05-20T14:54:41Z</time><name>PT13702</name></trkpt>
<trkpt lat="53.325671" lon="06.614808"><ele>7.6</ele><time>2021-05-20T14:54:42Z</time><name>PT13703</name></trkpt>
<trkpt lat="53.325659" lon="06.614798"><ele>7.7</ele><time>2021-05-20T14:54:43Z</time><name>PT13704</name></trkpt>
<trkpt lat="53.325649" lon="06.614790"><ele>7.8</ele><time>2021-05-20T14:54:44Z</time><name>PT13705</name></trkpt>
<trkpt lat="53.325642" lon="06.614786"><ele>7.8</ele><time>2021-05-20T14:54:45Z</time><name>PT13706</name></trkpt>
<trkpt lat="53.325635" lon="06.614780"><ele>7.7</ele><time>2021-05-20T14:54:46Z</time><name>PT13707</name></trkpt>
<trkpt lat="53.325628" lon="06.614777"><ele>7.7</ele><time>2021-05-20T14:54:47Z</time><name>PT13708</name></trkpt>
<trkpt lat="53.325621" lon="06.614769"><ele>7.8</ele><time>2021-05-20T14:54:48Z</time><name>PT13709</name></trkpt>
<trkpt lat="53.325613" lon="06.614760"><ele>7.8</ele><time>2021-05-20T14:54:49Z</time><name>PT13710</name></trkpt>
<trkpt lat="53.325600" lon="06.614744"><ele>7.8</ele><time>2021-05-20T14:54:50Z</time><name>PT13711</name></trkpt>
<trkpt lat="53.325586" lon="06.614729"><ele>7.9</ele><time>2021-05-20T14:54:51Z</time><name>PT13712</name></trkpt>
<trkpt lat="53.325575" lon="06.614717"><ele>7.8</ele><time>2021-05-20T14:54:52Z</time><name>PT13713</name></trkpt>
<trkpt lat="53.325567" lon="06.614711"><ele>7.7</ele><time>2021-05-20T14:54:53Z</time><name>PT13714</name></trkpt>
<trkpt lat="53.325560" lon="06.614707"><ele>7.7</ele><time>2021-05-20T14:54:54Z</time><name>PT13715</name></trkpt>
<trkpt lat="53.325552" lon="06.614701"><ele>7.5</ele><time>2021-05-20T14:54:55Z</time><name>PT13716</name></trkpt>
<trkpt lat="53.325545" lon="06.614690"><ele>7.5</ele><time>2021-05-20T14:54:56Z</time><name>PT13717</name></trkpt>
<trkpt lat="53.325537" lon="06.614679"><ele>7.4</ele><time>2021-05-20T14:54:57Z</time><name>PT13718</name></trkpt>
<trkpt lat="53.325527" lon="06.614664"><ele>7.3</ele><time>2021-05-20T14:54:58Z</time><name>PT13719</name></trkpt>
<trkpt lat="53.325515" lon="06.614646"><ele>7.3</ele><time>2021-05-20T14:54:59Z</time><name>PT13720</name></trkpt>
<trkpt lat="53.325506" lon="06.614638"><ele>7.3</ele><time>2021-05-20T14:55:00Z</time><name>PT13721</name></trkpt>
<trkpt lat="53.325498" lon="06.614630"><ele>7.3</ele><time>2021-05-20T14:55:01Z</time><name>PT13722</name></trkpt>
<trkpt lat="53.325492" lon="06.614625"><ele>7.4</ele><time>2021-05-20T14:55:02Z</time><name>PT13723</name></trkpt>
<trkpt lat="53.325486" lon="06.614622"><ele>7.3</ele><time>2021-05-20T14:55:03Z</time><name>PT13724</name></trkpt>
<trkpt lat="53.325479" lon="06.614617"><ele>7.4</ele><time>2021-05-20T14:55:04Z</time><name>PT13725</name></trkpt>
<trkpt lat="53.325471" lon="06.614609"><ele>7.8</ele><time>2021-05-20T14:55:05Z</time><name>PT13726</name></trkpt>
<trkpt lat="53.325463" lon="06.614597"><ele>7.7</ele><time>2021-05-20T14:55:06Z</time><name>PT13727</name></trkpt>
<trkpt lat="53.325451" lon="06.614583"><ele>7.6</ele><time>2021-05-20T14:55:07Z</time><name>PT13728</name></trkpt>
<trkpt lat="53.325440" lon="06.614574"><ele>7.6</ele><time>2021-05-20T14:55:08Z</time><name>PT13729</name></trkpt>
<trkpt lat="53.325431" lon="06.614568"><ele>7.5</ele><time>2021-05-20T14:55:09Z</time><name>PT13730</name></trkpt>
<trkpt lat="53.325425" lon="06.614566"><ele>7.3</ele><time>2021-05-20T14:55:10Z</time><name>PT13731</name></trkpt>
<trkpt lat="53.325416" lon="06.614559"><ele>7.3</ele><time>2021-05-20T14:55:11Z</time><name>PT13732</name></trkpt>
<trkpt lat="53.325407" lon="06.614551"><ele>7.4</ele><time>2021-05-20T14:55:12Z</time><name>PT13733</name></trkpt>
<trkpt lat="53.325398" lon="06.614546"><ele>7.3</ele><time>2021-05-20T14:55:13Z</time><name>PT13734</name></trkpt>
<trkpt lat="53.325389" lon="06.614536"><ele>7.2</ele><time>2021-05-20T14:55:14Z</time><name>PT13735</name></trkpt>
<trkpt lat="53.325381" lon="06.614528"><ele>7.2</ele><time>2021-05-20T14:55:15Z</time><name>PT13736</name></trkpt>
<trkpt lat="53.325371" lon="06.614518"><ele>7.1</ele><time>2021-05-20T14:55:16Z</time><name>PT13737</name></trkpt>
<trkpt lat="53.325362" lon="06.614510"><ele>7.1</ele><time>2021-05-20T14:55:17Z</time><name>PT13738</name></trkpt>
<trkpt lat="53.325351" lon="06.614502"><ele>7.3</ele><time>2021-05-20T14:55:18Z</time><name>PT13739</name></trkpt>
<trkpt lat="53.325340" lon="06.614494"><ele>7.3</ele><time>2021-05-20T14:55:19Z</time><name>PT13740</name></trkpt>
<trkpt lat="53.325332" lon="06.614487"><ele>7.1</ele><time>2021-05-20T14:55:20Z</time><name>PT13741</name></trkpt>
<trkpt lat="53.325324" lon="06.614483"><ele>7.2</ele><time>2021-05-20T14:55:21Z</time><name>PT13742</name></trkpt>
<trkpt lat="53.325318" lon="06.614481"><ele>7.1</ele><time>2021-05-20T14:55:22Z</time><name>PT13743</name></trkpt>
<trkpt lat="53.325311" lon="06.614478"><ele>6.9</ele><time>2021-05-20T14:55:23Z</time><name>PT13744</name></trkpt>
<trkpt lat="53.325305" lon="06.614471"><ele>6.9</ele><time>2021-05-20T14:55:24Z</time><name>PT13745</name></trkpt>
<trkpt lat="53.325298" lon="06.614460"><ele>6.6</ele><time>2021-05-20T14:55:25Z</time><name>PT13746</name></trkpt>
<trkpt lat="53.325288" lon="06.614448"><ele>6.5</ele><time>2021-05-20T14:55:26Z</time><name>PT13747</name></trkpt>
<trkpt lat="53.325276" lon="06.614434"><ele>6.6</ele><time>2021-05-20T14:55:27Z</time><name>PT13748</name></trkpt>
<trkpt lat="53.325262" lon="06.614417"><ele>6.9</ele><time>2021-05-20T14:55:28Z</time><name>PT13749</name></trkpt>
<trkpt lat="53.325247" lon="06.614401"><ele>6.9</ele><time>2021-05-20T14:55:29Z</time><name>PT13750</name></trkpt>
<trkpt lat="53.325235" lon="06.614392"><ele>6.9</ele><time>2021-05-20T14:55:30Z</time><name>PT13751</name></trkpt>
<trkpt lat="53.325227" lon="06.614389"><ele>7</ele><time>2021-05-20T14:55:31Z</time><name>PT13752</name></trkpt>
<trkpt lat="53.325220" lon="06.614384"><ele>7.2</ele><time>2021-05-20T14:55:32Z</time><name>PT13753</name></trkpt>
<trkpt lat="53.325212" lon="06.614377"><ele>7.1</ele><time>2021-05-20T14:55:33Z</time><name>PT13754</name></trkpt>
<trkpt lat="53.325202" lon="06.614366"><ele>7.2</ele><time>2021-05-20T14:55:34Z</time><name>PT13755</name></trkpt>
<trkpt lat="53.325191" lon="06.614351"><ele>7.2</ele><time>2021-05-20T14:55:35Z</time><name>PT13756</name></trkpt>
<trkpt lat="53.325181" lon="06.614339"><ele>7</ele><time>2021-05-20T14:55:36Z</time><name>PT13757</name></trkpt>
<trkpt lat="53.325172" lon="06.614330"><ele>7</ele><time>2021-05-20T14:55:37Z</time><name>PT13758</name></trkpt>
<trkpt lat="53.325164" lon="06.614324"><ele>7.2</ele><time>2021-05-20T14:55:38Z</time><name>PT13759</name></trkpt>
<trkpt lat="53.325156" lon="06.614321"><ele>7</ele><time>2021-05-20T14:55:39Z</time><name>PT13760</name></trkpt>
<trkpt lat="53.325146" lon="06.614311"><ele>6.9</ele><time>2021-05-20T14:55:40Z</time><name>PT13761</name></trkpt>
<trkpt lat="53.325137" lon="06.614302"><ele>7</ele><time>2021-05-20T14:55:41Z</time><name>PT13762</name></trkpt>
<trkpt lat="53.325126" lon="06.614291"><ele>6.9</ele><time>2021-05-20T14:55:42Z</time><name>PT13763</name></trkpt>
<trkpt lat="53.325114" lon="06.614280"><ele>6.8</ele><time>2021-05-20T14:55:43Z</time><name>PT13764</name></trkpt>
<trkpt lat="53.325106" lon="06.614274"><ele>6.9</ele><time>2021-05-20T14:55:44Z</time><name>PT13765</name></trkpt>
<trkpt lat="53.325100" lon="06.614270"><ele>6.9</ele><time>2021-05-20T14:55:45Z</time><name>PT13766</name></trkpt>
<trkpt lat="53.325093" lon="06.614265"><ele>6.9</ele><time>2021-05-20T14:55:46Z</time><name>PT13767</name></trkpt>
<trkpt lat="53.325086" lon="06.614259"><ele>7.1</ele><time>2021-05-20T14:55:47Z</time><name>PT13768</name></trkpt>
<trkpt lat="53.325077" lon="06.614248"><ele>7.1</ele><time>2021-05-20T14:55:48Z</time><name>PT13769</name></trkpt>
<trkpt lat="53.325065" lon="06.614238"><ele>7</ele><time>2021-05-20T14:55:49Z</time><name>PT13770</name></trkpt>
<trkpt lat="53.325055" lon="06.614229"><ele>7</ele><time>2021-05-20T14:55:50Z</time><name>PT13771</name></trkpt>
<trkpt lat="53.325046" lon="06.614223"><ele>6.9</ele><time>2021-05-20T14:55:51Z</time><name>PT13772</name></trkpt>
<trkpt lat="53.325037" lon="06.614216"><ele>7</ele><time>2021-05-20T14:55:52Z</time><name>PT13773</name></trkpt>
<trkpt lat="53.325030" lon="06.614211"><ele>7</ele><time>2021-05-20T14:55:53Z</time><name>PT13774</name></trkpt>
<trkpt lat="53.325024" lon="06.614206"><ele>7</ele><time>2021-05-20T14:55:54Z</time><name>PT13775</name></trkpt>
<trkpt lat="53.325015" lon="06.614193"><ele>7</ele><time>2021-05-20T14:55:55Z</time><name>PT13776</name></trkpt>
<trkpt lat="53.325000" lon="06.614173"><ele>6.9</ele><time>2021-05-20T14:55:56Z</time><name>PT13777</name></trkpt>
<trkpt lat="53.324991" lon="06.614157"><ele>6.7</ele><time>2021-05-20T14:55:57Z</time><name>PT13778</name></trkpt>
<trkpt lat="53.324981" lon="06.614145"><ele>6.9</ele><time>2021-05-20T14:55:58Z</time><name>PT13779</name></trkpt>
<trkpt lat="53.324974" lon="06.614138"><ele>6.9</ele><time>2021-05-20T14:55:59Z</time><name>PT13780</name></trkpt>
<trkpt lat="53.324963" lon="06.614133"><ele>7</ele><time>2021-05-20T14:56:00Z</time><name>PT13781</name></trkpt>
<trkpt lat="53.324955" lon="06.614130"><ele>7.2</ele><time>2021-05-20T14:56:01Z</time><name>PT13782</name></trkpt>
<trkpt lat="53.324949" lon="06.614126"><ele>7.3</ele><time>2021-05-20T14:56:02Z</time><name>PT13783</name></trkpt>
<trkpt lat="53.324943" lon="06.614121"><ele>7.3</ele><time>2021-05-20T14:56:03Z</time><name>PT13784</name></trkpt>
<trkpt lat="53.324935" lon="06.614111"><ele>7.5</ele><time>2021-05-20T14:56:04Z</time><name>PT13785</name></trkpt>
<trkpt lat="53.324925" lon="06.614098"><ele>7.8</ele><time>2021-05-20T14:56:05Z</time><name>PT13786</name></trkpt>
<trkpt lat="53.324914" lon="06.614088"><ele>7.9</ele><time>2021-05-20T14:56:06Z</time><name>PT13787</name></trkpt>
<trkpt lat="53.324906" lon="06.614079"><ele>8.1</ele><time>2021-05-20T14:56:07Z</time><name>PT13788</name></trkpt>
<trkpt lat="53.324899" lon="06.614075"><ele>8</ele><time>2021-05-20T14:56:08Z</time><name>PT13789</name></trkpt>
<trkpt lat="53.324893" lon="06.614070"><ele>8.1</ele><time>2021-05-20T14:56:09Z</time><name>PT13790</name></trkpt>
<trkpt lat="53.324885" lon="06.614062"><ele>8.1</ele><time>2021-05-20T14:56:10Z</time><name>PT13791</name></trkpt>
<trkpt lat="53.324877" lon="06.614050"><ele>8.3</ele><time>2021-05-20T14:56:11Z</time><name>PT13792</name></trkpt>
<trkpt lat="53.324866" lon="06.614039"><ele>8.3</ele><time>2021-05-20T14:56:12Z</time><name>PT13793</name></trkpt>
<trkpt lat="53.324856" lon="06.614032"><ele>8.3</ele><time>2021-05-20T14:56:13Z</time><name>PT13794</name></trkpt>
<trkpt lat="53.324848" lon="06.614026"><ele>8.1</ele><time>2021-05-20T14:56:14Z</time><name>PT13795</name></trkpt>
<trkpt lat="53.324841" lon="06.614023"><ele>7.9</ele><time>2021-05-20T14:56:15Z</time><name>PT13796</name></trkpt>
<trkpt lat="53.324834" lon="06.614018"><ele>7.7</ele><time>2021-05-20T14:56:16Z</time><name>PT13797</name></trkpt>
<trkpt lat="53.324827" lon="06.614010"><ele>7.7</ele><time>2021-05-20T14:56:17Z</time><name>PT13798</name></trkpt>
<trkpt lat="53.324818" lon="06.613999"><ele>7.6</ele><time>2021-05-20T14:56:18Z</time><name>PT13799</name></trkpt>
<trkpt lat="53.324806" lon="06.613985"><ele>7.4</ele><time>2021-05-20T14:56:19Z</time><name>PT13800</name></trkpt>
<trkpt lat="53.324793" lon="06.613972"><ele>7.5</ele><time>2021-05-20T14:56:20Z</time><name>PT13801</name></trkpt>
<trkpt lat="53.324782" lon="06.613961"><ele>7.5</ele><time>2021-05-20T14:56:21Z</time><name>PT13802</name></trkpt>
<trkpt lat="53.324773" lon="06.613954"><ele>7.5</ele><time>2021-05-20T14:56:22Z</time><name>PT13803</name></trkpt>
<trkpt lat="53.324766" lon="06.613950"><ele>7.6</ele><time>2021-05-20T14:56:23Z</time><name>PT13804</name></trkpt>
<trkpt lat="53.324759" lon="06.613944"><ele>7.8</ele><time>2021-05-20T14:56:24Z</time><name>PT13805</name></trkpt>
<trkpt lat="53.324751" lon="06.613935"><ele>7.8</ele><time>2021-05-20T14:56:25Z</time><name>PT13806</name></trkpt>
<trkpt lat="53.324742" lon="06.613922"><ele>7.7</ele><time>2021-05-20T14:56:26Z</time><name>PT13807</name></trkpt>
<trkpt lat="53.324730" lon="06.613911"><ele>7.8</ele><time>2021-05-20T14:56:27Z</time><name>PT13808</name></trkpt>
<trkpt lat="53.324718" lon="06.613900"><ele>7.8</ele><time>2021-05-20T14:56:28Z</time><name>PT13809</name></trkpt>
<trkpt lat="53.324710" lon="06.613892"><ele>7.9</ele><time>2021-05-20T14:56:29Z</time><name>PT13810</name></trkpt>
<trkpt lat="53.324702" lon="06.613886"><ele>7.9</ele><time>2021-05-20T14:56:30Z</time><name>PT13811</name></trkpt>
<trkpt lat="53.324695" lon="06.613883"><ele>7.8</ele><time>2021-05-20T14:56:31Z</time><name>PT13812</name></trkpt>
<trkpt lat="53.324687" lon="06.613874"><ele>7.8</ele><time>2021-05-20T14:56:32Z</time><name>PT13813</name></trkpt>
<trkpt lat="53.324679" lon="06.613864"><ele>7.8</ele><time>2021-05-20T14:56:33Z</time><name>PT13814</name></trkpt>
<trkpt lat="53.324668" lon="06.613852"><ele>7.4</ele><time>2021-05-20T14:56:34Z</time><name>PT13815</name></trkpt>
<trkpt lat="53.324656" lon="06.613842"><ele>7.6</ele><time>2021-05-20T14:56:35Z</time><name>PT13816</name></trkpt>
<trkpt lat="53.324647" lon="06.613835"><ele>7.4</ele><time>2021-05-20T14:56:36Z</time><name>PT13817</name></trkpt>
<trkpt lat="53.324640" lon="06.613830"><ele>7.6</ele><time>2021-05-20T14:56:37Z</time><name>PT13818</name></trkpt>
<trkpt lat="53.324633" lon="06.613824"><ele>7.7</ele><time>2021-05-20T14:56:38Z</time><name>PT13819</name></trkpt>
<trkpt lat="53.324626" lon="06.613817"><ele>8</ele><time>2021-05-20T14:56:39Z</time><name>PT13820</name></trkpt>
<trkpt lat="53.324616" lon="06.613808"><ele>8.1</ele><time>2021-05-20T14:56:40Z</time><name>PT13821</name></trkpt>
<trkpt lat="53.324605" lon="06.613799"><ele>8.2</ele><time>2021-05-20T14:56:41Z</time><name>PT13822</name></trkpt>
<trkpt lat="53.324597" lon="06.613792"><ele>8.1</ele><time>2021-05-20T14:56:42Z</time><name>PT13823</name></trkpt>
<trkpt lat="53.324588" lon="06.613787"><ele>8</ele><time>2021-05-20T14:56:43Z</time><name>PT13824</name></trkpt>
<trkpt lat="53.324581" lon="06.613782"><ele>8.1</ele><time>2021-05-20T14:56:44Z</time><name>PT13825</name></trkpt>
<trkpt lat="53.324574" lon="06.613774"><ele>8.3</ele><time>2021-05-20T14:56:45Z</time><name>PT13826</name></trkpt>
<trkpt lat="53.324566" lon="06.613763"><ele>8.2</ele><time>2021-05-20T14:56:46Z</time><name>PT13827</name></trkpt>
<trkpt lat="53.324556" lon="06.613753"><ele>8.2</ele><time>2021-05-20T14:56:47Z</time><name>PT13828</name></trkpt>
<trkpt lat="53.324543" lon="06.613743"><ele>8</ele><time>2021-05-20T14:56:48Z</time><name>PT13829</name></trkpt>
<trkpt lat="53.324534" lon="06.613738"><ele>8</ele><time>2021-05-20T14:56:49Z</time><name>PT13830</name></trkpt>
<trkpt lat="53.324528" lon="06.613732"><ele>8.1</ele><time>2021-05-20T14:56:50Z</time><name>PT13831</name></trkpt>
<trkpt lat="53.324522" lon="06.613727"><ele>8.2</ele><time>2021-05-20T14:56:51Z</time><name>PT13832</name></trkpt>
<trkpt lat="53.324513" lon="06.613718"><ele>8.1</ele><time>2021-05-20T14:56:52Z</time><name>PT13833</name></trkpt>
<trkpt lat="53.324502" lon="06.613709"><ele>8.1</ele><time>2021-05-20T14:56:53Z</time><name>PT13834</name></trkpt>
<trkpt lat="53.324493" lon="06.613702"><ele>8.1</ele><time>2021-05-20T14:56:54Z</time><name>PT13835</name></trkpt>
<trkpt lat="53.324486" lon="06.613697"><ele>8</ele><time>2021-05-20T14:56:55Z</time><name>PT13836</name></trkpt>
<trkpt lat="53.324481" lon="06.613693"><ele>8</ele><time>2021-05-20T14:56:56Z</time><name>PT13837</name></trkpt>
<trkpt lat="53.324472" lon="06.613685"><ele>8</ele><time>2021-05-20T14:56:57Z</time><name>PT13838</name></trkpt>
<trkpt lat="53.324462" lon="06.613675"><ele>8</ele><time>2021-05-20T14:56:58Z</time><name>PT13839</name></trkpt>
<trkpt lat="53.324450" lon="06.613661"><ele>8</ele><time>2021-05-20T14:56:59Z</time><name>PT13840</name></trkpt>
<trkpt lat="53.324440" lon="06.613655"><ele>7.8</ele><time>2021-05-20T14:57:00Z</time><name>PT13841</name></trkpt>
<trkpt lat="53.324433" lon="06.613652"><ele>7.8</ele><time>2021-05-20T14:57:01Z</time><name>PT13842</name></trkpt>
<trkpt lat="53.324426" lon="06.613651"><ele>7.7</ele><time>2021-05-20T14:57:02Z</time><name>PT13843</name></trkpt>
<trkpt lat="53.324420" lon="06.613647"><ele>7.7</ele><time>2021-05-20T14:57:03Z</time><name>PT13844</name></trkpt>
<trkpt lat="53.324412" lon="06.613640"><ele>7.8</ele><time>2021-05-20T14:57:04Z</time><name>PT13845</name></trkpt>
<trkpt lat="53.324401" lon="06.613634"><ele>7.9</ele><time>2021-05-20T14:57:05Z</time><name>PT13846</name></trkpt>
<trkpt lat="53.324392" lon="06.613630"><ele>8.1</ele><time>2021-05-20T14:57:06Z</time><name>PT13847</name></trkpt>
<trkpt lat="53.324385" lon="06.613628"><ele>8.2</ele><time>2021-05-20T14:57:07Z</time><name>PT13848</name></trkpt>
<trkpt lat="53.324377" lon="06.613625"><ele>8.2</ele><time>2021-05-20T14:57:08Z</time><name>PT13849</name></trkpt>
<trkpt lat="53.324369" lon="06.613619"><ele>8.3</ele><time>2021-05-20T14:57:09Z</time><name>PT13850</name></trkpt>
<trkpt lat="53.324358" lon="06.613613"><ele>8.4</ele><time>2021-05-20T14:57:10Z</time><name>PT13851</name></trkpt>
<trkpt lat="53.324349" lon="06.613608"><ele>8.4</ele><time>2021-05-20T14:57:11Z</time><name>PT13852</name></trkpt>
<trkpt lat="53.324342" lon="06.613605"><ele>8.6</ele><time>2021-05-20T14:57:12Z</time><name>PT13853</name></trkpt>
<trkpt lat="53.324335" lon="06.613603"><ele>8.6</ele><time>2021-05-20T14:57:13Z</time><name>PT13854</name></trkpt>
<trkpt lat="53.324327" lon="06.613599"><ele>8.6</ele><time>2021-05-20T14:57:14Z</time><name>PT13855</name></trkpt>
<trkpt lat="53.324319" lon="06.613592"><ele>8.6</ele><time>2021-05-20T14:57:15Z</time><name>PT13856</name></trkpt>
<trkpt lat="53.324309" lon="06.613588"><ele>8.4</ele><time>2021-05-20T14:57:16Z</time><name>PT13857</name></trkpt>
<trkpt lat="53.324301" lon="06.613587"><ele>8.3</ele><time>2021-05-20T14:57:17Z</time><name>PT13858</name></trkpt>
<trkpt lat="53.324294" lon="06.613585"><ele>8.3</ele><time>2021-05-20T14:57:18Z</time><name>PT13859</name></trkpt>
<trkpt lat="53.324287" lon="06.613580"><ele>8.3</ele><time>2021-05-20T14:57:19Z</time><name>PT13860</name></trkpt>
<trkpt lat="53.324278" lon="06.613572"><ele>8.1</ele><time>2021-05-20T14:57:20Z</time><name>PT13861</name></trkpt>
<trkpt lat="53.324265" lon="06.613565"><ele>8.2</ele><time>2021-05-20T14:57:21Z</time><name>PT13862</name></trkpt>
<trkpt lat="53.324253" lon="06.613560"><ele>8.1</ele><time>2021-05-20T14:57:22Z</time><name>PT13863</name></trkpt>
<trkpt lat="53.324244" lon="06.613557"><ele>8.3</ele><time>2021-05-20T14:57:23Z</time><name>PT13864</name></trkpt>
<trkpt lat="53.324237" lon="06.613555"><ele>8.3</ele><time>2021-05-20T14:57:24Z</time><name>PT13865</name></trkpt>
<trkpt lat="53.324229" lon="06.613550"><ele>8.3</ele><time>2021-05-20T14:57:25Z</time><name>PT13866</name></trkpt>
<trkpt lat="53.324219" lon="06.613543"><ele>8.2</ele><time>2021-05-20T14:57:26Z</time><name>PT13867</name></trkpt>
<trkpt lat="53.324207" lon="06.613535"><ele>8.1</ele><time>2021-05-20T14:57:27Z</time><name>PT13868</name></trkpt>
<trkpt lat="53.324195" lon="06.613527"><ele>7.9</ele><time>2021-05-20T14:57:28Z</time><name>PT13869</name></trkpt>
<trkpt lat="53.324185" lon="06.613522"><ele>8.1</ele><time>2021-05-20T14:57:29Z</time><name>PT13870</name></trkpt>
<trkpt lat="53.324177" lon="06.613521"><ele>8.3</ele><time>2021-05-20T14:57:30Z</time><name>PT13871</name></trkpt>
<trkpt lat="53.324170" lon="06.613519"><ele>8.3</ele><time>2021-05-20T14:57:31Z</time><name>PT13872</name></trkpt>
<trkpt lat="53.324162" lon="06.613515"><ele>8.3</ele><time>2021-05-20T14:57:32Z</time><name>PT13873</name></trkpt>
<trkpt lat="53.324153" lon="06.613509"><ele>8.5</ele><time>2021-05-20T14:57:33Z</time><name>PT13874</name></trkpt>
<trkpt lat="53.324142" lon="06.613503"><ele>8.3</ele><time>2021-05-20T14:57:34Z</time><name>PT13875</name></trkpt>
<trkpt lat="53.324131" lon="06.613499"><ele>8.3</ele><time>2021-05-20T14:57:35Z</time><name>PT13876</name></trkpt>
<trkpt lat="53.324122" lon="06.613495"><ele>8.4</ele><time>2021-05-20T14:57:36Z</time><name>PT13877</name></trkpt>
<trkpt lat="53.324115" lon="06.613493"><ele>8.6</ele><time>2021-05-20T14:57:37Z</time><name>PT13878</name></trkpt>
<trkpt lat="53.324108" lon="06.613489"><ele>8.8</ele><time>2021-05-20T14:57:38Z</time><name>PT13879</name></trkpt>
<trkpt lat="53.324101" lon="06.613485"><ele>8.8</ele><time>2021-05-20T14:57:39Z</time><name>PT13880</name></trkpt>
<trkpt lat="53.324089" lon="06.613477"><ele>8.7</ele><time>2021-05-20T14:57:40Z</time><name>PT13881</name></trkpt>
<trkpt lat="53.324075" lon="06.613471"><ele>8.6</ele><time>2021-05-20T14:57:41Z</time><name>PT13882</name></trkpt>
<trkpt lat="53.324065" lon="06.613467"><ele>8.6</ele><time>2021-05-20T14:57:42Z</time><name>PT13883</name></trkpt>
<trkpt lat="53.324057" lon="06.613465"><ele>8.4</ele><time>2021-05-20T14:57:43Z</time><name>PT13884</name></trkpt>
<trkpt lat="53.324051" lon="06.613463"><ele>8.3</ele><time>2021-05-20T14:57:44Z</time><name>PT13885</name></trkpt>
<trkpt lat="53.324044" lon="06.613458"><ele>8.3</ele><time>2021-05-20T14:57:45Z</time><name>PT13886</name></trkpt>
<trkpt lat="53.324035" lon="06.613450"><ele>8.3</ele><time>2021-05-20T14:57:46Z</time><name>PT13887</name></trkpt>
<trkpt lat="53.324023" lon="06.613443"><ele>8.3</ele><time>2021-05-20T14:57:47Z</time><name>PT13888</name></trkpt>
<trkpt lat="53.324010" lon="06.613435"><ele>8.3</ele><time>2021-05-20T14:57:48Z</time><name>PT13889</name></trkpt>
<trkpt lat="53.323999" lon="06.613431"><ele>8.3</ele><time>2021-05-20T14:57:49Z</time><name>PT13890</name></trkpt>
<trkpt lat="53.323992" lon="06.613431"><ele>8.3</ele><time>2021-05-20T14:57:50Z</time><name>PT13891</name></trkpt>
<trkpt lat="53.323984" lon="06.613429"><ele>8.3</ele><time>2021-05-20T14:57:51Z</time><name>PT13892</name></trkpt>
<trkpt lat="53.323977" lon="06.613425"><ele>8.3</ele><time>2021-05-20T14:57:52Z</time><name>PT13893</name></trkpt>
<trkpt lat="53.323966" lon="06.613421"><ele>8.2</ele><time>2021-05-20T14:57:53Z</time><name>PT13894</name></trkpt>
<trkpt lat="53.323955" lon="06.613417"><ele>8.3</ele><time>2021-05-20T14:57:54Z</time><name>PT13895</name></trkpt>
<trkpt lat="53.323945" lon="06.613415"><ele>8.2</ele><time>2021-05-20T14:57:55Z</time><name>PT13896</name></trkpt>
<trkpt lat="53.323937" lon="06.613411"><ele>8.3</ele><time>2021-05-20T14:57:56Z</time><name>PT13897</name></trkpt>
<trkpt lat="53.323931" lon="06.613406"><ele>8.2</ele><time>2021-05-20T14:57:57Z</time><name>PT13898</name></trkpt>
<trkpt lat="53.323923" lon="06.613399"><ele>8.3</ele><time>2021-05-20T14:57:58Z</time><name>PT13899</name></trkpt>
<trkpt lat="53.323913" lon="06.613390"><ele>8.4</ele><time>2021-05-20T14:57:59Z</time><name>PT13900</name></trkpt>
<trkpt lat="53.323903" lon="06.613383"><ele>8.4</ele><time>2021-05-20T14:58:00Z</time><name>PT13901</name></trkpt>
<trkpt lat="53.323890" lon="06.613375"><ele>8.4</ele><time>2021-05-20T14:58:01Z</time><name>PT13902</name></trkpt>
<trkpt lat="53.323880" lon="06.613369"><ele>8.5</ele><time>2021-05-20T14:58:02Z</time><name>PT13903</name></trkpt>
<trkpt lat="53.323873" lon="06.613367"><ele>8.4</ele><time>2021-05-20T14:58:03Z</time><name>PT13904</name></trkpt>
<trkpt lat="53.323867" lon="06.613365"><ele>8.4</ele><time>2021-05-20T14:58:04Z</time><name>PT13905</name></trkpt>
<trkpt lat="53.323860" lon="06.613361"><ele>8.5</ele><time>2021-05-20T14:58:05Z</time><name>PT13906</name></trkpt>
<trkpt lat="53.323850" lon="06.613353"><ele>8.3</ele><time>2021-05-20T14:58:06Z</time><name>PT13907</name></trkpt>
<trkpt lat="53.323838" lon="06.613344"><ele>8.4</ele><time>2021-05-20T14:58:07Z</time><name>PT13908</name></trkpt>
<trkpt lat="53.323826" lon="06.613337"><ele>8.4</ele><time>2021-05-20T14:58:08Z</time><name>PT13909</name></trkpt>
<trkpt lat="53.323818" lon="06.613335"><ele>8.3</ele><time>2021-05-20T14:58:09Z</time><name>PT13910</name></trkpt>
<trkpt lat="53.323811" lon="06.613335"><ele>8.3</ele><time>2021-05-20T14:58:10Z</time><name>PT13911</name></trkpt>
<trkpt lat="53.323804" lon="06.613331"><ele>8.5</ele><time>2021-05-20T14:58:11Z</time><name>PT13912</name></trkpt>
<trkpt lat="53.323796" lon="06.613326"><ele>8.5</ele><time>2021-05-20T14:58:12Z</time><name>PT13913</name></trkpt>
<trkpt lat="53.323787" lon="06.613317"><ele>8.5</ele><time>2021-05-20T14:58:13Z</time><name>PT13914</name></trkpt>
<trkpt lat="53.323775" lon="06.613308"><ele>8.8</ele><time>2021-05-20T14:58:14Z</time><name>PT13915</name></trkpt>
<trkpt lat="53.323764" lon="06.613301"><ele>8.8</ele><time>2021-05-20T14:58:15Z</time><name>PT13916</name></trkpt>
<trkpt lat="53.323755" lon="06.613299"><ele>8.7</ele><time>2021-05-20T14:58:16Z</time><name>PT13917</name></trkpt>
<trkpt lat="53.323750" lon="06.613297"><ele>8.6</ele><time>2021-05-20T14:58:17Z</time><name>PT13918</name></trkpt>
<trkpt lat="53.323742" lon="06.613294"><ele>8.4</ele><time>2021-05-20T14:58:18Z</time><name>PT13919</name></trkpt>
<trkpt lat="53.323734" lon="06.613289"><ele>8.4</ele><time>2021-05-20T14:58:19Z</time><name>PT13920</name></trkpt>
<trkpt lat="53.323726" lon="06.613279"><ele>8.3</ele><time>2021-05-20T14:58:20Z</time><name>PT13921</name></trkpt>
<trkpt lat="53.323715" lon="06.613269"><ele>8.2</ele><time>2021-05-20T14:58:21Z</time><name>PT13922</name></trkpt>
<trkpt lat="53.323704" lon="06.613260"><ele>8.3</ele><time>2021-05-20T14:58:22Z</time><name>PT13923</name></trkpt>
<trkpt lat="53.323695" lon="06.613257"><ele>8.2</ele><time>2021-05-20T14:58:23Z</time><name>PT13924</name></trkpt>
<trkpt lat="53.323687" lon="06.613255"><ele>8.3</ele><time>2021-05-20T14:58:24Z</time><name>PT13925</name></trkpt>
<trkpt lat="53.323680" lon="06.613252"><ele>8.3</ele><time>2021-05-20T14:58:25Z</time><name>PT13926</name></trkpt>
<trkpt lat="53.323672" lon="06.613248"><ele>8.2</ele><time>2021-05-20T14:58:26Z</time><name>PT13927</name></trkpt>
<trkpt lat="53.323660" lon="06.613239"><ele>8</ele><time>2021-05-20T14:58:27Z</time><name>PT13928</name></trkpt>
<trkpt lat="53.323647" lon="06.613232"><ele>8.2</ele><time>2021-05-20T14:58:28Z</time><name>PT13929</name></trkpt>
<trkpt lat="53.323638" lon="06.613228"><ele>8.1</ele><time>2021-05-20T14:58:29Z</time><name>PT13930</name></trkpt>
<trkpt lat="53.323631" lon="06.613227"><ele>8.1</ele><time>2021-05-20T14:58:30Z</time><name>PT13931</name></trkpt>
<trkpt lat="53.323625" lon="06.613223"><ele>8.3</ele><time>2021-05-20T14:58:31Z</time><name>PT13932</name></trkpt>
<trkpt lat="53.323617" lon="06.613216"><ele>8.3</ele><time>2021-05-20T14:58:32Z</time><name>PT13933</name></trkpt>
<trkpt lat="53.323606" lon="06.613209"><ele>8.3</ele><time>2021-05-20T14:58:33Z</time><name>PT13934</name></trkpt>
<trkpt lat="53.323598" lon="06.613204"><ele>8.3</ele><time>2021-05-20T14:58:34Z</time><name>PT13935</name></trkpt>
<trkpt lat="53.323592" lon="06.613200"><ele>8.2</ele><time>2021-05-20T14:58:35Z</time><name>PT13936</name></trkpt>
<trkpt lat="53.323586" lon="06.613196"><ele>8.3</ele><time>2021-05-20T14:58:36Z</time><name>PT13937</name></trkpt>
<trkpt lat="53.323577" lon="06.613190"><ele>8.1</ele><time>2021-05-20T14:58:37Z</time><name>PT13938</name></trkpt>
<trkpt lat="53.323569" lon="06.613186"><ele>8.1</ele><time>2021-05-20T14:58:38Z</time><name>PT13939</name></trkpt>
<trkpt lat="53.323570" lon="06.613184"><ele>8.3</ele><time>2021-05-20T14:58:39Z</time><name>PT13940</name></trkpt>
<trkpt lat="53.323574" lon="06.613183"><ele>8.2</ele><time>2021-05-20T14:58:40Z</time><name>PT13941</name></trkpt>
<trkpt lat="53.323574" lon="06.613183"><ele>8.1</ele><time>2021-05-20T14:58:41Z</time><name>PT13942</name></trkpt>
<trkpt lat="53.323574" lon="06.613183"><ele>8.2</ele><time>2021-05-20T14:58:42Z</time><name>PT13943</name></trkpt>
<trkpt lat="53.323569" lon="06.613182"><ele>8</ele><time>2021-05-20T14:58:47Z</time><name>PT13944</name></trkpt>
<trkpt lat="53.323559" lon="06.613176"><ele>8.1</ele><time>2021-05-20T14:58:48Z</time><name>PT13945</name></trkpt>
<trkpt lat="53.323549" lon="06.613168"><ele>8.2</ele><time>2021-05-20T14:58:49Z</time><name>PT13946</name></trkpt>
<trkpt lat="53.323539" lon="06.613162"><ele>8.3</ele><time>2021-05-20T14:58:50Z</time><name>PT13947</name></trkpt>
<trkpt lat="53.323530" lon="06.613156"><ele>8.3</ele><time>2021-05-20T14:58:51Z</time><name>PT13948</name></trkpt>
<trkpt lat="53.323520" lon="06.613151"><ele>8.4</ele><time>2021-05-20T14:58:52Z</time><name>PT13949</name></trkpt>
<trkpt lat="53.323512" lon="06.613147"><ele>8.5</ele><time>2021-05-20T14:58:53Z</time><name>PT13950</name></trkpt>
<trkpt lat="53.323503" lon="06.613143"><ele>8.3</ele><time>2021-05-20T14:58:54Z</time><name>PT13951</name></trkpt>
<trkpt lat="53.323496" lon="06.613137"><ele>8.3</ele><time>2021-05-20T14:58:55Z</time><name>PT13952</name></trkpt>
<trkpt lat="53.323488" lon="06.613132"><ele>8.3</ele><time>2021-05-20T14:58:56Z</time><name>PT13953</name></trkpt>
<trkpt lat="53.323481" lon="06.613129"><ele>8.4</ele><time>2021-05-20T14:58:57Z</time><name>PT13954</name></trkpt>
<trkpt lat="53.323473" lon="06.613125"><ele>8.7</ele><time>2021-05-20T14:58:58Z</time><name>PT13955</name></trkpt>
<trkpt lat="53.323466" lon="06.613122"><ele>8.5</ele><time>2021-05-20T14:58:59Z</time><name>PT13956</name></trkpt>
<trkpt lat="53.323459" lon="06.613120"><ele>8.5</ele><time>2021-05-20T14:59:00Z</time><name>PT13957</name></trkpt>
<trkpt lat="53.323454" lon="06.613120"><ele>8.3</ele><time>2021-05-20T14:59:01Z</time><name>PT13958</name></trkpt>
<trkpt lat="53.323451" lon="06.613117"><ele>8.3</ele><time>2021-05-20T14:59:02Z</time><name>PT13959</name></trkpt>
<trkpt lat="53.323449" lon="06.613117"><ele>8</ele><time>2021-05-20T14:59:03Z</time><name>PT13960</name></trkpt>
<trkpt lat="53.323448" lon="06.613117"><ele>7.9</ele><time>2021-05-20T14:59:04Z</time><name>PT13961</name></trkpt>
<trkpt lat="53.323449" lon="06.613117"><ele>8</ele><time>2021-05-20T14:59:05Z</time><name>PT13962</name></trkpt>
<trkpt lat="53.323450" lon="06.613119"><ele>8.1</ele><time>2021-05-20T14:59:06Z</time><name>PT13963</name></trkpt>
<trkpt lat="53.323451" lon="06.613115"><ele>8.4</ele><time>2021-05-20T14:59:24Z</time><name>PT13964</name></trkpt>
<trkpt lat="53.323450" lon="06.613116"><ele>8.5</ele><time>2021-05-20T14:59:25Z</time><name>PT13965</name></trkpt>
<trkpt lat="53.323451" lon="06.613114"><ele>8.3</ele><time>2021-05-20T14:59:26Z</time><name>PT13966</name></trkpt>
<trkpt lat="53.323444" lon="06.613113"><ele>8.3</ele><time>2021-05-20T14:59:36Z</time><name>PT13967</name></trkpt>
<trkpt lat="53.323435" lon="06.613109"><ele>8.3</ele><time>2021-05-20T14:59:37Z</time><name>PT13968</name></trkpt>
<trkpt lat="53.323427" lon="06.613105"><ele>8.3</ele><time>2021-05-20T14:59:38Z</time><name>PT13969</name></trkpt>
<trkpt lat="53.323420" lon="06.613101"><ele>8.3</ele><time>2021-05-20T14:59:39Z</time><name>PT13970</name></trkpt>
<trkpt lat="53.323413" lon="06.613096"><ele>8.3</ele><time>2021-05-20T14:59:40Z</time><name>PT13971</name></trkpt>
<trkpt lat="53.323405" lon="06.613091"><ele>8.3</ele><time>2021-05-20T14:59:41Z</time><name>PT13972</name></trkpt>
<trkpt lat="53.323398" lon="06.613086"><ele>8.3</ele><time>2021-05-20T14:59:42Z</time><name>PT13973</name></trkpt>
<trkpt lat="53.323393" lon="06.613083"><ele>8.4</ele><time>2021-05-20T14:59:43Z</time><name>PT13974</name></trkpt>
<trkpt lat="53.323392" lon="06.613081"><ele>8.3</ele><time>2021-05-20T14:59:44Z</time><name>PT13975</name></trkpt>
<trkpt lat="53.323390" lon="06.613079"><ele>8.4</ele><time>2021-05-20T14:59:45Z</time><name>PT13976</name></trkpt>
<trkpt lat="53.323387" lon="06.613075"><ele>8.3</ele><time>2021-05-20T14:59:46Z</time><name>PT13977</name></trkpt>
<trkpt lat="53.323387" lon="06.613070"><ele>7.6</ele><time>2021-05-20T15:00:48Z</time><name>PT13978</name></trkpt>
<trkpt lat="53.323377" lon="06.613062"><ele>7.7</ele><time>2021-05-20T15:00:49Z</time><name>PT13979</name></trkpt>
<trkpt lat="53.323366" lon="06.613057"><ele>8</ele><time>2021-05-20T15:00:50Z</time><name>PT13980</name></trkpt>
<trkpt lat="53.323358" lon="06.613052"><ele>8</ele><time>2021-05-20T15:00:51Z</time><name>PT13981</name></trkpt>
<trkpt lat="53.323349" lon="06.613047"><ele>7.9</ele><time>2021-05-20T15:00:52Z</time><name>PT13982</name></trkpt>
<trkpt lat="53.323341" lon="06.613038"><ele>7.9</ele><time>2021-05-20T15:00:53Z</time><name>PT13983</name></trkpt>
<trkpt lat="53.323333" lon="06.613032"><ele>7.8</ele><time>2021-05-20T15:00:54Z</time><name>PT13984</name></trkpt>
<trkpt lat="53.323325" lon="06.613029"><ele>7.8</ele><time>2021-05-20T15:00:55Z</time><name>PT13985</name></trkpt>
<trkpt lat="53.323316" lon="06.613024"><ele>7.8</ele><time>2021-05-20T15:00:56Z</time><name>PT13986</name></trkpt>
<trkpt lat="53.323307" lon="06.613018"><ele>8</ele><time>2021-05-20T15:00:57Z</time><name>PT13987</name></trkpt>
<trkpt lat="53.323299" lon="06.613015"><ele>8.1</ele><time>2021-05-20T15:00:58Z</time><name>PT13988</name></trkpt>
<trkpt lat="53.323291" lon="06.613017"><ele>8.2</ele><time>2021-05-20T15:00:59Z</time><name>PT13989</name></trkpt>
<trkpt lat="53.323285" lon="06.613017"><ele>8.1</ele><time>2021-05-20T15:01:00Z</time><name>PT13990</name></trkpt>
<trkpt lat="53.323282" lon="06.613016"><ele>8</ele><time>2021-05-20T15:01:01Z</time><name>PT13991</name></trkpt>
<trkpt lat="53.323282" lon="06.613015"><ele>8</ele><time>2021-05-20T15:01:02Z</time><name>PT13992</name></trkpt>
<trkpt lat="53.323282" lon="06.613015"><ele>7.9</ele><time>2021-05-20T15:01:03Z</time><name>PT13993</name></trkpt>
<trkpt lat="53.323274" lon="06.613011"><ele>7.8</ele><time>2021-05-20T15:01:20Z</time><name>PT13994</name></trkpt>
<trkpt lat="53.323258" lon="06.613010"><ele>7.7</ele><time>2021-05-20T15:01:21Z</time><name>PT13995</name></trkpt>
<trkpt lat="53.323246" lon="06.613009"><ele>7.5</ele><time>2021-05-20T15:01:22Z</time><name>PT13996</name></trkpt>
<trkpt lat="53.323235" lon="06.613011"><ele>7.4</ele><time>2021-05-20T15:01:23Z</time><name>PT13997</name></trkpt>
<trkpt lat="53.323225" lon="06.613017"><ele>7.7</ele><time>2021-05-20T15:01:24Z</time><name>PT13998</name></trkpt>
<trkpt lat="53.323216" lon="06.613023"><ele>7.6</ele><time>2021-05-20T15:01:25Z</time><name>PT13999</name></trkpt>
<trkpt lat="53.323207" lon="06.613028"><ele>7.8</ele><time>2021-05-20T15:01:26Z</time><name>PT14000</name></trkpt>
<trkpt lat="53.323198" lon="06.613031"><ele>7.9</ele><time>2021-05-20T15:01:27Z</time><name>PT14001</name></trkpt>
<trkpt lat="53.323186" lon="06.613038"><ele>7.8</ele><time>2021-05-20T15:01:28Z</time><name>PT14002</name></trkpt>
<trkpt lat="53.323176" lon="06.613046"><ele>7.6</ele><time>2021-05-20T15:01:29Z</time><name>PT14003</name></trkpt>
<trkpt lat="53.323168" lon="06.613053"><ele>7.6</ele><time>2021-05-20T15:01:30Z</time><name>PT14004</name></trkpt>
<trkpt lat="53.323159" lon="06.613063"><ele>7.6</ele><time>2021-05-20T15:01:31Z</time><name>PT14005</name></trkpt>
<trkpt lat="53.323151" lon="06.613072"><ele>7.8</ele><time>2021-05-20T15:01:32Z</time><name>PT14006</name></trkpt>
<trkpt lat="53.323142" lon="06.613079"><ele>7.8</ele><time>2021-05-20T15:01:33Z</time><name>PT14007</name></trkpt>
<trkpt lat="53.323133" lon="06.613084"><ele>7.8</ele><time>2021-05-20T15:01:34Z</time><name>PT14008</name></trkpt>
<trkpt lat="53.323124" lon="06.613089"><ele>7.8</ele><time>2021-05-20T15:01:35Z</time><name>PT14009</name></trkpt>
<trkpt lat="53.323115" lon="06.613096"><ele>7.8</ele><time>2021-05-20T15:01:36Z</time><name>PT14010</name></trkpt>
<trkpt lat="53.323108" lon="06.613102"><ele>7.7</ele><time>2021-05-20T15:01:37Z</time><name>PT14011</name></trkpt>
<trkpt lat="53.323101" lon="06.613108"><ele>7.6</ele><time>2021-05-20T15:01:38Z</time><name>PT14012</name></trkpt>
<trkpt lat="53.323093" lon="06.613112"><ele>7.5</ele><time>2021-05-20T15:01:39Z</time><name>PT14013</name></trkpt>
<trkpt lat="53.323085" lon="06.613118"><ele>7.4</ele><time>2021-05-20T15:01:40Z</time><name>PT14014</name></trkpt>
<trkpt lat="53.323077" lon="06.613127"><ele>7.4</ele><time>2021-05-20T15:01:41Z</time><name>PT14015</name></trkpt>
<trkpt lat="53.323070" lon="06.613134"><ele>7.4</ele><time>2021-05-20T15:01:42Z</time><name>PT14016</name></trkpt>
<trkpt lat="53.323063" lon="06.613140"><ele>7.3</ele><time>2021-05-20T15:01:43Z</time><name>PT14017</name></trkpt>
<trkpt lat="53.323054" lon="06.613146"><ele>7.4</ele><time>2021-05-20T15:01:44Z</time><name>PT14018</name></trkpt>
<trkpt lat="53.323045" lon="06.613153"><ele>7.3</ele><time>2021-05-20T15:01:45Z</time><name>PT14019</name></trkpt>
<trkpt lat="53.323035" lon="06.613161"><ele>7.2</ele><time>2021-05-20T15:01:46Z</time><name>PT14020</name></trkpt>
<trkpt lat="53.323026" lon="06.613169"><ele>7.1</ele><time>2021-05-20T15:01:47Z</time><name>PT14021</name></trkpt>
<trkpt lat="53.323018" lon="06.613174"><ele>7</ele><time>2021-05-20T15:01:48Z</time><name>PT14022</name></trkpt>
<trkpt lat="53.323011" lon="06.613181"><ele>7</ele><time>2021-05-20T15:01:49Z</time><name>PT14023</name></trkpt>
<trkpt lat="53.323001" lon="06.613188"><ele>7.1</ele><time>2021-05-20T15:01:50Z</time><name>PT14024</name></trkpt>
<trkpt lat="53.322989" lon="06.613194"><ele>7.1</ele><time>2021-05-20T15:01:51Z</time><name>PT14025</name></trkpt>
<trkpt lat="53.322981" lon="06.613202"><ele>7</ele><time>2021-05-20T15:01:52Z</time><name>PT14026</name></trkpt>
<trkpt lat="53.322973" lon="06.613209"><ele>7</ele><time>2021-05-20T15:01:53Z</time><name>PT14027</name></trkpt>
<trkpt lat="53.322966" lon="06.613215"><ele>6.9</ele><time>2021-05-20T15:01:54Z</time><name>PT14028</name></trkpt>
<trkpt lat="53.322956" lon="06.613222"><ele>6.8</ele><time>2021-05-20T15:01:55Z</time><name>PT14029</name></trkpt>
<trkpt lat="53.322946" lon="06.613228"><ele>6.9</ele><time>2021-05-20T15:01:56Z</time><name>PT14030</name></trkpt>
<trkpt lat="53.322934" lon="06.613235"><ele>7</ele><time>2021-05-20T15:01:57Z</time><name>PT14031</name></trkpt>
<trkpt lat="53.322924" lon="06.613245"><ele>7.1</ele><time>2021-05-20T15:01:58Z</time><name>PT14032</name></trkpt>
<trkpt lat="53.322915" lon="06.613254"><ele>7.2</ele><time>2021-05-20T15:01:59Z</time><name>PT14033</name></trkpt>
<trkpt lat="53.322910" lon="06.613258"><ele>7</ele><time>2021-05-20T15:02:00Z</time><name>PT14034</name></trkpt>
<trkpt lat="53.322910" lon="06.613259"><ele>6.9</ele><time>2021-05-20T15:02:01Z</time><name>PT14035</name></trkpt>
<trkpt lat="53.322910" lon="06.613259"><ele>6.9</ele><time>2021-05-20T15:02:02Z</time><name>PT14036</name></trkpt>
<trkpt lat="53.322910" lon="06.613259"><ele>6.9</ele><time>2021-05-20T15:02:03Z</time><name>PT14037</name></trkpt>
<trkpt lat="53.322906" lon="06.613259"><ele>7.3</ele><time>2021-05-20T15:02:23Z</time><name>PT14038</name></trkpt>
<trkpt lat="53.322897" lon="06.613264"><ele>7.3</ele><time>2021-05-20T15:02:24Z</time><name>PT14039</name></trkpt>
<trkpt lat="53.322889" lon="06.613269"><ele>7.3</ele><time>2021-05-20T15:02:25Z</time><name>PT14040</name></trkpt>
<trkpt lat="53.322881" lon="06.613275"><ele>7.2</ele><time>2021-05-20T15:02:26Z</time><name>PT14041</name></trkpt>
<trkpt lat="53.322872" lon="06.613280"><ele>7.2</ele><time>2021-05-20T15:02:27Z</time><name>PT14042</name></trkpt>
<trkpt lat="53.322863" lon="06.613287"><ele>7.3</ele><time>2021-05-20T15:02:28Z</time><name>PT14043</name></trkpt>
<trkpt lat="53.322853" lon="06.613294"><ele>7.2</ele><time>2021-05-20T15:02:29Z</time><name>PT14044</name></trkpt>
<trkpt lat="53.322843" lon="06.613304"><ele>7.2</ele><time>2021-05-20T15:02:30Z</time><name>PT14045</name></trkpt>
<trkpt lat="53.322834" lon="06.613312"><ele>7.1</ele><time>2021-05-20T15:02:31Z</time><name>PT14046</name></trkpt>
<trkpt lat="53.322825" lon="06.613319"><ele>6.9</ele><time>2021-05-20T15:02:32Z</time><name>PT14047</name></trkpt>
<trkpt lat="53.322816" lon="06.613326"><ele>6.9</ele><time>2021-05-20T15:02:33Z</time><name>PT14048</name></trkpt>
<trkpt lat="53.322806" lon="06.613331"><ele>6.9</ele><time>2021-05-20T15:02:34Z</time><name>PT14049</name></trkpt>
<trkpt lat="53.322798" lon="06.613337"><ele>6.9</ele><time>2021-05-20T15:02:35Z</time><name>PT14050</name></trkpt>
<trkpt lat="53.322789" lon="06.613345"><ele>6.9</ele><time>2021-05-20T15:02:36Z</time><name>PT14051</name></trkpt>
<trkpt lat="53.322783" lon="06.613351"><ele>6.9</ele><time>2021-05-20T15:02:37Z</time><name>PT14052</name></trkpt>
<trkpt lat="53.322776" lon="06.613357"><ele>6.9</ele><time>2021-05-20T15:02:38Z</time><name>PT14053</name></trkpt>
<trkpt lat="53.322769" lon="06.613361"><ele>6.9</ele><time>2021-05-20T15:02:39Z</time><name>PT14054</name></trkpt>
<trkpt lat="53.322762" lon="06.613368"><ele>6.9</ele><time>2021-05-20T15:02:40Z</time><name>PT14055</name></trkpt>
<trkpt lat="53.322757" lon="06.613374"><ele>6.9</ele><time>2021-05-20T15:02:41Z</time><name>PT14056</name></trkpt>
<trkpt lat="53.322750" lon="06.613380"><ele>6.9</ele><time>2021-05-20T15:02:42Z</time><name>PT14057</name></trkpt>
<trkpt lat="53.322743" lon="06.613385"><ele>6.9</ele><time>2021-05-20T15:02:43Z</time><name>PT14058</name></trkpt>
<trkpt lat="53.322738" lon="06.613387"><ele>6.9</ele><time>2021-05-20T15:02:44Z</time><name>PT14059</name></trkpt>
<trkpt lat="53.322736" lon="06.613388"><ele>7</ele><time>2021-05-20T15:02:45Z</time><name>PT14060</name></trkpt>
<trkpt lat="53.322736" lon="06.613390"><ele>6.9</ele><time>2021-05-20T15:02:46Z</time><name>PT14061</name></trkpt>
<trkpt lat="53.322736" lon="06.613390"><ele>7</ele><time>2021-05-20T15:02:47Z</time><name>PT14062</name></trkpt>
<trkpt lat="53.322736" lon="06.613394"><ele>7</ele><time>2021-05-20T15:03:00Z</time><name>PT14063</name></trkpt>
<trkpt lat="53.322729" lon="06.613401"><ele>6.9</ele><time>2021-05-20T15:03:01Z</time><name>PT14064</name></trkpt>
<trkpt lat="53.322722" lon="06.613408"><ele>6.8</ele><time>2021-05-20T15:03:02Z</time><name>PT14065</name></trkpt>
<trkpt lat="53.322715" lon="06.613412"><ele>6.9</ele><time>2021-05-20T15:03:03Z</time><name>PT14066</name></trkpt>
<trkpt lat="53.322708" lon="06.613417"><ele>6.9</ele><time>2021-05-20T15:03:04Z</time><name>PT14067</name></trkpt>
<trkpt lat="53.322701" lon="06.613423"><ele>6.8</ele><time>2021-05-20T15:03:05Z</time><name>PT14068</name></trkpt>
<trkpt lat="53.322694" lon="06.613429"><ele>6.8</ele><time>2021-05-20T15:03:06Z</time><name>PT14069</name></trkpt>
<trkpt lat="53.322687" lon="06.613434"><ele>6.9</ele><time>2021-05-20T15:03:07Z</time><name>PT14070</name></trkpt>
<trkpt lat="53.322682" lon="06.613440"><ele>6.9</ele><time>2021-05-20T15:03:08Z</time><name>PT14071</name></trkpt>
<trkpt lat="53.322681" lon="06.613444"><ele>6.9</ele><time>2021-05-20T15:03:09Z</time><name>PT14072</name></trkpt>
<trkpt lat="53.322684" lon="06.613442"><ele>7</ele><time>2021-05-20T15:03:10Z</time><name>PT14073</name></trkpt>
<trkpt lat="53.322683" lon="06.613443"><ele>7.2</ele><time>2021-05-20T15:03:11Z</time><name>PT14074</name></trkpt>
<trkpt lat="53.322681" lon="06.613447"><ele>7.1</ele><time>2021-05-20T15:03:30Z</time><name>PT14075</name></trkpt>
<trkpt lat="53.322671" lon="06.613453"><ele>7</ele><time>2021-05-20T15:03:31Z</time><name>PT14076</name></trkpt>
<trkpt lat="53.322660" lon="06.613461"><ele>7</ele><time>2021-05-20T15:03:32Z</time><name>PT14077</name></trkpt>
<trkpt lat="53.322650" lon="06.613467"><ele>6.9</ele><time>2021-05-20T15:03:33Z</time><name>PT14078</name></trkpt>
<trkpt lat="53.322637" lon="06.613473"><ele>6.9</ele><time>2021-05-20T15:03:34Z</time><name>PT14079</name></trkpt>
<trkpt lat="53.322626" lon="06.613482"><ele>7</ele><time>2021-05-20T15:03:35Z</time><name>PT14080</name></trkpt>
<trkpt lat="53.322617" lon="06.613490"><ele>6.9</ele><time>2021-05-20T15:03:36Z</time><name>PT14081</name></trkpt>
<trkpt lat="53.322609" lon="06.613501"><ele>6.9</ele><time>2021-05-20T15:03:37Z</time><name>PT14082</name></trkpt>
<trkpt lat="53.322602" lon="06.613507"><ele>6.9</ele><time>2021-05-20T15:03:38Z</time><name>PT14083</name></trkpt>
<trkpt lat="53.322594" lon="06.613512"><ele>6.9</ele><time>2021-05-20T15:03:39Z</time><name>PT14084</name></trkpt>
<trkpt lat="53.322587" lon="06.613515"><ele>7</ele><time>2021-05-20T15:03:40Z</time><name>PT14085</name></trkpt>
<trkpt lat="53.322582" lon="06.613520"><ele>6.9</ele><time>2021-05-20T15:03:41Z</time><name>PT14086</name></trkpt>
<trkpt lat="53.322574" lon="06.613526"><ele>6.7</ele><time>2021-05-20T15:03:42Z</time><name>PT14087</name></trkpt>
<trkpt lat="53.322566" lon="06.613531"><ele>6.9</ele><time>2021-05-20T15:03:43Z</time><name>PT14088</name></trkpt>
<trkpt lat="53.322557" lon="06.613536"><ele>6.7</ele><time>2021-05-20T15:03:44Z</time><name>PT14089</name></trkpt>
<trkpt lat="53.322548" lon="06.613543"><ele>6.7</ele><time>2021-05-20T15:03:45Z</time><name>PT14090</name></trkpt>
<trkpt lat="53.322538" lon="06.613551"><ele>6.8</ele><time>2021-05-20T15:03:46Z</time><name>PT14091</name></trkpt>
<trkpt lat="53.322530" lon="06.613560"><ele>6.9</ele><time>2021-05-20T15:03:47Z</time><name>PT14092</name></trkpt>
<trkpt lat="53.322522" lon="06.613569"><ele>6.7</ele><time>2021-05-20T15:03:48Z</time><name>PT14093</name></trkpt>
<trkpt lat="53.322514" lon="06.613574"><ele>6.7</ele><time>2021-05-20T15:03:49Z</time><name>PT14094</name></trkpt>
<trkpt lat="53.322508" lon="06.613577"><ele>6.9</ele><time>2021-05-20T15:03:50Z</time><name>PT14095</name></trkpt>
<trkpt lat="53.322504" lon="06.613580"><ele>6.9</ele><time>2021-05-20T15:03:51Z</time><name>PT14096</name></trkpt>
<trkpt lat="53.322497" lon="06.613583"><ele>6.9</ele><time>2021-05-20T15:03:52Z</time><name>PT14097</name></trkpt>
<trkpt lat="53.322488" lon="06.613587"><ele>6.9</ele><time>2021-05-20T15:03:53Z</time><name>PT14098</name></trkpt>
<trkpt lat="53.322478" lon="06.613595"><ele>6.9</ele><time>2021-05-20T15:03:54Z</time><name>PT14099</name></trkpt>
<trkpt lat="53.322467" lon="06.613605"><ele>7</ele><time>2021-05-20T15:03:55Z</time><name>PT14100</name></trkpt>
<trkpt lat="53.322458" lon="06.613616"><ele>6.9</ele><time>2021-05-20T15:03:56Z</time><name>PT14101</name></trkpt>
<trkpt lat="53.322450" lon="06.613625"><ele>6.9</ele><time>2021-05-20T15:03:57Z</time><name>PT14102</name></trkpt>
<trkpt lat="53.322442" lon="06.613632"><ele>7.1</ele><time>2021-05-20T15:03:58Z</time><name>PT14103</name></trkpt>
<trkpt lat="53.322433" lon="06.613636"><ele>7.1</ele><time>2021-05-20T15:03:59Z</time><name>PT14104</name></trkpt>
<trkpt lat="53.322424" lon="06.613640"><ele>7.1</ele><time>2021-05-20T15:04:00Z</time><name>PT14105</name></trkpt>
<trkpt lat="53.322416" lon="06.613646"><ele>7.2</ele><time>2021-05-20T15:04:01Z</time><name>PT14106</name></trkpt>
<trkpt lat="53.322408" lon="06.613654"><ele>7</ele><time>2021-05-20T15:04:02Z</time><name>PT14107</name></trkpt>
<trkpt lat="53.322400" lon="06.613661"><ele>6.9</ele><time>2021-05-20T15:04:03Z</time><name>PT14108</name></trkpt>
<trkpt lat="53.322392" lon="06.613667"><ele>7.1</ele><time>2021-05-20T15:04:04Z</time><name>PT14109</name></trkpt>
<trkpt lat="53.322384" lon="06.613671"><ele>7.2</ele><time>2021-05-20T15:04:05Z</time><name>PT14110</name></trkpt>
<trkpt lat="53.322374" lon="06.613676"><ele>7.1</ele><time>2021-05-20T15:04:06Z</time><name>PT14111</name></trkpt>
<trkpt lat="53.322364" lon="06.613686"><ele>7.2</ele><time>2021-05-20T15:04:07Z</time><name>PT14112</name></trkpt>
<trkpt lat="53.322356" lon="06.613696"><ele>7.1</ele><time>2021-05-20T15:04:08Z</time><name>PT14113</name></trkpt>
<trkpt lat="53.322349" lon="06.613706"><ele>7</ele><time>2021-05-20T15:04:09Z</time><name>PT14114</name></trkpt>
<trkpt lat="53.322342" lon="06.613713"><ele>7.2</ele><time>2021-05-20T15:04:10Z</time><name>PT14115</name></trkpt>
<trkpt lat="53.322333" lon="06.613718"><ele>7.1</ele><time>2021-05-20T15:04:11Z</time><name>PT14116</name></trkpt>
<trkpt lat="53.322323" lon="06.613722"><ele>6.9</ele><time>2021-05-20T15:04:12Z</time><name>PT14117</name></trkpt>
<trkpt lat="53.322313" lon="06.613729"><ele>6.9</ele><time>2021-05-20T15:04:13Z</time><name>PT14118</name></trkpt>
<trkpt lat="53.322305" lon="06.613735"><ele>6.9</ele><time>2021-05-20T15:04:14Z</time><name>PT14119</name></trkpt>
<trkpt lat="53.322297" lon="06.613739"><ele>6.9</ele><time>2021-05-20T15:04:15Z</time><name>PT14120</name></trkpt>
<trkpt lat="53.322288" lon="06.613746"><ele>6.9</ele><time>2021-05-20T15:04:16Z</time><name>PT14121</name></trkpt>
<trkpt lat="53.322280" lon="06.613752"><ele>7.2</ele><time>2021-05-20T15:04:17Z</time><name>PT14122</name></trkpt>
<trkpt lat="53.322271" lon="06.613760"><ele>7.3</ele><time>2021-05-20T15:04:18Z</time><name>PT14123</name></trkpt>
<trkpt lat="53.322264" lon="06.613766"><ele>7.3</ele><time>2021-05-20T15:04:19Z</time><name>PT14124</name></trkpt>
<trkpt lat="53.322256" lon="06.613770"><ele>7.4</ele><time>2021-05-20T15:04:20Z</time><name>PT14125</name></trkpt>
<trkpt lat="53.322248" lon="06.613774"><ele>7.4</ele><time>2021-05-20T15:04:21Z</time><name>PT14126</name></trkpt>
<trkpt lat="53.322241" lon="06.613779"><ele>7.2</ele><time>2021-05-20T15:04:22Z</time><name>PT14127</name></trkpt>
<trkpt lat="53.322236" lon="06.613782"><ele>7.1</ele><time>2021-05-20T15:04:23Z</time><name>PT14128</name></trkpt>
<trkpt lat="53.322232" lon="06.613784"><ele>7</ele><time>2021-05-20T15:04:24Z</time><name>PT14129</name></trkpt>
<trkpt lat="53.322228" lon="06.613788"><ele>7.2</ele><time>2021-05-20T15:04:25Z</time><name>PT14130</name></trkpt>
<trkpt lat="53.322225" lon="06.613790"><ele>7.3</ele><time>2021-05-20T15:04:26Z</time><name>PT14131</name></trkpt>
<trkpt lat="53.322221" lon="06.613792"><ele>7.3</ele><time>2021-05-20T15:04:27Z</time><name>PT14132</name></trkpt>
<trkpt lat="53.322219" lon="06.613793"><ele>7.2</ele><time>2021-05-20T15:04:28Z</time><name>PT14133</name></trkpt>
<trkpt lat="53.322221" lon="06.613791"><ele>7.1</ele><time>2021-05-20T15:04:29Z</time><name>PT14134</name></trkpt>
<trkpt lat="53.322221" lon="06.613790"><ele>7.1</ele><time>2021-05-20T15:04:30Z</time><name>PT14135</name></trkpt>
<trkpt lat="53.322220" lon="06.613790"><ele>7</ele><time>2021-05-20T15:04:31Z</time><name>PT14136</name></trkpt>
<trkpt lat="53.322219" lon="06.613791"><ele>7.1</ele><time>2021-05-20T15:04:32Z</time><name>PT14137</name></trkpt>
<trkpt lat="53.322212" lon="06.613785"><ele>6.6</ele><time>2021-05-20T15:04:38Z</time><name>PT14138</name></trkpt>
<trkpt lat="53.322197" lon="06.613780"><ele>6.6</ele><time>2021-05-20T15:04:39Z</time><name>PT14139</name></trkpt>
<trkpt lat="53.322181" lon="06.613774"><ele>6.6</ele><time>2021-05-20T15:04:40Z</time><name>PT14140</name></trkpt>
<trkpt lat="53.322166" lon="06.613768"><ele>6.7</ele><time>2021-05-20T15:04:41Z</time><name>PT14141</name></trkpt>
<trkpt lat="53.322155" lon="06.613760"><ele>6.9</ele><time>2021-05-20T15:04:42Z</time><name>PT14142</name></trkpt>
<trkpt lat="53.322146" lon="06.613753"><ele>6.9</ele><time>2021-05-20T15:04:43Z</time><name>PT14143</name></trkpt>
<trkpt lat="53.322137" lon="06.613744"><ele>7.1</ele><time>2021-05-20T15:04:44Z</time><name>PT14144</name></trkpt>
<trkpt lat="53.322129" lon="06.613732"><ele>7.3</ele><time>2021-05-20T15:04:45Z</time><name>PT14145</name></trkpt>
<trkpt lat="53.322121" lon="06.613719"><ele>7.3</ele><time>2021-05-20T15:04:46Z</time><name>PT14146</name></trkpt>
<trkpt lat="53.322112" lon="06.613706"><ele>7.1</ele><time>2021-05-20T15:04:47Z</time><name>PT14147</name></trkpt>
<trkpt lat="53.322105" lon="06.613694"><ele>7</ele><time>2021-05-20T15:04:48Z</time><name>PT14148</name></trkpt>
<trkpt lat="53.322099" lon="06.613681"><ele>6.9</ele><time>2021-05-20T15:04:49Z</time><name>PT14149</name></trkpt>
<trkpt lat="53.322093" lon="06.613667"><ele>6.6</ele><time>2021-05-20T15:04:50Z</time><name>PT14150</name></trkpt>
<trkpt lat="53.322087" lon="06.613653"><ele>6.8</ele><time>2021-05-20T15:04:51Z</time><name>PT14151</name></trkpt>
<trkpt lat="53.322081" lon="06.613637"><ele>6.9</ele><time>2021-05-20T15:04:52Z</time><name>PT14152</name></trkpt>
<trkpt lat="53.322075" lon="06.613620"><ele>6.9</ele><time>2021-05-20T15:04:53Z</time><name>PT14153</name></trkpt>
<trkpt lat="53.322068" lon="06.613606"><ele>6.7</ele><time>2021-05-20T15:04:54Z</time><name>PT14154</name></trkpt>
<trkpt lat="53.322060" lon="06.613592"><ele>6.7</ele><time>2021-05-20T15:04:55Z</time><name>PT14155</name></trkpt>
<trkpt lat="53.322053" lon="06.613579"><ele>6.7</ele><time>2021-05-20T15:04:56Z</time><name>PT14156</name></trkpt>
<trkpt lat="53.322048" lon="06.613567"><ele>6.8</ele><time>2021-05-20T15:04:57Z</time><name>PT14157</name></trkpt>
<trkpt lat="53.322043" lon="06.613553"><ele>6.8</ele><time>2021-05-20T15:04:58Z</time><name>PT14158</name></trkpt>
<trkpt lat="53.322039" lon="06.613538"><ele>6.9</ele><time>2021-05-20T15:04:59Z</time><name>PT14159</name></trkpt>
<trkpt lat="53.322036" lon="06.613529"><ele>6.9</ele><time>2021-05-20T15:05:00Z</time><name>PT14160</name></trkpt>
<trkpt lat="53.322036" lon="06.613526"><ele>6.9</ele><time>2021-05-20T15:05:01Z</time><name>PT14161</name></trkpt>
<trkpt lat="53.322034" lon="06.613522"><ele>7</ele><time>2021-05-20T15:05:02Z</time><name>PT14162</name></trkpt>
<trkpt lat="53.322031" lon="06.613510"><ele>7</ele><time>2021-05-20T15:05:03Z</time><name>PT14163</name></trkpt>
<trkpt lat="53.322026" lon="06.613496"><ele>7.2</ele><time>2021-05-20T15:05:04Z</time><name>PT14164</name></trkpt>
<trkpt lat="53.322021" lon="06.613481"><ele>7.1</ele><time>2021-05-20T15:05:05Z</time><name>PT14165</name></trkpt>
<trkpt lat="53.322015" lon="06.613465"><ele>7</ele><time>2021-05-20T15:05:06Z</time><name>PT14166</name></trkpt>
<trkpt lat="53.322009" lon="06.613450"><ele>6.9</ele><time>2021-05-20T15:05:07Z</time><name>PT14167</name></trkpt>
<trkpt lat="53.322003" lon="06.613438"><ele>6.9</ele><time>2021-05-20T15:05:08Z</time><name>PT14168</name></trkpt>
<trkpt lat="53.322004" lon="06.613438"><ele>6.9</ele><time>2021-05-20T15:05:09Z</time><name>PT14169</name></trkpt>
<trkpt lat="53.322005" lon="06.613438"><ele>6.9</ele><time>2021-05-20T15:05:10Z</time><name>PT14170</name></trkpt>
<trkpt lat="53.322005" lon="06.613438"><ele>7</ele><time>2021-05-20T15:05:11Z</time><name>PT14171</name></trkpt>
<trkpt lat="53.321999" lon="06.613433"><ele>7.1</ele><time>2021-05-20T15:05:12Z</time><name>PT14172</name></trkpt>
<trkpt lat="53.321996" lon="06.613424"><ele>7.1</ele><time>2021-05-20T15:05:13Z</time><name>PT14173</name></trkpt>
<trkpt lat="53.321992" lon="06.613414"><ele>7</ele><time>2021-05-20T15:05:14Z</time><name>PT14174</name></trkpt>
<trkpt lat="53.321990" lon="06.613404"><ele>6.9</ele><time>2021-05-20T15:05:15Z</time><name>PT14175</name></trkpt>
<trkpt lat="53.321987" lon="06.613392"><ele>6.9</ele><time>2021-05-20T15:05:16Z</time><name>PT14176</name></trkpt>
<trkpt lat="53.321984" lon="06.613379"><ele>6.9</ele><time>2021-05-20T15:05:17Z</time><name>PT14177</name></trkpt>
<trkpt lat="53.321980" lon="06.613370"><ele>6.9</ele><time>2021-05-20T15:05:18Z</time><name>PT14178</name></trkpt>
<trkpt lat="53.321976" lon="06.613360"><ele>6.8</ele><time>2021-05-20T15:05:19Z</time><name>PT14179</name></trkpt>
<trkpt lat="53.321972" lon="06.613352"><ele>6.7</ele><time>2021-05-20T15:05:20Z</time><name>PT14180</name></trkpt>
<trkpt lat="53.321972" lon="06.613350"><ele>6.7</ele><time>2021-05-20T15:05:21Z</time><name>PT14181</name></trkpt>
<trkpt lat="53.321974" lon="06.613348"><ele>6.9</ele><time>2021-05-20T15:05:22Z</time><name>PT14182</name></trkpt>
<trkpt lat="53.321975" lon="06.613347"><ele>7.2</ele><time>2021-05-20T15:05:23Z</time><name>PT14183</name></trkpt>
<trkpt lat="53.321975" lon="06.613347"><ele>7.3</ele><time>2021-05-20T15:05:24Z</time><name>PT14184</name></trkpt>
<trkpt lat="53.321976" lon="06.613346"><ele>7.4</ele><time>2021-05-20T15:05:25Z</time><name>PT14185</name></trkpt>
<trkpt lat="53.321977" lon="06.613347"><ele>7.4</ele><time>2021-05-20T15:05:37Z</time><name>PT14186</name></trkpt>
<trkpt lat="53.321975" lon="06.613342"><ele>7.3</ele><time>2021-05-20T15:05:38Z</time><name>PT14187</name></trkpt>
<trkpt lat="53.321977" lon="06.613340"><ele>7.3</ele><time>2021-05-20T15:05:39Z</time><name>PT14188</name></trkpt>
<trkpt lat="53.321978" lon="06.613340"><ele>7.3</ele><time>2021-05-20T15:05:40Z</time><name>PT14189</name></trkpt>
<trkpt lat="53.321978" lon="06.613337"><ele>7.6</ele><time>2021-05-20T15:05:41Z</time><name>PT14190</name></trkpt>
<trkpt lat="53.321977" lon="06.613335"><ele>7.7</ele><time>2021-05-20T15:05:42Z</time><name>PT14191</name></trkpt>
<trkpt lat="53.321976" lon="06.613334"><ele>7.8</ele><time>2021-05-20T15:05:43Z</time><name>PT14192</name></trkpt>
<trkpt lat="53.321976" lon="06.613333"><ele>7.8</ele><time>2021-05-20T15:05:44Z</time><name>PT14193</name></trkpt>
<trkpt lat="53.321975" lon="06.613335"><ele>7.8</ele><time>2021-05-20T15:05:52Z</time><name>PT14194</name></trkpt>
<trkpt lat="53.321971" lon="06.613332"><ele>7.4</ele><time>2021-05-20T15:05:53Z</time><name>PT14195</name></trkpt>
<trkpt lat="53.321966" lon="06.613317"><ele>7.3</ele><time>2021-05-20T15:05:54Z</time><name>PT14196</name></trkpt>
<trkpt lat="53.321959" lon="06.613301"><ele>7.2</ele><time>2021-05-20T15:05:55Z</time><name>PT14197</name></trkpt>
<trkpt lat="53.321953" lon="06.613289"><ele>7</ele><time>2021-05-20T15:05:56Z</time><name>PT14198</name></trkpt>
<trkpt lat="53.321948" lon="06.613278"><ele>7</ele><time>2021-05-20T15:05:57Z</time><name>PT14199</name></trkpt>
<trkpt lat="53.321946" lon="06.613264"><ele>7.1</ele><time>2021-05-20T15:05:58Z</time><name>PT14200</name></trkpt>
<trkpt lat="53.321941" lon="06.613249"><ele>7.3</ele><time>2021-05-20T15:05:59Z</time><name>PT14201</name></trkpt>
<trkpt lat="53.321936" lon="06.613235"><ele>7.3</ele><time>2021-05-20T15:06:00Z</time><name>PT14202</name></trkpt>
<trkpt lat="53.321930" lon="06.613223"><ele>7.3</ele><time>2021-05-20T15:06:01Z</time><name>PT14203</name></trkpt>
<trkpt lat="53.321924" lon="06.613211"><ele>7.3</ele><time>2021-05-20T15:06:02Z</time><name>PT14204</name></trkpt>
<trkpt lat="53.321920" lon="06.613198"><ele>7</ele><time>2021-05-20T15:06:03Z</time><name>PT14205</name></trkpt>
<trkpt lat="53.321916" lon="06.613185"><ele>6.9</ele><time>2021-05-20T15:06:04Z</time><name>PT14206</name></trkpt>
<trkpt lat="53.321911" lon="06.613168"><ele>6.9</ele><time>2021-05-20T15:06:05Z</time><name>PT14207</name></trkpt>
<trkpt lat="53.321907" lon="06.613150"><ele>6.9</ele><time>2021-05-20T15:06:06Z</time><name>PT14208</name></trkpt>
<trkpt lat="53.321900" lon="06.613135"><ele>6.9</ele><time>2021-05-20T15:06:07Z</time><name>PT14209</name></trkpt>
<trkpt lat="53.321894" lon="06.613124"><ele>7</ele><time>2021-05-20T15:06:08Z</time><name>PT14210</name></trkpt>
<trkpt lat="53.321889" lon="06.613112"><ele>7.1</ele><time>2021-05-20T15:06:09Z</time><name>PT14211</name></trkpt>
<trkpt lat="53.321884" lon="06.613098"><ele>7.2</ele><time>2021-05-20T15:06:10Z</time><name>PT14212</name></trkpt>
<trkpt lat="53.321880" lon="06.613082"><ele>7.3</ele><time>2021-05-20T15:06:11Z</time><name>PT14213</name></trkpt>
<trkpt lat="53.321875" lon="06.613066"><ele>7.4</ele><time>2021-05-20T15:06:12Z</time><name>PT14214</name></trkpt>
<trkpt lat="53.321871" lon="06.613050"><ele>7.5</ele><time>2021-05-20T15:06:13Z</time><name>PT14215</name></trkpt>
<trkpt lat="53.321864" lon="06.613033"><ele>7.6</ele><time>2021-05-20T15:06:14Z</time><name>PT14216</name></trkpt>
<trkpt lat="53.321858" lon="06.613018"><ele>7.6</ele><time>2021-05-20T15:06:15Z</time><name>PT14217</name></trkpt>
<trkpt lat="53.321852" lon="06.613005"><ele>7.4</ele><time>2021-05-20T15:06:16Z</time><name>PT14218</name></trkpt>
<trkpt lat="53.321847" lon="06.612993"><ele>7.3</ele><time>2021-05-20T15:06:17Z</time><name>PT14219</name></trkpt>
<trkpt lat="53.321842" lon="06.612981"><ele>7.2</ele><time>2021-05-20T15:06:18Z</time><name>PT14220</name></trkpt>
<trkpt lat="53.321838" lon="06.612968"><ele>7.2</ele><time>2021-05-20T15:06:19Z</time><name>PT14221</name></trkpt>
<trkpt lat="53.321834" lon="06.612953"><ele>7.3</ele><time>2021-05-20T15:06:20Z</time><name>PT14222</name></trkpt>
<trkpt lat="53.321830" lon="06.612943"><ele>7.3</ele><time>2021-05-20T15:06:21Z</time><name>PT14223</name></trkpt>
<trkpt lat="53.321830" lon="06.612942"><ele>7.2</ele><time>2021-05-20T15:06:22Z</time><name>PT14224</name></trkpt>
<trkpt lat="53.321832" lon="06.612941"><ele>7.2</ele><time>2021-05-20T15:06:23Z</time><name>PT14225</name></trkpt>
<trkpt lat="53.321831" lon="06.612939"><ele>7</ele><time>2021-05-20T15:06:24Z</time><name>PT14226</name></trkpt>
<trkpt lat="53.321828" lon="06.612938"><ele>6.9</ele><time>2021-05-20T15:06:25Z</time><name>PT14227</name></trkpt>
<trkpt lat="53.321827" lon="06.612937"><ele>6.9</ele><time>2021-05-20T15:06:26Z</time><name>PT14228</name></trkpt>
<trkpt lat="53.321829" lon="06.612939"><ele>7.1</ele><time>2021-05-20T15:06:30Z</time><name>PT14229</name></trkpt>
<trkpt lat="53.321830" lon="06.612930"><ele>7.3</ele><time>2021-05-20T15:06:31Z</time><name>PT14230</name></trkpt>
<trkpt lat="53.321831" lon="06.612926"><ele>7.3</ele><time>2021-05-20T15:06:32Z</time><name>PT14231</name></trkpt>
<trkpt lat="53.321830" lon="06.612922"><ele>7.3</ele><time>2021-05-20T15:06:33Z</time><name>PT14232</name></trkpt>
<trkpt lat="53.321829" lon="06.612916"><ele>7.3</ele><time>2021-05-20T15:06:34Z</time><name>PT14233</name></trkpt>
<trkpt lat="53.321827" lon="06.612911"><ele>7.2</ele><time>2021-05-20T15:06:35Z</time><name>PT14234</name></trkpt>
<trkpt lat="53.321825" lon="06.612905"><ele>7</ele><time>2021-05-20T15:06:36Z</time><name>PT14235</name></trkpt>
<trkpt lat="53.321823" lon="06.612898"><ele>7.2</ele><time>2021-05-20T15:06:37Z</time><name>PT14236</name></trkpt>
<trkpt lat="53.321821" lon="06.612886"><ele>7.3</ele><time>2021-05-20T15:06:38Z</time><name>PT14237</name></trkpt>
<trkpt lat="53.321820" lon="06.612884"><ele>7.2</ele><time>2021-05-20T15:06:39Z</time><name>PT14238</name></trkpt>
<trkpt lat="53.321819" lon="06.612887"><ele>7.4</ele><time>2021-05-20T15:06:40Z</time><name>PT14239</name></trkpt>
<trkpt lat="53.321818" lon="06.612888"><ele>7.4</ele><time>2021-05-20T15:06:41Z</time><name>PT14240</name></trkpt>
<trkpt lat="53.321818" lon="06.612887"><ele>7.3</ele><time>2021-05-20T15:06:42Z</time><name>PT14241</name></trkpt>
<trkpt lat="53.321817" lon="06.612887"><ele>7.2</ele><time>2021-05-20T15:06:43Z</time><name>PT14242</name></trkpt>
<trkpt lat="53.321819" lon="06.612887"><ele>7.5</ele><time>2021-05-20T15:06:49Z</time><name>PT14243</name></trkpt>
<trkpt lat="53.321814" lon="06.612879"><ele>7.3</ele><time>2021-05-20T15:06:50Z</time><name>PT14244</name></trkpt>
<trkpt lat="53.321810" lon="06.612873"><ele>7.3</ele><time>2021-05-20T15:06:51Z</time><name>PT14245</name></trkpt>
<trkpt lat="53.321807" lon="06.612866"><ele>7.3</ele><time>2021-05-20T15:06:52Z</time><name>PT14246</name></trkpt>
<trkpt lat="53.321802" lon="06.612858"><ele>7.4</ele><time>2021-05-20T15:06:53Z</time><name>PT14247</name></trkpt>
<trkpt lat="53.321799" lon="06.612851"><ele>7.3</ele><time>2021-05-20T15:06:54Z</time><name>PT14248</name></trkpt>
<trkpt lat="53.321796" lon="06.612842"><ele>7.3</ele><time>2021-05-20T15:06:55Z</time><name>PT14249</name></trkpt>
<trkpt lat="53.321792" lon="06.612831"><ele>7.3</ele><time>2021-05-20T15:06:56Z</time><name>PT14250</name></trkpt>
<trkpt lat="53.321788" lon="06.612822"><ele>7.2</ele><time>2021-05-20T15:06:57Z</time><name>PT14251</name></trkpt>
<trkpt lat="53.321785" lon="06.612815"><ele>7.2</ele><time>2021-05-20T15:06:58Z</time><name>PT14252</name></trkpt>
<trkpt lat="53.321781" lon="06.612808"><ele>7.3</ele><time>2021-05-20T15:06:59Z</time><name>PT14253</name></trkpt>
<trkpt lat="53.321777" lon="06.612798"><ele>7.4</ele><time>2021-05-20T15:07:00Z</time><name>PT14254</name></trkpt>
<trkpt lat="53.321776" lon="06.612795"><ele>7.3</ele><time>2021-05-20T15:07:01Z</time><name>PT14255</name></trkpt>
<trkpt lat="53.321775" lon="06.612795"><ele>7.3</ele><time>2021-05-20T15:07:02Z</time><name>PT14256</name></trkpt>
<trkpt lat="53.321774" lon="06.612794"><ele>7.2</ele><time>2021-05-20T15:07:03Z</time><name>PT14257</name></trkpt>
<trkpt lat="53.321773" lon="06.612795"><ele>7.1</ele><time>2021-05-20T15:07:04Z</time><name>PT14258</name></trkpt>
<trkpt lat="53.321772" lon="06.612798"><ele>7.1</ele><time>2021-05-20T15:07:05Z</time><name>PT14259</name></trkpt>
<trkpt lat="53.321772" lon="06.612797"><ele>7</ele><time>2021-05-20T15:07:06Z</time><name>PT14260</name></trkpt>
<trkpt lat="53.321772" lon="06.612795"><ele>7</ele><time>2021-05-20T15:07:07Z</time><name>PT14261</name></trkpt>
<trkpt lat="53.321771" lon="06.612796"><ele>7.2</ele><time>2021-05-20T15:07:08Z</time><name>PT14262</name></trkpt>
<trkpt lat="53.321772" lon="06.612797"><ele>7.2</ele><time>2021-05-20T15:07:09Z</time><name>PT14263</name></trkpt>
<trkpt lat="53.321772" lon="06.612797"><ele>7.2</ele><time>2021-05-20T15:07:10Z</time><name>PT14264</name></trkpt>
<trkpt lat="53.321772" lon="06.612798"><ele>7.3</ele><time>2021-05-20T15:07:11Z</time><name>PT14265</name></trkpt>
<trkpt lat="53.321778" lon="06.612795"><ele>7.4</ele><time>2021-05-20T15:07:21Z</time><name>PT14266</name></trkpt>
<trkpt lat="53.321780" lon="06.612787"><ele>7.6</ele><time>2021-05-20T15:07:22Z</time><name>PT14267</name></trkpt>
<trkpt lat="53.321777" lon="06.612780"><ele>7.6</ele><time>2021-05-20T15:07:23Z</time><name>PT14268</name></trkpt>
<trkpt lat="53.321773" lon="06.612770"><ele>7.4</ele><time>2021-05-20T15:07:24Z</time><name>PT14269</name></trkpt>
<trkpt lat="53.321765" lon="06.612756"><ele>7.4</ele><time>2021-05-20T15:07:25Z</time><name>PT14270</name></trkpt>
<trkpt lat="53.321759" lon="06.612743"><ele>7.4</ele><time>2021-05-20T15:07:26Z</time><name>PT14271</name></trkpt>
<trkpt lat="53.321754" lon="06.612731"><ele>7.2</ele><time>2021-05-20T15:07:27Z</time><name>PT14272</name></trkpt>
<trkpt lat="53.321748" lon="06.612719"><ele>7</ele><time>2021-05-20T15:07:28Z</time><name>PT14273</name></trkpt>
<trkpt lat="53.321744" lon="06.612704"><ele>7.1</ele><time>2021-05-20T15:07:29Z</time><name>PT14274</name></trkpt>
<trkpt lat="53.321739" lon="06.612688"><ele>7.1</ele><time>2021-05-20T15:07:30Z</time><name>PT14275</name></trkpt>
<trkpt lat="53.321733" lon="06.612673"><ele>7.1</ele><time>2021-05-20T15:07:31Z</time><name>PT14276</name></trkpt>
<trkpt lat="53.321727" lon="06.612661"><ele>7.3</ele><time>2021-05-20T15:07:32Z</time><name>PT14277</name></trkpt>
<trkpt lat="53.321722" lon="06.612649"><ele>7.4</ele><time>2021-05-20T15:07:33Z</time><name>PT14278</name></trkpt>
<trkpt lat="53.321718" lon="06.612635"><ele>7.5</ele><time>2021-05-20T15:07:34Z</time><name>PT14279</name></trkpt>
<trkpt lat="53.321714" lon="06.612619"><ele>7.4</ele><time>2021-05-20T15:07:35Z</time><name>PT14280</name></trkpt>
<trkpt lat="53.321709" lon="06.612603"><ele>7.4</ele><time>2021-05-20T15:07:36Z</time><name>PT14281</name></trkpt>
<trkpt lat="53.321705" lon="06.612587"><ele>7.3</ele><time>2021-05-20T15:07:37Z</time><name>PT14282</name></trkpt>
<trkpt lat="53.321699" lon="06.612576"><ele>7.3</ele><time>2021-05-20T15:07:38Z</time><name>PT14283</name></trkpt>
<trkpt lat="53.321695" lon="06.612566"><ele>7.3</ele><time>2021-05-20T15:07:39Z</time><name>PT14284</name></trkpt>
<trkpt lat="53.321690" lon="06.612552"><ele>7.3</ele><time>2021-05-20T15:07:40Z</time><name>PT14285</name></trkpt>
<trkpt lat="53.321686" lon="06.612538"><ele>7.4</ele><time>2021-05-20T15:07:41Z</time><name>PT14286</name></trkpt>
<trkpt lat="53.321681" lon="06.612523"><ele>7.3</ele><time>2021-05-20T15:07:42Z</time><name>PT14287</name></trkpt>
<trkpt lat="53.321676" lon="06.612509"><ele>7.3</ele><time>2021-05-20T15:07:43Z</time><name>PT14288</name></trkpt>
<trkpt lat="53.321671" lon="06.612497"><ele>7.3</ele><time>2021-05-20T15:07:44Z</time><name>PT14289</name></trkpt>
<trkpt lat="53.321666" lon="06.612484"><ele>7.3</ele><time>2021-05-20T15:07:45Z</time><name>PT14290</name></trkpt>
<trkpt lat="53.321663" lon="06.612470"><ele>7.4</ele><time>2021-05-20T15:07:46Z</time><name>PT14291</name></trkpt>
<trkpt lat="53.321659" lon="06.612455"><ele>7.5</ele><time>2021-05-20T15:07:47Z</time><name>PT14292</name></trkpt>
<trkpt lat="53.321654" lon="06.612440"><ele>7.5</ele><time>2021-05-20T15:07:48Z</time><name>PT14293</name></trkpt>
<trkpt lat="53.321649" lon="06.612427"><ele>7.6</ele><time>2021-05-20T15:07:49Z</time><name>PT14294</name></trkpt>
<trkpt lat="53.321644" lon="06.612413"><ele>7.6</ele><time>2021-05-20T15:07:50Z</time><name>PT14295</name></trkpt>
<trkpt lat="53.321637" lon="06.612399"><ele>7.7</ele><time>2021-05-20T15:07:51Z</time><name>PT14296</name></trkpt>
<trkpt lat="53.321630" lon="06.612385"><ele>7.6</ele><time>2021-05-20T15:07:52Z</time><name>PT14297</name></trkpt>
<trkpt lat="53.321625" lon="06.612369"><ele>7.5</ele><time>2021-05-20T15:07:53Z</time><name>PT14298</name></trkpt>
<trkpt lat="53.321620" lon="06.612353"><ele>7.6</ele><time>2021-05-20T15:07:54Z</time><name>PT14299</name></trkpt>
<trkpt lat="53.321616" lon="06.612334"><ele>7.5</ele><time>2021-05-20T15:07:55Z</time><name>PT14300</name></trkpt>
<trkpt lat="53.321612" lon="06.612316"><ele>7.3</ele><time>2021-05-20T15:07:56Z</time><name>PT14301</name></trkpt>
<trkpt lat="53.321605" lon="06.612301"><ele>7.4</ele><time>2021-05-20T15:07:57Z</time><name>PT14302</name></trkpt>
<trkpt lat="53.321599" lon="06.612286"><ele>7.3</ele><time>2021-05-20T15:07:58Z</time><name>PT14303</name></trkpt>
<trkpt lat="53.321593" lon="06.612272"><ele>7.3</ele><time>2021-05-20T15:07:59Z</time><name>PT14304</name></trkpt>
<trkpt lat="53.321588" lon="06.612259"><ele>7.3</ele><time>2021-05-20T15:08:00Z</time><name>PT14305</name></trkpt>
<trkpt lat="53.321584" lon="06.612246"><ele>7.3</ele><time>2021-05-20T15:08:01Z</time><name>PT14306</name></trkpt>
<trkpt lat="53.321580" lon="06.612232"><ele>7.3</ele><time>2021-05-20T15:08:02Z</time><name>PT14307</name></trkpt>
<trkpt lat="53.321575" lon="06.612218"><ele>7.3</ele><time>2021-05-20T15:08:03Z</time><name>PT14308</name></trkpt>
<trkpt lat="53.321570" lon="06.612202"><ele>7.3</ele><time>2021-05-20T15:08:04Z</time><name>PT14309</name></trkpt>
<trkpt lat="53.321564" lon="06.612187"><ele>7.2</ele><time>2021-05-20T15:08:05Z</time><name>PT14310</name></trkpt>
<trkpt lat="53.321559" lon="06.612172"><ele>7.4</ele><time>2021-05-20T15:08:06Z</time><name>PT14311</name></trkpt>
<trkpt lat="53.321552" lon="06.612157"><ele>7.6</ele><time>2021-05-20T15:08:07Z</time><name>PT14312</name></trkpt>
<trkpt lat="53.321545" lon="06.612145"><ele>7.5</ele><time>2021-05-20T15:08:08Z</time><name>PT14313</name></trkpt>
<trkpt lat="53.321539" lon="06.612134"><ele>7.6</ele><time>2021-05-20T15:08:09Z</time><name>PT14314</name></trkpt>
<trkpt lat="53.321533" lon="06.612121"><ele>7.6</ele><time>2021-05-20T15:08:10Z</time><name>PT14315</name></trkpt>
<trkpt lat="53.321527" lon="06.612107"><ele>7.4</ele><time>2021-05-20T15:08:11Z</time><name>PT14316</name></trkpt>
<trkpt lat="53.321520" lon="06.612092"><ele>7.5</ele><time>2021-05-20T15:08:12Z</time><name>PT14317</name></trkpt>
<trkpt lat="53.321513" lon="06.612077"><ele>7.7</ele><time>2021-05-20T15:08:13Z</time><name>PT14318</name></trkpt>
<trkpt lat="53.321507" lon="06.612061"><ele>7.8</ele><time>2021-05-20T15:08:14Z</time><name>PT14319</name></trkpt>
<trkpt lat="53.321499" lon="06.612047"><ele>8</ele><time>2021-05-20T15:08:15Z</time><name>PT14320</name></trkpt>
<trkpt lat="53.321491" lon="06.612035"><ele>7.9</ele><time>2021-05-20T15:08:16Z</time><name>PT14321</name></trkpt>
<trkpt lat="53.321481" lon="06.612023"><ele>7.9</ele><time>2021-05-20T15:08:17Z</time><name>PT14322</name></trkpt>
<trkpt lat="53.321473" lon="06.612013"><ele>7.9</ele><time>2021-05-20T15:08:18Z</time><name>PT14323</name></trkpt>
<trkpt lat="53.321465" lon="06.612003"><ele>7.8</ele><time>2021-05-20T15:08:19Z</time><name>PT14324</name></trkpt>
<trkpt lat="53.321457" lon="06.611993"><ele>7.8</ele><time>2021-05-20T15:08:20Z</time><name>PT14325</name></trkpt>
<trkpt lat="53.321449" lon="06.611983"><ele>7.8</ele><time>2021-05-20T15:08:21Z</time><name>PT14326</name></trkpt>
<trkpt lat="53.321441" lon="06.611972"><ele>7.7</ele><time>2021-05-20T15:08:22Z</time><name>PT14327</name></trkpt>
<trkpt lat="53.321432" lon="06.611960"><ele>7.6</ele><time>2021-05-20T15:08:23Z</time><name>PT14328</name></trkpt>
<trkpt lat="53.321423" lon="06.611947"><ele>7.6</ele><time>2021-05-20T15:08:24Z</time><name>PT14329</name></trkpt>
<trkpt lat="53.321414" lon="06.611935"><ele>7.5</ele><time>2021-05-20T15:08:25Z</time><name>PT14330</name></trkpt>
<trkpt lat="53.321404" lon="06.611925"><ele>7.5</ele><time>2021-05-20T15:08:26Z</time><name>PT14331</name></trkpt>
<trkpt lat="53.321396" lon="06.611917"><ele>7.6</ele><time>2021-05-20T15:08:27Z</time><name>PT14332</name></trkpt>
<trkpt lat="53.321388" lon="06.611908"><ele>7.8</ele><time>2021-05-20T15:08:28Z</time><name>PT14333</name></trkpt>
<trkpt lat="53.321380" lon="06.611898"><ele>7.9</ele><time>2021-05-20T15:08:29Z</time><name>PT14334</name></trkpt>
<trkpt lat="53.321372" lon="06.611888"><ele>8</ele><time>2021-05-20T15:08:30Z</time><name>PT14335</name></trkpt>
<trkpt lat="53.321363" lon="06.611877"><ele>8</ele><time>2021-05-20T15:08:31Z</time><name>PT14336</name></trkpt>
<trkpt lat="53.321355" lon="06.611865"><ele>8</ele><time>2021-05-20T15:08:32Z</time><name>PT14337</name></trkpt>
<trkpt lat="53.321346" lon="06.611855"><ele>8</ele><time>2021-05-20T15:08:33Z</time><name>PT14338</name></trkpt>
<trkpt lat="53.321337" lon="06.611845"><ele>8</ele><time>2021-05-20T15:08:34Z</time><name>PT14339</name></trkpt>
<trkpt lat="53.321329" lon="06.611835"><ele>8.1</ele><time>2021-05-20T15:08:35Z</time><name>PT14340</name></trkpt>
<trkpt lat="53.321321" lon="06.611826"><ele>8.2</ele><time>2021-05-20T15:08:36Z</time><name>PT14341</name></trkpt>
<trkpt lat="53.321313" lon="06.611817"><ele>8.3</ele><time>2021-05-20T15:08:37Z</time><name>PT14342</name></trkpt>
<trkpt lat="53.321305" lon="06.611807"><ele>8.3</ele><time>2021-05-20T15:08:38Z</time><name>PT14343</name></trkpt>
<trkpt lat="53.321298" lon="06.611794"><ele>8.1</ele><time>2021-05-20T15:08:39Z</time><name>PT14344</name></trkpt>
<trkpt lat="53.321290" lon="06.611780"><ele>7.9</ele><time>2021-05-20T15:08:40Z</time><name>PT14345</name></trkpt>
<trkpt lat="53.321283" lon="06.611768"><ele>7.8</ele><time>2021-05-20T15:08:41Z</time><name>PT14346</name></trkpt>
<trkpt lat="53.321275" lon="06.611756"><ele>7.5</ele><time>2021-05-20T15:08:42Z</time><name>PT14347</name></trkpt>
<trkpt lat="53.321267" lon="06.611744"><ele>7.6</ele><time>2021-05-20T15:08:43Z</time><name>PT14348</name></trkpt>
<trkpt lat="53.321259" lon="06.611733"><ele>7.7</ele><time>2021-05-20T15:08:44Z</time><name>PT14349</name></trkpt>
<trkpt lat="53.321252" lon="06.611723"><ele>7.6</ele><time>2021-05-20T15:08:45Z</time><name>PT14350</name></trkpt>
<trkpt lat="53.321246" lon="06.611711"><ele>7.6</ele><time>2021-05-20T15:08:46Z</time><name>PT14351</name></trkpt>
<trkpt lat="53.321240" lon="06.611700"><ele>7.7</ele><time>2021-05-20T15:08:47Z</time><name>PT14352</name></trkpt>
<trkpt lat="53.321233" lon="06.611689"><ele>7.6</ele><time>2021-05-20T15:08:48Z</time><name>PT14353</name></trkpt>
<trkpt lat="53.321227" lon="06.611676"><ele>7.7</ele><time>2021-05-20T15:08:49Z</time><name>PT14354</name></trkpt>
<trkpt lat="53.321221" lon="06.611661"><ele>7.7</ele><time>2021-05-20T15:08:50Z</time><name>PT14355</name></trkpt>
<trkpt lat="53.321216" lon="06.611646"><ele>7.7</ele><time>2021-05-20T15:08:51Z</time><name>PT14356</name></trkpt>
<trkpt lat="53.321208" lon="06.611633"><ele>7.8</ele><time>2021-05-20T15:08:52Z</time><name>PT14357</name></trkpt>
<trkpt lat="53.321201" lon="06.611620"><ele>7.9</ele><time>2021-05-20T15:08:53Z</time><name>PT14358</name></trkpt>
<trkpt lat="53.321194" lon="06.611608"><ele>7.7</ele><time>2021-05-20T15:08:54Z</time><name>PT14359</name></trkpt>
<trkpt lat="53.321188" lon="06.611597"><ele>7.7</ele><time>2021-05-20T15:08:55Z</time><name>PT14360</name></trkpt>
<trkpt lat="53.321183" lon="06.611584"><ele>7.8</ele><time>2021-05-20T15:08:56Z</time><name>PT14361</name></trkpt>
<trkpt lat="53.321178" lon="06.611570"><ele>7.6</ele><time>2021-05-20T15:08:57Z</time><name>PT14362</name></trkpt>
<trkpt lat="53.321172" lon="06.611556"><ele>7.6</ele><time>2021-05-20T15:08:58Z</time><name>PT14363</name></trkpt>
<trkpt lat="53.321166" lon="06.611541"><ele>7.5</ele><time>2021-05-20T15:08:59Z</time><name>PT14364</name></trkpt>
<trkpt lat="53.321161" lon="06.611525"><ele>7.3</ele><time>2021-05-20T15:09:00Z</time><name>PT14365</name></trkpt>
<trkpt lat="53.321154" lon="06.611509"><ele>7.3</ele><time>2021-05-20T15:09:01Z</time><name>PT14366</name></trkpt>
<trkpt lat="53.321148" lon="06.611494"><ele>7.3</ele><time>2021-05-20T15:09:02Z</time><name>PT14367</name></trkpt>
<trkpt lat="53.321142" lon="06.611480"><ele>7.5</ele><time>2021-05-20T15:09:03Z</time><name>PT14368</name></trkpt>
<trkpt lat="53.321137" lon="06.611468"><ele>7.7</ele><time>2021-05-20T15:09:04Z</time><name>PT14369</name></trkpt>
<trkpt lat="53.321132" lon="06.611455"><ele>7.8</ele><time>2021-05-20T15:09:05Z</time><name>PT14370</name></trkpt>
<trkpt lat="53.321126" lon="06.611441"><ele>7.8</ele><time>2021-05-20T15:09:06Z</time><name>PT14371</name></trkpt>
<trkpt lat="53.321121" lon="06.611427"><ele>7.7</ele><time>2021-05-20T15:09:07Z</time><name>PT14372</name></trkpt>
<trkpt lat="53.321116" lon="06.611412"><ele>7.7</ele><time>2021-05-20T15:09:08Z</time><name>PT14373</name></trkpt>
<trkpt lat="53.321111" lon="06.611398"><ele>7.6</ele><time>2021-05-20T15:09:09Z</time><name>PT14374</name></trkpt>
<trkpt lat="53.321105" lon="06.611383"><ele>7.3</ele><time>2021-05-20T15:09:10Z</time><name>PT14375</name></trkpt>
<trkpt lat="53.321099" lon="06.611369"><ele>7.4</ele><time>2021-05-20T15:09:11Z</time><name>PT14376</name></trkpt>
<trkpt lat="53.321094" lon="06.611355"><ele>7.3</ele><time>2021-05-20T15:09:12Z</time><name>PT14377</name></trkpt>
<trkpt lat="53.321089" lon="06.611342"><ele>7.5</ele><time>2021-05-20T15:09:13Z</time><name>PT14378</name></trkpt>
<trkpt lat="53.321084" lon="06.611329"><ele>7.5</ele><time>2021-05-20T15:09:14Z</time><name>PT14379</name></trkpt>
<trkpt lat="53.321079" lon="06.611316"><ele>7.5</ele><time>2021-05-20T15:09:15Z</time><name>PT14380</name></trkpt>
<trkpt lat="53.321074" lon="06.611303"><ele>7.6</ele><time>2021-05-20T15:09:16Z</time><name>PT14381</name></trkpt>
<trkpt lat="53.321069" lon="06.611288"><ele>7.6</ele><time>2021-05-20T15:09:17Z</time><name>PT14382</name></trkpt>
<trkpt lat="53.321063" lon="06.611273"><ele>7.4</ele><time>2021-05-20T15:09:18Z</time><name>PT14383</name></trkpt>
<trkpt lat="53.321058" lon="06.611258"><ele>7.6</ele><time>2021-05-20T15:09:19Z</time><name>PT14384</name></trkpt>
<trkpt lat="53.321051" lon="06.611243"><ele>7.5</ele><time>2021-05-20T15:09:20Z</time><name>PT14385</name></trkpt>
<trkpt lat="53.321045" lon="06.611231"><ele>7.4</ele><time>2021-05-20T15:09:21Z</time><name>PT14386</name></trkpt>
<trkpt lat="53.321039" lon="06.611219"><ele>7.6</ele><time>2021-05-20T15:09:22Z</time><name>PT14387</name></trkpt>
<trkpt lat="53.321033" lon="06.611207"><ele>7.6</ele><time>2021-05-20T15:09:23Z</time><name>PT14388</name></trkpt>
<trkpt lat="53.321027" lon="06.611194"><ele>7.5</ele><time>2021-05-20T15:09:24Z</time><name>PT14389</name></trkpt>
<trkpt lat="53.321022" lon="06.611180"><ele>7.6</ele><time>2021-05-20T15:09:25Z</time><name>PT14390</name></trkpt>
<trkpt lat="53.321017" lon="06.611165"><ele>7.7</ele><time>2021-05-20T15:09:26Z</time><name>PT14391</name></trkpt>
<trkpt lat="53.321011" lon="06.611148"><ele>7.5</ele><time>2021-05-20T15:09:27Z</time><name>PT14392</name></trkpt>
<trkpt lat="53.321006" lon="06.611132"><ele>7.6</ele><time>2021-05-20T15:09:28Z</time><name>PT14393</name></trkpt>
<trkpt lat="53.321001" lon="06.611116"><ele>7.8</ele><time>2021-05-20T15:09:29Z</time><name>PT14394</name></trkpt>
<trkpt lat="53.320995" lon="06.611100"><ele>7.6</ele><time>2021-05-20T15:09:30Z</time><name>PT14395</name></trkpt>
<trkpt lat="53.320989" lon="06.611085"><ele>7.6</ele><time>2021-05-20T15:09:31Z</time><name>PT14396</name></trkpt>
<trkpt lat="53.320982" lon="06.611072"><ele>7.6</ele><time>2021-05-20T15:09:32Z</time><name>PT14397</name></trkpt>
<trkpt lat="53.320976" lon="06.611058"><ele>7.5</ele><time>2021-05-20T15:09:33Z</time><name>PT14398</name></trkpt>
<trkpt lat="53.320970" lon="06.611043"><ele>7.4</ele><time>2021-05-20T15:09:34Z</time><name>PT14399</name></trkpt>
<trkpt lat="53.320965" lon="06.611029"><ele>7.5</ele><time>2021-05-20T15:09:35Z</time><name>PT14400</name></trkpt>
<trkpt lat="53.320960" lon="06.611014"><ele>7.4</ele><time>2021-05-20T15:09:36Z</time><name>PT14401</name></trkpt>
<trkpt lat="53.320953" lon="06.610999"><ele>7.4</ele><time>2021-05-20T15:09:37Z</time><name>PT14402</name></trkpt>
<trkpt lat="53.320947" lon="06.610983"><ele>7.6</ele><time>2021-05-20T15:09:38Z</time><name>PT14403</name></trkpt>
<trkpt lat="53.320942" lon="06.610966"><ele>7.7</ele><time>2021-05-20T15:09:39Z</time><name>PT14404</name></trkpt>
<trkpt lat="53.320935" lon="06.610950"><ele>7.5</ele><time>2021-05-20T15:09:40Z</time><name>PT14405</name></trkpt>
<trkpt lat="53.320928" lon="06.610935"><ele>7.5</ele><time>2021-05-20T15:09:41Z</time><name>PT14406</name></trkpt>
<trkpt lat="53.320922" lon="06.610922"><ele>7.7</ele><time>2021-05-20T15:09:42Z</time><name>PT14407</name></trkpt>
<trkpt lat="53.320916" lon="06.610910"><ele>7.5</ele><time>2021-05-20T15:09:43Z</time><name>PT14408</name></trkpt>
<trkpt lat="53.320911" lon="06.610897"><ele>7.4</ele><time>2021-05-20T15:09:44Z</time><name>PT14409</name></trkpt>
<trkpt lat="53.320905" lon="06.610882"><ele>7.6</ele><time>2021-05-20T15:09:45Z</time><name>PT14410</name></trkpt>
<trkpt lat="53.320900" lon="06.610865"><ele>7.4</ele><time>2021-05-20T15:09:46Z</time><name>PT14411</name></trkpt>
<trkpt lat="53.320895" lon="06.610851"><ele>7.5</ele><time>2021-05-20T15:09:47Z</time><name>PT14412</name></trkpt>
<trkpt lat="53.320889" lon="06.610837"><ele>7.5</ele><time>2021-05-20T15:09:48Z</time><name>PT14413</name></trkpt>
<trkpt lat="53.320883" lon="06.610821"><ele>7.7</ele><time>2021-05-20T15:09:49Z</time><name>PT14414</name></trkpt>
<trkpt lat="53.320876" lon="06.610807"><ele>7.5</ele><time>2021-05-20T15:09:50Z</time><name>PT14415</name></trkpt>
<trkpt lat="53.320871" lon="06.610796"><ele>7.5</ele><time>2021-05-20T15:09:51Z</time><name>PT14416</name></trkpt>
<trkpt lat="53.320870" lon="06.610793"><ele>7.6</ele><time>2021-05-20T15:09:52Z</time><name>PT14417</name></trkpt>
<trkpt lat="53.320869" lon="06.610794"><ele>7.6</ele><time>2021-05-20T15:09:53Z</time><name>PT14418</name></trkpt>
<trkpt lat="53.320870" lon="06.610793"><ele>7.7</ele><time>2021-05-20T15:09:54Z</time><name>PT14419</name></trkpt>
<trkpt lat="53.320868" lon="06.610787"><ele>7.8</ele><time>2021-05-20T15:09:56Z</time><name>PT14420</name></trkpt>
<trkpt lat="53.320863" lon="06.610775"><ele>7.7</ele><time>2021-05-20T15:09:57Z</time><name>PT14421</name></trkpt>
<trkpt lat="53.320858" lon="06.610764"><ele>7.5</ele><time>2021-05-20T15:09:58Z</time><name>PT14422</name></trkpt>
<trkpt lat="53.320852" lon="06.610751"><ele>7.3</ele><time>2021-05-20T15:09:59Z</time><name>PT14423</name></trkpt>
<trkpt lat="53.320847" lon="06.610737"><ele>7.1</ele><time>2021-05-20T15:10:00Z</time><name>PT14424</name></trkpt>
<trkpt lat="53.320841" lon="06.610722"><ele>7.2</ele><time>2021-05-20T15:10:01Z</time><name>PT14425</name></trkpt>
<trkpt lat="53.320836" lon="06.610707"><ele>7.2</ele><time>2021-05-20T15:10:02Z</time><name>PT14426</name></trkpt>
<trkpt lat="53.320830" lon="06.610691"><ele>7.2</ele><time>2021-05-20T15:10:03Z</time><name>PT14427</name></trkpt>
<trkpt lat="53.320823" lon="06.610677"><ele>7.4</ele><time>2021-05-20T15:10:04Z</time><name>PT14428</name></trkpt>
<trkpt lat="53.320816" lon="06.610663"><ele>7.4</ele><time>2021-05-20T15:10:05Z</time><name>PT14429</name></trkpt>
<trkpt lat="53.320810" lon="06.610651"><ele>7.6</ele><time>2021-05-20T15:10:06Z</time><name>PT14430</name></trkpt>
<trkpt lat="53.320805" lon="06.610638"><ele>7.7</ele><time>2021-05-20T15:10:07Z</time><name>PT14431</name></trkpt>
<trkpt lat="53.320800" lon="06.610625"><ele>7.8</ele><time>2021-05-20T15:10:08Z</time><name>PT14432</name></trkpt>
<trkpt lat="53.320795" lon="06.610609"><ele>8</ele><time>2021-05-20T15:10:09Z</time><name>PT14433</name></trkpt>
<trkpt lat="53.320790" lon="06.610593"><ele>7.9</ele><time>2021-05-20T15:10:10Z</time><name>PT14434</name></trkpt>
<trkpt lat="53.320784" lon="06.610577"><ele>8</ele><time>2021-05-20T15:10:11Z</time><name>PT14435</name></trkpt>
<trkpt lat="53.320777" lon="06.610562"><ele>7.9</ele><time>2021-05-20T15:10:12Z</time><name>PT14436</name></trkpt>
<trkpt lat="53.320771" lon="06.610549"><ele>7.9</ele><time>2021-05-20T15:10:13Z</time><name>PT14437</name></trkpt>
<trkpt lat="53.320765" lon="06.610536"><ele>7.9</ele><time>2021-05-20T15:10:14Z</time><name>PT14438</name></trkpt>
<trkpt lat="53.320760" lon="06.610524"><ele>7.8</ele><time>2021-05-20T15:10:15Z</time><name>PT14439</name></trkpt>
<trkpt lat="53.320755" lon="06.610511"><ele>7.8</ele><time>2021-05-20T15:10:16Z</time><name>PT14440</name></trkpt>
<trkpt lat="53.320750" lon="06.610497"><ele>7.8</ele><time>2021-05-20T15:10:17Z</time><name>PT14441</name></trkpt>
<trkpt lat="53.320746" lon="06.610481"><ele>7.8</ele><time>2021-05-20T15:10:18Z</time><name>PT14442</name></trkpt>
<trkpt lat="53.320741" lon="06.610466"><ele>7.8</ele><time>2021-05-20T15:10:19Z</time><name>PT14443</name></trkpt>
<trkpt lat="53.320737" lon="06.610450"><ele>7.8</ele><time>2021-05-20T15:10:20Z</time><name>PT14444</name></trkpt>
<trkpt lat="53.320731" lon="06.610435"><ele>7.9</ele><time>2021-05-20T15:10:21Z</time><name>PT14445</name></trkpt>
<trkpt lat="53.320725" lon="06.610422"><ele>7.8</ele><time>2021-05-20T15:10:22Z</time><name>PT14446</name></trkpt>
<trkpt lat="53.320719" lon="06.610409"><ele>7.8</ele><time>2021-05-20T15:10:23Z</time><name>PT14447</name></trkpt>
<trkpt lat="53.320714" lon="06.610396"><ele>8</ele><time>2021-05-20T15:10:24Z</time><name>PT14448</name></trkpt>
<trkpt lat="53.320709" lon="06.610382"><ele>7.9</ele><time>2021-05-20T15:10:25Z</time><name>PT14449</name></trkpt>
<trkpt lat="53.320704" lon="06.610366"><ele>7.9</ele><time>2021-05-20T15:10:26Z</time><name>PT14450</name></trkpt>
<trkpt lat="53.320698" lon="06.610349"><ele>7.9</ele><time>2021-05-20T15:10:27Z</time><name>PT14451</name></trkpt>
<trkpt lat="53.320691" lon="06.610332"><ele>7.8</ele><time>2021-05-20T15:10:28Z</time><name>PT14452</name></trkpt>
<trkpt lat="53.320684" lon="06.610315"><ele>7.8</ele><time>2021-05-20T15:10:29Z</time><name>PT14453</name></trkpt>
<trkpt lat="53.320677" lon="06.610299"><ele>7.8</ele><time>2021-05-20T15:10:30Z</time><name>PT14454</name></trkpt>
<trkpt lat="53.320670" lon="06.610283"><ele>7.8</ele><time>2021-05-20T15:10:31Z</time><name>PT14455</name></trkpt>
<trkpt lat="53.320664" lon="06.610269"><ele>7.8</ele><time>2021-05-20T15:10:32Z</time><name>PT14456</name></trkpt>
<trkpt lat="53.320658" lon="06.610255"><ele>7.7</ele><time>2021-05-20T15:10:33Z</time><name>PT14457</name></trkpt>
<trkpt lat="53.320652" lon="06.610241"><ele>7.7</ele><time>2021-05-20T15:10:34Z</time><name>PT14458</name></trkpt>
<trkpt lat="53.320644" lon="06.610228"><ele>7.8</ele><time>2021-05-20T15:10:35Z</time><name>PT14459</name></trkpt>
<trkpt lat="53.320638" lon="06.610214"><ele>7.7</ele><time>2021-05-20T15:10:36Z</time><name>PT14460</name></trkpt>
<trkpt lat="53.320633" lon="06.610199"><ele>7.6</ele><time>2021-05-20T15:10:37Z</time><name>PT14461</name></trkpt>
<trkpt lat="53.320628" lon="06.610181"><ele>7.5</ele><time>2021-05-20T15:10:38Z</time><name>PT14462</name></trkpt>
<trkpt lat="53.320622" lon="06.610167"><ele>7.5</ele><time>2021-05-20T15:10:39Z</time><name>PT14463</name></trkpt>
<trkpt lat="53.320615" lon="06.610155"><ele>7.6</ele><time>2021-05-20T15:10:40Z</time><name>PT14464</name></trkpt>
<trkpt lat="53.320608" lon="06.610143"><ele>7.7</ele><time>2021-05-20T15:10:41Z</time><name>PT14465</name></trkpt>
<trkpt lat="53.320603" lon="06.610132"><ele>7.7</ele><time>2021-05-20T15:10:42Z</time><name>PT14466</name></trkpt>
<trkpt lat="53.320598" lon="06.610117"><ele>7.8</ele><time>2021-05-20T15:10:43Z</time><name>PT14467</name></trkpt>
<trkpt lat="53.320595" lon="06.610101"><ele>7.7</ele><time>2021-05-20T15:10:44Z</time><name>PT14468</name></trkpt>
<trkpt lat="53.320589" lon="06.610085"><ele>7.7</ele><time>2021-05-20T15:10:45Z</time><name>PT14469</name></trkpt>
<trkpt lat="53.320583" lon="06.610070"><ele>7.5</ele><time>2021-05-20T15:10:46Z</time><name>PT14470</name></trkpt>
<trkpt lat="53.320577" lon="06.610055"><ele>7.5</ele><time>2021-05-20T15:10:47Z</time><name>PT14471</name></trkpt>
<trkpt lat="53.320570" lon="06.610041"><ele>7.5</ele><time>2021-05-20T15:10:48Z</time><name>PT14472</name></trkpt>
<trkpt lat="53.320564" lon="06.610030"><ele>7.6</ele><time>2021-05-20T15:10:49Z</time><name>PT14473</name></trkpt>
<trkpt lat="53.320559" lon="06.610018"><ele>7.5</ele><time>2021-05-20T15:10:50Z</time><name>PT14474</name></trkpt>
<trkpt lat="53.320553" lon="06.610005"><ele>7.6</ele><time>2021-05-20T15:10:51Z</time><name>PT14475</name></trkpt>
<trkpt lat="53.320548" lon="06.609990"><ele>7.3</ele><time>2021-05-20T15:10:52Z</time><name>PT14476</name></trkpt>
<trkpt lat="53.320543" lon="06.609976"><ele>7.4</ele><time>2021-05-20T15:10:53Z</time><name>PT14477</name></trkpt>
<trkpt lat="53.320537" lon="06.609962"><ele>7.5</ele><time>2021-05-20T15:10:54Z</time><name>PT14478</name></trkpt>
<trkpt lat="53.320531" lon="06.609948"><ele>7.4</ele><time>2021-05-20T15:10:55Z</time><name>PT14479</name></trkpt>
<trkpt lat="53.320524" lon="06.609934"><ele>7.8</ele><time>2021-05-20T15:10:56Z</time><name>PT14480</name></trkpt>
<trkpt lat="53.320518" lon="06.609920"><ele>7.8</ele><time>2021-05-20T15:10:57Z</time><name>PT14481</name></trkpt>
<trkpt lat="53.320512" lon="06.609907"><ele>7.6</ele><time>2021-05-20T15:10:58Z</time><name>PT14482</name></trkpt>
<trkpt lat="53.320506" lon="06.609894"><ele>7.5</ele><time>2021-05-20T15:10:59Z</time><name>PT14483</name></trkpt>
<trkpt lat="53.320501" lon="06.609879"><ele>7.4</ele><time>2021-05-20T15:11:00Z</time><name>PT14484</name></trkpt>
<trkpt lat="53.320499" lon="06.609864"><ele>7.3</ele><time>2021-05-20T15:11:01Z</time><name>PT14485</name></trkpt>
<trkpt lat="53.320494" lon="06.609850"><ele>7.2</ele><time>2021-05-20T15:11:02Z</time><name>PT14486</name></trkpt>
<trkpt lat="53.320489" lon="06.609843"><ele>7.2</ele><time>2021-05-20T15:11:03Z</time><name>PT14487</name></trkpt>
<trkpt lat="53.320484" lon="06.609836"><ele>7.1</ele><time>2021-05-20T15:11:04Z</time><name>PT14488</name></trkpt>
<trkpt lat="53.320479" lon="06.609827"><ele>7.1</ele><time>2021-05-20T15:11:05Z</time><name>PT14489</name></trkpt>
<trkpt lat="53.320473" lon="06.609822"><ele>7</ele><time>2021-05-20T15:11:06Z</time><name>PT14490</name></trkpt>
<trkpt lat="53.320470" lon="06.609819"><ele>7.1</ele><time>2021-05-20T15:11:07Z</time><name>PT14491</name></trkpt>
<trkpt lat="53.320467" lon="06.609818"><ele>7.4</ele><time>2021-05-20T15:11:08Z</time><name>PT14492</name></trkpt>
<trkpt lat="53.320464" lon="06.609816"><ele>7.5</ele><time>2021-05-20T15:11:09Z</time><name>PT14493</name></trkpt>
<trkpt lat="53.320461" lon="06.609819"><ele>7.8</ele><time>2021-05-20T15:11:10Z</time><name>PT14494</name></trkpt>
<trkpt lat="53.320457" lon="06.609821"><ele>8</ele><time>2021-05-20T15:11:11Z</time><name>PT14495</name></trkpt>
<trkpt lat="53.320457" lon="06.609816"><ele>7.9</ele><time>2021-05-20T15:11:12Z</time><name>PT14496</name></trkpt>
<trkpt lat="53.320457" lon="06.609811"><ele>7.8</ele><time>2021-05-20T15:11:13Z</time><name>PT14497</name></trkpt>
<trkpt lat="53.320457" lon="06.609812"><ele>7.7</ele><time>2021-05-20T15:11:14Z</time><name>PT14498</name></trkpt>
<trkpt lat="53.320457" lon="06.609811"><ele>7.6</ele><time>2021-05-20T15:11:15Z</time><name>PT14499</name></trkpt>
<trkpt lat="53.320457" lon="06.609810"><ele>7.6</ele><time>2021-05-20T15:11:16Z</time><name>PT14500</name></trkpt>
<trkpt lat="53.320456" lon="06.609809"><ele>7.6</ele><time>2021-05-20T15:11:17Z</time><name>PT14501</name></trkpt>
<trkpt lat="53.320456" lon="06.609809"><ele>7.7</ele><time>2021-05-20T15:11:18Z</time><name>PT14502</name></trkpt>
<trkpt lat="53.320456" lon="06.609800"><ele>7.7</ele><time>2021-05-20T15:11:44Z</time><name>PT14503</name></trkpt>
<trkpt lat="53.320455" lon="06.609784"><ele>7.5</ele><time>2021-05-20T15:11:45Z</time><name>PT14504</name></trkpt>
<trkpt lat="53.320454" lon="06.609768"><ele>7.4</ele><time>2021-05-20T15:11:46Z</time><name>PT14505</name></trkpt>
<trkpt lat="53.320455" lon="06.609756"><ele>7.5</ele><time>2021-05-20T15:11:47Z</time><name>PT14506</name></trkpt>
<trkpt lat="53.320457" lon="06.609747"><ele>7.4</ele><time>2021-05-20T15:11:48Z</time><name>PT14507</name></trkpt>
<trkpt lat="53.320456" lon="06.609739"><ele>7.5</ele><time>2021-05-20T15:11:49Z</time><name>PT14508</name></trkpt>
<trkpt lat="53.320452" lon="06.609733"><ele>7.7</ele><time>2021-05-20T15:11:50Z</time><name>PT14509</name></trkpt>
<trkpt lat="53.320447" lon="06.609724"><ele>7.6</ele><time>2021-05-20T15:11:51Z</time><name>PT14510</name></trkpt>
<trkpt lat="53.320441" lon="06.609710"><ele>7.7</ele><time>2021-05-20T15:11:52Z</time><name>PT14511</name></trkpt>
<trkpt lat="53.320436" lon="06.609698"><ele>7.7</ele><time>2021-05-20T15:11:53Z</time><name>PT14512</name></trkpt>
<trkpt lat="53.320432" lon="06.609686"><ele>7.6</ele><time>2021-05-20T15:11:54Z</time><name>PT14513</name></trkpt>
<trkpt lat="53.320430" lon="06.609676"><ele>7.6</ele><time>2021-05-20T15:11:55Z</time><name>PT14514</name></trkpt>
<trkpt lat="53.320425" lon="06.609668"><ele>7.6</ele><time>2021-05-20T15:11:56Z</time><name>PT14515</name></trkpt>
<trkpt lat="53.320421" lon="06.609658"><ele>7.5</ele><time>2021-05-20T15:11:57Z</time><name>PT14516</name></trkpt>
<trkpt lat="53.320414" lon="06.609647"><ele>7.7</ele><time>2021-05-20T15:11:58Z</time><name>PT14517</name></trkpt>
<trkpt lat="53.320407" lon="06.609635"><ele>7.7</ele><time>2021-05-20T15:11:59Z</time><name>PT14518</name></trkpt>
<trkpt lat="53.320401" lon="06.609624"><ele>7.7</ele><time>2021-05-20T15:12:00Z</time><name>PT14519</name></trkpt>
<trkpt lat="53.320395" lon="06.609613"><ele>7.7</ele><time>2021-05-20T15:12:01Z</time><name>PT14520</name></trkpt>
<trkpt lat="53.320392" lon="06.609601"><ele>7.6</ele><time>2021-05-20T15:12:02Z</time><name>PT14521</name></trkpt>
<trkpt lat="53.320386" lon="06.609590"><ele>7.5</ele><time>2021-05-20T15:12:03Z</time><name>PT14522</name></trkpt>
<trkpt lat="53.320379" lon="06.609580"><ele>7.5</ele><time>2021-05-20T15:12:04Z</time><name>PT14523</name></trkpt>
<trkpt lat="53.320376" lon="06.609571"><ele>7.3</ele><time>2021-05-20T15:12:05Z</time><name>PT14524</name></trkpt>
<trkpt lat="53.320372" lon="06.609562"><ele>7.3</ele><time>2021-05-20T15:12:06Z</time><name>PT14525</name></trkpt>
<trkpt lat="53.320366" lon="06.609553"><ele>7.3</ele><time>2021-05-20T15:12:07Z</time><name>PT14526</name></trkpt>
<trkpt lat="53.320359" lon="06.609541"><ele>7.3</ele><time>2021-05-20T15:12:08Z</time><name>PT14527</name></trkpt>
<trkpt lat="53.320351" lon="06.609529"><ele>7.3</ele><time>2021-05-20T15:12:09Z</time><name>PT14528</name></trkpt>
<trkpt lat="53.320343" lon="06.609519"><ele>7.6</ele><time>2021-05-20T15:12:10Z</time><name>PT14529</name></trkpt>
<trkpt lat="53.320336" lon="06.609510"><ele>7.7</ele><time>2021-05-20T15:12:11Z</time><name>PT14530</name></trkpt>
<trkpt lat="53.320331" lon="06.609499"><ele>7.6</ele><time>2021-05-20T15:12:12Z</time><name>PT14531</name></trkpt>
<trkpt lat="53.320325" lon="06.609484"><ele>7.8</ele><time>2021-05-20T15:12:13Z</time><name>PT14532</name></trkpt>
<trkpt lat="53.320319" lon="06.609471"><ele>7.8</ele><time>2021-05-20T15:12:14Z</time><name>PT14533</name></trkpt>
<trkpt lat="53.320311" lon="06.609458"><ele>7.8</ele><time>2021-05-20T15:12:15Z</time><name>PT14534</name></trkpt>
<trkpt lat="53.320303" lon="06.609447"><ele>7.7</ele><time>2021-05-20T15:12:16Z</time><name>PT14535</name></trkpt>
<trkpt lat="53.320297" lon="06.609434"><ele>7.7</ele><time>2021-05-20T15:12:17Z</time><name>PT14536</name></trkpt>
<trkpt lat="53.320293" lon="06.609422"><ele>7.6</ele><time>2021-05-20T15:12:18Z</time><name>PT14537</name></trkpt>
<trkpt lat="53.320288" lon="06.609407"><ele>7.6</ele><time>2021-05-20T15:12:19Z</time><name>PT14538</name></trkpt>
<trkpt lat="53.320284" lon="06.609393"><ele>7.3</ele><time>2021-05-20T15:12:20Z</time><name>PT14539</name></trkpt>
<trkpt lat="53.320279" lon="06.609380"><ele>7.2</ele><time>2021-05-20T15:12:21Z</time><name>PT14540</name></trkpt>
<trkpt lat="53.320272" lon="06.609371"><ele>7.2</ele><time>2021-05-20T15:12:22Z</time><name>PT14541</name></trkpt>
<trkpt lat="53.320266" lon="06.609361"><ele>7.1</ele><time>2021-05-20T15:12:23Z</time><name>PT14542</name></trkpt>
<trkpt lat="53.320261" lon="06.609349"><ele>7</ele><time>2021-05-20T15:12:24Z</time><name>PT14543</name></trkpt>
<trkpt lat="53.320256" lon="06.609335"><ele>7.2</ele><time>2021-05-20T15:12:25Z</time><name>PT14544</name></trkpt>
<trkpt lat="53.320250" lon="06.609322"><ele>7.3</ele><time>2021-05-20T15:12:26Z</time><name>PT14545</name></trkpt>
<trkpt lat="53.320243" lon="06.609310"><ele>7.3</ele><time>2021-05-20T15:12:27Z</time><name>PT14546</name></trkpt>
<trkpt lat="53.320235" lon="06.609301"><ele>7.5</ele><time>2021-05-20T15:12:28Z</time><name>PT14547</name></trkpt>
<trkpt lat="53.320228" lon="06.609293"><ele>7.5</ele><time>2021-05-20T15:12:29Z</time><name>PT14548</name></trkpt>
<trkpt lat="53.320221" lon="06.609283"><ele>7.6</ele><time>2021-05-20T15:12:30Z</time><name>PT14549</name></trkpt>
<trkpt lat="53.320215" lon="06.609269"><ele>7.5</ele><time>2021-05-20T15:12:31Z</time><name>PT14550</name></trkpt>
<trkpt lat="53.320207" lon="06.609254"><ele>7.7</ele><time>2021-05-20T15:12:32Z</time><name>PT14551</name></trkpt>
<trkpt lat="53.320201" lon="06.609239"><ele>7.7</ele><time>2021-05-20T15:12:33Z</time><name>PT14552</name></trkpt>
<trkpt lat="53.320193" lon="06.609224"><ele>7.6</ele><time>2021-05-20T15:12:34Z</time><name>PT14553</name></trkpt>
<trkpt lat="53.320185" lon="06.609211"><ele>7.7</ele><time>2021-05-20T15:12:35Z</time><name>PT14554</name></trkpt>
<trkpt lat="53.320179" lon="06.609201"><ele>7.8</ele><time>2021-05-20T15:12:36Z</time><name>PT14555</name></trkpt>
<trkpt lat="53.320173" lon="06.609189"><ele>7.7</ele><time>2021-05-20T15:12:37Z</time><name>PT14556</name></trkpt>
<trkpt lat="53.320168" lon="06.609176"><ele>7.8</ele><time>2021-05-20T15:12:38Z</time><name>PT14557</name></trkpt>
<trkpt lat="53.320163" lon="06.609162"><ele>7.8</ele><time>2021-05-20T15:12:39Z</time><name>PT14558</name></trkpt>
<trkpt lat="53.320157" lon="06.609151"><ele>7.7</ele><time>2021-05-20T15:12:40Z</time><name>PT14559</name></trkpt>
<trkpt lat="53.320151" lon="06.609143"><ele>7.7</ele><time>2021-05-20T15:12:41Z</time><name>PT14560</name></trkpt>
<trkpt lat="53.320147" lon="06.609134"><ele>7.8</ele><time>2021-05-20T15:12:42Z</time><name>PT14561</name></trkpt>
<trkpt lat="53.320141" lon="06.609123"><ele>7.5</ele><time>2021-05-20T15:12:43Z</time><name>PT14562</name></trkpt>
<trkpt lat="53.320135" lon="06.609111"><ele>7.5</ele><time>2021-05-20T15:12:44Z</time><name>PT14563</name></trkpt>
<trkpt lat="53.320129" lon="06.609097"><ele>7.4</ele><time>2021-05-20T15:12:45Z</time><name>PT14564</name></trkpt>
<trkpt lat="53.320122" lon="06.609085"><ele>7.2</ele><time>2021-05-20T15:12:46Z</time><name>PT14565</name></trkpt>
<trkpt lat="53.320116" lon="06.609073"><ele>7.2</ele><time>2021-05-20T15:12:47Z</time><name>PT14566</name></trkpt>
<trkpt lat="53.320110" lon="06.609062"><ele>7.3</ele><time>2021-05-20T15:12:48Z</time><name>PT14567</name></trkpt>
<trkpt lat="53.320104" lon="06.609052"><ele>7.5</ele><time>2021-05-20T15:12:49Z</time><name>PT14568</name></trkpt>
<trkpt lat="53.320097" lon="06.609042"><ele>7.7</ele><time>2021-05-20T15:12:50Z</time><name>PT14569</name></trkpt>
<trkpt lat="53.320092" lon="06.609031"><ele>7.8</ele><time>2021-05-20T15:12:51Z</time><name>PT14570</name></trkpt>
<trkpt lat="53.320085" lon="06.609018"><ele>7.8</ele><time>2021-05-20T15:12:52Z</time><name>PT14571</name></trkpt>
<trkpt lat="53.320079" lon="06.609004"><ele>7.7</ele><time>2021-05-20T15:12:53Z</time><name>PT14572</name></trkpt>
<trkpt lat="53.320071" lon="06.608994"><ele>7.5</ele><time>2021-05-20T15:12:54Z</time><name>PT14573</name></trkpt>
<trkpt lat="53.320063" lon="06.608982"><ele>7.2</ele><time>2021-05-20T15:12:55Z</time><name>PT14574</name></trkpt>
<trkpt lat="53.320057" lon="06.608969"><ele>7.3</ele><time>2021-05-20T15:12:56Z</time><name>PT14575</name></trkpt>
<trkpt lat="53.320048" lon="06.608958"><ele>7.1</ele><time>2021-05-20T15:12:57Z</time><name>PT14576</name></trkpt>
<trkpt lat="53.320041" lon="06.608947"><ele>7</ele><time>2021-05-20T15:12:58Z</time><name>PT14577</name></trkpt>
<trkpt lat="53.320034" lon="06.608936"><ele>7.2</ele><time>2021-05-20T15:12:59Z</time><name>PT14578</name></trkpt>
<trkpt lat="53.320027" lon="06.608923"><ele>7.1</ele><time>2021-05-20T15:13:00Z</time><name>PT14579</name></trkpt>
<trkpt lat="53.320021" lon="06.608910"><ele>7.2</ele><time>2021-05-20T15:13:01Z</time><name>PT14580</name></trkpt>
<trkpt lat="53.320014" lon="06.608896"><ele>7.3</ele><time>2021-05-20T15:13:02Z</time><name>PT14581</name></trkpt>
<trkpt lat="53.320007" lon="06.608881"><ele>7.2</ele><time>2021-05-20T15:13:03Z</time><name>PT14582</name></trkpt>
<trkpt lat="53.320000" lon="06.608867"><ele>7.1</ele><time>2021-05-20T15:13:04Z</time><name>PT14583</name></trkpt>
<trkpt lat="53.319992" lon="06.608852"><ele>7</ele><time>2021-05-20T15:13:05Z</time><name>PT14584</name></trkpt>
<trkpt lat="53.319985" lon="06.608839"><ele>7.1</ele><time>2021-05-20T15:13:06Z</time><name>PT14585</name></trkpt>
<trkpt lat="53.319977" lon="06.608828"><ele>7</ele><time>2021-05-20T15:13:07Z</time><name>PT14586</name></trkpt>
<trkpt lat="53.319970" lon="06.608817"><ele>7.2</ele><time>2021-05-20T15:13:08Z</time><name>PT14587</name></trkpt>
<trkpt lat="53.319963" lon="06.608804"><ele>7.4</ele><time>2021-05-20T15:13:09Z</time><name>PT14588</name></trkpt>
<trkpt lat="53.319957" lon="06.608790"><ele>7.5</ele><time>2021-05-20T15:13:10Z</time><name>PT14589</name></trkpt>
<trkpt lat="53.319952" lon="06.608776"><ele>7.6</ele><time>2021-05-20T15:13:11Z</time><name>PT14590</name></trkpt>
<trkpt lat="53.319947" lon="06.608763"><ele>7.7</ele><time>2021-05-20T15:13:12Z</time><name>PT14591</name></trkpt>
<trkpt lat="53.319939" lon="06.608751"><ele>7.8</ele><time>2021-05-20T15:13:13Z</time><name>PT14592</name></trkpt>
<trkpt lat="53.319932" lon="06.608740"><ele>7.8</ele><time>2021-05-20T15:13:14Z</time><name>PT14593</name></trkpt>
<trkpt lat="53.319927" lon="06.608730"><ele>7.7</ele><time>2021-05-20T15:13:15Z</time><name>PT14594</name></trkpt>
<trkpt lat="53.319920" lon="06.608717"><ele>7.7</ele><time>2021-05-20T15:13:16Z</time><name>PT14595</name></trkpt>
<trkpt lat="53.319914" lon="06.608702"><ele>7.7</ele><time>2021-05-20T15:13:17Z</time><name>PT14596</name></trkpt>
<trkpt lat="53.319907" lon="06.608688"><ele>7.4</ele><time>2021-05-20T15:13:18Z</time><name>PT14597</name></trkpt>
<trkpt lat="53.319899" lon="06.608674"><ele>7.4</ele><time>2021-05-20T15:13:19Z</time><name>PT14598</name></trkpt>
<trkpt lat="53.319890" lon="06.608660"><ele>7.5</ele><time>2021-05-20T15:13:20Z</time><name>PT14599</name></trkpt>
<trkpt lat="53.319882" lon="06.608647"><ele>7.5</ele><time>2021-05-20T15:13:21Z</time><name>PT14600</name></trkpt>
<trkpt lat="53.319875" lon="06.608637"><ele>7.5</ele><time>2021-05-20T15:13:22Z</time><name>PT14601</name></trkpt>
<trkpt lat="53.319870" lon="06.608624"><ele>7.6</ele><time>2021-05-20T15:13:23Z</time><name>PT14602</name></trkpt>
<trkpt lat="53.319866" lon="06.608610"><ele>7.5</ele><time>2021-05-20T15:13:24Z</time><name>PT14603</name></trkpt>
<trkpt lat="53.319859" lon="06.608596"><ele>7.5</ele><time>2021-05-20T15:13:25Z</time><name>PT14604</name></trkpt>
<trkpt lat="53.319851" lon="06.608580"><ele>7.5</ele><time>2021-05-20T15:13:26Z</time><name>PT14605</name></trkpt>
<trkpt lat="53.319843" lon="06.608564"><ele>7.5</ele><time>2021-05-20T15:13:27Z</time><name>PT14606</name></trkpt>
<trkpt lat="53.319835" lon="06.608550"><ele>7.7</ele><time>2021-05-20T15:13:28Z</time><name>PT14607</name></trkpt>
<trkpt lat="53.319829" lon="06.608537"><ele>7.5</ele><time>2021-05-20T15:13:29Z</time><name>PT14608</name></trkpt>
<trkpt lat="53.319823" lon="06.608530"><ele>7.4</ele><time>2021-05-20T15:13:30Z</time><name>PT14609</name></trkpt>
<trkpt lat="53.319818" lon="06.608521"><ele>7.4</ele><time>2021-05-20T15:13:31Z</time><name>PT14610</name></trkpt>
<trkpt lat="53.319809" lon="06.608507"><ele>7.4</ele><time>2021-05-20T15:13:32Z</time><name>PT14611</name></trkpt>
<trkpt lat="53.319801" lon="06.608489"><ele>7.4</ele><time>2021-05-20T15:13:33Z</time><name>PT14612</name></trkpt>
<trkpt lat="53.319794" lon="06.608474"><ele>7.5</ele><time>2021-05-20T15:13:34Z</time><name>PT14613</name></trkpt>
<trkpt lat="53.319786" lon="06.608459"><ele>7.4</ele><time>2021-05-20T15:13:35Z</time><name>PT14614</name></trkpt>
<trkpt lat="53.319779" lon="06.608448"><ele>7.4</ele><time>2021-05-20T15:13:36Z</time><name>PT14615</name></trkpt>
<trkpt lat="53.319773" lon="06.608439"><ele>7.4</ele><time>2021-05-20T15:13:37Z</time><name>PT14616</name></trkpt>
<trkpt lat="53.319768" lon="06.608426"><ele>7.3</ele><time>2021-05-20T15:13:38Z</time><name>PT14617</name></trkpt>
<trkpt lat="53.319762" lon="06.608412"><ele>7.3</ele><time>2021-05-20T15:13:39Z</time><name>PT14618</name></trkpt>
<trkpt lat="53.319756" lon="06.608398"><ele>7.4</ele><time>2021-05-20T15:13:40Z</time><name>PT14619</name></trkpt>
<trkpt lat="53.319748" lon="06.608386"><ele>7.5</ele><time>2021-05-20T15:13:41Z</time><name>PT14620</name></trkpt>
<trkpt lat="53.319741" lon="06.608376"><ele>7.7</ele><time>2021-05-20T15:13:42Z</time><name>PT14621</name></trkpt>
<trkpt lat="53.319735" lon="06.608367"><ele>7.5</ele><time>2021-05-20T15:13:43Z</time><name>PT14622</name></trkpt>
<trkpt lat="53.319729" lon="06.608355"><ele>7.6</ele><time>2021-05-20T15:13:44Z</time><name>PT14623</name></trkpt>
<trkpt lat="53.319722" lon="06.608342"><ele>7.7</ele><time>2021-05-20T15:13:45Z</time><name>PT14624</name></trkpt>
<trkpt lat="53.319715" lon="06.608328"><ele>7.4</ele><time>2021-05-20T15:13:46Z</time><name>PT14625</name></trkpt>
<trkpt lat="53.319707" lon="06.608316"><ele>7.5</ele><time>2021-05-20T15:13:47Z</time><name>PT14626</name></trkpt>
<trkpt lat="53.319699" lon="06.608305"><ele>7.4</ele><time>2021-05-20T15:13:48Z</time><name>PT14627</name></trkpt>
<trkpt lat="53.319691" lon="06.608293"><ele>7.5</ele><time>2021-05-20T15:13:49Z</time><name>PT14628</name></trkpt>
<trkpt lat="53.319684" lon="06.608282"><ele>7.4</ele><time>2021-05-20T15:13:50Z</time><name>PT14629</name></trkpt>
<trkpt lat="53.319677" lon="06.608269"><ele>7.4</ele><time>2021-05-20T15:13:51Z</time><name>PT14630</name></trkpt>
<trkpt lat="53.319670" lon="06.608255"><ele>7.6</ele><time>2021-05-20T15:13:52Z</time><name>PT14631</name></trkpt>
<trkpt lat="53.319663" lon="06.608241"><ele>7.5</ele><time>2021-05-20T15:13:53Z</time><name>PT14632</name></trkpt>
<trkpt lat="53.319655" lon="06.608227"><ele>7.4</ele><time>2021-05-20T15:13:54Z</time><name>PT14633</name></trkpt>
<trkpt lat="53.319647" lon="06.608215"><ele>7.4</ele><time>2021-05-20T15:13:55Z</time><name>PT14634</name></trkpt>
<trkpt lat="53.319639" lon="06.608204"><ele>7.5</ele><time>2021-05-20T15:13:56Z</time><name>PT14635</name></trkpt>
<trkpt lat="53.319632" lon="06.608194"><ele>7.3</ele><time>2021-05-20T15:13:57Z</time><name>PT14636</name></trkpt>
<trkpt lat="53.319625" lon="06.608182"><ele>7.4</ele><time>2021-05-20T15:13:58Z</time><name>PT14637</name></trkpt>
<trkpt lat="53.319619" lon="06.608168"><ele>7.5</ele><time>2021-05-20T15:13:59Z</time><name>PT14638</name></trkpt>
<trkpt lat="53.319613" lon="06.608154"><ele>7.5</ele><time>2021-05-20T15:14:00Z</time><name>PT14639</name></trkpt>
<trkpt lat="53.319605" lon="06.608142"><ele>7.6</ele><time>2021-05-20T15:14:01Z</time><name>PT14640</name></trkpt>
<trkpt lat="53.319596" lon="06.608131"><ele>7.7</ele><time>2021-05-20T15:14:02Z</time><name>PT14641</name></trkpt>
<trkpt lat="53.319588" lon="06.608120"><ele>7.7</ele><time>2021-05-20T15:14:03Z</time><name>PT14642</name></trkpt>
<trkpt lat="53.319579" lon="06.608111"><ele>7.6</ele><time>2021-05-20T15:14:04Z</time><name>PT14643</name></trkpt>
<trkpt lat="53.319572" lon="06.608100"><ele>7.7</ele><time>2021-05-20T15:14:05Z</time><name>PT14644</name></trkpt>
<trkpt lat="53.319564" lon="06.608088"><ele>7.5</ele><time>2021-05-20T15:14:06Z</time><name>PT14645</name></trkpt>
<trkpt lat="53.319556" lon="06.608076"><ele>7.5</ele><time>2021-05-20T15:14:07Z</time><name>PT14646</name></trkpt>
<trkpt lat="53.319548" lon="06.608065"><ele>7.5</ele><time>2021-05-20T15:14:08Z</time><name>PT14647</name></trkpt>
<trkpt lat="53.319540" lon="06.608054"><ele>7.3</ele><time>2021-05-20T15:14:09Z</time><name>PT14648</name></trkpt>
<trkpt lat="53.319530" lon="06.608047"><ele>7.3</ele><time>2021-05-20T15:14:10Z</time><name>PT14649</name></trkpt>
<trkpt lat="53.319522" lon="06.608042"><ele>7.3</ele><time>2021-05-20T15:14:11Z</time><name>PT14650</name></trkpt>
<trkpt lat="53.319514" lon="06.608032"><ele>7.3</ele><time>2021-05-20T15:14:12Z</time><name>PT14651</name></trkpt>
<trkpt lat="53.319505" lon="06.608021"><ele>7.5</ele><time>2021-05-20T15:14:13Z</time><name>PT14652</name></trkpt>
<trkpt lat="53.319496" lon="06.608012"><ele>7.5</ele><time>2021-05-20T15:14:14Z</time><name>PT14653</name></trkpt>
<trkpt lat="53.319486" lon="06.608004"><ele>7.8</ele><time>2021-05-20T15:14:15Z</time><name>PT14654</name></trkpt>
<trkpt lat="53.319477" lon="06.607997"><ele>7.9</ele><time>2021-05-20T15:14:16Z</time><name>PT14655</name></trkpt>
<trkpt lat="53.319467" lon="06.607994"><ele>8</ele><time>2021-05-20T15:14:17Z</time><name>PT14656</name></trkpt>
<trkpt lat="53.319459" lon="06.607992"><ele>8</ele><time>2021-05-20T15:14:18Z</time><name>PT14657</name></trkpt>
<trkpt lat="53.319450" lon="06.607990"><ele>8</ele><time>2021-05-20T15:14:19Z</time><name>PT14658</name></trkpt>
<trkpt lat="53.319439" lon="06.607988"><ele>7.7</ele><time>2021-05-20T15:14:20Z</time><name>PT14659</name></trkpt>
<trkpt lat="53.319428" lon="06.607986"><ele>7.4</ele><time>2021-05-20T15:14:21Z</time><name>PT14660</name></trkpt>
<trkpt lat="53.319416" lon="06.607985"><ele>7.5</ele><time>2021-05-20T15:14:22Z</time><name>PT14661</name></trkpt>
<trkpt lat="53.319405" lon="06.607986"><ele>7.6</ele><time>2021-05-20T15:14:23Z</time><name>PT14662</name></trkpt>
<trkpt lat="53.319395" lon="06.607991"><ele>7.8</ele><time>2021-05-20T15:14:24Z</time><name>PT14663</name></trkpt>
<trkpt lat="53.319386" lon="06.607997"><ele>7.8</ele><time>2021-05-20T15:14:25Z</time><name>PT14664</name></trkpt>
<trkpt lat="53.319377" lon="06.608002"><ele>7.8</ele><time>2021-05-20T15:14:26Z</time><name>PT14665</name></trkpt>
<trkpt lat="53.319367" lon="06.608005"><ele>7.8</ele><time>2021-05-20T15:14:27Z</time><name>PT14666</name></trkpt>
<trkpt lat="53.319357" lon="06.608007"><ele>7.8</ele><time>2021-05-20T15:14:28Z</time><name>PT14667</name></trkpt>
<trkpt lat="53.319346" lon="06.608011"><ele>7.8</ele><time>2021-05-20T15:14:29Z</time><name>PT14668</name></trkpt>
<trkpt lat="53.319336" lon="06.608017"><ele>8</ele><time>2021-05-20T15:14:30Z</time><name>PT14669</name></trkpt>
<trkpt lat="53.319326" lon="06.608022"><ele>8.2</ele><time>2021-05-20T15:14:31Z</time><name>PT14670</name></trkpt>
<trkpt lat="53.319316" lon="06.608029"><ele>8</ele><time>2021-05-20T15:14:32Z</time><name>PT14671</name></trkpt>
<trkpt lat="53.319308" lon="06.608036"><ele>8.1</ele><time>2021-05-20T15:14:33Z</time><name>PT14672</name></trkpt>
<trkpt lat="53.319300" lon="06.608041"><ele>8.3</ele><time>2021-05-20T15:14:34Z</time><name>PT14673</name></trkpt>
<trkpt lat="53.319289" lon="06.608046"><ele>8.3</ele><time>2021-05-20T15:14:35Z</time><name>PT14674</name></trkpt>
<trkpt lat="53.319279" lon="06.608050"><ele>8.3</ele><time>2021-05-20T15:14:36Z</time><name>PT14675</name></trkpt>
<trkpt lat="53.319268" lon="06.608054"><ele>8.4</ele><time>2021-05-20T15:14:37Z</time><name>PT14676</name></trkpt>
<trkpt lat="53.319259" lon="06.608061"><ele>8.2</ele><time>2021-05-20T15:14:38Z</time><name>PT14677</name></trkpt>
<trkpt lat="53.319251" lon="06.608068"><ele>8.1</ele><time>2021-05-20T15:14:39Z</time><name>PT14678</name></trkpt>
<trkpt lat="53.319242" lon="06.608073"><ele>8.2</ele><time>2021-05-20T15:14:40Z</time><name>PT14679</name></trkpt>
<trkpt lat="53.319235" lon="06.608077"><ele>8</ele><time>2021-05-20T15:14:41Z</time><name>PT14680</name></trkpt>
<trkpt lat="53.319226" lon="06.608080"><ele>8.1</ele><time>2021-05-20T15:14:42Z</time><name>PT14681</name></trkpt>
<trkpt lat="53.319216" lon="06.608084"><ele>8.1</ele><time>2021-05-20T15:14:43Z</time><name>PT14682</name></trkpt>
<trkpt lat="53.319207" lon="06.608088"><ele>7.9</ele><time>2021-05-20T15:14:44Z</time><name>PT14683</name></trkpt>
<trkpt lat="53.319196" lon="06.608092"><ele>7.9</ele><time>2021-05-20T15:14:45Z</time><name>PT14684</name></trkpt>
<trkpt lat="53.319186" lon="06.608095"><ele>8</ele><time>2021-05-20T15:14:46Z</time><name>PT14685</name></trkpt>
<trkpt lat="53.319178" lon="06.608099"><ele>8</ele><time>2021-05-20T15:14:47Z</time><name>PT14686</name></trkpt>
<trkpt lat="53.319171" lon="06.608105"><ele>8.1</ele><time>2021-05-20T15:14:48Z</time><name>PT14687</name></trkpt>
<trkpt lat="53.319162" lon="06.608111"><ele>8.3</ele><time>2021-05-20T15:14:49Z</time><name>PT14688</name></trkpt>
<trkpt lat="53.319153" lon="06.608117"><ele>8.3</ele><time>2021-05-20T15:14:50Z</time><name>PT14689</name></trkpt>
<trkpt lat="53.319144" lon="06.608122"><ele>8.2</ele><time>2021-05-20T15:14:51Z</time><name>PT14690</name></trkpt>
<trkpt lat="53.319134" lon="06.608126"><ele>8.1</ele><time>2021-05-20T15:14:52Z</time><name>PT14691</name></trkpt>
<trkpt lat="53.319124" lon="06.608131"><ele>8.3</ele><time>2021-05-20T15:14:53Z</time><name>PT14692</name></trkpt>
<trkpt lat="53.319116" lon="06.608134"><ele>8.3</ele><time>2021-05-20T15:14:54Z</time><name>PT14693</name></trkpt>
<trkpt lat="53.319108" lon="06.608135"><ele>8.2</ele><time>2021-05-20T15:14:55Z</time><name>PT14694</name></trkpt>
<trkpt lat="53.319099" lon="06.608137"><ele>8.3</ele><time>2021-05-20T15:14:56Z</time><name>PT14695</name></trkpt>
<trkpt lat="53.319089" lon="06.608137"><ele>8.3</ele><time>2021-05-20T15:14:57Z</time><name>PT14696</name></trkpt>
<trkpt lat="53.319079" lon="06.608137"><ele>8.1</ele><time>2021-05-20T15:14:58Z</time><name>PT14697</name></trkpt>
<trkpt lat="53.319069" lon="06.608135"><ele>8.2</ele><time>2021-05-20T15:14:59Z</time><name>PT14698</name></trkpt>
<trkpt lat="53.319060" lon="06.608133"><ele>8.3</ele><time>2021-05-20T15:15:00Z</time><name>PT14699</name></trkpt>
<trkpt lat="53.319051" lon="06.608132"><ele>8.3</ele><time>2021-05-20T15:15:01Z</time><name>PT14700</name></trkpt>
<trkpt lat="53.319040" lon="06.608130"><ele>8.6</ele><time>2021-05-20T15:15:02Z</time><name>PT14701</name></trkpt>
<trkpt lat="53.319030" lon="06.608126"><ele>8.7</ele><time>2021-05-20T15:15:03Z</time><name>PT14702</name></trkpt>
<trkpt lat="53.319020" lon="06.608123"><ele>8.7</ele><time>2021-05-20T15:15:04Z</time><name>PT14703</name></trkpt>
<trkpt lat="53.319010" lon="06.608120"><ele>8.5</ele><time>2021-05-20T15:15:05Z</time><name>PT14704</name></trkpt>
<trkpt lat="53.319001" lon="06.608119"><ele>8.3</ele><time>2021-05-20T15:15:06Z</time><name>PT14705</name></trkpt>
<trkpt lat="53.318993" lon="06.608115"><ele>7.9</ele><time>2021-05-20T15:15:07Z</time><name>PT14706</name></trkpt>
<trkpt lat="53.318985" lon="06.608107"><ele>7.9</ele><time>2021-05-20T15:15:08Z</time><name>PT14707</name></trkpt>
<trkpt lat="53.318977" lon="06.608096"><ele>7.6</ele><time>2021-05-20T15:15:09Z</time><name>PT14708</name></trkpt>
<trkpt lat="53.318969" lon="06.608086"><ele>7.6</ele><time>2021-05-20T15:15:10Z</time><name>PT14709</name></trkpt>
<trkpt lat="53.318960" lon="06.608073"><ele>7.7</ele><time>2021-05-20T15:15:11Z</time><name>PT14710</name></trkpt>
<trkpt lat="53.318953" lon="06.608061"><ele>7.8</ele><time>2021-05-20T15:15:12Z</time><name>PT14711</name></trkpt>
<trkpt lat="53.318947" lon="06.608049"><ele>8.1</ele><time>2021-05-20T15:15:13Z</time><name>PT14712</name></trkpt>
<trkpt lat="53.318942" lon="06.608034"><ele>8</ele><time>2021-05-20T15:15:14Z</time><name>PT14713</name></trkpt>
<trkpt lat="53.318938" lon="06.608018"><ele>8.1</ele><time>2021-05-20T15:15:15Z</time><name>PT14714</name></trkpt>
<trkpt lat="53.318933" lon="06.608004"><ele>8</ele><time>2021-05-20T15:15:16Z</time><name>PT14715</name></trkpt>
<trkpt lat="53.318926" lon="06.607991"><ele>7.8</ele><time>2021-05-20T15:15:17Z</time><name>PT14716</name></trkpt>
<trkpt lat="53.318919" lon="06.607981"><ele>7.8</ele><time>2021-05-20T15:15:18Z</time><name>PT14717</name></trkpt>
<trkpt lat="53.318913" lon="06.607971"><ele>7.8</ele><time>2021-05-20T15:15:19Z</time><name>PT14718</name></trkpt>
<trkpt lat="53.318908" lon="06.607957"><ele>7.8</ele><time>2021-05-20T15:15:20Z</time><name>PT14719</name></trkpt>
<trkpt lat="53.318905" lon="06.607941"><ele>7.8</ele><time>2021-05-20T15:15:21Z</time><name>PT14720</name></trkpt>
<trkpt lat="53.318900" lon="06.607925"><ele>7.8</ele><time>2021-05-20T15:15:22Z</time><name>PT14721</name></trkpt>
<trkpt lat="53.318893" lon="06.607910"><ele>7.7</ele><time>2021-05-20T15:15:23Z</time><name>PT14722</name></trkpt>
<trkpt lat="53.318887" lon="06.607898"><ele>7.7</ele><time>2021-05-20T15:15:24Z</time><name>PT14723</name></trkpt>
<trkpt lat="53.318882" lon="06.607886"><ele>7.7</ele><time>2021-05-20T15:15:25Z</time><name>PT14724</name></trkpt>
<trkpt lat="53.318878" lon="06.607873"><ele>7.8</ele><time>2021-05-20T15:15:26Z</time><name>PT14725</name></trkpt>
<trkpt lat="53.318874" lon="06.607859"><ele>7.8</ele><time>2021-05-20T15:15:27Z</time><name>PT14726</name></trkpt>
<trkpt lat="53.318870" lon="06.607846"><ele>7.8</ele><time>2021-05-20T15:15:28Z</time><name>PT14727</name></trkpt>
<trkpt lat="53.318866" lon="06.607833"><ele>7.7</ele><time>2021-05-20T15:15:29Z</time><name>PT14728</name></trkpt>
<trkpt lat="53.318861" lon="06.607821"><ele>7.5</ele><time>2021-05-20T15:15:30Z</time><name>PT14729</name></trkpt>
<trkpt lat="53.318857" lon="06.607808"><ele>7.4</ele><time>2021-05-20T15:15:31Z</time><name>PT14730</name></trkpt>
<trkpt lat="53.318853" lon="06.607792"><ele>7.3</ele><time>2021-05-20T15:15:32Z</time><name>PT14731</name></trkpt>
<trkpt lat="53.318849" lon="06.607776"><ele>7.4</ele><time>2021-05-20T15:15:33Z</time><name>PT14732</name></trkpt>
<trkpt lat="53.318844" lon="06.607760"><ele>7.1</ele><time>2021-05-20T15:15:34Z</time><name>PT14733</name></trkpt>
<trkpt lat="53.318840" lon="06.607743"><ele>7</ele><time>2021-05-20T15:15:35Z</time><name>PT14734</name></trkpt>
<trkpt lat="53.318834" lon="06.607727"><ele>7.1</ele><time>2021-05-20T15:15:36Z</time><name>PT14735</name></trkpt>
<trkpt lat="53.318829" lon="06.607712"><ele>7.1</ele><time>2021-05-20T15:15:37Z</time><name>PT14736</name></trkpt>
<trkpt lat="53.318823" lon="06.607699"><ele>7.1</ele><time>2021-05-20T15:15:38Z</time><name>PT14737</name></trkpt>
<trkpt lat="53.318818" lon="06.607686"><ele>7</ele><time>2021-05-20T15:15:39Z</time><name>PT14738</name></trkpt>
<trkpt lat="53.318813" lon="06.607671"><ele>7.1</ele><time>2021-05-20T15:15:40Z</time><name>PT14739</name></trkpt>
<trkpt lat="53.318810" lon="06.607654"><ele>7.2</ele><time>2021-05-20T15:15:41Z</time><name>PT14740</name></trkpt>
<trkpt lat="53.318806" lon="06.607638"><ele>7.1</ele><time>2021-05-20T15:15:42Z</time><name>PT14741</name></trkpt>
<trkpt lat="53.318800" lon="06.607624"><ele>7.3</ele><time>2021-05-20T15:15:43Z</time><name>PT14742</name></trkpt>
<trkpt lat="53.318795" lon="06.607611"><ele>7.5</ele><time>2021-05-20T15:15:44Z</time><name>PT14743</name></trkpt>
<trkpt lat="53.318790" lon="06.607597"><ele>7.5</ele><time>2021-05-20T15:15:45Z</time><name>PT14744</name></trkpt>
<trkpt lat="53.318786" lon="06.607582"><ele>7.5</ele><time>2021-05-20T15:15:46Z</time><name>PT14745</name></trkpt>
<trkpt lat="53.318782" lon="06.607566"><ele>7.6</ele><time>2021-05-20T15:15:47Z</time><name>PT14746</name></trkpt>
<trkpt lat="53.318780" lon="06.607550"><ele>7.7</ele><time>2021-05-20T15:15:48Z</time><name>PT14747</name></trkpt>
<trkpt lat="53.318777" lon="06.607533"><ele>7.7</ele><time>2021-05-20T15:15:49Z</time><name>PT14748</name></trkpt>
<trkpt lat="53.318773" lon="06.607515"><ele>7.7</ele><time>2021-05-20T15:15:50Z</time><name>PT14749</name></trkpt>
<trkpt lat="53.318769" lon="06.607499"><ele>7.7</ele><time>2021-05-20T15:15:51Z</time><name>PT14750</name></trkpt>
<trkpt lat="53.318764" lon="06.607486"><ele>7.7</ele><time>2021-05-20T15:15:52Z</time><name>PT14751</name></trkpt>
<trkpt lat="53.318760" lon="06.607473"><ele>7.7</ele><time>2021-05-20T15:15:53Z</time><name>PT14752</name></trkpt>
<trkpt lat="53.318755" lon="06.607460"><ele>7.8</ele><time>2021-05-20T15:15:54Z</time><name>PT14753</name></trkpt>
<trkpt lat="53.318751" lon="06.607444"><ele>7.8</ele><time>2021-05-20T15:15:55Z</time><name>PT14754</name></trkpt>
<trkpt lat="53.318747" lon="06.607428"><ele>7.8</ele><time>2021-05-20T15:15:56Z</time><name>PT14755</name></trkpt>
<trkpt lat="53.318742" lon="06.607411"><ele>7.8</ele><time>2021-05-20T15:15:57Z</time><name>PT14756</name></trkpt>
<trkpt lat="53.318735" lon="06.607396"><ele>7.8</ele><time>2021-05-20T15:15:58Z</time><name>PT14757</name></trkpt>
<trkpt lat="53.318729" lon="06.607384"><ele>7.8</ele><time>2021-05-20T15:15:59Z</time><name>PT14758</name></trkpt>
<trkpt lat="53.318724" lon="06.607373"><ele>7.8</ele><time>2021-05-20T15:16:00Z</time><name>PT14759</name></trkpt>
<trkpt lat="53.318721" lon="06.607360"><ele>7.8</ele><time>2021-05-20T15:16:01Z</time><name>PT14760</name></trkpt>
<trkpt lat="53.318718" lon="06.607345"><ele>7.8</ele><time>2021-05-20T15:16:02Z</time><name>PT14761</name></trkpt>
<trkpt lat="53.318714" lon="06.607328"><ele>7.8</ele><time>2021-05-20T15:16:03Z</time><name>PT14762</name></trkpt>
<trkpt lat="53.318709" lon="06.607313"><ele>7.8</ele><time>2021-05-20T15:16:04Z</time><name>PT14763</name></trkpt>
<trkpt lat="53.318703" lon="06.607301"><ele>7.6</ele><time>2021-05-20T15:16:05Z</time><name>PT14764</name></trkpt>
<trkpt lat="53.318698" lon="06.607291"><ele>7.4</ele><time>2021-05-20T15:16:06Z</time><name>PT14765</name></trkpt>
<trkpt lat="53.318694" lon="06.607278"><ele>7.5</ele><time>2021-05-20T15:16:07Z</time><name>PT14766</name></trkpt>
<trkpt lat="53.318690" lon="06.607264"><ele>7.4</ele><time>2021-05-20T15:16:08Z</time><name>PT14767</name></trkpt>
<trkpt lat="53.318685" lon="06.607249"><ele>7.4</ele><time>2021-05-20T15:16:09Z</time><name>PT14768</name></trkpt>
<trkpt lat="53.318681" lon="06.607236"><ele>7.5</ele><time>2021-05-20T15:16:10Z</time><name>PT14769</name></trkpt>
<trkpt lat="53.318677" lon="06.607223"><ele>7.5</ele><time>2021-05-20T15:16:11Z</time><name>PT14770</name></trkpt>
<trkpt lat="53.318673" lon="06.607208"><ele>7.6</ele><time>2021-05-20T15:16:12Z</time><name>PT14771</name></trkpt>
<trkpt lat="53.318668" lon="06.607192"><ele>7.6</ele><time>2021-05-20T15:16:13Z</time><name>PT14772</name></trkpt>
<trkpt lat="53.318664" lon="06.607176"><ele>7.6</ele><time>2021-05-20T15:16:14Z</time><name>PT14773</name></trkpt>
<trkpt lat="53.318660" lon="06.607159"><ele>7.6</ele><time>2021-05-20T15:16:15Z</time><name>PT14774</name></trkpt>
<trkpt lat="53.318654" lon="06.607144"><ele>8</ele><time>2021-05-20T15:16:16Z</time><name>PT14775</name></trkpt>
<trkpt lat="53.318649" lon="06.607130"><ele>8.3</ele><time>2021-05-20T15:16:17Z</time><name>PT14776</name></trkpt>
<trkpt lat="53.318644" lon="06.607118"><ele>8.3</ele><time>2021-05-20T15:16:18Z</time><name>PT14777</name></trkpt>
<trkpt lat="53.318639" lon="06.607104"><ele>8.1</ele><time>2021-05-20T15:16:19Z</time><name>PT14778</name></trkpt>
<trkpt lat="53.318635" lon="06.607089"><ele>7.8</ele><time>2021-05-20T15:16:20Z</time><name>PT14779</name></trkpt>
<trkpt lat="53.318631" lon="06.607074"><ele>7.8</ele><time>2021-05-20T15:16:21Z</time><name>PT14780</name></trkpt>
<trkpt lat="53.318627" lon="06.607058"><ele>7.6</ele><time>2021-05-20T15:16:22Z</time><name>PT14781</name></trkpt>
<trkpt lat="53.318622" lon="06.607042"><ele>7.7</ele><time>2021-05-20T15:16:23Z</time><name>PT14782</name></trkpt>
<trkpt lat="53.318617" lon="06.607027"><ele>7.6</ele><time>2021-05-20T15:16:24Z</time><name>PT14783</name></trkpt>
<trkpt lat="53.318612" lon="06.607014"><ele>7.4</ele><time>2021-05-20T15:16:25Z</time><name>PT14784</name></trkpt>
<trkpt lat="53.318608" lon="06.607000"><ele>7.3</ele><time>2021-05-20T15:16:26Z</time><name>PT14785</name></trkpt>
<trkpt lat="53.318603" lon="06.606986"><ele>7.3</ele><time>2021-05-20T15:16:27Z</time><name>PT14786</name></trkpt>
<trkpt lat="53.318600" lon="06.606969"><ele>7.3</ele><time>2021-05-20T15:16:28Z</time><name>PT14787</name></trkpt>
<trkpt lat="53.318597" lon="06.606952"><ele>7.5</ele><time>2021-05-20T15:16:29Z</time><name>PT14788</name></trkpt>
<trkpt lat="53.318593" lon="06.606934"><ele>7.5</ele><time>2021-05-20T15:16:30Z</time><name>PT14789</name></trkpt>
<trkpt lat="53.318588" lon="06.606917"><ele>7.6</ele><time>2021-05-20T15:16:31Z</time><name>PT14790</name></trkpt>
<trkpt lat="53.318583" lon="06.606904"><ele>7.8</ele><time>2021-05-20T15:16:32Z</time><name>PT14791</name></trkpt>
<trkpt lat="53.318579" lon="06.606892"><ele>7.8</ele><time>2021-05-20T15:16:33Z</time><name>PT14792</name></trkpt>
<trkpt lat="53.318575" lon="06.606878"><ele>7.8</ele><time>2021-05-20T15:16:34Z</time><name>PT14793</name></trkpt>
<trkpt lat="53.318570" lon="06.606861"><ele>8</ele><time>2021-05-20T15:16:35Z</time><name>PT14794</name></trkpt>
<trkpt lat="53.318566" lon="06.606844"><ele>8</ele><time>2021-05-20T15:16:36Z</time><name>PT14795</name></trkpt>
<trkpt lat="53.318561" lon="06.606827"><ele>7.8</ele><time>2021-05-20T15:16:37Z</time><name>PT14796</name></trkpt>
<trkpt lat="53.318556" lon="06.606812"><ele>7.8</ele><time>2021-05-20T15:16:38Z</time><name>PT14797</name></trkpt>
<trkpt lat="53.318549" lon="06.606800"><ele>7.7</ele><time>2021-05-20T15:16:39Z</time><name>PT14798</name></trkpt>
<trkpt lat="53.318544" lon="06.606787"><ele>7.5</ele><time>2021-05-20T15:16:40Z</time><name>PT14799</name></trkpt>
<trkpt lat="53.318540" lon="06.606772"><ele>7.4</ele><time>2021-05-20T15:16:41Z</time><name>PT14800</name></trkpt>
<trkpt lat="53.318537" lon="06.606757"><ele>7.4</ele><time>2021-05-20T15:16:42Z</time><name>PT14801</name></trkpt>
<trkpt lat="53.318533" lon="06.606741"><ele>7.3</ele><time>2021-05-20T15:16:43Z</time><name>PT14802</name></trkpt>
<trkpt lat="53.318530" lon="06.606725"><ele>7.4</ele><time>2021-05-20T15:16:44Z</time><name>PT14803</name></trkpt>
<trkpt lat="53.318525" lon="06.606711"><ele>7.4</ele><time>2021-05-20T15:16:45Z</time><name>PT14804</name></trkpt>
<trkpt lat="53.318520" lon="06.606699"><ele>7.3</ele><time>2021-05-20T15:16:46Z</time><name>PT14805</name></trkpt>
<trkpt lat="53.318515" lon="06.606686"><ele>7.3</ele><time>2021-05-20T15:16:47Z</time><name>PT14806</name></trkpt>
<trkpt lat="53.318511" lon="06.606672"><ele>7.3</ele><time>2021-05-20T15:16:48Z</time><name>PT14807</name></trkpt>
<trkpt lat="53.318508" lon="06.606656"><ele>7.4</ele><time>2021-05-20T15:16:49Z</time><name>PT14808</name></trkpt>
<trkpt lat="53.318504" lon="06.606640"><ele>7.3</ele><time>2021-05-20T15:16:50Z</time><name>PT14809</name></trkpt>
<trkpt lat="53.318498" lon="06.606625"><ele>7.6</ele><time>2021-05-20T15:16:51Z</time><name>PT14810</name></trkpt>
<trkpt lat="53.318492" lon="06.606611"><ele>7.6</ele><time>2021-05-20T15:16:52Z</time><name>PT14811</name></trkpt>
<trkpt lat="53.318486" lon="06.606596"><ele>7.6</ele><time>2021-05-20T15:16:53Z</time><name>PT14812</name></trkpt>
<trkpt lat="53.318480" lon="06.606584"><ele>7.7</ele><time>2021-05-20T15:16:54Z</time><name>PT14813</name></trkpt>
<trkpt lat="53.318474" lon="06.606572"><ele>7.8</ele><time>2021-05-20T15:16:55Z</time><name>PT14814</name></trkpt>
<trkpt lat="53.318471" lon="06.606558"><ele>7.8</ele><time>2021-05-20T15:16:56Z</time><name>PT14815</name></trkpt>
<trkpt lat="53.318467" lon="06.606543"><ele>7.9</ele><time>2021-05-20T15:16:57Z</time><name>PT14816</name></trkpt>
<trkpt lat="53.318464" lon="06.606523"><ele>7.9</ele><time>2021-05-20T15:16:58Z</time><name>PT14817</name></trkpt>
<trkpt lat="53.318459" lon="06.606502"><ele>7.8</ele><time>2021-05-20T15:16:59Z</time><name>PT14818</name></trkpt>
<trkpt lat="53.318454" lon="06.606484"><ele>7.8</ele><time>2021-05-20T15:17:00Z</time><name>PT14819</name></trkpt>
<trkpt lat="53.318448" lon="06.606468"><ele>7.7</ele><time>2021-05-20T15:17:01Z</time><name>PT14820</name></trkpt>
<trkpt lat="53.318442" lon="06.606454"><ele>7.7</ele><time>2021-05-20T15:17:02Z</time><name>PT14821</name></trkpt>
<trkpt lat="53.318435" lon="06.606440"><ele>7.7</ele><time>2021-05-20T15:17:03Z</time><name>PT14822</name></trkpt>
<trkpt lat="53.318430" lon="06.606425"><ele>7.7</ele><time>2021-05-20T15:17:04Z</time><name>PT14823</name></trkpt>
<trkpt lat="53.318425" lon="06.606409"><ele>7.7</ele><time>2021-05-20T15:17:05Z</time><name>PT14824</name></trkpt>
<trkpt lat="53.318421" lon="06.606394"><ele>7.5</ele><time>2021-05-20T15:17:06Z</time><name>PT14825</name></trkpt>
<trkpt lat="53.318417" lon="06.606378"><ele>7.5</ele><time>2021-05-20T15:17:07Z</time><name>PT14826</name></trkpt>
<trkpt lat="53.318412" lon="06.606361"><ele>7.3</ele><time>2021-05-20T15:17:08Z</time><name>PT14827</name></trkpt>
<trkpt lat="53.318406" lon="06.606346"><ele>7.1</ele><time>2021-05-20T15:17:09Z</time><name>PT14828</name></trkpt>
<trkpt lat="53.318400" lon="06.606332"><ele>7.3</ele><time>2021-05-20T15:17:10Z</time><name>PT14829</name></trkpt>
<trkpt lat="53.318394" lon="06.606319"><ele>7.4</ele><time>2021-05-20T15:17:11Z</time><name>PT14830</name></trkpt>
<trkpt lat="53.318388" lon="06.606306"><ele>7.7</ele><time>2021-05-20T15:17:12Z</time><name>PT14831</name></trkpt>
<trkpt lat="53.318384" lon="06.606293"><ele>7.9</ele><time>2021-05-20T15:17:13Z</time><name>PT14832</name></trkpt>
<trkpt lat="53.318380" lon="06.606281"><ele>7.8</ele><time>2021-05-20T15:17:14Z</time><name>PT14833</name></trkpt>
<trkpt lat="53.318374" lon="06.606266"><ele>7.8</ele><time>2021-05-20T15:17:15Z</time><name>PT14834</name></trkpt>
<trkpt lat="53.318369" lon="06.606248"><ele>7.9</ele><time>2021-05-20T15:17:16Z</time><name>PT14835</name></trkpt>
<trkpt lat="53.318366" lon="06.606228"><ele>8</ele><time>2021-05-20T15:17:17Z</time><name>PT14836</name></trkpt>
<trkpt lat="53.318362" lon="06.606208"><ele>8</ele><time>2021-05-20T15:17:18Z</time><name>PT14837</name></trkpt>
<trkpt lat="53.318357" lon="06.606189"><ele>8.2</ele><time>2021-05-20T15:17:19Z</time><name>PT14838</name></trkpt>
<trkpt lat="53.318352" lon="06.606173"><ele>8.2</ele><time>2021-05-20T15:17:20Z</time><name>PT14839</name></trkpt>
<trkpt lat="53.318347" lon="06.606158"><ele>8.3</ele><time>2021-05-20T15:17:21Z</time><name>PT14840</name></trkpt>
<trkpt lat="53.318342" lon="06.606142"><ele>8.2</ele><time>2021-05-20T15:17:22Z</time><name>PT14841</name></trkpt>
<trkpt lat="53.318339" lon="06.606127"><ele>8.3</ele><time>2021-05-20T15:17:23Z</time><name>PT14842</name></trkpt>
<trkpt lat="53.318336" lon="06.606111"><ele>8.2</ele><time>2021-05-20T15:17:24Z</time><name>PT14843</name></trkpt>
<trkpt lat="53.318332" lon="06.606096"><ele>8.2</ele><time>2021-05-20T15:17:25Z</time><name>PT14844</name></trkpt>
<trkpt lat="53.318329" lon="06.606082"><ele>7.9</ele><time>2021-05-20T15:17:26Z</time><name>PT14845</name></trkpt>
<trkpt lat="53.318324" lon="06.606067"><ele>7.8</ele><time>2021-05-20T15:17:27Z</time><name>PT14846</name></trkpt>
<trkpt lat="53.318318" lon="06.606050"><ele>7.8</ele><time>2021-05-20T15:17:28Z</time><name>PT14847</name></trkpt>
<trkpt lat="53.318311" lon="06.606035"><ele>7.9</ele><time>2021-05-20T15:17:29Z</time><name>PT14848</name></trkpt>
<trkpt lat="53.318305" lon="06.606023"><ele>8</ele><time>2021-05-20T15:17:30Z</time><name>PT14849</name></trkpt>
<trkpt lat="53.318300" lon="06.606009"><ele>8</ele><time>2021-05-20T15:17:31Z</time><name>PT14850</name></trkpt>
<trkpt lat="53.318295" lon="06.605994"><ele>8</ele><time>2021-05-20T15:17:32Z</time><name>PT14851</name></trkpt>
<trkpt lat="53.318291" lon="06.605977"><ele>8.1</ele><time>2021-05-20T15:17:33Z</time><name>PT14852</name></trkpt>
<trkpt lat="53.318286" lon="06.605960"><ele>7.9</ele><time>2021-05-20T15:17:34Z</time><name>PT14853</name></trkpt>
<trkpt lat="53.318281" lon="06.605944"><ele>7.9</ele><time>2021-05-20T15:17:35Z</time><name>PT14854</name></trkpt>
<trkpt lat="53.318276" lon="06.605930"><ele>7.9</ele><time>2021-05-20T15:17:36Z</time><name>PT14855</name></trkpt>
<trkpt lat="53.318269" lon="06.605916"><ele>7.9</ele><time>2021-05-20T15:17:37Z</time><name>PT14856</name></trkpt>
<trkpt lat="53.318263" lon="06.605904"><ele>7.8</ele><time>2021-05-20T15:17:38Z</time><name>PT14857</name></trkpt>
<trkpt lat="53.318259" lon="06.605891"><ele>7.8</ele><time>2021-05-20T15:17:39Z</time><name>PT14858</name></trkpt>
<trkpt lat="53.318256" lon="06.605876"><ele>7.8</ele><time>2021-05-20T15:17:40Z</time><name>PT14859</name></trkpt>
<trkpt lat="53.318252" lon="06.605859"><ele>7.8</ele><time>2021-05-20T15:17:41Z</time><name>PT14860</name></trkpt>
<trkpt lat="53.318250" lon="06.605841"><ele>7.8</ele><time>2021-05-20T15:17:42Z</time><name>PT14861</name></trkpt>
<trkpt lat="53.318247" lon="06.605826"><ele>7.9</ele><time>2021-05-20T15:17:43Z</time><name>PT14862</name></trkpt>
<trkpt lat="53.318243" lon="06.605812"><ele>8</ele><time>2021-05-20T15:17:44Z</time><name>PT14863</name></trkpt>
<trkpt lat="53.318237" lon="06.605804"><ele>8.2</ele><time>2021-05-20T15:17:45Z</time><name>PT14864</name></trkpt>
<trkpt lat="53.318231" lon="06.605792"><ele>8.3</ele><time>2021-05-20T15:17:46Z</time><name>PT14865</name></trkpt>
<trkpt lat="53.318226" lon="06.605778"><ele>8.3</ele><time>2021-05-20T15:17:47Z</time><name>PT14866</name></trkpt>
<trkpt lat="53.318222" lon="06.605761"><ele>8.4</ele><time>2021-05-20T15:17:48Z</time><name>PT14867</name></trkpt>
<trkpt lat="53.318218" lon="06.605743"><ele>8.6</ele><time>2021-05-20T15:17:49Z</time><name>PT14868</name></trkpt>
<trkpt lat="53.318212" lon="06.605727"><ele>8.5</ele><time>2021-05-20T15:17:50Z</time><name>PT14869</name></trkpt>
<trkpt lat="53.318205" lon="06.605710"><ele>8.4</ele><time>2021-05-20T15:17:51Z</time><name>PT14870</name></trkpt>
<trkpt lat="53.318199" lon="06.605693"><ele>8.5</ele><time>2021-05-20T15:17:52Z</time><name>PT14871</name></trkpt>
<trkpt lat="53.318194" lon="06.605677"><ele>8.3</ele><time>2021-05-20T15:17:53Z</time><name>PT14872</name></trkpt>
<trkpt lat="53.318189" lon="06.605663"><ele>8.2</ele><time>2021-05-20T15:17:54Z</time><name>PT14873</name></trkpt>
<trkpt lat="53.318185" lon="06.605647"><ele>8.1</ele><time>2021-05-20T15:17:55Z</time><name>PT14874</name></trkpt>
<trkpt lat="53.318182" lon="06.605629"><ele>7.9</ele><time>2021-05-20T15:17:56Z</time><name>PT14875</name></trkpt>
<trkpt lat="53.318177" lon="06.605612"><ele>7.9</ele><time>2021-05-20T15:17:57Z</time><name>PT14876</name></trkpt>
<trkpt lat="53.318172" lon="06.605594"><ele>8.1</ele><time>2021-05-20T15:17:58Z</time><name>PT14877</name></trkpt>
<trkpt lat="53.318167" lon="06.605577"><ele>8.1</ele><time>2021-05-20T15:17:59Z</time><name>PT14878</name></trkpt>
<trkpt lat="53.318160" lon="06.605565"><ele>8.2</ele><time>2021-05-20T15:18:00Z</time><name>PT14879</name></trkpt>
<trkpt lat="53.318155" lon="06.605554"><ele>8.2</ele><time>2021-05-20T15:18:01Z</time><name>PT14880</name></trkpt>
<trkpt lat="53.318151" lon="06.605540"><ele>8.3</ele><time>2021-05-20T15:18:02Z</time><name>PT14881</name></trkpt>
<trkpt lat="53.318147" lon="06.605525"><ele>8.2</ele><time>2021-05-20T15:18:03Z</time><name>PT14882</name></trkpt>
<trkpt lat="53.318143" lon="06.605509"><ele>8.1</ele><time>2021-05-20T15:18:04Z</time><name>PT14883</name></trkpt>
<trkpt lat="53.318138" lon="06.605495"><ele>8.2</ele><time>2021-05-20T15:18:05Z</time><name>PT14884</name></trkpt>
<trkpt lat="53.318132" lon="06.605482"><ele>8.2</ele><time>2021-05-20T15:18:06Z</time><name>PT14885</name></trkpt>
<trkpt lat="53.318125" lon="06.605469"><ele>8.1</ele><time>2021-05-20T15:18:07Z</time><name>PT14886</name></trkpt>
<trkpt lat="53.318119" lon="06.605458"><ele>8.2</ele><time>2021-05-20T15:18:08Z</time><name>PT14887</name></trkpt>
<trkpt lat="53.318113" lon="06.605447"><ele>8.2</ele><time>2021-05-20T15:18:09Z</time><name>PT14888</name></trkpt>
<trkpt lat="53.318108" lon="06.605432"><ele>8</ele><time>2021-05-20T15:18:10Z</time><name>PT14889</name></trkpt>
<trkpt lat="53.318103" lon="06.605418"><ele>8.3</ele><time>2021-05-20T15:18:11Z</time><name>PT14890</name></trkpt>
<trkpt lat="53.318096" lon="06.605405"><ele>8.3</ele><time>2021-05-20T15:18:12Z</time><name>PT14891</name></trkpt>
<trkpt lat="53.318090" lon="06.605392"><ele>8.3</ele><time>2021-05-20T15:18:13Z</time><name>PT14892</name></trkpt>
<trkpt lat="53.318083" lon="06.605381"><ele>8.2</ele><time>2021-05-20T15:18:14Z</time><name>PT14893</name></trkpt>
<trkpt lat="53.318076" lon="06.605370"><ele>8.3</ele><time>2021-05-20T15:18:15Z</time><name>PT14894</name></trkpt>
<trkpt lat="53.318070" lon="06.605360"><ele>8.3</ele><time>2021-05-20T15:18:16Z</time><name>PT14895</name></trkpt>
<trkpt lat="53.318065" lon="06.605347"><ele>8.6</ele><time>2021-05-20T15:18:17Z</time><name>PT14896</name></trkpt>
<trkpt lat="53.318059" lon="06.605333"><ele>8.6</ele><time>2021-05-20T15:18:18Z</time><name>PT14897</name></trkpt>
<trkpt lat="53.318052" lon="06.605319"><ele>9</ele><time>2021-05-20T15:18:19Z</time><name>PT14898</name></trkpt>
<trkpt lat="53.318044" lon="06.605306"><ele>9.1</ele><time>2021-05-20T15:18:20Z</time><name>PT14899</name></trkpt>
<trkpt lat="53.318035" lon="06.605295"><ele>9.2</ele><time>2021-05-20T15:18:21Z</time><name>PT14900</name></trkpt>
<trkpt lat="53.318027" lon="06.605286"><ele>9.2</ele><time>2021-05-20T15:18:22Z</time><name>PT14901</name></trkpt>
<trkpt lat="53.318020" lon="06.605277"><ele>9.2</ele><time>2021-05-20T15:18:23Z</time><name>PT14902</name></trkpt>
<trkpt lat="53.318013" lon="06.605265"><ele>9.1</ele><time>2021-05-20T15:18:24Z</time><name>PT14903</name></trkpt>
<trkpt lat="53.318006" lon="06.605252"><ele>9.1</ele><time>2021-05-20T15:18:25Z</time><name>PT14904</name></trkpt>
<trkpt lat="53.317998" lon="06.605242"><ele>8.8</ele><time>2021-05-20T15:18:26Z</time><name>PT14905</name></trkpt>
<trkpt lat="53.317990" lon="06.605232"><ele>8.8</ele><time>2021-05-20T15:18:27Z</time><name>PT14906</name></trkpt>
<trkpt lat="53.317982" lon="06.605221"><ele>8.8</ele><time>2021-05-20T15:18:28Z</time><name>PT14907</name></trkpt>
<trkpt lat="53.317974" lon="06.605213"><ele>8.7</ele><time>2021-05-20T15:18:29Z</time><name>PT14908</name></trkpt>
<trkpt lat="53.317967" lon="06.605208"><ele>8.8</ele><time>2021-05-20T15:18:30Z</time><name>PT14909</name></trkpt>
<trkpt lat="53.317960" lon="06.605201"><ele>8.9</ele><time>2021-05-20T15:18:31Z</time><name>PT14910</name></trkpt>
<trkpt lat="53.317952" lon="06.605191"><ele>9</ele><time>2021-05-20T15:18:32Z</time><name>PT14911</name></trkpt>
<trkpt lat="53.317944" lon="06.605180"><ele>9.2</ele><time>2021-05-20T15:18:33Z</time><name>PT14912</name></trkpt>
<trkpt lat="53.317936" lon="06.605168"><ele>9.6</ele><time>2021-05-20T15:18:34Z</time><name>PT14913</name></trkpt>
<trkpt lat="53.317928" lon="06.605159"><ele>9.6</ele><time>2021-05-20T15:18:35Z</time><name>PT14914</name></trkpt>
<trkpt lat="53.317920" lon="06.605153"><ele>9.4</ele><time>2021-05-20T15:18:36Z</time><name>PT14915</name></trkpt>
<trkpt lat="53.317913" lon="06.605149"><ele>9.2</ele><time>2021-05-20T15:18:37Z</time><name>PT14916</name></trkpt>
<trkpt lat="53.317906" lon="06.605142"><ele>8.8</ele><time>2021-05-20T15:18:38Z</time><name>PT14917</name></trkpt>
<trkpt lat="53.317898" lon="06.605134"><ele>8.8</ele><time>2021-05-20T15:18:39Z</time><name>PT14918</name></trkpt>
<trkpt lat="53.317890" lon="06.605123"><ele>8.8</ele><time>2021-05-20T15:18:40Z</time><name>PT14919</name></trkpt>
<trkpt lat="53.317881" lon="06.605115"><ele>8.8</ele><time>2021-05-20T15:18:41Z</time><name>PT14920</name></trkpt>
<trkpt lat="53.317871" lon="06.605107"><ele>8.8</ele><time>2021-05-20T15:18:42Z</time><name>PT14921</name></trkpt>
<trkpt lat="53.317861" lon="06.605099"><ele>8.8</ele><time>2021-05-20T15:18:43Z</time><name>PT14922</name></trkpt>
<trkpt lat="53.317853" lon="06.605092"><ele>8.8</ele><time>2021-05-20T15:18:44Z</time><name>PT14923</name></trkpt>
<trkpt lat="53.317844" lon="06.605086"><ele>8.8</ele><time>2021-05-20T15:18:45Z</time><name>PT14924</name></trkpt>
<trkpt lat="53.317835" lon="06.605077"><ele>8.9</ele><time>2021-05-20T15:18:46Z</time><name>PT14925</name></trkpt>
<trkpt lat="53.317826" lon="06.605066"><ele>9</ele><time>2021-05-20T15:18:47Z</time><name>PT14926</name></trkpt>
<trkpt lat="53.317817" lon="06.605053"><ele>9.1</ele><time>2021-05-20T15:18:48Z</time><name>PT14927</name></trkpt>
<trkpt lat="53.317808" lon="06.605041"><ele>9.2</ele><time>2021-05-20T15:18:49Z</time><name>PT14928</name></trkpt>
<trkpt lat="53.317798" lon="06.605031"><ele>9.2</ele><time>2021-05-20T15:18:50Z</time><name>PT14929</name></trkpt>
<trkpt lat="53.317788" lon="06.605024"><ele>9.2</ele><time>2021-05-20T15:18:51Z</time><name>PT14930</name></trkpt>
<trkpt lat="53.317778" lon="06.605016"><ele>9.2</ele><time>2021-05-20T15:18:52Z</time><name>PT14931</name></trkpt>
<trkpt lat="53.317769" lon="06.605006"><ele>9.1</ele><time>2021-05-20T15:18:53Z</time><name>PT14932</name></trkpt>
<trkpt lat="53.317761" lon="06.604996"><ele>9.2</ele><time>2021-05-20T15:18:54Z</time><name>PT14933</name></trkpt>
<trkpt lat="53.317753" lon="06.604988"><ele>9.2</ele><time>2021-05-20T15:18:55Z</time><name>PT14934</name></trkpt>
<trkpt lat="53.317745" lon="06.604979"><ele>9.2</ele><time>2021-05-20T15:18:56Z</time><name>PT14935</name></trkpt>
<trkpt lat="53.317736" lon="06.604970"><ele>9.2</ele><time>2021-05-20T15:18:57Z</time><name>PT14936</name></trkpt>
<trkpt lat="53.317727" lon="06.604964"><ele>9.2</ele><time>2021-05-20T15:18:58Z</time><name>PT14937</name></trkpt>
<trkpt lat="53.317719" lon="06.604959"><ele>9.1</ele><time>2021-05-20T15:18:59Z</time><name>PT14938</name></trkpt>
<trkpt lat="53.317714" lon="06.604951"><ele>9</ele><time>2021-05-20T15:19:00Z</time><name>PT14939</name></trkpt>
<trkpt lat="53.317707" lon="06.604943"><ele>9.1</ele><time>2021-05-20T15:19:01Z</time><name>PT14940</name></trkpt>
<trkpt lat="53.317700" lon="06.604936"><ele>9.2</ele><time>2021-05-20T15:19:02Z</time><name>PT14941</name></trkpt>
<trkpt lat="53.317691" lon="06.604929"><ele>9.2</ele><time>2021-05-20T15:19:03Z</time><name>PT14942</name></trkpt>
<trkpt lat="53.317683" lon="06.604925"><ele>9.5</ele><time>2021-05-20T15:19:04Z</time><name>PT14943</name></trkpt>
<trkpt lat="53.317675" lon="06.604920"><ele>9.4</ele><time>2021-05-20T15:19:05Z</time><name>PT14944</name></trkpt>
<trkpt lat="53.317669" lon="06.604914"><ele>9.4</ele><time>2021-05-20T15:19:06Z</time><name>PT14945</name></trkpt>
<trkpt lat="53.317662" lon="06.604907"><ele>9.6</ele><time>2021-05-20T15:19:07Z</time><name>PT14946</name></trkpt>
<trkpt lat="53.317655" lon="06.604901"><ele>9.5</ele><time>2021-05-20T15:19:08Z</time><name>PT14947</name></trkpt>
<trkpt lat="53.317647" lon="06.604894"><ele>9.4</ele><time>2021-05-20T15:19:09Z</time><name>PT14948</name></trkpt>
<trkpt lat="53.317639" lon="06.604888"><ele>9.5</ele><time>2021-05-20T15:19:10Z</time><name>PT14949</name></trkpt>
<trkpt lat="53.317631" lon="06.604883"><ele>9.4</ele><time>2021-05-20T15:19:11Z</time><name>PT14950</name></trkpt>
<trkpt lat="53.317624" lon="06.604876"><ele>9.4</ele><time>2021-05-20T15:19:12Z</time><name>PT14951</name></trkpt>
<trkpt lat="53.317615" lon="06.604868"><ele>9.4</ele><time>2021-05-20T15:19:13Z</time><name>PT14952</name></trkpt>
<trkpt lat="53.317607" lon="06.604859"><ele>9.4</ele><time>2021-05-20T15:19:14Z</time><name>PT14953</name></trkpt>
<trkpt lat="53.317599" lon="06.604850"><ele>9.5</ele><time>2021-05-20T15:19:15Z</time><name>PT14954</name></trkpt>
<trkpt lat="53.317590" lon="06.604845"><ele>9.7</ele><time>2021-05-20T15:19:16Z</time><name>PT14955</name></trkpt>
<trkpt lat="53.317583" lon="06.604840"><ele>9.6</ele><time>2021-05-20T15:19:17Z</time><name>PT14956</name></trkpt>
<trkpt lat="53.317576" lon="06.604835"><ele>9.7</ele><time>2021-05-20T15:19:18Z</time><name>PT14957</name></trkpt>
<trkpt lat="53.317569" lon="06.604828"><ele>9.6</ele><time>2021-05-20T15:19:19Z</time><name>PT14958</name></trkpt>
<trkpt lat="53.317561" lon="06.604819"><ele>9.6</ele><time>2021-05-20T15:19:20Z</time><name>PT14959</name></trkpt>
<trkpt lat="53.317552" lon="06.604811"><ele>9.4</ele><time>2021-05-20T15:19:21Z</time><name>PT14960</name></trkpt>
<trkpt lat="53.317541" lon="06.604802"><ele>9.6</ele><time>2021-05-20T15:19:22Z</time><name>PT14961</name></trkpt>
<trkpt lat="53.317531" lon="06.604798"><ele>9.6</ele><time>2021-05-20T15:19:23Z</time><name>PT14962</name></trkpt>
<trkpt lat="53.317521" lon="06.604794"><ele>9.7</ele><time>2021-05-20T15:19:24Z</time><name>PT14963</name></trkpt>
<trkpt lat="53.317512" lon="06.604790"><ele>9.8</ele><time>2021-05-20T15:19:25Z</time><name>PT14964</name></trkpt>
<trkpt lat="53.317503" lon="06.604783"><ele>9.7</ele><time>2021-05-20T15:19:26Z</time><name>PT14965</name></trkpt>
<trkpt lat="53.317494" lon="06.604773"><ele>9.5</ele><time>2021-05-20T15:19:27Z</time><name>PT14966</name></trkpt>
<trkpt lat="53.317485" lon="06.604763"><ele>9.5</ele><time>2021-05-20T15:19:28Z</time><name>PT14967</name></trkpt>
<trkpt lat="53.317476" lon="06.604754"><ele>9.4</ele><time>2021-05-20T15:19:29Z</time><name>PT14968</name></trkpt>
<trkpt lat="53.317466" lon="06.604746"><ele>9.2</ele><time>2021-05-20T15:19:30Z</time><name>PT14969</name></trkpt>
<trkpt lat="53.317455" lon="06.604736"><ele>9.4</ele><time>2021-05-20T15:19:31Z</time><name>PT14970</name></trkpt>
<trkpt lat="53.317445" lon="06.604727"><ele>9.4</ele><time>2021-05-20T15:19:32Z</time><name>PT14971</name></trkpt>
<trkpt lat="53.317436" lon="06.604718"><ele>9.5</ele><time>2021-05-20T15:19:33Z</time><name>PT14972</name></trkpt>
<trkpt lat="53.317428" lon="06.604708"><ele>9.6</ele><time>2021-05-20T15:19:34Z</time><name>PT14973</name></trkpt>
<trkpt lat="53.317420" lon="06.604699"><ele>9.7</ele><time>2021-05-20T15:19:35Z</time><name>PT14974</name></trkpt>
<trkpt lat="53.317410" lon="06.604691"><ele>9.7</ele><time>2021-05-20T15:19:36Z</time><name>PT14975</name></trkpt>
<trkpt lat="53.317401" lon="06.604683"><ele>9.6</ele><time>2021-05-20T15:19:37Z</time><name>PT14976</name></trkpt>
<trkpt lat="53.317391" lon="06.604675"><ele>9.5</ele><time>2021-05-20T15:19:38Z</time><name>PT14977</name></trkpt>
<trkpt lat="53.317381" lon="06.604667"><ele>9.3</ele><time>2021-05-20T15:19:39Z</time><name>PT14978</name></trkpt>
<trkpt lat="53.317371" lon="06.604658"><ele>9.2</ele><time>2021-05-20T15:19:40Z</time><name>PT14979</name></trkpt>
<trkpt lat="53.317359" lon="06.604652"><ele>9.4</ele><time>2021-05-20T15:19:41Z</time><name>PT14980</name></trkpt>
<trkpt lat="53.317350" lon="06.604646"><ele>9.4</ele><time>2021-05-20T15:19:42Z</time><name>PT14981</name></trkpt>
<trkpt lat="53.317342" lon="06.604638"><ele>9.5</ele><time>2021-05-20T15:19:43Z</time><name>PT14982</name></trkpt>
<trkpt lat="53.317334" lon="06.604629"><ele>9.4</ele><time>2021-05-20T15:19:44Z</time><name>PT14983</name></trkpt>
<trkpt lat="53.317326" lon="06.604620"><ele>9.2</ele><time>2021-05-20T15:19:45Z</time><name>PT14984</name></trkpt>
<trkpt lat="53.317317" lon="06.604612"><ele>9.1</ele><time>2021-05-20T15:19:46Z</time><name>PT14985</name></trkpt>
<trkpt lat="53.317308" lon="06.604604"><ele>9.1</ele><time>2021-05-20T15:19:47Z</time><name>PT14986</name></trkpt>
<trkpt lat="53.317302" lon="06.604598"><ele>9</ele><time>2021-05-20T15:19:48Z</time><name>PT14987</name></trkpt>
<trkpt lat="53.317295" lon="06.604592"><ele>9.1</ele><time>2021-05-20T15:19:49Z</time><name>PT14988</name></trkpt>
<trkpt lat="53.317286" lon="06.604586"><ele>9</ele><time>2021-05-20T15:19:50Z</time><name>PT14989</name></trkpt>
<trkpt lat="53.317276" lon="06.604581"><ele>9.2</ele><time>2021-05-20T15:19:51Z</time><name>PT14990</name></trkpt>
<trkpt lat="53.317267" lon="06.604575"><ele>9.1</ele><time>2021-05-20T15:19:52Z</time><name>PT14991</name></trkpt>
<trkpt lat="53.317259" lon="06.604569"><ele>9.2</ele><time>2021-05-20T15:19:53Z</time><name>PT14992</name></trkpt>
<trkpt lat="53.317251" lon="06.604559"><ele>9.2</ele><time>2021-05-20T15:19:54Z</time><name>PT14993</name></trkpt>
<trkpt lat="53.317242" lon="06.604551"><ele>9</ele><time>2021-05-20T15:19:55Z</time><name>PT14994</name></trkpt>
<trkpt lat="53.317232" lon="06.604543"><ele>9.1</ele><time>2021-05-20T15:19:56Z</time><name>PT14995</name></trkpt>
<trkpt lat="53.317221" lon="06.604535"><ele>8.9</ele><time>2021-05-20T15:19:57Z</time><name>PT14996</name></trkpt>
<trkpt lat="53.317209" lon="06.604527"><ele>8.8</ele><time>2021-05-20T15:19:58Z</time><name>PT14997</name></trkpt>
<trkpt lat="53.317198" lon="06.604522"><ele>8.9</ele><time>2021-05-20T15:19:59Z</time><name>PT14998</name></trkpt>
<trkpt lat="53.317188" lon="06.604517"><ele>9.1</ele><time>2021-05-20T15:20:00Z</time><name>PT14999</name></trkpt>
<trkpt lat="53.317178" lon="06.604509"><ele>9.2</ele><time>2021-05-20T15:20:01Z</time><name>PT15000</name></trkpt>
<trkpt lat="53.317170" lon="06.604500"><ele>9.4</ele><time>2021-05-20T15:20:02Z</time><name>PT15001</name></trkpt>
<trkpt lat="53.317161" lon="06.604493"><ele>9.5</ele><time>2021-05-20T15:20:03Z</time><name>PT15002</name></trkpt>
<trkpt lat="53.317152" lon="06.604485"><ele>9.5</ele><time>2021-05-20T15:20:04Z</time><name>PT15003</name></trkpt>
<trkpt lat="53.317144" lon="06.604477"><ele>9.5</ele><time>2021-05-20T15:20:05Z</time><name>PT15004</name></trkpt>
<trkpt lat="53.317134" lon="06.604468"><ele>9.3</ele><time>2021-05-20T15:20:06Z</time><name>PT15005</name></trkpt>
<trkpt lat="53.317124" lon="06.604463"><ele>9.3</ele><time>2021-05-20T15:20:07Z</time><name>PT15006</name></trkpt>
<trkpt lat="53.317115" lon="06.604459"><ele>9.2</ele><time>2021-05-20T15:20:08Z</time><name>PT15007</name></trkpt>
<trkpt lat="53.317107" lon="06.604454"><ele>9.2</ele><time>2021-05-20T15:20:09Z</time><name>PT15008</name></trkpt>
<trkpt lat="53.317098" lon="06.604448"><ele>9.2</ele><time>2021-05-20T15:20:10Z</time><name>PT15009</name></trkpt>
<trkpt lat="53.317089" lon="06.604442"><ele>9.2</ele><time>2021-05-20T15:20:11Z</time><name>PT15010</name></trkpt>
<trkpt lat="53.317078" lon="06.604432"><ele>9.2</ele><time>2021-05-20T15:20:12Z</time><name>PT15011</name></trkpt>
<trkpt lat="53.317074" lon="06.604427"><ele>9.2</ele><time>2021-05-20T15:20:13Z</time><name>PT15012</name></trkpt>
<trkpt lat="53.317073" lon="06.604426"><ele>9.2</ele><time>2021-05-20T15:20:14Z</time><name>PT15013</name></trkpt>
<trkpt lat="53.317069" lon="06.604428"><ele>9.2</ele><time>2021-05-20T15:20:15Z</time><name>PT15014</name></trkpt>
<trkpt lat="53.317062" lon="06.604427"><ele>9.2</ele><time>2021-05-20T15:20:16Z</time><name>PT15015</name></trkpt>
<trkpt lat="53.317055" lon="06.604424"><ele>9.1</ele><time>2021-05-20T15:20:17Z</time><name>PT15016</name></trkpt>
<trkpt lat="53.317047" lon="06.604420"><ele>9.2</ele><time>2021-05-20T15:20:18Z</time><name>PT15017</name></trkpt>
<trkpt lat="53.317038" lon="06.604412"><ele>9.2</ele><time>2021-05-20T15:20:19Z</time><name>PT15018</name></trkpt>
<trkpt lat="53.317029" lon="06.604405"><ele>9.3</ele><time>2021-05-20T15:20:20Z</time><name>PT15019</name></trkpt>
<trkpt lat="53.317018" lon="06.604399"><ele>9.4</ele><time>2021-05-20T15:20:21Z</time><name>PT15020</name></trkpt>
<trkpt lat="53.317009" lon="06.604395"><ele>9.4</ele><time>2021-05-20T15:20:22Z</time><name>PT15021</name></trkpt>
<trkpt lat="53.317001" lon="06.604390"><ele>9.4</ele><time>2021-05-20T15:20:23Z</time><name>PT15022</name></trkpt>
<trkpt lat="53.316993" lon="06.604382"><ele>9.2</ele><time>2021-05-20T15:20:24Z</time><name>PT15023</name></trkpt>
<trkpt lat="53.316985" lon="06.604374"><ele>9.2</ele><time>2021-05-20T15:20:25Z</time><name>PT15024</name></trkpt>
<trkpt lat="53.316975" lon="06.604368"><ele>9.1</ele><time>2021-05-20T15:20:26Z</time><name>PT15025</name></trkpt>
<trkpt lat="53.316965" lon="06.604363"><ele>9.2</ele><time>2021-05-20T15:20:27Z</time><name>PT15026</name></trkpt>
<trkpt lat="53.316956" lon="06.604361"><ele>9.3</ele><time>2021-05-20T15:20:28Z</time><name>PT15027</name></trkpt>
<trkpt lat="53.316949" lon="06.604362"><ele>9.5</ele><time>2021-05-20T15:20:29Z</time><name>PT15028</name></trkpt>
<trkpt lat="53.316940" lon="06.604357"><ele>9.5</ele><time>2021-05-20T15:20:30Z</time><name>PT15029</name></trkpt>
<trkpt lat="53.316930" lon="06.604350"><ele>9.5</ele><time>2021-05-20T15:20:31Z</time><name>PT15030</name></trkpt>
<trkpt lat="53.316920" lon="06.604345"><ele>9.5</ele><time>2021-05-20T15:20:32Z</time><name>PT15031</name></trkpt>
<trkpt lat="53.316912" lon="06.604342"><ele>9.4</ele><time>2021-05-20T15:20:33Z</time><name>PT15032</name></trkpt>
<trkpt lat="53.316903" lon="06.604337"><ele>9.2</ele><time>2021-05-20T15:20:34Z</time><name>PT15033</name></trkpt>
<trkpt lat="53.316895" lon="06.604333"><ele>9.2</ele><time>2021-05-20T15:20:35Z</time><name>PT15034</name></trkpt>
<trkpt lat="53.316887" lon="06.604327"><ele>9.1</ele><time>2021-05-20T15:20:36Z</time><name>PT15035</name></trkpt>
<trkpt lat="53.316877" lon="06.604317"><ele>9.1</ele><time>2021-05-20T15:20:37Z</time><name>PT15036</name></trkpt>
<trkpt lat="53.316868" lon="06.604311"><ele>9</ele><time>2021-05-20T15:20:38Z</time><name>PT15037</name></trkpt>
<trkpt lat="53.316859" lon="06.604306"><ele>9</ele><time>2021-05-20T15:20:39Z</time><name>PT15038</name></trkpt>
<trkpt lat="53.316850" lon="06.604301"><ele>9.1</ele><time>2021-05-20T15:20:40Z</time><name>PT15039</name></trkpt>
<trkpt lat="53.316842" lon="06.604296"><ele>9</ele><time>2021-05-20T15:20:41Z</time><name>PT15040</name></trkpt>
<trkpt lat="53.316834" lon="06.604290"><ele>8.9</ele><time>2021-05-20T15:20:42Z</time><name>PT15041</name></trkpt>
<trkpt lat="53.316825" lon="06.604287"><ele>8.9</ele><time>2021-05-20T15:20:43Z</time><name>PT15042</name></trkpt>
<trkpt lat="53.316816" lon="06.604284"><ele>8.8</ele><time>2021-05-20T15:20:44Z</time><name>PT15043</name></trkpt>
<trkpt lat="53.316808" lon="06.604280"><ele>9.1</ele><time>2021-05-20T15:20:45Z</time><name>PT15044</name></trkpt>
<trkpt lat="53.316802" lon="06.604277"><ele>9.2</ele><time>2021-05-20T15:20:46Z</time><name>PT15045</name></trkpt>
<trkpt lat="53.316795" lon="06.604271"><ele>9.4</ele><time>2021-05-20T15:20:47Z</time><name>PT15046</name></trkpt>
<trkpt lat="53.316788" lon="06.604264"><ele>9.5</ele><time>2021-05-20T15:20:48Z</time><name>PT15047</name></trkpt>
<trkpt lat="53.316780" lon="06.604259"><ele>9.6</ele><time>2021-05-20T15:20:49Z</time><name>PT15048</name></trkpt>
<trkpt lat="53.316771" lon="06.604257"><ele>9.3</ele><time>2021-05-20T15:20:50Z</time><name>PT15049</name></trkpt>
<trkpt lat="53.316762" lon="06.604255"><ele>9.3</ele><time>2021-05-20T15:20:51Z</time><name>PT15050</name></trkpt>
<trkpt lat="53.316754" lon="06.604252"><ele>9.4</ele><time>2021-05-20T15:20:52Z</time><name>PT15051</name></trkpt>
<trkpt lat="53.316745" lon="06.604247"><ele>9.4</ele><time>2021-05-20T15:20:53Z</time><name>PT15052</name></trkpt>
<trkpt lat="53.316736" lon="06.604240"><ele>9.4</ele><time>2021-05-20T15:20:54Z</time><name>PT15053</name></trkpt>
<trkpt lat="53.316726" lon="06.604234"><ele>9.4</ele><time>2021-05-20T15:20:55Z</time><name>PT15054</name></trkpt>
<trkpt lat="53.316717" lon="06.604231"><ele>9.4</ele><time>2021-05-20T15:20:56Z</time><name>PT15055</name></trkpt>
<trkpt lat="53.316708" lon="06.604226"><ele>9.3</ele><time>2021-05-20T15:20:57Z</time><name>PT15056</name></trkpt>
<trkpt lat="53.316700" lon="06.604221"><ele>9.3</ele><time>2021-05-20T15:20:58Z</time><name>PT15057</name></trkpt>
<trkpt lat="53.316690" lon="06.604215"><ele>9.4</ele><time>2021-05-20T15:20:59Z</time><name>PT15058</name></trkpt>
<trkpt lat="53.316681" lon="06.604207"><ele>9.4</ele><time>2021-05-20T15:21:00Z</time><name>PT15059</name></trkpt>
<trkpt lat="53.316671" lon="06.604202"><ele>9.3</ele><time>2021-05-20T15:21:01Z</time><name>PT15060</name></trkpt>
<trkpt lat="53.316661" lon="06.604197"><ele>9.5</ele><time>2021-05-20T15:21:02Z</time><name>PT15061</name></trkpt>
<trkpt lat="53.316653" lon="06.604196"><ele>9.6</ele><time>2021-05-20T15:21:03Z</time><name>PT15062</name></trkpt>
<trkpt lat="53.316645" lon="06.604193"><ele>9.4</ele><time>2021-05-20T15:21:04Z</time><name>PT15063</name></trkpt>
<trkpt lat="53.316636" lon="06.604188"><ele>9.5</ele><time>2021-05-20T15:21:05Z</time><name>PT15064</name></trkpt>
<trkpt lat="53.316627" lon="06.604184"><ele>9.6</ele><time>2021-05-20T15:21:06Z</time><name>PT15065</name></trkpt>
<trkpt lat="53.316618" lon="06.604180"><ele>9.4</ele><time>2021-05-20T15:21:07Z</time><name>PT15066</name></trkpt>
<trkpt lat="53.316609" lon="06.604181"><ele>9.6</ele><time>2021-05-20T15:21:08Z</time><name>PT15067</name></trkpt>
<trkpt lat="53.316600" lon="06.604180"><ele>9.6</ele><time>2021-05-20T15:21:09Z</time><name>PT15068</name></trkpt>
<trkpt lat="53.316591" lon="06.604178"><ele>9.7</ele><time>2021-05-20T15:21:10Z</time><name>PT15069</name></trkpt>
<trkpt lat="53.316580" lon="06.604173"><ele>9.7</ele><time>2021-05-20T15:21:11Z</time><name>PT15070</name></trkpt>
<trkpt lat="53.316570" lon="06.604169"><ele>9.8</ele><time>2021-05-20T15:21:12Z</time><name>PT15071</name></trkpt>
<trkpt lat="53.316559" lon="06.604170"><ele>10</ele><time>2021-05-20T15:21:13Z</time><name>PT15072</name></trkpt>
<trkpt lat="53.316550" lon="06.604175"><ele>10</ele><time>2021-05-20T15:21:14Z</time><name>PT15073</name></trkpt>
<trkpt lat="53.316541" lon="06.604181"><ele>9.8</ele><time>2021-05-20T15:21:15Z</time><name>PT15074</name></trkpt>
<trkpt lat="53.316532" lon="06.604185"><ele>9.7</ele><time>2021-05-20T15:21:16Z</time><name>PT15075</name></trkpt>
<trkpt lat="53.316522" lon="06.604189"><ele>9.4</ele><time>2021-05-20T15:21:17Z</time><name>PT15076</name></trkpt>
<trkpt lat="53.316512" lon="06.604194"><ele>9.2</ele><time>2021-05-20T15:21:18Z</time><name>PT15077</name></trkpt>
<trkpt lat="53.316502" lon="06.604200"><ele>9.5</ele><time>2021-05-20T15:21:19Z</time><name>PT15078</name></trkpt>
<trkpt lat="53.316493" lon="06.604207"><ele>9.7</ele><time>2021-05-20T15:21:20Z</time><name>PT15079</name></trkpt>
<trkpt lat="53.316485" lon="06.604212"><ele>9.7</ele><time>2021-05-20T15:21:21Z</time><name>PT15080</name></trkpt>
<trkpt lat="53.316476" lon="06.604218"><ele>9.9</ele><time>2021-05-20T15:21:22Z</time><name>PT15081</name></trkpt>
<trkpt lat="53.316466" lon="06.604222"><ele>9.7</ele><time>2021-05-20T15:21:23Z</time><name>PT15082</name></trkpt>
<trkpt lat="53.316463" lon="06.604217"><ele>9.7</ele><time>2021-05-20T15:21:24Z</time><name>PT15083</name></trkpt>
<trkpt lat="53.316461" lon="06.604220"><ele>9.7</ele><time>2021-05-20T15:21:25Z</time><name>PT15084</name></trkpt>
<trkpt lat="53.316457" lon="06.604229"><ele>9.7</ele><time>2021-05-20T15:21:26Z</time><name>PT15085</name></trkpt>
<trkpt lat="53.316451" lon="06.604236"><ele>9.6</ele><time>2021-05-20T15:21:27Z</time><name>PT15086</name></trkpt>
<trkpt lat="53.316441" lon="06.604241"><ele>9.7</ele><time>2021-05-20T15:21:28Z</time><name>PT15087</name></trkpt>
<trkpt lat="53.316432" lon="06.604243"><ele>9.5</ele><time>2021-05-20T15:21:29Z</time><name>PT15088</name></trkpt>
<trkpt lat="53.316422" lon="06.604249"><ele>9.5</ele><time>2021-05-20T15:21:30Z</time><name>PT15089</name></trkpt>
<trkpt lat="53.316412" lon="06.604254"><ele>9.5</ele><time>2021-05-20T15:21:31Z</time><name>PT15090</name></trkpt>
<trkpt lat="53.316405" lon="06.604259"><ele>9.5</ele><time>2021-05-20T15:21:32Z</time><name>PT15091</name></trkpt>
<trkpt lat="53.316396" lon="06.604264"><ele>9.5</ele><time>2021-05-20T15:21:33Z</time><name>PT15092</name></trkpt>
<trkpt lat="53.316387" lon="06.604274"><ele>9.4</ele><time>2021-05-20T15:21:34Z</time><name>PT15093</name></trkpt>
<trkpt lat="53.316377" lon="06.604283"><ele>9.7</ele><time>2021-05-20T15:21:35Z</time><name>PT15094</name></trkpt>
<trkpt lat="53.316370" lon="06.604287"><ele>9.6</ele><time>2021-05-20T15:21:36Z</time><name>PT15095</name></trkpt>
<trkpt lat="53.316362" lon="06.604292"><ele>9.5</ele><time>2021-05-20T15:21:37Z</time><name>PT15096</name></trkpt>
<trkpt lat="53.316356" lon="06.604296"><ele>9.7</ele><time>2021-05-20T15:21:38Z</time><name>PT15097</name></trkpt>
<trkpt lat="53.316355" lon="06.604297"><ele>9.7</ele><time>2021-05-20T15:21:39Z</time><name>PT15098</name></trkpt>
<trkpt lat="53.316355" lon="06.604299"><ele>9.7</ele><time>2021-05-20T15:21:40Z</time><name>PT15099</name></trkpt>
<trkpt lat="53.316351" lon="06.604303"><ele>10</ele><time>2021-05-20T15:21:41Z</time><name>PT15100</name></trkpt>
<trkpt lat="53.316344" lon="06.604306"><ele>10.2</ele><time>2021-05-20T15:21:42Z</time><name>PT15101</name></trkpt>
<trkpt lat="53.316336" lon="06.604311"><ele>9.9</ele><time>2021-05-20T15:21:43Z</time><name>PT15102</name></trkpt>
<trkpt lat="53.316328" lon="06.604317"><ele>9.9</ele><time>2021-05-20T15:21:44Z</time><name>PT15103</name></trkpt>
<trkpt lat="53.316318" lon="06.604323"><ele>9.8</ele><time>2021-05-20T15:21:45Z</time><name>PT15104</name></trkpt>
<trkpt lat="53.316309" lon="06.604328"><ele>9.8</ele><time>2021-05-20T15:21:46Z</time><name>PT15105</name></trkpt>
<trkpt lat="53.316300" lon="06.604333"><ele>10</ele><time>2021-05-20T15:21:47Z</time><name>PT15106</name></trkpt>
<trkpt lat="53.316289" lon="06.604337"><ele>10.1</ele><time>2021-05-20T15:21:48Z</time><name>PT15107</name></trkpt>
<trkpt lat="53.316279" lon="06.604341"><ele>10</ele><time>2021-05-20T15:21:49Z</time><name>PT15108</name></trkpt>
<trkpt lat="53.316269" lon="06.604349"><ele>9.9</ele><time>2021-05-20T15:21:50Z</time><name>PT15109</name></trkpt>
<trkpt lat="53.316260" lon="06.604356"><ele>9.8</ele><time>2021-05-20T15:21:51Z</time><name>PT15110</name></trkpt>
<trkpt lat="53.316251" lon="06.604362"><ele>9.7</ele><time>2021-05-20T15:21:52Z</time><name>PT15111</name></trkpt>
<trkpt lat="53.316241" lon="06.604367"><ele>9.6</ele><time>2021-05-20T15:21:53Z</time><name>PT15112</name></trkpt>
<trkpt lat="53.316230" lon="06.604370"><ele>9.6</ele><time>2021-05-20T15:21:54Z</time><name>PT15113</name></trkpt>
<trkpt lat="53.316219" lon="06.604371"><ele>9.7</ele><time>2021-05-20T15:21:55Z</time><name>PT15114</name></trkpt>
<trkpt lat="53.316209" lon="06.604374"><ele>9.8</ele><time>2021-05-20T15:21:56Z</time><name>PT15115</name></trkpt>
<trkpt lat="53.316199" lon="06.604382"><ele>9.9</ele><time>2021-05-20T15:21:57Z</time><name>PT15116</name></trkpt>
<trkpt lat="53.316189" lon="06.604385"><ele>10</ele><time>2021-05-20T15:21:58Z</time><name>PT15117</name></trkpt>
<trkpt lat="53.316179" lon="06.604388"><ele>9.9</ele><time>2021-05-20T15:21:59Z</time><name>PT15118</name></trkpt>
<trkpt lat="53.316168" lon="06.604393"><ele>9.8</ele><time>2021-05-20T15:22:00Z</time><name>PT15119</name></trkpt>
<trkpt lat="53.316158" lon="06.604397"><ele>10</ele><time>2021-05-20T15:22:01Z</time><name>PT15120</name></trkpt>
<trkpt lat="53.316147" lon="06.604401"><ele>10</ele><time>2021-05-20T15:22:02Z</time><name>PT15121</name></trkpt>
<trkpt lat="53.316137" lon="06.604406"><ele>10</ele><time>2021-05-20T15:22:03Z</time><name>PT15122</name></trkpt>
<trkpt lat="53.316128" lon="06.604412"><ele>9.9</ele><time>2021-05-20T15:22:04Z</time><name>PT15123</name></trkpt>
<trkpt lat="53.316118" lon="06.604417"><ele>9.7</ele><time>2021-05-20T15:22:05Z</time><name>PT15124</name></trkpt>
<trkpt lat="53.316108" lon="06.604423"><ele>9.7</ele><time>2021-05-20T15:22:06Z</time><name>PT15125</name></trkpt>
<trkpt lat="53.316099" lon="06.604429"><ele>9.9</ele><time>2021-05-20T15:22:07Z</time><name>PT15126</name></trkpt>
<trkpt lat="53.316089" lon="06.604434"><ele>9.9</ele><time>2021-05-20T15:22:08Z</time><name>PT15127</name></trkpt>
<trkpt lat="53.316078" lon="06.604438"><ele>10.2</ele><time>2021-05-20T15:22:09Z</time><name>PT15128</name></trkpt>
<trkpt lat="53.316068" lon="06.604443"><ele>10.1</ele><time>2021-05-20T15:22:10Z</time><name>PT15129</name></trkpt>
<trkpt lat="53.316059" lon="06.604450"><ele>10</ele><time>2021-05-20T15:22:11Z</time><name>PT15130</name></trkpt>
<trkpt lat="53.316051" lon="06.604457"><ele>10</ele><time>2021-05-20T15:22:12Z</time><name>PT15131</name></trkpt>
<trkpt lat="53.316043" lon="06.604463"><ele>9.7</ele><time>2021-05-20T15:22:13Z</time><name>PT15132</name></trkpt>
<trkpt lat="53.316034" lon="06.604467"><ele>9.7</ele><time>2021-05-20T15:22:14Z</time><name>PT15133</name></trkpt>
<trkpt lat="53.316023" lon="06.604471"><ele>9.7</ele><time>2021-05-20T15:22:15Z</time><name>PT15134</name></trkpt>
<trkpt lat="53.316013" lon="06.604475"><ele>9.6</ele><time>2021-05-20T15:22:16Z</time><name>PT15135</name></trkpt>
<trkpt lat="53.316004" lon="06.604480"><ele>9.7</ele><time>2021-05-20T15:22:17Z</time><name>PT15136</name></trkpt>
<trkpt lat="53.315994" lon="06.604485"><ele>9.6</ele><time>2021-05-20T15:22:18Z</time><name>PT15137</name></trkpt>
<trkpt lat="53.315985" lon="06.604491"><ele>9.6</ele><time>2021-05-20T15:22:19Z</time><name>PT15138</name></trkpt>
<trkpt lat="53.315976" lon="06.604497"><ele>9.6</ele><time>2021-05-20T15:22:20Z</time><name>PT15139</name></trkpt>
<trkpt lat="53.315966" lon="06.604503"><ele>9.7</ele><time>2021-05-20T15:22:21Z</time><name>PT15140</name></trkpt>
<trkpt lat="53.315958" lon="06.604507"><ele>9.8</ele><time>2021-05-20T15:22:22Z</time><name>PT15141</name></trkpt>
<trkpt lat="53.315949" lon="06.604512"><ele>9.7</ele><time>2021-05-20T15:22:23Z</time><name>PT15142</name></trkpt>
<trkpt lat="53.315940" lon="06.604516"><ele>9.9</ele><time>2021-05-20T15:22:24Z</time><name>PT15143</name></trkpt>
<trkpt lat="53.315931" lon="06.604523"><ele>10</ele><time>2021-05-20T15:22:25Z</time><name>PT15144</name></trkpt>
<trkpt lat="53.315923" lon="06.604529"><ele>9.9</ele><time>2021-05-20T15:22:26Z</time><name>PT15145</name></trkpt>
<trkpt lat="53.315914" lon="06.604534"><ele>9.8</ele><time>2021-05-20T15:22:27Z</time><name>PT15146</name></trkpt>
<trkpt lat="53.315904" lon="06.604538"><ele>9.9</ele><time>2021-05-20T15:22:28Z</time><name>PT15147</name></trkpt>
<trkpt lat="53.315894" lon="06.604540"><ele>9.8</ele><time>2021-05-20T15:22:29Z</time><name>PT15148</name></trkpt>
<trkpt lat="53.315885" lon="06.604543"><ele>9.6</ele><time>2021-05-20T15:22:30Z</time><name>PT15149</name></trkpt>
<trkpt lat="53.315874" lon="06.604549"><ele>9.5</ele><time>2021-05-20T15:22:31Z</time><name>PT15150</name></trkpt>
<trkpt lat="53.315864" lon="06.604556"><ele>9.5</ele><time>2021-05-20T15:22:32Z</time><name>PT15151</name></trkpt>
<trkpt lat="53.315853" lon="06.604562"><ele>9.6</ele><time>2021-05-20T15:22:33Z</time><name>PT15152</name></trkpt>
<trkpt lat="53.315843" lon="06.604567"><ele>9.6</ele><time>2021-05-20T15:22:34Z</time><name>PT15153</name></trkpt>
<trkpt lat="53.315833" lon="06.604572"><ele>9.4</ele><time>2021-05-20T15:22:35Z</time><name>PT15154</name></trkpt>
<trkpt lat="53.315822" lon="06.604579"><ele>9.3</ele><time>2021-05-20T15:22:36Z</time><name>PT15155</name></trkpt>
<trkpt lat="53.315811" lon="06.604586"><ele>9.4</ele><time>2021-05-20T15:22:37Z</time><name>PT15156</name></trkpt>
<trkpt lat="53.315801" lon="06.604593"><ele>9.4</ele><time>2021-05-20T15:22:38Z</time><name>PT15157</name></trkpt>
<trkpt lat="53.315791" lon="06.604599"><ele>9.3</ele><time>2021-05-20T15:22:39Z</time><name>PT15158</name></trkpt>
<trkpt lat="53.315781" lon="06.604604"><ele>9.5</ele><time>2021-05-20T15:22:40Z</time><name>PT15159</name></trkpt>
<trkpt lat="53.315772" lon="06.604609"><ele>9.3</ele><time>2021-05-20T15:22:41Z</time><name>PT15160</name></trkpt>
<trkpt lat="53.315763" lon="06.604613"><ele>9</ele><time>2021-05-20T15:22:42Z</time><name>PT15161</name></trkpt>
<trkpt lat="53.315754" lon="06.604619"><ele>9.1</ele><time>2021-05-20T15:22:43Z</time><name>PT15162</name></trkpt>
<trkpt lat="53.315743" lon="06.604624"><ele>9</ele><time>2021-05-20T15:22:44Z</time><name>PT15163</name></trkpt>
<trkpt lat="53.315732" lon="06.604628"><ele>9</ele><time>2021-05-20T15:22:45Z</time><name>PT15164</name></trkpt>
<trkpt lat="53.315722" lon="06.604633"><ele>9.1</ele><time>2021-05-20T15:22:46Z</time><name>PT15165</name></trkpt>
<trkpt lat="53.315712" lon="06.604638"><ele>8.9</ele><time>2021-05-20T15:22:47Z</time><name>PT15166</name></trkpt>
<trkpt lat="53.315702" lon="06.604644"><ele>8.9</ele><time>2021-05-20T15:22:48Z</time><name>PT15167</name></trkpt>
<trkpt lat="53.315692" lon="06.604649"><ele>8.9</ele><time>2021-05-20T15:22:49Z</time><name>PT15168</name></trkpt>
<trkpt lat="53.315683" lon="06.604655"><ele>9</ele><time>2021-05-20T15:22:50Z</time><name>PT15169</name></trkpt>
<trkpt lat="53.315672" lon="06.604661"><ele>9.2</ele><time>2021-05-20T15:22:51Z</time><name>PT15170</name></trkpt>
<trkpt lat="53.315662" lon="06.604667"><ele>9.2</ele><time>2021-05-20T15:22:52Z</time><name>PT15171</name></trkpt>
<trkpt lat="53.315651" lon="06.604670"><ele>9.3</ele><time>2021-05-20T15:22:53Z</time><name>PT15172</name></trkpt>
<trkpt lat="53.315641" lon="06.604673"><ele>9.2</ele><time>2021-05-20T15:22:54Z</time><name>PT15173</name></trkpt>
<trkpt lat="53.315632" lon="06.604679"><ele>9.1</ele><time>2021-05-20T15:22:55Z</time><name>PT15174</name></trkpt>
<trkpt lat="53.315622" lon="06.604684"><ele>9.1</ele><time>2021-05-20T15:22:56Z</time><name>PT15175</name></trkpt>
<trkpt lat="53.315611" lon="06.604690"><ele>9</ele><time>2021-05-20T15:22:57Z</time><name>PT15176</name></trkpt>
<trkpt lat="53.315600" lon="06.604696"><ele>8.9</ele><time>2021-05-20T15:22:58Z</time><name>PT15177</name></trkpt>
<trkpt lat="53.315589" lon="06.604701"><ele>8.8</ele><time>2021-05-20T15:22:59Z</time><name>PT15178</name></trkpt>
<trkpt lat="53.315579" lon="06.604707"><ele>8.9</ele><time>2021-05-20T15:23:00Z</time><name>PT15179</name></trkpt>
<trkpt lat="53.315568" lon="06.604712"><ele>8.9</ele><time>2021-05-20T15:23:01Z</time><name>PT15180</name></trkpt>
<trkpt lat="53.315558" lon="06.604715"><ele>9</ele><time>2021-05-20T15:23:02Z</time><name>PT15181</name></trkpt>
<trkpt lat="53.315548" lon="06.604719"><ele>9.2</ele><time>2021-05-20T15:23:03Z</time><name>PT15182</name></trkpt>
<trkpt lat="53.315539" lon="06.604724"><ele>9.4</ele><time>2021-05-20T15:23:04Z</time><name>PT15183</name></trkpt>
<trkpt lat="53.315533" lon="06.604729"><ele>9.5</ele><time>2021-05-20T15:23:05Z</time><name>PT15184</name></trkpt>
<trkpt lat="53.315531" lon="06.604733"><ele>9.8</ele><time>2021-05-20T15:23:06Z</time><name>PT15185</name></trkpt>
<trkpt lat="53.315530" lon="06.604739"><ele>9.8</ele><time>2021-05-20T15:23:07Z</time><name>PT15186</name></trkpt>
<trkpt lat="53.315530" lon="06.604742"><ele>10</ele><time>2021-05-20T15:23:08Z</time><name>PT15187</name></trkpt>
<trkpt lat="53.315528" lon="06.604736"><ele>10</ele><time>2021-05-20T15:23:31Z</time><name>PT15188</name></trkpt>
<trkpt lat="53.315524" lon="06.604735"><ele>10</ele><time>2021-05-20T15:23:32Z</time><name>PT15189</name></trkpt>
<trkpt lat="53.315517" lon="06.604734"><ele>10.2</ele><time>2021-05-20T15:23:33Z</time><name>PT15190</name></trkpt>
<trkpt lat="53.315509" lon="06.604734"><ele>10.2</ele><time>2021-05-20T15:23:34Z</time><name>PT15191</name></trkpt>
<trkpt lat="53.315499" lon="06.604736"><ele>10.4</ele><time>2021-05-20T15:23:35Z</time><name>PT15192</name></trkpt>
<trkpt lat="53.315487" lon="06.604740"><ele>10.6</ele><time>2021-05-20T15:23:36Z</time><name>PT15193</name></trkpt>
<trkpt lat="53.315474" lon="06.604746"><ele>10.5</ele><time>2021-05-20T15:23:37Z</time><name>PT15194</name></trkpt>
<trkpt lat="53.315460" lon="06.604753"><ele>10.5</ele><time>2021-05-20T15:23:38Z</time><name>PT15195</name></trkpt>
<trkpt lat="53.315449" lon="06.604761"><ele>10.4</ele><time>2021-05-20T15:23:39Z</time><name>PT15196</name></trkpt>
<trkpt lat="53.315439" lon="06.604768"><ele>10.4</ele><time>2021-05-20T15:23:40Z</time><name>PT15197</name></trkpt>
<trkpt lat="53.315432" lon="06.604773"><ele>10.5</ele><time>2021-05-20T15:23:41Z</time><name>PT15198</name></trkpt>
<trkpt lat="53.315424" lon="06.604778"><ele>10.4</ele><time>2021-05-20T15:23:42Z</time><name>PT15199</name></trkpt>
<trkpt lat="53.315416" lon="06.604781"><ele>10.6</ele><time>2021-05-20T15:23:43Z</time><name>PT15200</name></trkpt>
<trkpt lat="53.315407" lon="06.604785"><ele>10.7</ele><time>2021-05-20T15:23:44Z</time><name>PT15201</name></trkpt>
<trkpt lat="53.315394" lon="06.604788"><ele>10.5</ele><time>2021-05-20T15:23:45Z</time><name>PT15202</name></trkpt>
<trkpt lat="53.315381" lon="06.604795"><ele>10.6</ele><time>2021-05-20T15:23:46Z</time><name>PT15203</name></trkpt>
<trkpt lat="53.315369" lon="06.604800"><ele>10.5</ele><time>2021-05-20T15:23:47Z</time><name>PT15204</name></trkpt>
<trkpt lat="53.315359" lon="06.604805"><ele>10.2</ele><time>2021-05-20T15:23:48Z</time><name>PT15205</name></trkpt>
<trkpt lat="53.315348" lon="06.604812"><ele>10.3</ele><time>2021-05-20T15:23:49Z</time><name>PT15206</name></trkpt>
<trkpt lat="53.315326" lon="06.604825"><ele>10.4</ele><time>2021-05-20T15:23:51Z</time><name>PT15207</name></trkpt>
<trkpt lat="53.315315" lon="06.604831"><ele>10.5</ele><time>2021-05-20T15:23:52Z</time><name>PT15208</name></trkpt>
<trkpt lat="53.315305" lon="06.604838"><ele>10.4</ele><time>2021-05-20T15:23:53Z</time><name>PT15209</name></trkpt>
<trkpt lat="53.315295" lon="06.604843"><ele>10.3</ele><time>2021-05-20T15:23:54Z</time><name>PT15210</name></trkpt>
<trkpt lat="53.315285" lon="06.604848"><ele>10.4</ele><time>2021-05-20T15:23:55Z</time><name>PT15211</name></trkpt>
<trkpt lat="53.315274" lon="06.604853"><ele>10.3</ele><time>2021-05-20T15:23:56Z</time><name>PT15212</name></trkpt>
<trkpt lat="53.315263" lon="06.604856"><ele>10.4</ele><time>2021-05-20T15:23:57Z</time><name>PT15213</name></trkpt>
<trkpt lat="53.315252" lon="06.604860"><ele>10.4</ele><time>2021-05-20T15:23:58Z</time><name>PT15214</name></trkpt>
<trkpt lat="53.315241" lon="06.604866"><ele>10.4</ele><time>2021-05-20T15:23:59Z</time><name>PT15215</name></trkpt>
<trkpt lat="53.315231" lon="06.604872"><ele>10.2</ele><time>2021-05-20T15:24:00Z</time><name>PT15216</name></trkpt>
<trkpt lat="53.315220" lon="06.604876"><ele>10.2</ele><time>2021-05-20T15:24:01Z</time><name>PT15217</name></trkpt>
<trkpt lat="53.315209" lon="06.604883"><ele>10</ele><time>2021-05-20T15:24:02Z</time><name>PT15218</name></trkpt>
<trkpt lat="53.315202" lon="06.604889"><ele>10</ele><time>2021-05-20T15:24:03Z</time><name>PT15219</name></trkpt>
<trkpt lat="53.315195" lon="06.604890"><ele>10</ele><time>2021-05-20T15:24:04Z</time><name>PT15220</name></trkpt>
<trkpt lat="53.315194" lon="06.604892"><ele>10.2</ele><time>2021-05-20T15:24:05Z</time><name>PT15221</name></trkpt>
<trkpt lat="53.315194" lon="06.604893"><ele>10.3</ele><time>2021-05-20T15:24:06Z</time><name>PT15222</name></trkpt>
<trkpt lat="53.315195" lon="06.604892"><ele>10.2</ele><time>2021-05-20T15:24:07Z</time><name>PT15223</name></trkpt>
<trkpt lat="53.315190" lon="06.604896"><ele>10.1</ele><time>2021-05-20T15:24:19Z</time><name>PT15224</name></trkpt>
<trkpt lat="53.315179" lon="06.604901"><ele>10</ele><time>2021-05-20T15:24:20Z</time><name>PT15225</name></trkpt>
<trkpt lat="53.315168" lon="06.604907"><ele>10</ele><time>2021-05-20T15:24:21Z</time><name>PT15226</name></trkpt>
<trkpt lat="53.315157" lon="06.604911"><ele>10.1</ele><time>2021-05-20T15:24:22Z</time><name>PT15227</name></trkpt>
<trkpt lat="53.315146" lon="06.604916"><ele>9.9</ele><time>2021-05-20T15:24:23Z</time><name>PT15228</name></trkpt>
<trkpt lat="53.315134" lon="06.604922"><ele>10</ele><time>2021-05-20T15:24:24Z</time><name>PT15229</name></trkpt>
<trkpt lat="53.315123" lon="06.604928"><ele>9.9</ele><time>2021-05-20T15:24:25Z</time><name>PT15230</name></trkpt>
<trkpt lat="53.315110" lon="06.604936"><ele>9.9</ele><time>2021-05-20T15:24:26Z</time><name>PT15231</name></trkpt>
<trkpt lat="53.315098" lon="06.604939"><ele>9.9</ele><time>2021-05-20T15:24:27Z</time><name>PT15232</name></trkpt>
<trkpt lat="53.315087" lon="06.604942"><ele>9.8</ele><time>2021-05-20T15:24:28Z</time><name>PT15233</name></trkpt>
<trkpt lat="53.315076" lon="06.604947"><ele>9.8</ele><time>2021-05-20T15:24:29Z</time><name>PT15234</name></trkpt>
<trkpt lat="53.315064" lon="06.604951"><ele>10</ele><time>2021-05-20T15:24:30Z</time><name>PT15235</name></trkpt>
<trkpt lat="53.315053" lon="06.604957"><ele>10.1</ele><time>2021-05-20T15:24:31Z</time><name>PT15236</name></trkpt>
<trkpt lat="53.315041" lon="06.604963"><ele>10.2</ele><time>2021-05-20T15:24:32Z</time><name>PT15237</name></trkpt>
<trkpt lat="53.315030" lon="06.604968"><ele>10.3</ele><time>2021-05-20T15:24:33Z</time><name>PT15238</name></trkpt>
<trkpt lat="53.315017" lon="06.604973"><ele>10.4</ele><time>2021-05-20T15:24:34Z</time><name>PT15239</name></trkpt>
<trkpt lat="53.315007" lon="06.604980"><ele>10.5</ele><time>2021-05-20T15:24:35Z</time><name>PT15240</name></trkpt>
<trkpt lat="53.314996" lon="06.604987"><ele>10.5</ele><time>2021-05-20T15:24:36Z</time><name>PT15241</name></trkpt>
<trkpt lat="53.314986" lon="06.604993"><ele>10.5</ele><time>2021-05-20T15:24:37Z</time><name>PT15242</name></trkpt>
<trkpt lat="53.314975" lon="06.604999"><ele>10.5</ele><time>2021-05-20T15:24:38Z</time><name>PT15243</name></trkpt>
<trkpt lat="53.314964" lon="06.605002"><ele>10.2</ele><time>2021-05-20T15:24:39Z</time><name>PT15244</name></trkpt>
<trkpt lat="53.314953" lon="06.605006"><ele>10.1</ele><time>2021-05-20T15:24:40Z</time><name>PT15245</name></trkpt>
<trkpt lat="53.314943" lon="06.605010"><ele>9.9</ele><time>2021-05-20T15:24:41Z</time><name>PT15246</name></trkpt>
<trkpt lat="53.314932" lon="06.605015"><ele>10.1</ele><time>2021-05-20T15:24:42Z</time><name>PT15247</name></trkpt>
<trkpt lat="53.314921" lon="06.605021"><ele>10.2</ele><time>2021-05-20T15:24:43Z</time><name>PT15248</name></trkpt>
<trkpt lat="53.314910" lon="06.605028"><ele>10.5</ele><time>2021-05-20T15:24:44Z</time><name>PT15249</name></trkpt>
<trkpt lat="53.314900" lon="06.605034"><ele>10.6</ele><time>2021-05-20T15:24:45Z</time><name>PT15250</name></trkpt>
<trkpt lat="53.314891" lon="06.605039"><ele>10.6</ele><time>2021-05-20T15:24:46Z</time><name>PT15251</name></trkpt>
<trkpt lat="53.314881" lon="06.605042"><ele>10.4</ele><time>2021-05-20T15:24:47Z</time><name>PT15252</name></trkpt>
<trkpt lat="53.314871" lon="06.605045"><ele>10.2</ele><time>2021-05-20T15:24:48Z</time><name>PT15253</name></trkpt>
<trkpt lat="53.314860" lon="06.605048"><ele>10</ele><time>2021-05-20T15:24:49Z</time><name>PT15254</name></trkpt>
<trkpt lat="53.314849" lon="06.605050"><ele>10</ele><time>2021-05-20T15:24:50Z</time><name>PT15255</name></trkpt>
<trkpt lat="53.314839" lon="06.605055"><ele>9.9</ele><time>2021-05-20T15:24:51Z</time><name>PT15256</name></trkpt>
<trkpt lat="53.314832" lon="06.605059"><ele>10</ele><time>2021-05-20T15:24:52Z</time><name>PT15257</name></trkpt>
<trkpt lat="53.314829" lon="06.605061"><ele>10.3</ele><time>2021-05-20T15:24:53Z</time><name>PT15258</name></trkpt>
<trkpt lat="53.314828" lon="06.605063"><ele>10.4</ele><time>2021-05-20T15:24:54Z</time><name>PT15259</name></trkpt>
<trkpt lat="53.314828" lon="06.605064"><ele>10.3</ele><time>2021-05-20T15:24:55Z</time><name>PT15260</name></trkpt>
<trkpt lat="53.314822" lon="06.605067"><ele>10.7</ele><time>2021-05-20T15:25:09Z</time><name>PT15261</name></trkpt>
<trkpt lat="53.314813" lon="06.605072"><ele>10.7</ele><time>2021-05-20T15:25:10Z</time><name>PT15262</name></trkpt>
<trkpt lat="53.314802" lon="06.605075"><ele>10.5</ele><time>2021-05-20T15:25:11Z</time><name>PT15263</name></trkpt>
<trkpt lat="53.314792" lon="06.605079"><ele>10.4</ele><time>2021-05-20T15:25:12Z</time><name>PT15264</name></trkpt>
<trkpt lat="53.314783" lon="06.605085"><ele>10.4</ele><time>2021-05-20T15:25:13Z</time><name>PT15265</name></trkpt>
<trkpt lat="53.314773" lon="06.605090"><ele>10.2</ele><time>2021-05-20T15:25:14Z</time><name>PT15266</name></trkpt>
<trkpt lat="53.314762" lon="06.605092"><ele>10.4</ele><time>2021-05-20T15:25:15Z</time><name>PT15267</name></trkpt>
<trkpt lat="53.314751" lon="06.605094"><ele>10.3</ele><time>2021-05-20T15:25:16Z</time><name>PT15268</name></trkpt>
<trkpt lat="53.314741" lon="06.605095"><ele>10.4</ele><time>2021-05-20T15:25:17Z</time><name>PT15269</name></trkpt>
<trkpt lat="53.314730" lon="06.605097"><ele>10.5</ele><time>2021-05-20T15:25:18Z</time><name>PT15270</name></trkpt>
<trkpt lat="53.314721" lon="06.605101"><ele>10.5</ele><time>2021-05-20T15:25:19Z</time><name>PT15271</name></trkpt>
<trkpt lat="53.314711" lon="06.605106"><ele>10.4</ele><time>2021-05-20T15:25:20Z</time><name>PT15272</name></trkpt>
<trkpt lat="53.314702" lon="06.605112"><ele>10.4</ele><time>2021-05-20T15:25:21Z</time><name>PT15273</name></trkpt>
<trkpt lat="53.314692" lon="06.605116"><ele>10.3</ele><time>2021-05-20T15:25:22Z</time><name>PT15274</name></trkpt>
<trkpt lat="53.314680" lon="06.605119"><ele>10.2</ele><time>2021-05-20T15:25:23Z</time><name>PT15275</name></trkpt>
<trkpt lat="53.314670" lon="06.605121"><ele>10</ele><time>2021-05-20T15:25:24Z</time><name>PT15276</name></trkpt>
<trkpt lat="53.314660" lon="06.605123"><ele>9.9</ele><time>2021-05-20T15:25:25Z</time><name>PT15277</name></trkpt>
<trkpt lat="53.314650" lon="06.605127"><ele>10.1</ele><time>2021-05-20T15:25:26Z</time><name>PT15278</name></trkpt>
<trkpt lat="53.314640" lon="06.605131"><ele>10.3</ele><time>2021-05-20T15:25:27Z</time><name>PT15279</name></trkpt>
<trkpt lat="53.314630" lon="06.605135"><ele>10.4</ele><time>2021-05-20T15:25:28Z</time><name>PT15280</name></trkpt>
<trkpt lat="53.314621" lon="06.605139"><ele>10.6</ele><time>2021-05-20T15:25:29Z</time><name>PT15281</name></trkpt>
<trkpt lat="53.314616" lon="06.605141"><ele>10.5</ele><time>2021-05-20T15:25:30Z</time><name>PT15282</name></trkpt>
<trkpt lat="53.314615" lon="06.605141"><ele>10.3</ele><time>2021-05-20T15:25:31Z</time><name>PT15283</name></trkpt>
<trkpt lat="53.314615" lon="06.605141"><ele>10.2</ele><time>2021-05-20T15:25:32Z</time><name>PT15284</name></trkpt>
<trkpt lat="53.314615" lon="06.605142"><ele>10.2</ele><time>2021-05-20T15:25:33Z</time><name>PT15285</name></trkpt>
<trkpt lat="53.314609" lon="06.605145"><ele>10.3</ele><time>2021-05-20T15:25:47Z</time><name>PT15286</name></trkpt>
<trkpt lat="53.314594" lon="06.605151"><ele>10.2</ele><time>2021-05-20T15:25:48Z</time><name>PT15287</name></trkpt>
<trkpt lat="53.314581" lon="06.605160"><ele>10.2</ele><time>2021-05-20T15:25:49Z</time><name>PT15288</name></trkpt>
<trkpt lat="53.314569" lon="06.605168"><ele>10.1</ele><time>2021-05-20T15:25:50Z</time><name>PT15289</name></trkpt>
<trkpt lat="53.314557" lon="06.605174"><ele>10.2</ele><time>2021-05-20T15:25:51Z</time><name>PT15290</name></trkpt>
<trkpt lat="53.314546" lon="06.605178"><ele>10.3</ele><time>2021-05-20T15:25:52Z</time><name>PT15291</name></trkpt>
<trkpt lat="53.314535" lon="06.605181"><ele>10.4</ele><time>2021-05-20T15:25:53Z</time><name>PT15292</name></trkpt>
<trkpt lat="53.314524" lon="06.605186"><ele>10.3</ele><time>2021-05-20T15:25:54Z</time><name>PT15293</name></trkpt>
<trkpt lat="53.314513" lon="06.605190"><ele>10.5</ele><time>2021-05-20T15:25:55Z</time><name>PT15294</name></trkpt>
<trkpt lat="53.314503" lon="06.605193"><ele>10.6</ele><time>2021-05-20T15:25:56Z</time><name>PT15295</name></trkpt>
<trkpt lat="53.314492" lon="06.605197"><ele>10.5</ele><time>2021-05-20T15:25:57Z</time><name>PT15296</name></trkpt>
<trkpt lat="53.314482" lon="06.605202"><ele>10.6</ele><time>2021-05-20T15:25:58Z</time><name>PT15297</name></trkpt>
<trkpt lat="53.314473" lon="06.605206"><ele>10.5</ele><time>2021-05-20T15:25:59Z</time><name>PT15298</name></trkpt>
<trkpt lat="53.314462" lon="06.605209"><ele>10.4</ele><time>2021-05-20T15:26:00Z</time><name>PT15299</name></trkpt>
<trkpt lat="53.314451" lon="06.605209"><ele>10.3</ele><time>2021-05-20T15:26:01Z</time><name>PT15300</name></trkpt>
<trkpt lat="53.314440" lon="06.605209"><ele>10.1</ele><time>2021-05-20T15:26:02Z</time><name>PT15301</name></trkpt>
<trkpt lat="53.314431" lon="06.605211"><ele>10.1</ele><time>2021-05-20T15:26:03Z</time><name>PT15302</name></trkpt>
<trkpt lat="53.314421" lon="06.605215"><ele>10.2</ele><time>2021-05-20T15:26:04Z</time><name>PT15303</name></trkpt>
<trkpt lat="53.314411" lon="06.605218"><ele>10.3</ele><time>2021-05-20T15:26:05Z</time><name>PT15304</name></trkpt>
<trkpt lat="53.314401" lon="06.605222"><ele>10.4</ele><time>2021-05-20T15:26:06Z</time><name>PT15305</name></trkpt>
<trkpt lat="53.314396" lon="06.605224"><ele>10.7</ele><time>2021-05-20T15:26:07Z</time><name>PT15306</name></trkpt>
<trkpt lat="53.314394" lon="06.605224"><ele>10.7</ele><time>2021-05-20T15:26:08Z</time><name>PT15307</name></trkpt>
<trkpt lat="53.314394" lon="06.605225"><ele>10.6</ele><time>2021-05-20T15:26:09Z</time><name>PT15308</name></trkpt>
<trkpt lat="53.314394" lon="06.605224"><ele>10.7</ele><time>2021-05-20T15:26:10Z</time><name>PT15309</name></trkpt>
<trkpt lat="53.314392" lon="06.605222"><ele>11</ele><time>2021-05-20T15:26:13Z</time><name>PT15310</name></trkpt>
<trkpt lat="53.314382" lon="06.605225"><ele>10.9</ele><time>2021-05-20T15:26:14Z</time><name>PT15311</name></trkpt>
<trkpt lat="53.314376" lon="06.605228"><ele>10.8</ele><time>2021-05-20T15:26:15Z</time><name>PT15312</name></trkpt>
<trkpt lat="53.314373" lon="06.605228"><ele>10.7</ele><time>2021-05-20T15:26:16Z</time><name>PT15313</name></trkpt>
<trkpt lat="53.314373" lon="06.605228"><ele>10.7</ele><time>2021-05-20T15:26:17Z</time><name>PT15314</name></trkpt>
<trkpt lat="53.314370" lon="06.605230"><ele>10.7</ele><time>2021-05-20T15:26:18Z</time><name>PT15315</name></trkpt>
<trkpt lat="53.314362" lon="06.605233"><ele>10.7</ele><time>2021-05-20T15:26:19Z</time><name>PT15316</name></trkpt>
<trkpt lat="53.314353" lon="06.605234"><ele>10.7</ele><time>2021-05-20T15:26:20Z</time><name>PT15317</name></trkpt>
<trkpt lat="53.314342" lon="06.605235"><ele>10.6</ele><time>2021-05-20T15:26:21Z</time><name>PT15318</name></trkpt>
<trkpt lat="53.314332" lon="06.605235"><ele>10.7</ele><time>2021-05-20T15:26:22Z</time><name>PT15319</name></trkpt>
<trkpt lat="53.314322" lon="06.605235"><ele>10.6</ele><time>2021-05-20T15:26:23Z</time><name>PT15320</name></trkpt>
<trkpt lat="53.314312" lon="06.605235"><ele>10.5</ele><time>2021-05-20T15:26:24Z</time><name>PT15321</name></trkpt>
<trkpt lat="53.314302" lon="06.605237"><ele>10.5</ele><time>2021-05-20T15:26:25Z</time><name>PT15322</name></trkpt>
<trkpt lat="53.314291" lon="06.605240"><ele>10.6</ele><time>2021-05-20T15:26:26Z</time><name>PT15323</name></trkpt>
<trkpt lat="53.314280" lon="06.605242"><ele>10.6</ele><time>2021-05-20T15:26:27Z</time><name>PT15324</name></trkpt>
<trkpt lat="53.314269" lon="06.605242"><ele>10.7</ele><time>2021-05-20T15:26:28Z</time><name>PT15325</name></trkpt>
<trkpt lat="53.314260" lon="06.605239"><ele>10.7</ele><time>2021-05-20T15:26:29Z</time><name>PT15326</name></trkpt>
<trkpt lat="53.314251" lon="06.605238"><ele>10.7</ele><time>2021-05-20T15:26:30Z</time><name>PT15327</name></trkpt>
<trkpt lat="53.314241" lon="06.605236"><ele>10.7</ele><time>2021-05-20T15:26:31Z</time><name>PT15328</name></trkpt>
<trkpt lat="53.314233" lon="06.605230"><ele>10.7</ele><time>2021-05-20T15:26:32Z</time><name>PT15329</name></trkpt>
<trkpt lat="53.314224" lon="06.605221"><ele>10.7</ele><time>2021-05-20T15:26:33Z</time><name>PT15330</name></trkpt>
<trkpt lat="53.314216" lon="06.605214"><ele>10.8</ele><time>2021-05-20T15:26:34Z</time><name>PT15331</name></trkpt>
<trkpt lat="53.314209" lon="06.605212"><ele>10.7</ele><time>2021-05-20T15:26:35Z</time><name>PT15332</name></trkpt>
<trkpt lat="53.314203" lon="06.605212"><ele>10.8</ele><time>2021-05-20T15:26:36Z</time><name>PT15333</name></trkpt>
<trkpt lat="53.314198" lon="06.605211"><ele>10.8</ele><time>2021-05-20T15:26:37Z</time><name>PT15334</name></trkpt>
<trkpt lat="53.314192" lon="06.605210"><ele>11</ele><time>2021-05-20T15:26:38Z</time><name>PT15335</name></trkpt>
<trkpt lat="53.314185" lon="06.605208"><ele>11</ele><time>2021-05-20T15:26:39Z</time><name>PT15336</name></trkpt>
<trkpt lat="53.314179" lon="06.605203"><ele>10.9</ele><time>2021-05-20T15:26:40Z</time><name>PT15337</name></trkpt>
<trkpt lat="53.314174" lon="06.605199"><ele>10.9</ele><time>2021-05-20T15:26:41Z</time><name>PT15338</name></trkpt>
<trkpt lat="53.314167" lon="06.605193"><ele>10.7</ele><time>2021-05-20T15:26:42Z</time><name>PT15339</name></trkpt>
<trkpt lat="53.314165" lon="06.605189"><ele>10.8</ele><time>2021-05-20T15:26:43Z</time><name>PT15340</name></trkpt>
<trkpt lat="53.314164" lon="06.605185"><ele>10.8</ele><time>2021-05-20T15:26:44Z</time><name>PT15341</name></trkpt>
<trkpt lat="53.314160" lon="06.605181"><ele>10.9</ele><time>2021-05-20T15:26:45Z</time><name>PT15342</name></trkpt>
<trkpt lat="53.314157" lon="06.605179"><ele>11.1</ele><time>2021-05-20T15:26:46Z</time><name>PT15343</name></trkpt>
<trkpt lat="53.314154" lon="06.605174"><ele>11.1</ele><time>2021-05-20T15:26:47Z</time><name>PT15344</name></trkpt>
<trkpt lat="53.314152" lon="06.605168"><ele>10.9</ele><time>2021-05-20T15:26:51Z</time><name>PT15345</name></trkpt>
<trkpt lat="53.314150" lon="06.605153"><ele>10.8</ele><time>2021-05-20T15:26:52Z</time><name>PT15346</name></trkpt>
<trkpt lat="53.314147" lon="06.605137"><ele>10.9</ele><time>2021-05-20T15:26:53Z</time><name>PT15347</name></trkpt>
<trkpt lat="53.314145" lon="06.605124"><ele>11</ele><time>2021-05-20T15:26:54Z</time><name>PT15348</name></trkpt>
<trkpt lat="53.314141" lon="06.605106"><ele>11.1</ele><time>2021-05-20T15:26:55Z</time><name>PT15349</name></trkpt>
<trkpt lat="53.314136" lon="06.605090"><ele>11.1</ele><time>2021-05-20T15:26:56Z</time><name>PT15350</name></trkpt>
<trkpt lat="53.314131" lon="06.605073"><ele>11.1</ele><time>2021-05-20T15:26:57Z</time><name>PT15351</name></trkpt>
<trkpt lat="53.314129" lon="06.605057"><ele>11</ele><time>2021-05-20T15:26:58Z</time><name>PT15352</name></trkpt>
<trkpt lat="53.314127" lon="06.605039"><ele>11.1</ele><time>2021-05-20T15:26:59Z</time><name>PT15353</name></trkpt>
<trkpt lat="53.314126" lon="06.605024"><ele>11.1</ele><time>2021-05-20T15:27:00Z</time><name>PT15354</name></trkpt>
<trkpt lat="53.314124" lon="06.605008"><ele>11</ele><time>2021-05-20T15:27:01Z</time><name>PT15355</name></trkpt>
<trkpt lat="53.314122" lon="06.604989"><ele>11.1</ele><time>2021-05-20T15:27:02Z</time><name>PT15356</name></trkpt>
<trkpt lat="53.314121" lon="06.604965"><ele>11</ele><time>2021-05-20T15:27:03Z</time><name>PT15357</name></trkpt>
<trkpt lat="53.314122" lon="06.604947"><ele>10.9</ele><time>2021-05-20T15:27:04Z</time><name>PT15358</name></trkpt>
<trkpt lat="53.314121" lon="06.604929"><ele>11</ele><time>2021-05-20T15:27:05Z</time><name>PT15359</name></trkpt>
<trkpt lat="53.314119" lon="06.604913"><ele>11.1</ele><time>2021-05-20T15:27:06Z</time><name>PT15360</name></trkpt>
<trkpt lat="53.314120" lon="06.604900"><ele>11.2</ele><time>2021-05-20T15:27:07Z</time><name>PT15361</name></trkpt>
<trkpt lat="53.314121" lon="06.604884"><ele>11.3</ele><time>2021-05-20T15:27:08Z</time><name>PT15362</name></trkpt>
<trkpt lat="53.314120" lon="06.604867"><ele>11.3</ele><time>2021-05-20T15:27:09Z</time><name>PT15363</name></trkpt>
<trkpt lat="53.314120" lon="06.604850"><ele>11.4</ele><time>2021-05-20T15:27:10Z</time><name>PT15364</name></trkpt>
<trkpt lat="53.314120" lon="06.604832"><ele>11.2</ele><time>2021-05-20T15:27:11Z</time><name>PT15365</name></trkpt>
<trkpt lat="53.314120" lon="06.604814"><ele>11.1</ele><time>2021-05-20T15:27:12Z</time><name>PT15366</name></trkpt>
<trkpt lat="53.314121" lon="06.604797"><ele>11.2</ele><time>2021-05-20T15:27:13Z</time><name>PT15367</name></trkpt>
<trkpt lat="53.314122" lon="06.604778"><ele>11.1</ele><time>2021-05-20T15:27:14Z</time><name>PT15368</name></trkpt>
<trkpt lat="53.314123" lon="06.604757"><ele>11.1</ele><time>2021-05-20T15:27:15Z</time><name>PT15369</name></trkpt>
<trkpt lat="53.314125" lon="06.604740"><ele>10.9</ele><time>2021-05-20T15:27:16Z</time><name>PT15370</name></trkpt>
<trkpt lat="53.314124" lon="06.604725"><ele>10.8</ele><time>2021-05-20T15:27:17Z</time><name>PT15371</name></trkpt>
<trkpt lat="53.314124" lon="06.604707"><ele>10.6</ele><time>2021-05-20T15:27:18Z</time><name>PT15372</name></trkpt>
<trkpt lat="53.314124" lon="06.604691"><ele>10.6</ele><time>2021-05-20T15:27:19Z</time><name>PT15373</name></trkpt>
<trkpt lat="53.314125" lon="06.604672"><ele>10.8</ele><time>2021-05-20T15:27:20Z</time><name>PT15374</name></trkpt>
<trkpt lat="53.314125" lon="06.604653"><ele>11</ele><time>2021-05-20T15:27:21Z</time><name>PT15375</name></trkpt>
<trkpt lat="53.314126" lon="06.604635"><ele>10.9</ele><time>2021-05-20T15:27:22Z</time><name>PT15376</name></trkpt>
<trkpt lat="53.314126" lon="06.604619"><ele>10.9</ele><time>2021-05-20T15:27:23Z</time><name>PT15377</name></trkpt>
<trkpt lat="53.314127" lon="06.604600"><ele>11</ele><time>2021-05-20T15:27:24Z</time><name>PT15378</name></trkpt>
<trkpt lat="53.314127" lon="06.604584"><ele>10.9</ele><time>2021-05-20T15:27:25Z</time><name>PT15379</name></trkpt>
<trkpt lat="53.314128" lon="06.604567"><ele>11</ele><time>2021-05-20T15:27:26Z</time><name>PT15380</name></trkpt>
<trkpt lat="53.314129" lon="06.604551"><ele>11.1</ele><time>2021-05-20T15:27:27Z</time><name>PT15381</name></trkpt>
<trkpt lat="53.314130" lon="06.604535"><ele>10.9</ele><time>2021-05-20T15:27:28Z</time><name>PT15382</name></trkpt>
<trkpt lat="53.314131" lon="06.604519"><ele>11.1</ele><time>2021-05-20T15:27:29Z</time><name>PT15383</name></trkpt>
<trkpt lat="53.314131" lon="06.604503"><ele>11.1</ele><time>2021-05-20T15:27:30Z</time><name>PT15384</name></trkpt>
<trkpt lat="53.314132" lon="06.604485"><ele>11.2</ele><time>2021-05-20T15:27:31Z</time><name>PT15385</name></trkpt>
<trkpt lat="53.314133" lon="06.604465"><ele>11.3</ele><time>2021-05-20T15:27:32Z</time><name>PT15386</name></trkpt>
<trkpt lat="53.314136" lon="06.604446"><ele>11.3</ele><time>2021-05-20T15:27:33Z</time><name>PT15387</name></trkpt>
<trkpt lat="53.314138" lon="06.604429"><ele>11.4</ele><time>2021-05-20T15:27:34Z</time><name>PT15388</name></trkpt>
<trkpt lat="53.314139" lon="06.604414"><ele>11.2</ele><time>2021-05-20T15:27:35Z</time><name>PT15389</name></trkpt>
<trkpt lat="53.314141" lon="06.604396"><ele>11.1</ele><time>2021-05-20T15:27:36Z</time><name>PT15390</name></trkpt>
<trkpt lat="53.314142" lon="06.604380"><ele>11.2</ele><time>2021-05-20T15:27:37Z</time><name>PT15391</name></trkpt>
<trkpt lat="53.314143" lon="06.604362"><ele>11.2</ele><time>2021-05-20T15:27:38Z</time><name>PT15392</name></trkpt>
<trkpt lat="53.314143" lon="06.604343"><ele>11.3</ele><time>2021-05-20T15:27:39Z</time><name>PT15393</name></trkpt>
<trkpt lat="53.314145" lon="06.604324"><ele>11.2</ele><time>2021-05-20T15:27:40Z</time><name>PT15394</name></trkpt>
<trkpt lat="53.314147" lon="06.604306"><ele>11.4</ele><time>2021-05-20T15:27:41Z</time><name>PT15395</name></trkpt>
<trkpt lat="53.314148" lon="06.604290"><ele>11.3</ele><time>2021-05-20T15:27:42Z</time><name>PT15396</name></trkpt>
<trkpt lat="53.314148" lon="06.604275"><ele>11.4</ele><time>2021-05-20T15:27:43Z</time><name>PT15397</name></trkpt>
<trkpt lat="53.314147" lon="06.604260"><ele>11.3</ele><time>2021-05-20T15:27:44Z</time><name>PT15398</name></trkpt>
<trkpt lat="53.314146" lon="06.604242"><ele>11.2</ele><time>2021-05-20T15:27:45Z</time><name>PT15399</name></trkpt>
<trkpt lat="53.314148" lon="06.604223"><ele>11.2</ele><time>2021-05-20T15:27:46Z</time><name>PT15400</name></trkpt>
<trkpt lat="53.314151" lon="06.604208"><ele>11.3</ele><time>2021-05-20T15:27:47Z</time><name>PT15401</name></trkpt>
<trkpt lat="53.314152" lon="06.604192"><ele>11.4</ele><time>2021-05-20T15:27:48Z</time><name>PT15402</name></trkpt>
<trkpt lat="53.314151" lon="06.604175"><ele>11.4</ele><time>2021-05-20T15:27:49Z</time><name>PT15403</name></trkpt>
<trkpt lat="53.314150" lon="06.604159"><ele>11.6</ele><time>2021-05-20T15:27:50Z</time><name>PT15404</name></trkpt>
<trkpt lat="53.314151" lon="06.604141"><ele>11.5</ele><time>2021-05-20T15:27:51Z</time><name>PT15405</name></trkpt>
<trkpt lat="53.314152" lon="06.604124"><ele>11.4</ele><time>2021-05-20T15:27:52Z</time><name>PT15406</name></trkpt>
<trkpt lat="53.314152" lon="06.604107"><ele>11.2</ele><time>2021-05-20T15:27:53Z</time><name>PT15407</name></trkpt>
<trkpt lat="53.314152" lon="06.604090"><ele>11.4</ele><time>2021-05-20T15:27:54Z</time><name>PT15408</name></trkpt>
<trkpt lat="53.314151" lon="06.604073"><ele>11.4</ele><time>2021-05-20T15:27:55Z</time><name>PT15409</name></trkpt>
<trkpt lat="53.314151" lon="06.604058"><ele>11.6</ele><time>2021-05-20T15:27:56Z</time><name>PT15410</name></trkpt>
<trkpt lat="53.314153" lon="06.604040"><ele>11.6</ele><time>2021-05-20T15:27:57Z</time><name>PT15411</name></trkpt>
<trkpt lat="53.314154" lon="06.604024"><ele>11.5</ele><time>2021-05-20T15:27:58Z</time><name>PT15412</name></trkpt>
<trkpt lat="53.314157" lon="06.604007"><ele>11.4</ele><time>2021-05-20T15:27:59Z</time><name>PT15413</name></trkpt>
<trkpt lat="53.314160" lon="06.603991"><ele>11.3</ele><time>2021-05-20T15:28:00Z</time><name>PT15414</name></trkpt>
<trkpt lat="53.314162" lon="06.603976"><ele>11.2</ele><time>2021-05-20T15:28:01Z</time><name>PT15415</name></trkpt>
<trkpt lat="53.314163" lon="06.603958"><ele>11.2</ele><time>2021-05-20T15:28:02Z</time><name>PT15416</name></trkpt>
<trkpt lat="53.314162" lon="06.603943"><ele>11.3</ele><time>2021-05-20T15:28:03Z</time><name>PT15417</name></trkpt>
<trkpt lat="53.314162" lon="06.603928"><ele>11.2</ele><time>2021-05-20T15:28:04Z</time><name>PT15418</name></trkpt>
<trkpt lat="53.314163" lon="06.603911"><ele>11.3</ele><time>2021-05-20T15:28:05Z</time><name>PT15419</name></trkpt>
<trkpt lat="53.314164" lon="06.603896"><ele>11.3</ele><time>2021-05-20T15:28:06Z</time><name>PT15420</name></trkpt>
<trkpt lat="53.314164" lon="06.603880"><ele>11.3</ele><time>2021-05-20T15:28:07Z</time><name>PT15421</name></trkpt>
<trkpt lat="53.314164" lon="06.603863"><ele>11.1</ele><time>2021-05-20T15:28:08Z</time><name>PT15422</name></trkpt>
<trkpt lat="53.314162" lon="06.603847"><ele>11.3</ele><time>2021-05-20T15:28:09Z</time><name>PT15423</name></trkpt>
<trkpt lat="53.314161" lon="06.603830"><ele>11.2</ele><time>2021-05-20T15:28:10Z</time><name>PT15424</name></trkpt>
<trkpt lat="53.314162" lon="06.603812"><ele>11.1</ele><time>2021-05-20T15:28:11Z</time><name>PT15425</name></trkpt>
<trkpt lat="53.314162" lon="06.603795"><ele>11.1</ele><time>2021-05-20T15:28:12Z</time><name>PT15426</name></trkpt>
<trkpt lat="53.314163" lon="06.603780"><ele>11.1</ele><time>2021-05-20T15:28:13Z</time><name>PT15427</name></trkpt>
<trkpt lat="53.314164" lon="06.603764"><ele>11</ele><time>2021-05-20T15:28:14Z</time><name>PT15428</name></trkpt>
<trkpt lat="53.314165" lon="06.603748"><ele>11.1</ele><time>2021-05-20T15:28:15Z</time><name>PT15429</name></trkpt>
<trkpt lat="53.314166" lon="06.603730"><ele>11.1</ele><time>2021-05-20T15:28:16Z</time><name>PT15430</name></trkpt>
<trkpt lat="53.314166" lon="06.603712"><ele>11.4</ele><time>2021-05-20T15:28:17Z</time><name>PT15431</name></trkpt>
<trkpt lat="53.314166" lon="06.603696"><ele>11.5</ele><time>2021-05-20T15:28:18Z</time><name>PT15432</name></trkpt>
<trkpt lat="53.314167" lon="06.603681"><ele>11.5</ele><time>2021-05-20T15:28:19Z</time><name>PT15433</name></trkpt>
<trkpt lat="53.314166" lon="06.603665"><ele>11.6</ele><time>2021-05-20T15:28:20Z</time><name>PT15434</name></trkpt>
<trkpt lat="53.314166" lon="06.603649"><ele>11.6</ele><time>2021-05-20T15:28:21Z</time><name>PT15435</name></trkpt>
<trkpt lat="53.314167" lon="06.603631"><ele>11.4</ele><time>2021-05-20T15:28:22Z</time><name>PT15436</name></trkpt>
<trkpt lat="53.314168" lon="06.603612"><ele>11.4</ele><time>2021-05-20T15:28:23Z</time><name>PT15437</name></trkpt>
<trkpt lat="53.314171" lon="06.603597"><ele>11.5</ele><time>2021-05-20T15:28:24Z</time><name>PT15438</name></trkpt>
<trkpt lat="53.314172" lon="06.603583"><ele>11.4</ele><time>2021-05-20T15:28:25Z</time><name>PT15439</name></trkpt>
<trkpt lat="53.314171" lon="06.603567"><ele>11.2</ele><time>2021-05-20T15:28:26Z</time><name>PT15440</name></trkpt>
<trkpt lat="53.314170" lon="06.603551"><ele>11.2</ele><time>2021-05-20T15:28:27Z</time><name>PT15441</name></trkpt>
<trkpt lat="53.314170" lon="06.603533"><ele>11.1</ele><time>2021-05-20T15:28:28Z</time><name>PT15442</name></trkpt>
<trkpt lat="53.314170" lon="06.603515"><ele>11.1</ele><time>2021-05-20T15:28:29Z</time><name>PT15443</name></trkpt>
<trkpt lat="53.314171" lon="06.603499"><ele>11.1</ele><time>2021-05-20T15:28:30Z</time><name>PT15444</name></trkpt>
<trkpt lat="53.314170" lon="06.603486"><ele>11.1</ele><time>2021-05-20T15:28:31Z</time><name>PT15445</name></trkpt>
<trkpt lat="53.314169" lon="06.603479"><ele>11.2</ele><time>2021-05-20T15:28:32Z</time><name>PT15446</name></trkpt>
<trkpt lat="53.314170" lon="06.603476"><ele>11.1</ele><time>2021-05-20T15:28:33Z</time><name>PT15447</name></trkpt>
<trkpt lat="53.314172" lon="06.603468"><ele>11.1</ele><time>2021-05-20T15:28:34Z</time><name>PT15448</name></trkpt>
<trkpt lat="53.314174" lon="06.603455"><ele>11.1</ele><time>2021-05-20T15:28:35Z</time><name>PT15449</name></trkpt>
<trkpt lat="53.314175" lon="06.603439"><ele>11.1</ele><time>2021-05-20T15:28:36Z</time><name>PT15450</name></trkpt>
<trkpt lat="53.314176" lon="06.603425"><ele>11.1</ele><time>2021-05-20T15:28:37Z</time><name>PT15451</name></trkpt>
<trkpt lat="53.314176" lon="06.603410"><ele>11.1</ele><time>2021-05-20T15:28:38Z</time><name>PT15452</name></trkpt>
<trkpt lat="53.314174" lon="06.603395"><ele>11.3</ele><time>2021-05-20T15:28:39Z</time><name>PT15453</name></trkpt>
<trkpt lat="53.314174" lon="06.603381"><ele>11.5</ele><time>2021-05-20T15:28:40Z</time><name>PT15454</name></trkpt>
<trkpt lat="53.314175" lon="06.603366"><ele>11.6</ele><time>2021-05-20T15:28:41Z</time><name>PT15455</name></trkpt>
<trkpt lat="53.314176" lon="06.603351"><ele>11.6</ele><time>2021-05-20T15:28:42Z</time><name>PT15456</name></trkpt>
<trkpt lat="53.314175" lon="06.603335"><ele>11.6</ele><time>2021-05-20T15:28:43Z</time><name>PT15457</name></trkpt>
<trkpt lat="53.314175" lon="06.603319"><ele>11.5</ele><time>2021-05-20T15:28:44Z</time><name>PT15458</name></trkpt>
<trkpt lat="53.314176" lon="06.603303"><ele>11.4</ele><time>2021-05-20T15:28:45Z</time><name>PT15459</name></trkpt>
<trkpt lat="53.314177" lon="06.603287"><ele>11.5</ele><time>2021-05-20T15:28:46Z</time><name>PT15460</name></trkpt>
<trkpt lat="53.314177" lon="06.603273"><ele>11.6</ele><time>2021-05-20T15:28:47Z</time><name>PT15461</name></trkpt>
<trkpt lat="53.314177" lon="06.603258"><ele>11.7</ele><time>2021-05-20T15:28:48Z</time><name>PT15462</name></trkpt>
<trkpt lat="53.314177" lon="06.603243"><ele>11.6</ele><time>2021-05-20T15:28:49Z</time><name>PT15463</name></trkpt>
<trkpt lat="53.314177" lon="06.603227"><ele>11.6</ele><time>2021-05-20T15:28:50Z</time><name>PT15464</name></trkpt>
<trkpt lat="53.314177" lon="06.603213"><ele>11.6</ele><time>2021-05-20T15:28:51Z</time><name>PT15465</name></trkpt>
<trkpt lat="53.314177" lon="06.603199"><ele>11.6</ele><time>2021-05-20T15:28:52Z</time><name>PT15466</name></trkpt>
<trkpt lat="53.314176" lon="06.603183"><ele>11.7</ele><time>2021-05-20T15:28:53Z</time><name>PT15467</name></trkpt>
<trkpt lat="53.314176" lon="06.603167"><ele>11.7</ele><time>2021-05-20T15:28:54Z</time><name>PT15468</name></trkpt>
<trkpt lat="53.314176" lon="06.603150"><ele>11.8</ele><time>2021-05-20T15:28:55Z</time><name>PT15469</name></trkpt>
<trkpt lat="53.314177" lon="06.603132"><ele>11.7</ele><time>2021-05-20T15:28:56Z</time><name>PT15470</name></trkpt>
<trkpt lat="53.314177" lon="06.603116"><ele>11.8</ele><time>2021-05-20T15:28:57Z</time><name>PT15471</name></trkpt>
<trkpt lat="53.314175" lon="06.603098"><ele>11.7</ele><time>2021-05-20T15:28:58Z</time><name>PT15472</name></trkpt>
<trkpt lat="53.314173" lon="06.603078"><ele>11.7</ele><time>2021-05-20T15:28:59Z</time><name>PT15473</name></trkpt>
<trkpt lat="53.314172" lon="06.603061"><ele>11.7</ele><time>2021-05-20T15:29:00Z</time><name>PT15474</name></trkpt>
<trkpt lat="53.314172" lon="06.603045"><ele>11.5</ele><time>2021-05-20T15:29:01Z</time><name>PT15475</name></trkpt>
<trkpt lat="53.314173" lon="06.603029"><ele>11.5</ele><time>2021-05-20T15:29:02Z</time><name>PT15476</name></trkpt>
<trkpt lat="53.314172" lon="06.603014"><ele>11.6</ele><time>2021-05-20T15:29:03Z</time><name>PT15477</name></trkpt>
<trkpt lat="53.314171" lon="06.602999"><ele>11.6</ele><time>2021-05-20T15:29:04Z</time><name>PT15478</name></trkpt>
<trkpt lat="53.314171" lon="06.602981"><ele>11.7</ele><time>2021-05-20T15:29:05Z</time><name>PT15479</name></trkpt>
<trkpt lat="53.314170" lon="06.602966"><ele>11.7</ele><time>2021-05-20T15:29:06Z</time><name>PT15480</name></trkpt>
<trkpt lat="53.314169" lon="06.602952"><ele>11.9</ele><time>2021-05-20T15:29:07Z</time><name>PT15481</name></trkpt>
<trkpt lat="53.314171" lon="06.602937"><ele>11.9</ele><time>2021-05-20T15:29:08Z</time><name>PT15482</name></trkpt>
<trkpt lat="53.314172" lon="06.602922"><ele>12</ele><time>2021-05-20T15:29:09Z</time><name>PT15483</name></trkpt>
<trkpt lat="53.314171" lon="06.602906"><ele>12</ele><time>2021-05-20T15:29:10Z</time><name>PT15484</name></trkpt>
<trkpt lat="53.314169" lon="06.602890"><ele>11.9</ele><time>2021-05-20T15:29:11Z</time><name>PT15485</name></trkpt>
<trkpt lat="53.314168" lon="06.602876"><ele>11.6</ele><time>2021-05-20T15:29:12Z</time><name>PT15486</name></trkpt>
<trkpt lat="53.314169" lon="06.602860"><ele>11.6</ele><time>2021-05-20T15:29:13Z</time><name>PT15487</name></trkpt>
<trkpt lat="53.314170" lon="06.602845"><ele>11.7</ele><time>2021-05-20T15:29:14Z</time><name>PT15488</name></trkpt>
<trkpt lat="53.314170" lon="06.602832"><ele>11.6</ele><time>2021-05-20T15:29:15Z</time><name>PT15489</name></trkpt>
<trkpt lat="53.314169" lon="06.602817"><ele>11.6</ele><time>2021-05-20T15:29:16Z</time><name>PT15490</name></trkpt>
<trkpt lat="53.314168" lon="06.602800"><ele>11.6</ele><time>2021-05-20T15:29:17Z</time><name>PT15491</name></trkpt>
<trkpt lat="53.314168" lon="06.602784"><ele>11.6</ele><time>2021-05-20T15:29:18Z</time><name>PT15492</name></trkpt>
<trkpt lat="53.314169" lon="06.602767"><ele>11.6</ele><time>2021-05-20T15:29:19Z</time><name>PT15493</name></trkpt>
<trkpt lat="53.314169" lon="06.602752"><ele>11.7</ele><time>2021-05-20T15:29:20Z</time><name>PT15494</name></trkpt>
<trkpt lat="53.314169" lon="06.602738"><ele>11.7</ele><time>2021-05-20T15:29:21Z</time><name>PT15495</name></trkpt>
<trkpt lat="53.314167" lon="06.602722"><ele>11.6</ele><time>2021-05-20T15:29:22Z</time><name>PT15496</name></trkpt>
<trkpt lat="53.314166" lon="06.602705"><ele>11.7</ele><time>2021-05-20T15:29:23Z</time><name>PT15497</name></trkpt>
<trkpt lat="53.314165" lon="06.602688"><ele>11.9</ele><time>2021-05-20T15:29:24Z</time><name>PT15498</name></trkpt>
<trkpt lat="53.314166" lon="06.602672"><ele>11.9</ele><time>2021-05-20T15:29:25Z</time><name>PT15499</name></trkpt>
<trkpt lat="53.314166" lon="06.602655"><ele>12</ele><time>2021-05-20T15:29:26Z</time><name>PT15500</name></trkpt>
<trkpt lat="53.314165" lon="06.602641"><ele>11.9</ele><time>2021-05-20T15:29:27Z</time><name>PT15501</name></trkpt>
<trkpt lat="53.314163" lon="06.602626"><ele>11.9</ele><time>2021-05-20T15:29:28Z</time><name>PT15502</name></trkpt>
<trkpt lat="53.314162" lon="06.602610"><ele>11.8</ele><time>2021-05-20T15:29:29Z</time><name>PT15503</name></trkpt>
<trkpt lat="53.314161" lon="06.602593"><ele>11.6</ele><time>2021-05-20T15:29:30Z</time><name>PT15504</name></trkpt>
<trkpt lat="53.314159" lon="06.602576"><ele>11.5</ele><time>2021-05-20T15:29:31Z</time><name>PT15505</name></trkpt>
<trkpt lat="53.314159" lon="06.602560"><ele>11.5</ele><time>2021-05-20T15:29:32Z</time><name>PT15506</name></trkpt>
<trkpt lat="53.314158" lon="06.602545"><ele>11.3</ele><time>2021-05-20T15:29:33Z</time><name>PT15507</name></trkpt>
<trkpt lat="53.314155" lon="06.602529"><ele>11.5</ele><time>2021-05-20T15:29:34Z</time><name>PT15508</name></trkpt>
<trkpt lat="53.314154" lon="06.602511"><ele>11.5</ele><time>2021-05-20T15:29:35Z</time><name>PT15509</name></trkpt>
<trkpt lat="53.314152" lon="06.602495"><ele>11.6</ele><time>2021-05-20T15:29:36Z</time><name>PT15510</name></trkpt>
<trkpt lat="53.314150" lon="06.602477"><ele>11.5</ele><time>2021-05-20T15:29:37Z</time><name>PT15511</name></trkpt>
<trkpt lat="53.314149" lon="06.602458"><ele>11.4</ele><time>2021-05-20T15:29:38Z</time><name>PT15512</name></trkpt>
<trkpt lat="53.314148" lon="06.602439"><ele>11.5</ele><time>2021-05-20T15:29:39Z</time><name>PT15513</name></trkpt>
<trkpt lat="53.314147" lon="06.602421"><ele>11.6</ele><time>2021-05-20T15:29:40Z</time><name>PT15514</name></trkpt>
<trkpt lat="53.314145" lon="06.602407"><ele>11.8</ele><time>2021-05-20T15:29:41Z</time><name>PT15515</name></trkpt>
<trkpt lat="53.314142" lon="06.602392"><ele>12.1</ele><time>2021-05-20T15:29:42Z</time><name>PT15516</name></trkpt>
<trkpt lat="53.314140" lon="06.602382"><ele>12.1</ele><time>2021-05-20T15:29:43Z</time><name>PT15517</name></trkpt>
<trkpt lat="53.314137" lon="06.602367"><ele>11.9</ele><time>2021-05-20T15:29:44Z</time><name>PT15518</name></trkpt>
<trkpt lat="53.314133" lon="06.602351"><ele>11.7</ele><time>2021-05-20T15:29:45Z</time><name>PT15519</name></trkpt>
<trkpt lat="53.314130" lon="06.602339"><ele>11.7</ele><time>2021-05-20T15:29:46Z</time><name>PT15520</name></trkpt>
<trkpt lat="53.314128" lon="06.602326"><ele>11.5</ele><time>2021-05-20T15:29:47Z</time><name>PT15521</name></trkpt>
<trkpt lat="53.314122" lon="06.602311"><ele>11.3</ele><time>2021-05-20T15:29:48Z</time><name>PT15522</name></trkpt>
<trkpt lat="53.314117" lon="06.602297"><ele>11.4</ele><time>2021-05-20T15:29:49Z</time><name>PT15523</name></trkpt>
<trkpt lat="53.314112" lon="06.602284"><ele>11.7</ele><time>2021-05-20T15:29:50Z</time><name>PT15524</name></trkpt>
<trkpt lat="53.314107" lon="06.602270"><ele>11.8</ele><time>2021-05-20T15:29:51Z</time><name>PT15525</name></trkpt>
<trkpt lat="53.314102" lon="06.602258"><ele>11.7</ele><time>2021-05-20T15:29:52Z</time><name>PT15526</name></trkpt>
<trkpt lat="53.314098" lon="06.602247"><ele>11.9</ele><time>2021-05-20T15:29:53Z</time><name>PT15527</name></trkpt>
<trkpt lat="53.314093" lon="06.602235"><ele>11.7</ele><time>2021-05-20T15:29:54Z</time><name>PT15528</name></trkpt>
<trkpt lat="53.314086" lon="06.602222"><ele>11.6</ele><time>2021-05-20T15:29:55Z</time><name>PT15529</name></trkpt>
<trkpt lat="53.314078" lon="06.602208"><ele>11.6</ele><time>2021-05-20T15:29:56Z</time><name>PT15530</name></trkpt>
<trkpt lat="53.314072" lon="06.602194"><ele>11.7</ele><time>2021-05-20T15:29:57Z</time><name>PT15531</name></trkpt>
<trkpt lat="53.314066" lon="06.602178"><ele>11.6</ele><time>2021-05-20T15:29:58Z</time><name>PT15532</name></trkpt>
<trkpt lat="53.314061" lon="06.602162"><ele>11.4</ele><time>2021-05-20T15:29:59Z</time><name>PT15533</name></trkpt>
<trkpt lat="53.314056" lon="06.602150"><ele>11.4</ele><time>2021-05-20T15:30:00Z</time><name>PT15534</name></trkpt>
<trkpt lat="53.314049" lon="06.602140"><ele>11.1</ele><time>2021-05-20T15:30:01Z</time><name>PT15535</name></trkpt>
<trkpt lat="53.314042" lon="06.602128"><ele>11</ele><time>2021-05-20T15:30:02Z</time><name>PT15536</name></trkpt>
<trkpt lat="53.314035" lon="06.602116"><ele>11.1</ele><time>2021-05-20T15:30:03Z</time><name>PT15537</name></trkpt>
<trkpt lat="53.314028" lon="06.602105"><ele>11.1</ele><time>2021-05-20T15:30:04Z</time><name>PT15538</name></trkpt>
<trkpt lat="53.314019" lon="06.602092"><ele>11</ele><time>2021-05-20T15:30:05Z</time><name>PT15539</name></trkpt>
<trkpt lat="53.314013" lon="06.602078"><ele>11.1</ele><time>2021-05-20T15:30:06Z</time><name>PT15540</name></trkpt>
<trkpt lat="53.314006" lon="06.602070"><ele>11.3</ele><time>2021-05-20T15:30:07Z</time><name>PT15541</name></trkpt>
<trkpt lat="53.313996" lon="06.602061"><ele>11.3</ele><time>2021-05-20T15:30:08Z</time><name>PT15542</name></trkpt>
<trkpt lat="53.313988" lon="06.602057"><ele>11.3</ele><time>2021-05-20T15:30:09Z</time><name>PT15543</name></trkpt>
<trkpt lat="53.313979" lon="06.602051"><ele>11.3</ele><time>2021-05-20T15:30:10Z</time><name>PT15544</name></trkpt>
<trkpt lat="53.313970" lon="06.602043"><ele>11.1</ele><time>2021-05-20T15:30:11Z</time><name>PT15545</name></trkpt>
<trkpt lat="53.313960" lon="06.602039"><ele>11.2</ele><time>2021-05-20T15:30:12Z</time><name>PT15546</name></trkpt>
<trkpt lat="53.313950" lon="06.602036"><ele>11.1</ele><time>2021-05-20T15:30:13Z</time><name>PT15547</name></trkpt>
<trkpt lat="53.313940" lon="06.602032"><ele>11.2</ele><time>2021-05-20T15:30:14Z</time><name>PT15548</name></trkpt>
<trkpt lat="53.313929" lon="06.602029"><ele>11.3</ele><time>2021-05-20T15:30:15Z</time><name>PT15549</name></trkpt>
<trkpt lat="53.313918" lon="06.602028"><ele>11.3</ele><time>2021-05-20T15:30:16Z</time><name>PT15550</name></trkpt>
<trkpt lat="53.313907" lon="06.602025"><ele>11.4</ele><time>2021-05-20T15:30:17Z</time><name>PT15551</name></trkpt>
<trkpt lat="53.313896" lon="06.602023"><ele>11.3</ele><time>2021-05-20T15:30:18Z</time><name>PT15552</name></trkpt>
<trkpt lat="53.313887" lon="06.602022"><ele>11.4</ele><time>2021-05-20T15:30:19Z</time><name>PT15553</name></trkpt>
<trkpt lat="53.313877" lon="06.602018"><ele>11.3</ele><time>2021-05-20T15:30:20Z</time><name>PT15554</name></trkpt>
<trkpt lat="53.313866" lon="06.602014"><ele>11.3</ele><time>2021-05-20T15:30:21Z</time><name>PT15555</name></trkpt>
<trkpt lat="53.313854" lon="06.602011"><ele>11.3</ele><time>2021-05-20T15:30:22Z</time><name>PT15556</name></trkpt>
<trkpt lat="53.313843" lon="06.602011"><ele>11.3</ele><time>2021-05-20T15:30:23Z</time><name>PT15557</name></trkpt>
<trkpt lat="53.313832" lon="06.602011"><ele>11.2</ele><time>2021-05-20T15:30:24Z</time><name>PT15558</name></trkpt>
<trkpt lat="53.313821" lon="06.602012"><ele>11.3</ele><time>2021-05-20T15:30:25Z</time><name>PT15559</name></trkpt>
<trkpt lat="53.313811" lon="06.602013"><ele>11.1</ele><time>2021-05-20T15:30:26Z</time><name>PT15560</name></trkpt>
<trkpt lat="53.313801" lon="06.602015"><ele>11.1</ele><time>2021-05-20T15:30:27Z</time><name>PT15561</name></trkpt>
<trkpt lat="53.313793" lon="06.602016"><ele>11.1</ele><time>2021-05-20T15:30:28Z</time><name>PT15562</name></trkpt>
<trkpt lat="53.313784" lon="06.602020"><ele>11.2</ele><time>2021-05-20T15:30:29Z</time><name>PT15563</name></trkpt>
<trkpt lat="53.313773" lon="06.602021"><ele>11.1</ele><time>2021-05-20T15:30:30Z</time><name>PT15564</name></trkpt>
<trkpt lat="53.313761" lon="06.602022"><ele>11.2</ele><time>2021-05-20T15:30:31Z</time><name>PT15565</name></trkpt>
<trkpt lat="53.313750" lon="06.602021"><ele>11.3</ele><time>2021-05-20T15:30:32Z</time><name>PT15566</name></trkpt>
<trkpt lat="53.313741" lon="06.602022"><ele>11.2</ele><time>2021-05-20T15:30:33Z</time><name>PT15567</name></trkpt>
<trkpt lat="53.313731" lon="06.602025"><ele>11.4</ele><time>2021-05-20T15:30:34Z</time><name>PT15568</name></trkpt>
<trkpt lat="53.313720" lon="06.602027"><ele>11.5</ele><time>2021-05-20T15:30:35Z</time><name>PT15569</name></trkpt>
<trkpt lat="53.313709" lon="06.602030"><ele>11.3</ele><time>2021-05-20T15:30:36Z</time><name>PT15570</name></trkpt>
<trkpt lat="53.313698" lon="06.602033"><ele>11.3</ele><time>2021-05-20T15:30:37Z</time><name>PT15571</name></trkpt>
<trkpt lat="53.313688" lon="06.602037"><ele>11.4</ele><time>2021-05-20T15:30:38Z</time><name>PT15572</name></trkpt>
<trkpt lat="53.313677" lon="06.602040"><ele>11.4</ele><time>2021-05-20T15:30:39Z</time><name>PT15573</name></trkpt>
<trkpt lat="53.313668" lon="06.602042"><ele>11.3</ele><time>2021-05-20T15:30:40Z</time><name>PT15574</name></trkpt>
<trkpt lat="53.313658" lon="06.602046"><ele>11.3</ele><time>2021-05-20T15:30:41Z</time><name>PT15575</name></trkpt>
<trkpt lat="53.313649" lon="06.602051"><ele>11.4</ele><time>2021-05-20T15:30:42Z</time><name>PT15576</name></trkpt>
<trkpt lat="53.313639" lon="06.602058"><ele>11.3</ele><time>2021-05-20T15:30:43Z</time><name>PT15577</name></trkpt>
<trkpt lat="53.313629" lon="06.602062"><ele>11.5</ele><time>2021-05-20T15:30:44Z</time><name>PT15578</name></trkpt>
<trkpt lat="53.313618" lon="06.602063"><ele>11.6</ele><time>2021-05-20T15:30:45Z</time><name>PT15579</name></trkpt>
<trkpt lat="53.313608" lon="06.602066"><ele>11.5</ele><time>2021-05-20T15:30:46Z</time><name>PT15580</name></trkpt>
<trkpt lat="53.313598" lon="06.602068"><ele>11.5</ele><time>2021-05-20T15:30:47Z</time><name>PT15581</name></trkpt>
<trkpt lat="53.313587" lon="06.602069"><ele>11.4</ele><time>2021-05-20T15:30:48Z</time><name>PT15582</name></trkpt>
<trkpt lat="53.313579" lon="06.602074"><ele>11.3</ele><time>2021-05-20T15:30:49Z</time><name>PT15583</name></trkpt>
<trkpt lat="53.313570" lon="06.602078"><ele>11.1</ele><time>2021-05-20T15:30:50Z</time><name>PT15584</name></trkpt>
<trkpt lat="53.313561" lon="06.602082"><ele>11.2</ele><time>2021-05-20T15:30:51Z</time><name>PT15585</name></trkpt>
<trkpt lat="53.313551" lon="06.602085"><ele>11.2</ele><time>2021-05-20T15:30:52Z</time><name>PT15586</name></trkpt>
<trkpt lat="53.313541" lon="06.602088"><ele>11.1</ele><time>2021-05-20T15:30:53Z</time><name>PT15587</name></trkpt>
<trkpt lat="53.313531" lon="06.602090"><ele>11.2</ele><time>2021-05-20T15:30:54Z</time><name>PT15588</name></trkpt>
<trkpt lat="53.313522" lon="06.602094"><ele>11.1</ele><time>2021-05-20T15:30:55Z</time><name>PT15589</name></trkpt>
<trkpt lat="53.313512" lon="06.602098"><ele>11.2</ele><time>2021-05-20T15:30:56Z</time><name>PT15590</name></trkpt>
<trkpt lat="53.313503" lon="06.602103"><ele>11.2</ele><time>2021-05-20T15:30:57Z</time><name>PT15591</name></trkpt>
<trkpt lat="53.313493" lon="06.602108"><ele>11.2</ele><time>2021-05-20T15:30:58Z</time><name>PT15592</name></trkpt>
<trkpt lat="53.313484" lon="06.602112"><ele>11.3</ele><time>2021-05-20T15:30:59Z</time><name>PT15593</name></trkpt>
<trkpt lat="53.313474" lon="06.602117"><ele>11.3</ele><time>2021-05-20T15:31:00Z</time><name>PT15594</name></trkpt>
<trkpt lat="53.313464" lon="06.602120"><ele>11.4</ele><time>2021-05-20T15:31:01Z</time><name>PT15595</name></trkpt>
<trkpt lat="53.313455" lon="06.602122"><ele>11.3</ele><time>2021-05-20T15:31:02Z</time><name>PT15596</name></trkpt>
<trkpt lat="53.313447" lon="06.602127"><ele>11.4</ele><time>2021-05-20T15:31:03Z</time><name>PT15597</name></trkpt>
<trkpt lat="53.313438" lon="06.602132"><ele>11.5</ele><time>2021-05-20T15:31:04Z</time><name>PT15598</name></trkpt>
<trkpt lat="53.313428" lon="06.602136"><ele>11.5</ele><time>2021-05-20T15:31:05Z</time><name>PT15599</name></trkpt>
<trkpt lat="53.313419" lon="06.602139"><ele>11.4</ele><time>2021-05-20T15:31:06Z</time><name>PT15600</name></trkpt>
<trkpt lat="53.313409" lon="06.602139"><ele>11.4</ele><time>2021-05-20T15:31:07Z</time><name>PT15601</name></trkpt>
<trkpt lat="53.313402" lon="06.602136"><ele>11.3</ele><time>2021-05-20T15:31:08Z</time><name>PT15602</name></trkpt>
<trkpt lat="53.313393" lon="06.602139"><ele>11.2</ele><time>2021-05-20T15:31:09Z</time><name>PT15603</name></trkpt>
<trkpt lat="53.313383" lon="06.602143"><ele>11.3</ele><time>2021-05-20T15:31:10Z</time><name>PT15604</name></trkpt>
<trkpt lat="53.313374" lon="06.602148"><ele>11.1</ele><time>2021-05-20T15:31:11Z</time><name>PT15605</name></trkpt>
<trkpt lat="53.313363" lon="06.602154"><ele>11.2</ele><time>2021-05-20T15:31:12Z</time><name>PT15606</name></trkpt>
<trkpt lat="53.313352" lon="06.602158"><ele>11.2</ele><time>2021-05-20T15:31:13Z</time><name>PT15607</name></trkpt>
<trkpt lat="53.313341" lon="06.602161"><ele>11.2</ele><time>2021-05-20T15:31:14Z</time><name>PT15608</name></trkpt>
<trkpt lat="53.313331" lon="06.602164"><ele>11.2</ele><time>2021-05-20T15:31:15Z</time><name>PT15609</name></trkpt>
<trkpt lat="53.313322" lon="06.602170"><ele>11.3</ele><time>2021-05-20T15:31:16Z</time><name>PT15610</name></trkpt>
<trkpt lat="53.313313" lon="06.602177"><ele>11.3</ele><time>2021-05-20T15:31:17Z</time><name>PT15611</name></trkpt>
<trkpt lat="53.313303" lon="06.602182"><ele>11.3</ele><time>2021-05-20T15:31:18Z</time><name>PT15612</name></trkpt>
<trkpt lat="53.313291" lon="06.602186"><ele>11.3</ele><time>2021-05-20T15:31:19Z</time><name>PT15613</name></trkpt>
<trkpt lat="53.313280" lon="06.602191"><ele>11.3</ele><time>2021-05-20T15:31:20Z</time><name>PT15614</name></trkpt>
<trkpt lat="53.313269" lon="06.602195"><ele>11.3</ele><time>2021-05-20T15:31:21Z</time><name>PT15615</name></trkpt>
<trkpt lat="53.313259" lon="06.602198"><ele>11.2</ele><time>2021-05-20T15:31:22Z</time><name>PT15616</name></trkpt>
<trkpt lat="53.313249" lon="06.602199"><ele>11.2</ele><time>2021-05-20T15:31:23Z</time><name>PT15617</name></trkpt>
<trkpt lat="53.313240" lon="06.602203"><ele>11.1</ele><time>2021-05-20T15:31:24Z</time><name>PT15618</name></trkpt>
<trkpt lat="53.313230" lon="06.602207"><ele>11.2</ele><time>2021-05-20T15:31:25Z</time><name>PT15619</name></trkpt>
<trkpt lat="53.313220" lon="06.602210"><ele>11.1</ele><time>2021-05-20T15:31:26Z</time><name>PT15620</name></trkpt>
<trkpt lat="53.313209" lon="06.602217"><ele>11.1</ele><time>2021-05-20T15:31:27Z</time><name>PT15621</name></trkpt>
<trkpt lat="53.313197" lon="06.602222"><ele>11.1</ele><time>2021-05-20T15:31:28Z</time><name>PT15622</name></trkpt>
<trkpt lat="53.313187" lon="06.602223"><ele>11.1</ele><time>2021-05-20T15:31:29Z</time><name>PT15623</name></trkpt>
<trkpt lat="53.313177" lon="06.602223"><ele>11.1</ele><time>2021-05-20T15:31:30Z</time><name>PT15624</name></trkpt>
<trkpt lat="53.313166" lon="06.602226"><ele>11.1</ele><time>2021-05-20T15:31:31Z</time><name>PT15625</name></trkpt>
<trkpt lat="53.313156" lon="06.602231"><ele>11.1</ele><time>2021-05-20T15:31:32Z</time><name>PT15626</name></trkpt>
<trkpt lat="53.313146" lon="06.602236"><ele>11.2</ele><time>2021-05-20T15:31:33Z</time><name>PT15627</name></trkpt>
<trkpt lat="53.313137" lon="06.602240"><ele>11.3</ele><time>2021-05-20T15:31:34Z</time><name>PT15628</name></trkpt>
<trkpt lat="53.313128" lon="06.602241"><ele>11.2</ele><time>2021-05-20T15:31:35Z</time><name>PT15629</name></trkpt>
<trkpt lat="53.313117" lon="06.602243"><ele>11.2</ele><time>2021-05-20T15:31:36Z</time><name>PT15630</name></trkpt>
<trkpt lat="53.313106" lon="06.602243"><ele>11.2</ele><time>2021-05-20T15:31:37Z</time><name>PT15631</name></trkpt>
<trkpt lat="53.313094" lon="06.602243"><ele>11.3</ele><time>2021-05-20T15:31:38Z</time><name>PT15632</name></trkpt>
<trkpt lat="53.313082" lon="06.602245"><ele>11.2</ele><time>2021-05-20T15:31:39Z</time><name>PT15633</name></trkpt>
<trkpt lat="53.313071" lon="06.602250"><ele>11.3</ele><time>2021-05-20T15:31:40Z</time><name>PT15634</name></trkpt>
<trkpt lat="53.313060" lon="06.602255"><ele>11.5</ele><time>2021-05-20T15:31:41Z</time><name>PT15635</name></trkpt>
<trkpt lat="53.313052" lon="06.602258"><ele>11.5</ele><time>2021-05-20T15:31:42Z</time><name>PT15636</name></trkpt>
<trkpt lat="53.313043" lon="06.602259"><ele>11.5</ele><time>2021-05-20T15:31:43Z</time><name>PT15637</name></trkpt>
<trkpt lat="53.313032" lon="06.602260"><ele>11.4</ele><time>2021-05-20T15:31:44Z</time><name>PT15638</name></trkpt>
<trkpt lat="53.313021" lon="06.602259"><ele>11.4</ele><time>2021-05-20T15:31:45Z</time><name>PT15639</name></trkpt>
<trkpt lat="53.313011" lon="06.602260"><ele>11.3</ele><time>2021-05-20T15:31:46Z</time><name>PT15640</name></trkpt>
<trkpt lat="53.313003" lon="06.602265"><ele>11.2</ele><time>2021-05-20T15:31:47Z</time><name>PT15641</name></trkpt>
<trkpt lat="53.312999" lon="06.602266"><ele>11.2</ele><time>2021-05-20T15:31:48Z</time><name>PT15642</name></trkpt>
<trkpt lat="53.312997" lon="06.602266"><ele>11.3</ele><time>2021-05-20T15:31:49Z</time><name>PT15643</name></trkpt>
<trkpt lat="53.312993" lon="06.602269"><ele>11.3</ele><time>2021-05-20T15:31:50Z</time><name>PT15644</name></trkpt>
<trkpt lat="53.312982" lon="06.602267"><ele>11.2</ele><time>2021-05-20T15:31:51Z</time><name>PT15645</name></trkpt>
<trkpt lat="53.312975" lon="06.602269"><ele>11.3</ele><time>2021-05-20T15:31:52Z</time><name>PT15646</name></trkpt>
<trkpt lat="53.312965" lon="06.602271"><ele>11</ele><time>2021-05-20T15:31:53Z</time><name>PT15647</name></trkpt>
<trkpt lat="53.312958" lon="06.602269"><ele>11</ele><time>2021-05-20T15:31:54Z</time><name>PT15648</name></trkpt>
<trkpt lat="53.312949" lon="06.602268"><ele>10.7</ele><time>2021-05-20T15:31:55Z</time><name>PT15649</name></trkpt>
<trkpt lat="53.312938" lon="06.602269"><ele>10.7</ele><time>2021-05-20T15:31:56Z</time><name>PT15650</name></trkpt>
<trkpt lat="53.312928" lon="06.602267"><ele>10.4</ele><time>2021-05-20T15:31:57Z</time><name>PT15651</name></trkpt>
<trkpt lat="53.312917" lon="06.602267"><ele>10.4</ele><time>2021-05-20T15:31:58Z</time><name>PT15652</name></trkpt>
<trkpt lat="53.312908" lon="06.602266"><ele>10.5</ele><time>2021-05-20T15:31:59Z</time><name>PT15653</name></trkpt>
<trkpt lat="53.312899" lon="06.602264"><ele>10.7</ele><time>2021-05-20T15:32:00Z</time><name>PT15654</name></trkpt>
<trkpt lat="53.312891" lon="06.602260"><ele>10.7</ele><time>2021-05-20T15:32:01Z</time><name>PT15655</name></trkpt>
<trkpt lat="53.312881" lon="06.602263"><ele>11</ele><time>2021-05-20T15:32:02Z</time><name>PT15656</name></trkpt>
<trkpt lat="53.312871" lon="06.602263"><ele>-2</ele><time>2021-05-20T15:32:03Z</time><name>PT15657</name></trkpt>
<trkpt lat="53.312864" lon="06.602259"><ele>-1.8</ele><time>2021-05-20T15:32:04Z</time><name>PT15658</name></trkpt>
<trkpt lat="53.312856" lon="06.602257"><ele>-1.6</ele><time>2021-05-20T15:32:05Z</time><name>PT15659</name></trkpt>
<trkpt lat="53.312848" lon="06.602255"><ele>-1.6</ele><time>2021-05-20T15:32:06Z</time><name>PT15660</name></trkpt>
<trkpt lat="53.312841" lon="06.602253"><ele>-1.7</ele><time>2021-05-20T15:32:07Z</time><name>PT15661</name></trkpt>
<trkpt lat="53.312833" lon="06.602251"><ele>-1.8</ele><time>2021-05-20T15:32:08Z</time><name>PT15662</name></trkpt>
<trkpt lat="53.312826" lon="06.602254"><ele>-1.8</ele><time>2021-05-20T15:32:09Z</time><name>PT15663</name></trkpt>
<trkpt lat="53.312817" lon="06.602263"><ele>-1.8</ele><time>2021-05-20T15:32:10Z</time><name>PT15664</name></trkpt>
<trkpt lat="53.312809" lon="06.602263"><ele>-1.8</ele><time>2021-05-20T15:32:11Z</time><name>PT15665</name></trkpt>
<trkpt lat="53.312801" lon="06.602263"><ele>-1.6</ele><time>2021-05-20T15:32:12Z</time><name>PT15666</name></trkpt>
<trkpt lat="53.312793" lon="06.602263"><ele>-1.7</ele><time>2021-05-20T15:32:13Z</time><name>PT15667</name></trkpt>
<trkpt lat="53.312784" lon="06.602265"><ele>-1.8</ele><time>2021-05-20T15:32:14Z</time><name>PT15668</name></trkpt>
<trkpt lat="53.312776" lon="06.602265"><ele>-1.7</ele><time>2021-05-20T15:32:15Z</time><name>PT15669</name></trkpt>
<trkpt lat="53.312773" lon="06.602269"><ele>-1.5</ele><time>2021-05-20T15:32:16Z</time><name>PT15670</name></trkpt>
<trkpt lat="53.312771" lon="06.602269"><ele>-1.4</ele><time>2021-05-20T15:32:17Z</time><name>PT15671</name></trkpt>
<trkpt lat="53.312771" lon="06.602271"><ele>-1.1</ele><time>2021-05-20T15:32:18Z</time><name>PT15672</name></trkpt>
<trkpt lat="53.312771" lon="06.602272"><ele>0.9</ele><time>2021-05-20T15:32:19Z</time><name>PT15673</name></trkpt>
<trkpt lat="53.312767" lon="06.602275"><ele>-1.3</ele><time>2021-05-20T15:32:23Z</time><name>PT15674</name></trkpt>
<trkpt lat="53.312755" lon="06.602273"><ele>-1.4</ele><time>2021-05-20T15:32:24Z</time><name>PT15675</name></trkpt>
<trkpt lat="53.312743" lon="06.602273"><ele>-1.5</ele><time>2021-05-20T15:32:25Z</time><name>PT15676</name></trkpt>
<trkpt lat="53.312735" lon="06.602276"><ele>-1.6</ele><time>2021-05-20T15:32:26Z</time><name>PT15677</name></trkpt>
<trkpt lat="53.312725" lon="06.602277"><ele>-1.5</ele><time>2021-05-20T15:32:27Z</time><name>PT15678</name></trkpt>
<trkpt lat="53.312715" lon="06.602279"><ele>-1.5</ele><time>2021-05-20T15:32:28Z</time><name>PT15679</name></trkpt>
<trkpt lat="53.312705" lon="06.602281"><ele>-1.4</ele><time>2021-05-20T15:32:29Z</time><name>PT15680</name></trkpt>
<trkpt lat="53.312695" lon="06.602281"><ele>-1.5</ele><time>2021-05-20T15:32:30Z</time><name>PT15681</name></trkpt>
<trkpt lat="53.312689" lon="06.602281"><ele>-1.7</ele><time>2021-05-20T15:32:31Z</time><name>PT15682</name></trkpt>
<trkpt lat="53.312688" lon="06.602283"><ele>-1.8</ele><time>2021-05-20T15:32:32Z</time><name>PT15683</name></trkpt>
<trkpt lat="53.312688" lon="06.602285"><ele>-1.7</ele><time>2021-05-20T15:32:33Z</time><name>PT15684</name></trkpt>
<trkpt lat="53.312687" lon="06.602283"><ele>-1.6</ele><time>2021-05-20T15:32:34Z</time><name>PT15685</name></trkpt>
<trkpt lat="53.312680" lon="06.602291"><ele>-1.5</ele><time>2021-05-20T15:32:36Z</time><name>PT15686</name></trkpt>
<trkpt lat="53.312669" lon="06.602296"><ele>-1.9</ele><time>2021-05-20T15:32:37Z</time><name>PT15687</name></trkpt>
<trkpt lat="53.312658" lon="06.602301"><ele>-2</ele><time>2021-05-20T15:32:38Z</time><name>PT15688</name></trkpt>
<trkpt lat="53.312647" lon="06.602300"><ele>-2.1</ele><time>2021-05-20T15:32:39Z</time><name>PT15689</name></trkpt>
<trkpt lat="53.312636" lon="06.602304"><ele>-2.1</ele><time>2021-05-20T15:32:40Z</time><name>PT15690</name></trkpt>
<trkpt lat="53.312624" lon="06.602309"><ele>-2.2</ele><time>2021-05-20T15:32:41Z</time><name>PT15691</name></trkpt>
<trkpt lat="53.312612" lon="06.602313"><ele>-2</ele><time>2021-05-20T15:32:42Z</time><name>PT15692</name></trkpt>
<trkpt lat="53.312600" lon="06.602314"><ele>-1.9</ele><time>2021-05-20T15:32:43Z</time><name>PT15693</name></trkpt>
<trkpt lat="53.312589" lon="06.602316"><ele>-1.9</ele><time>2021-05-20T15:32:44Z</time><name>PT15694</name></trkpt>
<trkpt lat="53.312580" lon="06.602320"><ele>-2.1</ele><time>2021-05-20T15:32:45Z</time><name>PT15695</name></trkpt>
<trkpt lat="53.312570" lon="06.602323"><ele>-2.1</ele><time>2021-05-20T15:32:46Z</time><name>PT15696</name></trkpt>
<trkpt lat="53.312560" lon="06.602327"><ele>-2</ele><time>2021-05-20T15:32:47Z</time><name>PT15697</name></trkpt>
<trkpt lat="53.312549" lon="06.602334"><ele>-1.9</ele><time>2021-05-20T15:32:48Z</time><name>PT15698</name></trkpt>
<trkpt lat="53.312537" lon="06.602330"><ele>-1.5</ele><time>2021-05-20T15:32:49Z</time><name>PT15699</name></trkpt>
<trkpt lat="53.312527" lon="06.602333"><ele>-1.4</ele><time>2021-05-20T15:32:50Z</time><name>PT15700</name></trkpt>
<trkpt lat="53.312515" lon="06.602334"><ele>-1.5</ele><time>2021-05-20T15:32:51Z</time><name>PT15701</name></trkpt>
<trkpt lat="53.312503" lon="06.602336"><ele>-1.5</ele><time>2021-05-20T15:32:52Z</time><name>PT15702</name></trkpt>
<trkpt lat="53.312493" lon="06.602335"><ele>-1.8</ele><time>2021-05-20T15:32:53Z</time><name>PT15703</name></trkpt>
<trkpt lat="53.312483" lon="06.602336"><ele>-2</ele><time>2021-05-20T15:32:54Z</time><name>PT15704</name></trkpt>
<trkpt lat="53.312472" lon="06.602341"><ele>-2</ele><time>2021-05-20T15:32:55Z</time><name>PT15705</name></trkpt>
<trkpt lat="53.312461" lon="06.602347"><ele>-2</ele><time>2021-05-20T15:32:56Z</time><name>PT15706</name></trkpt>
<trkpt lat="53.312450" lon="06.602351"><ele>-2</ele><time>2021-05-20T15:32:57Z</time><name>PT15707</name></trkpt>
<trkpt lat="53.312439" lon="06.602355"><ele>-1.9</ele><time>2021-05-20T15:32:58Z</time><name>PT15708</name></trkpt>
<trkpt lat="53.312428" lon="06.602360"><ele>-2</ele><time>2021-05-20T15:32:59Z</time><name>PT15709</name></trkpt>
<trkpt lat="53.312416" lon="06.602365"><ele>-1.9</ele><time>2021-05-20T15:33:00Z</time><name>PT15710</name></trkpt>
<trkpt lat="53.312404" lon="06.602371"><ele>-2</ele><time>2021-05-20T15:33:01Z</time><name>PT15711</name></trkpt>
<trkpt lat="53.312392" lon="06.602374"><ele>-2</ele><time>2021-05-20T15:33:02Z</time><name>PT15712</name></trkpt>
<trkpt lat="53.312381" lon="06.602376"><ele>-2.1</ele><time>2021-05-20T15:33:03Z</time><name>PT15713</name></trkpt>
<trkpt lat="53.312374" lon="06.602376"><ele>-2</ele><time>2021-05-20T15:33:04Z</time><name>PT15714</name></trkpt>
<trkpt lat="53.312366" lon="06.602381"><ele>-1.9</ele><time>2021-05-20T15:33:05Z</time><name>PT15715</name></trkpt>
<trkpt lat="53.312355" lon="06.602387"><ele>-1.9</ele><time>2021-05-20T15:33:06Z</time><name>PT15716</name></trkpt>
<trkpt lat="53.312344" lon="06.602392"><ele>-2</ele><time>2021-05-20T15:33:07Z</time><name>PT15717</name></trkpt>
<trkpt lat="53.312334" lon="06.602398"><ele>-2.2</ele><time>2021-05-20T15:33:08Z</time><name>PT15718</name></trkpt>
<trkpt lat="53.312322" lon="06.602402"><ele>-2.4</ele><time>2021-05-20T15:33:09Z</time><name>PT15719</name></trkpt>
<trkpt lat="53.312308" lon="06.602408"><ele>-2.4</ele><time>2021-05-20T15:33:10Z</time><name>PT15720</name></trkpt>
<trkpt lat="53.312295" lon="06.602413"><ele>-2.3</ele><time>2021-05-20T15:33:11Z</time><name>PT15721</name></trkpt>
<trkpt lat="53.312283" lon="06.602416"><ele>-2</ele><time>2021-05-20T15:33:12Z</time><name>PT15722</name></trkpt>
<trkpt lat="53.312272" lon="06.602418"><ele>-2</ele><time>2021-05-20T15:33:13Z</time><name>PT15723</name></trkpt>
<trkpt lat="53.312265" lon="06.602420"><ele>-1.8</ele><time>2021-05-20T15:33:14Z</time><name>PT15724</name></trkpt>
<trkpt lat="53.312259" lon="06.602423"><ele>-1.7</ele><time>2021-05-20T15:33:15Z</time><name>PT15725</name></trkpt>
<trkpt lat="53.312250" lon="06.602426"><ele>-1.7</ele><time>2021-05-20T15:33:16Z</time><name>PT15726</name></trkpt>
<trkpt lat="53.312243" lon="06.602428"><ele>-1.8</ele><time>2021-05-20T15:33:17Z</time><name>PT15727</name></trkpt>
<trkpt lat="53.312235" lon="06.602432"><ele>-1.7</ele><time>2021-05-20T15:33:18Z</time><name>PT15728</name></trkpt>
<trkpt lat="53.312224" lon="06.602439"><ele>-1.9</ele><time>2021-05-20T15:33:19Z</time><name>PT15729</name></trkpt>
<trkpt lat="53.312210" lon="06.602441"><ele>-2</ele><time>2021-05-20T15:33:20Z</time><name>PT15730</name></trkpt>
<trkpt lat="53.312198" lon="06.602446"><ele>-2.1</ele><time>2021-05-20T15:33:21Z</time><name>PT15731</name></trkpt>
<trkpt lat="53.312187" lon="06.602451"><ele>-2</ele><time>2021-05-20T15:33:22Z</time><name>PT15732</name></trkpt>
<trkpt lat="53.312179" lon="06.602454"><ele>-2</ele><time>2021-05-20T15:33:23Z</time><name>PT15733</name></trkpt>
<trkpt lat="53.312174" lon="06.602457"><ele>-1.9</ele><time>2021-05-20T15:33:24Z</time><name>PT15734</name></trkpt>
<trkpt lat="53.312170" lon="06.602461"><ele>-1.8</ele><time>2021-05-20T15:33:25Z</time><name>PT15735</name></trkpt>
<trkpt lat="53.312163" lon="06.602469"><ele>-1.7</ele><time>2021-05-20T15:33:26Z</time><name>PT15736</name></trkpt>
<trkpt lat="53.312152" lon="06.602474"><ele>-1.5</ele><time>2021-05-20T15:33:27Z</time><name>PT15737</name></trkpt>
<trkpt lat="53.312138" lon="06.602478"><ele>-1.6</ele><time>2021-05-20T15:33:28Z</time><name>PT15738</name></trkpt>
<trkpt lat="53.312123" lon="06.602481"><ele>-1.6</ele><time>2021-05-20T15:33:29Z</time><name>PT15739</name></trkpt>
<trkpt lat="53.312109" lon="06.602482"><ele>-1.7</ele><time>2021-05-20T15:33:30Z</time><name>PT15740</name></trkpt>
<trkpt lat="53.312098" lon="06.602483"><ele>-1.7</ele><time>2021-05-20T15:33:31Z</time><name>PT15741</name></trkpt>
<trkpt lat="53.312091" lon="06.602486"><ele>-2</ele><time>2021-05-20T15:33:32Z</time><name>PT15742</name></trkpt>
<trkpt lat="53.312085" lon="06.602491"><ele>-2.1</ele><time>2021-05-20T15:33:33Z</time><name>PT15743</name></trkpt>
<trkpt lat="53.312077" lon="06.602494"><ele>-2.2</ele><time>2021-05-20T15:33:34Z</time><name>PT15744</name></trkpt>
<trkpt lat="53.312067" lon="06.602501"><ele>-2.2</ele><time>2021-05-20T15:33:35Z</time><name>PT15745</name></trkpt>
<trkpt lat="53.312053" lon="06.602507"><ele>-2.1</ele><time>2021-05-20T15:33:36Z</time><name>PT15746</name></trkpt>
<trkpt lat="53.312039" lon="06.602512"><ele>-2.1</ele><time>2021-05-20T15:33:37Z</time><name>PT15747</name></trkpt>
<trkpt lat="53.312029" lon="06.602513"><ele>-2</ele><time>2021-05-20T15:33:38Z</time><name>PT15748</name></trkpt>
<trkpt lat="53.312021" lon="06.602516"><ele>-2.1</ele><time>2021-05-20T15:33:39Z</time><name>PT15749</name></trkpt>
<trkpt lat="53.312015" lon="06.602519"><ele>-2.4</ele><time>2021-05-20T15:33:40Z</time><name>PT15750</name></trkpt>
<trkpt lat="53.312006" lon="06.602520"><ele>-2.4</ele><time>2021-05-20T15:33:41Z</time><name>PT15751</name></trkpt>
<trkpt lat="53.311996" lon="06.602527"><ele>-2.3</ele><time>2021-05-20T15:33:42Z</time><name>PT15752</name></trkpt>
<trkpt lat="53.311984" lon="06.602532"><ele>-2.1</ele><time>2021-05-20T15:33:43Z</time><name>PT15753</name></trkpt>
<trkpt lat="53.311968" lon="06.602534"><ele>-2</ele><time>2021-05-20T15:33:44Z</time><name>PT15754</name></trkpt>
<trkpt lat="53.311956" lon="06.602539"><ele>-2</ele><time>2021-05-20T15:33:45Z</time><name>PT15755</name></trkpt>
<trkpt lat="53.311946" lon="06.602542"><ele>-1.7</ele><time>2021-05-20T15:33:46Z</time><name>PT15756</name></trkpt>
<trkpt lat="53.311937" lon="06.602545"><ele>-1.5</ele><time>2021-05-20T15:33:47Z</time><name>PT15757</name></trkpt>
<trkpt lat="53.311930" lon="06.602549"><ele>-1.3</ele><time>2021-05-20T15:33:48Z</time><name>PT15758</name></trkpt>
<trkpt lat="53.311919" lon="06.602558"><ele>-1.2</ele><time>2021-05-20T15:33:49Z</time><name>PT15759</name></trkpt>
<trkpt lat="53.311910" lon="06.602560"><ele>-1.2</ele><time>2021-05-20T15:33:50Z</time><name>PT15760</name></trkpt>
<trkpt lat="53.311897" lon="06.602565"><ele>-1.6</ele><time>2021-05-20T15:33:51Z</time><name>PT15761</name></trkpt>
<trkpt lat="53.311881" lon="06.602565"><ele>-1.6</ele><time>2021-05-20T15:33:52Z</time><name>PT15762</name></trkpt>
<trkpt lat="53.311870" lon="06.602570"><ele>-1.9</ele><time>2021-05-20T15:33:53Z</time><name>PT15763</name></trkpt>
<trkpt lat="53.311861" lon="06.602577"><ele>-1.7</ele><time>2021-05-20T15:33:54Z</time><name>PT15764</name></trkpt>
<trkpt lat="53.311849" lon="06.602576"><ele>-1.7</ele><time>2021-05-20T15:33:55Z</time><name>PT15765</name></trkpt>
<trkpt lat="53.311835" lon="06.602582"><ele>-1.9</ele><time>2021-05-20T15:33:56Z</time><name>PT15766</name></trkpt>
<trkpt lat="53.311825" lon="06.602587"><ele>-2</ele><time>2021-05-20T15:33:57Z</time><name>PT15767</name></trkpt>
<trkpt lat="53.311814" lon="06.602593"><ele>-2</ele><time>2021-05-20T15:33:58Z</time><name>PT15768</name></trkpt>
<trkpt lat="53.311805" lon="06.602598"><ele>-2</ele><time>2021-05-20T15:33:59Z</time><name>PT15769</name></trkpt>
<trkpt lat="53.311795" lon="06.602603"><ele>-2</ele><time>2021-05-20T15:34:00Z</time><name>PT15770</name></trkpt>
<trkpt lat="53.311785" lon="06.602607"><ele>-1.9</ele><time>2021-05-20T15:34:01Z</time><name>PT15771</name></trkpt>
<trkpt lat="53.311775" lon="06.602612"><ele>-2</ele><time>2021-05-20T15:34:02Z</time><name>PT15772</name></trkpt>
<trkpt lat="53.311764" lon="06.602616"><ele>-2.2</ele><time>2021-05-20T15:34:03Z</time><name>PT15773</name></trkpt>
<trkpt lat="53.311754" lon="06.602620"><ele>-2.3</ele><time>2021-05-20T15:34:04Z</time><name>PT15774</name></trkpt>
<trkpt lat="53.311743" lon="06.602624"><ele>-2.3</ele><time>2021-05-20T15:34:05Z</time><name>PT15775</name></trkpt>
<trkpt lat="53.311734" lon="06.602629"><ele>-2.3</ele><time>2021-05-20T15:34:06Z</time><name>PT15776</name></trkpt>
<trkpt lat="53.311724" lon="06.602634"><ele>-2.1</ele><time>2021-05-20T15:34:07Z</time><name>PT15777</name></trkpt>
<trkpt lat="53.311715" lon="06.602640"><ele>-2.1</ele><time>2021-05-20T15:34:08Z</time><name>PT15778</name></trkpt>
<trkpt lat="53.311707" lon="06.602644"><ele>-2</ele><time>2021-05-20T15:34:09Z</time><name>PT15779</name></trkpt>
<trkpt lat="53.311697" lon="06.602647"><ele>-2</ele><time>2021-05-20T15:34:10Z</time><name>PT15780</name></trkpt>
<trkpt lat="53.311686" lon="06.602650"><ele>-2</ele><time>2021-05-20T15:34:11Z</time><name>PT15781</name></trkpt>
<trkpt lat="53.311675" lon="06.602652"><ele>-2</ele><time>2021-05-20T15:34:12Z</time><name>PT15782</name></trkpt>
<trkpt lat="53.311665" lon="06.602658"><ele>-2.1</ele><time>2021-05-20T15:34:13Z</time><name>PT15783</name></trkpt>
<trkpt lat="53.311655" lon="06.602664"><ele>-2.1</ele><time>2021-05-20T15:34:14Z</time><name>PT15784</name></trkpt>
<trkpt lat="53.311646" lon="06.602669"><ele>-2</ele><time>2021-05-20T15:34:15Z</time><name>PT15785</name></trkpt>
<trkpt lat="53.311636" lon="06.602673"><ele>-2</ele><time>2021-05-20T15:34:16Z</time><name>PT15786</name></trkpt>
<trkpt lat="53.311627" lon="06.602679"><ele>-2.2</ele><time>2021-05-20T15:34:17Z</time><name>PT15787</name></trkpt>
<trkpt lat="53.311616" lon="06.602685"><ele>-2.3</ele><time>2021-05-20T15:34:18Z</time><name>PT15788</name></trkpt>
<trkpt lat="53.311607" lon="06.602690"><ele>-2.4</ele><time>2021-05-20T15:34:19Z</time><name>PT15789</name></trkpt>
<trkpt lat="53.311596" lon="06.602694"><ele>-2.6</ele><time>2021-05-20T15:34:20Z</time><name>PT15790</name></trkpt>
<trkpt lat="53.311586" lon="06.602696"><ele>-2.4</ele><time>2021-05-20T15:34:21Z</time><name>PT15791</name></trkpt>
<trkpt lat="53.311576" lon="06.602698"><ele>-2.4</ele><time>2021-05-20T15:34:22Z</time><name>PT15792</name></trkpt>
<trkpt lat="53.311565" lon="06.602701"><ele>-2.5</ele><time>2021-05-20T15:34:23Z</time><name>PT15793</name></trkpt>
<trkpt lat="53.311555" lon="06.602702"><ele>-2.4</ele><time>2021-05-20T15:34:24Z</time><name>PT15794</name></trkpt>
<trkpt lat="53.311546" lon="06.602704"><ele>-2.4</ele><time>2021-05-20T15:34:25Z</time><name>PT15795</name></trkpt>
<trkpt lat="53.311537" lon="06.602707"><ele>-2.3</ele><time>2021-05-20T15:34:26Z</time><name>PT15796</name></trkpt>
<trkpt lat="53.311524" lon="06.602713"><ele>-2.1</ele><time>2021-05-20T15:34:27Z</time><name>PT15797</name></trkpt>
<trkpt lat="53.311509" lon="06.602722"><ele>-2</ele><time>2021-05-20T15:34:28Z</time><name>PT15798</name></trkpt>
<trkpt lat="53.311497" lon="06.602729"><ele>-2</ele><time>2021-05-20T15:34:29Z</time><name>PT15799</name></trkpt>
<trkpt lat="53.311488" lon="06.602731"><ele>-2</ele><time>2021-05-20T15:34:30Z</time><name>PT15800</name></trkpt>
<trkpt lat="53.311481" lon="06.602732"><ele>-2.1</ele><time>2021-05-20T15:34:31Z</time><name>PT15801</name></trkpt>
<trkpt lat="53.311475" lon="06.602735"><ele>-2.3</ele><time>2021-05-20T15:34:32Z</time><name>PT15802</name></trkpt>
<trkpt lat="53.311468" lon="06.602739"><ele>-2.2</ele><time>2021-05-20T15:34:33Z</time><name>PT15803</name></trkpt>
<trkpt lat="53.311459" lon="06.602746"><ele>-2.3</ele><time>2021-05-20T15:34:34Z</time><name>PT15804</name></trkpt>
<trkpt lat="53.311446" lon="06.602753"><ele>-2.4</ele><time>2021-05-20T15:34:35Z</time><name>PT15805</name></trkpt>
<trkpt lat="53.311437" lon="06.602761"><ele>-2.3</ele><time>2021-05-20T15:34:36Z</time><name>PT15806</name></trkpt>
<trkpt lat="53.311429" lon="06.602768"><ele>-2.1</ele><time>2021-05-20T15:34:37Z</time><name>PT15807</name></trkpt>
<trkpt lat="53.311414" lon="06.602771"><ele>-2</ele><time>2021-05-20T15:34:38Z</time><name>PT15808</name></trkpt>
<trkpt lat="53.311399" lon="06.602773"><ele>-2</ele><time>2021-05-20T15:34:39Z</time><name>PT15809</name></trkpt>
<trkpt lat="53.311387" lon="06.602777"><ele>-2</ele><time>2021-05-20T15:34:40Z</time><name>PT15810</name></trkpt>
<trkpt lat="53.311379" lon="06.602784"><ele>-2.1</ele><time>2021-05-20T15:34:41Z</time><name>PT15811</name></trkpt>
<trkpt lat="53.311372" lon="06.602788"><ele>-2.3</ele><time>2021-05-20T15:34:42Z</time><name>PT15812</name></trkpt>
<trkpt lat="53.311366" lon="06.602792"><ele>-2.4</ele><time>2021-05-20T15:34:43Z</time><name>PT15813</name></trkpt>
<trkpt lat="53.311358" lon="06.602797"><ele>-2.3</ele><time>2021-05-20T15:34:44Z</time><name>PT15814</name></trkpt>
<trkpt lat="53.311346" lon="06.602805"><ele>-2.2</ele><time>2021-05-20T15:34:45Z</time><name>PT15815</name></trkpt>
<trkpt lat="53.311332" lon="06.602810"><ele>-2.1</ele><time>2021-05-20T15:34:46Z</time><name>PT15816</name></trkpt>
<trkpt lat="53.311320" lon="06.602816"><ele>-2</ele><time>2021-05-20T15:34:47Z</time><name>PT15817</name></trkpt>
<trkpt lat="53.311311" lon="06.602819"><ele>-2</ele><time>2021-05-20T15:34:48Z</time><name>PT15818</name></trkpt>
<trkpt lat="53.311305" lon="06.602818"><ele>-1.8</ele><time>2021-05-20T15:34:49Z</time><name>PT15819</name></trkpt>
<trkpt lat="53.311299" lon="06.602819"><ele>-1.8</ele><time>2021-05-20T15:34:50Z</time><name>PT15820</name></trkpt>
<trkpt lat="53.311292" lon="06.602821"><ele>-1.9</ele><time>2021-05-20T15:34:51Z</time><name>PT15821</name></trkpt>
<trkpt lat="53.311283" lon="06.602826"><ele>-1.8</ele><time>2021-05-20T15:34:52Z</time><name>PT15822</name></trkpt>
<trkpt lat="53.311269" lon="06.602832"><ele>-1.8</ele><time>2021-05-20T15:34:53Z</time><name>PT15823</name></trkpt>
<trkpt lat="53.311254" lon="06.602836"><ele>-2</ele><time>2021-05-20T15:34:54Z</time><name>PT15824</name></trkpt>
<trkpt lat="53.311242" lon="06.602841"><ele>-2</ele><time>2021-05-20T15:34:55Z</time><name>PT15825</name></trkpt>
<trkpt lat="53.311232" lon="06.602846"><ele>-1.9</ele><time>2021-05-20T15:34:56Z</time><name>PT15826</name></trkpt>
<trkpt lat="53.311227" lon="06.602851"><ele>-1.9</ele><time>2021-05-20T15:34:57Z</time><name>PT15827</name></trkpt>
<trkpt lat="53.311222" lon="06.602853"><ele>-1.7</ele><time>2021-05-20T15:34:58Z</time><name>PT15828</name></trkpt>
<trkpt lat="53.311214" lon="06.602855"><ele>-1.7</ele><time>2021-05-20T15:34:59Z</time><name>PT15829</name></trkpt>
<trkpt lat="53.311202" lon="06.602860"><ele>-1.8</ele><time>2021-05-20T15:35:00Z</time><name>PT15830</name></trkpt>
<trkpt lat="53.311189" lon="06.602866"><ele>-1.8</ele><time>2021-05-20T15:35:01Z</time><name>PT15831</name></trkpt>
<trkpt lat="53.311176" lon="06.602870"><ele>-1.9</ele><time>2021-05-20T15:35:02Z</time><name>PT15832</name></trkpt>
<trkpt lat="53.311166" lon="06.602876"><ele>-1.9</ele><time>2021-05-20T15:35:03Z</time><name>PT15833</name></trkpt>
<trkpt lat="53.311161" lon="06.602884"><ele>-1.9</ele><time>2021-05-20T15:35:04Z</time><name>PT15834</name></trkpt>
<trkpt lat="53.311155" lon="06.602887"><ele>-1.9</ele><time>2021-05-20T15:35:05Z</time><name>PT15835</name></trkpt>
<trkpt lat="53.311149" lon="06.602892"><ele>-2</ele><time>2021-05-20T15:35:06Z</time><name>PT15836</name></trkpt>
<trkpt lat="53.311139" lon="06.602897"><ele>-2.3</ele><time>2021-05-20T15:35:07Z</time><name>PT15837</name></trkpt>
<trkpt lat="53.311125" lon="06.602903"><ele>-2.3</ele><time>2021-05-20T15:35:08Z</time><name>PT15838</name></trkpt>
<trkpt lat="53.311108" lon="06.602908"><ele>-2.4</ele><time>2021-05-20T15:35:09Z</time><name>PT15839</name></trkpt>
<trkpt lat="53.311094" lon="06.602913"><ele>-2.3</ele><time>2021-05-20T15:35:10Z</time><name>PT15840</name></trkpt>
<trkpt lat="53.311083" lon="06.602915"><ele>-2</ele><time>2021-05-20T15:35:11Z</time><name>PT15841</name></trkpt>
<trkpt lat="53.311075" lon="06.602919"><ele>-2</ele><time>2021-05-20T15:35:12Z</time><name>PT15842</name></trkpt>
<trkpt lat="53.311071" lon="06.602923"><ele>-1.9</ele><time>2021-05-20T15:35:13Z</time><name>PT15843</name></trkpt>
<trkpt lat="53.311067" lon="06.602927"><ele>-1.8</ele><time>2021-05-20T15:35:14Z</time><name>PT15844</name></trkpt>
<trkpt lat="53.311059" lon="06.602931"><ele>-2</ele><time>2021-05-20T15:35:15Z</time><name>PT15845</name></trkpt>
<trkpt lat="53.311045" lon="06.602934"><ele>-2.1</ele><time>2021-05-20T15:35:16Z</time><name>PT15846</name></trkpt>
<trkpt lat="53.311027" lon="06.602940"><ele>-2.1</ele><time>2021-05-20T15:35:17Z</time><name>PT15847</name></trkpt>
<trkpt lat="53.311010" lon="06.602948"><ele>-2.3</ele><time>2021-05-20T15:35:18Z</time><name>PT15848</name></trkpt>
<trkpt lat="53.310997" lon="06.602954"><ele>-2.2</ele><time>2021-05-20T15:35:19Z</time><name>PT15849</name></trkpt>
<trkpt lat="53.310985" lon="06.602956"><ele>-2.2</ele><time>2021-05-20T15:35:20Z</time><name>PT15850</name></trkpt>
<trkpt lat="53.310979" lon="06.602957"><ele>-2</ele><time>2021-05-20T15:35:21Z</time><name>PT15851</name></trkpt>
<trkpt lat="53.310977" lon="06.602962"><ele>-1.9</ele><time>2021-05-20T15:35:22Z</time><name>PT15852</name></trkpt>
<trkpt lat="53.310972" lon="06.602965"><ele>-1.9</ele><time>2021-05-20T15:35:23Z</time><name>PT15853</name></trkpt>
<trkpt lat="53.310966" lon="06.602972"><ele>-1.7</ele><time>2021-05-20T15:35:24Z</time><name>PT15854</name></trkpt>
<trkpt lat="53.310954" lon="06.602978"><ele>-1.8</ele><time>2021-05-20T15:35:25Z</time><name>PT15855</name></trkpt>
<trkpt lat="53.310937" lon="06.602981"><ele>-1.8</ele><time>2021-05-20T15:35:26Z</time><name>PT15856</name></trkpt>
<trkpt lat="53.310918" lon="06.602983"><ele>-1.9</ele><time>2021-05-20T15:35:27Z</time><name>PT15857</name></trkpt>
<trkpt lat="53.310902" lon="06.602986"><ele>-1.9</ele><time>2021-05-20T15:35:28Z</time><name>PT15858</name></trkpt>
<trkpt lat="53.310891" lon="06.602990"><ele>-1.8</ele><time>2021-05-20T15:35:29Z</time><name>PT15859</name></trkpt>
<trkpt lat="53.310885" lon="06.602991"><ele>-1.7</ele><time>2021-05-20T15:35:30Z</time><name>PT15860</name></trkpt>
<trkpt lat="53.310879" lon="06.602995"><ele>-1.8</ele><time>2021-05-20T15:35:31Z</time><name>PT15861</name></trkpt>
<trkpt lat="53.310873" lon="06.602999"><ele>-1.7</ele><time>2021-05-20T15:35:32Z</time><name>PT15862</name></trkpt>
<trkpt lat="53.310866" lon="06.603009"><ele>-2</ele><time>2021-05-20T15:35:33Z</time><name>PT15863</name></trkpt>
<trkpt lat="53.310853" lon="06.603016"><ele>-2</ele><time>2021-05-20T15:35:34Z</time><name>PT15864</name></trkpt>
<trkpt lat="53.310843" lon="06.603023"><ele>-1.9</ele><time>2021-05-20T15:35:35Z</time><name>PT15865</name></trkpt>
<trkpt lat="53.310839" lon="06.603026"><ele>-1.9</ele><time>2021-05-20T15:35:36Z</time><name>PT15866</name></trkpt>
<trkpt lat="53.310836" lon="06.603028"><ele>-1.6</ele><time>2021-05-20T15:35:37Z</time><name>PT15867</name></trkpt>
<trkpt lat="53.310830" lon="06.603031"><ele>-1.5</ele><time>2021-05-20T15:35:38Z</time><name>PT15868</name></trkpt>
<trkpt lat="53.310820" lon="06.603038"><ele>-1.6</ele><time>2021-05-20T15:35:39Z</time><name>PT15869</name></trkpt>
<trkpt lat="53.310808" lon="06.603045"><ele>-1.5</ele><time>2021-05-20T15:35:40Z</time><name>PT15870</name></trkpt>
<trkpt lat="53.310794" lon="06.603044"><ele>-1.4</ele><time>2021-05-20T15:35:41Z</time><name>PT15871</name></trkpt>
<trkpt lat="53.310783" lon="06.603043"><ele>-1.5</ele><time>2021-05-20T15:35:42Z</time><name>PT15872</name></trkpt>
<trkpt lat="53.310775" lon="06.603045"><ele>-1.5</ele><time>2021-05-20T15:35:43Z</time><name>PT15873</name></trkpt>
<trkpt lat="53.310769" lon="06.603052"><ele>-1.5</ele><time>2021-05-20T15:35:44Z</time><name>PT15874</name></trkpt>
<trkpt lat="53.310763" lon="06.603057"><ele>-1.7</ele><time>2021-05-20T15:35:45Z</time><name>PT15875</name></trkpt>
<trkpt lat="53.310752" lon="06.603062"><ele>-1.8</ele><time>2021-05-20T15:35:46Z</time><name>PT15876</name></trkpt>
<trkpt lat="53.310739" lon="06.603069"><ele>-1.7</ele><time>2021-05-20T15:35:47Z</time><name>PT15877</name></trkpt>
<trkpt lat="53.310724" lon="06.603075"><ele>-1.6</ele><time>2021-05-20T15:35:48Z</time><name>PT15878</name></trkpt>
<trkpt lat="53.310713" lon="06.603082"><ele>-1.5</ele><time>2021-05-20T15:35:49Z</time><name>PT15879</name></trkpt>
<trkpt lat="53.310703" lon="06.603087"><ele>-1.5</ele><time>2021-05-20T15:35:50Z</time><name>PT15880</name></trkpt>
<trkpt lat="53.310695" lon="06.603092"><ele>-1.7</ele><time>2021-05-20T15:35:51Z</time><name>PT15881</name></trkpt>
<trkpt lat="53.310691" lon="06.603094"><ele>-1.7</ele><time>2021-05-20T15:35:52Z</time><name>PT15882</name></trkpt>
<trkpt lat="53.310688" lon="06.603098"><ele>-1.8</ele><time>2021-05-20T15:35:53Z</time><name>PT15883</name></trkpt>
<trkpt lat="53.310679" lon="06.603106"><ele>-1.6</ele><time>2021-05-20T15:35:54Z</time><name>PT15884</name></trkpt>
<trkpt lat="53.310666" lon="06.603115"><ele>-1.6</ele><time>2021-05-20T15:35:55Z</time><name>PT15885</name></trkpt>
<trkpt lat="53.310650" lon="06.603123"><ele>-1.5</ele><time>2021-05-20T15:35:56Z</time><name>PT15886</name></trkpt>
<trkpt lat="53.310635" lon="06.603129"><ele>-1.6</ele><time>2021-05-20T15:35:57Z</time><name>PT15887</name></trkpt>
<trkpt lat="53.310624" lon="06.603132"><ele>-1.6</ele><time>2021-05-20T15:35:58Z</time><name>PT15888</name></trkpt>
<trkpt lat="53.310617" lon="06.603134"><ele>-1.6</ele><time>2021-05-20T15:35:59Z</time><name>PT15889</name></trkpt>
<trkpt lat="53.310613" lon="06.603136"><ele>-1.6</ele><time>2021-05-20T15:36:00Z</time><name>PT15890</name></trkpt>
<trkpt lat="53.310609" lon="06.603138"><ele>-1.7</ele><time>2021-05-20T15:36:01Z</time><name>PT15891</name></trkpt>
<trkpt lat="53.310602" lon="06.603145"><ele>-1.8</ele><time>2021-05-20T15:36:02Z</time><name>PT15892</name></trkpt>
<trkpt lat="53.310590" lon="06.603153"><ele>-1.8</ele><time>2021-05-20T15:36:03Z</time><name>PT15893</name></trkpt>
<trkpt lat="53.310575" lon="06.603160"><ele>-1.6</ele><time>2021-05-20T15:36:04Z</time><name>PT15894</name></trkpt>
<trkpt lat="53.310563" lon="06.603167"><ele>-1.6</ele><time>2021-05-20T15:36:05Z</time><name>PT15895</name></trkpt>
<trkpt lat="53.310554" lon="06.603170"><ele>-1.5</ele><time>2021-05-20T15:36:06Z</time><name>PT15896</name></trkpt>
<trkpt lat="53.310548" lon="06.603174"><ele>-1.5</ele><time>2021-05-20T15:36:07Z</time><name>PT15897</name></trkpt>
<trkpt lat="53.310538" lon="06.603174"><ele>-1.6</ele><time>2021-05-20T15:36:08Z</time><name>PT15898</name></trkpt>
<trkpt lat="53.310529" lon="06.603182"><ele>-1.6</ele><time>2021-05-20T15:36:09Z</time><name>PT15899</name></trkpt>
<trkpt lat="53.310516" lon="06.603187"><ele>-1.7</ele><time>2021-05-20T15:36:10Z</time><name>PT15900</name></trkpt>
<trkpt lat="53.310501" lon="06.603192"><ele>-1.8</ele><time>2021-05-20T15:36:11Z</time><name>PT15901</name></trkpt>
<trkpt lat="53.310487" lon="06.603196"><ele>-1.8</ele><time>2021-05-20T15:36:12Z</time><name>PT15902</name></trkpt>
<trkpt lat="53.310478" lon="06.603201"><ele>-2</ele><time>2021-05-20T15:36:13Z</time><name>PT15903</name></trkpt>
<trkpt lat="53.310471" lon="06.603206"><ele>-2</ele><time>2021-05-20T15:36:14Z</time><name>PT15904</name></trkpt>
<trkpt lat="53.310465" lon="06.603207"><ele>-1.9</ele><time>2021-05-20T15:36:15Z</time><name>PT15905</name></trkpt>
<trkpt lat="53.310459" lon="06.603212"><ele>-1.9</ele><time>2021-05-20T15:36:16Z</time><name>PT15906</name></trkpt>
<trkpt lat="53.310449" lon="06.603214"><ele>-1.9</ele><time>2021-05-20T15:36:17Z</time><name>PT15907</name></trkpt>
<trkpt lat="53.310437" lon="06.603217"><ele>-1.8</ele><time>2021-05-20T15:36:18Z</time><name>PT15908</name></trkpt>
<trkpt lat="53.310422" lon="06.603220"><ele>-1.8</ele><time>2021-05-20T15:36:19Z</time><name>PT15909</name></trkpt>
<trkpt lat="53.310405" lon="06.603224"><ele>-1.7</ele><time>2021-05-20T15:36:20Z</time><name>PT15910</name></trkpt>
<trkpt lat="53.310389" lon="06.603228"><ele>-1.6</ele><time>2021-05-20T15:36:21Z</time><name>PT15911</name></trkpt>
<trkpt lat="53.310377" lon="06.603228"><ele>-1.7</ele><time>2021-05-20T15:36:22Z</time><name>PT15912</name></trkpt>
<trkpt lat="53.310370" lon="06.603230"><ele>-1.9</ele><time>2021-05-20T15:36:23Z</time><name>PT15913</name></trkpt>
<trkpt lat="53.310367" lon="06.603230"><ele>-1.8</ele><time>2021-05-20T15:36:24Z</time><name>PT15914</name></trkpt>
<trkpt lat="53.310363" lon="06.603234"><ele>-1.7</ele><time>2021-05-20T15:36:25Z</time><name>PT15915</name></trkpt>
<trkpt lat="53.310356" lon="06.603240"><ele>-1.9</ele><time>2021-05-20T15:36:26Z</time><name>PT15916</name></trkpt>
<trkpt lat="53.310343" lon="06.603241"><ele>-1.8</ele><time>2021-05-20T15:36:27Z</time><name>PT15917</name></trkpt>
<trkpt lat="53.310327" lon="06.603247"><ele>-1.6</ele><time>2021-05-20T15:36:28Z</time><name>PT15918</name></trkpt>
<trkpt lat="53.310309" lon="06.603248"><ele>-1.7</ele><time>2021-05-20T15:36:29Z</time><name>PT15919</name></trkpt>
<trkpt lat="53.310296" lon="06.603251"><ele>-1.7</ele><time>2021-05-20T15:36:30Z</time><name>PT15920</name></trkpt>
<trkpt lat="53.310288" lon="06.603257"><ele>-1.6</ele><time>2021-05-20T15:36:31Z</time><name>PT15921</name></trkpt>
<trkpt lat="53.310287" lon="06.603261"><ele>-1.8</ele><time>2021-05-20T15:36:32Z</time><name>PT15922</name></trkpt>
<trkpt lat="53.310284" lon="06.603265"><ele>-1.7</ele><time>2021-05-20T15:36:33Z</time><name>PT15923</name></trkpt>
<trkpt lat="53.310276" lon="06.603271"><ele>-1.6</ele><time>2021-05-20T15:36:34Z</time><name>PT15924</name></trkpt>
<trkpt lat="53.310263" lon="06.603277"><ele>-1.5</ele><time>2021-05-20T15:36:35Z</time><name>PT15925</name></trkpt>
<trkpt lat="53.310245" lon="06.603281"><ele>-1.6</ele><time>2021-05-20T15:36:36Z</time><name>PT15926</name></trkpt>
<trkpt lat="53.310230" lon="06.603286"><ele>-1.5</ele><time>2021-05-20T15:36:37Z</time><name>PT15927</name></trkpt>
<trkpt lat="53.310220" lon="06.603291"><ele>-1.6</ele><time>2021-05-20T15:36:38Z</time><name>PT15928</name></trkpt>
<trkpt lat="53.310218" lon="06.603293"><ele>-1.6</ele><time>2021-05-20T15:36:39Z</time><name>PT15929</name></trkpt>
<trkpt lat="53.310219" lon="06.603293"><ele>-1.5</ele><time>2021-05-20T15:36:40Z</time><name>PT15930</name></trkpt>
<trkpt lat="53.310218" lon="06.603290"><ele>-1.7</ele><time>2021-05-20T15:36:41Z</time><name>PT15931</name></trkpt>
<trkpt lat="53.310213" lon="06.603291"><ele>-1.7</ele><time>2021-05-20T15:36:42Z</time><name>PT15932</name></trkpt>
<trkpt lat="53.310207" lon="06.603294"><ele>-1.6</ele><time>2021-05-20T15:36:43Z</time><name>PT15933</name></trkpt>
<trkpt lat="53.310198" lon="06.603300"><ele>-1.8</ele><time>2021-05-20T15:36:44Z</time><name>PT15934</name></trkpt>
<trkpt lat="53.310186" lon="06.603306"><ele>-1.7</ele><time>2021-05-20T15:36:45Z</time><name>PT15935</name></trkpt>
<trkpt lat="53.310173" lon="06.603315"><ele>-1.6</ele><time>2021-05-20T15:36:46Z</time><name>PT15936</name></trkpt>
<trkpt lat="53.310162" lon="06.603321"><ele>-1.6</ele><time>2021-05-20T15:36:47Z</time><name>PT15937</name></trkpt>
<trkpt lat="53.310153" lon="06.603328"><ele>-1.5</ele><time>2021-05-20T15:36:48Z</time><name>PT15938</name></trkpt>
<trkpt lat="53.310147" lon="06.603334"><ele>-1.3</ele><time>2021-05-20T15:36:49Z</time><name>PT15939</name></trkpt>
<trkpt lat="53.310142" lon="06.603336"><ele>-1.4</ele><time>2021-05-20T15:36:50Z</time><name>PT15940</name></trkpt>
<trkpt lat="53.310137" lon="06.603340"><ele>-1.3</ele><time>2021-05-20T15:36:51Z</time><name>PT15941</name></trkpt>
<trkpt lat="53.310130" lon="06.603345"><ele>-1.5</ele><time>2021-05-20T15:36:52Z</time><name>PT15942</name></trkpt>
<trkpt lat="53.310118" lon="06.603351"><ele>-1.5</ele><time>2021-05-20T15:36:53Z</time><name>PT15943</name></trkpt>
<trkpt lat="53.310103" lon="06.603358"><ele>-1.5</ele><time>2021-05-20T15:36:54Z</time><name>PT15944</name></trkpt>
<trkpt lat="53.310090" lon="06.603364"><ele>-1.4</ele><time>2021-05-20T15:36:55Z</time><name>PT15945</name></trkpt>
<trkpt lat="53.310081" lon="06.603367"><ele>-1.3</ele><time>2021-05-20T15:36:56Z</time><name>PT15946</name></trkpt>
<trkpt lat="53.310075" lon="06.603368"><ele>-1.2</ele><time>2021-05-20T15:36:57Z</time><name>PT15947</name></trkpt>
<trkpt lat="53.310070" lon="06.603373"><ele>-1.2</ele><time>2021-05-20T15:36:58Z</time><name>PT15948</name></trkpt>
<trkpt lat="53.310063" lon="06.603379"><ele>-1.3</ele><time>2021-05-20T15:36:59Z</time><name>PT15949</name></trkpt>
<trkpt lat="53.310052" lon="06.603384"><ele>-1.2</ele><time>2021-05-20T15:37:00Z</time><name>PT15950</name></trkpt>
<trkpt lat="53.310039" lon="06.603388"><ele>-1.2</ele><time>2021-05-20T15:37:01Z</time><name>PT15951</name></trkpt>
<trkpt lat="53.310028" lon="06.603392"><ele>-1</ele><time>2021-05-20T15:37:02Z</time><name>PT15952</name></trkpt>
<trkpt lat="53.310021" lon="06.603397"><ele>-1</ele><time>2021-05-20T15:37:03Z</time><name>PT15953</name></trkpt>
<trkpt lat="53.310015" lon="06.603399"><ele>-1</ele><time>2021-05-20T15:37:04Z</time><name>PT15954</name></trkpt>
<trkpt lat="53.310006" lon="06.603396"><ele>-1</ele><time>2021-05-20T15:37:05Z</time><name>PT15955</name></trkpt>
<trkpt lat="53.309995" lon="06.603406"><ele>0.8</ele><time>2021-05-20T15:37:06Z</time><name>PT15956</name></trkpt>
<trkpt lat="53.309980" lon="06.603412"><ele>0.9</ele><time>2021-05-20T15:37:07Z</time><name>PT15957</name></trkpt>
<trkpt lat="53.309967" lon="06.603420"><ele>0.9</ele><time>2021-05-20T15:37:08Z</time><name>PT15958</name></trkpt>
<trkpt lat="53.309955" lon="06.603427"><ele>-1</ele><time>2021-05-20T15:37:09Z</time><name>PT15959</name></trkpt>
<trkpt lat="53.309950" lon="06.603432"><ele>-1</ele><time>2021-05-20T15:37:10Z</time><name>PT15960</name></trkpt>
<trkpt lat="53.309944" lon="06.603436"><ele>-1</ele><time>2021-05-20T15:37:11Z</time><name>PT15961</name></trkpt>
<trkpt lat="53.309934" lon="06.603439"><ele>0.9</ele><time>2021-05-20T15:37:12Z</time><name>PT15962</name></trkpt>
<trkpt lat="53.309923" lon="06.603449"><ele>0.7</ele><time>2021-05-20T15:37:13Z</time><name>PT15963</name></trkpt>
<trkpt lat="53.309911" lon="06.603454"><ele>0.6</ele><time>2021-05-20T15:37:14Z</time><name>PT15964</name></trkpt>
<trkpt lat="53.309900" lon="06.603459"><ele>0.7</ele><time>2021-05-20T15:37:15Z</time><name>PT15965</name></trkpt>
<trkpt lat="53.309889" lon="06.603464"><ele>0.6</ele><time>2021-05-20T15:37:16Z</time><name>PT15966</name></trkpt>
<trkpt lat="53.309879" lon="06.603468"><ele>0.6</ele><time>2021-05-20T15:37:17Z</time><name>PT15967</name></trkpt>
<trkpt lat="53.309869" lon="06.603471"><ele>0.5</ele><time>2021-05-20T15:37:18Z</time><name>PT15968</name></trkpt>
<trkpt lat="53.309860" lon="06.603476"><ele>0.5</ele><time>2021-05-20T15:37:19Z</time><name>PT15969</name></trkpt>
<trkpt lat="53.309852" lon="06.603481"><ele>0.4</ele><time>2021-05-20T15:37:20Z</time><name>PT15970</name></trkpt>
<trkpt lat="53.309843" lon="06.603486"><ele>0.4</ele><time>2021-05-20T15:37:21Z</time><name>PT15971</name></trkpt>
<trkpt lat="53.309834" lon="06.603492"><ele>0.3</ele><time>2021-05-20T15:37:22Z</time><name>PT15972</name></trkpt>
<trkpt lat="53.309824" lon="06.603495"><ele>0.1</ele><time>2021-05-20T15:37:23Z</time><name>PT15973</name></trkpt>
<trkpt lat="53.309814" lon="06.603497"><ele>0.1</ele><time>2021-05-20T15:37:24Z</time><name>PT15974</name></trkpt>
<trkpt lat="53.309804" lon="06.603499"><ele>0.2</ele><time>2021-05-20T15:37:25Z</time><name>PT15975</name></trkpt>
<trkpt lat="53.309795" lon="06.603504"><ele>0.2</ele><time>2021-05-20T15:37:26Z</time><name>PT15976</name></trkpt>
<trkpt lat="53.309786" lon="06.603509"><ele>0.4</ele><time>2021-05-20T15:37:27Z</time><name>PT15977</name></trkpt>
<trkpt lat="53.309777" lon="06.603514"><ele>0.5</ele><time>2021-05-20T15:37:28Z</time><name>PT15978</name></trkpt>
<trkpt lat="53.309767" lon="06.603520"><ele>0.5</ele><time>2021-05-20T15:37:29Z</time><name>PT15979</name></trkpt>
<trkpt lat="53.309757" lon="06.603523"><ele>0.4</ele><time>2021-05-20T15:37:30Z</time><name>PT15980</name></trkpt>
<trkpt lat="53.309747" lon="06.603527"><ele>0.3</ele><time>2021-05-20T15:37:31Z</time><name>PT15981</name></trkpt>
<trkpt lat="53.309738" lon="06.603531"><ele>0.2</ele><time>2021-05-20T15:37:32Z</time><name>PT15982</name></trkpt>
<trkpt lat="53.309728" lon="06.603536"><ele>0.3</ele><time>2021-05-20T15:37:33Z</time><name>PT15983</name></trkpt>
<trkpt lat="53.309719" lon="06.603540"><ele>0.2</ele><time>2021-05-20T15:37:34Z</time><name>PT15984</name></trkpt>
<trkpt lat="53.309710" lon="06.603546"><ele>0.1</ele><time>2021-05-20T15:37:35Z</time><name>PT15985</name></trkpt>
<trkpt lat="53.309701" lon="06.603551"><ele>0.2</ele><time>2021-05-20T15:37:36Z</time><name>PT15986</name></trkpt>
<trkpt lat="53.309691" lon="06.603558"><ele>0.3</ele><time>2021-05-20T15:37:37Z</time><name>PT15987</name></trkpt>
<trkpt lat="53.309679" lon="06.603565"><ele>0.3</ele><time>2021-05-20T15:37:38Z</time><name>PT15988</name></trkpt>
<trkpt lat="53.309671" lon="06.603571"><ele>0.3</ele><time>2021-05-20T15:37:39Z</time><name>PT15989</name></trkpt>
<trkpt lat="53.309666" lon="06.603572"><ele>0.5</ele><time>2021-05-20T15:37:40Z</time><name>PT15990</name></trkpt>
<trkpt lat="53.309662" lon="06.603573"><ele>0.4</ele><time>2021-05-20T15:37:41Z</time><name>PT15991</name></trkpt>
<trkpt lat="53.309654" lon="06.603575"><ele>0.4</ele><time>2021-05-20T15:37:42Z</time><name>PT15992</name></trkpt>
<trkpt lat="53.309643" lon="06.603581"><ele>0.4</ele><time>2021-05-20T15:37:43Z</time><name>PT15993</name></trkpt>
<trkpt lat="53.309629" lon="06.603588"><ele>0.3</ele><time>2021-05-20T15:37:44Z</time><name>PT15994</name></trkpt>
<trkpt lat="53.309615" lon="06.603594"><ele>0.4</ele><time>2021-05-20T15:37:45Z</time><name>PT15995</name></trkpt>
<trkpt lat="53.309602" lon="06.603594"><ele>0.3</ele><time>2021-05-20T15:37:46Z</time><name>PT15996</name></trkpt>
<trkpt lat="53.309594" lon="06.603597"><ele>0.2</ele><time>2021-05-20T15:37:47Z</time><name>PT15997</name></trkpt>
<trkpt lat="53.309592" lon="06.603600"><ele>0.1</ele><time>2021-05-20T15:37:48Z</time><name>PT15998</name></trkpt>
<trkpt lat="53.309589" lon="06.603603"><ele>0.1</ele><time>2021-05-20T15:37:49Z</time><name>PT15999</name></trkpt>
<trkpt lat="53.309581" lon="06.603607"><ele>0.1</ele><time>2021-05-20T15:37:50Z</time><name>PT16000</name></trkpt>
<trkpt lat="53.309567" lon="06.603615"><ele>0.3</ele><time>2021-05-20T15:37:51Z</time><name>PT16001</name></trkpt>
<trkpt lat="53.309548" lon="06.603623"><ele>0.1</ele><time>2021-05-20T15:37:52Z</time><name>PT16002</name></trkpt>
<trkpt lat="53.309531" lon="06.603628"><ele>0.2</ele><time>2021-05-20T15:37:53Z</time><name>PT16003</name></trkpt>
<trkpt lat="53.309519" lon="06.603629"><ele>0.3</ele><time>2021-05-20T15:37:54Z</time><name>PT16004</name></trkpt>
<trkpt lat="53.309513" lon="06.603630"><ele>0.1</ele><time>2021-05-20T15:37:55Z</time><name>PT16005</name></trkpt>
<trkpt lat="53.309509" lon="06.603630"><ele>0.2</ele><time>2021-05-20T15:37:56Z</time><name>PT16006</name></trkpt>
<trkpt lat="53.309504" lon="06.603633"><ele>0.2</ele><time>2021-05-20T15:37:57Z</time><name>PT16007</name></trkpt>
<trkpt lat="53.309496" lon="06.603635"><ele>0.1</ele><time>2021-05-20T15:37:58Z</time><name>PT16008</name></trkpt>
<trkpt lat="53.309482" lon="06.603640"><ele>0</ele><time>2021-05-20T15:37:59Z</time><name>PT16009</name></trkpt>
<trkpt lat="53.309469" lon="06.603646"><ele>0.1</ele><time>2021-05-20T15:38:00Z</time><name>PT16010</name></trkpt>
<trkpt lat="53.309460" lon="06.603651"><ele>0.2</ele><time>2021-05-20T15:38:01Z</time><name>PT16011</name></trkpt>
<trkpt lat="53.309457" lon="06.603654"><ele>0.2</ele><time>2021-05-20T15:38:02Z</time><name>PT16012</name></trkpt>
<trkpt lat="53.309455" lon="06.603655"><ele>0.4</ele><time>2021-05-20T15:38:03Z</time><name>PT16013</name></trkpt>
<trkpt lat="53.309445" lon="06.603654"><ele>0.3</ele><time>2021-05-20T15:38:04Z</time><name>PT16014</name></trkpt>
<trkpt lat="53.309436" lon="06.603652"><ele>0.2</ele><time>2021-05-20T15:38:05Z</time><name>PT16015</name></trkpt>
<trkpt lat="53.309431" lon="06.603652"><ele>0.1</ele><time>2021-05-20T15:38:06Z</time><name>PT16016</name></trkpt>
<trkpt lat="53.309427" lon="06.603657"><ele>0.1</ele><time>2021-05-20T15:38:07Z</time><name>PT16017</name></trkpt>
<trkpt lat="53.309414" lon="06.603653"><ele>0</ele><time>2021-05-20T15:38:08Z</time><name>PT16018</name></trkpt>
<trkpt lat="53.309400" lon="06.603659"><ele>0.2</ele><time>2021-05-20T15:38:09Z</time><name>PT16019</name></trkpt>
<trkpt lat="53.309384" lon="06.603665"><ele>0.1</ele><time>2021-05-20T15:38:10Z</time><name>PT16020</name></trkpt>
<trkpt lat="53.309370" lon="06.603668"><ele>0</ele><time>2021-05-20T15:38:11Z</time><name>PT16021</name></trkpt>
<trkpt lat="53.309361" lon="06.603673"><ele>0.1</ele><time>2021-05-20T15:38:12Z</time><name>PT16022</name></trkpt>
<trkpt lat="53.309354" lon="06.603676"><ele>0.1</ele><time>2021-05-20T15:38:13Z</time><name>PT16023</name></trkpt>
<trkpt lat="53.309349" lon="06.603678"><ele>0.1</ele><time>2021-05-20T15:38:14Z</time><name>PT16024</name></trkpt>
<trkpt lat="53.309342" lon="06.603679"><ele>0</ele><time>2021-05-20T15:38:15Z</time><name>PT16025</name></trkpt>
<trkpt lat="53.309331" lon="06.603688"><ele>0.1</ele><time>2021-05-20T15:38:16Z</time><name>PT16026</name></trkpt>
<trkpt lat="53.309314" lon="06.603694"><ele>0.2</ele><time>2021-05-20T15:38:17Z</time><name>PT16027</name></trkpt>
<trkpt lat="53.309297" lon="06.603699"><ele>0.3</ele><time>2021-05-20T15:38:18Z</time><name>PT16028</name></trkpt>
<trkpt lat="53.309282" lon="06.603703"><ele>0.3</ele><time>2021-05-20T15:38:19Z</time><name>PT16029</name></trkpt>
<trkpt lat="53.309272" lon="06.603708"><ele>0.4</ele><time>2021-05-20T15:38:20Z</time><name>PT16030</name></trkpt>
<trkpt lat="53.309268" lon="06.603715"><ele>0.3</ele><time>2021-05-20T15:38:21Z</time><name>PT16031</name></trkpt>
<trkpt lat="53.309261" lon="06.603722"><ele>0.2</ele><time>2021-05-20T15:38:22Z</time><name>PT16032</name></trkpt>
<trkpt lat="53.309253" lon="06.603732"><ele>0.1</ele><time>2021-05-20T15:38:23Z</time><name>PT16033</name></trkpt>
<trkpt lat="53.309244" lon="06.603740"><ele>0.2</ele><time>2021-05-20T15:38:24Z</time><name>PT16034</name></trkpt>
<trkpt lat="53.309236" lon="06.603749"><ele>0.3</ele><time>2021-05-20T15:38:25Z</time><name>PT16035</name></trkpt>
<trkpt lat="53.309226" lon="06.603754"><ele>0.3</ele><time>2021-05-20T15:38:26Z</time><name>PT16036</name></trkpt>
<trkpt lat="53.309218" lon="06.603757"><ele>0.5</ele><time>2021-05-20T15:38:27Z</time><name>PT16037</name></trkpt>
<trkpt lat="53.309212" lon="06.603757"><ele>0.3</ele><time>2021-05-20T15:38:28Z</time><name>PT16038</name></trkpt>
<trkpt lat="53.309206" lon="06.603757"><ele>0.3</ele><time>2021-05-20T15:38:29Z</time><name>PT16039</name></trkpt>
<trkpt lat="53.309203" lon="06.603761"><ele>0.2</ele><time>2021-05-20T15:38:30Z</time><name>PT16040</name></trkpt>
<trkpt lat="53.309195" lon="06.603766"><ele>0</ele><time>2021-05-20T15:38:31Z</time><name>PT16041</name></trkpt>
<trkpt lat="53.309185" lon="06.603763"><ele>0.1</ele><time>2021-05-20T15:38:32Z</time><name>PT16042</name></trkpt>
<trkpt lat="53.309178" lon="06.603764"><ele>0.2</ele><time>2021-05-20T15:38:33Z</time><name>PT16043</name></trkpt>
<trkpt lat="53.309169" lon="06.603767"><ele>0</ele><time>2021-05-20T15:38:34Z</time><name>PT16044</name></trkpt>
<trkpt lat="53.309157" lon="06.603769"><ele>0</ele><time>2021-05-20T15:38:35Z</time><name>PT16045</name></trkpt>
<trkpt lat="53.309145" lon="06.603773"><ele>0</ele><time>2021-05-20T15:38:36Z</time><name>PT16046</name></trkpt>
<trkpt lat="53.309137" lon="06.603779"><ele>0.1</ele><time>2021-05-20T15:38:37Z</time><name>PT16047</name></trkpt>
<trkpt lat="53.309132" lon="06.603784"><ele>0.1</ele><time>2021-05-20T15:38:38Z</time><name>PT16048</name></trkpt>
<trkpt lat="53.309124" lon="06.603788"><ele>0</ele><time>2021-05-20T15:38:39Z</time><name>PT16049</name></trkpt>
<trkpt lat="53.309112" lon="06.603791"><ele>0.3</ele><time>2021-05-20T15:38:40Z</time><name>PT16050</name></trkpt>
<trkpt lat="53.309094" lon="06.603801"><ele>0.3</ele><time>2021-05-20T15:38:41Z</time><name>PT16051</name></trkpt>
<trkpt lat="53.309080" lon="06.603812"><ele>0</ele><time>2021-05-20T15:38:42Z</time><name>PT16052</name></trkpt>
<trkpt lat="53.309069" lon="06.603820"><ele>0.1</ele><time>2021-05-20T15:38:43Z</time><name>PT16053</name></trkpt>
<trkpt lat="53.309059" lon="06.603820"><ele>0.2</ele><time>2021-05-20T15:38:44Z</time><name>PT16054</name></trkpt>
<trkpt lat="53.309048" lon="06.603821"><ele>0.5</ele><time>2021-05-20T15:38:45Z</time><name>PT16055</name></trkpt>
<trkpt lat="53.309041" lon="06.603828"><ele>0.5</ele><time>2021-05-20T15:38:46Z</time><name>PT16056</name></trkpt>
<trkpt lat="53.309033" lon="06.603832"><ele>0.6</ele><time>2021-05-20T15:38:47Z</time><name>PT16057</name></trkpt>
<trkpt lat="53.309023" lon="06.603843"><ele>0.6</ele><time>2021-05-20T15:38:48Z</time><name>PT16058</name></trkpt>
<trkpt lat="53.309012" lon="06.603853"><ele>0.8</ele><time>2021-05-20T15:38:49Z</time><name>PT16059</name></trkpt>
<trkpt lat="53.309000" lon="06.603862"><ele>0.9</ele><time>2021-05-20T15:38:50Z</time><name>PT16060</name></trkpt>
<trkpt lat="53.308989" lon="06.603869"><ele>0.8</ele><time>2021-05-20T15:38:51Z</time><name>PT16061</name></trkpt>
<trkpt lat="53.308977" lon="06.603873"><ele>0.9</ele><time>2021-05-20T15:38:52Z</time><name>PT16062</name></trkpt>
<trkpt lat="53.308966" lon="06.603876"><ele>-1</ele><time>2021-05-20T15:38:53Z</time><name>PT16063</name></trkpt>
<trkpt lat="53.308956" lon="06.603878"><ele>-1</ele><time>2021-05-20T15:38:54Z</time><name>PT16064</name></trkpt>
<trkpt lat="53.308945" lon="06.603883"><ele>0.9</ele><time>2021-05-20T15:38:55Z</time><name>PT16065</name></trkpt>
<trkpt lat="53.308934" lon="06.603890"><ele>0.8</ele><time>2021-05-20T15:38:56Z</time><name>PT16066</name></trkpt>
<trkpt lat="53.308924" lon="06.603897"><ele>0.8</ele><time>2021-05-20T15:38:57Z</time><name>PT16067</name></trkpt>
<trkpt lat="53.308913" lon="06.603903"><ele>0.8</ele><time>2021-05-20T15:38:58Z</time><name>PT16068</name></trkpt>
<trkpt lat="53.308901" lon="06.603908"><ele>0.7</ele><time>2021-05-20T15:38:59Z</time><name>PT16069</name></trkpt>
<trkpt lat="53.308889" lon="06.603912"><ele>0.5</ele><time>2021-05-20T15:39:00Z</time><name>PT16070</name></trkpt>
<trkpt lat="53.308881" lon="06.603918"><ele>0.4</ele><time>2021-05-20T15:39:01Z</time><name>PT16071</name></trkpt>
<trkpt lat="53.308875" lon="06.603922"><ele>0.3</ele><time>2021-05-20T15:39:02Z</time><name>PT16072</name></trkpt>
<trkpt lat="53.308869" lon="06.603924"><ele>0.2</ele><time>2021-05-20T15:39:03Z</time><name>PT16073</name></trkpt>
<trkpt lat="53.308862" lon="06.603928"><ele>0.1</ele><time>2021-05-20T15:39:04Z</time><name>PT16074</name></trkpt>
<trkpt lat="53.308850" lon="06.603934"><ele>0.1</ele><time>2021-05-20T15:39:05Z</time><name>PT16075</name></trkpt>
<trkpt lat="53.308833" lon="06.603942"><ele>0.1</ele><time>2021-05-20T15:39:06Z</time><name>PT16076</name></trkpt>
<trkpt lat="53.308819" lon="06.603952"><ele>0.1</ele><time>2021-05-20T15:39:07Z</time><name>PT16077</name></trkpt>
<trkpt lat="53.308811" lon="06.603957"><ele>0.4</ele><time>2021-05-20T15:39:08Z</time><name>PT16078</name></trkpt>
<trkpt lat="53.308808" lon="06.603960"><ele>0.5</ele><time>2021-05-20T15:39:09Z</time><name>PT16079</name></trkpt>
<trkpt lat="53.308801" lon="06.603965"><ele>0.5</ele><time>2021-05-20T15:39:10Z</time><name>PT16080</name></trkpt>
<trkpt lat="53.308788" lon="06.603970"><ele>0.4</ele><time>2021-05-20T15:39:11Z</time><name>PT16081</name></trkpt>
<trkpt lat="53.308774" lon="06.603973"><ele>0.4</ele><time>2021-05-20T15:39:12Z</time><name>PT16082</name></trkpt>
<trkpt lat="53.308758" lon="06.603970"><ele>0.3</ele><time>2021-05-20T15:39:13Z</time><name>PT16083</name></trkpt>
<trkpt lat="53.308744" lon="06.603968"><ele>0.4</ele><time>2021-05-20T15:39:14Z</time><name>PT16084</name></trkpt>
<trkpt lat="53.308736" lon="06.603973"><ele>0.5</ele><time>2021-05-20T15:39:15Z</time><name>PT16085</name></trkpt>
<trkpt lat="53.308731" lon="06.603974"><ele>0.7</ele><time>2021-05-20T15:39:16Z</time><name>PT16086</name></trkpt>
<trkpt lat="53.308725" lon="06.603977"><ele>0.6</ele><time>2021-05-20T15:39:17Z</time><name>PT16087</name></trkpt>
<trkpt lat="53.308715" lon="06.603978"><ele>0.4</ele><time>2021-05-20T15:39:18Z</time><name>PT16088</name></trkpt>
<trkpt lat="53.308701" lon="06.603978"><ele>0.1</ele><time>2021-05-20T15:39:19Z</time><name>PT16089</name></trkpt>
<trkpt lat="53.308687" lon="06.603982"><ele>0.2</ele><time>2021-05-20T15:39:20Z</time><name>PT16090</name></trkpt>
<trkpt lat="53.308675" lon="06.603988"><ele>0.1</ele><time>2021-05-20T15:39:21Z</time><name>PT16091</name></trkpt>
<trkpt lat="53.308668" lon="06.603992"><ele>0.2</ele><time>2021-05-20T15:39:22Z</time><name>PT16092</name></trkpt>
<trkpt lat="53.308663" lon="06.603993"><ele>0.5</ele><time>2021-05-20T15:39:23Z</time><name>PT16093</name></trkpt>
<trkpt lat="53.308652" lon="06.603997"><ele>0.6</ele><time>2021-05-20T15:39:24Z</time><name>PT16094</name></trkpt>
<trkpt lat="53.308642" lon="06.604002"><ele>0.6</ele><time>2021-05-20T15:39:25Z</time><name>PT16095</name></trkpt>
<trkpt lat="53.308633" lon="06.604007"><ele>0.8</ele><time>2021-05-20T15:39:26Z</time><name>PT16096</name></trkpt>
<trkpt lat="53.308624" lon="06.604016"><ele>-1</ele><time>2021-05-20T15:39:27Z</time><name>PT16097</name></trkpt>
<trkpt lat="53.308616" lon="06.604019"><ele>-1</ele><time>2021-05-20T15:39:28Z</time><name>PT16098</name></trkpt>
<trkpt lat="53.308606" lon="06.604025"><ele>-1.3</ele><time>2021-05-20T15:39:29Z</time><name>PT16099</name></trkpt>
<trkpt lat="53.308596" lon="06.604031"><ele>-1.3</ele><time>2021-05-20T15:39:30Z</time><name>PT16100</name></trkpt>
<trkpt lat="53.308586" lon="06.604037"><ele>-1.1</ele><time>2021-05-20T15:39:31Z</time><name>PT16101</name></trkpt>
<trkpt lat="53.308576" lon="06.604041"><ele>-1</ele><time>2021-05-20T15:39:32Z</time><name>PT16102</name></trkpt>
<trkpt lat="53.308566" lon="06.604046"><ele>0.8</ele><time>2021-05-20T15:39:33Z</time><name>PT16103</name></trkpt>
<trkpt lat="53.308556" lon="06.604049"><ele>0.7</ele><time>2021-05-20T15:39:34Z</time><name>PT16104</name></trkpt>
<trkpt lat="53.308546" lon="06.604052"><ele>0.8</ele><time>2021-05-20T15:39:35Z</time><name>PT16105</name></trkpt>
<trkpt lat="53.308536" lon="06.604054"><ele>0.8</ele><time>2021-05-20T15:39:36Z</time><name>PT16106</name></trkpt>
<trkpt lat="53.308526" lon="06.604057"><ele>0.7</ele><time>2021-05-20T15:39:37Z</time><name>PT16107</name></trkpt>
<trkpt lat="53.308517" lon="06.604060"><ele>0.8</ele><time>2021-05-20T15:39:38Z</time><name>PT16108</name></trkpt>
<trkpt lat="53.308507" lon="06.604067"><ele>0.8</ele><time>2021-05-20T15:39:39Z</time><name>PT16109</name></trkpt>
<trkpt lat="53.308497" lon="06.604071"><ele>-1</ele><time>2021-05-20T15:39:40Z</time><name>PT16110</name></trkpt>
<trkpt lat="53.308487" lon="06.604075"><ele>-1</ele><time>2021-05-20T15:39:41Z</time><name>PT16111</name></trkpt>
<trkpt lat="53.308477" lon="06.604079"><ele>-1.2</ele><time>2021-05-20T15:39:42Z</time><name>PT16112</name></trkpt>
<trkpt lat="53.308466" lon="06.604083"><ele>-1.4</ele><time>2021-05-20T15:39:43Z</time><name>PT16113</name></trkpt>
<trkpt lat="53.308456" lon="06.604084"><ele>-1.3</ele><time>2021-05-20T15:39:44Z</time><name>PT16114</name></trkpt>
<trkpt lat="53.308449" lon="06.604082"><ele>-1.5</ele><time>2021-05-20T15:39:45Z</time><name>PT16115</name></trkpt>
<trkpt lat="53.308444" lon="06.604083"><ele>-1.5</ele><time>2021-05-20T15:39:46Z</time><name>PT16116</name></trkpt>
<trkpt lat="53.308434" lon="06.604089"><ele>-1.5</ele><time>2021-05-20T15:39:47Z</time><name>PT16117</name></trkpt>
<trkpt lat="53.308419" lon="06.604099"><ele>-1.5</ele><time>2021-05-20T15:39:48Z</time><name>PT16118</name></trkpt>
<trkpt lat="53.308402" lon="06.604108"><ele>-1.4</ele><time>2021-05-20T15:39:49Z</time><name>PT16119</name></trkpt>
<trkpt lat="53.308389" lon="06.604111"><ele>-1.3</ele><time>2021-05-20T15:39:50Z</time><name>PT16120</name></trkpt>
<trkpt lat="53.308382" lon="06.604111"><ele>-1.3</ele><time>2021-05-20T15:39:51Z</time><name>PT16121</name></trkpt>
<trkpt lat="53.308379" lon="06.604115"><ele>-1.3</ele><time>2021-05-20T15:39:52Z</time><name>PT16122</name></trkpt>
<trkpt lat="53.308377" lon="06.604116"><ele>-1.5</ele><time>2021-05-20T15:39:53Z</time><name>PT16123</name></trkpt>
<trkpt lat="53.308368" lon="06.604118"><ele>-1.6</ele><time>2021-05-20T15:39:54Z</time><name>PT16124</name></trkpt>
<trkpt lat="53.308352" lon="06.604119"><ele>-1.5</ele><time>2021-05-20T15:39:55Z</time><name>PT16125</name></trkpt>
<trkpt lat="53.308336" lon="06.604103"><ele>-1.5</ele><time>2021-05-20T15:39:56Z</time><name>PT16126</name></trkpt>
<trkpt lat="53.308321" lon="06.604101"><ele>-1.5</ele><time>2021-05-20T15:39:57Z</time><name>PT16127</name></trkpt>
<trkpt lat="53.308313" lon="06.604103"><ele>-1.5</ele><time>2021-05-20T15:39:58Z</time><name>PT16128</name></trkpt>
<trkpt lat="53.308310" lon="06.604106"><ele>-1.4</ele><time>2021-05-20T15:39:59Z</time><name>PT16129</name></trkpt>
<trkpt lat="53.308304" lon="06.604110"><ele>-1.4</ele><time>2021-05-20T15:40:00Z</time><name>PT16130</name></trkpt>
<trkpt lat="53.308291" lon="06.604117"><ele>-1.5</ele><time>2021-05-20T15:40:01Z</time><name>PT16131</name></trkpt>
<trkpt lat="53.308274" lon="06.604120"><ele>-1.5</ele><time>2021-05-20T15:40:02Z</time><name>PT16132</name></trkpt>
<trkpt lat="53.308256" lon="06.604113"><ele>-1.7</ele><time>2021-05-20T15:40:03Z</time><name>PT16133</name></trkpt>
<trkpt lat="53.308241" lon="06.604113"><ele>-1.8</ele><time>2021-05-20T15:40:04Z</time><name>PT16134</name></trkpt>
<trkpt lat="53.308235" lon="06.604115"><ele>-1.6</ele><time>2021-05-20T15:40:05Z</time><name>PT16135</name></trkpt>
<trkpt lat="53.308234" lon="06.604116"><ele>-1.5</ele><time>2021-05-20T15:40:06Z</time><name>PT16136</name></trkpt>
<trkpt lat="53.308231" lon="06.604119"><ele>-1.5</ele><time>2021-05-20T15:40:07Z</time><name>PT16137</name></trkpt>
<trkpt lat="53.308222" lon="06.604126"><ele>-1.4</ele><time>2021-05-20T15:40:08Z</time><name>PT16138</name></trkpt>
<trkpt lat="53.308206" lon="06.604130"><ele>-1.5</ele><time>2021-05-20T15:40:09Z</time><name>PT16139</name></trkpt>
<trkpt lat="53.308185" lon="06.604130"><ele>-1.6</ele><time>2021-05-20T15:40:10Z</time><name>PT16140</name></trkpt>
<trkpt lat="53.308166" lon="06.604132"><ele>-1.8</ele><time>2021-05-20T15:40:11Z</time><name>PT16141</name></trkpt>
<trkpt lat="53.308157" lon="06.604144"><ele>-1.8</ele><time>2021-05-20T15:40:12Z</time><name>PT16142</name></trkpt>
<trkpt lat="53.308153" lon="06.604161"><ele>-1.8</ele><time>2021-05-20T15:40:13Z</time><name>PT16143</name></trkpt>
<trkpt lat="53.308148" lon="06.604173"><ele>-1.9</ele><time>2021-05-20T15:40:14Z</time><name>PT16144</name></trkpt>
<trkpt lat="53.308139" lon="06.604183"><ele>-1.9</ele><time>2021-05-20T15:40:15Z</time><name>PT16145</name></trkpt>
<trkpt lat="53.308129" lon="06.604190"><ele>-2</ele><time>2021-05-20T15:40:16Z</time><name>PT16146</name></trkpt>
<trkpt lat="53.308120" lon="06.604200"><ele>-2</ele><time>2021-05-20T15:40:17Z</time><name>PT16147</name></trkpt>
<trkpt lat="53.308111" lon="06.604206"><ele>-1.8</ele><time>2021-05-20T15:40:18Z</time><name>PT16148</name></trkpt>
<trkpt lat="53.308101" lon="06.604211"><ele>-1.7</ele><time>2021-05-20T15:40:19Z</time><name>PT16149</name></trkpt>
<trkpt lat="53.308093" lon="06.604215"><ele>-1.9</ele><time>2021-05-20T15:40:20Z</time><name>PT16150</name></trkpt>
<trkpt lat="53.308084" lon="06.604221"><ele>-2</ele><time>2021-05-20T15:40:21Z</time><name>PT16151</name></trkpt>
<trkpt lat="53.308076" lon="06.604227"><ele>-2.1</ele><time>2021-05-20T15:40:22Z</time><name>PT16152</name></trkpt>
<trkpt lat="53.308067" lon="06.604231"><ele>-2.4</ele><time>2021-05-20T15:40:23Z</time><name>PT16153</name></trkpt>
<trkpt lat="53.308059" lon="06.604235"><ele>-2.4</ele><time>2021-05-20T15:40:24Z</time><name>PT16154</name></trkpt>
<trkpt lat="53.308050" lon="06.604240"><ele>-2.1</ele><time>2021-05-20T15:40:25Z</time><name>PT16155</name></trkpt>
<trkpt lat="53.308042" lon="06.604244"><ele>-2</ele><time>2021-05-20T15:40:26Z</time><name>PT16156</name></trkpt>
<trkpt lat="53.308033" lon="06.604249"><ele>-2</ele><time>2021-05-20T15:40:27Z</time><name>PT16157</name></trkpt>
<trkpt lat="53.308024" lon="06.604254"><ele>-2</ele><time>2021-05-20T15:40:28Z</time><name>PT16158</name></trkpt>
<trkpt lat="53.308015" lon="06.604258"><ele>-2</ele><time>2021-05-20T15:40:29Z</time><name>PT16159</name></trkpt>
<trkpt lat="53.308006" lon="06.604261"><ele>-2</ele><time>2021-05-20T15:40:30Z</time><name>PT16160</name></trkpt>
<trkpt lat="53.307997" lon="06.604263"><ele>-1.9</ele><time>2021-05-20T15:40:31Z</time><name>PT16161</name></trkpt>
<trkpt lat="53.307989" lon="06.604266"><ele>-2</ele><time>2021-05-20T15:40:32Z</time><name>PT16162</name></trkpt>
<trkpt lat="53.307980" lon="06.604271"><ele>-2</ele><time>2021-05-20T15:40:33Z</time><name>PT16163</name></trkpt>
<trkpt lat="53.307972" lon="06.604276"><ele>-2.3</ele><time>2021-05-20T15:40:34Z</time><name>PT16164</name></trkpt>
<trkpt lat="53.307964" lon="06.604280"><ele>-2.4</ele><time>2021-05-20T15:40:35Z</time><name>PT16165</name></trkpt>
<trkpt lat="53.307955" lon="06.604282"><ele>-2.3</ele><time>2021-05-20T15:40:36Z</time><name>PT16166</name></trkpt>
<trkpt lat="53.307946" lon="06.604285"><ele>-2.3</ele><time>2021-05-20T15:40:37Z</time><name>PT16167</name></trkpt>
<trkpt lat="53.307936" lon="06.604290"><ele>-2.3</ele><time>2021-05-20T15:40:38Z</time><name>PT16168</name></trkpt>
<trkpt lat="53.307926" lon="06.604295"><ele>-2.4</ele><time>2021-05-20T15:40:39Z</time><name>PT16169</name></trkpt>
<trkpt lat="53.307917" lon="06.604301"><ele>-2.4</ele><time>2021-05-20T15:40:40Z</time><name>PT16170</name></trkpt>
<trkpt lat="53.307907" lon="06.604309"><ele>-2.5</ele><time>2021-05-20T15:40:41Z</time><name>PT16171</name></trkpt>
<trkpt lat="53.307896" lon="06.604315"><ele>-2.6</ele><time>2021-05-20T15:40:42Z</time><name>PT16172</name></trkpt>
<trkpt lat="53.307886" lon="06.604318"><ele>-2.5</ele><time>2021-05-20T15:40:43Z</time><name>PT16173</name></trkpt>
<trkpt lat="53.307876" lon="06.604322"><ele>-2.7</ele><time>2021-05-20T15:40:44Z</time><name>PT16174</name></trkpt>
<trkpt lat="53.307866" lon="06.604328"><ele>-2.6</ele><time>2021-05-20T15:40:45Z</time><name>PT16175</name></trkpt>
<trkpt lat="53.307856" lon="06.604333"><ele>-2.4</ele><time>2021-05-20T15:40:46Z</time><name>PT16176</name></trkpt>
<trkpt lat="53.307850" lon="06.604335"><ele>-2.4</ele><time>2021-05-20T15:40:47Z</time><name>PT16177</name></trkpt>
<trkpt lat="53.307839" lon="06.604343"><ele>-2.2</ele><time>2021-05-20T15:40:48Z</time><name>PT16178</name></trkpt>
<trkpt lat="53.307826" lon="06.604352"><ele>-2</ele><time>2021-05-20T15:40:49Z</time><name>PT16179</name></trkpt>
<trkpt lat="53.307815" lon="06.604358"><ele>-2</ele><time>2021-05-20T15:40:50Z</time><name>PT16180</name></trkpt>
<trkpt lat="53.307805" lon="06.604360"><ele>-2</ele><time>2021-05-20T15:40:51Z</time><name>PT16181</name></trkpt>
<trkpt lat="53.307795" lon="06.604362"><ele>-2.1</ele><time>2021-05-20T15:40:52Z</time><name>PT16182</name></trkpt>
<trkpt lat="53.307786" lon="06.604369"><ele>-2.4</ele><time>2021-05-20T15:40:53Z</time><name>PT16183</name></trkpt>
<trkpt lat="53.307777" lon="06.604372"><ele>-2.4</ele><time>2021-05-20T15:40:54Z</time><name>PT16184</name></trkpt>
<trkpt lat="53.307769" lon="06.604375"><ele>-2.4</ele><time>2021-05-20T15:40:55Z</time><name>PT16185</name></trkpt>
<trkpt lat="53.307759" lon="06.604381"><ele>-2.4</ele><time>2021-05-20T15:40:56Z</time><name>PT16186</name></trkpt>
<trkpt lat="53.307749" lon="06.604386"><ele>-2.2</ele><time>2021-05-20T15:40:57Z</time><name>PT16187</name></trkpt>
<trkpt lat="53.307739" lon="06.604390"><ele>-2</ele><time>2021-05-20T15:40:58Z</time><name>PT16188</name></trkpt>
<trkpt lat="53.307732" lon="06.604392"><ele>-2</ele><time>2021-05-20T15:40:59Z</time><name>PT16189</name></trkpt>
<trkpt lat="53.307726" lon="06.604395"><ele>-1.8</ele><time>2021-05-20T15:41:00Z</time><name>PT16190</name></trkpt>
<trkpt lat="53.307717" lon="06.604401"><ele>-1.8</ele><time>2021-05-20T15:41:01Z</time><name>PT16191</name></trkpt>
<trkpt lat="53.307705" lon="06.604408"><ele>-2</ele><time>2021-05-20T15:41:02Z</time><name>PT16192</name></trkpt>
<trkpt lat="53.307691" lon="06.604414"><ele>-2</ele><time>2021-05-20T15:41:03Z</time><name>PT16193</name></trkpt>
<trkpt lat="53.307677" lon="06.604420"><ele>-2</ele><time>2021-05-20T15:41:04Z</time><name>PT16194</name></trkpt>
<trkpt lat="53.307666" lon="06.604425"><ele>-2</ele><time>2021-05-20T15:41:05Z</time><name>PT16195</name></trkpt>
<trkpt lat="53.307659" lon="06.604428"><ele>-1.8</ele><time>2021-05-20T15:41:06Z</time><name>PT16196</name></trkpt>
<trkpt lat="53.307654" lon="06.604432"><ele>-1.9</ele><time>2021-05-20T15:41:07Z</time><name>PT16197</name></trkpt>
<trkpt lat="53.307647" lon="06.604437"><ele>-1.7</ele><time>2021-05-20T15:41:08Z</time><name>PT16198</name></trkpt>
<trkpt lat="53.307635" lon="06.604444"><ele>-1.8</ele><time>2021-05-20T15:41:09Z</time><name>PT16199</name></trkpt>
<trkpt lat="53.307617" lon="06.604448"><ele>-1.9</ele><time>2021-05-20T15:41:10Z</time><name>PT16200</name></trkpt>
<trkpt lat="53.307600" lon="06.604453"><ele>-1.8</ele><time>2021-05-20T15:41:11Z</time><name>PT16201</name></trkpt>
<trkpt lat="53.307587" lon="06.604460"><ele>-1.8</ele><time>2021-05-20T15:41:12Z</time><name>PT16202</name></trkpt>
<trkpt lat="53.307576" lon="06.604463"><ele>-1.9</ele><time>2021-05-20T15:41:13Z</time><name>PT16203</name></trkpt>
<trkpt lat="53.307568" lon="06.604467"><ele>-1.8</ele><time>2021-05-20T15:41:14Z</time><name>PT16204</name></trkpt>
<trkpt lat="53.307564" lon="06.604474"><ele>-1.8</ele><time>2021-05-20T15:41:15Z</time><name>PT16205</name></trkpt>
<trkpt lat="53.307559" lon="06.604476"><ele>-1.9</ele><time>2021-05-20T15:41:16Z</time><name>PT16206</name></trkpt>
<trkpt lat="53.307547" lon="06.604476"><ele>-1.9</ele><time>2021-05-20T15:41:17Z</time><name>PT16207</name></trkpt>
<trkpt lat="53.307530" lon="06.604479"><ele>-2</ele><time>2021-05-20T15:41:18Z</time><name>PT16208</name></trkpt>
<trkpt lat="53.307513" lon="06.604485"><ele>-2</ele><time>2021-05-20T15:41:19Z</time><name>PT16209</name></trkpt>
<trkpt lat="53.307501" lon="06.604490"><ele>-2.1</ele><time>2021-05-20T15:41:20Z</time><name>PT16210</name></trkpt>
<trkpt lat="53.307491" lon="06.604497"><ele>-2.1</ele><time>2021-05-20T15:41:21Z</time><name>PT16211</name></trkpt>
<trkpt lat="53.307485" lon="06.604502"><ele>-2.1</ele><time>2021-05-20T15:41:22Z</time><name>PT16212</name></trkpt>
<trkpt lat="53.307480" lon="06.604504"><ele>-2</ele><time>2021-05-20T15:41:23Z</time><name>PT16213</name></trkpt>
<trkpt lat="53.307471" lon="06.604510"><ele>-2</ele><time>2021-05-20T15:41:24Z</time><name>PT16214</name></trkpt>
<trkpt lat="53.307457" lon="06.604510"><ele>-2.1</ele><time>2021-05-20T15:41:25Z</time><name>PT16215</name></trkpt>
<trkpt lat="53.307442" lon="06.604514"><ele>-2.2</ele><time>2021-05-20T15:41:26Z</time><name>PT16216</name></trkpt>
<trkpt lat="53.307431" lon="06.604518"><ele>-2.1</ele><time>2021-05-20T15:41:27Z</time><name>PT16217</name></trkpt>
<trkpt lat="53.307425" lon="06.604525"><ele>-2</ele><time>2021-05-20T15:41:28Z</time><name>PT16218</name></trkpt>
<trkpt lat="53.307420" lon="06.604530"><ele>-2</ele><time>2021-05-20T15:41:29Z</time><name>PT16219</name></trkpt>
<trkpt lat="53.307411" lon="06.604531"><ele>-1.9</ele><time>2021-05-20T15:41:30Z</time><name>PT16220</name></trkpt>
<trkpt lat="53.307397" lon="06.604536"><ele>-2</ele><time>2021-05-20T15:41:31Z</time><name>PT16221</name></trkpt>
<trkpt lat="53.307383" lon="06.604541"><ele>-2</ele><time>2021-05-20T15:41:32Z</time><name>PT16222</name></trkpt>
<trkpt lat="53.307372" lon="06.604545"><ele>-2</ele><time>2021-05-20T15:41:33Z</time><name>PT16223</name></trkpt>
<trkpt lat="53.307364" lon="06.604548"><ele>-2</ele><time>2021-05-20T15:41:34Z</time><name>PT16224</name></trkpt>
<trkpt lat="53.307359" lon="06.604552"><ele>-1.9</ele><time>2021-05-20T15:41:35Z</time><name>PT16225</name></trkpt>
<trkpt lat="53.307350" lon="06.604555"><ele>-2</ele><time>2021-05-20T15:41:36Z</time><name>PT16226</name></trkpt>
<trkpt lat="53.307337" lon="06.604558"><ele>-2</ele><time>2021-05-20T15:41:37Z</time><name>PT16227</name></trkpt>
<trkpt lat="53.307322" lon="06.604562"><ele>-2.1</ele><time>2021-05-20T15:41:38Z</time><name>PT16228</name></trkpt>
<trkpt lat="53.307311" lon="06.604566"><ele>-2.3</ele><time>2021-05-20T15:41:39Z</time><name>PT16229</name></trkpt>
<trkpt lat="53.307301" lon="06.604571"><ele>-2.4</ele><time>2021-05-20T15:41:40Z</time><name>PT16230</name></trkpt>
<trkpt lat="53.307291" lon="06.604573"><ele>-2.4</ele><time>2021-05-20T15:41:41Z</time><name>PT16231</name></trkpt>
<trkpt lat="53.307281" lon="06.604577"><ele>-2.3</ele><time>2021-05-20T15:41:42Z</time><name>PT16232</name></trkpt>
<trkpt lat="53.307274" lon="06.604580"><ele>-2.2</ele><time>2021-05-20T15:41:43Z</time><name>PT16233</name></trkpt>
<trkpt lat="53.307263" lon="06.604582"><ele>-2.1</ele><time>2021-05-20T15:41:44Z</time><name>PT16234</name></trkpt>
<trkpt lat="53.307253" lon="06.604585"><ele>-2</ele><time>2021-05-20T15:41:45Z</time><name>PT16235</name></trkpt>
<trkpt lat="53.307245" lon="06.604586"><ele>-2</ele><time>2021-05-20T15:41:46Z</time><name>PT16236</name></trkpt>
<trkpt lat="53.307241" lon="06.604586"><ele>-2</ele><time>2021-05-20T15:41:47Z</time><name>PT16237</name></trkpt>
<trkpt lat="53.307234" lon="06.604586"><ele>-2.2</ele><time>2021-05-20T15:41:48Z</time><name>PT16238</name></trkpt>
<trkpt lat="53.307225" lon="06.604590"><ele>-2.2</ele><time>2021-05-20T15:41:49Z</time><name>PT16239</name></trkpt>
<trkpt lat="53.307216" lon="06.604596"><ele>-2.4</ele><time>2021-05-20T15:41:50Z</time><name>PT16240</name></trkpt>
<trkpt lat="53.307208" lon="06.604598"><ele>-2.4</ele><time>2021-05-20T15:41:51Z</time><name>PT16241</name></trkpt>
<trkpt lat="53.307201" lon="06.604603"><ele>-2.3</ele><time>2021-05-20T15:41:52Z</time><name>PT16242</name></trkpt>
<trkpt lat="53.307194" lon="06.604608"><ele>-2.2</ele><time>2021-05-20T15:41:53Z</time><name>PT16243</name></trkpt>
<trkpt lat="53.307191" lon="06.604612"><ele>-2</ele><time>2021-05-20T15:41:54Z</time><name>PT16244</name></trkpt>
<trkpt lat="53.307185" lon="06.604617"><ele>-1.8</ele><time>2021-05-20T15:41:55Z</time><name>PT16245</name></trkpt>
<trkpt lat="53.307178" lon="06.604618"><ele>-1.7</ele><time>2021-05-20T15:41:56Z</time><name>PT16246</name></trkpt>
<trkpt lat="53.307168" lon="06.604621"><ele>-1.9</ele><time>2021-05-20T15:41:57Z</time><name>PT16247</name></trkpt>
<trkpt lat="53.307155" lon="06.604626"><ele>-1.8</ele><time>2021-05-20T15:41:58Z</time><name>PT16248</name></trkpt>
<trkpt lat="53.307140" lon="06.604628"><ele>-2</ele><time>2021-05-20T15:41:59Z</time><name>PT16249</name></trkpt>
<trkpt lat="53.307121" lon="06.604632"><ele>-2</ele><time>2021-05-20T15:42:00Z</time><name>PT16250</name></trkpt>
<trkpt lat="53.307102" lon="06.604638"><ele>-2</ele><time>2021-05-20T15:42:01Z</time><name>PT16251</name></trkpt>
<trkpt lat="53.307085" lon="06.604643"><ele>-1.9</ele><time>2021-05-20T15:42:02Z</time><name>PT16252</name></trkpt>
<trkpt lat="53.307068" lon="06.604647"><ele>-1.9</ele><time>2021-05-20T15:42:03Z</time><name>PT16253</name></trkpt>
<trkpt lat="53.307053" lon="06.604649"><ele>-2</ele><time>2021-05-20T15:42:04Z</time><name>PT16254</name></trkpt>
<trkpt lat="53.307040" lon="06.604650"><ele>-2</ele><time>2021-05-20T15:42:05Z</time><name>PT16255</name></trkpt>
<trkpt lat="53.307029" lon="06.604655"><ele>-2.1</ele><time>2021-05-20T15:42:06Z</time><name>PT16256</name></trkpt>
<trkpt lat="53.307020" lon="06.604658"><ele>-2.3</ele><time>2021-05-20T15:42:07Z</time><name>PT16257</name></trkpt>
<trkpt lat="53.307015" lon="06.604660"><ele>-2.4</ele><time>2021-05-20T15:42:08Z</time><name>PT16258</name></trkpt>
<trkpt lat="53.307010" lon="06.604659"><ele>-2.3</ele><time>2021-05-20T15:42:09Z</time><name>PT16259</name></trkpt>
<trkpt lat="53.307004" lon="06.604661"><ele>-2.2</ele><time>2021-05-20T15:42:10Z</time><name>PT16260</name></trkpt>
<trkpt lat="53.306995" lon="06.604663"><ele>-2.1</ele><time>2021-05-20T15:42:11Z</time><name>PT16261</name></trkpt>
<trkpt lat="53.306985" lon="06.604668"><ele>-2</ele><time>2021-05-20T15:42:12Z</time><name>PT16262</name></trkpt>
<trkpt lat="53.306972" lon="06.604675"><ele>-2</ele><time>2021-05-20T15:42:13Z</time><name>PT16263</name></trkpt>
<trkpt lat="53.306955" lon="06.604681"><ele>-1.9</ele><time>2021-05-20T15:42:14Z</time><name>PT16264</name></trkpt>
<trkpt lat="53.306941" lon="06.604687"><ele>-2</ele><time>2021-05-20T15:42:15Z</time><name>PT16265</name></trkpt>
<trkpt lat="53.306932" lon="06.604688"><ele>-2</ele><time>2021-05-20T15:42:16Z</time><name>PT16266</name></trkpt>
<trkpt lat="53.306926" lon="06.604689"><ele>-2</ele><time>2021-05-20T15:42:17Z</time><name>PT16267</name></trkpt>
<trkpt lat="53.306920" lon="06.604693"><ele>-2</ele><time>2021-05-20T15:42:18Z</time><name>PT16268</name></trkpt>
<trkpt lat="53.306910" lon="06.604699"><ele>-2</ele><time>2021-05-20T15:42:19Z</time><name>PT16269</name></trkpt>
<trkpt lat="53.306897" lon="06.604701"><ele>-1.9</ele><time>2021-05-20T15:42:20Z</time><name>PT16270</name></trkpt>
<trkpt lat="53.306884" lon="06.604705"><ele>-2</ele><time>2021-05-20T15:42:21Z</time><name>PT16271</name></trkpt>
<trkpt lat="53.306873" lon="06.604711"><ele>-2</ele><time>2021-05-20T15:42:22Z</time><name>PT16272</name></trkpt>
<trkpt lat="53.306864" lon="06.604711"><ele>-2.1</ele><time>2021-05-20T15:42:23Z</time><name>PT16273</name></trkpt>
<trkpt lat="53.306857" lon="06.604706"><ele>-2.1</ele><time>2021-05-20T15:42:24Z</time><name>PT16274</name></trkpt>
<trkpt lat="53.306850" lon="06.604707"><ele>-2.3</ele><time>2021-05-20T15:42:25Z</time><name>PT16275</name></trkpt>
<trkpt lat="53.306842" lon="06.604705"><ele>-2.2</ele><time>2021-05-20T15:42:26Z</time><name>PT16276</name></trkpt>
<trkpt lat="53.306830" lon="06.604712"><ele>-2.2</ele><time>2021-05-20T15:42:27Z</time><name>PT16277</name></trkpt>
<trkpt lat="53.306815" lon="06.604718"><ele>-2</ele><time>2021-05-20T15:42:28Z</time><name>PT16278</name></trkpt>
<trkpt lat="53.306798" lon="06.604720"><ele>-2</ele><time>2021-05-20T15:42:29Z</time><name>PT16279</name></trkpt>
<trkpt lat="53.306785" lon="06.604723"><ele>-2</ele><time>2021-05-20T15:42:30Z</time><name>PT16280</name></trkpt>
<trkpt lat="53.306776" lon="06.604727"><ele>-2</ele><time>2021-05-20T15:42:31Z</time><name>PT16281</name></trkpt>
<trkpt lat="53.306771" lon="06.604729"><ele>-2</ele><time>2021-05-20T15:42:32Z</time><name>PT16282</name></trkpt>
<trkpt lat="53.306768" lon="06.604730"><ele>-2</ele><time>2021-05-20T15:42:33Z</time><name>PT16283</name></trkpt>
<trkpt lat="53.306763" lon="06.604732"><ele>-1.9</ele><time>2021-05-20T15:42:34Z</time><name>PT16284</name></trkpt>
<trkpt lat="53.306756" lon="06.604736"><ele>-2</ele><time>2021-05-20T15:42:35Z</time><name>PT16285</name></trkpt>
<trkpt lat="53.306748" lon="06.604739"><ele>-2.1</ele><time>2021-05-20T15:42:36Z</time><name>PT16286</name></trkpt>
<trkpt lat="53.306744" lon="06.604741"><ele>-2.1</ele><time>2021-05-20T15:42:37Z</time><name>PT16287</name></trkpt>
<trkpt lat="53.306740" lon="06.604742"><ele>-2.1</ele><time>2021-05-20T15:42:38Z</time><name>PT16288</name></trkpt>
<trkpt lat="53.306732" lon="06.604743"><ele>-2.2</ele><time>2021-05-20T15:42:39Z</time><name>PT16289</name></trkpt>
<trkpt lat="53.306723" lon="06.604745"><ele>-2.1</ele><time>2021-05-20T15:42:40Z</time><name>PT16290</name></trkpt>
<trkpt lat="53.306719" lon="06.604744"><ele>-2</ele><time>2021-05-20T15:42:41Z</time><name>PT16291</name></trkpt>
<trkpt lat="53.306714" lon="06.604748"><ele>-1.9</ele><time>2021-05-20T15:42:42Z</time><name>PT16292</name></trkpt>
<trkpt lat="53.306707" lon="06.604755"><ele>-1.6</ele><time>2021-05-20T15:42:43Z</time><name>PT16293</name></trkpt>
<trkpt lat="53.306697" lon="06.604762"><ele>-1.5</ele><time>2021-05-20T15:42:44Z</time><name>PT16294</name></trkpt>
<trkpt lat="53.306685" lon="06.604767"><ele>-1.6</ele><time>2021-05-20T15:42:45Z</time><name>PT16295</name></trkpt>
<trkpt lat="53.306677" lon="06.604769"><ele>-1.5</ele><time>2021-05-20T15:42:46Z</time><name>PT16296</name></trkpt>
<trkpt lat="53.306670" lon="06.604773"><ele>-1.5</ele><time>2021-05-20T15:42:47Z</time><name>PT16297</name></trkpt>
<trkpt lat="53.306663" lon="06.604778"><ele>-1.5</ele><time>2021-05-20T15:42:48Z</time><name>PT16298</name></trkpt>
<trkpt lat="53.306657" lon="06.604780"><ele>-1.5</ele><time>2021-05-20T15:42:49Z</time><name>PT16299</name></trkpt>
<trkpt lat="53.306647" lon="06.604783"><ele>-1.3</ele><time>2021-05-20T15:42:50Z</time><name>PT16300</name></trkpt>
<trkpt lat="53.306635" lon="06.604788"><ele>-1.4</ele><time>2021-05-20T15:42:51Z</time><name>PT16301</name></trkpt>
<trkpt lat="53.306621" lon="06.604787"><ele>-1.4</ele><time>2021-05-20T15:42:52Z</time><name>PT16302</name></trkpt>
<trkpt lat="53.306610" lon="06.604788"><ele>-1.3</ele><time>2021-05-20T15:42:53Z</time><name>PT16303</name></trkpt>
<trkpt lat="53.306601" lon="06.604791"><ele>-1.4</ele><time>2021-05-20T15:42:54Z</time><name>PT16304</name></trkpt>
<trkpt lat="53.306594" lon="06.604793"><ele>-1.3</ele><time>2021-05-20T15:42:55Z</time><name>PT16305</name></trkpt>
<trkpt lat="53.306583" lon="06.604795"><ele>-1.3</ele><time>2021-05-20T15:42:56Z</time><name>PT16306</name></trkpt>
<trkpt lat="53.306569" lon="06.604800"><ele>-1.3</ele><time>2021-05-20T15:42:57Z</time><name>PT16307</name></trkpt>
<trkpt lat="53.306557" lon="06.604805"><ele>-1.4</ele><time>2021-05-20T15:42:58Z</time><name>PT16308</name></trkpt>
<trkpt lat="53.306547" lon="06.604811"><ele>-1.4</ele><time>2021-05-20T15:42:59Z</time><name>PT16309</name></trkpt>
<trkpt lat="53.306539" lon="06.604815"><ele>-1.4</ele><time>2021-05-20T15:43:00Z</time><name>PT16310</name></trkpt>
<trkpt lat="53.306529" lon="06.604817"><ele>-1.5</ele><time>2021-05-20T15:43:01Z</time><name>PT16311</name></trkpt>
<trkpt lat="53.306520" lon="06.604826"><ele>-1.3</ele><time>2021-05-20T15:43:02Z</time><name>PT16312</name></trkpt>
<trkpt lat="53.306510" lon="06.604833"><ele>-1.3</ele><time>2021-05-20T15:43:03Z</time><name>PT16313</name></trkpt>
<trkpt lat="53.306501" lon="06.604839"><ele>-1.3</ele><time>2021-05-20T15:43:04Z</time><name>PT16314</name></trkpt>
<trkpt lat="53.306491" lon="06.604842"><ele>-1.3</ele><time>2021-05-20T15:43:05Z</time><name>PT16315</name></trkpt>
<trkpt lat="53.306481" lon="06.604850"><ele>-1.3</ele><time>2021-05-20T15:43:06Z</time><name>PT16316</name></trkpt>
<trkpt lat="53.306471" lon="06.604857"><ele>-1.5</ele><time>2021-05-20T15:43:07Z</time><name>PT16317</name></trkpt>
<trkpt lat="53.306459" lon="06.604861"><ele>-1.5</ele><time>2021-05-20T15:43:08Z</time><name>PT16318</name></trkpt>
<trkpt lat="53.306448" lon="06.604866"><ele>-1.5</ele><time>2021-05-20T15:43:09Z</time><name>PT16319</name></trkpt>
<trkpt lat="53.306437" lon="06.604871"><ele>-1.6</ele><time>2021-05-20T15:43:10Z</time><name>PT16320</name></trkpt>
<trkpt lat="53.306427" lon="06.604875"><ele>-1.5</ele><time>2021-05-20T15:43:11Z</time><name>PT16321</name></trkpt>
<trkpt lat="53.306418" lon="06.604874"><ele>-1.5</ele><time>2021-05-20T15:43:12Z</time><name>PT16322</name></trkpt>
<trkpt lat="53.306409" lon="06.604876"><ele>-1.5</ele><time>2021-05-20T15:43:13Z</time><name>PT16323</name></trkpt>
<trkpt lat="53.306399" lon="06.604880"><ele>-1.7</ele><time>2021-05-20T15:43:14Z</time><name>PT16324</name></trkpt>
<trkpt lat="53.306388" lon="06.604887"><ele>-1.6</ele><time>2021-05-20T15:43:15Z</time><name>PT16325</name></trkpt>
<trkpt lat="53.306375" lon="06.604891"><ele>-1.6</ele><time>2021-05-20T15:43:16Z</time><name>PT16326</name></trkpt>
<trkpt lat="53.306365" lon="06.604893"><ele>-1.5</ele><time>2021-05-20T15:43:17Z</time><name>PT16327</name></trkpt>
<trkpt lat="53.306358" lon="06.604894"><ele>-1.5</ele><time>2021-05-20T15:43:18Z</time><name>PT16328</name></trkpt>
<trkpt lat="53.306351" lon="06.604897"><ele>-1.5</ele><time>2021-05-20T15:43:19Z</time><name>PT16329</name></trkpt>
<trkpt lat="53.306342" lon="06.604903"><ele>-1.8</ele><time>2021-05-20T15:43:20Z</time><name>PT16330</name></trkpt>
<trkpt lat="53.306332" lon="06.604914"><ele>-1.9</ele><time>2021-05-20T15:43:21Z</time><name>PT16331</name></trkpt>
<trkpt lat="53.306328" lon="06.604911"><ele>-2</ele><time>2021-05-20T15:43:22Z</time><name>PT16332</name></trkpt>
<trkpt lat="53.306324" lon="06.604913"><ele>-1.8</ele><time>2021-05-20T15:43:23Z</time><name>PT16333</name></trkpt>
<trkpt lat="53.306316" lon="06.604913"><ele>-1.8</ele><time>2021-05-20T15:43:24Z</time><name>PT16334</name></trkpt>
<trkpt lat="53.306308" lon="06.604916"><ele>-1.7</ele><time>2021-05-20T15:43:25Z</time><name>PT16335</name></trkpt>
<trkpt lat="53.306302" lon="06.604919"><ele>-1.7</ele><time>2021-05-20T15:43:26Z</time><name>PT16336</name></trkpt>
<trkpt lat="53.306295" lon="06.604919"><ele>-1.8</ele><time>2021-05-20T15:43:27Z</time><name>PT16337</name></trkpt>
<trkpt lat="53.306293" lon="06.604921"><ele>-1.8</ele><time>2021-05-20T15:43:28Z</time><name>PT16338</name></trkpt>
<trkpt lat="53.306292" lon="06.604922"><ele>-1.7</ele><time>2021-05-20T15:43:29Z</time><name>PT16339</name></trkpt>
<trkpt lat="53.306287" lon="06.604922"><ele>-1.8</ele><time>2021-05-20T15:43:30Z</time><name>PT16340</name></trkpt>
<trkpt lat="53.306279" lon="06.604925"><ele>-1.8</ele><time>2021-05-20T15:43:31Z</time><name>PT16341</name></trkpt>
<trkpt lat="53.306267" lon="06.604931"><ele>-1.9</ele><time>2021-05-20T15:43:32Z</time><name>PT16342</name></trkpt>
<trkpt lat="53.306255" lon="06.604941"><ele>-1.7</ele><time>2021-05-20T15:43:33Z</time><name>PT16343</name></trkpt>
<trkpt lat="53.306246" lon="06.604946"><ele>-1.7</ele><time>2021-05-20T15:43:34Z</time><name>PT16344</name></trkpt>
<trkpt lat="53.306237" lon="06.604952"><ele>-1.8</ele><time>2021-05-20T15:43:35Z</time><name>PT16345</name></trkpt>
<trkpt lat="53.306230" lon="06.604956"><ele>-1.6</ele><time>2021-05-20T15:43:36Z</time><name>PT16346</name></trkpt>
<trkpt lat="53.306222" lon="06.604957"><ele>-1.5</ele><time>2021-05-20T15:43:37Z</time><name>PT16347</name></trkpt>
<trkpt lat="53.306214" lon="06.604958"><ele>-1.6</ele><time>2021-05-20T15:43:38Z</time><name>PT16348</name></trkpt>
<trkpt lat="53.306201" lon="06.604959"><ele>-1.5</ele><time>2021-05-20T15:43:39Z</time><name>PT16349</name></trkpt>
<trkpt lat="53.306191" lon="06.604961"><ele>-1.6</ele><time>2021-05-20T15:43:40Z</time><name>PT16350</name></trkpt>
<trkpt lat="53.306183" lon="06.604964"><ele>-1.8</ele><time>2021-05-20T15:43:41Z</time><name>PT16351</name></trkpt>
<trkpt lat="53.306177" lon="06.604968"><ele>-1.9</ele><time>2021-05-20T15:43:42Z</time><name>PT16352</name></trkpt>
<trkpt lat="53.306171" lon="06.604971"><ele>-1.6</ele><time>2021-05-20T15:43:43Z</time><name>PT16353</name></trkpt>
<trkpt lat="53.306163" lon="06.604970"><ele>-1.5</ele><time>2021-05-20T15:43:44Z</time><name>PT16354</name></trkpt>
<trkpt lat="53.306154" lon="06.604968"><ele>-1.5</ele><time>2021-05-20T15:43:45Z</time><name>PT16355</name></trkpt>
<trkpt lat="53.306150" lon="06.604968"><ele>-1.5</ele><time>2021-05-20T15:43:46Z</time><name>PT16356</name></trkpt>
<trkpt lat="53.306144" lon="06.604967"><ele>-1.4</ele><time>2021-05-20T15:43:47Z</time><name>PT16357</name></trkpt>
<trkpt lat="53.306139" lon="06.604969"><ele>-1.4</ele><time>2021-05-20T15:43:48Z</time><name>PT16358</name></trkpt>
<trkpt lat="53.306134" lon="06.604974"><ele>-1.4</ele><time>2021-05-20T15:43:49Z</time><name>PT16359</name></trkpt>
<trkpt lat="53.306126" lon="06.604981"><ele>-1.4</ele><time>2021-05-20T15:43:50Z</time><name>PT16360</name></trkpt>
<trkpt lat="53.306113" lon="06.604985"><ele>-1.5</ele><time>2021-05-20T15:43:51Z</time><name>PT16361</name></trkpt>
<trkpt lat="53.306102" lon="06.604988"><ele>-1.5</ele><time>2021-05-20T15:43:52Z</time><name>PT16362</name></trkpt>
<trkpt lat="53.306093" lon="06.604990"><ele>-1.7</ele><time>2021-05-20T15:43:53Z</time><name>PT16363</name></trkpt>
<trkpt lat="53.306087" lon="06.604992"><ele>-1.7</ele><time>2021-05-20T15:43:54Z</time><name>PT16364</name></trkpt>
<trkpt lat="53.306079" lon="06.604994"><ele>-1.8</ele><time>2021-05-20T15:43:55Z</time><name>PT16365</name></trkpt>
<trkpt lat="53.306068" lon="06.604997"><ele>-1.6</ele><time>2021-05-20T15:43:56Z</time><name>PT16366</name></trkpt>
<trkpt lat="53.306060" lon="06.605000"><ele>-1.8</ele><time>2021-05-20T15:43:57Z</time><name>PT16367</name></trkpt>
<trkpt lat="53.306051" lon="06.605002"><ele>-1.7</ele><time>2021-05-20T15:43:58Z</time><name>PT16368</name></trkpt>
<trkpt lat="53.306045" lon="06.605005"><ele>-1.7</ele><time>2021-05-20T15:43:59Z</time><name>PT16369</name></trkpt>
<trkpt lat="53.306036" lon="06.605008"><ele>-1.5</ele><time>2021-05-20T15:44:00Z</time><name>PT16370</name></trkpt>
<trkpt lat="53.306024" lon="06.605009"><ele>-1.5</ele><time>2021-05-20T15:44:01Z</time><name>PT16371</name></trkpt>
<trkpt lat="53.306009" lon="06.605012"><ele>-1.3</ele><time>2021-05-20T15:44:02Z</time><name>PT16372</name></trkpt>
<trkpt lat="53.305999" lon="06.605017"><ele>-1.2</ele><time>2021-05-20T15:44:03Z</time><name>PT16373</name></trkpt>
<trkpt lat="53.305991" lon="06.605020"><ele>-1.5</ele><time>2021-05-20T15:44:04Z</time><name>PT16374</name></trkpt>
<trkpt lat="53.305985" lon="06.605024"><ele>-1.5</ele><time>2021-05-20T15:44:05Z</time><name>PT16375</name></trkpt>
<trkpt lat="53.305977" lon="06.605028"><ele>-1.7</ele><time>2021-05-20T15:44:06Z</time><name>PT16376</name></trkpt>
<trkpt lat="53.305965" lon="06.605031"><ele>-1.9</ele><time>2021-05-20T15:44:07Z</time><name>PT16377</name></trkpt>
<trkpt lat="53.305951" lon="06.605035"><ele>-1.9</ele><time>2021-05-20T15:44:08Z</time><name>PT16378</name></trkpt>
<trkpt lat="53.305939" lon="06.605039"><ele>-1.8</ele><time>2021-05-20T15:44:09Z</time><name>PT16379</name></trkpt>
<trkpt lat="53.305933" lon="06.605043"><ele>-1.9</ele><time>2021-05-20T15:44:10Z</time><name>PT16380</name></trkpt>
<trkpt lat="53.305925" lon="06.605047"><ele>-2</ele><time>2021-05-20T15:44:11Z</time><name>PT16381</name></trkpt>
<trkpt lat="53.305915" lon="06.605051"><ele>-1.8</ele><time>2021-05-20T15:44:12Z</time><name>PT16382</name></trkpt>
<trkpt lat="53.305903" lon="06.605058"><ele>-1.8</ele><time>2021-05-20T15:44:13Z</time><name>PT16383</name></trkpt>
<trkpt lat="53.305893" lon="06.605062"><ele>-1.7</ele><time>2021-05-20T15:44:14Z</time><name>PT16384</name></trkpt>
<trkpt lat="53.305886" lon="06.605067"><ele>-1.6</ele><time>2021-05-20T15:44:15Z</time><name>PT16385</name></trkpt>
<trkpt lat="53.305880" lon="06.605073"><ele>-1.6</ele><time>2021-05-20T15:44:16Z</time><name>PT16386</name></trkpt>
<trkpt lat="53.305874" lon="06.605075"><ele>-1.5</ele><time>2021-05-20T15:44:17Z</time><name>PT16387</name></trkpt>
<trkpt lat="53.305863" lon="06.605077"><ele>-1.5</ele><time>2021-05-20T15:44:18Z</time><name>PT16388</name></trkpt>
<trkpt lat="53.305850" lon="06.605081"><ele>-1.7</ele><time>2021-05-20T15:44:19Z</time><name>PT16389</name></trkpt>
<trkpt lat="53.305835" lon="06.605081"><ele>-1.7</ele><time>2021-05-20T15:44:20Z</time><name>PT16390</name></trkpt>
<trkpt lat="53.305823" lon="06.605081"><ele>-1.7</ele><time>2021-05-20T15:44:21Z</time><name>PT16391</name></trkpt>
<trkpt lat="53.305816" lon="06.605085"><ele>-1.6</ele><time>2021-05-20T15:44:22Z</time><name>PT16392</name></trkpt>
<trkpt lat="53.305810" lon="06.605089"><ele>-1.7</ele><time>2021-05-20T15:44:23Z</time><name>PT16393</name></trkpt>
<trkpt lat="53.305800" lon="06.605093"><ele>-1.5</ele><time>2021-05-20T15:44:24Z</time><name>PT16394</name></trkpt>
<trkpt lat="53.305789" lon="06.605094"><ele>-1.5</ele><time>2021-05-20T15:44:25Z</time><name>PT16395</name></trkpt>
<trkpt lat="53.305783" lon="06.605096"><ele>-1.6</ele><time>2021-05-20T15:44:26Z</time><name>PT16396</name></trkpt>
<trkpt lat="53.305776" lon="06.605098"><ele>-1.7</ele><time>2021-05-20T15:44:27Z</time><name>PT16397</name></trkpt>
<trkpt lat="53.305768" lon="06.605101"><ele>-1.4</ele><time>2021-05-20T15:44:28Z</time><name>PT16398</name></trkpt>
<trkpt lat="53.305758" lon="06.605104"><ele>-1.5</ele><time>2021-05-20T15:44:29Z</time><name>PT16399</name></trkpt>
<trkpt lat="53.305748" lon="06.605106"><ele>-1.5</ele><time>2021-05-20T15:44:30Z</time><name>PT16400</name></trkpt>
<trkpt lat="53.305741" lon="06.605106"><ele>-1.7</ele><time>2021-05-20T15:44:31Z</time><name>PT16401</name></trkpt>
<trkpt lat="53.305736" lon="06.605113"><ele>-1.8</ele><time>2021-05-20T15:44:32Z</time><name>PT16402</name></trkpt>
<trkpt lat="53.305728" lon="06.605120"><ele>-1.8</ele><time>2021-05-20T15:44:33Z</time><name>PT16403</name></trkpt>
<trkpt lat="53.305718" lon="06.605126"><ele>-1.7</ele><time>2021-05-20T15:44:34Z</time><name>PT16404</name></trkpt>
<trkpt lat="53.305708" lon="06.605128"><ele>-1.9</ele><time>2021-05-20T15:44:35Z</time><name>PT16405</name></trkpt>
<trkpt lat="53.305702" lon="06.605138"><ele>-2.1</ele><time>2021-05-20T15:44:36Z</time><name>PT16406</name></trkpt>
<trkpt lat="53.305697" lon="06.605152"><ele>-1.9</ele><time>2021-05-20T15:44:37Z</time><name>PT16407</name></trkpt>
<trkpt lat="53.305689" lon="06.605158"><ele>-2</ele><time>2021-05-20T15:44:38Z</time><name>PT16408</name></trkpt>
<trkpt lat="53.305680" lon="06.605161"><ele>-1.9</ele><time>2021-05-20T15:44:39Z</time><name>PT16409</name></trkpt>
<trkpt lat="53.305671" lon="06.605163"><ele>-1.8</ele><time>2021-05-20T15:44:40Z</time><name>PT16410</name></trkpt>
<trkpt lat="53.305658" lon="06.605165"><ele>-1.6</ele><time>2021-05-20T15:44:41Z</time><name>PT16411</name></trkpt>
<trkpt lat="53.305648" lon="06.605167"><ele>-1.6</ele><time>2021-05-20T15:44:42Z</time><name>PT16412</name></trkpt>
<trkpt lat="53.305644" lon="06.605171"><ele>-1.5</ele><time>2021-05-20T15:44:43Z</time><name>PT16413</name></trkpt>
<trkpt lat="53.305634" lon="06.605175"><ele>-1.2</ele><time>2021-05-20T15:44:44Z</time><name>PT16414</name></trkpt>
<trkpt lat="53.305620" lon="06.605176"><ele>-1.1</ele><time>2021-05-20T15:44:45Z</time><name>PT16415</name></trkpt>
<trkpt lat="53.305609" lon="06.605175"><ele>-1</ele><time>2021-05-20T15:44:46Z</time><name>PT16416</name></trkpt>
<trkpt lat="53.305602" lon="06.605176"><ele>-1</ele><time>2021-05-20T15:44:47Z</time><name>PT16417</name></trkpt>
<trkpt lat="53.305593" lon="06.605182"><ele>-1</ele><time>2021-05-20T15:44:48Z</time><name>PT16418</name></trkpt>
<trkpt lat="53.305586" lon="06.605189"><ele>-1.1</ele><time>2021-05-20T15:44:49Z</time><name>PT16419</name></trkpt>
<trkpt lat="53.305576" lon="06.605192"><ele>-1.2</ele><time>2021-05-20T15:44:50Z</time><name>PT16420</name></trkpt>
<trkpt lat="53.305566" lon="06.605203"><ele>-1.5</ele><time>2021-05-20T15:44:51Z</time><name>PT16421</name></trkpt>
<trkpt lat="53.305556" lon="06.605213"><ele>-1.5</ele><time>2021-05-20T15:44:52Z</time><name>PT16422</name></trkpt>
<trkpt lat="53.305546" lon="06.605217"><ele>-1.7</ele><time>2021-05-20T15:44:53Z</time><name>PT16423</name></trkpt>
<trkpt lat="53.305540" lon="06.605218"><ele>-1.5</ele><time>2021-05-20T15:44:54Z</time><name>PT16424</name></trkpt>
<trkpt lat="53.305532" lon="06.605219"><ele>-1.3</ele><time>2021-05-20T15:44:55Z</time><name>PT16425</name></trkpt>
<trkpt lat="53.305520" lon="06.605222"><ele>-1.5</ele><time>2021-05-20T15:44:56Z</time><name>PT16426</name></trkpt>
<trkpt lat="53.305508" lon="06.605222"><ele>-1.2</ele><time>2021-05-20T15:44:57Z</time><name>PT16427</name></trkpt>
<trkpt lat="53.305497" lon="06.605223"><ele>-1.2</ele><time>2021-05-20T15:44:58Z</time><name>PT16428</name></trkpt>
<trkpt lat="53.305489" lon="06.605227"><ele>-1.4</ele><time>2021-05-20T15:44:59Z</time><name>PT16429</name></trkpt>
<trkpt lat="53.305483" lon="06.605231"><ele>-1.5</ele><time>2021-05-20T15:45:00Z</time><name>PT16430</name></trkpt>
<trkpt lat="53.305472" lon="06.605234"><ele>-1.4</ele><time>2021-05-20T15:45:01Z</time><name>PT16431</name></trkpt>
<trkpt lat="53.305459" lon="06.605235"><ele>-1.4</ele><time>2021-05-20T15:45:02Z</time><name>PT16432</name></trkpt>
<trkpt lat="53.305450" lon="06.605235"><ele>-1.3</ele><time>2021-05-20T15:45:03Z</time><name>PT16433</name></trkpt>
<trkpt lat="53.305442" lon="06.605238"><ele>-1.2</ele><time>2021-05-20T15:45:04Z</time><name>PT16434</name></trkpt>
<trkpt lat="53.305435" lon="06.605241"><ele>-1.3</ele><time>2021-05-20T15:45:05Z</time><name>PT16435</name></trkpt>
<trkpt lat="53.305427" lon="06.605246"><ele>-1.3</ele><time>2021-05-20T15:45:06Z</time><name>PT16436</name></trkpt>
<trkpt lat="53.305415" lon="06.605247"><ele>-1.4</ele><time>2021-05-20T15:45:07Z</time><name>PT16437</name></trkpt>
<trkpt lat="53.305399" lon="06.605242"><ele>-1.5</ele><time>2021-05-20T15:45:08Z</time><name>PT16438</name></trkpt>
<trkpt lat="53.305388" lon="06.605243"><ele>-1.5</ele><time>2021-05-20T15:45:09Z</time><name>PT16439</name></trkpt>
<trkpt lat="53.305376" lon="06.605245"><ele>-1.5</ele><time>2021-05-20T15:45:10Z</time><name>PT16440</name></trkpt>
<trkpt lat="53.305367" lon="06.605252"><ele>-1.7</ele><time>2021-05-20T15:45:11Z</time><name>PT16441</name></trkpt>
<trkpt lat="53.305358" lon="06.605255"><ele>-1.7</ele><time>2021-05-20T15:45:12Z</time><name>PT16442</name></trkpt>
<trkpt lat="53.305349" lon="06.605258"><ele>-1.5</ele><time>2021-05-20T15:45:13Z</time><name>PT16443</name></trkpt>
<trkpt lat="53.305340" lon="06.605261"><ele>-1.3</ele><time>2021-05-20T15:45:14Z</time><name>PT16444</name></trkpt>
<trkpt lat="53.305330" lon="06.605262"><ele>-1.3</ele><time>2021-05-20T15:45:15Z</time><name>PT16445</name></trkpt>
<trkpt lat="53.305322" lon="06.605267"><ele>-1.1</ele><time>2021-05-20T15:45:16Z</time><name>PT16446</name></trkpt>
<trkpt lat="53.305315" lon="06.605269"><ele>-1</ele><time>2021-05-20T15:45:17Z</time><name>PT16447</name></trkpt>
<trkpt lat="53.305307" lon="06.605267"><ele>-1.3</ele><time>2021-05-20T15:45:18Z</time><name>PT16448</name></trkpt>
<trkpt lat="53.305300" lon="06.605266"><ele>-1.2</ele><time>2021-05-20T15:45:19Z</time><name>PT16449</name></trkpt>
<trkpt lat="53.305289" lon="06.605270"><ele>-1.1</ele><time>2021-05-20T15:45:20Z</time><name>PT16450</name></trkpt>
<trkpt lat="53.305279" lon="06.605268"><ele>0.9</ele><time>2021-05-20T15:45:21Z</time><name>PT16451</name></trkpt>
<trkpt lat="53.305268" lon="06.605271"><ele>-1</ele><time>2021-05-20T15:45:22Z</time><name>PT16452</name></trkpt>
<trkpt lat="53.305257" lon="06.605270"><ele>-1</ele><time>2021-05-20T15:45:23Z</time><name>PT16453</name></trkpt>
<trkpt lat="53.305246" lon="06.605271"><ele>-1</ele><time>2021-05-20T15:45:24Z</time><name>PT16454</name></trkpt>
<trkpt lat="53.305238" lon="06.605272"><ele>-1</ele><time>2021-05-20T15:45:25Z</time><name>PT16455</name></trkpt>
<trkpt lat="53.305228" lon="06.605276"><ele>-1</ele><time>2021-05-20T15:45:26Z</time><name>PT16456</name></trkpt>
<trkpt lat="53.305220" lon="06.605282"><ele>-1</ele><time>2021-05-20T15:45:27Z</time><name>PT16457</name></trkpt>
<trkpt lat="53.305217" lon="06.605287"><ele>-1</ele><time>2021-05-20T15:45:28Z</time><name>PT16458</name></trkpt>
<trkpt lat="53.305214" lon="06.605286"><ele>-1</ele><time>2021-05-20T15:45:29Z</time><name>PT16459</name></trkpt>
<trkpt lat="53.305209" lon="06.605286"><ele>-1.1</ele><time>2021-05-20T15:45:30Z</time><name>PT16460</name></trkpt>
<trkpt lat="53.305202" lon="06.605290"><ele>-1.1</ele><time>2021-05-20T15:45:31Z</time><name>PT16461</name></trkpt>
<trkpt lat="53.305193" lon="06.605290"><ele>-1.2</ele><time>2021-05-20T15:45:32Z</time><name>PT16462</name></trkpt>
<trkpt lat="53.305186" lon="06.605287"><ele>-1.3</ele><time>2021-05-20T15:45:33Z</time><name>PT16463</name></trkpt>
<trkpt lat="53.305178" lon="06.605286"><ele>-1.4</ele><time>2021-05-20T15:45:34Z</time><name>PT16464</name></trkpt>
<trkpt lat="53.305169" lon="06.605283"><ele>-1.4</ele><time>2021-05-20T15:45:35Z</time><name>PT16465</name></trkpt>
<trkpt lat="53.305160" lon="06.605281"><ele>-1</ele><time>2021-05-20T15:45:36Z</time><name>PT16466</name></trkpt>
<trkpt lat="53.305152" lon="06.605280"><ele>-1</ele><time>2021-05-20T15:45:37Z</time><name>PT16467</name></trkpt>
<trkpt lat="53.305144" lon="06.605282"><ele>-1</ele><time>2021-05-20T15:45:38Z</time><name>PT16468</name></trkpt>
<trkpt lat="53.305138" lon="06.605280"><ele>-1</ele><time>2021-05-20T15:45:39Z</time><name>PT16469</name></trkpt>
<trkpt lat="53.305129" lon="06.605276"><ele>-1</ele><time>2021-05-20T15:45:40Z</time><name>PT16470</name></trkpt>
<trkpt lat="53.305121" lon="06.605276"><ele>-1</ele><time>2021-05-20T15:45:41Z</time><name>PT16471</name></trkpt>
<trkpt lat="53.305114" lon="06.605279"><ele>-1</ele><time>2021-05-20T15:45:42Z</time><name>PT16472</name></trkpt>
<trkpt lat="53.305108" lon="06.605280"><ele>0.9</ele><time>2021-05-20T15:45:43Z</time><name>PT16473</name></trkpt>
<trkpt lat="53.305104" lon="06.605282"><ele>0.9</ele><time>2021-05-20T15:45:44Z</time><name>PT16474</name></trkpt>
<trkpt lat="53.305100" lon="06.605283"><ele>-1.1</ele><time>2021-05-20T15:45:45Z</time><name>PT16475</name></trkpt>
<trkpt lat="53.305097" lon="06.605282"><ele>-1</ele><time>2021-05-20T15:45:46Z</time><name>PT16476</name></trkpt>
<trkpt lat="53.305092" lon="06.605289"><ele>-1.2</ele><time>2021-05-20T15:45:54Z</time><name>PT16477</name></trkpt>
<trkpt lat="53.305085" lon="06.605289"><ele>-1.2</ele><time>2021-05-20T15:45:55Z</time><name>PT16478</name></trkpt>
<trkpt lat="53.305078" lon="06.605287"><ele>-1.1</ele><time>2021-05-20T15:45:56Z</time><name>PT16479</name></trkpt>
<trkpt lat="53.305075" lon="06.605287"><ele>-1</ele><time>2021-05-20T15:45:57Z</time><name>PT16480</name></trkpt>
<trkpt lat="53.305071" lon="06.605287"><ele>-1</ele><time>2021-05-20T15:45:58Z</time><name>PT16481</name></trkpt>
<trkpt lat="53.305071" lon="06.605287"><ele>0.7</ele><time>2021-05-20T15:45:59Z</time><name>PT16482</name></trkpt>
<trkpt lat="53.305068" lon="06.605288"><ele>-1.3</ele><time>2021-05-20T15:46:05Z</time><name>PT16483</name></trkpt>
<trkpt lat="53.305067" lon="06.605289"><ele>-1.3</ele><time>2021-05-20T15:46:06Z</time><name>PT16484</name></trkpt>
<trkpt lat="53.305062" lon="06.605282"><ele>0.8</ele><time>2021-05-20T15:46:27Z</time><name>PT16485</name></trkpt>
<trkpt lat="53.305055" lon="06.605283"><ele>0.6</ele><time>2021-05-20T15:46:28Z</time><name>PT16486</name></trkpt>
<trkpt lat="53.305049" lon="06.605288"><ele>0.7</ele><time>2021-05-20T15:46:29Z</time><name>PT16487</name></trkpt>
<trkpt lat="53.305042" lon="06.605288"><ele>0.7</ele><time>2021-05-20T15:46:30Z</time><name>PT16488</name></trkpt>
<trkpt lat="53.305036" lon="06.605286"><ele>0.7</ele><time>2021-05-20T15:46:31Z</time><name>PT16489</name></trkpt>
<trkpt lat="53.305028" lon="06.605288"><ele>0.5</ele><time>2021-05-20T15:46:32Z</time><name>PT16490</name></trkpt>
<trkpt lat="53.305019" lon="06.605289"><ele>0.5</ele><time>2021-05-20T15:46:33Z</time><name>PT16491</name></trkpt>
<trkpt lat="53.305011" lon="06.605289"><ele>0.8</ele><time>2021-05-20T15:46:34Z</time><name>PT16492</name></trkpt>
<trkpt lat="53.305005" lon="06.605290"><ele>0.8</ele><time>2021-05-20T15:46:35Z</time><name>PT16493</name></trkpt>
<trkpt lat="53.304997" lon="06.605291"><ele>-1</ele><time>2021-05-20T15:46:36Z</time><name>PT16494</name></trkpt>
<trkpt lat="53.304987" lon="06.605292"><ele>0.9</ele><time>2021-05-20T15:46:37Z</time><name>PT16495</name></trkpt>
<trkpt lat="53.304980" lon="06.605291"><ele>0.9</ele><time>2021-05-20T15:46:38Z</time><name>PT16496</name></trkpt>
<trkpt lat="53.304975" lon="06.605284"><ele>0.7</ele><time>2021-05-20T15:46:39Z</time><name>PT16497</name></trkpt>
<trkpt lat="53.304972" lon="06.605274"><ele>0.7</ele><time>2021-05-20T15:46:40Z</time><name>PT16498</name></trkpt>
<trkpt lat="53.304969" lon="06.605257"><ele>0.6</ele><time>2021-05-20T15:46:41Z</time><name>PT16499</name></trkpt>
<trkpt lat="53.304969" lon="06.605240"><ele>0.7</ele><time>2021-05-20T15:46:42Z</time><name>PT16500</name></trkpt>
<trkpt lat="53.304967" lon="06.605223"><ele>0.7</ele><time>2021-05-20T15:46:43Z</time><name>PT16501</name></trkpt>
<trkpt lat="53.304965" lon="06.605208"><ele>0.7</ele><time>2021-05-20T15:46:44Z</time><name>PT16502</name></trkpt>
<trkpt lat="53.304962" lon="06.605195"><ele>0.6</ele><time>2021-05-20T15:46:45Z</time><name>PT16503</name></trkpt>
<trkpt lat="53.304958" lon="06.605180"><ele>0.4</ele><time>2021-05-20T15:46:46Z</time><name>PT16504</name></trkpt>
<trkpt lat="53.304955" lon="06.605162"><ele>0.2</ele><time>2021-05-20T15:46:47Z</time><name>PT16505</name></trkpt>
<trkpt lat="53.304951" lon="06.605144"><ele>0.2</ele><time>2021-05-20T15:46:48Z</time><name>PT16506</name></trkpt>
<trkpt lat="53.304948" lon="06.605124"><ele>0.1</ele><time>2021-05-20T15:46:49Z</time><name>PT16507</name></trkpt>
<trkpt lat="53.304945" lon="06.605105"><ele>0.1</ele><time>2021-05-20T15:46:50Z</time><name>PT16508</name></trkpt>
<trkpt lat="53.304944" lon="06.605089"><ele>0.4</ele><time>2021-05-20T15:46:51Z</time><name>PT16509</name></trkpt>
<trkpt lat="53.304942" lon="06.605072"><ele>0.3</ele><time>2021-05-20T15:46:52Z</time><name>PT16510</name></trkpt>
<trkpt lat="53.304941" lon="06.605058"><ele>0.5</ele><time>2021-05-20T15:46:53Z</time><name>PT16511</name></trkpt>
<trkpt lat="53.304941" lon="06.605043"><ele>0.5</ele><time>2021-05-20T15:46:54Z</time><name>PT16512</name></trkpt>
<trkpt lat="53.304939" lon="06.605027"><ele>0.7</ele><time>2021-05-20T15:46:55Z</time><name>PT16513</name></trkpt>
<trkpt lat="53.304936" lon="06.605010"><ele>0.7</ele><time>2021-05-20T15:46:56Z</time><name>PT16514</name></trkpt>
<trkpt lat="53.304932" lon="06.604990"><ele>0.6</ele><time>2021-05-20T15:46:57Z</time><name>PT16515</name></trkpt>
<trkpt lat="53.304930" lon="06.604975"><ele>0.6</ele><time>2021-05-20T15:46:58Z</time><name>PT16516</name></trkpt>
<trkpt lat="53.304926" lon="06.604960"><ele>0.7</ele><time>2021-05-20T15:46:59Z</time><name>PT16517</name></trkpt>
<trkpt lat="53.304923" lon="06.604946"><ele>0.6</ele><time>2021-05-20T15:47:00Z</time><name>PT16518</name></trkpt>
<trkpt lat="53.304921" lon="06.604931"><ele>0.5</ele><time>2021-05-20T15:47:01Z</time><name>PT16519</name></trkpt>
<trkpt lat="53.304920" lon="06.604916"><ele>0.6</ele><time>2021-05-20T15:47:02Z</time><name>PT16520</name></trkpt>
<trkpt lat="53.304920" lon="06.604899"><ele>0.5</ele><time>2021-05-20T15:47:03Z</time><name>PT16521</name></trkpt>
<trkpt lat="53.304919" lon="06.604880"><ele>0.5</ele><time>2021-05-20T15:47:04Z</time><name>PT16522</name></trkpt>
<trkpt lat="53.304918" lon="06.604860"><ele>0.7</ele><time>2021-05-20T15:47:05Z</time><name>PT16523</name></trkpt>
<trkpt lat="53.304915" lon="06.604843"><ele>0.8</ele><time>2021-05-20T15:47:06Z</time><name>PT16524</name></trkpt>
<trkpt lat="53.304912" lon="06.604827"><ele>-1</ele><time>2021-05-20T15:47:07Z</time><name>PT16525</name></trkpt>
<trkpt lat="53.304910" lon="06.604812"><ele>-1.1</ele><time>2021-05-20T15:47:08Z</time><name>PT16526</name></trkpt>
<trkpt lat="53.304908" lon="06.604796"><ele>-1.3</ele><time>2021-05-20T15:47:09Z</time><name>PT16527</name></trkpt>
<trkpt lat="53.304906" lon="06.604778"><ele>-1.1</ele><time>2021-05-20T15:47:10Z</time><name>PT16528</name></trkpt>
<trkpt lat="53.304905" lon="06.604762"><ele>-1.1</ele><time>2021-05-20T15:47:11Z</time><name>PT16529</name></trkpt>
<trkpt lat="53.304903" lon="06.604746"><ele>0.9</ele><time>2021-05-20T15:47:12Z</time><name>PT16530</name></trkpt>
<trkpt lat="53.304902" lon="06.604730"><ele>-1</ele><time>2021-05-20T15:47:13Z</time><name>PT16531</name></trkpt>
<trkpt lat="53.304899" lon="06.604715"><ele>-1</ele><time>2021-05-20T15:47:14Z</time><name>PT16532</name></trkpt>
<trkpt lat="53.304897" lon="06.604699"><ele>0.8</ele><time>2021-05-20T15:47:15Z</time><name>PT16533</name></trkpt>
<trkpt lat="53.304894" lon="06.604684"><ele>0.9</ele><time>2021-05-20T15:47:16Z</time><name>PT16534</name></trkpt>
<trkpt lat="53.304893" lon="06.604668"><ele>-1</ele><time>2021-05-20T15:47:17Z</time><name>PT16535</name></trkpt>
<trkpt lat="53.304891" lon="06.604652"><ele>0.9</ele><time>2021-05-20T15:47:18Z</time><name>PT16536</name></trkpt>
<trkpt lat="53.304890" lon="06.604636"><ele>-1</ele><time>2021-05-20T15:47:19Z</time><name>PT16537</name></trkpt>
<trkpt lat="53.304889" lon="06.604620"><ele>-1</ele><time>2021-05-20T15:47:20Z</time><name>PT16538</name></trkpt>
<trkpt lat="53.304887" lon="06.604604"><ele>0.8</ele><time>2021-05-20T15:47:21Z</time><name>PT16539</name></trkpt>
<trkpt lat="53.304883" lon="06.604587"><ele>-1</ele><time>2021-05-20T15:47:22Z</time><name>PT16540</name></trkpt>
<trkpt lat="53.304880" lon="06.604572"><ele>0.9</ele><time>2021-05-20T15:47:23Z</time><name>PT16541</name></trkpt>
<trkpt lat="53.304879" lon="06.604557"><ele>-1</ele><time>2021-05-20T15:47:24Z</time><name>PT16542</name></trkpt>
<trkpt lat="53.304878" lon="06.604540"><ele>-1</ele><time>2021-05-20T15:47:25Z</time><name>PT16543</name></trkpt>
<trkpt lat="53.304877" lon="06.604523"><ele>0.9</ele><time>2021-05-20T15:47:26Z</time><name>PT16544</name></trkpt>
<trkpt lat="53.304874" lon="06.604506"><ele>-1</ele><time>2021-05-20T15:47:27Z</time><name>PT16545</name></trkpt>
<trkpt lat="53.304872" lon="06.604490"><ele>-1</ele><time>2021-05-20T15:47:28Z</time><name>PT16546</name></trkpt>
<trkpt lat="53.304871" lon="06.604473"><ele>-1</ele><time>2021-05-20T15:47:29Z</time><name>PT16547</name></trkpt>
<trkpt lat="53.304869" lon="06.604456"><ele>-1.1</ele><time>2021-05-20T15:47:30Z</time><name>PT16548</name></trkpt>
<trkpt lat="53.304866" lon="06.604437"><ele>-1.1</ele><time>2021-05-20T15:47:31Z</time><name>PT16549</name></trkpt>
<trkpt lat="53.304864" lon="06.604418"><ele>-1</ele><time>2021-05-20T15:47:32Z</time><name>PT16550</name></trkpt>
<trkpt lat="53.304863" lon="06.604403"><ele>-1.1</ele><time>2021-05-20T15:47:33Z</time><name>PT16551</name></trkpt>
<trkpt lat="53.304861" lon="06.604385"><ele>-1.1</ele><time>2021-05-20T15:47:34Z</time><name>PT16552</name></trkpt>
<trkpt lat="53.304858" lon="06.604365"><ele>-1</ele><time>2021-05-20T15:47:35Z</time><name>PT16553</name></trkpt>
<trkpt lat="53.304855" lon="06.604346"><ele>-1</ele><time>2021-05-20T15:47:36Z</time><name>PT16554</name></trkpt>
<trkpt lat="53.304853" lon="06.604329"><ele>-1</ele><time>2021-05-20T15:47:37Z</time><name>PT16555</name></trkpt>
<trkpt lat="53.304850" lon="06.604311"><ele>-1</ele><time>2021-05-20T15:47:38Z</time><name>PT16556</name></trkpt>
<trkpt lat="53.304847" lon="06.604294"><ele>-1.2</ele><time>2021-05-20T15:47:39Z</time><name>PT16557</name></trkpt>
<trkpt lat="53.304844" lon="06.604275"><ele>-1.3</ele><time>2021-05-20T15:47:40Z</time><name>PT16558</name></trkpt>
<trkpt lat="53.304841" lon="06.604257"><ele>-1.3</ele><time>2021-05-20T15:47:41Z</time><name>PT16559</name></trkpt>
<trkpt lat="53.304838" lon="06.604242"><ele>-1.4</ele><time>2021-05-20T15:47:42Z</time><name>PT16560</name></trkpt>
<trkpt lat="53.304835" lon="06.604227"><ele>-1.3</ele><time>2021-05-20T15:47:43Z</time><name>PT16561</name></trkpt>
<trkpt lat="53.304832" lon="06.604213"><ele>-1</ele><time>2021-05-20T15:47:44Z</time><name>PT16562</name></trkpt>
<trkpt lat="53.304829" lon="06.604198"><ele>0.9</ele><time>2021-05-20T15:47:45Z</time><name>PT16563</name></trkpt>
<trkpt lat="53.304828" lon="06.604183"><ele>0.7</ele><time>2021-05-20T15:47:46Z</time><name>PT16564</name></trkpt>
<trkpt lat="53.304827" lon="06.604168"><ele>0.7</ele><time>2021-05-20T15:47:47Z</time><name>PT16565</name></trkpt>
<trkpt lat="53.304825" lon="06.604154"><ele>0.9</ele><time>2021-05-20T15:47:48Z</time><name>PT16566</name></trkpt>
<trkpt lat="53.304823" lon="06.604139"><ele>-1</ele><time>2021-05-20T15:47:49Z</time><name>PT16567</name></trkpt>
<trkpt lat="53.304819" lon="06.604122"><ele>-1.1</ele><time>2021-05-20T15:47:50Z</time><name>PT16568</name></trkpt>
<trkpt lat="53.304816" lon="06.604106"><ele>-1.3</ele><time>2021-05-20T15:47:51Z</time><name>PT16569</name></trkpt>
<trkpt lat="53.304813" lon="06.604084"><ele>-1.1</ele><time>2021-05-20T15:47:52Z</time><name>PT16570</name></trkpt>
<trkpt lat="53.304812" lon="06.604063"><ele>-1.1</ele><time>2021-05-20T15:47:53Z</time><name>PT16571</name></trkpt>
<trkpt lat="53.304808" lon="06.604045"><ele>-1</ele><time>2021-05-20T15:47:54Z</time><name>PT16572</name></trkpt>
<trkpt lat="53.304808" lon="06.604029"><ele>-1.1</ele><time>2021-05-20T15:47:55Z</time><name>PT16573</name></trkpt>
<trkpt lat="53.304809" lon="06.604017"><ele>-1.1</ele><time>2021-05-20T15:47:56Z</time><name>PT16574</name></trkpt>
<trkpt lat="53.304809" lon="06.604002"><ele>-1</ele><time>2021-05-20T15:47:57Z</time><name>PT16575</name></trkpt>
<trkpt lat="53.304808" lon="06.603980"><ele>-1.1</ele><time>2021-05-20T15:47:58Z</time><name>PT16576</name></trkpt>
<trkpt lat="53.304804" lon="06.603958"><ele>-1</ele><time>2021-05-20T15:47:59Z</time><name>PT16577</name></trkpt>
<trkpt lat="53.304800" lon="06.603942"><ele>-1.1</ele><time>2021-05-20T15:48:00Z</time><name>PT16578</name></trkpt>
<trkpt lat="53.304800" lon="06.603928"><ele>-1.2</ele><time>2021-05-20T15:48:01Z</time><name>PT16579</name></trkpt>
<trkpt lat="53.304798" lon="06.603920"><ele>-1.2</ele><time>2021-05-20T15:48:02Z</time><name>PT16580</name></trkpt>
<trkpt lat="53.304796" lon="06.603908"><ele>-1.1</ele><time>2021-05-20T15:48:03Z</time><name>PT16581</name></trkpt>
<trkpt lat="53.304795" lon="06.603887"><ele>-1.1</ele><time>2021-05-20T15:48:04Z</time><name>PT16582</name></trkpt>
<trkpt lat="53.304793" lon="06.603865"><ele>-1</ele><time>2021-05-20T15:48:05Z</time><name>PT16583</name></trkpt>
<trkpt lat="53.304790" lon="06.603847"><ele>-1</ele><time>2021-05-20T15:48:06Z</time><name>PT16584</name></trkpt>
<trkpt lat="53.304788" lon="06.603833"><ele>-1</ele><time>2021-05-20T15:48:07Z</time><name>PT16585</name></trkpt>
<trkpt lat="53.304785" lon="06.603822"><ele>-1</ele><time>2021-05-20T15:48:08Z</time><name>PT16586</name></trkpt>
<trkpt lat="53.304785" lon="06.603805"><ele>-1</ele><time>2021-05-20T15:48:09Z</time><name>PT16587</name></trkpt>
<trkpt lat="53.304783" lon="06.603792"><ele>-1</ele><time>2021-05-20T15:48:10Z</time><name>PT16588</name></trkpt>
<trkpt lat="53.304777" lon="06.603779"><ele>-1</ele><time>2021-05-20T15:48:11Z</time><name>PT16589</name></trkpt>
<trkpt lat="53.304770" lon="06.603765"><ele>0.9</ele><time>2021-05-20T15:48:12Z</time><name>PT16590</name></trkpt>
<trkpt lat="53.304768" lon="06.603756"><ele>-1</ele><time>2021-05-20T15:48:13Z</time><name>PT16591</name></trkpt>
<trkpt lat="53.304767" lon="06.603744"><ele>0.9</ele><time>2021-05-20T15:48:14Z</time><name>PT16592</name></trkpt>
<trkpt lat="53.304765" lon="06.603731"><ele>-1</ele><time>2021-05-20T15:48:15Z</time><name>PT16593</name></trkpt>
<trkpt lat="53.304763" lon="06.603717"><ele>-1</ele><time>2021-05-20T15:48:16Z</time><name>PT16594</name></trkpt>
<trkpt lat="53.304759" lon="06.603700"><ele>-1.1</ele><time>2021-05-20T15:48:17Z</time><name>PT16595</name></trkpt>
<trkpt lat="53.304756" lon="06.603681"><ele>-1.1</ele><time>2021-05-20T15:48:18Z</time><name>PT16596</name></trkpt>
<trkpt lat="53.304754" lon="06.603660"><ele>-1.1</ele><time>2021-05-20T15:48:19Z</time><name>PT16597</name></trkpt>
<trkpt lat="53.304752" lon="06.603643"><ele>-1.3</ele><time>2021-05-20T15:48:20Z</time><name>PT16598</name></trkpt>
<trkpt lat="53.304752" lon="06.603627"><ele>-1.2</ele><time>2021-05-20T15:48:21Z</time><name>PT16599</name></trkpt>
<trkpt lat="53.304751" lon="06.603612"><ele>-1.3</ele><time>2021-05-20T15:48:22Z</time><name>PT16600</name></trkpt>
<trkpt lat="53.304749" lon="06.603601"><ele>-1.3</ele><time>2021-05-20T15:48:23Z</time><name>PT16601</name></trkpt>
<trkpt lat="53.304745" lon="06.603584"><ele>-1.2</ele><time>2021-05-20T15:48:24Z</time><name>PT16602</name></trkpt>
<trkpt lat="53.304744" lon="06.603565"><ele>-1.1</ele><time>2021-05-20T15:48:25Z</time><name>PT16603</name></trkpt>
<trkpt lat="53.304744" lon="06.603550"><ele>-1.1</ele><time>2021-05-20T15:48:26Z</time><name>PT16604</name></trkpt>
<trkpt lat="53.304742" lon="06.603536"><ele>-1</ele><time>2021-05-20T15:48:27Z</time><name>PT16605</name></trkpt>
<trkpt lat="53.304740" lon="06.603522"><ele>0.9</ele><time>2021-05-20T15:48:28Z</time><name>PT16606</name></trkpt>
<trkpt lat="53.304738" lon="06.603505"><ele>0.8</ele><time>2021-05-20T15:48:29Z</time><name>PT16607</name></trkpt>
<trkpt lat="53.304737" lon="06.603486"><ele>0.7</ele><time>2021-05-20T15:48:30Z</time><name>PT16608</name></trkpt>
<trkpt lat="53.304737" lon="06.603467"><ele>0.8</ele><time>2021-05-20T15:48:31Z</time><name>PT16609</name></trkpt>
<trkpt lat="53.304735" lon="06.603452"><ele>-1</ele><time>2021-05-20T15:48:32Z</time><name>PT16610</name></trkpt>
<trkpt lat="53.304733" lon="06.603441"><ele>-1</ele><time>2021-05-20T15:48:33Z</time><name>PT16611</name></trkpt>
<trkpt lat="53.304734" lon="06.603431"><ele>-1.5</ele><time>2021-05-20T15:48:34Z</time><name>PT16612</name></trkpt>
<trkpt lat="53.304734" lon="06.603412"><ele>-1.5</ele><time>2021-05-20T15:48:35Z</time><name>PT16613</name></trkpt>
<trkpt lat="53.304733" lon="06.603393"><ele>-1.6</ele><time>2021-05-20T15:48:36Z</time><name>PT16614</name></trkpt>
<trkpt lat="53.304731" lon="06.603377"><ele>-1.6</ele><time>2021-05-20T15:48:37Z</time><name>PT16615</name></trkpt>
<trkpt lat="53.304729" lon="06.603364"><ele>-1.5</ele><time>2021-05-20T15:48:38Z</time><name>PT16616</name></trkpt>
<trkpt lat="53.304727" lon="06.603352"><ele>-1.7</ele><time>2021-05-20T15:48:39Z</time><name>PT16617</name></trkpt>
<trkpt lat="53.304727" lon="06.603337"><ele>-1.5</ele><time>2021-05-20T15:48:40Z</time><name>PT16618</name></trkpt>
<trkpt lat="53.304727" lon="06.603320"><ele>-1.5</ele><time>2021-05-20T15:48:41Z</time><name>PT16619</name></trkpt>
<trkpt lat="53.304725" lon="06.603301"><ele>-1.3</ele><time>2021-05-20T15:48:42Z</time><name>PT16620</name></trkpt>
<trkpt lat="53.304722" lon="06.603284"><ele>-1.4</ele><time>2021-05-20T15:48:43Z</time><name>PT16621</name></trkpt>
<trkpt lat="53.304718" lon="06.603272"><ele>-1.5</ele><time>2021-05-20T15:48:44Z</time><name>PT16622</name></trkpt>
<trkpt lat="53.304716" lon="06.603260"><ele>-1.3</ele><time>2021-05-20T15:48:45Z</time><name>PT16623</name></trkpt>
<trkpt lat="53.304712" lon="06.603243"><ele>-1.4</ele><time>2021-05-20T15:48:46Z</time><name>PT16624</name></trkpt>
<trkpt lat="53.304710" lon="06.603222"><ele>-1.5</ele><time>2021-05-20T15:48:47Z</time><name>PT16625</name></trkpt>
<trkpt lat="53.304707" lon="06.603207"><ele>-1.4</ele><time>2021-05-20T15:48:48Z</time><name>PT16626</name></trkpt>
<trkpt lat="53.304705" lon="06.603195"><ele>-1.5</ele><time>2021-05-20T15:48:49Z</time><name>PT16627</name></trkpt>
<trkpt lat="53.304705" lon="06.603182"><ele>-1.5</ele><time>2021-05-20T15:48:50Z</time><name>PT16628</name></trkpt>
<trkpt lat="53.304701" lon="06.603169"><ele>-1.5</ele><time>2021-05-20T15:48:51Z</time><name>PT16629</name></trkpt>
<trkpt lat="53.304698" lon="06.603154"><ele>-1.4</ele><time>2021-05-20T15:48:52Z</time><name>PT16630</name></trkpt>
<trkpt lat="53.304696" lon="06.603141"><ele>-1.2</ele><time>2021-05-20T15:48:53Z</time><name>PT16631</name></trkpt>
<trkpt lat="53.304697" lon="06.603124"><ele>-1.1</ele><time>2021-05-20T15:48:54Z</time><name>PT16632</name></trkpt>
<trkpt lat="53.304699" lon="06.603103"><ele>-1</ele><time>2021-05-20T15:48:55Z</time><name>PT16633</name></trkpt>
<trkpt lat="53.304698" lon="06.603086"><ele>-1</ele><time>2021-05-20T15:48:56Z</time><name>PT16634</name></trkpt>
<trkpt lat="53.304689" lon="06.603069"><ele>-1.2</ele><time>2021-05-20T15:48:57Z</time><name>PT16635</name></trkpt>
<trkpt lat="53.304684" lon="06.603051"><ele>-1.1</ele><time>2021-05-20T15:48:58Z</time><name>PT16636</name></trkpt>
<trkpt lat="53.304681" lon="06.603032"><ele>-1.1</ele><time>2021-05-20T15:48:59Z</time><name>PT16637</name></trkpt>
<trkpt lat="53.304679" lon="06.603017"><ele>-1.2</ele><time>2021-05-20T15:49:00Z</time><name>PT16638</name></trkpt>
<trkpt lat="53.304674" lon="06.603000"><ele>-1.1</ele><time>2021-05-20T15:49:01Z</time><name>PT16639</name></trkpt>
<trkpt lat="53.304674" lon="06.602984"><ele>-1</ele><time>2021-05-20T15:49:02Z</time><name>PT16640</name></trkpt>
<trkpt lat="53.304674" lon="06.602968"><ele>-1</ele><time>2021-05-20T15:49:03Z</time><name>PT16641</name></trkpt>
<trkpt lat="53.304675" lon="06.602952"><ele>0.8</ele><time>2021-05-20T15:49:04Z</time><name>PT16642</name></trkpt>
<trkpt lat="53.304675" lon="06.602940"><ele>0.7</ele><time>2021-05-20T15:49:05Z</time><name>PT16643</name></trkpt>
<trkpt lat="53.304678" lon="06.602919"><ele>0.7</ele><time>2021-05-20T15:49:06Z</time><name>PT16644</name></trkpt>
<trkpt lat="53.304682" lon="06.602896"><ele>0.6</ele><time>2021-05-20T15:49:07Z</time><name>PT16645</name></trkpt>
<trkpt lat="53.304685" lon="06.602876"><ele>0.6</ele><time>2021-05-20T15:49:08Z</time><name>PT16646</name></trkpt>
<trkpt lat="53.304687" lon="06.602861"><ele>0.8</ele><time>2021-05-20T15:49:09Z</time><name>PT16647</name></trkpt>
<trkpt lat="53.304686" lon="06.602848"><ele>0.7</ele><time>2021-05-20T15:49:10Z</time><name>PT16648</name></trkpt>
<trkpt lat="53.304685" lon="06.602836"><ele>0.8</ele><time>2021-05-20T15:49:11Z</time><name>PT16649</name></trkpt>
<trkpt lat="53.304683" lon="06.602819"><ele>-1</ele><time>2021-05-20T15:49:12Z</time><name>PT16650</name></trkpt>
<trkpt lat="53.304684" lon="06.602797"><ele>0.8</ele><time>2021-05-20T15:49:13Z</time><name>PT16651</name></trkpt>
<trkpt lat="53.304688" lon="06.602781"><ele>0.8</ele><time>2021-05-20T15:49:14Z</time><name>PT16652</name></trkpt>
<trkpt lat="53.304692" lon="06.602766"><ele>0.8</ele><time>2021-05-20T15:49:15Z</time><name>PT16653</name></trkpt>
<trkpt lat="53.304697" lon="06.602752"><ele>0.7</ele><time>2021-05-20T15:49:16Z</time><name>PT16654</name></trkpt>
<trkpt lat="53.304701" lon="06.602737"><ele>0.9</ele><time>2021-05-20T15:49:17Z</time><name>PT16655</name></trkpt>
<trkpt lat="53.304704" lon="06.602722"><ele>-1</ele><time>2021-05-20T15:49:18Z</time><name>PT16656</name></trkpt>
<trkpt lat="53.304705" lon="06.602704"><ele>0.9</ele><time>2021-05-20T15:49:19Z</time><name>PT16657</name></trkpt>
<trkpt lat="53.304708" lon="06.602688"><ele>0.9</ele><time>2021-05-20T15:49:20Z</time><name>PT16658</name></trkpt>
<trkpt lat="53.304711" lon="06.602675"><ele>0.5</ele><time>2021-05-20T15:49:21Z</time><name>PT16659</name></trkpt>
<trkpt lat="53.304712" lon="06.602659"><ele>0.5</ele><time>2021-05-20T15:49:22Z</time><name>PT16660</name></trkpt>
<trkpt lat="53.304714" lon="06.602645"><ele>0.3</ele><time>2021-05-20T15:49:23Z</time><name>PT16661</name></trkpt>
<trkpt lat="53.304716" lon="06.602630"><ele>0.3</ele><time>2021-05-20T15:49:24Z</time><name>PT16662</name></trkpt>
<trkpt lat="53.304719" lon="06.602614"><ele>0.5</ele><time>2021-05-20T15:49:25Z</time><name>PT16663</name></trkpt>
<trkpt lat="53.304721" lon="06.602597"><ele>0.5</ele><time>2021-05-20T15:49:26Z</time><name>PT16664</name></trkpt>
<trkpt lat="53.304726" lon="06.602582"><ele>0.4</ele><time>2021-05-20T15:49:27Z</time><name>PT16665</name></trkpt>
<trkpt lat="53.304730" lon="06.602568"><ele>0.4</ele><time>2021-05-20T15:49:28Z</time><name>PT16666</name></trkpt>
<trkpt lat="53.304731" lon="06.602553"><ele>0.4</ele><time>2021-05-20T15:49:29Z</time><name>PT16667</name></trkpt>
<trkpt lat="53.304737" lon="06.602539"><ele>0.2</ele><time>2021-05-20T15:49:30Z</time><name>PT16668</name></trkpt>
<trkpt lat="53.304739" lon="06.602526"><ele>0.2</ele><time>2021-05-20T15:49:31Z</time><name>PT16669</name></trkpt>
<trkpt lat="53.304740" lon="06.602516"><ele>0.1</ele><time>2021-05-20T15:49:32Z</time><name>PT16670</name></trkpt>
<trkpt lat="53.304742" lon="06.602512"><ele>0.1</ele><time>2021-05-20T15:49:33Z</time><name>PT16671</name></trkpt>
<trkpt lat="53.304744" lon="06.602511"><ele>0</ele><time>2021-05-20T15:49:34Z</time><name>PT16672</name></trkpt>
<trkpt lat="53.304745" lon="06.602505"><ele>0</ele><time>2021-05-20T15:49:35Z</time><name>PT16673</name></trkpt>
<trkpt lat="53.304747" lon="06.602492"><ele>0</ele><time>2021-05-20T15:49:36Z</time><name>PT16674</name></trkpt>
<trkpt lat="53.304749" lon="06.602478"><ele>0</ele><time>2021-05-20T15:49:37Z</time><name>PT16675</name></trkpt>
<trkpt lat="53.304752" lon="06.602463"><ele>0</ele><time>2021-05-20T15:49:38Z</time><name>PT16676</name></trkpt>
<trkpt lat="53.304755" lon="06.602449"><ele>0</ele><time>2021-05-20T15:49:39Z</time><name>PT16677</name></trkpt>
<trkpt lat="53.304758" lon="06.602435"><ele>0</ele><time>2021-05-20T15:49:40Z</time><name>PT16678</name></trkpt>
<trkpt lat="53.304762" lon="06.602423"><ele>0</ele><time>2021-05-20T15:49:41Z</time><name>PT16679</name></trkpt>
<trkpt lat="53.304765" lon="06.602410"><ele>0.1</ele><time>2021-05-20T15:49:42Z</time><name>PT16680</name></trkpt>
<trkpt lat="53.304770" lon="06.602397"><ele>0.1</ele><time>2021-05-20T15:49:43Z</time><name>PT16681</name></trkpt>
<trkpt lat="53.304777" lon="06.602387"><ele>0.1</ele><time>2021-05-20T15:49:44Z</time><name>PT16682</name></trkpt>
<trkpt lat="53.304785" lon="06.602379"><ele>0.2</ele><time>2021-05-20T15:49:45Z</time><name>PT16683</name></trkpt>
<trkpt lat="53.304793" lon="06.602371"><ele>0.1</ele><time>2021-05-20T15:49:46Z</time><name>PT16684</name></trkpt>
<trkpt lat="53.304799" lon="06.602363"><ele>0</ele><time>2021-05-20T15:49:47Z</time><name>PT16685</name></trkpt>
<trkpt lat="53.304805" lon="06.602354"><ele>0</ele><time>2021-05-20T15:49:48Z</time><name>PT16686</name></trkpt>
<trkpt lat="53.304811" lon="06.602345"><ele>0.1</ele><time>2021-05-20T15:49:49Z</time><name>PT16687</name></trkpt>
<trkpt lat="53.304817" lon="06.602335"><ele>0.2</ele><time>2021-05-20T15:49:50Z</time><name>PT16688</name></trkpt>
<trkpt lat="53.304821" lon="06.602323"><ele>0.2</ele><time>2021-05-20T15:49:51Z</time><name>PT16689</name></trkpt>
<trkpt lat="53.304822" lon="06.602310"><ele>0</ele><time>2021-05-20T15:49:52Z</time><name>PT16690</name></trkpt>
<trkpt lat="53.304822" lon="06.602298"><ele>0.1</ele><time>2021-05-20T15:49:53Z</time><name>PT16691</name></trkpt>
<trkpt lat="53.304822" lon="06.602287"><ele>0</ele><time>2021-05-20T15:49:54Z</time><name>PT16692</name></trkpt>
<trkpt lat="53.304822" lon="06.602281"><ele>0</ele><time>2021-05-20T15:49:55Z</time><name>PT16693</name></trkpt>
<trkpt lat="53.304820" lon="06.602279"><ele>0.1</ele><time>2021-05-20T15:49:56Z</time><name>PT16694</name></trkpt>
<trkpt lat="53.304819" lon="06.602278"><ele>0</ele><time>2021-05-20T15:49:57Z</time><name>PT16695</name></trkpt>
<trkpt lat="53.304817" lon="06.602279"><ele>0.1</ele><time>2021-05-20T15:49:58Z</time><name>PT16696</name></trkpt>
<trkpt lat="53.304821" lon="06.602270"><ele>0.4</ele><time>2021-05-20T15:50:08Z</time><name>PT16697</name></trkpt>
<trkpt lat="53.304823" lon="06.602256"><ele>0.5</ele><time>2021-05-20T15:50:09Z</time><name>PT16698</name></trkpt>
<trkpt lat="53.304822" lon="06.602239"><ele>0.5</ele><time>2021-05-20T15:50:10Z</time><name>PT16699</name></trkpt>
<trkpt lat="53.304823" lon="06.602225"><ele>0.5</ele><time>2021-05-20T15:50:11Z</time><name>PT16700</name></trkpt>
<trkpt lat="53.304823" lon="06.602212"><ele>0.5</ele><time>2021-05-20T15:50:12Z</time><name>PT16701</name></trkpt>
<trkpt lat="53.304825" lon="06.602198"><ele>0.3</ele><time>2021-05-20T15:50:13Z</time><name>PT16702</name></trkpt>
<trkpt lat="53.304822" lon="06.602183"><ele>0.1</ele><time>2021-05-20T15:50:14Z</time><name>PT16703</name></trkpt>
<trkpt lat="53.304821" lon="06.602170"><ele>0.1</ele><time>2021-05-20T15:50:15Z</time><name>PT16704</name></trkpt>
<trkpt lat="53.304818" lon="06.602157"><ele>0.1</ele><time>2021-05-20T15:50:16Z</time><name>PT16705</name></trkpt>
<trkpt lat="53.304817" lon="06.602143"><ele>0.2</ele><time>2021-05-20T15:50:17Z</time><name>PT16706</name></trkpt>
<trkpt lat="53.304815" lon="06.602127"><ele>0.3</ele><time>2021-05-20T15:50:18Z</time><name>PT16707</name></trkpt>
<trkpt lat="53.304813" lon="06.602109"><ele>0.3</ele><time>2021-05-20T15:50:19Z</time><name>PT16708</name></trkpt>
<trkpt lat="53.304813" lon="06.602096"><ele>0.3</ele><time>2021-05-20T15:50:20Z</time><name>PT16709</name></trkpt>
<trkpt lat="53.304812" lon="06.602084"><ele>0.3</ele><time>2021-05-20T15:50:21Z</time><name>PT16710</name></trkpt>
<trkpt lat="53.304809" lon="06.602074"><ele>0.2</ele><time>2021-05-20T15:50:22Z</time><name>PT16711</name></trkpt>
<trkpt lat="53.304806" lon="06.602063"><ele>0.2</ele><time>2021-05-20T15:50:23Z</time><name>PT16712</name></trkpt>
<trkpt lat="53.304804" lon="06.602045"><ele>0.3</ele><time>2021-05-20T15:50:24Z</time><name>PT16713</name></trkpt>
<trkpt lat="53.304803" lon="06.602027"><ele>0.3</ele><time>2021-05-20T15:50:25Z</time><name>PT16714</name></trkpt>
<trkpt lat="53.304799" lon="06.602008"><ele>0.8</ele><time>2021-05-20T15:50:26Z</time><name>PT16715</name></trkpt>
<trkpt lat="53.304796" lon="06.601990"><ele>0.8</ele><time>2021-05-20T15:50:27Z</time><name>PT16716</name></trkpt>
<trkpt lat="53.304794" lon="06.601975"><ele>0.9</ele><time>2021-05-20T15:50:28Z</time><name>PT16717</name></trkpt>
<trkpt lat="53.304790" lon="06.601959"><ele>0.8</ele><time>2021-05-20T15:50:29Z</time><name>PT16718</name></trkpt>
<trkpt lat="53.304787" lon="06.601943"><ele>0.8</ele><time>2021-05-20T15:50:30Z</time><name>PT16719</name></trkpt>
<trkpt lat="53.304784" lon="06.601925"><ele>0.7</ele><time>2021-05-20T15:50:31Z</time><name>PT16720</name></trkpt>
<trkpt lat="53.304780" lon="06.601906"><ele>0.5</ele><time>2021-05-20T15:50:32Z</time><name>PT16721</name></trkpt>
<trkpt lat="53.304778" lon="06.601887"><ele>0.5</ele><time>2021-05-20T15:50:33Z</time><name>PT16722</name></trkpt>
<trkpt lat="53.304778" lon="06.601872"><ele>0.4</ele><time>2021-05-20T15:50:34Z</time><name>PT16723</name></trkpt>
<trkpt lat="53.304776" lon="06.601856"><ele>0.3</ele><time>2021-05-20T15:50:35Z</time><name>PT16724</name></trkpt>
<trkpt lat="53.304776" lon="06.601838"><ele>0.3</ele><time>2021-05-20T15:50:36Z</time><name>PT16725</name></trkpt>
<trkpt lat="53.304774" lon="06.601825"><ele>0.2</ele><time>2021-05-20T15:50:37Z</time><name>PT16726</name></trkpt>
<trkpt lat="53.304775" lon="06.601812"><ele>0.2</ele><time>2021-05-20T15:50:38Z</time><name>PT16727</name></trkpt>
<trkpt lat="53.304777" lon="06.601800"><ele>0.2</ele><time>2021-05-20T15:50:39Z</time><name>PT16728</name></trkpt>
<trkpt lat="53.304775" lon="06.601787"><ele>0.1</ele><time>2021-05-20T15:50:40Z</time><name>PT16729</name></trkpt>
<trkpt lat="53.304770" lon="06.601776"><ele>0</ele><time>2021-05-20T15:50:41Z</time><name>PT16730</name></trkpt>
<trkpt lat="53.304768" lon="06.601764"><ele>0.1</ele><time>2021-05-20T15:50:42Z</time><name>PT16731</name></trkpt>
<trkpt lat="53.304767" lon="06.601748"><ele>0.4</ele><time>2021-05-20T15:50:43Z</time><name>PT16732</name></trkpt>
<trkpt lat="53.304765" lon="06.601732"><ele>0.2</ele><time>2021-05-20T15:50:44Z</time><name>PT16733</name></trkpt>
<trkpt lat="53.304763" lon="06.601716"><ele>0.1</ele><time>2021-05-20T15:50:45Z</time><name>PT16734</name></trkpt>
<trkpt lat="53.304759" lon="06.601699"><ele>0</ele><time>2021-05-20T15:50:46Z</time><name>PT16735</name></trkpt>
<trkpt lat="53.304754" lon="06.601685"><ele>0</ele><time>2021-05-20T15:50:47Z</time><name>PT16736</name></trkpt>
<trkpt lat="53.304751" lon="06.601670"><ele>0</ele><time>2021-05-20T15:50:48Z</time><name>PT16737</name></trkpt>
<trkpt lat="53.304748" lon="06.601656"><ele>0</ele><time>2021-05-20T15:50:49Z</time><name>PT16738</name></trkpt>
<trkpt lat="53.304745" lon="06.601642"><ele>0.1</ele><time>2021-05-20T15:50:50Z</time><name>PT16739</name></trkpt>
<trkpt lat="53.304743" lon="06.601625"><ele>0.1</ele><time>2021-05-20T15:50:51Z</time><name>PT16740</name></trkpt>
<trkpt lat="53.304742" lon="06.601608"><ele>0.1</ele><time>2021-05-20T15:50:52Z</time><name>PT16741</name></trkpt>
<trkpt lat="53.304740" lon="06.601592"><ele>0.1</ele><time>2021-05-20T15:50:53Z</time><name>PT16742</name></trkpt>
<trkpt lat="53.304742" lon="06.601574"><ele>0.1</ele><time>2021-05-20T15:50:54Z</time><name>PT16743</name></trkpt>
<trkpt lat="53.304742" lon="06.601555"><ele>0</ele><time>2021-05-20T15:50:55Z</time><name>PT16744</name></trkpt>
<trkpt lat="53.304740" lon="06.601536"><ele>0.2</ele><time>2021-05-20T15:50:56Z</time><name>PT16745</name></trkpt>
<trkpt lat="53.304739" lon="06.601518"><ele>0.1</ele><time>2021-05-20T15:50:57Z</time><name>PT16746</name></trkpt>
<trkpt lat="53.304737" lon="06.601503"><ele>0.1</ele><time>2021-05-20T15:50:58Z</time><name>PT16747</name></trkpt>
<trkpt lat="53.304736" lon="06.601484"><ele>0.3</ele><time>2021-05-20T15:50:59Z</time><name>PT16748</name></trkpt>
<trkpt lat="53.304733" lon="06.601464"><ele>0.5</ele><time>2021-05-20T15:51:00Z</time><name>PT16749</name></trkpt>
<trkpt lat="53.304731" lon="06.601447"><ele>0.4</ele><time>2021-05-20T15:51:01Z</time><name>PT16750</name></trkpt>
<trkpt lat="53.304728" lon="06.601431"><ele>0.5</ele><time>2021-05-20T15:51:02Z</time><name>PT16751</name></trkpt>
<trkpt lat="53.304725" lon="06.601412"><ele>0.8</ele><time>2021-05-20T15:51:03Z</time><name>PT16752</name></trkpt>
<trkpt lat="53.304723" lon="06.601396"><ele>0.9</ele><time>2021-05-20T15:51:04Z</time><name>PT16753</name></trkpt>
<trkpt lat="53.304721" lon="06.601381"><ele>-1</ele><time>2021-05-20T15:51:05Z</time><name>PT16754</name></trkpt>
<trkpt lat="53.304719" lon="06.601364"><ele>-1</ele><time>2021-05-20T15:51:06Z</time><name>PT16755</name></trkpt>
<trkpt lat="53.304720" lon="06.601348"><ele>0.9</ele><time>2021-05-20T15:51:07Z</time><name>PT16756</name></trkpt>
<trkpt lat="53.304719" lon="06.601332"><ele>0.9</ele><time>2021-05-20T15:51:08Z</time><name>PT16757</name></trkpt>
<trkpt lat="53.304718" lon="06.601317"><ele>-1</ele><time>2021-05-20T15:51:09Z</time><name>PT16758</name></trkpt>
<trkpt lat="53.304715" lon="06.601301"><ele>-1</ele><time>2021-05-20T15:51:10Z</time><name>PT16759</name></trkpt>
<trkpt lat="53.304715" lon="06.601287"><ele>-1</ele><time>2021-05-20T15:51:11Z</time><name>PT16760</name></trkpt>
<trkpt lat="53.304713" lon="06.601271"><ele>-1</ele><time>2021-05-20T15:51:12Z</time><name>PT16761</name></trkpt>
<trkpt lat="53.304712" lon="06.601256"><ele>0.9</ele><time>2021-05-20T15:51:13Z</time><name>PT16762</name></trkpt>
<trkpt lat="53.304711" lon="06.601241"><ele>0.7</ele><time>2021-05-20T15:51:14Z</time><name>PT16763</name></trkpt>
<trkpt lat="53.304710" lon="06.601226"><ele>-1</ele><time>2021-05-20T15:51:15Z</time><name>PT16764</name></trkpt>
<trkpt lat="53.304706" lon="06.601212"><ele>0.6</ele><time>2021-05-20T15:51:16Z</time><name>PT16765</name></trkpt>
<trkpt lat="53.304702" lon="06.601197"><ele>0.8</ele><time>2021-05-20T15:51:17Z</time><name>PT16766</name></trkpt>
<trkpt lat="53.304699" lon="06.601182"><ele>0.8</ele><time>2021-05-20T15:51:18Z</time><name>PT16767</name></trkpt>
<trkpt lat="53.304698" lon="06.601167"><ele>0.7</ele><time>2021-05-20T15:51:19Z</time><name>PT16768</name></trkpt>
<trkpt lat="53.304696" lon="06.601153"><ele>0.7</ele><time>2021-05-20T15:51:20Z</time><name>PT16769</name></trkpt>
<trkpt lat="53.304695" lon="06.601141"><ele>0.6</ele><time>2021-05-20T15:51:21Z</time><name>PT16770</name></trkpt>
<trkpt lat="53.304693" lon="06.601127"><ele>0.5</ele><time>2021-05-20T15:51:22Z</time><name>PT16771</name></trkpt>
<trkpt lat="53.304691" lon="06.601112"><ele>0.4</ele><time>2021-05-20T15:51:23Z</time><name>PT16772</name></trkpt>
<trkpt lat="53.304689" lon="06.601095"><ele>0.3</ele><time>2021-05-20T15:51:24Z</time><name>PT16773</name></trkpt>
<trkpt lat="53.304689" lon="06.601080"><ele>0.4</ele><time>2021-05-20T15:51:25Z</time><name>PT16774</name></trkpt>
<trkpt lat="53.304688" lon="06.601065"><ele>0.5</ele><time>2021-05-20T15:51:26Z</time><name>PT16775</name></trkpt>
<trkpt lat="53.304686" lon="06.601050"><ele>0.5</ele><time>2021-05-20T15:51:27Z</time><name>PT16776</name></trkpt>
<trkpt lat="53.304684" lon="06.601035"><ele>0.4</ele><time>2021-05-20T15:51:28Z</time><name>PT16777</name></trkpt>
<trkpt lat="53.304683" lon="06.601021"><ele>0.4</ele><time>2021-05-20T15:51:29Z</time><name>PT16778</name></trkpt>
<trkpt lat="53.304682" lon="06.601005"><ele>0.4</ele><time>2021-05-20T15:51:30Z</time><name>PT16779</name></trkpt>
<trkpt lat="53.304681" lon="06.600988"><ele>0.4</ele><time>2021-05-20T15:51:31Z</time><name>PT16780</name></trkpt>
<trkpt lat="53.304681" lon="06.600974"><ele>0.4</ele><time>2021-05-20T15:51:32Z</time><name>PT16781</name></trkpt>
<trkpt lat="53.304680" lon="06.600959"><ele>0.5</ele><time>2021-05-20T15:51:33Z</time><name>PT16782</name></trkpt>
<trkpt lat="53.304679" lon="06.600947"><ele>0.6</ele><time>2021-05-20T15:51:34Z</time><name>PT16783</name></trkpt>
<trkpt lat="53.304677" lon="06.600935"><ele>0.5</ele><time>2021-05-20T15:51:35Z</time><name>PT16784</name></trkpt>
<trkpt lat="53.304677" lon="06.600920"><ele>0.6</ele><time>2021-05-20T15:51:36Z</time><name>PT16785</name></trkpt>
<trkpt lat="53.304677" lon="06.600906"><ele>0.6</ele><time>2021-05-20T15:51:37Z</time><name>PT16786</name></trkpt>
<trkpt lat="53.304676" lon="06.600890"><ele>0.8</ele><time>2021-05-20T15:51:38Z</time><name>PT16787</name></trkpt>
<trkpt lat="53.304673" lon="06.600873"><ele>0.8</ele><time>2021-05-20T15:51:39Z</time><name>PT16788</name></trkpt>
<trkpt lat="53.304672" lon="06.600857"><ele>0.9</ele><time>2021-05-20T15:51:40Z</time><name>PT16789</name></trkpt>
<trkpt lat="53.304670" lon="06.600842"><ele>0.7</ele><time>2021-05-20T15:51:41Z</time><name>PT16790</name></trkpt>
<trkpt lat="53.304669" lon="06.600828"><ele>0.4</ele><time>2021-05-20T15:51:42Z</time><name>PT16791</name></trkpt>
<trkpt lat="53.304667" lon="06.600815"><ele>0.3</ele><time>2021-05-20T15:51:43Z</time><name>PT16792</name></trkpt>
<trkpt lat="53.304664" lon="06.600804"><ele>0.3</ele><time>2021-05-20T15:51:44Z</time><name>PT16793</name></trkpt>
<trkpt lat="53.304662" lon="06.600790"><ele>0.5</ele><time>2021-05-20T15:51:45Z</time><name>PT16794</name></trkpt>
<trkpt lat="53.304662" lon="06.600777"><ele>0.8</ele><time>2021-05-20T15:51:46Z</time><name>PT16795</name></trkpt>
<trkpt lat="53.304661" lon="06.600763"><ele>0.7</ele><time>2021-05-20T15:51:47Z</time><name>PT16796</name></trkpt>
<trkpt lat="53.304659" lon="06.600750"><ele>0.7</ele><time>2021-05-20T15:51:48Z</time><name>PT16797</name></trkpt>
<trkpt lat="53.304657" lon="06.600737"><ele>0.5</ele><time>2021-05-20T15:51:49Z</time><name>PT16798</name></trkpt>
<trkpt lat="53.304656" lon="06.600730"><ele>0.5</ele><time>2021-05-20T15:51:50Z</time><name>PT16799</name></trkpt>
<trkpt lat="53.304655" lon="06.600728"><ele>0.3</ele><time>2021-05-20T15:51:51Z</time><name>PT16800</name></trkpt>
<trkpt lat="53.304654" lon="06.600722"><ele>0.5</ele><time>2021-05-20T15:51:52Z</time><name>PT16801</name></trkpt>
<trkpt lat="53.304652" lon="06.600713"><ele>0.5</ele><time>2021-05-20T15:51:53Z</time><name>PT16802</name></trkpt>
<trkpt lat="53.304651" lon="06.600705"><ele>0.5</ele><time>2021-05-20T15:51:54Z</time><name>PT16803</name></trkpt>
<trkpt lat="53.304651" lon="06.600699"><ele>0.8</ele><time>2021-05-20T15:51:55Z</time><name>PT16804</name></trkpt>
<trkpt lat="53.304649" lon="06.600690"><ele>0.9</ele><time>2021-05-20T15:51:56Z</time><name>PT16805</name></trkpt>
<trkpt lat="53.304649" lon="06.600681"><ele>0.7</ele><time>2021-05-20T15:51:57Z</time><name>PT16806</name></trkpt>
<trkpt lat="53.304648" lon="06.600673"><ele>0.8</ele><time>2021-05-20T15:51:58Z</time><name>PT16807</name></trkpt>
<trkpt lat="53.304648" lon="06.600666"><ele>0.8</ele><time>2021-05-20T15:51:59Z</time><name>PT16808</name></trkpt>
<trkpt lat="53.304644" lon="06.600657"><ele>0.6</ele><time>2021-05-20T15:52:00Z</time><name>PT16809</name></trkpt>
<trkpt lat="53.304643" lon="06.600657"><ele>0.5</ele><time>2021-05-20T15:52:01Z</time><name>PT16810</name></trkpt>
<trkpt lat="53.304642" lon="06.600653"><ele>0.5</ele><time>2021-05-20T15:52:02Z</time><name>PT16811</name></trkpt>
<trkpt lat="53.304636" lon="06.600647"><ele>0.4</ele><time>2021-05-20T15:52:11Z</time><name>PT16812</name></trkpt>
<trkpt lat="53.304634" lon="06.600639"><ele>0.5</ele><time>2021-05-20T15:52:12Z</time><name>PT16813</name></trkpt>
<trkpt lat="53.304635" lon="06.600623"><ele>0.6</ele><time>2021-05-20T15:52:13Z</time><name>PT16814</name></trkpt>
<trkpt lat="53.304628" lon="06.600601"><ele>0.7</ele><time>2021-05-20T15:52:54Z</time><name>PT16815</name></trkpt>
<trkpt lat="53.304630" lon="06.600587"><ele>0.6</ele><time>2021-05-20T15:52:55Z</time><name>PT16816</name></trkpt>
<trkpt lat="53.304628" lon="06.600580"><ele>0.8</ele><time>2021-05-20T15:52:56Z</time><name>PT16817</name></trkpt>
<trkpt lat="53.304633" lon="06.600578"><ele>0.8</ele><time>2021-05-20T15:52:57Z</time><name>PT16818</name></trkpt>
<trkpt lat="53.304629" lon="06.600565"><ele>0.9</ele><time>2021-05-20T15:52:58Z</time><name>PT16819</name></trkpt>
<trkpt lat="53.304627" lon="06.600555"><ele>-1</ele><time>2021-05-20T15:52:59Z</time><name>PT16820</name></trkpt>
<trkpt lat="53.304625" lon="06.600548"><ele>-1</ele><time>2021-05-20T15:53:00Z</time><name>PT16821</name></trkpt>
<trkpt lat="53.304623" lon="06.600546"><ele>-1</ele><time>2021-05-20T15:53:01Z</time><name>PT16822</name></trkpt>
<trkpt lat="53.304619" lon="06.600538"><ele>0.9</ele><time>2021-05-20T15:53:02Z</time><name>PT16823</name></trkpt>
<trkpt lat="53.304619" lon="06.600537"><ele>0.7</ele><time>2021-05-20T15:53:03Z</time><name>PT16824</name></trkpt>
<trkpt lat="53.304617" lon="06.600543"><ele>0.7</ele><time>2021-05-20T15:53:04Z</time><name>PT16825</name></trkpt>
<trkpt lat="53.304620" lon="06.600545"><ele>0.8</ele><time>2021-05-20T15:53:05Z</time><name>PT16826</name></trkpt>
<trkpt lat="53.304622" lon="06.600553"><ele>0.7</ele><time>2021-05-20T15:53:06Z</time><name>PT16827</name></trkpt>
<trkpt lat="53.304620" lon="06.600553"><ele>0.6</ele><time>2021-05-20T15:53:07Z</time><name>PT16828</name></trkpt>
<trkpt lat="53.304620" lon="06.600555"><ele>0.7</ele><time>2021-05-20T15:53:08Z</time><name>PT16829</name></trkpt>
<trkpt lat="53.304620" lon="06.600554"><ele>0.7</ele><time>2021-05-20T15:53:09Z</time><name>PT16830</name></trkpt>
<trkpt lat="53.304620" lon="06.600551"><ele>0.9</ele><time>2021-05-20T15:53:10Z</time><name>PT16831</name></trkpt>
<trkpt lat="53.304619" lon="06.600540"><ele>-1</ele><time>2021-05-20T15:53:11Z</time><name>PT16832</name></trkpt>
<trkpt lat="53.304617" lon="06.600530"><ele>-1.2</ele><time>2021-05-20T15:53:12Z</time><name>PT16833</name></trkpt>
<trkpt lat="53.304613" lon="06.600517"><ele>-1.3</ele><time>2021-05-20T15:53:13Z</time><name>PT16834</name></trkpt>
<trkpt lat="53.304609" lon="06.600506"><ele>-1.3</ele><time>2021-05-20T15:53:14Z</time><name>PT16835</name></trkpt>
<trkpt lat="53.304606" lon="06.600502"><ele>-1.3</ele><time>2021-05-20T15:53:15Z</time><name>PT16836</name></trkpt>
<trkpt lat="53.304601" lon="06.600497"><ele>-1.1</ele><time>2021-05-20T15:53:16Z</time><name>PT16837</name></trkpt>
<trkpt lat="53.304598" lon="06.600491"><ele>-1.1</ele><time>2021-05-20T15:53:17Z</time><name>PT16838</name></trkpt>
<trkpt lat="53.304597" lon="06.600485"><ele>-1.2</ele><time>2021-05-20T15:53:18Z</time><name>PT16839</name></trkpt>
<trkpt lat="53.304597" lon="06.600488"><ele>-1.3</ele><time>2021-05-20T15:53:19Z</time><name>PT16840</name></trkpt>
<trkpt lat="53.304595" lon="06.600485"><ele>-1.2</ele><time>2021-05-20T15:53:20Z</time><name>PT16841</name></trkpt>
<trkpt lat="53.304595" lon="06.600482"><ele>-1.2</ele><time>2021-05-20T15:53:21Z</time><name>PT16842</name></trkpt>
<trkpt lat="53.304594" lon="06.600474"><ele>-1.3</ele><time>2021-05-20T15:53:22Z</time><name>PT16843</name></trkpt>
<trkpt lat="53.304587" lon="06.600460"><ele>-1.2</ele><time>2021-05-20T15:53:23Z</time><name>PT16844</name></trkpt>
<trkpt lat="53.304584" lon="06.600449"><ele>-1.3</ele><time>2021-05-20T15:53:24Z</time><name>PT16845</name></trkpt>
<trkpt lat="53.304580" lon="06.600440"><ele>-1.5</ele><time>2021-05-20T15:53:25Z</time><name>PT16846</name></trkpt>
<trkpt lat="53.304575" lon="06.600430"><ele>-1.3</ele><time>2021-05-20T15:53:26Z</time><name>PT16847</name></trkpt>
<trkpt lat="53.304571" lon="06.600414"><ele>-1.3</ele><time>2021-05-20T15:53:27Z</time><name>PT16848</name></trkpt>
<trkpt lat="53.304567" lon="06.600402"><ele>-1.5</ele><time>2021-05-20T15:53:28Z</time><name>PT16849</name></trkpt>
<trkpt lat="53.304563" lon="06.600393"><ele>-1.6</ele><time>2021-05-20T15:53:29Z</time><name>PT16850</name></trkpt>
<trkpt lat="53.304557" lon="06.600381"><ele>-1.9</ele><time>2021-05-20T15:53:30Z</time><name>PT16851</name></trkpt>
<trkpt lat="53.304551" lon="06.600364"><ele>-2</ele><time>2021-05-20T15:53:31Z</time><name>PT16852</name></trkpt>
<trkpt lat="53.304546" lon="06.600351"><ele>-2</ele><time>2021-05-20T15:53:32Z</time><name>PT16853</name></trkpt>
<trkpt lat="53.304541" lon="06.600340"><ele>-1.9</ele><time>2021-05-20T15:53:33Z</time><name>PT16854</name></trkpt>
<trkpt lat="53.304538" lon="06.600333"><ele>-1.6</ele><time>2021-05-20T15:53:34Z</time><name>PT16855</name></trkpt>
<trkpt lat="53.304534" lon="06.600326"><ele>-1.5</ele><time>2021-05-20T15:53:35Z</time><name>PT16856</name></trkpt>
<trkpt lat="53.304529" lon="06.600312"><ele>-1.2</ele><time>2021-05-20T15:53:36Z</time><name>PT16857</name></trkpt>
<trkpt lat="53.304524" lon="06.600288"><ele>-1.1</ele><time>2021-05-20T15:53:37Z</time><name>PT16858</name></trkpt>
<trkpt lat="53.304519" lon="06.600271"><ele>-1</ele><time>2021-05-20T15:53:38Z</time><name>PT16859</name></trkpt>
<trkpt lat="53.304516" lon="06.600259"><ele>-1</ele><time>2021-05-20T15:53:39Z</time><name>PT16860</name></trkpt>
<trkpt lat="53.304512" lon="06.600251"><ele>-1</ele><time>2021-05-20T15:53:40Z</time><name>PT16861</name></trkpt>
<trkpt lat="53.304510" lon="06.600238"><ele>-1.1</ele><time>2021-05-20T15:53:41Z</time><name>PT16862</name></trkpt>
<trkpt lat="53.304510" lon="06.600217"><ele>-1.2</ele><time>2021-05-20T15:53:42Z</time><name>PT16863</name></trkpt>
<trkpt lat="53.304508" lon="06.600191"><ele>-1.3</ele><time>2021-05-20T15:53:43Z</time><name>PT16864</name></trkpt>
<trkpt lat="53.304506" lon="06.600173"><ele>-1.3</ele><time>2021-05-20T15:53:44Z</time><name>PT16865</name></trkpt>
<trkpt lat="53.304503" lon="06.600161"><ele>-1.3</ele><time>2021-05-20T15:53:45Z</time><name>PT16866</name></trkpt>
<trkpt lat="53.304500" lon="06.600151"><ele>-1.2</ele><time>2021-05-20T15:53:46Z</time><name>PT16867</name></trkpt>
<trkpt lat="53.304496" lon="06.600137"><ele>-1.1</ele><time>2021-05-20T15:53:47Z</time><name>PT16868</name></trkpt>
<trkpt lat="53.304490" lon="06.600121"><ele>-1.3</ele><time>2021-05-20T15:53:48Z</time><name>PT16869</name></trkpt>
<trkpt lat="53.304487" lon="06.600109"><ele>-1.2</ele><time>2021-05-20T15:53:49Z</time><name>PT16870</name></trkpt>
<trkpt lat="53.304483" lon="06.600100"><ele>-1.3</ele><time>2021-05-20T15:53:50Z</time><name>PT16871</name></trkpt>
<trkpt lat="53.304478" lon="06.600093"><ele>-1.3</ele><time>2021-05-20T15:53:51Z</time><name>PT16872</name></trkpt>
<trkpt lat="53.304475" lon="06.600081"><ele>-1.3</ele><time>2021-05-20T15:53:52Z</time><name>PT16873</name></trkpt>
<trkpt lat="53.304473" lon="06.600066"><ele>-1.3</ele><time>2021-05-20T15:53:53Z</time><name>PT16874</name></trkpt>
<trkpt lat="53.304469" lon="06.600057"><ele>-1.3</ele><time>2021-05-20T15:53:54Z</time><name>PT16875</name></trkpt>
<trkpt lat="53.304463" lon="06.600050"><ele>-1.3</ele><time>2021-05-20T15:53:55Z</time><name>PT16876</name></trkpt>
<trkpt lat="53.304458" lon="06.600035"><ele>-1.4</ele><time>2021-05-20T15:53:56Z</time><name>PT16877</name></trkpt>
<trkpt lat="53.304454" lon="06.600016"><ele>-1.3</ele><time>2021-05-20T15:53:57Z</time><name>PT16878</name></trkpt>
<trkpt lat="53.304451" lon="06.599999"><ele>-1.3</ele><time>2021-05-20T15:53:58Z</time><name>PT16879</name></trkpt>
<trkpt lat="53.304447" lon="06.599986"><ele>-1.4</ele><time>2021-05-20T15:53:59Z</time><name>PT16880</name></trkpt>
<trkpt lat="53.304442" lon="06.599977"><ele>-1.1</ele><time>2021-05-20T15:54:00Z</time><name>PT16881</name></trkpt>
<trkpt lat="53.304436" lon="06.599963"><ele>-1.2</ele><time>2021-05-20T15:54:01Z</time><name>PT16882</name></trkpt>
<trkpt lat="53.304430" lon="06.599945"><ele>-1.1</ele><time>2021-05-20T15:54:02Z</time><name>PT16883</name></trkpt>
<trkpt lat="53.304425" lon="06.599932"><ele>-1.3</ele><time>2021-05-20T15:54:03Z</time><name>PT16884</name></trkpt>
<trkpt lat="53.304421" lon="06.599922"><ele>-1.2</ele><time>2021-05-20T15:54:04Z</time><name>PT16885</name></trkpt>
<trkpt lat="53.304417" lon="06.599914"><ele>-1.4</ele><time>2021-05-20T15:54:05Z</time><name>PT16886</name></trkpt>
<trkpt lat="53.304412" lon="06.599898"><ele>-1.2</ele><time>2021-05-20T15:54:06Z</time><name>PT16887</name></trkpt>
<trkpt lat="53.304405" lon="06.599877"><ele>-1</ele><time>2021-05-20T15:54:07Z</time><name>PT16888</name></trkpt>
<trkpt lat="53.304399" lon="06.599860"><ele>0.9</ele><time>2021-05-20T15:54:08Z</time><name>PT16889</name></trkpt>
<trkpt lat="53.304395" lon="06.599847"><ele>0.7</ele><time>2021-05-20T15:54:09Z</time><name>PT16890</name></trkpt>
<trkpt lat="53.304392" lon="06.599834"><ele>0.4</ele><time>2021-05-20T15:54:10Z</time><name>PT16891</name></trkpt>
<trkpt lat="53.304388" lon="06.599821"><ele>0.4</ele><time>2021-05-20T15:54:11Z</time><name>PT16892</name></trkpt>
<trkpt lat="53.304384" lon="06.599807"><ele>0.4</ele><time>2021-05-20T15:54:12Z</time><name>PT16893</name></trkpt>
<trkpt lat="53.304379" lon="06.599796"><ele>0.3</ele><time>2021-05-20T15:54:13Z</time><name>PT16894</name></trkpt>
<trkpt lat="53.304375" lon="06.599782"><ele>0.4</ele><time>2021-05-20T15:54:14Z</time><name>PT16895</name></trkpt>
<trkpt lat="53.304372" lon="06.599770"><ele>0.4</ele><time>2021-05-20T15:54:15Z</time><name>PT16896</name></trkpt>
<trkpt lat="53.304366" lon="06.599758"><ele>0.6</ele><time>2021-05-20T15:54:16Z</time><name>PT16897</name></trkpt>
<trkpt lat="53.304361" lon="06.599747"><ele>0.5</ele><time>2021-05-20T15:54:17Z</time><name>PT16898</name></trkpt>
<trkpt lat="53.304355" lon="06.599735"><ele>0.5</ele><time>2021-05-20T15:54:18Z</time><name>PT16899</name></trkpt>
<trkpt lat="53.304349" lon="06.599720"><ele>0.5</ele><time>2021-05-20T15:54:19Z</time><name>PT16900</name></trkpt>
<trkpt lat="53.304345" lon="06.599708"><ele>0.7</ele><time>2021-05-20T15:54:20Z</time><name>PT16901</name></trkpt>
<trkpt lat="53.304341" lon="06.599696"><ele>0.6</ele><time>2021-05-20T15:54:21Z</time><name>PT16902</name></trkpt>
<trkpt lat="53.304337" lon="06.599684"><ele>0.8</ele><time>2021-05-20T15:54:22Z</time><name>PT16903</name></trkpt>
<trkpt lat="53.304332" lon="06.599673"><ele>-1</ele><time>2021-05-20T15:54:23Z</time><name>PT16904</name></trkpt>
<trkpt lat="53.304327" lon="06.599662"><ele>-1.1</ele><time>2021-05-20T15:54:24Z</time><name>PT16905</name></trkpt>
<trkpt lat="53.304323" lon="06.599650"><ele>-1</ele><time>2021-05-20T15:54:25Z</time><name>PT16906</name></trkpt>
<trkpt lat="53.304318" lon="06.599639"><ele>-1</ele><time>2021-05-20T15:54:26Z</time><name>PT16907</name></trkpt>
<trkpt lat="53.304314" lon="06.599627"><ele>0.5</ele><time>2021-05-20T15:54:27Z</time><name>PT16908</name></trkpt>
<trkpt lat="53.304310" lon="06.599614"><ele>0.3</ele><time>2021-05-20T15:54:28Z</time><name>PT16909</name></trkpt>
<trkpt lat="53.304307" lon="06.599601"><ele>0.1</ele><time>2021-05-20T15:54:29Z</time><name>PT16910</name></trkpt>
<trkpt lat="53.304301" lon="06.599583"><ele>0.1</ele><time>2021-05-20T15:54:30Z</time><name>PT16911</name></trkpt>
<trkpt lat="53.304296" lon="06.599571"><ele>0.2</ele><time>2021-05-20T15:54:31Z</time><name>PT16912</name></trkpt>
<trkpt lat="53.304290" lon="06.599558"><ele>0.5</ele><time>2021-05-20T15:54:32Z</time><name>PT16913</name></trkpt>
<trkpt lat="53.304286" lon="06.599545"><ele>0.7</ele><time>2021-05-20T15:54:33Z</time><name>PT16914</name></trkpt>
<trkpt lat="53.304281" lon="06.599527"><ele>0.8</ele><time>2021-05-20T15:54:34Z</time><name>PT16915</name></trkpt>
<trkpt lat="53.304275" lon="06.599511"><ele>-1</ele><time>2021-05-20T15:54:35Z</time><name>PT16916</name></trkpt>
<trkpt lat="53.304271" lon="06.599496"><ele>-1.1</ele><time>2021-05-20T15:54:36Z</time><name>PT16917</name></trkpt>
<trkpt lat="53.304267" lon="06.599485"><ele>-1</ele><time>2021-05-20T15:54:37Z</time><name>PT16918</name></trkpt>
<trkpt lat="53.304262" lon="06.599474"><ele>0.7</ele><time>2021-05-20T15:54:38Z</time><name>PT16919</name></trkpt>
<trkpt lat="53.304257" lon="06.599462"><ele>0.5</ele><time>2021-05-20T15:54:39Z</time><name>PT16920</name></trkpt>
<trkpt lat="53.304254" lon="06.599452"><ele>0.3</ele><time>2021-05-20T15:54:40Z</time><name>PT16921</name></trkpt>
<trkpt lat="53.304250" lon="06.599443"><ele>0.2</ele><time>2021-05-20T15:54:41Z</time><name>PT16922</name></trkpt>
<trkpt lat="53.304247" lon="06.599437"><ele>0.3</ele><time>2021-05-20T15:54:42Z</time><name>PT16923</name></trkpt>
<trkpt lat="53.304246" lon="06.599428"><ele>0.3</ele><time>2021-05-20T15:54:43Z</time><name>PT16924</name></trkpt>
<trkpt lat="53.304242" lon="06.599419"><ele>0.5</ele><time>2021-05-20T15:54:44Z</time><name>PT16925</name></trkpt>
<trkpt lat="53.304237" lon="06.599410"><ele>0.6</ele><time>2021-05-20T15:54:45Z</time><name>PT16926</name></trkpt>
<trkpt lat="53.304233" lon="06.599399"><ele>0.7</ele><time>2021-05-20T15:54:46Z</time><name>PT16927</name></trkpt>
<trkpt lat="53.304230" lon="06.599391"><ele>0.7</ele><time>2021-05-20T15:54:47Z</time><name>PT16928</name></trkpt>
<trkpt lat="53.304228" lon="06.599383"><ele>0.8</ele><time>2021-05-20T15:54:48Z</time><name>PT16929</name></trkpt>
<trkpt lat="53.304223" lon="06.599371"><ele>0.8</ele><time>2021-05-20T15:54:49Z</time><name>PT16930</name></trkpt>
<trkpt lat="53.304219" lon="06.599362"><ele>0.9</ele><time>2021-05-20T15:54:50Z</time><name>PT16931</name></trkpt>
<trkpt lat="53.304214" lon="06.599351"><ele>0.8</ele><time>2021-05-20T15:54:51Z</time><name>PT16932</name></trkpt>
<trkpt lat="53.304212" lon="06.599340"><ele>0.8</ele><time>2021-05-20T15:54:52Z</time><name>PT16933</name></trkpt>
<trkpt lat="53.304212" lon="06.599332"><ele>0.6</ele><time>2021-05-20T15:54:53Z</time><name>PT16934</name></trkpt>
<trkpt lat="53.304209" lon="06.599324"><ele>0.4</ele><time>2021-05-20T15:54:54Z</time><name>PT16935</name></trkpt>
<trkpt lat="53.304207" lon="06.599318"><ele>0.3</ele><time>2021-05-20T15:54:55Z</time><name>PT16936</name></trkpt>
<trkpt lat="53.304206" lon="06.599312"><ele>0.4</ele><time>2021-05-20T15:54:56Z</time><name>PT16937</name></trkpt>
<trkpt lat="53.304206" lon="06.599312"><ele>0.4</ele><time>2021-05-20T15:54:57Z</time><name>PT16938</name></trkpt>
<trkpt lat="53.304205" lon="06.599312"><ele>0.5</ele><time>2021-05-20T15:54:58Z</time><name>PT16939</name></trkpt>
<trkpt lat="53.304206" lon="06.599306"><ele>0.9</ele><time>2021-05-20T15:55:07Z</time><name>PT16940</name></trkpt>
<trkpt lat="53.304211" lon="06.599301"><ele>0.8</ele><time>2021-05-20T15:55:08Z</time><name>PT16941</name></trkpt>
<trkpt lat="53.304216" lon="06.599291"><ele>0.8</ele><time>2021-05-20T15:55:09Z</time><name>PT16942</name></trkpt>
<trkpt lat="53.304222" lon="06.599279"><ele>0.7</ele><time>2021-05-20T15:55:10Z</time><name>PT16943</name></trkpt>
<trkpt lat="53.304229" lon="06.599266"><ele>0.6</ele><time>2021-05-20T15:55:11Z</time><name>PT16944</name></trkpt>
<trkpt lat="53.304236" lon="06.599252"><ele>0.7</ele><time>2021-05-20T15:55:12Z</time><name>PT16945</name></trkpt>
<trkpt lat="53.304243" lon="06.599239"><ele>0.8</ele><time>2021-05-20T15:55:13Z</time><name>PT16946</name></trkpt>
<trkpt lat="53.304251" lon="06.599228"><ele>0.9</ele><time>2021-05-20T15:55:14Z</time><name>PT16947</name></trkpt>
<trkpt lat="53.304261" lon="06.599220"><ele>0.8</ele><time>2021-05-20T15:55:15Z</time><name>PT16948</name></trkpt>
<trkpt lat="53.304269" lon="06.599210"><ele>0.7</ele><time>2021-05-20T15:55:16Z</time><name>PT16949</name></trkpt>
<trkpt lat="53.304276" lon="06.599197"><ele>0.5</ele><time>2021-05-20T15:55:17Z</time><name>PT16950</name></trkpt>
<trkpt lat="53.304282" lon="06.599184"><ele>0.4</ele><time>2021-05-20T15:55:18Z</time><name>PT16951</name></trkpt>
<trkpt lat="53.304291" lon="06.599172"><ele>0.2</ele><time>2021-05-20T15:55:19Z</time><name>PT16952</name></trkpt>
<trkpt lat="53.304300" lon="06.599162"><ele>0.2</ele><time>2021-05-20T15:55:20Z</time><name>PT16953</name></trkpt>
<trkpt lat="53.304306" lon="06.599149"><ele>0.2</ele><time>2021-05-20T15:55:21Z</time><name>PT16954</name></trkpt>
<trkpt lat="53.304311" lon="06.599139"><ele>0.3</ele><time>2021-05-20T15:55:22Z</time><name>PT16955</name></trkpt>
<trkpt lat="53.304318" lon="06.599130"><ele>0.4</ele><time>2021-05-20T15:55:23Z</time><name>PT16956</name></trkpt>
<trkpt lat="53.304325" lon="06.599122"><ele>0.4</ele><time>2021-05-20T15:55:24Z</time><name>PT16957</name></trkpt>
<trkpt lat="53.304334" lon="06.599112"><ele>0.5</ele><time>2021-05-20T15:55:25Z</time><name>PT16958</name></trkpt>
<trkpt lat="53.304341" lon="06.599101"><ele>0.6</ele><time>2021-05-20T15:55:26Z</time><name>PT16959</name></trkpt>
<trkpt lat="53.304348" lon="06.599092"><ele>0.6</ele><time>2021-05-20T15:55:27Z</time><name>PT16960</name></trkpt>
<trkpt lat="53.304355" lon="06.599082"><ele>0.6</ele><time>2021-05-20T15:55:28Z</time><name>PT16961</name></trkpt>
<trkpt lat="53.304361" lon="06.599073"><ele>0.5</ele><time>2021-05-20T15:55:29Z</time><name>PT16962</name></trkpt>
<trkpt lat="53.304368" lon="06.599062"><ele>0.6</ele><time>2021-05-20T15:55:30Z</time><name>PT16963</name></trkpt>
<trkpt lat="53.304375" lon="06.599052"><ele>0.5</ele><time>2021-05-20T15:55:31Z</time><name>PT16964</name></trkpt>
<trkpt lat="53.304381" lon="06.599042"><ele>0.6</ele><time>2021-05-20T15:55:32Z</time><name>PT16965</name></trkpt>
<trkpt lat="53.304388" lon="06.599030"><ele>0.6</ele><time>2021-05-20T15:55:33Z</time><name>PT16966</name></trkpt>
<trkpt lat="53.304395" lon="06.599021"><ele>0.4</ele><time>2021-05-20T15:55:34Z</time><name>PT16967</name></trkpt>
<trkpt lat="53.304401" lon="06.599008"><ele>0.4</ele><time>2021-05-20T15:55:35Z</time><name>PT16968</name></trkpt>
<trkpt lat="53.304409" lon="06.598997"><ele>0.2</ele><time>2021-05-20T15:55:36Z</time><name>PT16969</name></trkpt>
<trkpt lat="53.304415" lon="06.598986"><ele>0</ele><time>2021-05-20T15:55:37Z</time><name>PT16970</name></trkpt>
<trkpt lat="53.304422" lon="06.598976"><ele>0.1</ele><time>2021-05-20T15:55:38Z</time><name>PT16971</name></trkpt>
<trkpt lat="53.304428" lon="06.598964"><ele>0.1</ele><time>2021-05-20T15:55:39Z</time><name>PT16972</name></trkpt>
<trkpt lat="53.304436" lon="06.598957"><ele>0.1</ele><time>2021-05-20T15:55:40Z</time><name>PT16973</name></trkpt>
<trkpt lat="53.304447" lon="06.598948"><ele>0.1</ele><time>2021-05-20T15:55:41Z</time><name>PT16974</name></trkpt>
<trkpt lat="53.304452" lon="06.598937"><ele>0.1</ele><time>2021-05-20T15:55:42Z</time><name>PT16975</name></trkpt>
<trkpt lat="53.304457" lon="06.598924"><ele>0.3</ele><time>2021-05-20T15:55:43Z</time><name>PT16976</name></trkpt>
<trkpt lat="53.304463" lon="06.598915"><ele>0.4</ele><time>2021-05-20T15:55:44Z</time><name>PT16977</name></trkpt>
<trkpt lat="53.304467" lon="06.598905"><ele>0.5</ele><time>2021-05-20T15:55:45Z</time><name>PT16978</name></trkpt>
<trkpt lat="53.304474" lon="06.598894"><ele>0.5</ele><time>2021-05-20T15:55:46Z</time><name>PT16979</name></trkpt>
<trkpt lat="53.304481" lon="06.598883"><ele>0.7</ele><time>2021-05-20T15:55:47Z</time><name>PT16980</name></trkpt>
<trkpt lat="53.304487" lon="06.598871"><ele>0.8</ele><time>2021-05-20T15:55:48Z</time><name>PT16981</name></trkpt>
<trkpt lat="53.304492" lon="06.598859"><ele>0.9</ele><time>2021-05-20T15:55:49Z</time><name>PT16982</name></trkpt>
<trkpt lat="53.304497" lon="06.598848"><ele>0.8</ele><time>2021-05-20T15:55:50Z</time><name>PT16983</name></trkpt>
<trkpt lat="53.304504" lon="06.598838"><ele>0.7</ele><time>2021-05-20T15:55:51Z</time><name>PT16984</name></trkpt>
<trkpt lat="53.304512" lon="06.598827"><ele>0.7</ele><time>2021-05-20T15:55:52Z</time><name>PT16985</name></trkpt>
<trkpt lat="53.304520" lon="06.598816"><ele>0.8</ele><time>2021-05-20T15:55:53Z</time><name>PT16986</name></trkpt>
<trkpt lat="53.304528" lon="06.598807"><ele>0.6</ele><time>2021-05-20T15:55:54Z</time><name>PT16987</name></trkpt>
<trkpt lat="53.304533" lon="06.598797"><ele>0.6</ele><time>2021-05-20T15:55:55Z</time><name>PT16988</name></trkpt>
<trkpt lat="53.304539" lon="06.598789"><ele>0.8</ele><time>2021-05-20T15:55:56Z</time><name>PT16989</name></trkpt>
<trkpt lat="53.304544" lon="06.598781"><ele>0.7</ele><time>2021-05-20T15:55:57Z</time><name>PT16990</name></trkpt>
<trkpt lat="53.304548" lon="06.598772"><ele>0.9</ele><time>2021-05-20T15:55:58Z</time><name>PT16991</name></trkpt>
<trkpt lat="53.304554" lon="06.598764"><ele>-1.2</ele><time>2021-05-20T15:55:59Z</time><name>PT16992</name></trkpt>
<trkpt lat="53.304558" lon="06.598761"><ele>-1.2</ele><time>2021-05-20T15:56:00Z</time><name>PT16993</name></trkpt>
<trkpt lat="53.304559" lon="06.598762"><ele>-1.1</ele><time>2021-05-20T15:56:01Z</time><name>PT16994</name></trkpt>
<trkpt lat="53.304560" lon="06.598763"><ele>-1</ele><time>2021-05-20T15:56:02Z</time><name>PT16995</name></trkpt>
<trkpt lat="53.304560" lon="06.598764"><ele>-1</ele><time>2021-05-20T15:56:03Z</time><name>PT16996</name></trkpt>
<trkpt lat="53.304562" lon="06.598765"><ele>0.5</ele><time>2021-05-20T15:56:17Z</time><name>PT16997</name></trkpt>
<trkpt lat="53.304566" lon="06.598757"><ele>0.5</ele><time>2021-05-20T15:56:18Z</time><name>PT16998</name></trkpt>
<trkpt lat="53.304572" lon="06.598751"><ele>0.7</ele><time>2021-05-20T15:56:19Z</time><name>PT16999</name></trkpt>
<trkpt lat="53.304576" lon="06.598742"><ele>0.7</ele><time>2021-05-20T15:56:20Z</time><name>PT17000</name></trkpt>
<trkpt lat="53.304583" lon="06.598729"><ele>0.6</ele><time>2021-05-20T15:56:21Z</time><name>PT17001</name></trkpt>
<trkpt lat="53.304586" lon="06.598714"><ele>0.6</ele><time>2021-05-20T15:56:22Z</time><name>PT17002</name></trkpt>
<trkpt lat="53.304591" lon="06.598704"><ele>0.5</ele><time>2021-05-20T15:56:23Z</time><name>PT17003</name></trkpt>
<trkpt lat="53.304596" lon="06.598698"><ele>0.4</ele><time>2021-05-20T15:56:24Z</time><name>PT17004</name></trkpt>
<trkpt lat="53.304601" lon="06.598689"><ele>0.5</ele><time>2021-05-20T15:56:25Z</time><name>PT17005</name></trkpt>
<trkpt lat="53.304607" lon="06.598678"><ele>0.5</ele><time>2021-05-20T15:56:26Z</time><name>PT17006</name></trkpt>
<trkpt lat="53.304613" lon="06.598667"><ele>0.5</ele><time>2021-05-20T15:56:27Z</time><name>PT17007</name></trkpt>
<trkpt lat="53.304619" lon="06.598657"><ele>0.5</ele><time>2021-05-20T15:56:28Z</time><name>PT17008</name></trkpt>
<trkpt lat="53.304628" lon="06.598648"><ele>0.9</ele><time>2021-05-20T15:56:29Z</time><name>PT17009</name></trkpt>
<trkpt lat="53.304635" lon="06.598641"><ele>0.8</ele><time>2021-05-20T15:56:30Z</time><name>PT17010</name></trkpt>
<trkpt lat="53.304643" lon="06.598632"><ele>0.5</ele><time>2021-05-20T15:56:31Z</time><name>PT17011</name></trkpt>
<trkpt lat="53.304650" lon="06.598621"><ele>0.5</ele><time>2021-05-20T15:56:32Z</time><name>PT17012</name></trkpt>
<trkpt lat="53.304657" lon="06.598610"><ele>0.6</ele><time>2021-05-20T15:56:33Z</time><name>PT17013</name></trkpt>
<trkpt lat="53.304664" lon="06.598597"><ele>0.5</ele><time>2021-05-20T15:56:34Z</time><name>PT17014</name></trkpt>
<trkpt lat="53.304668" lon="06.598582"><ele>0.7</ele><time>2021-05-20T15:56:35Z</time><name>PT17015</name></trkpt>
<trkpt lat="53.304677" lon="06.598574"><ele>0.9</ele><time>2021-05-20T15:56:36Z</time><name>PT17016</name></trkpt>
<trkpt lat="53.304687" lon="06.598569"><ele>0.6</ele><time>2021-05-20T15:56:37Z</time><name>PT17017</name></trkpt>
<trkpt lat="53.304694" lon="06.598564"><ele>0.8</ele><time>2021-05-20T15:56:38Z</time><name>PT17018</name></trkpt>
<trkpt lat="53.304701" lon="06.598558"><ele>0.7</ele><time>2021-05-20T15:56:39Z</time><name>PT17019</name></trkpt>
<trkpt lat="53.304708" lon="06.598552"><ele>0.8</ele><time>2021-05-20T15:56:40Z</time><name>PT17020</name></trkpt>
<trkpt lat="53.304716" lon="06.598549"><ele>0.8</ele><time>2021-05-20T15:56:41Z</time><name>PT17021</name></trkpt>
<trkpt lat="53.304723" lon="06.598542"><ele>0.8</ele><time>2021-05-20T15:56:42Z</time><name>PT17022</name></trkpt>
<trkpt lat="53.304730" lon="06.598531"><ele>0.7</ele><time>2021-05-20T15:56:43Z</time><name>PT17023</name></trkpt>
<trkpt lat="53.304737" lon="06.598519"><ele>0.6</ele><time>2021-05-20T15:56:44Z</time><name>PT17024</name></trkpt>
<trkpt lat="53.304742" lon="06.598508"><ele>0.6</ele><time>2021-05-20T15:56:45Z</time><name>PT17025</name></trkpt>
<trkpt lat="53.304748" lon="06.598498"><ele>0.6</ele><time>2021-05-20T15:56:46Z</time><name>PT17026</name></trkpt>
<trkpt lat="53.304756" lon="06.598489"><ele>0.6</ele><time>2021-05-20T15:56:47Z</time><name>PT17027</name></trkpt>
<trkpt lat="53.304764" lon="06.598482"><ele>0.6</ele><time>2021-05-20T15:56:48Z</time><name>PT17028</name></trkpt>
<trkpt lat="53.304772" lon="06.598475"><ele>0.6</ele><time>2021-05-20T15:56:49Z</time><name>PT17029</name></trkpt>
<trkpt lat="53.304779" lon="06.598466"><ele>0.6</ele><time>2021-05-20T15:56:50Z</time><name>PT17030</name></trkpt>
<trkpt lat="53.304786" lon="06.598456"><ele>0.6</ele><time>2021-05-20T15:56:51Z</time><name>PT17031</name></trkpt>
<trkpt lat="53.304794" lon="06.598447"><ele>0.6</ele><time>2021-05-20T15:56:52Z</time><name>PT17032</name></trkpt>
<trkpt lat="53.304803" lon="06.598439"><ele>0.6</ele><time>2021-05-20T15:56:53Z</time><name>PT17033</name></trkpt>
<trkpt lat="53.304812" lon="06.598431"><ele>0.6</ele><time>2021-05-20T15:56:54Z</time><name>PT17034</name></trkpt>
<trkpt lat="53.304819" lon="06.598424"><ele>0.5</ele><time>2021-05-20T15:56:55Z</time><name>PT17035</name></trkpt>
<trkpt lat="53.304828" lon="06.598417"><ele>0.5</ele><time>2021-05-20T15:56:56Z</time><name>PT17036</name></trkpt>
<trkpt lat="53.304836" lon="06.598410"><ele>0.5</ele><time>2021-05-20T15:56:57Z</time><name>PT17037</name></trkpt>
<trkpt lat="53.304846" lon="06.598401"><ele>0.6</ele><time>2021-05-20T15:56:58Z</time><name>PT17038</name></trkpt>
<trkpt lat="53.304854" lon="06.598389"><ele>0.5</ele><time>2021-05-20T15:56:59Z</time><name>PT17039</name></trkpt>
<trkpt lat="53.304863" lon="06.598378"><ele>0.6</ele><time>2021-05-20T15:57:00Z</time><name>PT17040</name></trkpt>
<trkpt lat="53.304871" lon="06.598367"><ele>0.7</ele><time>2021-05-20T15:57:01Z</time><name>PT17041</name></trkpt>
<trkpt lat="53.304877" lon="06.598363"><ele>0.6</ele><time>2021-05-20T15:57:02Z</time><name>PT17042</name></trkpt>
<trkpt lat="53.304886" lon="06.598356"><ele>0.6</ele><time>2021-05-20T15:57:03Z</time><name>PT17043</name></trkpt>
<trkpt lat="53.304895" lon="06.598345"><ele>0.6</ele><time>2021-05-20T15:57:04Z</time><name>PT17044</name></trkpt>
<trkpt lat="53.304903" lon="06.598337"><ele>0.7</ele><time>2021-05-20T15:57:05Z</time><name>PT17045</name></trkpt>
<trkpt lat="53.304913" lon="06.598332"><ele>0.7</ele><time>2021-05-20T15:57:06Z</time><name>PT17046</name></trkpt>
<trkpt lat="53.304921" lon="06.598327"><ele>0.6</ele><time>2021-05-20T15:57:07Z</time><name>PT17047</name></trkpt>
<trkpt lat="53.304933" lon="06.598319"><ele>0.7</ele><time>2021-05-20T15:57:08Z</time><name>PT17048</name></trkpt>
<trkpt lat="53.304941" lon="06.598310"><ele>0.6</ele><time>2021-05-20T15:57:09Z</time><name>PT17049</name></trkpt>
<trkpt lat="53.304949" lon="06.598302"><ele>0.6</ele><time>2021-05-20T15:57:10Z</time><name>PT17050</name></trkpt>
<trkpt lat="53.304959" lon="06.598294"><ele>0.6</ele><time>2021-05-20T15:57:11Z</time><name>PT17051</name></trkpt>
<trkpt lat="53.304967" lon="06.598286"><ele>0.6</ele><time>2021-05-20T15:57:12Z</time><name>PT17052</name></trkpt>
<trkpt lat="53.304975" lon="06.598278"><ele>0.6</ele><time>2021-05-20T15:57:13Z</time><name>PT17053</name></trkpt>
<trkpt lat="53.304983" lon="06.598271"><ele>0.8</ele><time>2021-05-20T15:57:14Z</time><name>PT17054</name></trkpt>
<trkpt lat="53.304991" lon="06.598263"><ele>0.8</ele><time>2021-05-20T15:57:15Z</time><name>PT17055</name></trkpt>
<trkpt lat="53.304999" lon="06.598253"><ele>-1</ele><time>2021-05-20T15:57:16Z</time><name>PT17056</name></trkpt>
<trkpt lat="53.305010" lon="06.598244"><ele>-1.2</ele><time>2021-05-20T15:57:17Z</time><name>PT17057</name></trkpt>
<trkpt lat="53.305019" lon="06.598232"><ele>-1.2</ele><time>2021-05-20T15:57:18Z</time><name>PT17058</name></trkpt>
<trkpt lat="53.305031" lon="06.598220"><ele>-1.1</ele><time>2021-05-20T15:57:19Z</time><name>PT17059</name></trkpt>
<trkpt lat="53.305043" lon="06.598210"><ele>-1</ele><time>2021-05-20T15:57:20Z</time><name>PT17060</name></trkpt>
<trkpt lat="53.305052" lon="06.598201"><ele>0.9</ele><time>2021-05-20T15:57:21Z</time><name>PT17061</name></trkpt>
<trkpt lat="53.305062" lon="06.598195"><ele>0.7</ele><time>2021-05-20T15:57:22Z</time><name>PT17062</name></trkpt>
<trkpt lat="53.305070" lon="06.598187"><ele>0.7</ele><time>2021-05-20T15:57:23Z</time><name>PT17063</name></trkpt>
<trkpt lat="53.305080" lon="06.598177"><ele>0.7</ele><time>2021-05-20T15:57:24Z</time><name>PT17064</name></trkpt>
<trkpt lat="53.305090" lon="06.598166"><ele>0.9</ele><time>2021-05-20T15:57:25Z</time><name>PT17065</name></trkpt>
<trkpt lat="53.305098" lon="06.598157"><ele>-1</ele><time>2021-05-20T15:57:26Z</time><name>PT17066</name></trkpt>
<trkpt lat="53.305106" lon="06.598149"><ele>0.9</ele><time>2021-05-20T15:57:27Z</time><name>PT17067</name></trkpt>
<trkpt lat="53.305113" lon="06.598142"><ele>0.7</ele><time>2021-05-20T15:57:28Z</time><name>PT17068</name></trkpt>
<trkpt lat="53.305123" lon="06.598136"><ele>0.5</ele><time>2021-05-20T15:57:29Z</time><name>PT17069</name></trkpt>
<trkpt lat="53.305131" lon="06.598129"><ele>0.6</ele><time>2021-05-20T15:57:30Z</time><name>PT17070</name></trkpt>
<trkpt lat="53.305141" lon="06.598122"><ele>0.6</ele><time>2021-05-20T15:57:31Z</time><name>PT17071</name></trkpt>
<trkpt lat="53.305150" lon="06.598112"><ele>0.8</ele><time>2021-05-20T15:57:32Z</time><name>PT17072</name></trkpt>
<trkpt lat="53.305158" lon="06.598104"><ele>0.9</ele><time>2021-05-20T15:57:33Z</time><name>PT17073</name></trkpt>
<trkpt lat="53.305169" lon="06.598098"><ele>0.7</ele><time>2021-05-20T15:57:34Z</time><name>PT17074</name></trkpt>
<trkpt lat="53.305179" lon="06.598089"><ele>0.7</ele><time>2021-05-20T15:57:35Z</time><name>PT17075</name></trkpt>
<trkpt lat="53.305187" lon="06.598080"><ele>0.6</ele><time>2021-05-20T15:57:36Z</time><name>PT17076</name></trkpt>
<trkpt lat="53.305196" lon="06.598071"><ele>0.6</ele><time>2021-05-20T15:57:37Z</time><name>PT17077</name></trkpt>
<trkpt lat="53.305205" lon="06.598061"><ele>0.9</ele><time>2021-05-20T15:57:38Z</time><name>PT17078</name></trkpt>
<trkpt lat="53.305211" lon="06.598052"><ele>-1</ele><time>2021-05-20T15:57:39Z</time><name>PT17079</name></trkpt>
<trkpt lat="53.305219" lon="06.598041"><ele>-1.1</ele><time>2021-05-20T15:57:40Z</time><name>PT17080</name></trkpt>
<trkpt lat="53.305227" lon="06.598031"><ele>-1</ele><time>2021-05-20T15:57:41Z</time><name>PT17081</name></trkpt>
<trkpt lat="53.305234" lon="06.598024"><ele>0.9</ele><time>2021-05-20T15:57:42Z</time><name>PT17082</name></trkpt>
<trkpt lat="53.305241" lon="06.598016"><ele>0.6</ele><time>2021-05-20T15:57:43Z</time><name>PT17083</name></trkpt>
<trkpt lat="53.305247" lon="06.598010"><ele>0.4</ele><time>2021-05-20T15:57:44Z</time><name>PT17084</name></trkpt>
<trkpt lat="53.305250" lon="06.598007"><ele>0.5</ele><time>2021-05-20T15:57:45Z</time><name>PT17085</name></trkpt>
<trkpt lat="53.305251" lon="06.598006"><ele>0.5</ele><time>2021-05-20T15:57:46Z</time><name>PT17086</name></trkpt>
<trkpt lat="53.305251" lon="06.598006"><ele>0.5</ele><time>2021-05-20T15:57:47Z</time><name>PT17087</name></trkpt>
<trkpt lat="53.305251" lon="06.598007"><ele>0.5</ele><time>2021-05-20T15:57:48Z</time><name>PT17088</name></trkpt>
<trkpt lat="53.305257" lon="06.597999"><ele>0.9</ele><time>2021-05-20T15:57:52Z</time><name>PT17089</name></trkpt>
<trkpt lat="53.305262" lon="06.597991"><ele>0.8</ele><time>2021-05-20T15:57:53Z</time><name>PT17090</name></trkpt>
<trkpt lat="53.305274" lon="06.597984"><ele>0.8</ele><time>2021-05-20T15:57:54Z</time><name>PT17091</name></trkpt>
<trkpt lat="53.305281" lon="06.597974"><ele>0.9</ele><time>2021-05-20T15:57:55Z</time><name>PT17092</name></trkpt>
<trkpt lat="53.305289" lon="06.597965"><ele>0.9</ele><time>2021-05-20T15:57:56Z</time><name>PT17093</name></trkpt>
<trkpt lat="53.305300" lon="06.597958"><ele>0.9</ele><time>2021-05-20T15:57:57Z</time><name>PT17094</name></trkpt>
<trkpt lat="53.305308" lon="06.597954"><ele>0.8</ele><time>2021-05-20T15:57:58Z</time><name>PT17095</name></trkpt>
<trkpt lat="53.305314" lon="06.597950"><ele>0.7</ele><time>2021-05-20T15:57:59Z</time><name>PT17096</name></trkpt>
<trkpt lat="53.305319" lon="06.597946"><ele>0.8</ele><time>2021-05-20T15:58:00Z</time><name>PT17097</name></trkpt>
<trkpt lat="53.305320" lon="06.597946"><ele>-1</ele><time>2021-05-20T15:58:01Z</time><name>PT17098</name></trkpt>
<trkpt lat="53.305322" lon="06.597945"><ele>-1</ele><time>2021-05-20T15:58:02Z</time><name>PT17099</name></trkpt>
<trkpt lat="53.305323" lon="06.597945"><ele>-1.1</ele><time>2021-05-20T15:58:03Z</time><name>PT17100</name></trkpt>
<trkpt lat="53.305328" lon="06.597935"><ele>0.6</ele><time>2021-05-20T15:58:07Z</time><name>PT17101</name></trkpt>
<trkpt lat="53.305342" lon="06.597923"><ele>0.5</ele><time>2021-05-20T15:58:08Z</time><name>PT17102</name></trkpt>
<trkpt lat="53.305353" lon="06.597907"><ele>0.5</ele><time>2021-05-20T15:58:09Z</time><name>PT17103</name></trkpt>
<trkpt lat="53.305359" lon="06.597893"><ele>0.8</ele><time>2021-05-20T15:58:10Z</time><name>PT17104</name></trkpt>
<trkpt lat="53.305363" lon="06.597877"><ele>0.9</ele><time>2021-05-20T15:58:11Z</time><name>PT17105</name></trkpt>
<trkpt lat="53.305366" lon="06.597864"><ele>0.8</ele><time>2021-05-20T15:58:12Z</time><name>PT17106</name></trkpt>
<trkpt lat="53.305372" lon="06.597852"><ele>-1</ele><time>2021-05-20T15:58:13Z</time><name>PT17107</name></trkpt>
<trkpt lat="53.305379" lon="06.597841"><ele>-1.2</ele><time>2021-05-20T15:58:14Z</time><name>PT17108</name></trkpt>
<trkpt lat="53.305388" lon="06.597830"><ele>-1.3</ele><time>2021-05-20T15:58:15Z</time><name>PT17109</name></trkpt>
<trkpt lat="53.305398" lon="06.597820"><ele>-1.5</ele><time>2021-05-20T15:58:16Z</time><name>PT17110</name></trkpt>
<trkpt lat="53.305407" lon="06.597813"><ele>-1.7</ele><time>2021-05-20T15:58:17Z</time><name>PT17111</name></trkpt>
<trkpt lat="53.305415" lon="06.597806"><ele>-1.5</ele><time>2021-05-20T15:58:18Z</time><name>PT17112</name></trkpt>
<trkpt lat="53.305423" lon="06.597797"><ele>-1.4</ele><time>2021-05-20T15:58:19Z</time><name>PT17113</name></trkpt>
<trkpt lat="53.305430" lon="06.597788"><ele>-1.3</ele><time>2021-05-20T15:58:20Z</time><name>PT17114</name></trkpt>
<trkpt lat="53.305438" lon="06.597781"><ele>-1.2</ele><time>2021-05-20T15:58:21Z</time><name>PT17115</name></trkpt>
<trkpt lat="53.305442" lon="06.597775"><ele>-1.3</ele><time>2021-05-20T15:58:22Z</time><name>PT17116</name></trkpt>
<trkpt lat="53.305445" lon="06.597771"><ele>-1.3</ele><time>2021-05-20T15:58:23Z</time><name>PT17117</name></trkpt>
<trkpt lat="53.305450" lon="06.597767"><ele>-1.4</ele><time>2021-05-20T15:58:24Z</time><name>PT17118</name></trkpt>
<trkpt lat="53.305454" lon="06.597752"><ele>-1.1</ele><time>2021-05-20T15:58:39Z</time><name>PT17119</name></trkpt>
<trkpt lat="53.305459" lon="06.597738"><ele>-1.1</ele><time>2021-05-20T15:58:40Z</time><name>PT17120</name></trkpt>
<trkpt lat="53.305469" lon="06.597725"><ele>-1.2</ele><time>2021-05-20T15:58:41Z</time><name>PT17121</name></trkpt>
<trkpt lat="53.305478" lon="06.597721"><ele>-1.1</ele><time>2021-05-20T15:58:43Z</time><name>PT17122</name></trkpt>
<trkpt lat="53.305486" lon="06.597710"><ele>-1.2</ele><time>2021-05-20T15:58:44Z</time><name>PT17123</name></trkpt>
<trkpt lat="53.305495" lon="06.597694"><ele>-1.2</ele><time>2021-05-20T15:58:45Z</time><name>PT17124</name></trkpt>
<trkpt lat="53.305504" lon="06.597681"><ele>-1.1</ele><time>2021-05-20T15:58:46Z</time><name>PT17125</name></trkpt>
<trkpt lat="53.305516" lon="06.597671"><ele>-1.1</ele><time>2021-05-20T15:58:47Z</time><name>PT17126</name></trkpt>
<trkpt lat="53.305526" lon="06.597660"><ele>-1.2</ele><time>2021-05-20T15:58:48Z</time><name>PT17127</name></trkpt>
<trkpt lat="53.305535" lon="06.597652"><ele>-1.2</ele><time>2021-05-20T15:58:49Z</time><name>PT17128</name></trkpt>
<trkpt lat="53.305544" lon="06.597642"><ele>-1.2</ele><time>2021-05-20T15:58:50Z</time><name>PT17129</name></trkpt>
<trkpt lat="53.305552" lon="06.597633"><ele>-1.3</ele><time>2021-05-20T15:58:51Z</time><name>PT17130</name></trkpt>
<trkpt lat="53.305561" lon="06.597625"><ele>-1.1</ele><time>2021-05-20T15:58:52Z</time><name>PT17131</name></trkpt>
<trkpt lat="53.305572" lon="06.597617"><ele>-1.1</ele><time>2021-05-20T15:58:53Z</time><name>PT17132</name></trkpt>
<trkpt lat="53.305580" lon="06.597612"><ele>-1.1</ele><time>2021-05-20T15:58:54Z</time><name>PT17133</name></trkpt>
<trkpt lat="53.305590" lon="06.597607"><ele>-1.2</ele><time>2021-05-20T15:58:55Z</time><name>PT17134</name></trkpt>
<trkpt lat="53.305599" lon="06.597601"><ele>-1.1</ele><time>2021-05-20T15:58:56Z</time><name>PT17135</name></trkpt>
<trkpt lat="53.305607" lon="06.597597"><ele>-1.1</ele><time>2021-05-20T15:58:57Z</time><name>PT17136</name></trkpt>
<trkpt lat="53.305616" lon="06.597594"><ele>-1.2</ele><time>2021-05-20T15:58:58Z</time><name>PT17137</name></trkpt>
<trkpt lat="53.305625" lon="06.597591"><ele>-1.1</ele><time>2021-05-20T15:58:59Z</time><name>PT17138</name></trkpt>
<trkpt lat="53.305633" lon="06.597584"><ele>-1</ele><time>2021-05-20T15:59:00Z</time><name>PT17139</name></trkpt>
<trkpt lat="53.305643" lon="06.597578"><ele>-1</ele><time>2021-05-20T15:59:01Z</time><name>PT17140</name></trkpt>
<trkpt lat="53.305652" lon="06.597570"><ele>0.9</ele><time>2021-05-20T15:59:02Z</time><name>PT17141</name></trkpt>
<trkpt lat="53.305661" lon="06.597563"><ele>0.8</ele><time>2021-05-20T15:59:03Z</time><name>PT17142</name></trkpt>
<trkpt lat="53.305669" lon="06.597557"><ele>-1</ele><time>2021-05-20T15:59:04Z</time><name>PT17143</name></trkpt>
<trkpt lat="53.305677" lon="06.597547"><ele>-1.1</ele><time>2021-05-20T15:59:05Z</time><name>PT17144</name></trkpt>
<trkpt lat="53.305684" lon="06.597537"><ele>-1.1</ele><time>2021-05-20T15:59:06Z</time><name>PT17145</name></trkpt>
<trkpt lat="53.305693" lon="06.597529"><ele>-1.3</ele><time>2021-05-20T15:59:07Z</time><name>PT17146</name></trkpt>
<trkpt lat="53.305702" lon="06.597521"><ele>-1.2</ele><time>2021-05-20T15:59:08Z</time><name>PT17147</name></trkpt>
<trkpt lat="53.305710" lon="06.597513"><ele>-1.4</ele><time>2021-05-20T15:59:09Z</time><name>PT17148</name></trkpt>
<trkpt lat="53.305718" lon="06.597505"><ele>-1.4</ele><time>2021-05-20T15:59:10Z</time><name>PT17149</name></trkpt>
<trkpt lat="53.305727" lon="06.597495"><ele>-1.5</ele><time>2021-05-20T15:59:11Z</time><name>PT17150</name></trkpt>
<trkpt lat="53.305736" lon="06.597487"><ele>-1.6</ele><time>2021-05-20T15:59:12Z</time><name>PT17151</name></trkpt>
<trkpt lat="53.305746" lon="06.597481"><ele>-1.4</ele><time>2021-05-20T15:59:13Z</time><name>PT17152</name></trkpt>
<trkpt lat="53.305757" lon="06.597473"><ele>-1.1</ele><time>2021-05-20T15:59:14Z</time><name>PT17153</name></trkpt>
<trkpt lat="53.305766" lon="06.597466"><ele>-1</ele><time>2021-05-20T15:59:15Z</time><name>PT17154</name></trkpt>
<trkpt lat="53.305774" lon="06.597456"><ele>-1.1</ele><time>2021-05-20T15:59:16Z</time><name>PT17155</name></trkpt>
<trkpt lat="53.305782" lon="06.597445"><ele>-1.2</ele><time>2021-05-20T15:59:17Z</time><name>PT17156</name></trkpt>
<trkpt lat="53.305791" lon="06.597439"><ele>-1.2</ele><time>2021-05-20T15:59:18Z</time><name>PT17157</name></trkpt>
<trkpt lat="53.305801" lon="06.597431"><ele>-1.4</ele><time>2021-05-20T15:59:19Z</time><name>PT17158</name></trkpt>
<trkpt lat="53.305809" lon="06.597427"><ele>-1.3</ele><time>2021-05-20T15:59:20Z</time><name>PT17159</name></trkpt>
<trkpt lat="53.305817" lon="06.597419"><ele>-1.3</ele><time>2021-05-20T15:59:21Z</time><name>PT17160</name></trkpt>
<trkpt lat="53.305824" lon="06.597410"><ele>-1.3</ele><time>2021-05-20T15:59:22Z</time><name>PT17161</name></trkpt>
<trkpt lat="53.305833" lon="06.597403"><ele>-1.3</ele><time>2021-05-20T15:59:23Z</time><name>PT17162</name></trkpt>
<trkpt lat="53.305842" lon="06.597399"><ele>-1.3</ele><time>2021-05-20T15:59:24Z</time><name>PT17163</name></trkpt>
<trkpt lat="53.305851" lon="06.597393"><ele>-1.3</ele><time>2021-05-20T15:59:25Z</time><name>PT17164</name></trkpt>
<trkpt lat="53.305859" lon="06.597384"><ele>-1.2</ele><time>2021-05-20T15:59:26Z</time><name>PT17165</name></trkpt>
<trkpt lat="53.305869" lon="06.597376"><ele>-1.3</ele><time>2021-05-20T15:59:27Z</time><name>PT17166</name></trkpt>
<trkpt lat="53.305876" lon="06.597370"><ele>-1.4</ele><time>2021-05-20T15:59:28Z</time><name>PT17167</name></trkpt>
<trkpt lat="53.305883" lon="06.597364"><ele>-1.5</ele><time>2021-05-20T15:59:29Z</time><name>PT17168</name></trkpt>
<trkpt lat="53.305891" lon="06.597358"><ele>-1.5</ele><time>2021-05-20T15:59:30Z</time><name>PT17169</name></trkpt>
<trkpt lat="53.305897" lon="06.597350"><ele>-1.5</ele><time>2021-05-20T15:59:31Z</time><name>PT17170</name></trkpt>
<trkpt lat="53.305904" lon="06.597343"><ele>-1.5</ele><time>2021-05-20T15:59:32Z</time><name>PT17171</name></trkpt>
<trkpt lat="53.305911" lon="06.597340"><ele>-1.5</ele><time>2021-05-20T15:59:33Z</time><name>PT17172</name></trkpt>
<trkpt lat="53.305917" lon="06.597340"><ele>-1.5</ele><time>2021-05-20T15:59:34Z</time><name>PT17173</name></trkpt>
<trkpt lat="53.305921" lon="06.597337"><ele>-1.6</ele><time>2021-05-20T15:59:35Z</time><name>PT17174</name></trkpt>
<trkpt lat="53.305922" lon="06.597333"><ele>-1.2</ele><time>2021-05-20T15:59:46Z</time><name>PT17175</name></trkpt>
<trkpt lat="53.305927" lon="06.597327"><ele>-1</ele><time>2021-05-20T15:59:47Z</time><name>PT17176</name></trkpt>
<trkpt lat="53.305935" lon="06.597319"><ele>-1.1</ele><time>2021-05-20T15:59:48Z</time><name>PT17177</name></trkpt>
<trkpt lat="53.305943" lon="06.597314"><ele>-1.3</ele><time>2021-05-20T15:59:49Z</time><name>PT17178</name></trkpt>
<trkpt lat="53.305952" lon="06.597306"><ele>-1.2</ele><time>2021-05-20T15:59:50Z</time><name>PT17179</name></trkpt>
<trkpt lat="53.305960" lon="06.597299"><ele>-1.2</ele><time>2021-05-20T15:59:51Z</time><name>PT17180</name></trkpt>
<trkpt lat="53.305969" lon="06.597293"><ele>-1.4</ele><time>2021-05-20T15:59:52Z</time><name>PT17181</name></trkpt>
<trkpt lat="53.305976" lon="06.597286"><ele>-1.2</ele><time>2021-05-20T15:59:53Z</time><name>PT17182</name></trkpt>
<trkpt lat="53.305983" lon="06.597280"><ele>-1</ele><time>2021-05-20T15:59:54Z</time><name>PT17183</name></trkpt>
<trkpt lat="53.305991" lon="06.597274"><ele>-1</ele><time>2021-05-20T15:59:55Z</time><name>PT17184</name></trkpt>
<trkpt lat="53.305997" lon="06.597269"><ele>-1</ele><time>2021-05-20T15:59:56Z</time><name>PT17185</name></trkpt>
<trkpt lat="53.306004" lon="06.597262"><ele>-1</ele><time>2021-05-20T15:59:57Z</time><name>PT17186</name></trkpt>
<trkpt lat="53.306011" lon="06.597257"><ele>-1</ele><time>2021-05-20T15:59:58Z</time><name>PT17187</name></trkpt>
<trkpt lat="53.306015" lon="06.597254"><ele>-1</ele><time>2021-05-20T15:59:59Z</time><name>PT17188</name></trkpt>
<trkpt lat="53.306017" lon="06.597252"><ele>-1.3</ele><time>2021-05-20T16:00:00Z</time><name>PT17189</name></trkpt>
<trkpt lat="53.306016" lon="06.597249"><ele>-1.3</ele><time>2021-05-20T16:00:01Z</time><name>PT17190</name></trkpt>
<trkpt lat="53.306018" lon="06.597249"><ele>-1.4</ele><time>2021-05-20T16:00:02Z</time><name>PT17191</name></trkpt>
<trkpt lat="53.306019" lon="06.597249"><ele>-1.5</ele><time>2021-05-20T16:00:03Z</time><name>PT17192</name></trkpt>
<trkpt lat="53.306018" lon="06.597249"><ele>-1.6</ele><time>2021-05-20T16:00:04Z</time><name>PT17193</name></trkpt>
<trkpt lat="53.306021" lon="06.597241"><ele>-1.7</ele><time>2021-05-20T16:00:07Z</time><name>PT17194</name></trkpt>
<trkpt lat="53.306021" lon="06.597223"><ele>-1.5</ele><time>2021-05-20T16:00:08Z</time><name>PT17195</name></trkpt>
<trkpt lat="53.306018" lon="06.597205"><ele>-1.4</ele><time>2021-05-20T16:00:09Z</time><name>PT17196</name></trkpt>
<trkpt lat="53.306013" lon="06.597190"><ele>-1.2</ele><time>2021-05-20T16:00:10Z</time><name>PT17197</name></trkpt>
<trkpt lat="53.306010" lon="06.597175"><ele>-1.2</ele><time>2021-05-20T16:00:11Z</time><name>PT17198</name></trkpt>
<trkpt lat="53.306008" lon="06.597158"><ele>-1.2</ele><time>2021-05-20T16:00:12Z</time><name>PT17199</name></trkpt>
<trkpt lat="53.306005" lon="06.597145"><ele>-1.3</ele><time>2021-05-20T16:00:13Z</time><name>PT17200</name></trkpt>
<trkpt lat="53.306000" lon="06.597132"><ele>-1.2</ele><time>2021-05-20T16:00:14Z</time><name>PT17201</name></trkpt>
<trkpt lat="53.305996" lon="06.597119"><ele>-1.4</ele><time>2021-05-20T16:00:15Z</time><name>PT17202</name></trkpt>
<trkpt lat="53.305992" lon="06.597106"><ele>-1.4</ele><time>2021-05-20T16:00:16Z</time><name>PT17203</name></trkpt>
<trkpt lat="53.305990" lon="06.597092"><ele>-1.6</ele><time>2021-05-20T16:00:17Z</time><name>PT17204</name></trkpt>
<trkpt lat="53.305988" lon="06.597078"><ele>-1.6</ele><time>2021-05-20T16:00:18Z</time><name>PT17205</name></trkpt>
<trkpt lat="53.305986" lon="06.597063"><ele>-1.7</ele><time>2021-05-20T16:00:19Z</time><name>PT17206</name></trkpt>
<trkpt lat="53.305983" lon="06.597048"><ele>-1.5</ele><time>2021-05-20T16:00:20Z</time><name>PT17207</name></trkpt>
<trkpt lat="53.305984" lon="06.597037"><ele>-1.5</ele><time>2021-05-20T16:00:21Z</time><name>PT17208</name></trkpt>
<trkpt lat="53.305986" lon="06.597031"><ele>-1.5</ele><time>2021-05-20T16:00:22Z</time><name>PT17209</name></trkpt>
<trkpt lat="53.305991" lon="06.597028"><ele>-1.2</ele><time>2021-05-20T16:00:23Z</time><name>PT17210</name></trkpt>
<trkpt lat="53.305998" lon="06.597026"><ele>-1.2</ele><time>2021-05-20T16:00:24Z</time><name>PT17211</name></trkpt>
<trkpt lat="53.306003" lon="06.597025"><ele>-1</ele><time>2021-05-20T16:00:25Z</time><name>PT17212</name></trkpt>
<trkpt lat="53.306009" lon="06.597020"><ele>0.9</ele><time>2021-05-20T16:00:26Z</time><name>PT17213</name></trkpt>
<trkpt lat="53.306015" lon="06.597016"><ele>0.8</ele><time>2021-05-20T16:00:27Z</time><name>PT17214</name></trkpt>
<trkpt lat="53.306022" lon="06.597014"><ele>0.8</ele><time>2021-05-20T16:00:28Z</time><name>PT17215</name></trkpt>
<trkpt lat="53.306029" lon="06.597013"><ele>-1</ele><time>2021-05-20T16:00:29Z</time><name>PT17216</name></trkpt>
<trkpt lat="53.306035" lon="06.597012"><ele>-1</ele><time>2021-05-20T16:00:30Z</time><name>PT17217</name></trkpt>
<trkpt lat="53.306041" lon="06.597016"><ele>-1.1</ele><time>2021-05-20T16:00:31Z</time><name>PT17218</name></trkpt>
<trkpt lat="53.306047" lon="06.597017"><ele>-1.2</ele><time>2021-05-20T16:00:32Z</time><name>PT17219</name></trkpt>
<trkpt lat="53.306049" lon="06.597016"><ele>-1.2</ele><time>2021-05-20T16:00:33Z</time><name>PT17220</name></trkpt>
<trkpt lat="53.306051" lon="06.597015"><ele>-1.3</ele><time>2021-05-20T16:00:34Z</time><name>PT17221</name></trkpt>
<trkpt lat="53.306053" lon="06.597016"><ele>-1</ele><time>2021-05-20T16:00:35Z</time><name>PT17222</name></trkpt>
<trkpt lat="53.306053" lon="06.597015"><ele>-1.1</ele><time>2021-05-20T16:00:36Z</time><name>PT17223</name></trkpt>
<trkpt lat="53.306054" lon="06.597023"><ele>1.2</ele><time>2021-05-20T16:19:36Z</time><name>PT17224</name></trkpt>
<trkpt lat="53.306050" lon="06.597026"><ele>1.7</ele><time>2021-05-20T16:19:57Z</time><name>PT17225</name></trkpt>
<trkpt lat="53.306052" lon="06.597025"><ele>1.7</ele><time>2021-05-20T16:19:58Z</time><name>PT17226</name></trkpt>
<trkpt lat="53.306058" lon="06.597022"><ele>1.7</ele><time>2021-05-20T16:19:59Z</time><name>PT17227</name></trkpt>
<trkpt lat="53.306065" lon="06.597016"><ele>1.6</ele><time>2021-05-20T16:20:00Z</time><name>PT17228</name></trkpt>
<trkpt lat="53.306069" lon="06.597008"><ele>1.4</ele><time>2021-05-20T16:20:01Z</time><name>PT17229</name></trkpt>
<trkpt lat="53.306071" lon="06.597005"><ele>1.7</ele><time>2021-05-20T16:20:02Z</time><name>PT17230</name></trkpt>
<trkpt lat="53.306078" lon="06.597006"><ele>1.7</ele><time>2021-05-20T16:20:03Z</time><name>PT17231</name></trkpt>
<trkpt lat="53.306085" lon="06.597008"><ele>1.6</ele><time>2021-05-20T16:20:04Z</time><name>PT17232</name></trkpt>
<trkpt lat="53.306093" lon="06.597006"><ele>1.7</ele><time>2021-05-20T16:20:05Z</time><name>PT17233</name></trkpt>
<trkpt lat="53.306100" lon="06.597004"><ele>1.8</ele><time>2021-05-20T16:20:06Z</time><name>PT17234</name></trkpt>
<trkpt lat="53.306108" lon="06.597002"><ele>1.7</ele><time>2021-05-20T16:20:07Z</time><name>PT17235</name></trkpt>
<trkpt lat="53.306115" lon="06.597001"><ele>1.7</ele><time>2021-05-20T16:20:08Z</time><name>PT17236</name></trkpt>
<trkpt lat="53.306122" lon="06.597002"><ele>1.7</ele><time>2021-05-20T16:20:09Z</time><name>PT17237</name></trkpt>
<trkpt lat="53.306131" lon="06.597003"><ele>1.5</ele><time>2021-05-20T16:20:10Z</time><name>PT17238</name></trkpt>
<trkpt lat="53.306139" lon="06.597001"><ele>1.6</ele><time>2021-05-20T16:20:11Z</time><name>PT17239</name></trkpt>
<trkpt lat="53.306146" lon="06.597001"><ele>1.5</ele><time>2021-05-20T16:20:12Z</time><name>PT17240</name></trkpt>
<trkpt lat="53.306154" lon="06.597003"><ele>1.7</ele><time>2021-05-20T16:20:13Z</time><name>PT17241</name></trkpt>
<trkpt lat="53.306162" lon="06.597004"><ele>1.6</ele><time>2021-05-20T16:20:14Z</time><name>PT17242</name></trkpt>
<trkpt lat="53.306172" lon="06.597001"><ele>1.6</ele><time>2021-05-20T16:20:15Z</time><name>PT17243</name></trkpt>
<trkpt lat="53.306179" lon="06.596993"><ele>1.4</ele><time>2021-05-20T16:20:16Z</time><name>PT17244</name></trkpt>
<trkpt lat="53.306182" lon="06.596980"><ele>1.4</ele><time>2021-05-20T16:20:17Z</time><name>PT17245</name></trkpt>
<trkpt lat="53.306184" lon="06.596968"><ele>1.3</ele><time>2021-05-20T16:20:18Z</time><name>PT17246</name></trkpt>
<trkpt lat="53.306184" lon="06.596949"><ele>1.4</ele><time>2021-05-20T16:20:19Z</time><name>PT17247</name></trkpt>
<trkpt lat="53.306188" lon="06.596922"><ele>1.3</ele><time>2021-05-20T16:20:20Z</time><name>PT17248</name></trkpt>
<trkpt lat="53.306192" lon="06.596903"><ele>1.3</ele><time>2021-05-20T16:20:21Z</time><name>PT17249</name></trkpt>
<trkpt lat="53.306195" lon="06.596885"><ele>1.3</ele><time>2021-05-20T16:20:22Z</time><name>PT17250</name></trkpt>
<trkpt lat="53.306197" lon="06.596871"><ele>1</ele><time>2021-05-20T16:20:23Z</time><name>PT17251</name></trkpt>
<trkpt lat="53.306200" lon="06.596856"><ele>1</ele><time>2021-05-20T16:20:24Z</time><name>PT17252</name></trkpt>
<trkpt lat="53.306200" lon="06.596841"><ele>1.1</ele><time>2021-05-20T16:20:25Z</time><name>PT17253</name></trkpt>
<trkpt lat="53.306202" lon="06.596825"><ele>1</ele><time>2021-05-20T16:20:26Z</time><name>PT17254</name></trkpt>
<trkpt lat="53.306203" lon="06.596806"><ele>1.2</ele><time>2021-05-20T16:20:27Z</time><name>PT17255</name></trkpt>
<trkpt lat="53.306205" lon="06.596789"><ele>1.3</ele><time>2021-05-20T16:20:28Z</time><name>PT17256</name></trkpt>
<trkpt lat="53.306206" lon="06.596769"><ele>1.4</ele><time>2021-05-20T16:20:29Z</time><name>PT17257</name></trkpt>
<trkpt lat="53.306207" lon="06.596751"><ele>1.4</ele><time>2021-05-20T16:20:30Z</time><name>PT17258</name></trkpt>
<trkpt lat="53.306210" lon="06.596737"><ele>1.5</ele><time>2021-05-20T16:20:31Z</time><name>PT17259</name></trkpt>
<trkpt lat="53.306211" lon="06.596724"><ele>1.6</ele><time>2021-05-20T16:20:32Z</time><name>PT17260</name></trkpt>
<trkpt lat="53.306211" lon="06.596716"><ele>1.7</ele><time>2021-05-20T16:20:33Z</time><name>PT17261</name></trkpt>
<trkpt lat="53.306210" lon="06.596708"><ele>1.7</ele><time>2021-05-20T16:20:34Z</time><name>PT17262</name></trkpt>
<trkpt lat="53.306210" lon="06.596696"><ele>1.7</ele><time>2021-05-20T16:20:35Z</time><name>PT17263</name></trkpt>
<trkpt lat="53.306212" lon="06.596684"><ele>1.7</ele><time>2021-05-20T16:20:36Z</time><name>PT17264</name></trkpt>
<trkpt lat="53.306214" lon="06.596669"><ele>1.6</ele><time>2021-05-20T16:20:37Z</time><name>PT17265</name></trkpt>
<trkpt lat="53.306215" lon="06.596652"><ele>1.4</ele><time>2021-05-20T16:20:38Z</time><name>PT17266</name></trkpt>
<trkpt lat="53.306216" lon="06.596637"><ele>1.3</ele><time>2021-05-20T16:20:39Z</time><name>PT17267</name></trkpt>
<trkpt lat="53.306216" lon="06.596619"><ele>1.4</ele><time>2021-05-20T16:20:40Z</time><name>PT17268</name></trkpt>
<trkpt lat="53.306218" lon="06.596598"><ele>1.3</ele><time>2021-05-20T16:20:41Z</time><name>PT17269</name></trkpt>
<trkpt lat="53.306219" lon="06.596581"><ele>1.6</ele><time>2021-05-20T16:20:42Z</time><name>PT17270</name></trkpt>
<trkpt lat="53.306219" lon="06.596564"><ele>1.5</ele><time>2021-05-20T16:20:43Z</time><name>PT17271</name></trkpt>
<trkpt lat="53.306218" lon="06.596548"><ele>1.5</ele><time>2021-05-20T16:20:44Z</time><name>PT17272</name></trkpt>
<trkpt lat="53.306218" lon="06.596530"><ele>1.5</ele><time>2021-05-20T16:20:45Z</time><name>PT17273</name></trkpt>
<trkpt lat="53.306220" lon="06.596514"><ele>1.5</ele><time>2021-05-20T16:20:46Z</time><name>PT17274</name></trkpt>
<trkpt lat="53.306221" lon="06.596496"><ele>1.3</ele><time>2021-05-20T16:20:47Z</time><name>PT17275</name></trkpt>
<trkpt lat="53.306223" lon="06.596481"><ele>1.4</ele><time>2021-05-20T16:20:48Z</time><name>PT17276</name></trkpt>
<trkpt lat="53.306223" lon="06.596465"><ele>1.6</ele><time>2021-05-20T16:20:49Z</time><name>PT17277</name></trkpt>
<trkpt lat="53.306224" lon="06.596451"><ele>1.5</ele><time>2021-05-20T16:20:50Z</time><name>PT17278</name></trkpt>
<trkpt lat="53.306224" lon="06.596435"><ele>1.7</ele><time>2021-05-20T16:20:51Z</time><name>PT17279</name></trkpt>
<trkpt lat="53.306224" lon="06.596419"><ele>1.7</ele><time>2021-05-20T16:20:52Z</time><name>PT17280</name></trkpt>
<trkpt lat="53.306227" lon="06.596403"><ele>1.7</ele><time>2021-05-20T16:20:53Z</time><name>PT17281</name></trkpt>
<trkpt lat="53.306231" lon="06.596382"><ele>1.7</ele><time>2021-05-20T16:20:54Z</time><name>PT17282</name></trkpt>
<trkpt lat="53.306233" lon="06.596368"><ele>1.5</ele><time>2021-05-20T16:20:55Z</time><name>PT17283</name></trkpt>
<trkpt lat="53.306233" lon="06.596355"><ele>1.6</ele><time>2021-05-20T16:20:56Z</time><name>PT17284</name></trkpt>
<trkpt lat="53.306233" lon="06.596341"><ele>1.7</ele><time>2021-05-20T16:20:57Z</time><name>PT17285</name></trkpt>
<trkpt lat="53.306235" lon="06.596324"><ele>1.8</ele><time>2021-05-20T16:20:58Z</time><name>PT17286</name></trkpt>
<trkpt lat="53.306237" lon="06.596310"><ele>1.9</ele><time>2021-05-20T16:20:59Z</time><name>PT17287</name></trkpt>
<trkpt lat="53.306238" lon="06.596293"><ele>2.1</ele><time>2021-05-20T16:21:00Z</time><name>PT17288</name></trkpt>
<trkpt lat="53.306239" lon="06.596277"><ele>2</ele><time>2021-05-20T16:21:01Z</time><name>PT17289</name></trkpt>
<trkpt lat="53.306240" lon="06.596262"><ele>1.9</ele><time>2021-05-20T16:21:02Z</time><name>PT17290</name></trkpt>
<trkpt lat="53.306241" lon="06.596247"><ele>1.8</ele><time>2021-05-20T16:21:03Z</time><name>PT17291</name></trkpt>
<trkpt lat="53.306242" lon="06.596231"><ele>1.8</ele><time>2021-05-20T16:21:04Z</time><name>PT17292</name></trkpt>
<trkpt lat="53.306244" lon="06.596215"><ele>1.9</ele><time>2021-05-20T16:21:05Z</time><name>PT17293</name></trkpt>
<trkpt lat="53.306244" lon="06.596200"><ele>1.8</ele><time>2021-05-20T16:21:06Z</time><name>PT17294</name></trkpt>
<trkpt lat="53.306246" lon="06.596184"><ele>1.8</ele><time>2021-05-20T16:21:07Z</time><name>PT17295</name></trkpt>
<trkpt lat="53.306247" lon="06.596167"><ele>1.9</ele><time>2021-05-20T16:21:08Z</time><name>PT17296</name></trkpt>
<trkpt lat="53.306249" lon="06.596150"><ele>1.9</ele><time>2021-05-20T16:21:09Z</time><name>PT17297</name></trkpt>
<trkpt lat="53.306250" lon="06.596135"><ele>1.8</ele><time>2021-05-20T16:21:10Z</time><name>PT17298</name></trkpt>
<trkpt lat="53.306250" lon="06.596119"><ele>1.7</ele><time>2021-05-20T16:21:11Z</time><name>PT17299</name></trkpt>
<trkpt lat="53.306250" lon="06.596103"><ele>1.7</ele><time>2021-05-20T16:21:12Z</time><name>PT17300</name></trkpt>
<trkpt lat="53.306251" lon="06.596086"><ele>1.5</ele><time>2021-05-20T16:21:13Z</time><name>PT17301</name></trkpt>
<trkpt lat="53.306254" lon="06.596071"><ele>1.5</ele><time>2021-05-20T16:21:14Z</time><name>PT17302</name></trkpt>
<trkpt lat="53.306257" lon="06.596054"><ele>1.8</ele><time>2021-05-20T16:21:15Z</time><name>PT17303</name></trkpt>
<trkpt lat="53.306259" lon="06.596037"><ele>1.7</ele><time>2021-05-20T16:21:16Z</time><name>PT17304</name></trkpt>
<trkpt lat="53.306263" lon="06.596020"><ele>1.7</ele><time>2021-05-20T16:21:17Z</time><name>PT17305</name></trkpt>
<trkpt lat="53.306261" lon="06.596004"><ele>2</ele><time>2021-05-20T16:21:18Z</time><name>PT17306</name></trkpt>
<trkpt lat="53.306261" lon="06.595988"><ele>1.8</ele><time>2021-05-20T16:21:19Z</time><name>PT17307</name></trkpt>
<trkpt lat="53.306262" lon="06.595970"><ele>1.8</ele><time>2021-05-20T16:21:20Z</time><name>PT17308</name></trkpt>
<trkpt lat="53.306265" lon="06.595954"><ele>1.9</ele><time>2021-05-20T16:21:21Z</time><name>PT17309</name></trkpt>
<trkpt lat="53.306266" lon="06.595937"><ele>1.9</ele><time>2021-05-20T16:21:22Z</time><name>PT17310</name></trkpt>
<trkpt lat="53.306268" lon="06.595921"><ele>1.8</ele><time>2021-05-20T16:21:23Z</time><name>PT17311</name></trkpt>
<trkpt lat="53.306269" lon="06.595905"><ele>1.9</ele><time>2021-05-20T16:21:24Z</time><name>PT17312</name></trkpt>
<trkpt lat="53.306269" lon="06.595890"><ele>2</ele><time>2021-05-20T16:21:25Z</time><name>PT17313</name></trkpt>
<trkpt lat="53.306272" lon="06.595877"><ele>1.8</ele><time>2021-05-20T16:21:26Z</time><name>PT17314</name></trkpt>
<trkpt lat="53.306272" lon="06.595857"><ele>1.8</ele><time>2021-05-20T16:21:27Z</time><name>PT17315</name></trkpt>
<trkpt lat="53.306274" lon="06.595840"><ele>1.9</ele><time>2021-05-20T16:21:28Z</time><name>PT17316</name></trkpt>
<trkpt lat="53.306276" lon="06.595827"><ele>1.7</ele><time>2021-05-20T16:21:29Z</time><name>PT17317</name></trkpt>
<trkpt lat="53.306276" lon="06.595811"><ele>1.8</ele><time>2021-05-20T16:21:30Z</time><name>PT17318</name></trkpt>
<trkpt lat="53.306275" lon="06.595796"><ele>1.8</ele><time>2021-05-20T16:21:31Z</time><name>PT17319</name></trkpt>
<trkpt lat="53.306274" lon="06.595780"><ele>1.7</ele><time>2021-05-20T16:21:32Z</time><name>PT17320</name></trkpt>
<trkpt lat="53.306275" lon="06.595763"><ele>1.8</ele><time>2021-05-20T16:21:33Z</time><name>PT17321</name></trkpt>
<trkpt lat="53.306277" lon="06.595743"><ele>1.8</ele><time>2021-05-20T16:21:34Z</time><name>PT17322</name></trkpt>
<trkpt lat="53.306278" lon="06.595726"><ele>1.7</ele><time>2021-05-20T16:21:35Z</time><name>PT17323</name></trkpt>
<trkpt lat="53.306279" lon="06.595712"><ele>1.9</ele><time>2021-05-20T16:21:36Z</time><name>PT17324</name></trkpt>
<trkpt lat="53.306280" lon="06.595698"><ele>1.8</ele><time>2021-05-20T16:21:37Z</time><name>PT17325</name></trkpt>
<trkpt lat="53.306280" lon="06.595683"><ele>1.9</ele><time>2021-05-20T16:21:38Z</time><name>PT17326</name></trkpt>
<trkpt lat="53.306281" lon="06.595665"><ele>1.9</ele><time>2021-05-20T16:21:39Z</time><name>PT17327</name></trkpt>
<trkpt lat="53.306282" lon="06.595647"><ele>1.8</ele><time>2021-05-20T16:21:40Z</time><name>PT17328</name></trkpt>
<trkpt lat="53.306282" lon="06.595629"><ele>1.7</ele><time>2021-05-20T16:21:41Z</time><name>PT17329</name></trkpt>
<trkpt lat="53.306284" lon="06.595612"><ele>1.5</ele><time>2021-05-20T16:21:42Z</time><name>PT17330</name></trkpt>
<trkpt lat="53.306287" lon="06.595594"><ele>1.3</ele><time>2021-05-20T16:21:43Z</time><name>PT17331</name></trkpt>
<trkpt lat="53.306289" lon="06.595577"><ele>1.4</ele><time>2021-05-20T16:21:44Z</time><name>PT17332</name></trkpt>
<trkpt lat="53.306286" lon="06.595562"><ele>1.4</ele><time>2021-05-20T16:21:45Z</time><name>PT17333</name></trkpt>
<trkpt lat="53.306286" lon="06.595548"><ele>1.7</ele><time>2021-05-20T16:21:46Z</time><name>PT17334</name></trkpt>
<trkpt lat="53.306289" lon="06.595533"><ele>1.9</ele><time>2021-05-20T16:21:47Z</time><name>PT17335</name></trkpt>
<trkpt lat="53.306290" lon="06.595517"><ele>2</ele><time>2021-05-20T16:21:48Z</time><name>PT17336</name></trkpt>
<trkpt lat="53.306293" lon="06.595501"><ele>2</ele><time>2021-05-20T16:21:49Z</time><name>PT17337</name></trkpt>
<trkpt lat="53.306293" lon="06.595483"><ele>2</ele><time>2021-05-20T16:21:50Z</time><name>PT17338</name></trkpt>
<trkpt lat="53.306293" lon="06.595466"><ele>1.9</ele><time>2021-05-20T16:21:51Z</time><name>PT17339</name></trkpt>
<trkpt lat="53.306292" lon="06.595449"><ele>1.9</ele><time>2021-05-20T16:21:52Z</time><name>PT17340</name></trkpt>
<trkpt lat="53.306292" lon="06.595432"><ele>1.8</ele><time>2021-05-20T16:21:53Z</time><name>PT17341</name></trkpt>
<trkpt lat="53.306293" lon="06.595415"><ele>1.9</ele><time>2021-05-20T16:21:54Z</time><name>PT17342</name></trkpt>
<trkpt lat="53.306293" lon="06.595398"><ele>1.8</ele><time>2021-05-20T16:21:55Z</time><name>PT17343</name></trkpt>
<trkpt lat="53.306295" lon="06.595383"><ele>1.8</ele><time>2021-05-20T16:21:56Z</time><name>PT17344</name></trkpt>
<trkpt lat="53.306296" lon="06.595367"><ele>1.7</ele><time>2021-05-20T16:21:57Z</time><name>PT17345</name></trkpt>
<trkpt lat="53.306295" lon="06.595350"><ele>1.7</ele><time>2021-05-20T16:21:58Z</time><name>PT17346</name></trkpt>
<trkpt lat="53.306296" lon="06.595333"><ele>1.5</ele><time>2021-05-20T16:21:59Z</time><name>PT17347</name></trkpt>
<trkpt lat="53.306297" lon="06.595315"><ele>1.6</ele><time>2021-05-20T16:22:00Z</time><name>PT17348</name></trkpt>
<trkpt lat="53.306300" lon="06.595298"><ele>1.7</ele><time>2021-05-20T16:22:01Z</time><name>PT17349</name></trkpt>
<trkpt lat="53.306300" lon="06.595280"><ele>1.6</ele><time>2021-05-20T16:22:02Z</time><name>PT17350</name></trkpt>
<trkpt lat="53.306301" lon="06.595263"><ele>1.7</ele><time>2021-05-20T16:22:03Z</time><name>PT17351</name></trkpt>
<trkpt lat="53.306304" lon="06.595246"><ele>1.4</ele><time>2021-05-20T16:22:04Z</time><name>PT17352</name></trkpt>
<trkpt lat="53.306305" lon="06.595234"><ele>1.4</ele><time>2021-05-20T16:22:05Z</time><name>PT17353</name></trkpt>
<trkpt lat="53.306306" lon="06.595219"><ele>1.4</ele><time>2021-05-20T16:22:06Z</time><name>PT17354</name></trkpt>
<trkpt lat="53.306306" lon="06.595201"><ele>1.7</ele><time>2021-05-20T16:22:07Z</time><name>PT17355</name></trkpt>
<trkpt lat="53.306306" lon="06.595185"><ele>1.7</ele><time>2021-05-20T16:22:08Z</time><name>PT17356</name></trkpt>
<trkpt lat="53.306307" lon="06.595166"><ele>1.9</ele><time>2021-05-20T16:22:09Z</time><name>PT17357</name></trkpt>
<trkpt lat="53.306307" lon="06.595151"><ele>1.9</ele><time>2021-05-20T16:22:10Z</time><name>PT17358</name></trkpt>
<trkpt lat="53.306308" lon="06.595135"><ele>2</ele><time>2021-05-20T16:22:11Z</time><name>PT17359</name></trkpt>
<trkpt lat="53.306309" lon="06.595120"><ele>1.9</ele><time>2021-05-20T16:22:12Z</time><name>PT17360</name></trkpt>
<trkpt lat="53.306312" lon="06.595107"><ele>2</ele><time>2021-05-20T16:22:13Z</time><name>PT17361</name></trkpt>
<trkpt lat="53.306315" lon="06.595092"><ele>1.9</ele><time>2021-05-20T16:22:14Z</time><name>PT17362</name></trkpt>
<trkpt lat="53.306318" lon="06.595076"><ele>1.9</ele><time>2021-05-20T16:22:15Z</time><name>PT17363</name></trkpt>
<trkpt lat="53.306319" lon="06.595062"><ele>2.2</ele><time>2021-05-20T16:22:16Z</time><name>PT17364</name></trkpt>
<trkpt lat="53.306316" lon="06.595050"><ele>2.2</ele><time>2021-05-20T16:22:17Z</time><name>PT17365</name></trkpt>
<trkpt lat="53.306315" lon="06.595037"><ele>2.3</ele><time>2021-05-20T16:22:18Z</time><name>PT17366</name></trkpt>
<trkpt lat="53.306313" lon="06.595024"><ele>2.4</ele><time>2021-05-20T16:22:19Z</time><name>PT17367</name></trkpt>
<trkpt lat="53.306316" lon="06.595013"><ele>2.3</ele><time>2021-05-20T16:22:20Z</time><name>PT17368</name></trkpt>
<trkpt lat="53.306318" lon="06.595002"><ele>2.2</ele><time>2021-05-20T16:22:21Z</time><name>PT17369</name></trkpt>
<trkpt lat="53.306319" lon="06.594992"><ele>2.2</ele><time>2021-05-20T16:22:22Z</time><name>PT17370</name></trkpt>
<trkpt lat="53.306317" lon="06.594984"><ele>2.4</ele><time>2021-05-20T16:22:23Z</time><name>PT17371</name></trkpt>
<trkpt lat="53.306317" lon="06.594978"><ele>2.5</ele><time>2021-05-20T16:22:24Z</time><name>PT17372</name></trkpt>
<trkpt lat="53.306316" lon="06.594975"><ele>2.4</ele><time>2021-05-20T16:22:25Z</time><name>PT17373</name></trkpt>
<trkpt lat="53.306316" lon="06.594973"><ele>2.3</ele><time>2021-05-20T16:22:26Z</time><name>PT17374</name></trkpt>
<trkpt lat="53.306316" lon="06.594972"><ele>2.3</ele><time>2021-05-20T16:22:27Z</time><name>PT17375</name></trkpt>
<trkpt lat="53.306315" lon="06.594970"><ele>2.2</ele><time>2021-05-20T16:22:28Z</time><name>PT17376</name></trkpt>
<trkpt lat="53.306315" lon="06.594970"><ele>2.2</ele><time>2021-05-20T16:22:29Z</time><name>PT17377</name></trkpt>
<trkpt lat="53.306316" lon="06.594965"><ele>2.5</ele><time>2021-05-20T16:22:34Z</time><name>PT17378</name></trkpt>
<trkpt lat="53.306315" lon="06.594957"><ele>2.4</ele><time>2021-05-20T16:22:35Z</time><name>PT17379</name></trkpt>
<trkpt lat="53.306313" lon="06.594956"><ele>2.2</ele><time>2021-05-20T16:22:36Z</time><name>PT17380</name></trkpt>
<trkpt lat="53.306313" lon="06.594953"><ele>2</ele><time>2021-05-20T16:22:37Z</time><name>PT17381</name></trkpt>
<trkpt lat="53.306312" lon="06.594950"><ele>2.1</ele><time>2021-05-20T16:22:38Z</time><name>PT17382</name></trkpt>
<trkpt lat="53.306311" lon="06.594942"><ele>2.1</ele><time>2021-05-20T16:22:39Z</time><name>PT17383</name></trkpt>
<trkpt lat="53.306309" lon="06.594929"><ele>2</ele><time>2021-05-20T16:22:40Z</time><name>PT17384</name></trkpt>
<trkpt lat="53.306307" lon="06.594916"><ele>2</ele><time>2021-05-20T16:22:41Z</time><name>PT17385</name></trkpt>
<trkpt lat="53.306303" lon="06.594903"><ele>2</ele><time>2021-05-20T16:22:42Z</time><name>PT17386</name></trkpt>
<trkpt lat="53.306298" lon="06.594890"><ele>1.9</ele><time>2021-05-20T16:22:43Z</time><name>PT17387</name></trkpt>
<trkpt lat="53.306293" lon="06.594872"><ele>1.9</ele><time>2021-05-20T16:22:44Z</time><name>PT17388</name></trkpt>
<trkpt lat="53.306285" lon="06.594861"><ele>2</ele><time>2021-05-20T16:22:45Z</time><name>PT17389</name></trkpt>
<trkpt lat="53.306277" lon="06.594849"><ele>2.2</ele><time>2021-05-20T16:22:46Z</time><name>PT17390</name></trkpt>
<trkpt lat="53.306274" lon="06.594842"><ele>2.2</ele><time>2021-05-20T16:22:47Z</time><name>PT17391</name></trkpt>
<trkpt lat="53.306270" lon="06.594835"><ele>2.4</ele><time>2021-05-20T16:22:48Z</time><name>PT17392</name></trkpt>
<trkpt lat="53.306262" lon="06.594825"><ele>2.3</ele><time>2021-05-20T16:22:49Z</time><name>PT17393</name></trkpt>
<trkpt lat="53.306255" lon="06.594815"><ele>2.4</ele><time>2021-05-20T16:22:50Z</time><name>PT17394</name></trkpt>
<trkpt lat="53.306251" lon="06.594800"><ele>2.3</ele><time>2021-05-20T16:22:51Z</time><name>PT17395</name></trkpt>
<trkpt lat="53.306255" lon="06.594790"><ele>2.3</ele><time>2021-05-20T16:22:52Z</time><name>PT17396</name></trkpt>
<trkpt lat="53.306253" lon="06.594777"><ele>2.2</ele><time>2021-05-20T16:22:53Z</time><name>PT17397</name></trkpt>
<trkpt lat="53.306253" lon="06.594762"><ele>2.1</ele><time>2021-05-20T16:22:54Z</time><name>PT17398</name></trkpt>
<trkpt lat="53.306257" lon="06.594746"><ele>2.2</ele><time>2021-05-20T16:22:55Z</time><name>PT17399</name></trkpt>
<trkpt lat="53.306259" lon="06.594729"><ele>2.3</ele><time>2021-05-20T16:22:56Z</time><name>PT17400</name></trkpt>
<trkpt lat="53.306259" lon="06.594711"><ele>2.5</ele><time>2021-05-20T16:22:57Z</time><name>PT17401</name></trkpt>
<trkpt lat="53.306261" lon="06.594693"><ele>2.7</ele><time>2021-05-20T16:22:58Z</time><name>PT17402</name></trkpt>
<trkpt lat="53.306264" lon="06.594677"><ele>2.8</ele><time>2021-05-20T16:22:59Z</time><name>PT17403</name></trkpt>
<trkpt lat="53.306266" lon="06.594662"><ele>2.7</ele><time>2021-05-20T16:23:00Z</time><name>PT17404</name></trkpt>
<trkpt lat="53.306267" lon="06.594648"><ele>2.6</ele><time>2021-05-20T16:23:01Z</time><name>PT17405</name></trkpt>
<trkpt lat="53.306270" lon="06.594632"><ele>2.4</ele><time>2021-05-20T16:23:02Z</time><name>PT17406</name></trkpt>
<trkpt lat="53.306272" lon="06.594618"><ele>2.4</ele><time>2021-05-20T16:23:03Z</time><name>PT17407</name></trkpt>
<trkpt lat="53.306275" lon="06.594602"><ele>2.4</ele><time>2021-05-20T16:23:04Z</time><name>PT17408</name></trkpt>
<trkpt lat="53.306277" lon="06.594585"><ele>2.5</ele><time>2021-05-20T16:23:05Z</time><name>PT17409</name></trkpt>
<trkpt lat="53.306277" lon="06.594568"><ele>2.7</ele><time>2021-05-20T16:23:06Z</time><name>PT17410</name></trkpt>
<trkpt lat="53.306279" lon="06.594553"><ele>2.9</ele><time>2021-05-20T16:23:07Z</time><name>PT17411</name></trkpt>
<trkpt lat="53.306281" lon="06.594538"><ele>2.8</ele><time>2021-05-20T16:23:08Z</time><name>PT17412</name></trkpt>
<trkpt lat="53.306283" lon="06.594523"><ele>2.6</ele><time>2021-05-20T16:23:09Z</time><name>PT17413</name></trkpt>
<trkpt lat="53.306285" lon="06.594510"><ele>2.5</ele><time>2021-05-20T16:23:10Z</time><name>PT17414</name></trkpt>
<trkpt lat="53.306287" lon="06.594499"><ele>2.4</ele><time>2021-05-20T16:23:11Z</time><name>PT17415</name></trkpt>
<trkpt lat="53.306288" lon="06.594489"><ele>2.3</ele><time>2021-05-20T16:23:12Z</time><name>PT17416</name></trkpt>
<trkpt lat="53.306288" lon="06.594477"><ele>2.5</ele><time>2021-05-20T16:23:13Z</time><name>PT17417</name></trkpt>
<trkpt lat="53.306290" lon="06.594463"><ele>2.6</ele><time>2021-05-20T16:23:14Z</time><name>PT17418</name></trkpt>
<trkpt lat="53.306294" lon="06.594450"><ele>2.7</ele><time>2021-05-20T16:23:15Z</time><name>PT17419</name></trkpt>
<trkpt lat="53.306296" lon="06.594435"><ele>2.6</ele><time>2021-05-20T16:23:16Z</time><name>PT17420</name></trkpt>
<trkpt lat="53.306299" lon="06.594421"><ele>2.6</ele><time>2021-05-20T16:23:17Z</time><name>PT17421</name></trkpt>
<trkpt lat="53.306301" lon="06.594407"><ele>2.4</ele><time>2021-05-20T16:23:18Z</time><name>PT17422</name></trkpt>
<trkpt lat="53.306304" lon="06.594391"><ele>2.2</ele><time>2021-05-20T16:23:19Z</time><name>PT17423</name></trkpt>
<trkpt lat="53.306307" lon="06.594375"><ele>2.2</ele><time>2021-05-20T16:23:20Z</time><name>PT17424</name></trkpt>
<trkpt lat="53.306309" lon="06.594360"><ele>2.1</ele><time>2021-05-20T16:23:21Z</time><name>PT17425</name></trkpt>
<trkpt lat="53.306313" lon="06.594345"><ele>2.2</ele><time>2021-05-20T16:23:22Z</time><name>PT17426</name></trkpt>
<trkpt lat="53.306315" lon="06.594330"><ele>2.2</ele><time>2021-05-20T16:23:23Z</time><name>PT17427</name></trkpt>
<trkpt lat="53.306317" lon="06.594314"><ele>2.3</ele><time>2021-05-20T16:23:24Z</time><name>PT17428</name></trkpt>
<trkpt lat="53.306319" lon="06.594298"><ele>2.2</ele><time>2021-05-20T16:23:25Z</time><name>PT17429</name></trkpt>
<trkpt lat="53.306322" lon="06.594281"><ele>2.2</ele><time>2021-05-20T16:23:26Z</time><name>PT17430</name></trkpt>
<trkpt lat="53.306325" lon="06.594267"><ele>2.2</ele><time>2021-05-20T16:23:27Z</time><name>PT17431</name></trkpt>
<trkpt lat="53.306328" lon="06.594252"><ele>2.3</ele><time>2021-05-20T16:23:28Z</time><name>PT17432</name></trkpt>
<trkpt lat="53.306331" lon="06.594235"><ele>2.2</ele><time>2021-05-20T16:23:29Z</time><name>PT17433</name></trkpt>
<trkpt lat="53.306334" lon="06.594220"><ele>2.3</ele><time>2021-05-20T16:23:30Z</time><name>PT17434</name></trkpt>
<trkpt lat="53.306337" lon="06.594203"><ele>2.3</ele><time>2021-05-20T16:23:31Z</time><name>PT17435</name></trkpt>
<trkpt lat="53.306340" lon="06.594188"><ele>2.2</ele><time>2021-05-20T16:23:32Z</time><name>PT17436</name></trkpt>
<trkpt lat="53.306344" lon="06.594174"><ele>2.1</ele><time>2021-05-20T16:23:33Z</time><name>PT17437</name></trkpt>
<trkpt lat="53.306345" lon="06.594159"><ele>2</ele><time>2021-05-20T16:23:34Z</time><name>PT17438</name></trkpt>
<trkpt lat="53.306347" lon="06.594142"><ele>2</ele><time>2021-05-20T16:23:35Z</time><name>PT17439</name></trkpt>
<trkpt lat="53.306350" lon="06.594126"><ele>2</ele><time>2021-05-20T16:23:36Z</time><name>PT17440</name></trkpt>
<trkpt lat="53.306353" lon="06.594111"><ele>2.2</ele><time>2021-05-20T16:23:37Z</time><name>PT17441</name></trkpt>
<trkpt lat="53.306356" lon="06.594094"><ele>2.2</ele><time>2021-05-20T16:23:38Z</time><name>PT17442</name></trkpt>
<trkpt lat="53.306358" lon="06.594079"><ele>2</ele><time>2021-05-20T16:23:39Z</time><name>PT17443</name></trkpt>
<trkpt lat="53.306361" lon="06.594065"><ele>2.2</ele><time>2021-05-20T16:23:40Z</time><name>PT17444</name></trkpt>
<trkpt lat="53.306364" lon="06.594049"><ele>2.2</ele><time>2021-05-20T16:23:41Z</time><name>PT17445</name></trkpt>
<trkpt lat="53.306367" lon="06.594033"><ele>2.3</ele><time>2021-05-20T16:23:42Z</time><name>PT17446</name></trkpt>
<trkpt lat="53.306370" lon="06.594017"><ele>2.4</ele><time>2021-05-20T16:23:43Z</time><name>PT17447</name></trkpt>
<trkpt lat="53.306373" lon="06.594002"><ele>2.5</ele><time>2021-05-20T16:23:44Z</time><name>PT17448</name></trkpt>
<trkpt lat="53.306375" lon="06.593987"><ele>2.5</ele><time>2021-05-20T16:23:45Z</time><name>PT17449</name></trkpt>
<trkpt lat="53.306377" lon="06.593973"><ele>2.4</ele><time>2021-05-20T16:23:46Z</time><name>PT17450</name></trkpt>
<trkpt lat="53.306380" lon="06.593956"><ele>2.4</ele><time>2021-05-20T16:23:47Z</time><name>PT17451</name></trkpt>
<trkpt lat="53.306382" lon="06.593940"><ele>2.6</ele><time>2021-05-20T16:23:48Z</time><name>PT17452</name></trkpt>
<trkpt lat="53.306386" lon="06.593925"><ele>2.5</ele><time>2021-05-20T16:23:49Z</time><name>PT17453</name></trkpt>
<trkpt lat="53.306389" lon="06.593910"><ele>2.7</ele><time>2021-05-20T16:23:50Z</time><name>PT17454</name></trkpt>
<trkpt lat="53.306391" lon="06.593896"><ele>2.5</ele><time>2021-05-20T16:23:51Z</time><name>PT17455</name></trkpt>
<trkpt lat="53.306393" lon="06.593880"><ele>2.6</ele><time>2021-05-20T16:23:52Z</time><name>PT17456</name></trkpt>
<trkpt lat="53.306395" lon="06.593864"><ele>2.5</ele><time>2021-05-20T16:23:53Z</time><name>PT17457</name></trkpt>
<trkpt lat="53.306398" lon="06.593848"><ele>2.5</ele><time>2021-05-20T16:23:54Z</time><name>PT17458</name></trkpt>
<trkpt lat="53.306401" lon="06.593834"><ele>2.6</ele><time>2021-05-20T16:23:55Z</time><name>PT17459</name></trkpt>
<trkpt lat="53.306403" lon="06.593818"><ele>2.5</ele><time>2021-05-20T16:23:56Z</time><name>PT17460</name></trkpt>
<trkpt lat="53.306406" lon="06.593801"><ele>2.5</ele><time>2021-05-20T16:23:57Z</time><name>PT17461</name></trkpt>
<trkpt lat="53.306407" lon="06.593785"><ele>2.7</ele><time>2021-05-20T16:23:58Z</time><name>PT17462</name></trkpt>
<trkpt lat="53.306409" lon="06.593769"><ele>2.5</ele><time>2021-05-20T16:23:59Z</time><name>PT17463</name></trkpt>
<trkpt lat="53.306416" lon="06.593757"><ele>2.7</ele><time>2021-05-20T16:24:00Z</time><name>PT17464</name></trkpt>
<trkpt lat="53.306423" lon="06.593751"><ele>2.7</ele><time>2021-05-20T16:24:01Z</time><name>PT17465</name></trkpt>
<trkpt lat="53.306431" lon="06.593743"><ele>2.7</ele><time>2021-05-20T16:24:02Z</time><name>PT17466</name></trkpt>
<trkpt lat="53.306437" lon="06.593737"><ele>2.7</ele><time>2021-05-20T16:24:03Z</time><name>PT17467</name></trkpt>
<trkpt lat="53.306447" lon="06.593732"><ele>2.8</ele><time>2021-05-20T16:24:04Z</time><name>PT17468</name></trkpt>
<trkpt lat="53.306454" lon="06.593727"><ele>2.8</ele><time>2021-05-20T16:24:05Z</time><name>PT17469</name></trkpt>
<trkpt lat="53.306460" lon="06.593721"><ele>2.9</ele><time>2021-05-20T16:24:06Z</time><name>PT17470</name></trkpt>
<trkpt lat="53.306464" lon="06.593712"><ele>3</ele><time>2021-05-20T16:24:07Z</time><name>PT17471</name></trkpt>
<trkpt lat="53.306469" lon="06.593705"><ele>2.9</ele><time>2021-05-20T16:24:08Z</time><name>PT17472</name></trkpt>
<trkpt lat="53.306474" lon="06.593701"><ele>2.8</ele><time>2021-05-20T16:24:09Z</time><name>PT17473</name></trkpt>
<trkpt lat="53.306480" lon="06.593697"><ele>2.8</ele><time>2021-05-20T16:24:10Z</time><name>PT17474</name></trkpt>
<trkpt lat="53.306485" lon="06.593694"><ele>2.8</ele><time>2021-05-20T16:24:11Z</time><name>PT17475</name></trkpt>
<trkpt lat="53.306489" lon="06.593688"><ele>2.9</ele><time>2021-05-20T16:24:12Z</time><name>PT17476</name></trkpt>
<trkpt lat="53.306494" lon="06.593682"><ele>2.9</ele><time>2021-05-20T16:24:13Z</time><name>PT17477</name></trkpt>
<trkpt lat="53.306496" lon="06.593674"><ele>2.8</ele><time>2021-05-20T16:24:14Z</time><name>PT17478</name></trkpt>
<trkpt lat="53.306499" lon="06.593675"><ele>2.8</ele><time>2021-05-20T16:24:15Z</time><name>PT17479</name></trkpt>
<trkpt lat="53.306501" lon="06.593675"><ele>2.7</ele><time>2021-05-20T16:24:16Z</time><name>PT17480</name></trkpt>
<trkpt lat="53.306501" lon="06.593677"><ele>2.5</ele><time>2021-05-20T16:24:17Z</time><name>PT17481</name></trkpt>
<trkpt lat="53.306502" lon="06.593677"><ele>2.5</ele><time>2021-05-20T16:24:18Z</time><name>PT17482</name></trkpt>
<trkpt lat="53.306505" lon="06.593675"><ele>2.6</ele><time>2021-05-20T16:24:19Z</time><name>PT17483</name></trkpt>
<trkpt lat="53.306505" lon="06.593673"><ele>2.6</ele><time>2021-05-20T16:24:20Z</time><name>PT17484</name></trkpt>
<trkpt lat="53.306506" lon="06.593673"><ele>2.6</ele><time>2021-05-20T16:24:36Z</time><name>PT17485</name></trkpt>
<trkpt lat="53.306508" lon="06.593672"><ele>2.7</ele><time>2021-05-20T16:24:37Z</time><name>PT17486</name></trkpt>
<trkpt lat="53.306508" lon="06.593673"><ele>2.7</ele><time>2021-05-20T16:24:38Z</time><name>PT17487</name></trkpt>
<trkpt lat="53.306509" lon="06.593672"><ele>2.9</ele><time>2021-05-20T16:24:39Z</time><name>PT17488</name></trkpt>
<trkpt lat="53.306510" lon="06.593672"><ele>2.8</ele><time>2021-05-20T16:24:40Z</time><name>PT17489</name></trkpt>
<trkpt lat="53.306509" lon="06.593641"><ele>3.2</ele><time>2021-05-20T16:25:24Z</time><name>PT17490</name></trkpt>
<trkpt lat="53.306513" lon="06.593614"><ele>3.1</ele><time>2021-05-20T16:25:25Z</time><name>PT17491</name></trkpt>
<trkpt lat="53.306521" lon="06.593577"><ele>3.1</ele><time>2021-05-20T16:25:26Z</time><name>PT17492</name></trkpt>
<trkpt lat="53.306530" lon="06.593545"><ele>3.1</ele><time>2021-05-20T16:25:27Z</time><name>PT17493</name></trkpt>
<trkpt lat="53.306542" lon="06.593527"><ele>3.1</ele><time>2021-05-20T16:25:28Z</time><name>PT17494</name></trkpt>
<trkpt lat="53.306552" lon="06.593508"><ele>3</ele><time>2021-05-20T16:25:29Z</time><name>PT17495</name></trkpt>
<trkpt lat="53.306560" lon="06.593494"><ele>2.9</ele><time>2021-05-20T16:25:30Z</time><name>PT17496</name></trkpt>
<trkpt lat="53.306570" lon="06.593478"><ele>3</ele><time>2021-05-20T16:25:31Z</time><name>PT17497</name></trkpt>
<trkpt lat="53.306579" lon="06.593463"><ele>2.8</ele><time>2021-05-20T16:25:32Z</time><name>PT17498</name></trkpt>
<trkpt lat="53.306586" lon="06.593447"><ele>2.8</ele><time>2021-05-20T16:25:33Z</time><name>PT17499</name></trkpt>
<trkpt lat="53.306594" lon="06.593434"><ele>2.8</ele><time>2021-05-20T16:25:34Z</time><name>PT17500</name></trkpt>
<trkpt lat="53.306602" lon="06.593422"><ele>3.1</ele><time>2021-05-20T16:25:35Z</time><name>PT17501</name></trkpt>
<trkpt lat="53.306609" lon="06.593411"><ele>3.1</ele><time>2021-05-20T16:25:36Z</time><name>PT17502</name></trkpt>
<trkpt lat="53.306618" lon="06.593400"><ele>3.3</ele><time>2021-05-20T16:25:37Z</time><name>PT17503</name></trkpt>
<trkpt lat="53.306624" lon="06.593388"><ele>3.2</ele><time>2021-05-20T16:25:38Z</time><name>PT17504</name></trkpt>
<trkpt lat="53.306631" lon="06.593376"><ele>3.2</ele><time>2021-05-20T16:25:39Z</time><name>PT17505</name></trkpt>
<trkpt lat="53.306638" lon="06.593365"><ele>3.2</ele><time>2021-05-20T16:25:40Z</time><name>PT17506</name></trkpt>
<trkpt lat="53.306644" lon="06.593356"><ele>3.2</ele><time>2021-05-20T16:25:41Z</time><name>PT17507</name></trkpt>
<trkpt lat="53.306653" lon="06.593348"><ele>3.2</ele><time>2021-05-20T16:25:42Z</time><name>PT17508</name></trkpt>
<trkpt lat="53.306660" lon="06.593339"><ele>3.2</ele><time>2021-05-20T16:25:43Z</time><name>PT17509</name></trkpt>
<trkpt lat="53.306669" lon="06.593331"><ele>3.1</ele><time>2021-05-20T16:25:44Z</time><name>PT17510</name></trkpt>
<trkpt lat="53.306676" lon="06.593322"><ele>3</ele><time>2021-05-20T16:25:45Z</time><name>PT17511</name></trkpt>
<trkpt lat="53.306685" lon="06.593314"><ele>2.9</ele><time>2021-05-20T16:25:46Z</time><name>PT17512</name></trkpt>
<trkpt lat="53.306694" lon="06.593305"><ele>3</ele><time>2021-05-20T16:25:47Z</time><name>PT17513</name></trkpt>
<trkpt lat="53.306700" lon="06.593297"><ele>3.1</ele><time>2021-05-20T16:25:48Z</time><name>PT17514</name></trkpt>
<trkpt lat="53.306707" lon="06.593288"><ele>3.1</ele><time>2021-05-20T16:25:49Z</time><name>PT17515</name></trkpt>
<trkpt lat="53.306710" lon="06.593283"><ele>3.2</ele><time>2021-05-20T16:25:50Z</time><name>PT17516</name></trkpt>
<trkpt lat="53.306715" lon="06.593275"><ele>3.3</ele><time>2021-05-20T16:25:51Z</time><name>PT17517</name></trkpt>
<trkpt lat="53.306722" lon="06.593265"><ele>3.3</ele><time>2021-05-20T16:25:52Z</time><name>PT17518</name></trkpt>
<trkpt lat="53.306727" lon="06.593257"><ele>3.2</ele><time>2021-05-20T16:25:53Z</time><name>PT17519</name></trkpt>
<trkpt lat="53.306733" lon="06.593249"><ele>3.4</ele><time>2021-05-20T16:25:54Z</time><name>PT17520</name></trkpt>
<trkpt lat="53.306740" lon="06.593238"><ele>3.6</ele><time>2021-05-20T16:25:55Z</time><name>PT17521</name></trkpt>
<trkpt lat="53.306746" lon="06.593229"><ele>3.5</ele><time>2021-05-20T16:25:56Z</time><name>PT17522</name></trkpt>
<trkpt lat="53.306752" lon="06.593219"><ele>3.6</ele><time>2021-05-20T16:25:57Z</time><name>PT17523</name></trkpt>
<trkpt lat="53.306756" lon="06.593206"><ele>3.3</ele><time>2021-05-20T16:25:58Z</time><name>PT17524</name></trkpt>
<trkpt lat="53.306762" lon="06.593196"><ele>3.3</ele><time>2021-05-20T16:25:59Z</time><name>PT17525</name></trkpt>
<trkpt lat="53.306767" lon="06.593187"><ele>3.5</ele><time>2021-05-20T16:26:00Z</time><name>PT17526</name></trkpt>
<trkpt lat="53.306772" lon="06.593177"><ele>3.8</ele><time>2021-05-20T16:26:01Z</time><name>PT17527</name></trkpt>
<trkpt lat="53.306776" lon="06.593168"><ele>3.8</ele><time>2021-05-20T16:26:02Z</time><name>PT17528</name></trkpt>
<trkpt lat="53.306784" lon="06.593159"><ele>4</ele><time>2021-05-20T16:26:03Z</time><name>PT17529</name></trkpt>
<trkpt lat="53.306788" lon="06.593152"><ele>3.9</ele><time>2021-05-20T16:26:04Z</time><name>PT17530</name></trkpt>
<trkpt lat="53.306792" lon="06.593145"><ele>3.8</ele><time>2021-05-20T16:26:05Z</time><name>PT17531</name></trkpt>
<trkpt lat="53.306797" lon="06.593139"><ele>3.6</ele><time>2021-05-20T16:26:06Z</time><name>PT17532</name></trkpt>
<trkpt lat="53.306799" lon="06.593133"><ele>3.6</ele><time>2021-05-20T16:26:07Z</time><name>PT17533</name></trkpt>
<trkpt lat="53.306803" lon="06.593131"><ele>3.7</ele><time>2021-05-20T16:26:08Z</time><name>PT17534</name></trkpt>
<trkpt lat="53.306803" lon="06.593131"><ele>3.6</ele><time>2021-05-20T16:26:09Z</time><name>PT17535</name></trkpt></trkseg></trk></gpx>